<?xml version='1.0' encoding='UTF-8'?><gpx version="1.1" creator="JPX - https://github.com/jenetics/jpx" xmlns="http://www.topografix.com/GPX/1/1"><trk><trkseg><trkpt lat="45.7163867" lon="11.36152"><ele>197.0</ele><time>2026-04-23T07:24:11.342Z</time></trkpt><trkpt lat="45.716705" lon="11.3626917"><ele>197.0</ele><time>2026-04-23T07:24:16.843Z</time></trkpt></trkseg><trkseg><trkpt lat="45.7165533" lon="11.3616817"><ele>197.0</ele><time>2026-04-23T07:35:52.034Z</time></trkpt><trkpt lat="45.716645" lon="11.36143"><ele>197.0</ele><time>2026-04-23T07:36:55.033Z</time></trkpt><trkpt lat="45.716685" lon="11.3612933"><ele>197.0</ele><time>2026-04-23T07:36:57.033Z</time></trkpt><trkpt lat="45.716725" lon="11.361005"><ele>197.25</ele><time>2026-04-23T07:37:02.033Z</time></trkpt><trkpt lat="45.716705" lon="11.36087"><ele>197.5</ele><time>2026-04-23T07:37:05.033Z</time></trkpt><trkpt lat="45.7167833" lon="11.3606883"><ele>197.75</ele><time>2026-04-23T07:37:08.033Z</time></trkpt><trkpt lat="45.7168633" lon="11.3604883"><ele>198.0</ele><time>2026-04-23T07:37:10.033Z</time></trkpt><trkpt lat="45.716895" lon="11.3603833"><ele>198.25</ele><time>2026-04-23T07:37:11.034Z</time></trkpt><trkpt lat="45.7169217" lon="11.360185"><ele>198.5</ele><time>2026-04-23T07:37:13.033Z</time></trkpt><trkpt lat="45.716965" lon="11.360035"><ele>198.75</ele><time>2026-04-23T07:37:15.033Z</time></trkpt><trkpt lat="45.717085" lon="11.359845"><ele>199.0</ele><time>2026-04-23T07:37:21.033Z</time></trkpt><trkpt lat="45.7171833" lon="11.35977"><ele>199.0</ele><time>2026-04-23T07:37:23.033Z</time></trkpt><trkpt lat="45.7172983" lon="11.3596867"><ele>199.0</ele><time>2026-04-23T07:37:25.033Z</time></trkpt><trkpt lat="45.7173667" lon="11.35965"><ele>199.0</ele><time>2026-04-23T07:37:26.033Z</time></trkpt><trkpt lat="45.7175767" lon="11.3595333"><ele>199.0</ele><time>2026-04-23T07:37:29.033Z</time></trkpt><trkpt lat="45.71765" lon="11.3594917"><ele>199.5</ele><time>2026-04-23T07:37:30.033Z</time></trkpt><trkpt lat="45.7178067" lon="11.3594217"><ele>200.0</ele><time>2026-04-23T07:37:32.033Z</time></trkpt><trkpt lat="45.717985" lon="11.3593717"><ele>200.5</ele><time>2026-04-23T07:37:34.032Z</time></trkpt><trkpt lat="45.71807" lon="11.3593583"><ele>201.0</ele><time>2026-04-23T07:37:35.032Z</time></trkpt><trkpt lat="45.71815" lon="11.35936"><ele>201.0</ele><time>2026-04-23T07:37:36.032Z</time></trkpt><trkpt lat="45.7182617" lon="11.3593817"><ele>201.0</ele><time>2026-04-23T07:37:39.033Z</time></trkpt><trkpt lat="45.7183583" lon="11.3594033"><ele>201.0</ele><time>2026-04-23T07:38:03.032Z</time></trkpt><trkpt lat="45.7184767" lon="11.3594683"><ele>201.0</ele><time>2026-04-23T07:38:05.032Z</time></trkpt><trkpt lat="45.7185583" lon="11.35951"><ele>201.0</ele><time>2026-04-23T07:38:06.032Z</time></trkpt><trkpt lat="45.7186517" lon="11.3595667"><ele>199.0</ele><time>2026-04-23T07:38:07.032Z</time></trkpt><trkpt lat="45.7190667" lon="11.3598533"><ele>199.0</ele><time>2026-04-23T07:38:11.032Z</time></trkpt><trkpt lat="45.7191817" lon="11.359945"><ele>199.0</ele><time>2026-04-23T07:38:12.032Z</time></trkpt><trkpt lat="45.71941" lon="11.3601833"><ele>199.0</ele><time>2026-04-23T07:38:14.032Z</time></trkpt><trkpt lat="45.7195233" lon="11.3603183"><ele>199.0</ele><time>2026-04-23T07:38:15.032Z</time></trkpt><trkpt lat="45.7196217" lon="11.3604333"><ele>199.0</ele><time>2026-04-23T07:38:16.032Z</time></trkpt><trkpt lat="45.7197183" lon="11.3605433"><ele>199.0</ele><time>2026-04-23T07:38:17.032Z</time></trkpt><trkpt lat="45.7198967" lon="11.3607467"><ele>199.0</ele><time>2026-04-23T07:38:19.032Z</time></trkpt><trkpt lat="45.719985" lon="11.3608533"><ele>199.0</ele><time>2026-04-23T07:38:20.032Z</time></trkpt><trkpt lat="45.7200667" lon="11.3609483"><ele>199.0</ele><time>2026-04-23T07:38:21.033Z</time></trkpt><trkpt lat="45.7201567" lon="11.3610417"><ele>199.0</ele><time>2026-04-23T07:38:22.032Z</time></trkpt><trkpt lat="45.720235" lon="11.3611283"><ele>199.0</ele><time>2026-04-23T07:38:23.033Z</time></trkpt><trkpt lat="45.7203633" lon="11.3612817"><ele>199.2</ele><time>2026-04-23T07:38:25.032Z</time></trkpt><trkpt lat="45.7204167" lon="11.3613417"><ele>199.39999999999998</ele><time>2026-04-23T07:38:26.032Z</time></trkpt><trkpt lat="45.7204983" lon="11.3614433"><ele>199.6</ele><time>2026-04-23T07:38:28.032Z</time></trkpt><trkpt lat="45.7205517" lon="11.3615167"><ele>199.8</ele><time>2026-04-23T07:38:30.032Z</time></trkpt><trkpt lat="45.7206183" lon="11.3616433"><ele>200.0</ele><time>2026-04-23T07:38:50.032Z</time></trkpt><trkpt lat="45.720735" lon="11.36182"><ele>200.0</ele><time>2026-04-23T07:38:52.032Z</time></trkpt><trkpt lat="45.720935" lon="11.3620383"><ele>200.0</ele><time>2026-04-23T07:38:54.032Z</time></trkpt><trkpt lat="45.72106" lon="11.36218"><ele>200.0</ele><time>2026-04-23T07:38:55.032Z</time></trkpt><trkpt lat="45.7211717" lon="11.36232"><ele>199.75</ele><time>2026-04-23T07:38:56.033Z</time></trkpt><trkpt lat="45.7212817" lon="11.362455"><ele>199.5</ele><time>2026-04-23T07:38:57.032Z</time></trkpt><trkpt lat="45.7213833" lon="11.3625817"><ele>199.25</ele><time>2026-04-23T07:38:58.033Z</time></trkpt><trkpt lat="45.7214833" lon="11.3626983"><ele>199.0</ele><time>2026-04-23T07:38:59.033Z</time></trkpt><trkpt lat="45.721575" lon="11.362805"><ele>199.0</ele><time>2026-04-23T07:39:00.032Z</time></trkpt><trkpt lat="45.7216783" lon="11.3629117"><ele>199.0</ele><time>2026-04-23T07:39:01.032Z</time></trkpt><trkpt lat="45.7218417" lon="11.3631133"><ele>199.0</ele><time>2026-04-23T07:39:03.032Z</time></trkpt><trkpt lat="45.7219967" lon="11.3633167"><ele>198.66666666666666</ele><time>2026-04-23T07:39:05.032Z</time></trkpt><trkpt lat="45.7222" lon="11.3635467"><ele>198.33333333333331</ele><time>2026-04-23T07:39:07.032Z</time></trkpt><trkpt lat="45.7223" lon="11.3636717"><ele>198.0</ele><time>2026-04-23T07:39:08.032Z</time></trkpt><trkpt lat="45.7225933" lon="11.3640133"><ele>197.5</ele><time>2026-04-23T07:39:11.033Z</time></trkpt><trkpt lat="45.7226883" lon="11.3641217"><ele>197.0</ele><time>2026-04-23T07:39:12.032Z</time></trkpt><trkpt lat="45.7228083" lon="11.364255"><ele>196.5</ele><time>2026-04-23T07:39:13.032Z</time></trkpt><trkpt lat="45.7229433" lon="11.3643967"><ele>196.0</ele><time>2026-04-23T07:39:14.032Z</time></trkpt><trkpt lat="45.7230767" lon="11.364555"><ele>195.0</ele><time>2026-04-23T07:39:15.032Z</time></trkpt><trkpt lat="45.7232067" lon="11.3647283"><ele>194.0</ele><time>2026-04-23T07:39:16.032Z</time></trkpt><trkpt lat="45.7234467" lon="11.3650233"><ele>194.0</ele><time>2026-04-23T07:39:18.033Z</time></trkpt><trkpt lat="45.72355" lon="11.3651517"><ele>194.0</ele><time>2026-04-23T07:39:19.032Z</time></trkpt><trkpt lat="45.7236367" lon="11.3652633"><ele>194.0</ele><time>2026-04-23T07:39:20.032Z</time></trkpt><trkpt lat="45.7237" lon="11.3653767"><ele>194.0</ele><time>2026-04-23T07:39:21.032Z</time></trkpt><trkpt lat="45.723745" lon="11.36549"><ele>194.0</ele><time>2026-04-23T07:39:22.032Z</time></trkpt><trkpt lat="45.7237617" lon="11.3656067"><ele>194.6</ele><time>2026-04-23T07:39:23.032Z</time></trkpt><trkpt lat="45.723795" lon="11.3657"><ele>195.2</ele><time>2026-04-23T07:39:24.032Z</time></trkpt><trkpt lat="45.7238467" lon="11.3657667"><ele>195.79999999999998</ele><time>2026-04-23T07:39:25.032Z</time></trkpt><trkpt lat="45.7239183" lon="11.3658117"><ele>196.39999999999998</ele><time>2026-04-23T07:39:26.032Z</time></trkpt><trkpt lat="45.7240217" lon="11.3658517"><ele>197.0</ele><time>2026-04-23T07:39:27.032Z</time></trkpt><trkpt lat="45.72414" lon="11.365915"><ele>197.0</ele><time>2026-04-23T07:39:28.032Z</time></trkpt><trkpt lat="45.7242567" lon="11.3660233"><ele>197.0</ele><time>2026-04-23T07:39:29.032Z</time></trkpt><trkpt lat="45.72436" lon="11.366135"><ele>197.0</ele><time>2026-04-23T07:39:30.032Z</time></trkpt><trkpt lat="45.72444" lon="11.3662433"><ele>197.0</ele><time>2026-04-23T07:39:31.032Z</time></trkpt><trkpt lat="45.7245083" lon="11.36636"><ele>197.8</ele><time>2026-04-23T07:39:32.032Z</time></trkpt><trkpt lat="45.7245817" lon="11.3664667"><ele>198.6</ele><time>2026-04-23T07:39:33.032Z</time></trkpt><trkpt lat="45.7246667" lon="11.366545"><ele>199.4</ele><time>2026-04-23T07:39:34.032Z</time></trkpt><trkpt lat="45.7247467" lon="11.3666217"><ele>200.20000000000002</ele><time>2026-04-23T07:39:35.032Z</time></trkpt><trkpt lat="45.7248183" lon="11.36669"><ele>201.0</ele><time>2026-04-23T07:39:36.032Z</time></trkpt><trkpt lat="45.7248733" lon="11.366765"><ele>201.0</ele><time>2026-04-23T07:39:37.032Z</time></trkpt><trkpt lat="45.7249983" lon="11.36691"><ele>201.0</ele><time>2026-04-23T07:39:39.032Z</time></trkpt><trkpt lat="45.7250717" lon="11.3669867"><ele>201.0</ele><time>2026-04-23T07:39:40.032Z</time></trkpt><trkpt lat="45.72515" lon="11.3670617"><ele>201.0</ele><time>2026-04-23T07:39:41.032Z</time></trkpt><trkpt lat="45.7252283" lon="11.3671433"><ele>201.0</ele><time>2026-04-23T07:39:42.033Z</time></trkpt><trkpt lat="45.7253" lon="11.3672167"><ele>201.20000000000002</ele><time>2026-04-23T07:39:43.032Z</time></trkpt><trkpt lat="45.7253667" lon="11.3672967"><ele>201.4</ele><time>2026-04-23T07:39:44.032Z</time></trkpt><trkpt lat="45.7254417" lon="11.3673833"><ele>201.6</ele><time>2026-04-23T07:39:45.032Z</time></trkpt><trkpt lat="45.72553" lon="11.36749"><ele>201.8</ele><time>2026-04-23T07:39:46.033Z</time></trkpt><trkpt lat="45.7256233" lon="11.3676067"><ele>202.0</ele><time>2026-04-23T07:39:47.032Z</time></trkpt><trkpt lat="45.72574" lon="11.36774"><ele>202.0</ele><time>2026-04-23T07:39:48.032Z</time></trkpt><trkpt lat="45.725865" lon="11.3678717"><ele>202.0</ele><time>2026-04-23T07:39:49.032Z</time></trkpt><trkpt lat="45.7259733" lon="11.367995"><ele>202.0</ele><time>2026-04-23T07:39:50.033Z</time></trkpt><trkpt lat="45.7260583" lon="11.3681"><ele>202.0</ele><time>2026-04-23T07:39:51.032Z</time></trkpt><trkpt lat="45.7261317" lon="11.3681867"><ele>202.28571428571428</ele><time>2026-04-23T07:39:52.032Z</time></trkpt><trkpt lat="45.726195" lon="11.3682717"><ele>202.57142857142856</ele><time>2026-04-23T07:39:53.032Z</time></trkpt><trkpt lat="45.7262567" lon="11.3683517"><ele>202.85714285714286</ele><time>2026-04-23T07:39:54.032Z</time></trkpt><trkpt lat="45.72631" lon="11.368425"><ele>203.14285714285714</ele><time>2026-04-23T07:39:55.032Z</time></trkpt><trkpt lat="45.726355" lon="11.3684983"><ele>203.42857142857144</ele><time>2026-04-23T07:39:56.032Z</time></trkpt><trkpt lat="45.7263917" lon="11.3685717"><ele>203.71428571428572</ele><time>2026-04-23T07:39:57.032Z</time></trkpt><trkpt lat="45.72642" lon="11.3686567"><ele>204.0</ele><time>2026-04-23T07:39:58.032Z</time></trkpt><trkpt lat="45.726475" lon="11.3688483"><ele>204.0</ele><time>2026-04-23T07:40:00.031Z</time></trkpt><trkpt lat="45.72652" lon="11.3689367"><ele>204.0</ele><time>2026-04-23T07:40:01.031Z</time></trkpt><trkpt lat="45.7265767" lon="11.369015"><ele>204.0</ele><time>2026-04-23T07:40:02.031Z</time></trkpt><trkpt lat="45.72664" lon="11.36907"><ele>204.0</ele><time>2026-04-23T07:40:03.032Z</time></trkpt><trkpt lat="45.7267267" lon="11.3691117"><ele>204.0</ele><time>2026-04-23T07:40:04.031Z</time></trkpt><trkpt lat="45.726815" lon="11.3691417"><ele>204.0</ele><time>2026-04-23T07:40:05.031Z</time></trkpt><trkpt lat="45.7269133" lon="11.369195"><ele>204.5</ele><time>2026-04-23T07:40:06.031Z</time></trkpt><trkpt lat="45.7270217" lon="11.3692867"><ele>205.0</ele><time>2026-04-23T07:40:07.031Z</time></trkpt><trkpt lat="45.727145" lon="11.369415"><ele>205.5</ele><time>2026-04-23T07:40:08.031Z</time></trkpt><trkpt lat="45.7272783" lon="11.3695683"><ele>206.0</ele><time>2026-04-23T07:40:09.031Z</time></trkpt><trkpt lat="45.7274183" lon="11.369735"><ele>206.33333333333334</ele><time>2026-04-23T07:40:10.031Z</time></trkpt><trkpt lat="45.727545" lon="11.3699183"><ele>206.66666666666669</ele><time>2026-04-23T07:40:11.032Z</time></trkpt><trkpt lat="45.7276883" lon="11.3701033"><ele>207.0</ele><time>2026-04-23T07:40:12.031Z</time></trkpt><trkpt lat="45.7278333" lon="11.3702817"><ele>207.33333333333331</ele><time>2026-04-23T07:40:13.032Z</time></trkpt><trkpt lat="45.7279633" lon="11.3704717"><ele>207.66666666666666</ele><time>2026-04-23T07:40:14.031Z</time></trkpt><trkpt lat="45.728085" lon="11.370675"><ele>208.0</ele><time>2026-04-23T07:40:15.031Z</time></trkpt><trkpt lat="45.7282" lon="11.3708983"><ele>208.0</ele><time>2026-04-23T07:40:16.031Z</time></trkpt><trkpt lat="45.7282917" lon="11.3711633"><ele>208.0</ele><time>2026-04-23T07:40:17.031Z</time></trkpt><trkpt lat="45.72837" lon="11.3714333"><ele>208.0</ele><time>2026-04-23T07:40:18.031Z</time></trkpt><trkpt lat="45.7284267" lon="11.3716817"><ele>207.66666666666666</ele><time>2026-04-23T07:40:19.031Z</time></trkpt><trkpt lat="45.7285117" lon="11.3720917"><ele>207.33333333333331</ele><time>2026-04-23T07:40:21.031Z</time></trkpt><trkpt lat="45.7285567" lon="11.3722667"><ele>207.0</ele><time>2026-04-23T07:40:22.032Z</time></trkpt><trkpt lat="45.7285933" lon="11.3724233"><ele>207.8</ele><time>2026-04-23T07:40:23.031Z</time></trkpt><trkpt lat="45.7286283" lon="11.372565"><ele>208.6</ele><time>2026-04-23T07:40:24.031Z</time></trkpt><trkpt lat="45.7286617" lon="11.3726833"><ele>209.4</ele><time>2026-04-23T07:40:25.031Z</time></trkpt><trkpt lat="45.72869" lon="11.3727867"><ele>210.20000000000002</ele><time>2026-04-23T07:40:26.031Z</time></trkpt><trkpt lat="45.7287383" lon="11.37293"><ele>211.0</ele><time>2026-04-23T07:40:28.031Z</time></trkpt><trkpt lat="45.72878" lon="11.3731133"><ele>212.0</ele><time>2026-04-23T07:41:00.032Z</time></trkpt><trkpt lat="45.728855" lon="11.3734317"><ele>213.0</ele><time>2026-04-23T07:41:02.031Z</time></trkpt><trkpt lat="45.7289033" lon="11.3736133"><ele>214.0</ele><time>2026-04-23T07:41:03.031Z</time></trkpt><trkpt lat="45.728965" lon="11.3738233"><ele>214.0</ele><time>2026-04-23T07:41:04.032Z</time></trkpt><trkpt lat="45.7290233" lon="11.3740583"><ele>214.0</ele><time>2026-04-23T07:41:05.032Z</time></trkpt><trkpt lat="45.7290883" lon="11.3742983"><ele>214.0</ele><time>2026-04-23T07:41:06.031Z</time></trkpt><trkpt lat="45.72916" lon="11.374555"><ele>213.66666666666666</ele><time>2026-04-23T07:41:07.031Z</time></trkpt><trkpt lat="45.7292333" lon="11.3748167"><ele>213.33333333333331</ele><time>2026-04-23T07:41:08.032Z</time></trkpt><trkpt lat="45.729305" lon="11.3750917"><ele>213.0</ele><time>2026-04-23T07:41:09.031Z</time></trkpt><trkpt lat="45.7293783" lon="11.3753733"><ele>213.0</ele><time>2026-04-23T07:41:10.031Z</time></trkpt><trkpt lat="45.72945" lon="11.3756467"><ele>213.0</ele><time>2026-04-23T07:41:11.031Z</time></trkpt><trkpt lat="45.7295233" lon="11.37591"><ele>213.0</ele><time>2026-04-23T07:41:12.031Z</time></trkpt><trkpt lat="45.7295867" lon="11.37619"><ele>212.66666666666669</ele><time>2026-04-23T07:41:13.032Z</time></trkpt><trkpt lat="45.72966" lon="11.3764733"><ele>212.33333333333334</ele><time>2026-04-23T07:41:14.031Z</time></trkpt><trkpt lat="45.7297317" lon="11.376755"><ele>212.0</ele><time>2026-04-23T07:41:15.031Z</time></trkpt><trkpt lat="45.7298033" lon="11.3770383"><ele>211.66666666666669</ele><time>2026-04-23T07:41:16.031Z</time></trkpt><trkpt lat="45.7298683" lon="11.3773033"><ele>211.33333333333331</ele><time>2026-04-23T07:41:17.031Z</time></trkpt><trkpt lat="45.72994" lon="11.37757"><ele>211.0</ele><time>2026-04-23T07:41:18.031Z</time></trkpt><trkpt lat="45.7300017" lon="11.3778533"><ele>211.0</ele><time>2026-04-23T07:41:19.032Z</time></trkpt><trkpt lat="45.7300783" lon="11.3781367"><ele>211.0</ele><time>2026-04-23T07:41:20.032Z</time></trkpt><trkpt lat="45.7301533" lon="11.37843"><ele>211.0</ele><time>2026-04-23T07:41:21.032Z</time></trkpt><trkpt lat="45.730295" lon="11.378975"><ele>211.0</ele><time>2026-04-23T07:41:23.031Z</time></trkpt><trkpt lat="45.7303633" lon="11.3792533"><ele>211.0</ele><time>2026-04-23T07:41:24.031Z</time></trkpt><trkpt lat="45.7304383" lon="11.3795417"><ele>211.0</ele><time>2026-04-23T07:41:25.031Z</time></trkpt><trkpt lat="45.73052" lon="11.3798383"><ele>211.0</ele><time>2026-04-23T07:41:26.031Z</time></trkpt><trkpt lat="45.73059" lon="11.3801367"><ele>211.0</ele><time>2026-04-23T07:41:27.031Z</time></trkpt><trkpt lat="45.7306683" lon="11.380425"><ele>211.0</ele><time>2026-04-23T07:41:28.031Z</time></trkpt><trkpt lat="45.7307433" lon="11.3807083"><ele>211.0</ele><time>2026-04-23T07:41:29.031Z</time></trkpt><trkpt lat="45.7308167" lon="11.38098"><ele>211.0</ele><time>2026-04-23T07:41:30.031Z</time></trkpt><trkpt lat="45.7308883" lon="11.38126"><ele>211.0</ele><time>2026-04-23T07:41:31.031Z</time></trkpt><trkpt lat="45.7309617" lon="11.3815433"><ele>210.66666666666666</ele><time>2026-04-23T07:41:32.031Z</time></trkpt><trkpt lat="45.731035" lon="11.3818317"><ele>210.33333333333331</ele><time>2026-04-23T07:41:33.031Z</time></trkpt><trkpt lat="45.731105" lon="11.38212"><ele>210.0</ele><time>2026-04-23T07:41:34.032Z</time></trkpt><trkpt lat="45.7311817" lon="11.3824117"><ele>209.66666666666669</ele><time>2026-04-23T07:41:35.031Z</time></trkpt><trkpt lat="45.731255" lon="11.3826867"><ele>209.33333333333334</ele><time>2026-04-23T07:41:36.031Z</time></trkpt><trkpt lat="45.7313333" lon="11.3829683"><ele>209.0</ele><time>2026-04-23T07:41:37.031Z</time></trkpt><trkpt lat="45.7314083" lon="11.38325"><ele>208.66666666666669</ele><time>2026-04-23T07:41:38.032Z</time></trkpt><trkpt lat="45.7314783" lon="11.3835417"><ele>208.33333333333331</ele><time>2026-04-23T07:41:39.031Z</time></trkpt><trkpt lat="45.7315533" lon="11.3838367"><ele>208.0</ele><time>2026-04-23T07:41:40.032Z</time></trkpt><trkpt lat="45.7316267" lon="11.3841183"><ele>208.0</ele><time>2026-04-23T07:41:41.031Z</time></trkpt><trkpt lat="45.7316867" lon="11.384375"><ele>208.0</ele><time>2026-04-23T07:41:42.031Z</time></trkpt><trkpt lat="45.7318083" lon="11.3848267"><ele>207.66666666666666</ele><time>2026-04-23T07:41:44.031Z</time></trkpt><trkpt lat="45.7318583" lon="11.3850517"><ele>207.33333333333331</ele><time>2026-04-23T07:41:45.032Z</time></trkpt><trkpt lat="45.7319233" lon="11.3852917"><ele>207.0</ele><time>2026-04-23T07:41:46.031Z</time></trkpt><trkpt lat="45.731985" lon="11.3855317"><ele>207.0</ele><time>2026-04-23T07:41:47.031Z</time></trkpt><trkpt lat="45.7320483" lon="11.3857683"><ele>207.0</ele><time>2026-04-23T07:41:48.031Z</time></trkpt><trkpt lat="45.7321033" lon="11.3859983"><ele>207.0</ele><time>2026-04-23T07:41:49.031Z</time></trkpt><trkpt lat="45.7321567" lon="11.3862167"><ele>206.66666666666669</ele><time>2026-04-23T07:41:50.031Z</time></trkpt><trkpt lat="45.7322117" lon="11.386425"><ele>206.33333333333334</ele><time>2026-04-23T07:41:51.031Z</time></trkpt><trkpt lat="45.7322717" lon="11.3866433"><ele>206.0</ele><time>2026-04-23T07:41:52.032Z</time></trkpt><trkpt lat="45.732335" lon="11.3868767"><ele>206.0</ele><time>2026-04-23T07:41:53.031Z</time></trkpt><trkpt lat="45.7323933" lon="11.3871267"><ele>206.0</ele><time>2026-04-23T07:41:54.031Z</time></trkpt><trkpt lat="45.7324483" lon="11.387395"><ele>206.0</ele><time>2026-04-23T07:41:55.031Z</time></trkpt><trkpt lat="45.7325267" lon="11.3876783"><ele>204.5</ele><time>2026-04-23T07:41:56.032Z</time></trkpt><trkpt lat="45.7326133" lon="11.3879817"><ele>203.0</ele><time>2026-04-23T07:41:57.031Z</time></trkpt><trkpt lat="45.732695" lon="11.3882967"><ele>203.33333333333334</ele><time>2026-04-23T07:41:58.031Z</time></trkpt><trkpt lat="45.73277" lon="11.3885867"><ele>203.66666666666669</ele><time>2026-04-23T07:41:59.031Z</time></trkpt><trkpt lat="45.7328367" lon="11.3888567"><ele>204.0</ele><time>2026-04-23T07:42:00.031Z</time></trkpt><trkpt lat="45.7328983" lon="11.3891"><ele>204.0</ele><time>2026-04-23T07:42:01.031Z</time></trkpt><trkpt lat="45.732955" lon="11.3893483"><ele>204.0</ele><time>2026-04-23T07:42:02.031Z</time></trkpt><trkpt lat="45.7330167" lon="11.389585"><ele>204.0</ele><time>2026-04-23T07:42:03.031Z</time></trkpt><trkpt lat="45.7331333" lon="11.3900367"><ele>204.66666666666669</ele><time>2026-04-23T07:42:05.031Z</time></trkpt><trkpt lat="45.7331867" lon="11.3902583"><ele>205.33333333333334</ele><time>2026-04-23T07:42:06.031Z</time></trkpt><trkpt lat="45.7332417" lon="11.3904833"><ele>206.0</ele><time>2026-04-23T07:42:07.031Z</time></trkpt><trkpt lat="45.7333" lon="11.3907083"><ele>204.66666666666669</ele><time>2026-04-23T07:42:08.031Z</time></trkpt><trkpt lat="45.73336" lon="11.3909417"><ele>203.33333333333331</ele><time>2026-04-23T07:42:09.032Z</time></trkpt><trkpt lat="45.7334167" lon="11.3911767"><ele>202.0</ele><time>2026-04-23T07:42:10.031Z</time></trkpt><trkpt lat="45.7334733" lon="11.3914167"><ele>200.66666666666666</ele><time>2026-04-23T07:42:11.031Z</time></trkpt><trkpt lat="45.7335383" lon="11.3916517"><ele>199.33333333333331</ele><time>2026-04-23T07:42:12.032Z</time></trkpt><trkpt lat="45.7336017" lon="11.3918917"><ele>198.0</ele><time>2026-04-23T07:42:13.031Z</time></trkpt><trkpt lat="45.7336617" lon="11.39213"><ele>201.33333333333331</ele><time>2026-04-23T07:42:14.031Z</time></trkpt><trkpt lat="45.7337233" lon="11.39236"><ele>204.66666666666666</ele><time>2026-04-23T07:42:15.032Z</time></trkpt><trkpt lat="45.7337833" lon="11.3925883"><ele>208.0</ele><time>2026-04-23T07:42:16.031Z</time></trkpt><trkpt lat="45.73384" lon="11.3928117"><ele>205.66666666666666</ele><time>2026-04-23T07:42:17.031Z</time></trkpt><trkpt lat="45.7339" lon="11.3930283"><ele>203.33333333333331</ele><time>2026-04-23T07:42:18.031Z</time></trkpt><trkpt lat="45.7339567" lon="11.3932433"><ele>201.0</ele><time>2026-04-23T07:42:19.031Z</time></trkpt><trkpt lat="45.73401" lon="11.3934533"><ele>201.0</ele><time>2026-04-23T07:42:20.031Z</time></trkpt><trkpt lat="45.7340617" lon="11.3936583"><ele>201.0</ele><time>2026-04-23T07:42:21.031Z</time></trkpt><trkpt lat="45.7341167" lon="11.3938617"><ele>201.0</ele><time>2026-04-23T07:42:22.031Z</time></trkpt><trkpt lat="45.7341683" lon="11.394065"><ele>199.5</ele><time>2026-04-23T07:42:23.031Z</time></trkpt><trkpt lat="45.73422" lon="11.3942633"><ele>198.0</ele><time>2026-04-23T07:42:24.031Z</time></trkpt><trkpt lat="45.73434" lon="11.3946933"><ele>196.33333333333331</ele><time>2026-04-23T07:42:26.031Z</time></trkpt><trkpt lat="45.734395" lon="11.3949133"><ele>194.66666666666666</ele><time>2026-04-23T07:42:27.031Z</time></trkpt><trkpt lat="45.73445" lon="11.3951433"><ele>193.0</ele><time>2026-04-23T07:42:28.031Z</time></trkpt><trkpt lat="45.7345117" lon="11.3953783"><ele>193.33333333333331</ele><time>2026-04-23T07:42:29.031Z</time></trkpt><trkpt lat="45.7345683" lon="11.3956133"><ele>193.66666666666669</ele><time>2026-04-23T07:42:30.031Z</time></trkpt><trkpt lat="45.73464" lon="11.3958683"><ele>194.0</ele><time>2026-04-23T07:42:31.032Z</time></trkpt><trkpt lat="45.7347067" lon="11.39611"><ele>193.66666666666669</ele><time>2026-04-23T07:42:32.031Z</time></trkpt><trkpt lat="45.7347717" lon="11.3963433"><ele>193.33333333333331</ele><time>2026-04-23T07:42:33.03Z</time></trkpt><trkpt lat="45.7348367" lon="11.3965617"><ele>193.0</ele><time>2026-04-23T07:42:34.03Z</time></trkpt><trkpt lat="45.7348683" lon="11.3967933"><ele>193.0</ele><time>2026-04-23T07:42:35.031Z</time></trkpt><trkpt lat="45.73492" lon="11.397005"><ele>193.0</ele><time>2026-04-23T07:42:36.03Z</time></trkpt><trkpt lat="45.7349767" lon="11.39722"><ele>193.0</ele><time>2026-04-23T07:42:37.03Z</time></trkpt><trkpt lat="45.73503" lon="11.3974283"><ele>192.66666666666666</ele><time>2026-04-23T07:42:38.03Z</time></trkpt><trkpt lat="45.7350883" lon="11.397635"><ele>192.33333333333331</ele><time>2026-04-23T07:42:39.03Z</time></trkpt><trkpt lat="45.7351517" lon="11.39786"><ele>192.0</ele><time>2026-04-23T07:42:40.03Z</time></trkpt><trkpt lat="45.735205" lon="11.3980733"><ele>194.0</ele><time>2026-04-23T07:42:41.031Z</time></trkpt><trkpt lat="45.7352617" lon="11.3982933"><ele>196.0</ele><time>2026-04-23T07:42:42.03Z</time></trkpt><trkpt lat="45.7353233" lon="11.3985267"><ele>198.0</ele><time>2026-04-23T07:42:43.03Z</time></trkpt><trkpt lat="45.7353867" lon="11.39876"><ele>197.0</ele><time>2026-04-23T07:42:44.03Z</time></trkpt><trkpt lat="45.7354367" lon="11.398975"><ele>196.0</ele><time>2026-04-23T07:42:45.03Z</time></trkpt><trkpt lat="45.7355417" lon="11.3994317"><ele>196.0</ele><time>2026-04-23T07:42:47.03Z</time></trkpt><trkpt lat="45.7356033" lon="11.3996583"><ele>196.0</ele><time>2026-04-23T07:42:48.03Z</time></trkpt><trkpt lat="45.7356683" lon="11.399895"><ele>196.0</ele><time>2026-04-23T07:42:49.03Z</time></trkpt><trkpt lat="45.7357433" lon="11.4001633"><ele>195.33333333333331</ele><time>2026-04-23T07:42:50.03Z</time></trkpt><trkpt lat="45.7358167" lon="11.4004367"><ele>194.66666666666669</ele><time>2026-04-23T07:42:51.03Z</time></trkpt><trkpt lat="45.7358833" lon="11.4006933"><ele>194.0</ele><time>2026-04-23T07:42:52.03Z</time></trkpt><trkpt lat="45.73595" lon="11.4009317"><ele>193.66666666666669</ele><time>2026-04-23T07:42:53.031Z</time></trkpt><trkpt lat="45.73601" lon="11.401155"><ele>193.33333333333331</ele><time>2026-04-23T07:42:54.03Z</time></trkpt><trkpt lat="45.7360617" lon="11.40137"><ele>193.0</ele><time>2026-04-23T07:42:55.03Z</time></trkpt><trkpt lat="45.736125" lon="11.4015767"><ele>193.0</ele><time>2026-04-23T07:42:56.03Z</time></trkpt><trkpt lat="45.7361783" lon="11.4017567"><ele>193.0</ele><time>2026-04-23T07:42:57.03Z</time></trkpt><trkpt lat="45.7362183" lon="11.40194"><ele>193.0</ele><time>2026-04-23T07:42:58.03Z</time></trkpt><trkpt lat="45.7362617" lon="11.4021"><ele>193.0</ele><time>2026-04-23T07:42:59.031Z</time></trkpt><trkpt lat="45.7362983" lon="11.4022517"><ele>192.60000000000002</ele><time>2026-04-23T07:43:00.03Z</time></trkpt><trkpt lat="45.7363333" lon="11.40239"><ele>192.20000000000002</ele><time>2026-04-23T07:43:01.03Z</time></trkpt><trkpt lat="45.7363733" lon="11.4025217"><ele>191.8</ele><time>2026-04-23T07:43:02.03Z</time></trkpt><trkpt lat="45.7364117" lon="11.4026567"><ele>191.4</ele><time>2026-04-23T07:43:03.03Z</time></trkpt><trkpt lat="45.7364417" lon="11.402785"><ele>191.0</ele><time>2026-04-23T07:43:04.03Z</time></trkpt><trkpt lat="45.73646" lon="11.4029117"><ele>191.0</ele><time>2026-04-23T07:43:05.031Z</time></trkpt><trkpt lat="45.736465" lon="11.4030383"><ele>191.0</ele><time>2026-04-23T07:43:06.03Z</time></trkpt><trkpt lat="45.7364383" lon="11.4032533"><ele>191.0</ele><time>2026-04-23T07:43:08.031Z</time></trkpt><trkpt lat="45.7364017" lon="11.40338"><ele>191.0</ele><time>2026-04-23T07:43:09.03Z</time></trkpt><trkpt lat="45.736365" lon="11.4035133"><ele>191.0</ele><time>2026-04-23T07:43:10.03Z</time></trkpt><trkpt lat="45.736325" lon="11.4036433"><ele>191.0</ele><time>2026-04-23T07:43:11.03Z</time></trkpt><trkpt lat="45.7362933" lon="11.4037517"><ele>191.0</ele><time>2026-04-23T07:43:12.03Z</time></trkpt><trkpt lat="45.7362733" lon="11.4038567"><ele>191.0</ele><time>2026-04-23T07:43:13.03Z</time></trkpt><trkpt lat="45.7362683" lon="11.4039617"><ele>191.0</ele><time>2026-04-23T07:43:14.03Z</time></trkpt><trkpt lat="45.736275" lon="11.4040567"><ele>191.0</ele><time>2026-04-23T07:43:15.03Z</time></trkpt><trkpt lat="45.73629" lon="11.40422"><ele>191.0</ele><time>2026-04-23T07:43:17.03Z</time></trkpt><trkpt lat="45.73631" lon="11.40434"><ele>191.25</ele><time>2026-04-23T07:43:18.03Z</time></trkpt><trkpt lat="45.736335" lon="11.4044633"><ele>191.5</ele><time>2026-04-23T07:43:19.03Z</time></trkpt><trkpt lat="45.7363767" lon="11.4045783"><ele>191.75</ele><time>2026-04-23T07:43:20.03Z</time></trkpt><trkpt lat="45.7365417" lon="11.4046833"><ele>192.0</ele><time>2026-04-23T07:43:22.03Z</time></trkpt><trkpt lat="45.7366733" lon="11.4047117"><ele>192.25</ele><time>2026-04-23T07:43:23.03Z</time></trkpt><trkpt lat="45.7368083" lon="11.4047483"><ele>192.5</ele><time>2026-04-23T07:43:24.03Z</time></trkpt><trkpt lat="45.73693" lon="11.40483"><ele>192.75</ele><time>2026-04-23T07:43:25.03Z</time></trkpt><trkpt lat="45.7370233" lon="11.404935"><ele>193.0</ele><time>2026-04-23T07:43:26.03Z</time></trkpt><trkpt lat="45.7370933" lon="11.40509"><ele>196.5</ele><time>2026-04-23T07:43:27.03Z</time></trkpt><trkpt lat="45.7371883" lon="11.4055267"><ele>200.0</ele><time>2026-04-23T07:43:29.03Z</time></trkpt><trkpt lat="45.7372317" lon="11.4057433"><ele>200.0</ele><time>2026-04-23T07:43:30.03Z</time></trkpt><trkpt lat="45.7372783" lon="11.4059367"><ele>200.0</ele><time>2026-04-23T07:43:31.03Z</time></trkpt><trkpt lat="45.7373367" lon="11.4061317"><ele>200.0</ele><time>2026-04-23T07:43:32.03Z</time></trkpt><trkpt lat="45.7374" lon="11.4063267"><ele>200.0</ele><time>2026-04-23T07:43:33.03Z</time></trkpt><trkpt lat="45.7374717" lon="11.406525"><ele>200.0</ele><time>2026-04-23T07:43:34.03Z</time></trkpt><trkpt lat="45.73753" lon="11.4067333"><ele>200.0</ele><time>2026-04-23T07:43:35.03Z</time></trkpt><trkpt lat="45.73759" lon="11.4069417"><ele>200.0</ele><time>2026-04-23T07:43:36.03Z</time></trkpt><trkpt lat="45.737655" lon="11.4071517"><ele>199.33333333333334</ele><time>2026-04-23T07:43:37.03Z</time></trkpt><trkpt lat="45.737715" lon="11.40737"><ele>198.66666666666669</ele><time>2026-04-23T07:43:38.03Z</time></trkpt><trkpt lat="45.7377717" lon="11.4075867"><ele>198.0</ele><time>2026-04-23T07:43:39.03Z</time></trkpt><trkpt lat="45.737825" lon="11.4078033"><ele>199.66666666666669</ele><time>2026-04-23T07:43:40.03Z</time></trkpt><trkpt lat="45.7378817" lon="11.4080167"><ele>201.33333333333334</ele><time>2026-04-23T07:43:41.03Z</time></trkpt><trkpt lat="45.7379283" lon="11.4082167"><ele>203.0</ele><time>2026-04-23T07:43:42.03Z</time></trkpt><trkpt lat="45.737985" lon="11.4084233"><ele>203.0</ele><time>2026-04-23T07:43:43.031Z</time></trkpt><trkpt lat="45.738045" lon="11.4086283"><ele>203.0</ele><time>2026-04-23T07:43:44.03Z</time></trkpt><trkpt lat="45.738095" lon="11.4088233"><ele>203.0</ele><time>2026-04-23T07:43:45.03Z</time></trkpt><trkpt lat="45.7381483" lon="11.4090183"><ele>203.0</ele><time>2026-04-23T07:43:46.03Z</time></trkpt><trkpt lat="45.73823" lon="11.4092133"><ele>202.5</ele><time>2026-04-23T07:43:47.03Z</time></trkpt><trkpt lat="45.7383167" lon="11.409395"><ele>202.0</ele><time>2026-04-23T07:43:48.031Z</time></trkpt><trkpt lat="45.73856" lon="11.4097917"><ele>202.0</ele><time>2026-04-23T07:43:50.03Z</time></trkpt><trkpt lat="45.7387" lon="11.4100183"><ele>202.0</ele><time>2026-04-23T07:43:51.03Z</time></trkpt><trkpt lat="45.73885" lon="11.410275"><ele>202.0</ele><time>2026-04-23T07:43:52.03Z</time></trkpt><trkpt lat="45.739" lon="11.4105517"><ele>202.0</ele><time>2026-04-23T07:43:53.03Z</time></trkpt><trkpt lat="45.7391483" lon="11.41083"><ele>202.0</ele><time>2026-04-23T07:43:54.031Z</time></trkpt><trkpt lat="45.73929" lon="11.4111017"><ele>203.0</ele><time>2026-04-23T07:43:55.03Z</time></trkpt><trkpt lat="45.7394317" lon="11.4113867"><ele>204.0</ele><time>2026-04-23T07:43:56.03Z</time></trkpt><trkpt lat="45.7395767" lon="11.4116767"><ele>204.0</ele><time>2026-04-23T07:43:57.03Z</time></trkpt><trkpt lat="45.7397217" lon="11.411965"><ele>204.0</ele><time>2026-04-23T07:43:58.03Z</time></trkpt><trkpt lat="45.73987" lon="11.4122517"><ele>203.0</ele><time>2026-04-23T07:43:59.031Z</time></trkpt><trkpt lat="45.7400167" lon="11.41254"><ele>202.0</ele><time>2026-04-23T07:44:00.03Z</time></trkpt><trkpt lat="45.740155" lon="11.4128133"><ele>203.0</ele><time>2026-04-23T07:44:01.03Z</time></trkpt><trkpt lat="45.7403" lon="11.4130833"><ele>204.0</ele><time>2026-04-23T07:44:02.03Z</time></trkpt><trkpt lat="45.7404383" lon="11.4133483"><ele>204.0</ele><time>2026-04-23T07:44:03.03Z</time></trkpt><trkpt lat="45.7405733" lon="11.413615"><ele>204.0</ele><time>2026-04-23T07:44:04.03Z</time></trkpt><trkpt lat="45.74071" lon="11.4138833"><ele>205.0</ele><time>2026-04-23T07:44:05.03Z</time></trkpt><trkpt lat="45.740845" lon="11.41415"><ele>206.0</ele><time>2026-04-23T07:44:06.03Z</time></trkpt><trkpt lat="45.7409867" lon="11.4144117"><ele>206.0</ele><time>2026-04-23T07:44:07.03Z</time></trkpt><trkpt lat="45.741125" lon="11.4146717"><ele>206.0</ele><time>2026-04-23T07:44:08.03Z</time></trkpt><trkpt lat="45.7412667" lon="11.41494"><ele>206.0</ele><time>2026-04-23T07:44:09.03Z</time></trkpt><trkpt lat="45.7415317" lon="11.415465"><ele>206.66666666666669</ele><time>2026-04-23T07:44:11.031Z</time></trkpt><trkpt lat="45.7416583" lon="11.4157133"><ele>207.33333333333331</ele><time>2026-04-23T07:44:12.03Z</time></trkpt><trkpt lat="45.74178" lon="11.4159633"><ele>208.0</ele><time>2026-04-23T07:44:13.03Z</time></trkpt><trkpt lat="45.7419083" lon="11.4162"><ele>208.33333333333331</ele><time>2026-04-23T07:44:14.03Z</time></trkpt><trkpt lat="45.7420383" lon="11.416445"><ele>208.66666666666669</ele><time>2026-04-23T07:44:15.03Z</time></trkpt><trkpt lat="45.74216" lon="11.4166867"><ele>209.0</ele><time>2026-04-23T07:44:16.03Z</time></trkpt><trkpt lat="45.7422783" lon="11.4169117"><ele>209.0</ele><time>2026-04-23T07:44:17.03Z</time></trkpt><trkpt lat="45.7423983" lon="11.4171317"><ele>209.0</ele><time>2026-04-23T07:44:18.031Z</time></trkpt><trkpt lat="45.7425167" lon="11.4173533"><ele>209.0</ele><time>2026-04-23T07:44:19.03Z</time></trkpt><trkpt lat="45.7426283" lon="11.4175817"><ele>210.33333333333334</ele><time>2026-04-23T07:44:20.03Z</time></trkpt><trkpt lat="45.7427433" lon="11.417805"><ele>211.66666666666669</ele><time>2026-04-23T07:44:21.031Z</time></trkpt><trkpt lat="45.7428617" lon="11.4180217"><ele>213.0</ele><time>2026-04-23T07:44:22.03Z</time></trkpt><trkpt lat="45.74297" lon="11.4182317"><ele>213.66666666666669</ele><time>2026-04-23T07:44:23.03Z</time></trkpt><trkpt lat="45.7430667" lon="11.4184367"><ele>214.33333333333334</ele><time>2026-04-23T07:44:24.031Z</time></trkpt><trkpt lat="45.7431733" lon="11.4186467"><ele>215.0</ele><time>2026-04-23T07:44:25.03Z</time></trkpt><trkpt lat="45.743285" lon="11.4188583"><ele>215.33333333333334</ele><time>2026-04-23T07:44:26.03Z</time></trkpt><trkpt lat="45.7434033" lon="11.41908"><ele>215.66666666666669</ele><time>2026-04-23T07:44:27.03Z</time></trkpt><trkpt lat="45.74352" lon="11.4193017"><ele>216.0</ele><time>2026-04-23T07:44:28.031Z</time></trkpt><trkpt lat="45.7436233" lon="11.4195"><ele>217.0</ele><time>2026-04-23T07:44:29.03Z</time></trkpt><trkpt lat="45.7437183" lon="11.419685"><ele>218.0</ele><time>2026-04-23T07:44:30.03Z</time></trkpt><trkpt lat="45.7439067" lon="11.4200433"><ele>218.0</ele><time>2026-04-23T07:44:32.031Z</time></trkpt><trkpt lat="45.744" lon="11.42022"><ele>218.0</ele><time>2026-04-23T07:44:33.031Z</time></trkpt><trkpt lat="45.7440833" lon="11.420395"><ele>218.0</ele><time>2026-04-23T07:44:34.03Z</time></trkpt><trkpt lat="45.7441733" lon="11.42056"><ele>218.0</ele><time>2026-04-23T07:44:35.03Z</time></trkpt><trkpt lat="45.7442633" lon="11.4207267"><ele>218.0</ele><time>2026-04-23T07:44:36.03Z</time></trkpt><trkpt lat="45.7443517" lon="11.420895"><ele>218.0</ele><time>2026-04-23T07:44:37.03Z</time></trkpt><trkpt lat="45.7444367" lon="11.4210567"><ele>218.0</ele><time>2026-04-23T07:44:38.03Z</time></trkpt><trkpt lat="45.74452" lon="11.4212083"><ele>218.0</ele><time>2026-04-23T07:44:39.031Z</time></trkpt><trkpt lat="45.7446017" lon="11.4213683"><ele>218.25</ele><time>2026-04-23T07:44:40.03Z</time></trkpt><trkpt lat="45.7446817" lon="11.42153"><ele>218.5</ele><time>2026-04-23T07:44:41.03Z</time></trkpt><trkpt lat="45.7447633" lon="11.421675"><ele>218.75</ele><time>2026-04-23T07:44:42.03Z</time></trkpt><trkpt lat="45.7448567" lon="11.4218083"><ele>219.0</ele><time>2026-04-23T07:44:43.03Z</time></trkpt><trkpt lat="45.7449517" lon="11.4219283"><ele>219.0</ele><time>2026-04-23T07:44:44.03Z</time></trkpt><trkpt lat="45.7450533" lon="11.42204"><ele>219.0</ele><time>2026-04-23T07:44:45.03Z</time></trkpt><trkpt lat="45.7451633" lon="11.4221583"><ele>219.0</ele><time>2026-04-23T07:44:46.03Z</time></trkpt><trkpt lat="45.745275" lon="11.4222833"><ele>219.0</ele><time>2026-04-23T07:44:47.03Z</time></trkpt><trkpt lat="45.7453983" lon="11.42242"><ele>220.33333333333331</ele><time>2026-04-23T07:44:48.031Z</time></trkpt><trkpt lat="45.745525" lon="11.4225633"><ele>221.66666666666666</ele><time>2026-04-23T07:44:49.03Z</time></trkpt><trkpt lat="45.7456517" lon="11.42271"><ele>223.0</ele><time>2026-04-23T07:44:50.031Z</time></trkpt><trkpt lat="45.7457867" lon="11.4228617"><ele>225.0</ele><time>2026-04-23T07:44:51.03Z</time></trkpt><trkpt lat="45.74606" lon="11.423165"><ele>227.0</ele><time>2026-04-23T07:44:53.03Z</time></trkpt><trkpt lat="45.74618" lon="11.423295"><ele>227.0</ele><time>2026-04-23T07:44:54.03Z</time></trkpt><trkpt lat="45.7462967" lon="11.4234217"><ele>227.0</ele><time>2026-04-23T07:44:55.031Z</time></trkpt><trkpt lat="45.74641" lon="11.4235467"><ele>227.0</ele><time>2026-04-23T07:44:56.03Z</time></trkpt><trkpt lat="45.7465233" lon="11.4236767"><ele>227.0</ele><time>2026-04-23T07:44:57.03Z</time></trkpt><trkpt lat="45.7466417" lon="11.4238117"><ele>227.0</ele><time>2026-04-23T07:44:58.03Z</time></trkpt><trkpt lat="45.7467617" lon="11.423945"><ele>227.0</ele><time>2026-04-23T07:44:59.03Z</time></trkpt><trkpt lat="45.7468783" lon="11.4240717"><ele>227.0</ele><time>2026-04-23T07:45:00.03Z</time></trkpt><trkpt lat="45.74699" lon="11.424195"><ele>227.0</ele><time>2026-04-23T07:45:01.031Z</time></trkpt><trkpt lat="45.7470983" lon="11.4243167"><ele>227.0</ele><time>2026-04-23T07:45:02.03Z</time></trkpt><trkpt lat="45.7472083" lon="11.424435"><ele>227.0</ele><time>2026-04-23T07:45:03.03Z</time></trkpt><trkpt lat="45.7473183" lon="11.4245533"><ele>227.0</ele><time>2026-04-23T07:45:04.031Z</time></trkpt><trkpt lat="45.74743" lon="11.424675"><ele>227.0</ele><time>2026-04-23T07:45:05.031Z</time></trkpt><trkpt lat="45.74755" lon="11.4248"><ele>227.0</ele><time>2026-04-23T07:45:06.03Z</time></trkpt><trkpt lat="45.7476833" lon="11.4249417"><ele>227.0</ele><time>2026-04-23T07:45:07.03Z</time></trkpt><trkpt lat="45.74782" lon="11.4250917"><ele>227.0</ele><time>2026-04-23T07:45:08.03Z</time></trkpt><trkpt lat="45.74797" lon="11.4252583"><ele>227.0</ele><time>2026-04-23T07:45:09.031Z</time></trkpt><trkpt lat="45.7481183" lon="11.4254267"><ele>227.0</ele><time>2026-04-23T07:45:10.03Z</time></trkpt><trkpt lat="45.7482667" lon="11.4256"><ele>227.0</ele><time>2026-04-23T07:45:11.03Z</time></trkpt><trkpt lat="45.7484183" lon="11.4257683"><ele>229.5</ele><time>2026-04-23T07:45:12.03Z</time></trkpt><trkpt lat="45.7487167" lon="11.4260983"><ele>232.0</ele><time>2026-04-23T07:45:14.03Z</time></trkpt><trkpt lat="45.7488633" lon="11.4262567"><ele>232.66666666666666</ele><time>2026-04-23T07:45:15.03Z</time></trkpt><trkpt lat="45.748995" lon="11.4264083"><ele>233.33333333333331</ele><time>2026-04-23T07:45:16.03Z</time></trkpt><trkpt lat="45.74912" lon="11.4265467"><ele>234.0</ele><time>2026-04-23T07:45:17.03Z</time></trkpt><trkpt lat="45.7492483" lon="11.4266933"><ele>234.33333333333331</ele><time>2026-04-23T07:45:18.03Z</time></trkpt><trkpt lat="45.74938" lon="11.42684"><ele>234.66666666666666</ele><time>2026-04-23T07:45:19.03Z</time></trkpt><trkpt lat="45.749495" lon="11.4269733"><ele>235.0</ele><time>2026-04-23T07:45:20.03Z</time></trkpt><trkpt lat="45.7496133" lon="11.4271033"><ele>235.25</ele><time>2026-04-23T07:45:21.031Z</time></trkpt><trkpt lat="45.74973" lon="11.4272317"><ele>235.5</ele><time>2026-04-23T07:45:22.03Z</time></trkpt><trkpt lat="45.74984" lon="11.4273567"><ele>235.75</ele><time>2026-04-23T07:45:23.03Z</time></trkpt><trkpt lat="45.7499567" lon="11.42749"><ele>236.0</ele><time>2026-04-23T07:45:24.03Z</time></trkpt><trkpt lat="45.7500783" lon="11.4276233"><ele>236.0</ele><time>2026-04-23T07:45:25.03Z</time></trkpt><trkpt lat="45.7502033" lon="11.4277633"><ele>236.0</ele><time>2026-04-23T07:45:26.03Z</time></trkpt><trkpt lat="45.7503317" lon="11.4279033"><ele>236.0</ele><time>2026-04-23T07:45:27.031Z</time></trkpt><trkpt lat="45.7504567" lon="11.4280417"><ele>237.0</ele><time>2026-04-23T07:45:28.029Z</time></trkpt><trkpt lat="45.7505683" lon="11.4281633"><ele>238.0</ele><time>2026-04-23T07:45:29.029Z</time></trkpt><trkpt lat="45.7506667" lon="11.4282733"><ele>239.0</ele><time>2026-04-23T07:45:30.03Z</time></trkpt><trkpt lat="45.7507617" lon="11.42837"><ele>240.0</ele><time>2026-04-23T07:45:31.029Z</time></trkpt><trkpt lat="45.7508483" lon="11.428455"><ele>240.0</ele><time>2026-04-23T07:45:32.029Z</time></trkpt><trkpt lat="45.7509367" lon="11.4285367"><ele>240.0</ele><time>2026-04-23T07:45:33.029Z</time></trkpt><trkpt lat="45.7510883" lon="11.4286817"><ele>240.0</ele><time>2026-04-23T07:45:35.029Z</time></trkpt><trkpt lat="45.751165" lon="11.4287267"><ele>240.0</ele><time>2026-04-23T07:45:36.029Z</time></trkpt><trkpt lat="45.7512317" lon="11.4287733"><ele>240.0</ele><time>2026-04-23T07:45:37.029Z</time></trkpt><trkpt lat="45.7512833" lon="11.4288317"><ele>240.8</ele><time>2026-04-23T07:45:38.03Z</time></trkpt><trkpt lat="45.7513517" lon="11.42892"><ele>241.6</ele><time>2026-04-23T07:45:40.03Z</time></trkpt><trkpt lat="45.75134" lon="11.4290283"><ele>242.39999999999998</ele><time>2026-04-23T07:45:45.029Z</time></trkpt><trkpt lat="45.75136" lon="11.4292"><ele>243.2</ele><time>2026-04-23T07:45:52.029Z</time></trkpt><trkpt lat="45.7514233" lon="11.4293467"><ele>244.0</ele><time>2026-04-23T07:45:53.029Z</time></trkpt><trkpt lat="45.7515067" lon="11.4294667"><ele>244.0</ele><time>2026-04-23T07:45:54.029Z</time></trkpt><trkpt lat="45.7517483" lon="11.4296183"><ele>244.0</ele><time>2026-04-23T07:45:56.029Z</time></trkpt><trkpt lat="45.751895" lon="11.4296867"><ele>244.0</ele><time>2026-04-23T07:45:57.029Z</time></trkpt><trkpt lat="45.7520433" lon="11.42977"><ele>245.0</ele><time>2026-04-23T07:45:58.029Z</time></trkpt><trkpt lat="45.75219" lon="11.429855"><ele>246.0</ele><time>2026-04-23T07:45:59.029Z</time></trkpt><trkpt lat="45.752335" lon="11.4299483"><ele>247.0</ele><time>2026-04-23T07:46:00.029Z</time></trkpt><trkpt lat="45.75248" lon="11.4300383"><ele>247.0</ele><time>2026-04-23T07:46:01.029Z</time></trkpt><trkpt lat="45.7526133" lon="11.4301233"><ele>247.0</ele><time>2026-04-23T07:46:02.029Z</time></trkpt><trkpt lat="45.7527333" lon="11.430195"><ele>247.0</ele><time>2026-04-23T07:46:03.029Z</time></trkpt><trkpt lat="45.7528417" lon="11.43026"><ele>247.0</ele><time>2026-04-23T07:46:04.03Z</time></trkpt><trkpt lat="45.752945" lon="11.4303333"><ele>247.0</ele><time>2026-04-23T07:46:05.029Z</time></trkpt><trkpt lat="45.7530533" lon="11.4304267"><ele>247.0</ele><time>2026-04-23T07:46:06.03Z</time></trkpt><trkpt lat="45.7531583" lon="11.4305483"><ele>247.0</ele><time>2026-04-23T07:46:07.029Z</time></trkpt><trkpt lat="45.753255" lon="11.4306883"><ele>247.0</ele><time>2026-04-23T07:46:08.029Z</time></trkpt><trkpt lat="45.75335" lon="11.43084"><ele>247.0</ele><time>2026-04-23T07:46:09.029Z</time></trkpt><trkpt lat="45.753435" lon="11.430985"><ele>247.0</ele><time>2026-04-23T07:46:10.03Z</time></trkpt><trkpt lat="45.75349" lon="11.43113"><ele>247.0</ele><time>2026-04-23T07:46:11.029Z</time></trkpt><trkpt lat="45.753555" lon="11.4312717"><ele>247.0</ele><time>2026-04-23T07:46:12.029Z</time></trkpt><trkpt lat="45.75362" lon="11.4314217"><ele>248.33333333333331</ele><time>2026-04-23T07:46:13.029Z</time></trkpt><trkpt lat="45.7536917" lon="11.431585"><ele>249.66666666666669</ele><time>2026-04-23T07:46:14.03Z</time></trkpt><trkpt lat="45.75377" lon="11.4317533"><ele>251.0</ele><time>2026-04-23T07:46:15.03Z</time></trkpt><trkpt lat="45.7539117" lon="11.4320617"><ele>250.75</ele><time>2026-04-23T07:46:17.029Z</time></trkpt><trkpt lat="45.7539833" lon="11.43221"><ele>250.5</ele><time>2026-04-23T07:46:18.029Z</time></trkpt><trkpt lat="45.75406" lon="11.4323433"><ele>250.25</ele><time>2026-04-23T07:46:19.029Z</time></trkpt><trkpt lat="45.75413" lon="11.4324817"><ele>250.0</ele><time>2026-04-23T07:46:20.03Z</time></trkpt><trkpt lat="45.7542017" lon="11.43261"><ele>250.0</ele><time>2026-04-23T07:46:21.03Z</time></trkpt><trkpt lat="45.75428" lon="11.43275"><ele>250.0</ele><time>2026-04-23T07:46:22.029Z</time></trkpt><trkpt lat="45.75436" lon="11.4328917"><ele>250.0</ele><time>2026-04-23T07:46:23.029Z</time></trkpt><trkpt lat="45.75445" lon="11.4330333"><ele>250.0</ele><time>2026-04-23T07:46:24.029Z</time></trkpt><trkpt lat="45.7545433" lon="11.433185"><ele>250.5</ele><time>2026-04-23T07:46:25.029Z</time></trkpt><trkpt lat="45.7546417" lon="11.4333317"><ele>251.0</ele><time>2026-04-23T07:46:26.03Z</time></trkpt><trkpt lat="45.7547283" lon="11.4334683"><ele>251.5</ele><time>2026-04-23T07:46:27.03Z</time></trkpt><trkpt lat="45.7548233" lon="11.4336067"><ele>252.0</ele><time>2026-04-23T07:46:28.029Z</time></trkpt><trkpt lat="45.7549117" lon="11.4337517"><ele>252.25</ele><time>2026-04-23T07:46:29.029Z</time></trkpt><trkpt lat="45.7550067" lon="11.4338983"><ele>252.5</ele><time>2026-04-23T07:46:30.029Z</time></trkpt><trkpt lat="45.7550933" lon="11.4340317"><ele>252.75</ele><time>2026-04-23T07:46:31.03Z</time></trkpt><trkpt lat="45.7551783" lon="11.4341583"><ele>253.0</ele><time>2026-04-23T07:46:32.029Z</time></trkpt><trkpt lat="45.7552633" lon="11.4343017"><ele>253.0</ele><time>2026-04-23T07:46:33.029Z</time></trkpt><trkpt lat="45.7553467" lon="11.43445"><ele>253.0</ele><time>2026-04-23T07:46:34.029Z</time></trkpt><trkpt lat="45.7554317" lon="11.4346033"><ele>253.0</ele><time>2026-04-23T07:46:35.029Z</time></trkpt><trkpt lat="45.7555067" lon="11.434765"><ele>253.0</ele><time>2026-04-23T07:46:36.03Z</time></trkpt><trkpt lat="45.7556517" lon="11.4350583"><ele>252.5</ele><time>2026-04-23T07:46:38.029Z</time></trkpt><trkpt lat="45.7557283" lon="11.4352"><ele>252.0</ele><time>2026-04-23T07:46:39.03Z</time></trkpt><trkpt lat="45.755815" lon="11.4353417"><ele>251.5</ele><time>2026-04-23T07:46:40.029Z</time></trkpt><trkpt lat="45.7559033" lon="11.4355067"><ele>251.0</ele><time>2026-04-23T07:46:41.029Z</time></trkpt><trkpt lat="45.7559833" lon="11.43567"><ele>251.75</ele><time>2026-04-23T07:46:42.029Z</time></trkpt><trkpt lat="45.7560483" lon="11.4358333"><ele>252.5</ele><time>2026-04-23T07:46:43.029Z</time></trkpt><trkpt lat="45.7561233" lon="11.4359817"><ele>253.25</ele><time>2026-04-23T07:46:44.03Z</time></trkpt><trkpt lat="45.7562067" lon="11.4361267"><ele>254.0</ele><time>2026-04-23T07:46:45.029Z</time></trkpt><trkpt lat="45.75628" lon="11.4362717"><ele>253.75</ele><time>2026-04-23T07:46:46.029Z</time></trkpt><trkpt lat="45.7563533" lon="11.4364117"><ele>253.5</ele><time>2026-04-23T07:46:47.029Z</time></trkpt><trkpt lat="45.75644" lon="11.4365733"><ele>253.25</ele><time>2026-04-23T07:46:48.029Z</time></trkpt><trkpt lat="45.7565133" lon="11.4367383"><ele>253.0</ele><time>2026-04-23T07:46:49.029Z</time></trkpt><trkpt lat="45.756595" lon="11.436895"><ele>253.0</ele><time>2026-04-23T07:46:50.03Z</time></trkpt><trkpt lat="45.7566833" lon="11.4370283"><ele>253.0</ele><time>2026-04-23T07:46:51.029Z</time></trkpt><trkpt lat="45.756765" lon="11.4371667"><ele>253.0</ele><time>2026-04-23T07:46:52.029Z</time></trkpt><trkpt lat="45.756845" lon="11.4373183"><ele>253.0</ele><time>2026-04-23T07:46:53.029Z</time></trkpt><trkpt lat="45.7569317" lon="11.4374617"><ele>253.25</ele><time>2026-04-23T07:46:54.029Z</time></trkpt><trkpt lat="45.7570167" lon="11.4376033"><ele>253.5</ele><time>2026-04-23T07:46:55.029Z</time></trkpt><trkpt lat="45.757095" lon="11.43774"><ele>253.75</ele><time>2026-04-23T07:46:56.029Z</time></trkpt><trkpt lat="45.7571583" lon="11.4378433"><ele>254.0</ele><time>2026-04-23T07:46:57.029Z</time></trkpt><trkpt lat="45.75727" lon="11.4380433"><ele>254.0</ele><time>2026-04-23T07:46:59.029Z</time></trkpt><trkpt lat="45.75731" lon="11.4381333"><ele>253.99999999999997</ele><time>2026-04-23T07:47:00.029Z</time></trkpt><trkpt lat="45.757365" lon="11.438295"><ele>253.99999999999997</ele><time>2026-04-23T07:47:02.029Z</time></trkpt><trkpt lat="45.7574333" lon="11.4384267"><ele>254.0</ele><time>2026-04-23T07:47:04.029Z</time></trkpt><trkpt lat="45.7575217" lon="11.438485"><ele>254.0</ele><time>2026-04-23T07:47:06.029Z</time></trkpt><trkpt lat="45.7576317" lon="11.4384133"><ele>254.0</ele><time>2026-04-23T07:47:08.029Z</time></trkpt><trkpt lat="45.75769" lon="11.4383717"><ele>254.0</ele><time>2026-04-23T07:47:09.029Z</time></trkpt><trkpt lat="45.7577517" lon="11.43834"><ele>254.0</ele><time>2026-04-23T07:47:10.03Z</time></trkpt><trkpt lat="45.7578133" lon="11.4383167"><ele>254.0</ele><time>2026-04-23T07:47:11.029Z</time></trkpt><trkpt lat="45.7578783" lon="11.4382967"><ele>254.0</ele><time>2026-04-23T07:47:12.029Z</time></trkpt><trkpt lat="45.7579717" lon="11.43831"><ele>254.0</ele><time>2026-04-23T07:47:13.029Z</time></trkpt><trkpt lat="45.7580633" lon="11.4383083"><ele>254.0</ele><time>2026-04-23T07:47:14.029Z</time></trkpt><trkpt lat="45.7581517" lon="11.4383117"><ele>255.0</ele><time>2026-04-23T07:47:15.029Z</time></trkpt><trkpt lat="45.75825" lon="11.4383083"><ele>256.0</ele><time>2026-04-23T07:47:16.029Z</time></trkpt><trkpt lat="45.7583483" lon="11.4383183"><ele>257.0</ele><time>2026-04-23T07:47:17.029Z</time></trkpt><trkpt lat="45.7584583" lon="11.4383233"><ele>258.0</ele><time>2026-04-23T07:47:18.029Z</time></trkpt><trkpt lat="45.75874" lon="11.43832"><ele>258.3333333333333</ele><time>2026-04-23T07:47:20.029Z</time></trkpt><trkpt lat="45.7589217" lon="11.43834"><ele>258.66666666666663</ele><time>2026-04-23T07:47:21.029Z</time></trkpt><trkpt lat="45.759095" lon="11.4383667"><ele>259.0</ele><time>2026-04-23T07:47:22.029Z</time></trkpt><trkpt lat="45.7592467" lon="11.4383833"><ele>260.0</ele><time>2026-04-23T07:47:23.029Z</time></trkpt><trkpt lat="45.7593883" lon="11.4384017"><ele>261.0</ele><time>2026-04-23T07:47:24.029Z</time></trkpt><trkpt lat="45.759525" lon="11.4384167"><ele>262.0</ele><time>2026-04-23T07:47:25.029Z</time></trkpt><trkpt lat="45.7596683" lon="11.43842"><ele>263.0</ele><time>2026-04-23T07:47:26.029Z</time></trkpt><trkpt lat="45.7597967" lon="11.4384367"><ele>263.0</ele><time>2026-04-23T07:47:27.029Z</time></trkpt><trkpt lat="45.7599333" lon="11.4384367"><ele>263.0</ele><time>2026-04-23T07:47:28.029Z</time></trkpt><trkpt lat="45.760055" lon="11.4384433"><ele>263.0</ele><time>2026-04-23T07:47:29.029Z</time></trkpt><trkpt lat="45.7601717" lon="11.43845"><ele>263.0</ele><time>2026-04-23T07:47:30.03Z</time></trkpt><trkpt lat="45.760285" lon="11.4384567"><ele>263.2</ele><time>2026-04-23T07:47:31.029Z</time></trkpt><trkpt lat="45.76038" lon="11.43846"><ele>263.4</ele><time>2026-04-23T07:47:32.029Z</time></trkpt><trkpt lat="45.7604667" lon="11.4384667"><ele>263.59999999999997</ele><time>2026-04-23T07:47:33.03Z</time></trkpt><trkpt lat="45.7605533" lon="11.43847"><ele>263.8</ele><time>2026-04-23T07:47:34.03Z</time></trkpt><trkpt lat="45.760645" lon="11.4384867"><ele>264.0</ele><time>2026-04-23T07:47:35.029Z</time></trkpt><trkpt lat="45.760745" lon="11.438505"><ele>264.0</ele><time>2026-04-23T07:47:36.029Z</time></trkpt><trkpt lat="45.760835" lon="11.438525"><ele>264.0</ele><time>2026-04-23T07:47:37.029Z</time></trkpt><trkpt lat="45.7609333" lon="11.4385017"><ele>264.0</ele><time>2026-04-23T07:47:38.029Z</time></trkpt><trkpt lat="45.7610333" lon="11.438475"><ele>264.0</ele><time>2026-04-23T07:47:39.029Z</time></trkpt><trkpt lat="45.7612317" lon="11.4383833"><ele>264.1666666666667</ele><time>2026-04-23T07:47:41.029Z</time></trkpt><trkpt lat="45.7613117" lon="11.4383217"><ele>264.3333333333333</ele><time>2026-04-23T07:47:42.029Z</time></trkpt><trkpt lat="45.761375" lon="11.43825"><ele>264.5</ele><time>2026-04-23T07:47:43.029Z</time></trkpt><trkpt lat="45.76144" lon="11.4381817"><ele>264.66666666666663</ele><time>2026-04-23T07:47:44.029Z</time></trkpt><trkpt lat="45.7614917" lon="11.4381167"><ele>264.8333333333333</ele><time>2026-04-23T07:47:45.03Z</time></trkpt><trkpt lat="45.7615783" lon="11.438"><ele>265.0</ele><time>2026-04-23T07:47:47.029Z</time></trkpt><trkpt lat="45.7616483" lon="11.4378967"><ele>265.0</ele><time>2026-04-23T07:47:49.029Z</time></trkpt><trkpt lat="45.761705" lon="11.4378017"><ele>265.0</ele><time>2026-04-23T07:47:51.029Z</time></trkpt><trkpt lat="45.7617517" lon="11.4377217"><ele>265.0</ele><time>2026-04-23T07:47:56.029Z</time></trkpt><trkpt lat="45.7617867" lon="11.437615"><ele>265.0</ele><time>2026-04-23T07:47:59.03Z</time></trkpt><trkpt lat="45.76186" lon="11.4374817"><ele>265.0</ele><time>2026-04-23T07:48:01.029Z</time></trkpt><trkpt lat="45.7619883" lon="11.43731"><ele>265.0</ele><time>2026-04-23T07:48:05.03Z</time></trkpt><trkpt lat="45.7620483" lon="11.43721"><ele>265.0</ele><time>2026-04-23T07:48:07.03Z</time></trkpt><trkpt lat="45.7621283" lon="11.4370783"><ele>265.0</ele><time>2026-04-23T07:48:09.029Z</time></trkpt><trkpt lat="45.7622067" lon="11.4369383"><ele>265.0</ele><time>2026-04-23T07:48:11.029Z</time></trkpt><trkpt lat="45.7622817" lon="11.4367967"><ele>265.5</ele><time>2026-04-23T07:48:13.029Z</time></trkpt><trkpt lat="45.7623283" lon="11.4367133"><ele>266.0</ele><time>2026-04-23T07:48:14.029Z</time></trkpt><trkpt lat="45.7623783" lon="11.4366317"><ele>266.5</ele><time>2026-04-23T07:48:15.029Z</time></trkpt><trkpt lat="45.7624283" lon="11.43655"><ele>267.0</ele><time>2026-04-23T07:48:16.03Z</time></trkpt><trkpt lat="45.7624983" lon="11.436435"><ele>267.5</ele><time>2026-04-23T07:48:18.029Z</time></trkpt><trkpt lat="45.7625717" lon="11.4363233"><ele>268.0</ele><time>2026-04-23T07:48:20.029Z</time></trkpt><trkpt lat="45.7626133" lon="11.4362517"><ele>268.0</ele><time>2026-04-23T07:48:21.029Z</time></trkpt><trkpt lat="45.7626617" lon="11.43619"><ele>268.0</ele><time>2026-04-23T07:48:22.029Z</time></trkpt><trkpt lat="45.7627433" lon="11.436045"><ele>268.0</ele><time>2026-04-23T07:48:24.029Z</time></trkpt><trkpt lat="45.7627883" lon="11.4359633"><ele>268.0</ele><time>2026-04-23T07:48:25.029Z</time></trkpt><trkpt lat="45.762835" lon="11.4358783"><ele>268.0</ele><time>2026-04-23T07:48:26.029Z</time></trkpt><trkpt lat="45.7628867" lon="11.435775"><ele>268.0</ele><time>2026-04-23T07:48:27.029Z</time></trkpt><trkpt lat="45.7629383" lon="11.4356683"><ele>268.2</ele><time>2026-04-23T07:48:28.029Z</time></trkpt><trkpt lat="45.7629933" lon="11.43555"><ele>268.4</ele><time>2026-04-23T07:48:29.029Z</time></trkpt><trkpt lat="45.7630583" lon="11.4354317"><ele>268.59999999999997</ele><time>2026-04-23T07:48:30.029Z</time></trkpt><trkpt lat="45.76313" lon="11.4353017"><ele>268.8</ele><time>2026-04-23T07:48:31.029Z</time></trkpt><trkpt lat="45.76319" lon="11.435175"><ele>269.0</ele><time>2026-04-23T07:48:32.03Z</time></trkpt><trkpt lat="45.7632433" lon="11.43505"><ele>269.59999999999997</ele><time>2026-04-23T07:48:33.029Z</time></trkpt><trkpt lat="45.7633017" lon="11.434935"><ele>270.2</ele><time>2026-04-23T07:48:34.029Z</time></trkpt><trkpt lat="45.7633667" lon="11.4348333"><ele>270.79999999999995</ele><time>2026-04-23T07:48:35.03Z</time></trkpt><trkpt lat="45.76343" lon="11.434725"><ele>271.4</ele><time>2026-04-23T07:48:36.03Z</time></trkpt><trkpt lat="45.76349" lon="11.4345967"><ele>272.0</ele><time>2026-04-23T07:48:37.03Z</time></trkpt><trkpt lat="45.7635417" lon="11.434445"><ele>273.0</ele><time>2026-04-23T07:48:38.029Z</time></trkpt><trkpt lat="45.7636017" lon="11.4342867"><ele>274.0</ele><time>2026-04-23T07:48:39.029Z</time></trkpt><trkpt lat="45.7636617" lon="11.434115"><ele>275.0</ele><time>2026-04-23T07:48:40.029Z</time></trkpt><trkpt lat="45.7637233" lon="11.4339633"><ele>276.0</ele><time>2026-04-23T07:48:41.029Z</time></trkpt><trkpt lat="45.763785" lon="11.4338217"><ele>276.25</ele><time>2026-04-23T07:48:42.029Z</time></trkpt><trkpt lat="45.7638467" lon="11.43369"><ele>276.5</ele><time>2026-04-23T07:48:43.029Z</time></trkpt><trkpt lat="45.7639417" lon="11.4334367"><ele>276.75</ele><time>2026-04-23T07:48:45.029Z</time></trkpt><trkpt lat="45.7639933" lon="11.4333483"><ele>277.0</ele><time>2026-04-23T07:48:46.028Z</time></trkpt><trkpt lat="45.764045" lon="11.4332333"><ele>277.0</ele><time>2026-04-23T07:48:47.028Z</time></trkpt><trkpt lat="45.7641017" lon="11.4331317"><ele>277.0</ele><time>2026-04-23T07:48:48.028Z</time></trkpt><trkpt lat="45.7641517" lon="11.4330333"><ele>277.0</ele><time>2026-04-23T07:48:49.028Z</time></trkpt><trkpt lat="45.764185" lon="11.4329367"><ele>277.0</ele><time>2026-04-23T07:48:50.028Z</time></trkpt><trkpt lat="45.76422" lon="11.4328583"><ele>277.0</ele><time>2026-04-23T07:48:51.029Z</time></trkpt><trkpt lat="45.764265" lon="11.432755"><ele>277.0</ele><time>2026-04-23T07:48:52.028Z</time></trkpt><trkpt lat="45.7643167" lon="11.4326367"><ele>277.2</ele><time>2026-04-23T07:48:53.028Z</time></trkpt><trkpt lat="45.764355" lon="11.4325017"><ele>277.4</ele><time>2026-04-23T07:48:54.028Z</time></trkpt><trkpt lat="45.7644" lon="11.4323817"><ele>277.6</ele><time>2026-04-23T07:48:55.028Z</time></trkpt><trkpt lat="45.7644367" lon="11.432275"><ele>277.8</ele><time>2026-04-23T07:48:56.028Z</time></trkpt><trkpt lat="45.764485" lon="11.432175"><ele>278.0</ele><time>2026-04-23T07:48:57.028Z</time></trkpt><trkpt lat="45.764525" lon="11.432065"><ele>278.5</ele><time>2026-04-23T07:48:58.028Z</time></trkpt><trkpt lat="45.764575" lon="11.4319683"><ele>279.0</ele><time>2026-04-23T07:48:59.028Z</time></trkpt><trkpt lat="45.764635" lon="11.4318817"><ele>279.5</ele><time>2026-04-23T07:49:00.028Z</time></trkpt><trkpt lat="45.7646933" lon="11.4317983"><ele>280.0</ele><time>2026-04-23T07:49:01.028Z</time></trkpt><trkpt lat="45.764755" lon="11.43174"><ele>280.5</ele><time>2026-04-23T07:49:02.028Z</time></trkpt><trkpt lat="45.7648183" lon="11.4317017"><ele>281.0</ele><time>2026-04-23T07:49:03.028Z</time></trkpt><trkpt lat="45.764945" lon="11.43166"><ele>281.0</ele><time>2026-04-23T07:49:05.028Z</time></trkpt><trkpt lat="45.7650833" lon="11.4316267"><ele>281.0</ele><time>2026-04-23T07:49:07.028Z</time></trkpt><trkpt lat="45.7651633" lon="11.4316"><ele>281.0</ele><time>2026-04-23T07:49:08.028Z</time></trkpt><trkpt lat="45.76524" lon="11.4315883"><ele>281.0</ele><time>2026-04-23T07:49:09.028Z</time></trkpt><trkpt lat="45.765325" lon="11.43158"><ele>281.0</ele><time>2026-04-23T07:49:10.029Z</time></trkpt><trkpt lat="45.76543" lon="11.43155"><ele>281.0</ele><time>2026-04-23T07:49:11.028Z</time></trkpt><trkpt lat="45.7655533" lon="11.4315083"><ele>281.0</ele><time>2026-04-23T07:49:12.028Z</time></trkpt><trkpt lat="45.7656783" lon="11.43148"><ele>281.0</ele><time>2026-04-23T07:49:13.028Z</time></trkpt><trkpt lat="45.7658117" lon="11.4314433"><ele>281.0</ele><time>2026-04-23T07:49:14.028Z</time></trkpt><trkpt lat="45.7659383" lon="11.4314183"><ele>281.25</ele><time>2026-04-23T07:49:15.028Z</time></trkpt><trkpt lat="45.7660617" lon="11.4313817"><ele>281.5</ele><time>2026-04-23T07:49:16.028Z</time></trkpt><trkpt lat="45.7661917" lon="11.431345"><ele>281.75</ele><time>2026-04-23T07:49:17.028Z</time></trkpt><trkpt lat="45.7663183" lon="11.4312933"><ele>282.0</ele><time>2026-04-23T07:49:18.029Z</time></trkpt><trkpt lat="45.76644" lon="11.4312233"><ele>283.0</ele><time>2026-04-23T07:49:19.028Z</time></trkpt><trkpt lat="45.766555" lon="11.43116"><ele>284.0</ele><time>2026-04-23T07:49:20.029Z</time></trkpt><trkpt lat="45.7666717" lon="11.431075"><ele>285.0</ele><time>2026-04-23T07:49:21.028Z</time></trkpt><trkpt lat="45.7667917" lon="11.4309833"><ele>286.0</ele><time>2026-04-23T07:49:22.028Z</time></trkpt><trkpt lat="45.7669167" lon="11.4308817"><ele>286.0</ele><time>2026-04-23T07:49:23.029Z</time></trkpt><trkpt lat="45.7670367" lon="11.4307633"><ele>286.0</ele><time>2026-04-23T07:49:24.028Z</time></trkpt><trkpt lat="45.7671783" lon="11.430605"><ele>286.0</ele><time>2026-04-23T07:49:25.028Z</time></trkpt><trkpt lat="45.7673017" lon="11.4304433"><ele>286.66666666666663</ele><time>2026-04-23T07:49:26.029Z</time></trkpt><trkpt lat="45.7674817" lon="11.430115"><ele>287.3333333333333</ele><time>2026-04-23T07:49:28.029Z</time></trkpt><trkpt lat="45.7675667" lon="11.4299567"><ele>288.0</ele><time>2026-04-23T07:49:29.028Z</time></trkpt><trkpt lat="45.767645" lon="11.4298267"><ele>288.5</ele><time>2026-04-23T07:49:30.028Z</time></trkpt><trkpt lat="45.767725" lon="11.429685"><ele>289.0</ele><time>2026-04-23T07:49:31.028Z</time></trkpt><trkpt lat="45.7678117" lon="11.4295367"><ele>289.5</ele><time>2026-04-23T07:49:32.028Z</time></trkpt><trkpt lat="45.76789" lon="11.4293683"><ele>290.0</ele><time>2026-04-23T07:49:33.028Z</time></trkpt><trkpt lat="45.7679767" lon="11.4292167"><ele>290.0</ele><time>2026-04-23T07:49:34.029Z</time></trkpt><trkpt lat="45.7680633" lon="11.429065"><ele>290.0</ele><time>2026-04-23T07:49:35.028Z</time></trkpt><trkpt lat="45.768125" lon="11.4288717"><ele>290.0</ele><time>2026-04-23T07:49:36.028Z</time></trkpt><trkpt lat="45.7681883" lon="11.428675"><ele>290.0</ele><time>2026-04-23T07:49:37.028Z</time></trkpt><trkpt lat="45.7682833" lon="11.4285067"><ele>288.6666666666667</ele><time>2026-04-23T07:49:38.028Z</time></trkpt><trkpt lat="45.768375" lon="11.42834"><ele>287.3333333333333</ele><time>2026-04-23T07:49:39.028Z</time></trkpt><trkpt lat="45.7684683" lon="11.4281633"><ele>286.0</ele><time>2026-04-23T07:49:40.028Z</time></trkpt><trkpt lat="45.7685583" lon="11.42799"><ele>286.5</ele><time>2026-04-23T07:49:41.028Z</time></trkpt><trkpt lat="45.768635" lon="11.4278233"><ele>287.0</ele><time>2026-04-23T07:49:42.028Z</time></trkpt><trkpt lat="45.7687283" lon="11.42766"><ele>287.5</ele><time>2026-04-23T07:49:43.028Z</time></trkpt><trkpt lat="45.7688133" lon="11.427495"><ele>288.0</ele><time>2026-04-23T07:49:44.028Z</time></trkpt><trkpt lat="45.7688983" lon="11.4273533"><ele>288.0</ele><time>2026-04-23T07:49:45.028Z</time></trkpt><trkpt lat="45.7689783" lon="11.4271983"><ele>288.0</ele><time>2026-04-23T07:49:46.028Z</time></trkpt><trkpt lat="45.7690533" lon="11.4270467"><ele>288.0</ele><time>2026-04-23T07:49:47.028Z</time></trkpt><trkpt lat="45.769195" lon="11.4267683"><ele>289.75</ele><time>2026-04-23T07:49:49.028Z</time></trkpt><trkpt lat="45.7692533" lon="11.4266233"><ele>291.5</ele><time>2026-04-23T07:49:50.028Z</time></trkpt><trkpt lat="45.7693167" lon="11.4264817"><ele>293.25</ele><time>2026-04-23T07:49:51.028Z</time></trkpt><trkpt lat="45.769365" lon="11.4263267"><ele>295.0</ele><time>2026-04-23T07:49:52.028Z</time></trkpt><trkpt lat="45.76942" lon="11.4261617"><ele>296.0</ele><time>2026-04-23T07:49:53.028Z</time></trkpt><trkpt lat="45.769485" lon="11.42602"><ele>297.0</ele><time>2026-04-23T07:49:54.028Z</time></trkpt><trkpt lat="45.76955" lon="11.4259017"><ele>298.0</ele><time>2026-04-23T07:49:55.028Z</time></trkpt><trkpt lat="45.7696183" lon="11.4258083"><ele>299.0</ele><time>2026-04-23T07:49:56.028Z</time></trkpt><trkpt lat="45.7696883" lon="11.42573"><ele>300.0</ele><time>2026-04-23T07:49:57.028Z</time></trkpt><trkpt lat="45.76976" lon="11.4256683"><ele>300.0</ele><time>2026-04-23T07:49:58.029Z</time></trkpt><trkpt lat="45.7698233" lon="11.42562"><ele>300.0</ele><time>2026-04-23T07:49:59.028Z</time></trkpt><trkpt lat="45.76991" lon="11.4255817"><ele>300.0</ele><time>2026-04-23T07:50:01.028Z</time></trkpt><trkpt lat="45.7699433" lon="11.42546"><ele>300.0</ele><time>2026-04-23T07:50:13.028Z</time></trkpt><trkpt lat="45.76997" lon="11.4252033"><ele>300.0</ele><time>2026-04-23T07:50:15.028Z</time></trkpt><trkpt lat="45.769995" lon="11.4250567"><ele>301.0</ele><time>2026-04-23T07:50:16.028Z</time></trkpt><trkpt lat="45.7700533" lon="11.4248817"><ele>302.0</ele><time>2026-04-23T07:50:17.028Z</time></trkpt><trkpt lat="45.7701367" lon="11.4246767"><ele>303.0</ele><time>2026-04-23T07:50:18.028Z</time></trkpt><trkpt lat="45.7702067" lon="11.42447"><ele>305.6666666666667</ele><time>2026-04-23T07:50:19.028Z</time></trkpt><trkpt lat="45.7702567" lon="11.4243083"><ele>308.3333333333333</ele><time>2026-04-23T07:50:20.028Z</time></trkpt><trkpt lat="45.7703017" lon="11.4241867"><ele>311.0</ele><time>2026-04-23T07:50:21.028Z</time></trkpt><trkpt lat="45.7703317" lon="11.4240883"><ele>313.66666666666663</ele><time>2026-04-23T07:50:22.028Z</time></trkpt><trkpt lat="45.7703633" lon="11.4240033"><ele>316.3333333333333</ele><time>2026-04-23T07:50:23.028Z</time></trkpt><trkpt lat="45.7703833" lon="11.4239117"><ele>319.0</ele><time>2026-04-23T07:50:25.029Z</time></trkpt><trkpt lat="45.7702983" lon="11.4238867"><ele>319.0</ele><time>2026-04-23T07:50:31.028Z</time></trkpt><trkpt lat="45.770205" lon="11.42398"><ele>319.0</ele><time>2026-04-23T07:50:33.028Z</time></trkpt><trkpt lat="45.77012" lon="11.424085"><ele>319.0</ele><time>2026-04-23T07:50:35.028Z</time></trkpt><trkpt lat="45.7699517" lon="11.4240367"><ele>319.0</ele><time>2026-04-23T07:50:39.029Z</time></trkpt><trkpt lat="45.7698733" lon="11.42397"><ele>318.3333333333333</ele><time>2026-04-23T07:50:41.028Z</time></trkpt><trkpt lat="45.7697867" lon="11.423985"><ele>317.66666666666663</ele><time>2026-04-23T07:50:43.029Z</time></trkpt><trkpt lat="45.769705" lon="11.42403"><ele>317.0</ele><time>2026-04-23T07:50:45.028Z</time></trkpt><trkpt lat="45.7696433" lon="11.4240083"><ele>316.3333333333333</ele><time>2026-04-23T07:50:47.028Z</time></trkpt><trkpt lat="45.769665" lon="11.4238967"><ele>315.6666666666667</ele><time>2026-04-23T07:50:50.028Z</time></trkpt><trkpt lat="45.7697348" lon="11.4237862"><ele>315.0</ele><time>2026-04-23T07:50:52.029Z</time></trkpt><trkpt lat="45.7697831" lon="11.4237106"><ele>320.75</ele><time>2026-04-23T07:50:53.028Z</time></trkpt><trkpt lat="45.7698321" lon="11.4236333"><ele>326.5</ele><time>2026-04-23T07:50:54.028Z</time></trkpt><trkpt lat="45.7698785" lon="11.4235582"><ele>332.25</ele><time>2026-04-23T07:50:55.028Z</time></trkpt><trkpt lat="45.7699192" lon="11.4234807"><ele>338.0</ele><time>2026-04-23T07:50:56.029Z</time></trkpt><trkpt lat="45.7700772" lon="11.4232231"><ele>338.0</ele><time>2026-04-23T07:51:00.028Z</time></trkpt><trkpt lat="45.7701346" lon="11.4231484"><ele>338.0</ele><time>2026-04-23T07:51:01.028Z</time></trkpt><trkpt lat="45.770204" lon="11.4230703"><ele>338.0</ele><time>2026-04-23T07:51:02.028Z</time></trkpt><trkpt lat="45.7702734" lon="11.4229832"><ele>338.0</ele><time>2026-04-23T07:51:03.028Z</time></trkpt><trkpt lat="45.7703437" lon="11.4228893"><ele>338.0</ele><time>2026-04-23T07:51:04.028Z</time></trkpt><trkpt lat="45.7703973" lon="11.4227943"><ele>338.0</ele><time>2026-04-23T07:51:05.028Z</time></trkpt><trkpt lat="45.7704342" lon="11.4227031"><ele>337.33333333333337</ele><time>2026-04-23T07:51:06.029Z</time></trkpt><trkpt lat="45.7704743" lon="11.4226211"><ele>336.6666666666667</ele><time>2026-04-23T07:51:07.028Z</time></trkpt><trkpt lat="45.7705117" lon="11.4225391"><ele>336.0</ele><time>2026-04-23T07:51:08.028Z</time></trkpt><trkpt lat="45.7705409" lon="11.4224528"><ele>335.3333333333333</ele><time>2026-04-23T07:51:09.028Z</time></trkpt><trkpt lat="45.7705878" lon="11.4222798"><ele>334.66666666666663</ele><time>2026-04-23T07:51:11.028Z</time></trkpt><trkpt lat="45.7706184" lon="11.4221846"><ele>334.0</ele><time>2026-04-23T07:51:12.028Z</time></trkpt><trkpt lat="45.7706434" lon="11.4221012"><ele>337.75</ele><time>2026-04-23T07:51:13.028Z</time></trkpt><trkpt lat="45.7706795" lon="11.4219436"><ele>341.5</ele><time>2026-04-23T07:51:15.028Z</time></trkpt><trkpt lat="45.7706757" lon="11.4217723"><ele>345.25</ele><time>2026-04-23T07:51:17.029Z</time></trkpt><trkpt lat="45.7705931" lon="11.4215813"><ele>349.0</ele><time>2026-04-23T07:51:19.028Z</time></trkpt><trkpt lat="45.7705362" lon="11.4214932"><ele>348.99999999999994</ele><time>2026-04-23T07:51:20.028Z</time></trkpt><trkpt lat="45.7704774" lon="11.4214266"><ele>349.0</ele><time>2026-04-23T07:51:21.028Z</time></trkpt><trkpt lat="45.7704133" lon="11.421377"><ele>349.0</ele><time>2026-04-23T07:51:22.029Z</time></trkpt><trkpt lat="45.7703522" lon="11.4213321"><ele>349.0</ele><time>2026-04-23T07:51:23.028Z</time></trkpt><trkpt lat="45.7702887" lon="11.4212912"><ele>349.0</ele><time>2026-04-23T07:51:24.028Z</time></trkpt><trkpt lat="45.7702275" lon="11.4212655"><ele>348.99999999999994</ele><time>2026-04-23T07:51:25.028Z</time></trkpt><trkpt lat="45.7701426" lon="11.4212676"><ele>349.0</ele><time>2026-04-23T07:51:27.029Z</time></trkpt><trkpt lat="45.770066" lon="11.4213063"><ele>352.4</ele><time>2026-04-23T07:51:29.028Z</time></trkpt><trkpt lat="45.7699899" lon="11.4213584"><ele>355.79999999999995</ele><time>2026-04-23T07:51:31.028Z</time></trkpt><trkpt lat="45.7698885" lon="11.421372"><ele>359.20000000000005</ele><time>2026-04-23T07:51:33.028Z</time></trkpt><trkpt lat="45.7697851" lon="11.4214173"><ele>362.6</ele><time>2026-04-23T07:51:35.028Z</time></trkpt><trkpt lat="45.7697042" lon="11.4214068"><ele>366.0</ele><time>2026-04-23T07:51:36.029Z</time></trkpt><trkpt lat="45.7696188" lon="11.4213828"><ele>366.0</ele><time>2026-04-23T07:51:37.028Z</time></trkpt><trkpt lat="45.7695414" lon="11.4213644"><ele>366.0</ele><time>2026-04-23T07:51:38.028Z</time></trkpt><trkpt lat="45.7693757" lon="11.4213211"><ele>366.0</ele><time>2026-04-23T07:51:40.028Z</time></trkpt><trkpt lat="45.7692853" lon="11.4212786"><ele>366.0</ele><time>2026-04-23T07:51:41.028Z</time></trkpt><trkpt lat="45.769208" lon="11.4212067"><ele>366.0</ele><time>2026-04-23T07:51:42.028Z</time></trkpt><trkpt lat="45.7691565" lon="11.4211308"><ele>366.8</ele><time>2026-04-23T07:51:43.028Z</time></trkpt><trkpt lat="45.7690747" lon="11.4210277"><ele>367.6</ele><time>2026-04-23T07:51:45.029Z</time></trkpt><trkpt lat="45.7689612" lon="11.4210191"><ele>368.4</ele><time>2026-04-23T07:51:47.028Z</time></trkpt><trkpt lat="45.7688671" lon="11.4210753"><ele>369.2</ele><time>2026-04-23T07:51:49.028Z</time></trkpt><trkpt lat="45.7687972" lon="11.4211018"><ele>370.0</ele><time>2026-04-23T07:51:51.028Z</time></trkpt><trkpt lat="45.7687316" lon="11.4210924"><ele>370.0</ele><time>2026-04-23T07:51:53.028Z</time></trkpt><trkpt lat="45.7686482" lon="11.4210413"><ele>370.0</ele><time>2026-04-23T07:51:55.028Z</time></trkpt><trkpt lat="45.7685741" lon="11.4209927"><ele>370.0</ele><time>2026-04-23T07:51:57.028Z</time></trkpt><trkpt lat="45.7685038" lon="11.4209688"><ele>370.0</ele><time>2026-04-23T07:51:59.028Z</time></trkpt><trkpt lat="45.7683603" lon="11.4210088"><ele>370.0</ele><time>2026-04-23T07:52:03.029Z</time></trkpt><trkpt lat="45.7682606" lon="11.4210845"><ele>371.66666666666663</ele><time>2026-04-23T07:52:05.028Z</time></trkpt><trkpt lat="45.7681848" lon="11.4211646"><ele>373.3333333333333</ele><time>2026-04-23T07:52:07.027Z</time></trkpt><trkpt lat="45.7681292" lon="11.4212432"><ele>375.0</ele><time>2026-04-23T07:52:09.027Z</time></trkpt><trkpt lat="45.76807" lon="11.4213052"><ele>376.6666666666667</ele><time>2026-04-23T07:52:11.027Z</time></trkpt><trkpt lat="45.7679867" lon="11.4213366"><ele>378.33333333333337</ele><time>2026-04-23T07:52:13.027Z</time></trkpt><trkpt lat="45.7679046" lon="11.4213618"><ele>380.0</ele><time>2026-04-23T07:52:15.027Z</time></trkpt><trkpt lat="45.7678245" lon="11.4213811"><ele>383.0</ele><time>2026-04-23T07:52:17.027Z</time></trkpt><trkpt lat="45.7677593" lon="11.4213807"><ele>386.0</ele><time>2026-04-23T07:52:19.027Z</time></trkpt><trkpt lat="45.7676669" lon="11.42138"><ele>389.0</ele><time>2026-04-23T07:52:22.027Z</time></trkpt><trkpt lat="45.7675395" lon="11.4214213"><ele>392.0</ele><time>2026-04-23T07:52:26.027Z</time></trkpt><trkpt lat="45.7674778" lon="11.4213995"><ele>395.0</ele><time>2026-04-23T07:52:28.027Z</time></trkpt><trkpt lat="45.7673851" lon="11.4213264"><ele>394.8</ele><time>2026-04-23T07:52:31.027Z</time></trkpt><trkpt lat="45.7672673" lon="11.4212761"><ele>394.6</ele><time>2026-04-23T07:52:33.027Z</time></trkpt><trkpt lat="45.7671548" lon="11.4212477"><ele>394.4</ele><time>2026-04-23T07:52:35.027Z</time></trkpt><trkpt lat="45.7670507" lon="11.4211961"><ele>394.2</ele><time>2026-04-23T07:52:37.027Z</time></trkpt><trkpt lat="45.7669821" lon="11.4211616"><ele>394.0</ele><time>2026-04-23T07:52:39.028Z</time></trkpt><trkpt lat="45.7669153" lon="11.4211621"><ele>397.79999999999995</ele><time>2026-04-23T07:52:43.027Z</time></trkpt><trkpt lat="45.7667615" lon="11.4211707"><ele>401.59999999999997</ele><time>2026-04-23T07:52:47.027Z</time></trkpt><trkpt lat="45.7666665" lon="11.4211759"><ele>405.4</ele><time>2026-04-23T07:52:49.027Z</time></trkpt><trkpt lat="45.7665803" lon="11.4211592"><ele>409.2</ele><time>2026-04-23T07:52:51.027Z</time></trkpt><trkpt lat="45.7665155" lon="11.4210793"><ele>413.0</ele><time>2026-04-23T07:52:54.027Z</time></trkpt><trkpt lat="45.7664525" lon="11.4210162"><ele>413.0</ele><time>2026-04-23T07:52:56.027Z</time></trkpt><trkpt lat="45.7663802" lon="11.4209402"><ele>413.0</ele><time>2026-04-23T07:52:58.027Z</time></trkpt><trkpt lat="45.766234" lon="11.4208541"><ele>413.0</ele><time>2026-04-23T07:53:00.027Z</time></trkpt><trkpt lat="45.7661458" lon="11.4207822"><ele>413.0</ele><time>2026-04-23T07:53:01.027Z</time></trkpt><trkpt lat="45.7660893" lon="11.4207156"><ele>413.0</ele><time>2026-04-23T07:53:02.027Z</time></trkpt><trkpt lat="45.7660035" lon="11.4205901"><ele>416.79999999999995</ele><time>2026-04-23T07:53:04.028Z</time></trkpt><trkpt lat="45.7658594" lon="11.4203591"><ele>420.6</ele><time>2026-04-23T07:53:08.027Z</time></trkpt><trkpt lat="45.7657948" lon="11.4202905"><ele>424.40000000000003</ele><time>2026-04-23T07:53:10.027Z</time></trkpt><trkpt lat="45.7657427" lon="11.4202293"><ele>428.20000000000005</ele><time>2026-04-23T07:53:12.027Z</time></trkpt><trkpt lat="45.7656867" lon="11.4201817"><ele>432.0</ele><time>2026-04-23T07:53:57.027Z</time></trkpt><trkpt lat="45.7655633" lon="11.4200883"><ele>432.0</ele><time>2026-04-23T07:54:05.027Z</time></trkpt><trkpt lat="45.7655" lon="11.4200083"><ele>432.0</ele><time>2026-04-23T07:54:08.027Z</time></trkpt><trkpt lat="45.7654183" lon="11.4199283"><ele>432.0</ele><time>2026-04-23T07:54:11.027Z</time></trkpt><trkpt lat="45.7653617" lon="11.4198417"><ele>432.0</ele><time>2026-04-23T07:54:13.028Z</time></trkpt><trkpt lat="45.765295" lon="11.41973"><ele>432.0</ele><time>2026-04-23T07:54:15.027Z</time></trkpt><trkpt lat="45.7652433" lon="11.4196533"><ele>432.0</ele><time>2026-04-23T07:54:17.028Z</time></trkpt><trkpt lat="45.765155" lon="11.4195533"><ele>436.40000000000003</ele><time>2026-04-23T07:54:19.028Z</time></trkpt><trkpt lat="45.7650033" lon="11.4193583"><ele>440.80000000000007</ele><time>2026-04-23T07:54:23.027Z</time></trkpt><trkpt lat="45.7649517" lon="11.4192983"><ele>445.2</ele><time>2026-04-23T07:54:25.027Z</time></trkpt><trkpt lat="45.7649067" lon="11.41923"><ele>449.6</ele><time>2026-04-23T07:54:27.027Z</time></trkpt><trkpt lat="45.7648483" lon="11.4191483"><ele>454.0</ele><time>2026-04-23T07:54:30.027Z</time></trkpt><trkpt lat="45.7647733" lon="11.419135"><ele>454.0</ele><time>2026-04-23T07:54:43.027Z</time></trkpt><trkpt lat="45.7646133" lon="11.4193433"><ele>454.0</ele><time>2026-04-23T07:54:48.027Z</time></trkpt><trkpt lat="45.7645217" lon="11.419395"><ele>454.0</ele><time>2026-04-23T07:54:50.027Z</time></trkpt><trkpt lat="45.7644233" lon="11.41938"><ele>454.0</ele><time>2026-04-23T07:54:52.027Z</time></trkpt><trkpt lat="45.76435" lon="11.419315"><ele>456.28571428571433</ele><time>2026-04-23T07:54:54.027Z</time></trkpt><trkpt lat="45.7642983" lon="11.4192383"><ele>458.5714285714286</ele><time>2026-04-23T07:54:56.027Z</time></trkpt><trkpt lat="45.7642167" lon="11.4192583"><ele>460.8571428571429</ele><time>2026-04-23T07:54:59.027Z</time></trkpt><trkpt lat="45.76417" lon="11.4193467"><ele>463.1428571428571</ele><time>2026-04-23T07:55:01.027Z</time></trkpt><trkpt lat="45.7641317" lon="11.4194233"><ele>465.4285714285714</ele><time>2026-04-23T07:55:02.027Z</time></trkpt><trkpt lat="45.76409" lon="11.4195117"><ele>467.71428571428567</ele><time>2026-04-23T07:55:03.027Z</time></trkpt><trkpt lat="45.7640483" lon="11.4195883"><ele>470.0</ele><time>2026-04-23T07:55:04.027Z</time></trkpt><trkpt lat="45.7638783" lon="11.4197517"><ele>469.99999999999994</ele><time>2026-04-23T07:55:08.027Z</time></trkpt><trkpt lat="45.7637533" lon="11.41975"><ele>470.0</ele><time>2026-04-23T07:55:10.027Z</time></trkpt><trkpt lat="45.7636683" lon="11.4197333"><ele>470.0</ele><time>2026-04-23T07:55:12.027Z</time></trkpt><trkpt lat="45.7636033" lon="11.41972"><ele>470.0</ele><time>2026-04-23T07:55:14.027Z</time></trkpt><trkpt lat="45.763545" lon="11.4196767"><ele>469.99999999999994</ele><time>2026-04-23T07:55:16.028Z</time></trkpt><trkpt lat="45.7634717" lon="11.4195767"><ele>470.0</ele><time>2026-04-23T07:55:18.027Z</time></trkpt><trkpt lat="45.7634167" lon="11.4194133"><ele>470.5</ele><time>2026-04-23T07:55:20.028Z</time></trkpt><trkpt lat="45.76343" lon="11.41927"><ele>471.0</ele><time>2026-04-23T07:55:22.027Z</time></trkpt><trkpt lat="45.7634817" lon="11.4191667"><ele>471.5</ele><time>2026-04-23T07:55:24.027Z</time></trkpt><trkpt lat="45.7635367" lon="11.419065"><ele>472.0</ele><time>2026-04-23T07:55:26.027Z</time></trkpt><trkpt lat="45.7636533" lon="11.4188"><ele>472.1666666666667</ele><time>2026-04-23T07:55:30.027Z</time></trkpt><trkpt lat="45.763685" lon="11.4186433"><ele>472.33333333333337</ele><time>2026-04-23T07:55:32.027Z</time></trkpt><trkpt lat="45.7637117" lon="11.4185517"><ele>472.5</ele><time>2026-04-23T07:55:33.027Z</time></trkpt><trkpt lat="45.7637383" lon="11.4184533"><ele>472.66666666666663</ele><time>2026-04-23T07:55:34.027Z</time></trkpt><trkpt lat="45.763765" lon="11.4183417"><ele>472.8333333333333</ele><time>2026-04-23T07:55:35.027Z</time></trkpt><trkpt lat="45.7637933" lon="11.4181933"><ele>473.0</ele><time>2026-04-23T07:55:36.027Z</time></trkpt><trkpt lat="45.7638317" lon="11.4180383"><ele>473.8333333333333</ele><time>2026-04-23T07:55:37.026Z</time></trkpt><trkpt lat="45.7638517" lon="11.4179033"><ele>474.66666666666663</ele><time>2026-04-23T07:55:38.026Z</time></trkpt><trkpt lat="45.7638667" lon="11.41778"><ele>475.5</ele><time>2026-04-23T07:55:39.026Z</time></trkpt><trkpt lat="45.763875" lon="11.4176633"><ele>476.33333333333337</ele><time>2026-04-23T07:55:40.026Z</time></trkpt><trkpt lat="45.7638767" lon="11.4175367"><ele>477.1666666666667</ele><time>2026-04-23T07:55:41.026Z</time></trkpt><trkpt lat="45.7638667" lon="11.41742"><ele>478.0</ele><time>2026-04-23T07:55:42.026Z</time></trkpt><trkpt lat="45.763865" lon="11.417325"><ele>478.0</ele><time>2026-04-23T07:55:43.026Z</time></trkpt><trkpt lat="45.7638733" lon="11.41723"><ele>477.99999999999994</ele><time>2026-04-23T07:55:45.026Z</time></trkpt><trkpt lat="45.76384" lon="11.417095"><ele>477.99999999999994</ele><time>2026-04-23T07:55:48.026Z</time></trkpt><trkpt lat="45.7636833" lon="11.4169733"><ele>478.0</ele><time>2026-04-23T07:55:52.026Z</time></trkpt><trkpt lat="45.763645" lon="11.416875"><ele>478.0</ele><time>2026-04-23T07:55:54.027Z</time></trkpt><trkpt lat="45.7636017" lon="11.416785"><ele>479.50000000000006</ele><time>2026-04-23T07:55:56.027Z</time></trkpt><trkpt lat="45.7635433" lon="11.4167117"><ele>481.0</ele><time>2026-04-23T07:55:58.026Z</time></trkpt><trkpt lat="45.7634733" lon="11.416655"><ele>482.5</ele><time>2026-04-23T07:56:00.026Z</time></trkpt><trkpt lat="45.7634017" lon="11.4165917"><ele>484.0</ele><time>2026-04-23T07:56:02.026Z</time></trkpt><trkpt lat="45.7633183" lon="11.416525"><ele>485.50000000000006</ele><time>2026-04-23T07:56:04.027Z</time></trkpt><trkpt lat="45.7632533" lon="11.416485"><ele>487.0</ele><time>2026-04-23T07:56:06.026Z</time></trkpt><trkpt lat="45.7631833" lon="11.4164567"><ele>490.20000000000005</ele><time>2026-04-23T07:56:08.026Z</time></trkpt><trkpt lat="45.7631033" lon="11.4164667"><ele>493.40000000000003</ele><time>2026-04-23T07:56:10.026Z</time></trkpt><trkpt lat="45.7629567" lon="11.416465"><ele>496.59999999999997</ele><time>2026-04-23T07:56:14.026Z</time></trkpt><trkpt lat="45.76285" lon="11.416495"><ele>499.79999999999995</ele><time>2026-04-23T07:56:16.026Z</time></trkpt><trkpt lat="45.762755" lon="11.4164717"><ele>503.0</ele><time>2026-04-23T07:56:18.026Z</time></trkpt><trkpt lat="45.76264" lon="11.416365"><ele>507.4</ele><time>2026-04-23T07:56:20.027Z</time></trkpt><trkpt lat="45.7625733" lon="11.416305"><ele>511.79999999999995</ele><time>2026-04-23T07:56:21.026Z</time></trkpt><trkpt lat="45.7625083" lon="11.416255"><ele>516.2</ele><time>2026-04-23T07:56:22.026Z</time></trkpt><trkpt lat="45.7624033" lon="11.416155"><ele>520.6</ele><time>2026-04-23T07:56:24.026Z</time></trkpt><trkpt lat="45.7623167" lon="11.4160417"><ele>525.0</ele><time>2026-04-23T07:56:26.026Z</time></trkpt><trkpt lat="45.7622283" lon="11.41595"><ele>525.0</ele><time>2026-04-23T07:56:28.026Z</time></trkpt><trkpt lat="45.7621483" lon="11.4158633"><ele>525.0</ele><time>2026-04-23T07:56:30.026Z</time></trkpt><trkpt lat="45.7620567" lon="11.41578"><ele>525.0</ele><time>2026-04-23T07:56:32.026Z</time></trkpt><trkpt lat="45.761905" lon="11.4156217"><ele>525.0</ele><time>2026-04-23T07:56:36.026Z</time></trkpt><trkpt lat="45.7618433" lon="11.4155783"><ele>526.6666666666666</ele><time>2026-04-23T07:56:38.027Z</time></trkpt><trkpt lat="45.761775" lon="11.415565"><ele>528.3333333333334</ele><time>2026-04-23T07:56:41.026Z</time></trkpt><trkpt lat="45.761705" lon="11.4155467"><ele>530.0</ele><time>2026-04-23T07:56:44.026Z</time></trkpt><trkpt lat="45.761625" lon="11.4155667"><ele>531.6666666666667</ele><time>2026-04-23T07:56:47.026Z</time></trkpt><trkpt lat="45.7615617" lon="11.4155733"><ele>533.3333333333334</ele><time>2026-04-23T07:56:50.026Z</time></trkpt><trkpt lat="45.76147" lon="11.4155783"><ele>535.0</ele><time>2026-04-23T07:56:53.026Z</time></trkpt><trkpt lat="45.7613683" lon="11.41564"><ele>535.0</ele><time>2026-04-23T08:00:28.025Z</time></trkpt><trkpt lat="45.7610933" lon="11.41573"><ele>535.0</ele><time>2026-04-23T08:00:57.025Z</time></trkpt><trkpt lat="45.7610233" lon="11.4156783"><ele>535.0</ele><time>2026-04-23T08:01:00.026Z</time></trkpt><trkpt lat="45.7609717" lon="11.4156083"><ele>535.0</ele><time>2026-04-23T08:01:03.025Z</time></trkpt><trkpt lat="45.7608983" lon="11.4155783"><ele>537.0</ele><time>2026-04-23T08:01:06.025Z</time></trkpt><trkpt lat="45.7607967" lon="11.4155383"><ele>539.0</ele><time>2026-04-23T08:01:08.025Z</time></trkpt><trkpt lat="45.7607283" lon="11.4155133"><ele>541.0</ele><time>2026-04-23T08:01:09.025Z</time></trkpt><trkpt lat="45.7606133" lon="11.4154433"><ele>543.0</ele><time>2026-04-23T08:01:11.025Z</time></trkpt><trkpt lat="45.7605217" lon="11.4153817"><ele>545.0</ele><time>2026-04-23T08:01:13.025Z</time></trkpt><trkpt lat="45.760365" lon="11.41534"><ele>547.0</ele><time>2026-04-23T08:01:17.025Z</time></trkpt><trkpt lat="45.7602833" lon="11.4153733"><ele>549.0</ele><time>2026-04-23T08:01:19.025Z</time></trkpt><trkpt lat="45.7602233" lon="11.4154233"><ele>551.0</ele><time>2026-04-23T08:01:21.025Z</time></trkpt><trkpt lat="45.7601683" lon="11.4154967"><ele>553.0</ele><time>2026-04-23T08:01:23.026Z</time></trkpt><trkpt lat="45.7601283" lon="11.41557"><ele>555.0</ele><time>2026-04-23T08:01:24.025Z</time></trkpt><trkpt lat="45.76006" lon="11.415695"><ele>557.0</ele><time>2026-04-23T08:01:26.025Z</time></trkpt><trkpt lat="45.7600183" lon="11.4157667"><ele>557.0</ele><time>2026-04-23T08:01:27.025Z</time></trkpt><trkpt lat="45.75995" lon="11.4158783"><ele>557.0</ele><time>2026-04-23T08:01:29.025Z</time></trkpt><trkpt lat="45.7598867" lon="11.4159883"><ele>557.0</ele><time>2026-04-23T08:01:31.025Z</time></trkpt><trkpt lat="45.7598433" lon="11.416075"><ele>557.0</ele><time>2026-04-23T08:01:33.025Z</time></trkpt><trkpt lat="45.7597833" lon="11.4161133"><ele>557.0</ele><time>2026-04-23T08:01:45.025Z</time></trkpt><trkpt lat="45.7596133" lon="11.4160617"><ele>557.0</ele><time>2026-04-23T08:01:50.025Z</time></trkpt><trkpt lat="45.7595367" lon="11.4160283"><ele>557.0</ele><time>2026-04-23T08:01:52.025Z</time></trkpt><trkpt lat="45.7594633" lon="11.4160933"><ele>557.0</ele><time>2026-04-23T08:02:44.026Z</time></trkpt><trkpt lat="45.7593467" lon="11.4163367"><ele>557.0</ele><time>2026-04-23T08:02:48.026Z</time></trkpt><trkpt lat="45.759265" lon="11.4164517"><ele>557.5</ele><time>2026-04-23T08:02:50.025Z</time></trkpt><trkpt lat="45.759165" lon="11.41657"><ele>558.0</ele><time>2026-04-23T08:02:52.025Z</time></trkpt><trkpt lat="45.7591133" lon="11.4166517"><ele>558.5</ele><time>2026-04-23T08:02:53.025Z</time></trkpt><trkpt lat="45.7590633" lon="11.416745"><ele>559.0</ele><time>2026-04-23T08:02:54.025Z</time></trkpt><trkpt lat="45.7590267" lon="11.416845"><ele>559.5</ele><time>2026-04-23T08:02:55.025Z</time></trkpt><trkpt lat="45.758985" lon="11.4169433"><ele>560.0</ele><time>2026-04-23T08:02:56.025Z</time></trkpt><trkpt lat="45.75894" lon="11.41705"><ele>559.0</ele><time>2026-04-23T08:02:57.025Z</time></trkpt><trkpt lat="45.7589" lon="11.41718"><ele>558.0</ele><time>2026-04-23T08:02:58.025Z</time></trkpt><trkpt lat="45.7588633" lon="11.417315"><ele>557.0</ele><time>2026-04-23T08:02:59.025Z</time></trkpt><trkpt lat="45.75882" lon="11.41744"><ele>556.0</ele><time>2026-04-23T08:03:00.026Z</time></trkpt><trkpt lat="45.75877" lon="11.417565"><ele>555.0</ele><time>2026-04-23T08:03:01.025Z</time></trkpt><trkpt lat="45.7587233" lon="11.4176817"><ele>555.0</ele><time>2026-04-23T08:03:02.025Z</time></trkpt><trkpt lat="45.7586767" lon="11.4177933"><ele>555.0</ele><time>2026-04-23T08:03:03.025Z</time></trkpt><trkpt lat="45.7586267" lon="11.4179133"><ele>555.0</ele><time>2026-04-23T08:03:04.025Z</time></trkpt><trkpt lat="45.7585783" lon="11.4180033"><ele>555.0</ele><time>2026-04-23T08:03:05.026Z</time></trkpt><trkpt lat="45.7584917" lon="11.4181717"><ele>555.0</ele><time>2026-04-23T08:03:07.025Z</time></trkpt><trkpt lat="45.7584317" lon="11.418265"><ele>554.6</ele><time>2026-04-23T08:03:09.025Z</time></trkpt><trkpt lat="45.7583733" lon="11.418325"><ele>554.2</ele><time>2026-04-23T08:03:11.026Z</time></trkpt><trkpt lat="45.7583233" lon="11.41823"><ele>553.8</ele><time>2026-04-23T08:03:14.025Z</time></trkpt><trkpt lat="45.758325" lon="11.41806"><ele>553.4</ele><time>2026-04-23T08:03:16.025Z</time></trkpt><trkpt lat="45.7582983" lon="11.4179033"><ele>553.0</ele><time>2026-04-23T08:03:18.025Z</time></trkpt><trkpt lat="45.7582283" lon="11.41779"><ele>553.0</ele><time>2026-04-23T08:03:20.025Z</time></trkpt><trkpt lat="45.7581517" lon="11.4177633"><ele>553.0</ele><time>2026-04-23T08:03:22.025Z</time></trkpt><trkpt lat="45.75805" lon="11.4178933"><ele>553.0</ele><time>2026-04-23T08:03:24.025Z</time></trkpt><trkpt lat="45.7579883" lon="11.4180367"><ele>553.0</ele><time>2026-04-23T08:03:25.025Z</time></trkpt><trkpt lat="45.75792" lon="11.4181483"><ele>553.0</ele><time>2026-04-23T08:03:26.025Z</time></trkpt><trkpt lat="45.75777" lon="11.4183433"><ele>552.3333333333334</ele><time>2026-04-23T08:03:28.026Z</time></trkpt><trkpt lat="45.7577033" lon="11.4184067"><ele>551.6666666666667</ele><time>2026-04-23T08:03:29.026Z</time></trkpt><trkpt lat="45.757635" lon="11.4184667"><ele>551.0</ele><time>2026-04-23T08:03:30.025Z</time></trkpt><trkpt lat="45.7575567" lon="11.4185267"><ele>550.3333333333334</ele><time>2026-04-23T08:03:31.025Z</time></trkpt><trkpt lat="45.7574733" lon="11.4186017"><ele>549.6666666666666</ele><time>2026-04-23T08:03:32.025Z</time></trkpt><trkpt lat="45.7574" lon="11.4186817"><ele>549.0</ele><time>2026-04-23T08:03:33.025Z</time></trkpt><trkpt lat="45.7573017" lon="11.41878"><ele>544.25</ele><time>2026-04-23T08:03:34.025Z</time></trkpt><trkpt lat="45.7572217" lon="11.4188783"><ele>539.5</ele><time>2026-04-23T08:03:35.025Z</time></trkpt><trkpt lat="45.7571417" lon="11.4189783"><ele>534.75</ele><time>2026-04-23T08:03:36.025Z</time></trkpt><trkpt lat="45.7570567" lon="11.4191333"><ele>530.0</ele><time>2026-04-23T08:03:37.025Z</time></trkpt><trkpt lat="45.7569633" lon="11.4192683"><ele>530.0</ele><time>2026-04-23T08:03:38.025Z</time></trkpt><trkpt lat="45.7568867" lon="11.4193817"><ele>530.0</ele><time>2026-04-23T08:03:39.025Z</time></trkpt><trkpt lat="45.7568167" lon="11.41948"><ele>530.0</ele><time>2026-04-23T08:03:40.024Z</time></trkpt><trkpt lat="45.75675" lon="11.419575"><ele>530.0</ele><time>2026-04-23T08:03:41.024Z</time></trkpt><trkpt lat="45.756695" lon="11.4196867"><ele>530.0</ele><time>2026-04-23T08:03:42.024Z</time></trkpt><trkpt lat="45.7566417" lon="11.4198217"><ele>530.4</ele><time>2026-04-23T08:03:43.025Z</time></trkpt><trkpt lat="45.7565917" lon="11.4199517"><ele>530.8</ele><time>2026-04-23T08:03:44.025Z</time></trkpt><trkpt lat="45.75656" lon="11.4200683"><ele>531.2</ele><time>2026-04-23T08:03:45.024Z</time></trkpt><trkpt lat="45.7565167" lon="11.4201683"><ele>531.6</ele><time>2026-04-23T08:03:46.024Z</time></trkpt><trkpt lat="45.756475" lon="11.42027"><ele>532.0</ele><time>2026-04-23T08:03:47.025Z</time></trkpt><trkpt lat="45.7563617" lon="11.4204983"><ele>527.4</ele><time>2026-04-23T08:03:49.024Z</time></trkpt><trkpt lat="45.75631" lon="11.4206133"><ele>522.8000000000001</ele><time>2026-04-23T08:03:50.024Z</time></trkpt><trkpt lat="45.7562633" lon="11.4207233"><ele>518.2</ele><time>2026-04-23T08:03:51.025Z</time></trkpt><trkpt lat="45.7562083" lon="11.4208167"><ele>513.6</ele><time>2026-04-23T08:03:52.024Z</time></trkpt><trkpt lat="45.75613" lon="11.4209083"><ele>509.0</ele><time>2026-04-23T08:03:53.025Z</time></trkpt><trkpt lat="45.7560467" lon="11.4209883"><ele>509.3333333333333</ele><time>2026-04-23T08:03:54.024Z</time></trkpt><trkpt lat="45.7559667" lon="11.4210533"><ele>509.66666666666663</ele><time>2026-04-23T08:03:55.024Z</time></trkpt><trkpt lat="45.755885" lon="11.4211117"><ele>510.0</ele><time>2026-04-23T08:03:56.024Z</time></trkpt><trkpt lat="45.7558033" lon="11.421175"><ele>510.33333333333337</ele><time>2026-04-23T08:03:57.024Z</time></trkpt><trkpt lat="45.7557283" lon="11.42124"><ele>510.6666666666667</ele><time>2026-04-23T08:03:58.024Z</time></trkpt><trkpt lat="45.7556567" lon="11.4212833"><ele>511.0</ele><time>2026-04-23T08:03:59.024Z</time></trkpt><trkpt lat="45.7555767" lon="11.42133"><ele>511.00000000000006</ele><time>2026-04-23T08:04:00.024Z</time></trkpt><trkpt lat="45.7554983" lon="11.4213833"><ele>511.0</ele><time>2026-04-23T08:04:01.024Z</time></trkpt><trkpt lat="45.7554117" lon="11.42144"><ele>511.0</ele><time>2026-04-23T08:04:02.024Z</time></trkpt><trkpt lat="45.755325" lon="11.421475"><ele>511.0</ele><time>2026-04-23T08:04:03.024Z</time></trkpt><trkpt lat="45.7552583" lon="11.42147"><ele>511.00000000000006</ele><time>2026-04-23T08:04:04.025Z</time></trkpt><trkpt lat="45.7551733" lon="11.4214733"><ele>511.0</ele><time>2026-04-23T08:04:05.024Z</time></trkpt><trkpt lat="45.755085" lon="11.4214583"><ele>512.5</ele><time>2026-04-23T08:04:06.024Z</time></trkpt><trkpt lat="45.754995" lon="11.42142"><ele>514.0</ele><time>2026-04-23T08:04:07.024Z</time></trkpt><trkpt lat="45.75491" lon="11.4213867"><ele>515.5</ele><time>2026-04-23T08:04:08.024Z</time></trkpt><trkpt lat="45.7547567" lon="11.421335"><ele>517.0</ele><time>2026-04-23T08:04:10.025Z</time></trkpt><trkpt lat="45.754645" lon="11.421325"><ele>522.6</ele><time>2026-04-23T08:04:12.025Z</time></trkpt><trkpt lat="45.75456" lon="11.4212583"><ele>528.2</ele><time>2026-04-23T08:04:14.024Z</time></trkpt><trkpt lat="45.754515" lon="11.4211267"><ele>533.8</ele><time>2026-04-23T08:04:16.024Z</time></trkpt><trkpt lat="45.754445" lon="11.4210917"><ele>539.4</ele><time>2026-04-23T08:04:17.024Z</time></trkpt><trkpt lat="45.7543" lon="11.42105"><ele>545.0</ele><time>2026-04-23T08:04:18.024Z</time></trkpt><trkpt lat="45.7541567" lon="11.4210583"><ele>545.0</ele><time>2026-04-23T08:04:19.024Z</time></trkpt><trkpt lat="45.7540583" lon="11.4210517"><ele>545.0</ele><time>2026-04-23T08:04:20.024Z</time></trkpt><trkpt lat="45.7539417" lon="11.4210567"><ele>545.0</ele><time>2026-04-23T08:04:21.024Z</time></trkpt><trkpt lat="45.7538017" lon="11.4211033"><ele>545.0</ele><time>2026-04-23T08:04:22.024Z</time></trkpt><trkpt lat="45.75366" lon="11.4211417"><ele>545.0</ele><time>2026-04-23T08:04:23.024Z</time></trkpt><trkpt lat="45.7535667" lon="11.4211833"><ele>545.0</ele><time>2026-04-23T08:04:24.024Z</time></trkpt><trkpt lat="45.7534783" lon="11.4212383"><ele>545.0</ele><time>2026-04-23T08:04:25.024Z</time></trkpt><trkpt lat="45.7533833" lon="11.4212733"><ele>545.0</ele><time>2026-04-23T08:04:26.024Z</time></trkpt><trkpt lat="45.753275" lon="11.4213"><ele>545.0</ele><time>2026-04-23T08:04:27.025Z</time></trkpt><trkpt lat="45.75317" lon="11.4213433"><ele>537.0</ele><time>2026-04-23T08:04:28.024Z</time></trkpt><trkpt lat="45.7530617" lon="11.4213717"><ele>529.0</ele><time>2026-04-23T08:04:29.024Z</time></trkpt><trkpt lat="45.7528883" lon="11.4214067"><ele>521.0</ele><time>2026-04-23T08:04:31.024Z</time></trkpt><trkpt lat="45.7528033" lon="11.4214367"><ele>513.0</ele><time>2026-04-23T08:04:32.024Z</time></trkpt><trkpt lat="45.7527217" lon="11.42146"><ele>511.0</ele><time>2026-04-23T08:04:33.024Z</time></trkpt><trkpt lat="45.752645" lon="11.4214783"><ele>509.0</ele><time>2026-04-23T08:04:34.025Z</time></trkpt><trkpt lat="45.7525683" lon="11.42148"><ele>507.0</ele><time>2026-04-23T08:04:35.025Z</time></trkpt><trkpt lat="45.7525" lon="11.421465"><ele>505.0</ele><time>2026-04-23T08:04:36.024Z</time></trkpt><trkpt lat="45.7523967" lon="11.4214033"><ele>503.0</ele><time>2026-04-23T08:04:38.024Z</time></trkpt><trkpt lat="45.7523517" lon="11.4212883"><ele>501.0</ele><time>2026-04-23T08:04:40.024Z</time></trkpt><trkpt lat="45.7523183" lon="11.42117"><ele>504.7142857142857</ele><time>2026-04-23T08:04:42.025Z</time></trkpt><trkpt lat="45.75229" lon="11.4210883"><ele>508.42857142857144</ele><time>2026-04-23T08:04:43.025Z</time></trkpt><trkpt lat="45.7522683" lon="11.4209933"><ele>512.1428571428571</ele><time>2026-04-23T08:04:44.024Z</time></trkpt><trkpt lat="45.752245" lon="11.420905"><ele>515.8571428571429</ele><time>2026-04-23T08:04:45.024Z</time></trkpt><trkpt lat="45.7522283" lon="11.4208067"><ele>519.5714285714286</ele><time>2026-04-23T08:04:46.024Z</time></trkpt><trkpt lat="45.7522167" lon="11.4207083"><ele>523.2857142857143</ele><time>2026-04-23T08:04:47.024Z</time></trkpt><trkpt lat="45.7522217" lon="11.4205817"><ele>527.0</ele><time>2026-04-23T08:04:48.024Z</time></trkpt><trkpt lat="45.7522417" lon="11.4204483"><ele>530.6</ele><time>2026-04-23T08:04:49.024Z</time></trkpt><trkpt lat="45.752255" lon="11.42033"><ele>534.2</ele><time>2026-04-23T08:04:50.024Z</time></trkpt><trkpt lat="45.7522783" lon="11.42013"><ele>537.8</ele><time>2026-04-23T08:04:52.024Z</time></trkpt><trkpt lat="45.7523083" lon="11.4200167"><ele>541.4</ele><time>2026-04-23T08:04:54.024Z</time></trkpt><trkpt lat="45.75228" lon="11.4199067"><ele>545.0</ele><time>2026-04-23T08:04:57.024Z</time></trkpt><trkpt lat="45.7522667" lon="11.41977"><ele>545.0</ele><time>2026-04-23T08:04:59.024Z</time></trkpt><trkpt lat="45.752255" lon="11.4196767"><ele>545.0</ele><time>2026-04-23T08:05:00.024Z</time></trkpt><trkpt lat="45.7522433" lon="11.4195683"><ele>545.0</ele><time>2026-04-23T08:05:01.024Z</time></trkpt><trkpt lat="45.7522317" lon="11.419455"><ele>545.0</ele><time>2026-04-23T08:05:02.024Z</time></trkpt><trkpt lat="45.7522217" lon="11.41935"><ele>545.0</ele><time>2026-04-23T08:05:03.025Z</time></trkpt><trkpt lat="45.7522017" lon="11.4192267"><ele>545.0</ele><time>2026-04-23T08:05:04.024Z</time></trkpt><trkpt lat="45.7521733" lon="11.4190983"><ele>548.6</ele><time>2026-04-23T08:05:05.024Z</time></trkpt><trkpt lat="45.7521417" lon="11.4189667"><ele>552.2</ele><time>2026-04-23T08:05:06.024Z</time></trkpt><trkpt lat="45.7521083" lon="11.41883"><ele>555.8</ele><time>2026-04-23T08:05:07.024Z</time></trkpt><trkpt lat="45.75207" lon="11.4187067"><ele>559.4</ele><time>2026-04-23T08:05:08.024Z</time></trkpt><trkpt lat="45.7520367" lon="11.4186"><ele>563.0</ele><time>2026-04-23T08:05:09.024Z</time></trkpt><trkpt lat="45.7520067" lon="11.4185"><ele>568.0</ele><time>2026-04-23T08:05:10.025Z</time></trkpt><trkpt lat="45.7519983" lon="11.4183783"><ele>573.0</ele><time>2026-04-23T08:05:11.024Z</time></trkpt><trkpt lat="45.7520017" lon="11.418095"><ele>578.0</ele><time>2026-04-23T08:05:13.025Z</time></trkpt><trkpt lat="45.752005" lon="11.4179333"><ele>583.0</ele><time>2026-04-23T08:05:14.024Z</time></trkpt><trkpt lat="45.75201" lon="11.4177567"><ele>586.75</ele><time>2026-04-23T08:05:15.024Z</time></trkpt><trkpt lat="45.7520117" lon="11.4176033"><ele>590.5</ele><time>2026-04-23T08:05:16.024Z</time></trkpt><trkpt lat="45.7519917" lon="11.4174367"><ele>594.25</ele><time>2026-04-23T08:05:17.024Z</time></trkpt><trkpt lat="45.7519417" lon="11.4172683"><ele>598.0</ele><time>2026-04-23T08:05:18.024Z</time></trkpt><trkpt lat="45.7519" lon="11.417115"><ele>593.8</ele><time>2026-04-23T08:05:19.025Z</time></trkpt><trkpt lat="45.75186" lon="11.4169633"><ele>589.5999999999999</ele><time>2026-04-23T08:05:20.024Z</time></trkpt><trkpt lat="45.7518133" lon="11.4168267"><ele>585.4000000000001</ele><time>2026-04-23T08:05:21.024Z</time></trkpt><trkpt lat="45.75177" lon="11.4167133"><ele>581.2</ele><time>2026-04-23T08:05:22.024Z</time></trkpt><trkpt lat="45.7517033" lon="11.4166267"><ele>577.0</ele><time>2026-04-23T08:05:23.024Z</time></trkpt><trkpt lat="45.7516383" lon="11.4165633"><ele>577.0</ele><time>2026-04-23T08:05:24.024Z</time></trkpt><trkpt lat="45.751555" lon="11.4164383"><ele>577.0</ele><time>2026-04-23T08:05:26.024Z</time></trkpt><trkpt lat="45.7515033" lon="11.4163667"><ele>577.0</ele><time>2026-04-23T08:05:27.024Z</time></trkpt><trkpt lat="45.75143" lon="11.4162817"><ele>577.0</ele><time>2026-04-23T08:05:28.024Z</time></trkpt><trkpt lat="45.7513483" lon="11.41621"><ele>577.0</ele><time>2026-04-23T08:05:29.024Z</time></trkpt><trkpt lat="45.7512617" lon="11.4161467"><ele>577.6</ele><time>2026-04-23T08:05:30.024Z</time></trkpt><trkpt lat="45.7511867" lon="11.4161067"><ele>578.2</ele><time>2026-04-23T08:05:31.024Z</time></trkpt><trkpt lat="45.75109" lon="11.4160117"><ele>578.8</ele><time>2026-04-23T08:05:33.024Z</time></trkpt><trkpt lat="45.750985" lon="11.4158333"><ele>579.4</ele><time>2026-04-23T08:05:35.025Z</time></trkpt><trkpt lat="45.750935" lon="11.41574"><ele>580.0</ele><time>2026-04-23T08:05:36.025Z</time></trkpt><trkpt lat="45.7508983" lon="11.4156633"><ele>582.0</ele><time>2026-04-23T08:05:37.024Z</time></trkpt><trkpt lat="45.7508467" lon="11.4154733"><ele>584.0</ele><time>2026-04-23T08:05:39.024Z</time></trkpt><trkpt lat="45.75083" lon="11.415355"><ele>586.0</ele><time>2026-04-23T08:05:40.024Z</time></trkpt><trkpt lat="45.7508083" lon="11.41524"><ele>588.0</ele><time>2026-04-23T08:05:41.024Z</time></trkpt><trkpt lat="45.750795" lon="11.4151433"><ele>590.0</ele><time>2026-04-23T08:05:42.024Z</time></trkpt><trkpt lat="45.7507967" lon="11.4149883"><ele>590.0</ele><time>2026-04-23T08:05:44.024Z</time></trkpt><trkpt lat="45.75085" lon="11.414865"><ele>590.0</ele><time>2026-04-23T08:05:46.024Z</time></trkpt><trkpt lat="45.7508917" lon="11.414795"><ele>590.0</ele><time>2026-04-23T08:05:47.024Z</time></trkpt><trkpt lat="45.7509417" lon="11.4147217"><ele>590.0</ele><time>2026-04-23T08:05:48.024Z</time></trkpt><trkpt lat="45.7509967" lon="11.4146433"><ele>590.0</ele><time>2026-04-23T08:05:49.024Z</time></trkpt><trkpt lat="45.7510483" lon="11.41455"><ele>590.0</ele><time>2026-04-23T08:05:50.025Z</time></trkpt><trkpt lat="45.751085" lon="11.4144633"><ele>590.0</ele><time>2026-04-23T08:05:51.024Z</time></trkpt><trkpt lat="45.7511133" lon="11.4143817"><ele>590.0</ele><time>2026-04-23T08:05:52.025Z</time></trkpt><trkpt lat="45.7511333" lon="11.4142017"><ele>590.0</ele><time>2026-04-23T08:05:54.025Z</time></trkpt><trkpt lat="45.7510733" lon="11.413985"><ele>590.0</ele><time>2026-04-23T08:05:56.024Z</time></trkpt><trkpt lat="45.75104" lon="11.4138867"><ele>590.0</ele><time>2026-04-23T08:05:57.025Z</time></trkpt><trkpt lat="45.7510133" lon="11.4137683"><ele>591.8</ele><time>2026-04-23T08:05:58.024Z</time></trkpt><trkpt lat="45.7509983" lon="11.41365"><ele>593.6</ele><time>2026-04-23T08:05:59.024Z</time></trkpt><trkpt lat="45.7509783" lon="11.4135283"><ele>595.4</ele><time>2026-04-23T08:06:00.024Z</time></trkpt><trkpt lat="45.750955" lon="11.413395"><ele>597.2</ele><time>2026-04-23T08:06:01.024Z</time></trkpt><trkpt lat="45.75091" lon="11.41328"><ele>599.0</ele><time>2026-04-23T08:06:02.024Z</time></trkpt><trkpt lat="45.75086" lon="11.4131667"><ele>599.0</ele><time>2026-04-23T08:06:03.024Z</time></trkpt><trkpt lat="45.75081" lon="11.4130667"><ele>599.0</ele><time>2026-04-23T08:06:04.024Z</time></trkpt><trkpt lat="45.7507717" lon="11.4129867"><ele>599.0</ele><time>2026-04-23T08:06:05.024Z</time></trkpt><trkpt lat="45.7507333" lon="11.4128967"><ele>599.0</ele><time>2026-04-23T08:06:06.024Z</time></trkpt><trkpt lat="45.7506833" lon="11.412735"><ele>599.0</ele><time>2026-04-23T08:06:08.024Z</time></trkpt><trkpt lat="45.7506667" lon="11.4126333"><ele>599.0</ele><time>2026-04-23T08:06:09.024Z</time></trkpt><trkpt lat="45.7506617" lon="11.4125133"><ele>600.8</ele><time>2026-04-23T08:06:10.024Z</time></trkpt><trkpt lat="45.750675" lon="11.4124"><ele>602.5999999999999</ele><time>2026-04-23T08:06:11.025Z</time></trkpt><trkpt lat="45.7506817" lon="11.4122283"><ele>604.4</ele><time>2026-04-23T08:06:13.024Z</time></trkpt><trkpt lat="45.7506567" lon="11.4121183"><ele>606.1999999999999</ele><time>2026-04-23T08:06:14.025Z</time></trkpt><trkpt lat="45.75063" lon="11.41201"><ele>608.0</ele><time>2026-04-23T08:06:15.024Z</time></trkpt><trkpt lat="45.75058" lon="11.4117917"><ele>606.3333333333333</ele><time>2026-04-23T08:06:17.024Z</time></trkpt><trkpt lat="45.75055" lon="11.4116867"><ele>604.6666666666666</ele><time>2026-04-23T08:06:18.024Z</time></trkpt><trkpt lat="45.750515" lon="11.4115983"><ele>603.0</ele><time>2026-04-23T08:06:19.024Z</time></trkpt><trkpt lat="45.7504583" lon="11.4115133"><ele>601.3333333333334</ele><time>2026-04-23T08:06:20.024Z</time></trkpt><trkpt lat="45.7503867" lon="11.4114233"><ele>599.6666666666667</ele><time>2026-04-23T08:06:21.025Z</time></trkpt><trkpt lat="45.7503" lon="11.4113167"><ele>598.0</ele><time>2026-04-23T08:06:22.024Z</time></trkpt><trkpt lat="45.7502033" lon="11.4112117"><ele>598.0</ele><time>2026-04-23T08:06:23.024Z</time></trkpt><trkpt lat="45.750105" lon="11.4111033"><ele>598.0</ele><time>2026-04-23T08:06:24.024Z</time></trkpt><trkpt lat="45.7500133" lon="11.4110067"><ele>598.0</ele><time>2026-04-23T08:06:25.024Z</time></trkpt><trkpt lat="45.7499283" lon="11.410915"><ele>598.0</ele><time>2026-04-23T08:06:26.024Z</time></trkpt><trkpt lat="45.7498617" lon="11.4108333"><ele>598.0</ele><time>2026-04-23T08:06:27.024Z</time></trkpt><trkpt lat="45.7498083" lon="11.4107633"><ele>598.0</ele><time>2026-04-23T08:06:28.024Z</time></trkpt><trkpt lat="45.74975" lon="11.4106767"><ele>598.0</ele><time>2026-04-23T08:06:29.025Z</time></trkpt><trkpt lat="45.7496933" lon="11.41058"><ele>598.0</ele><time>2026-04-23T08:06:30.024Z</time></trkpt><trkpt lat="45.749645" lon="11.4104783"><ele>598.0</ele><time>2026-04-23T08:06:31.024Z</time></trkpt><trkpt lat="45.749595" lon="11.41039"><ele>598.0</ele><time>2026-04-23T08:06:32.024Z</time></trkpt><trkpt lat="45.7495583" lon="11.41031"><ele>598.0</ele><time>2026-04-23T08:06:33.024Z</time></trkpt><trkpt lat="45.7495267" lon="11.410225"><ele>601.4</ele><time>2026-04-23T08:06:34.024Z</time></trkpt><trkpt lat="45.7495033" lon="11.4101217"><ele>604.8</ele><time>2026-04-23T08:06:35.025Z</time></trkpt><trkpt lat="45.7494917" lon="11.41001"><ele>608.2</ele><time>2026-04-23T08:06:36.024Z</time></trkpt><trkpt lat="45.74947" lon="11.4097967"><ele>611.6</ele><time>2026-04-23T08:06:38.025Z</time></trkpt><trkpt lat="45.74945" lon="11.4096917"><ele>615.0</ele><time>2026-04-23T08:06:39.024Z</time></trkpt><trkpt lat="45.7494217" lon="11.4095917"><ele>616.6666666666666</ele><time>2026-04-23T08:06:40.025Z</time></trkpt><trkpt lat="45.74939" lon="11.4095"><ele>618.3333333333334</ele><time>2026-04-23T08:06:41.024Z</time></trkpt><trkpt lat="45.7493467" lon="11.4094233"><ele>620.0</ele><time>2026-04-23T08:06:42.024Z</time></trkpt><trkpt lat="45.7493083" lon="11.4093517"><ele>621.6666666666667</ele><time>2026-04-23T08:06:43.024Z</time></trkpt><trkpt lat="45.7492167" lon="11.4092017"><ele>623.3333333333334</ele><time>2026-04-23T08:06:45.024Z</time></trkpt><trkpt lat="45.7491617" lon="11.409105"><ele>625.0</ele><time>2026-04-23T08:06:46.024Z</time></trkpt><trkpt lat="45.7491183" lon="11.409005"><ele>615.2</ele><time>2026-04-23T08:06:47.024Z</time></trkpt><trkpt lat="45.7490783" lon="11.4088817"><ele>605.4</ele><time>2026-04-23T08:06:48.024Z</time></trkpt><trkpt lat="45.7490317" lon="11.4087667"><ele>595.6</ele><time>2026-04-23T08:06:49.024Z</time></trkpt><trkpt lat="45.748975" lon="11.4086617"><ele>585.8</ele><time>2026-04-23T08:06:50.024Z</time></trkpt><trkpt lat="45.748915" lon="11.4085667"><ele>576.0</ele><time>2026-04-23T08:06:51.024Z</time></trkpt><trkpt lat="45.7488517" lon="11.4084933"><ele>576.0</ele><time>2026-04-23T08:06:52.024Z</time></trkpt><trkpt lat="45.7488" lon="11.4084333"><ele>576.0</ele><time>2026-04-23T08:06:53.024Z</time></trkpt><trkpt lat="45.7487433" lon="11.408325"><ele>576.0</ele><time>2026-04-23T08:06:55.024Z</time></trkpt><trkpt lat="45.7487467" lon="11.4082133"><ele>576.0</ele><time>2026-04-23T08:06:57.024Z</time></trkpt><trkpt lat="45.7488617" lon="11.4079733"><ele>576.0</ele><time>2026-04-23T08:07:00.025Z</time></trkpt><trkpt lat="45.7489017" lon="11.40788"><ele>575.6666666666666</ele><time>2026-04-23T08:07:01.024Z</time></trkpt><trkpt lat="45.7489433" lon="11.4077983"><ele>575.3333333333334</ele><time>2026-04-23T08:07:02.025Z</time></trkpt><trkpt lat="45.7489383" lon="11.40764"><ele>575.0</ele><time>2026-04-23T08:07:04.024Z</time></trkpt><trkpt lat="45.7489133" lon="11.407555"><ele>574.6666666666667</ele><time>2026-04-23T08:07:05.025Z</time></trkpt><trkpt lat="45.7488683" lon="11.40748"><ele>574.3333333333334</ele><time>2026-04-23T08:07:06.024Z</time></trkpt><trkpt lat="45.7488233" lon="11.407405"><ele>574.0</ele><time>2026-04-23T08:07:07.024Z</time></trkpt><trkpt lat="45.74878" lon="11.4073067"><ele>574.0</ele><time>2026-04-23T08:07:08.025Z</time></trkpt><trkpt lat="45.74875" lon="11.4071917"><ele>574.0</ele><time>2026-04-23T08:07:09.024Z</time></trkpt><trkpt lat="45.748725" lon="11.4070733"><ele>574.0</ele><time>2026-04-23T08:07:10.024Z</time></trkpt><trkpt lat="45.74871" lon="11.4069733"><ele>574.0</ele><time>2026-04-23T08:07:11.024Z</time></trkpt><trkpt lat="45.7486933" lon="11.406885"><ele>574.0</ele><time>2026-04-23T08:07:12.024Z</time></trkpt><trkpt lat="45.748695" lon="11.40674"><ele>574.0</ele><time>2026-04-23T08:07:14.024Z</time></trkpt><trkpt lat="45.748755" lon="11.4066133"><ele>573.6</ele><time>2026-04-23T08:07:16.024Z</time></trkpt><trkpt lat="45.7488033" lon="11.406535"><ele>573.2</ele><time>2026-04-23T08:07:17.024Z</time></trkpt><trkpt lat="45.748855" lon="11.4064767"><ele>572.8000000000001</ele><time>2026-04-23T08:07:18.024Z</time></trkpt><trkpt lat="45.748965" lon="11.406215"><ele>572.4</ele><time>2026-04-23T08:07:22.024Z</time></trkpt><trkpt lat="45.7489517" lon="11.406115"><ele>572.0</ele><time>2026-04-23T08:07:23.024Z</time></trkpt><trkpt lat="45.748915" lon="11.4060367"><ele>572.8333333333333</ele><time>2026-04-23T08:07:24.024Z</time></trkpt><trkpt lat="45.748855" lon="11.4059567"><ele>573.6666666666666</ele><time>2026-04-23T08:07:25.024Z</time></trkpt><trkpt lat="45.74878" lon="11.405885"><ele>574.5</ele><time>2026-04-23T08:07:26.024Z</time></trkpt><trkpt lat="45.7487083" lon="11.4058167"><ele>575.3333333333334</ele><time>2026-04-23T08:07:27.024Z</time></trkpt><trkpt lat="45.74863" lon="11.4057383"><ele>576.1666666666667</ele><time>2026-04-23T08:07:28.024Z</time></trkpt><trkpt lat="45.74856" lon="11.4056617"><ele>577.0</ele><time>2026-04-23T08:07:29.024Z</time></trkpt><trkpt lat="45.748505" lon="11.405605"><ele>570.3333333333334</ele><time>2026-04-23T08:07:30.024Z</time></trkpt><trkpt lat="45.74846" lon="11.4055383"><ele>563.6666666666667</ele><time>2026-04-23T08:07:31.024Z</time></trkpt><trkpt lat="45.7484183" lon="11.405465"><ele>557.0</ele><time>2026-04-23T08:07:32.023Z</time></trkpt><trkpt lat="45.7483867" lon="11.4053667"><ele>550.3333333333334</ele><time>2026-04-23T08:07:33.023Z</time></trkpt><trkpt lat="45.7483617" lon="11.4052383"><ele>543.6666666666666</ele><time>2026-04-23T08:07:34.023Z</time></trkpt><trkpt lat="45.7483333" lon="11.4051117"><ele>537.0</ele><time>2026-04-23T08:07:35.024Z</time></trkpt><trkpt lat="45.7483133" lon="11.404995"><ele>537.0</ele><time>2026-04-23T08:07:36.024Z</time></trkpt><trkpt lat="45.7482883" lon="11.4048917"><ele>537.0</ele><time>2026-04-23T08:07:37.023Z</time></trkpt><trkpt lat="45.7482633" lon="11.4047867"><ele>537.0</ele><time>2026-04-23T08:07:38.024Z</time></trkpt><trkpt lat="45.7482333" lon="11.4046767"><ele>537.0</ele><time>2026-04-23T08:07:39.023Z</time></trkpt><trkpt lat="45.7481417" lon="11.4044483"><ele>537.0</ele><time>2026-04-23T08:07:41.023Z</time></trkpt><trkpt lat="45.7480933" lon="11.4043383"><ele>540.8000000000001</ele><time>2026-04-23T08:07:42.023Z</time></trkpt><trkpt lat="45.748045" lon="11.4042267"><ele>544.6</ele><time>2026-04-23T08:07:43.023Z</time></trkpt><trkpt lat="45.74799" lon="11.4041033"><ele>548.4000000000001</ele><time>2026-04-23T08:07:44.023Z</time></trkpt><trkpt lat="45.7479183" lon="11.40398"><ele>552.2</ele><time>2026-04-23T08:07:45.024Z</time></trkpt><trkpt lat="45.7478483" lon="11.403875"><ele>556.0</ele><time>2026-04-23T08:07:46.023Z</time></trkpt><trkpt lat="45.747775" lon="11.4037833"><ele>559.8333333333334</ele><time>2026-04-23T08:07:47.023Z</time></trkpt><trkpt lat="45.7477133" lon="11.403695"><ele>563.6666666666667</ele><time>2026-04-23T08:07:48.023Z</time></trkpt><trkpt lat="45.74765" lon="11.40361"><ele>567.5</ele><time>2026-04-23T08:07:49.024Z</time></trkpt><trkpt lat="45.7476" lon="11.4035233"><ele>571.3333333333334</ele><time>2026-04-23T08:07:50.023Z</time></trkpt><trkpt lat="45.7475467" lon="11.4034133"><ele>575.1666666666666</ele><time>2026-04-23T08:07:51.023Z</time></trkpt><trkpt lat="45.747515" lon="11.4033033"><ele>579.0</ele><time>2026-04-23T08:07:52.023Z</time></trkpt><trkpt lat="45.747495" lon="11.4032133"><ele>570.6666666666666</ele><time>2026-04-23T08:07:53.023Z</time></trkpt><trkpt lat="45.7474667" lon="11.4030683"><ele>562.3333333333334</ele><time>2026-04-23T08:07:55.023Z</time></trkpt><trkpt lat="45.7474967" lon="11.4029167"><ele>554.0</ele><time>2026-04-23T08:07:57.023Z</time></trkpt><trkpt lat="45.7475283" lon="11.4028367"><ele>545.6666666666667</ele><time>2026-04-23T08:07:58.023Z</time></trkpt><trkpt lat="45.747565" lon="11.4027367"><ele>537.3333333333334</ele><time>2026-04-23T08:07:59.023Z</time></trkpt><trkpt lat="45.7476083" lon="11.402645"><ele>529.0</ele><time>2026-04-23T08:08:00.023Z</time></trkpt><trkpt lat="45.74769" lon="11.4024883"><ele>536.0</ele><time>2026-04-23T08:08:02.023Z</time></trkpt><trkpt lat="45.7477167" lon="11.4023733"><ele>543.0</ele><time>2026-04-23T08:08:03.023Z</time></trkpt><trkpt lat="45.7477383" lon="11.4022617"><ele>550.0</ele><time>2026-04-23T08:08:04.023Z</time></trkpt><trkpt lat="45.747745" lon="11.4021433"><ele>557.0</ele><time>2026-04-23T08:08:05.023Z</time></trkpt><trkpt lat="45.7477467" lon="11.4020233"><ele>564.0</ele><time>2026-04-23T08:08:06.024Z</time></trkpt><trkpt lat="45.747765" lon="11.401925"><ele>571.0</ele><time>2026-04-23T08:08:07.023Z</time></trkpt><trkpt lat="45.747785" lon="11.40183"><ele>571.0</ele><time>2026-04-23T08:08:08.023Z</time></trkpt><trkpt lat="45.7478017" lon="11.4017367"><ele>571.0</ele><time>2026-04-23T08:08:09.023Z</time></trkpt><trkpt lat="45.747865" lon="11.401575"><ele>571.0</ele><time>2026-04-23T08:08:11.024Z</time></trkpt><trkpt lat="45.7479133" lon="11.4014883"><ele>571.0</ele><time>2026-04-23T08:08:12.024Z</time></trkpt><trkpt lat="45.7479667" lon="11.4014117"><ele>571.0</ele><time>2026-04-23T08:08:13.024Z</time></trkpt><trkpt lat="45.7480233" lon="11.401335"><ele>571.0</ele><time>2026-04-23T08:08:14.023Z</time></trkpt><trkpt lat="45.7480817" lon="11.4012583"><ele>567.6666666666667</ele><time>2026-04-23T08:08:15.023Z</time></trkpt><trkpt lat="45.748145" lon="11.4011867"><ele>564.3333333333334</ele><time>2026-04-23T08:08:16.023Z</time></trkpt><trkpt lat="45.7482233" lon="11.4011117"><ele>561.0</ele><time>2026-04-23T08:08:17.024Z</time></trkpt><trkpt lat="45.748305" lon="11.4010467"><ele>557.6666666666666</ele><time>2026-04-23T08:08:18.023Z</time></trkpt><trkpt lat="45.748385" lon="11.401005"><ele>554.3333333333333</ele><time>2026-04-23T08:08:19.023Z</time></trkpt><trkpt lat="45.7484533" lon="11.4009733"><ele>551.0</ele><time>2026-04-23T08:08:20.023Z</time></trkpt><trkpt lat="45.7485167" lon="11.4009517"><ele>551.75</ele><time>2026-04-23T08:08:21.023Z</time></trkpt><trkpt lat="45.74866" lon="11.40081"><ele>552.5</ele><time>2026-04-23T08:08:25.023Z</time></trkpt><trkpt lat="45.7486567" lon="11.4006683"><ele>553.25</ele><time>2026-04-23T08:08:27.023Z</time></trkpt><trkpt lat="45.7485683" lon="11.4005067"><ele>554.0</ele><time>2026-04-23T08:08:29.023Z</time></trkpt><trkpt lat="45.7484883" lon="11.4004167"><ele>554.0</ele><time>2026-04-23T08:08:30.023Z</time></trkpt><trkpt lat="45.7483717" lon="11.400325"><ele>554.0</ele><time>2026-04-23T08:08:31.023Z</time></trkpt><trkpt lat="45.7482533" lon="11.4002433"><ele>554.0</ele><time>2026-04-23T08:08:32.023Z</time></trkpt><trkpt lat="45.748155" lon="11.4001517"><ele>554.0</ele><time>2026-04-23T08:08:33.023Z</time></trkpt><trkpt lat="45.748085" lon="11.40007"><ele>554.0</ele><time>2026-04-23T08:08:34.023Z</time></trkpt><trkpt lat="45.748035" lon="11.4000033"><ele>554.0</ele><time>2026-04-23T08:08:35.024Z</time></trkpt><trkpt lat="45.7480233" lon="11.3998767"><ele>554.0</ele><time>2026-04-23T08:08:37.023Z</time></trkpt><trkpt lat="45.7480883" lon="11.399745"><ele>554.0</ele><time>2026-04-23T08:08:39.023Z</time></trkpt><trkpt lat="45.7481517" lon="11.3996567"><ele>554.0</ele><time>2026-04-23T08:08:40.023Z</time></trkpt><trkpt lat="45.7482167" lon="11.39957"><ele>554.0</ele><time>2026-04-23T08:08:41.023Z</time></trkpt><trkpt lat="45.748275" lon="11.3994867"><ele>553.2</ele><time>2026-04-23T08:08:42.023Z</time></trkpt><trkpt lat="45.7484167" lon="11.39934"><ele>552.4</ele><time>2026-04-23T08:08:44.023Z</time></trkpt><trkpt lat="45.748495" lon="11.3992633"><ele>551.6</ele><time>2026-04-23T08:08:45.024Z</time></trkpt><trkpt lat="45.7485683" lon="11.3991867"><ele>550.8</ele><time>2026-04-23T08:08:46.023Z</time></trkpt><trkpt lat="45.7486417" lon="11.399125"><ele>550.0</ele><time>2026-04-23T08:08:47.024Z</time></trkpt><trkpt lat="45.7487033" lon="11.3990567"><ele>556.8333333333334</ele><time>2026-04-23T08:08:48.024Z</time></trkpt><trkpt lat="45.7487667" lon="11.3989167"><ele>563.6666666666667</ele><time>2026-04-23T08:08:50.023Z</time></trkpt><trkpt lat="45.7487733" lon="11.3988117"><ele>570.5</ele><time>2026-04-23T08:08:51.023Z</time></trkpt><trkpt lat="45.7487667" lon="11.398715"><ele>577.3333333333334</ele><time>2026-04-23T08:08:52.023Z</time></trkpt><trkpt lat="45.7487417" lon="11.3986217"><ele>584.1666666666666</ele><time>2026-04-23T08:08:53.023Z</time></trkpt><trkpt lat="45.74869" lon="11.398535"><ele>591.0</ele><time>2026-04-23T08:08:54.023Z</time></trkpt><trkpt lat="45.74861" lon="11.3984717"><ele>586.5</ele><time>2026-04-23T08:08:55.023Z</time></trkpt><trkpt lat="45.7485283" lon="11.3984217"><ele>582.0</ele><time>2026-04-23T08:08:56.023Z</time></trkpt><trkpt lat="45.7484617" lon="11.3983767"><ele>577.5</ele><time>2026-04-23T08:08:57.024Z</time></trkpt><trkpt lat="45.7483983" lon="11.3983217"><ele>573.0</ele><time>2026-04-23T08:08:58.023Z</time></trkpt><trkpt lat="45.74835" lon="11.3982333"><ele>568.5</ele><time>2026-04-23T08:08:59.023Z</time></trkpt><trkpt lat="45.748295" lon="11.3981333"><ele>564.0</ele><time>2026-04-23T08:09:00.023Z</time></trkpt><trkpt lat="45.74823" lon="11.3980483"><ele>568.2</ele><time>2026-04-23T08:09:01.023Z</time></trkpt><trkpt lat="45.748155" lon="11.3979733"><ele>572.4</ele><time>2026-04-23T08:09:02.023Z</time></trkpt><trkpt lat="45.7480833" lon="11.3979117"><ele>576.6</ele><time>2026-04-23T08:09:03.023Z</time></trkpt><trkpt lat="45.7479333" lon="11.3978333"><ele>580.8</ele><time>2026-04-23T08:09:05.023Z</time></trkpt><trkpt lat="45.7478267" lon="11.3977867"><ele>585.0</ele><time>2026-04-23T08:09:07.024Z</time></trkpt><trkpt lat="45.74778" lon="11.397675"><ele>585.0</ele><time>2026-04-23T08:09:09.023Z</time></trkpt><trkpt lat="45.747815" lon="11.39757"><ele>585.0</ele><time>2026-04-23T08:09:11.023Z</time></trkpt><trkpt lat="45.7478767" lon="11.39741"><ele>585.0</ele><time>2026-04-23T08:09:13.024Z</time></trkpt><trkpt lat="45.7479033" lon="11.3972983"><ele>585.0</ele><time>2026-04-23T08:09:14.023Z</time></trkpt><trkpt lat="45.7479367" lon="11.39717"><ele>585.0</ele><time>2026-04-23T08:09:15.023Z</time></trkpt><trkpt lat="45.747965" lon="11.3970733"><ele>586.0</ele><time>2026-04-23T08:09:16.023Z</time></trkpt><trkpt lat="45.747995" lon="11.3969783"><ele>587.0</ele><time>2026-04-23T08:09:17.023Z</time></trkpt><trkpt lat="45.7480167" lon="11.396795"><ele>588.0</ele><time>2026-04-23T08:09:19.023Z</time></trkpt><trkpt lat="45.7479933" lon="11.396615"><ele>589.0</ele><time>2026-04-23T08:09:21.023Z</time></trkpt><trkpt lat="45.74791" lon="11.3964917"><ele>589.0</ele><time>2026-04-23T08:09:23.023Z</time></trkpt><trkpt lat="45.7478433" lon="11.396465"><ele>589.0</ele><time>2026-04-23T08:09:24.023Z</time></trkpt><trkpt lat="45.747655" lon="11.396395"><ele>589.0</ele><time>2026-04-23T08:09:26.023Z</time></trkpt><trkpt lat="45.7475733" lon="11.3963617"><ele>589.0</ele><time>2026-04-23T08:09:27.024Z</time></trkpt><trkpt lat="45.7474483" lon="11.3963783"><ele>582.8333333333334</ele><time>2026-04-23T08:09:28.023Z</time></trkpt><trkpt lat="45.7473383" lon="11.3964367"><ele>576.6666666666667</ele><time>2026-04-23T08:09:29.023Z</time></trkpt><trkpt lat="45.7472633" lon="11.3964883"><ele>570.5</ele><time>2026-04-23T08:09:30.023Z</time></trkpt><trkpt lat="45.7472017" lon="11.3965167"><ele>564.3333333333334</ele><time>2026-04-23T08:09:31.023Z</time></trkpt><trkpt lat="45.7471333" lon="11.3965383"><ele>558.1666666666666</ele><time>2026-04-23T08:09:32.023Z</time></trkpt><trkpt lat="45.7470667" lon="11.3965333"><ele>552.0</ele><time>2026-04-23T08:09:33.023Z</time></trkpt><trkpt lat="45.7469683" lon="11.3964467"><ele>552.0</ele><time>2026-04-23T08:09:35.023Z</time></trkpt><trkpt lat="45.746925" lon="11.3963583"><ele>552.0</ele><time>2026-04-23T08:09:36.023Z</time></trkpt><trkpt lat="45.7468783" lon="11.3962617"><ele>552.0</ele><time>2026-04-23T08:09:37.023Z</time></trkpt><trkpt lat="45.7468183" lon="11.39618"><ele>552.0</ele><time>2026-04-23T08:09:38.023Z</time></trkpt><trkpt lat="45.74672" lon="11.396065"><ele>552.0</ele><time>2026-04-23T08:09:40.023Z</time></trkpt><trkpt lat="45.7466383" lon="11.395935"><ele>553.2</ele><time>2026-04-23T08:09:42.023Z</time></trkpt><trkpt lat="45.7466133" lon="11.3958483"><ele>554.4000000000001</ele><time>2026-04-23T08:09:43.023Z</time></trkpt><trkpt lat="45.746595" lon="11.3956867"><ele>555.5999999999999</ele><time>2026-04-23T08:09:45.024Z</time></trkpt><trkpt lat="45.7466283" lon="11.3954917"><ele>556.8</ele><time>2026-04-23T08:09:47.023Z</time></trkpt><trkpt lat="45.7466333" lon="11.3953267"><ele>558.0</ele><time>2026-04-23T08:09:49.023Z</time></trkpt><trkpt lat="45.74662" lon="11.3952217"><ele>560.8333333333334</ele><time>2026-04-23T08:09:50.023Z</time></trkpt><trkpt lat="45.7466067" lon="11.3951083"><ele>563.6666666666666</ele><time>2026-04-23T08:09:51.023Z</time></trkpt><trkpt lat="45.7465967" lon="11.394985"><ele>566.5</ele><time>2026-04-23T08:09:52.023Z</time></trkpt><trkpt lat="45.7465683" lon="11.3948567"><ele>569.3333333333333</ele><time>2026-04-23T08:09:53.023Z</time></trkpt><trkpt lat="45.7465483" lon="11.394735"><ele>572.1666666666666</ele><time>2026-04-23T08:09:54.023Z</time></trkpt><trkpt lat="45.7465317" lon="11.3946167"><ele>575.0</ele><time>2026-04-23T08:09:55.023Z</time></trkpt><trkpt lat="45.7465267" lon="11.39452"><ele>576.3333333333333</ele><time>2026-04-23T08:09:56.023Z</time></trkpt><trkpt lat="45.746515" lon="11.3944267"><ele>577.6666666666666</ele><time>2026-04-23T08:09:57.023Z</time></trkpt><trkpt lat="45.7464967" lon="11.39433"><ele>579.0</ele><time>2026-04-23T08:09:58.023Z</time></trkpt><trkpt lat="45.7464733" lon="11.3942333"><ele>580.3333333333334</ele><time>2026-04-23T08:09:59.023Z</time></trkpt><trkpt lat="45.7464367" lon="11.3941283"><ele>581.6666666666667</ele><time>2026-04-23T08:10:00.023Z</time></trkpt><trkpt lat="45.7464033" lon="11.3940217"><ele>583.0</ele><time>2026-04-23T08:10:01.023Z</time></trkpt><trkpt lat="45.7463683" lon="11.3939117"><ele>584.6666666666667</ele><time>2026-04-23T08:10:02.023Z</time></trkpt><trkpt lat="45.7463283" lon="11.3938183"><ele>586.3333333333334</ele><time>2026-04-23T08:10:03.023Z</time></trkpt><trkpt lat="45.7462983" lon="11.393735"><ele>588.0</ele><time>2026-04-23T08:10:04.023Z</time></trkpt><trkpt lat="45.74625" lon="11.393655"><ele>589.6666666666666</ele><time>2026-04-23T08:10:05.023Z</time></trkpt><trkpt lat="45.7462083" lon="11.3935767"><ele>591.3333333333333</ele><time>2026-04-23T08:10:06.023Z</time></trkpt><trkpt lat="45.7461333" lon="11.3934167"><ele>593.0</ele><time>2026-04-23T08:10:08.023Z</time></trkpt><trkpt lat="45.7460983" lon="11.393325"><ele>593.0</ele><time>2026-04-23T08:10:09.023Z</time></trkpt><trkpt lat="45.7460667" lon="11.3932383"><ele>593.0</ele><time>2026-04-23T08:10:10.023Z</time></trkpt><trkpt lat="45.7460217" lon="11.3931517"><ele>593.0</ele><time>2026-04-23T08:10:11.023Z</time></trkpt><trkpt lat="45.7459683" lon="11.3930617"><ele>593.0</ele><time>2026-04-23T08:10:12.023Z</time></trkpt><trkpt lat="45.7459083" lon="11.3929783"><ele>593.0</ele><time>2026-04-23T08:10:13.023Z</time></trkpt><trkpt lat="45.7458517" lon="11.39289"><ele>593.0</ele><time>2026-04-23T08:10:14.023Z</time></trkpt><trkpt lat="45.745805" lon="11.3927967"><ele>591.1428571428571</ele><time>2026-04-23T08:10:15.023Z</time></trkpt><trkpt lat="45.7457633" lon="11.3926983"><ele>589.2857142857142</ele><time>2026-04-23T08:10:16.023Z</time></trkpt><trkpt lat="45.7457233" lon="11.39261"><ele>587.4285714285714</ele><time>2026-04-23T08:10:17.023Z</time></trkpt><trkpt lat="45.7456883" lon="11.392525"><ele>585.5714285714286</ele><time>2026-04-23T08:10:18.023Z</time></trkpt><trkpt lat="45.74566" lon="11.39244"><ele>583.7142857142858</ele><time>2026-04-23T08:10:19.023Z</time></trkpt><trkpt lat="45.74564" lon="11.3923517"><ele>581.8571428571429</ele><time>2026-04-23T08:10:20.023Z</time></trkpt><trkpt lat="45.7456183" lon="11.39226"><ele>580.0</ele><time>2026-04-23T08:10:21.023Z</time></trkpt><trkpt lat="45.74554" lon="11.3920883"><ele>580.0</ele><time>2026-04-23T08:10:23.023Z</time></trkpt><trkpt lat="45.745475" lon="11.3919883"><ele>580.0</ele><time>2026-04-23T08:10:24.023Z</time></trkpt><trkpt lat="45.7454033" lon="11.3918867"><ele>580.0</ele><time>2026-04-23T08:10:25.024Z</time></trkpt><trkpt lat="45.7453283" lon="11.3918"><ele>580.0</ele><time>2026-04-23T08:10:26.023Z</time></trkpt><trkpt lat="45.7452683" lon="11.3917317"><ele>580.0</ele><time>2026-04-23T08:10:27.023Z</time></trkpt><trkpt lat="45.7451433" lon="11.39154"><ele>573.0</ele><time>2026-04-23T08:10:30.023Z</time></trkpt><trkpt lat="45.7450983" lon="11.3914533"><ele>566.0</ele><time>2026-04-23T08:10:31.024Z</time></trkpt><trkpt lat="45.7450583" lon="11.3913667"><ele>559.0</ele><time>2026-04-23T08:10:32.023Z</time></trkpt><trkpt lat="45.7450183" lon="11.3912217"><ele>552.0</ele><time>2026-04-23T08:10:34.024Z</time></trkpt><trkpt lat="45.74505" lon="11.39107"><ele>545.0</ele><time>2026-04-23T08:10:36.023Z</time></trkpt><trkpt lat="45.74508" lon="11.3909133"><ele>545.0</ele><time>2026-04-23T08:10:38.023Z</time></trkpt><trkpt lat="45.74505" lon="11.3907933"><ele>545.0</ele><time>2026-04-23T08:10:40.023Z</time></trkpt><trkpt lat="45.744925" lon="11.390725"><ele>545.0</ele><time>2026-04-23T08:10:42.023Z</time></trkpt><trkpt lat="45.7448467" lon="11.3906767"><ele>545.0</ele><time>2026-04-23T08:10:43.024Z</time></trkpt><trkpt lat="45.744775" lon="11.3906217"><ele>545.0</ele><time>2026-04-23T08:10:44.023Z</time></trkpt><trkpt lat="45.7447133" lon="11.3905683"><ele>545.0</ele><time>2026-04-23T08:10:45.023Z</time></trkpt><trkpt lat="45.7446583" lon="11.3905217"><ele>545.0</ele><time>2026-04-23T08:10:46.023Z</time></trkpt><trkpt lat="45.74457" lon="11.3904017"><ele>545.0</ele><time>2026-04-23T08:10:48.023Z</time></trkpt><trkpt lat="45.7444533" lon="11.3902167"><ele>545.0</ele><time>2026-04-23T08:10:51.023Z</time></trkpt><trkpt lat="45.744415" lon="11.3901333"><ele>545.0</ele><time>2026-04-23T08:10:53.023Z</time></trkpt><trkpt lat="45.744365" lon="11.390065"><ele>545.0</ele><time>2026-04-23T08:10:56.023Z</time></trkpt><trkpt lat="45.7442833" lon="11.390005"><ele>545.0</ele><time>2026-04-23T08:12:03.022Z</time></trkpt><trkpt lat="45.7442" lon="11.3898017"><ele>545.0</ele><time>2026-04-23T08:12:06.022Z</time></trkpt><trkpt lat="45.7441767" lon="11.3896867"><ele>545.0</ele><time>2026-04-23T08:12:07.022Z</time></trkpt><trkpt lat="45.744155" lon="11.38955"><ele>545.0</ele><time>2026-04-23T08:12:08.022Z</time></trkpt><trkpt lat="45.74413" lon="11.3893917"><ele>545.0</ele><time>2026-04-23T08:12:09.023Z</time></trkpt><trkpt lat="45.7441017" lon="11.3892283"><ele>545.0</ele><time>2026-04-23T08:12:10.022Z</time></trkpt><trkpt lat="45.7440683" lon="11.3890817"><ele>545.0</ele><time>2026-04-23T08:12:11.023Z</time></trkpt><trkpt lat="45.7440367" lon="11.3889417"><ele>545.0</ele><time>2026-04-23T08:12:12.023Z</time></trkpt><trkpt lat="45.744005" lon="11.388805"><ele>545.0</ele><time>2026-04-23T08:12:13.022Z</time></trkpt><trkpt lat="45.7439683" lon="11.3886683"><ele>549.8</ele><time>2026-04-23T08:12:14.022Z</time></trkpt><trkpt lat="45.74394" lon="11.3885367"><ele>554.6</ele><time>2026-04-23T08:12:15.023Z</time></trkpt><trkpt lat="45.7438933" lon="11.3884033"><ele>559.4</ele><time>2026-04-23T08:12:16.023Z</time></trkpt><trkpt lat="45.7438483" lon="11.3882833"><ele>564.2</ele><time>2026-04-23T08:12:17.023Z</time></trkpt><trkpt lat="45.7438" lon="11.3881617"><ele>569.0</ele><time>2026-04-23T08:12:18.022Z</time></trkpt><trkpt lat="45.7437417" lon="11.388045"><ele>565.8333333333333</ele><time>2026-04-23T08:12:19.022Z</time></trkpt><trkpt lat="45.7436833" lon="11.3879383"><ele>562.6666666666666</ele><time>2026-04-23T08:12:20.022Z</time></trkpt><trkpt lat="45.74362" lon="11.3878267"><ele>559.5</ele><time>2026-04-23T08:12:21.022Z</time></trkpt><trkpt lat="45.7435667" lon="11.3877367"><ele>556.3333333333334</ele><time>2026-04-23T08:12:22.022Z</time></trkpt><trkpt lat="45.7435183" lon="11.3876567"><ele>553.1666666666667</ele><time>2026-04-23T08:12:23.022Z</time></trkpt><trkpt lat="45.7434683" lon="11.3876"><ele>550.0</ele><time>2026-04-23T08:12:24.022Z</time></trkpt><trkpt lat="45.7434633" lon="11.3874367"><ele>550.0</ele><time>2026-04-23T08:12:30.022Z</time></trkpt><trkpt lat="45.7435167" lon="11.3875167"><ele>550.0</ele><time>2026-04-23T08:12:33.022Z</time></trkpt><trkpt lat="45.7435667" lon="11.3876117"><ele>550.0</ele><time>2026-04-23T08:12:35.023Z</time></trkpt><trkpt lat="45.7436633" lon="11.3877017"><ele>550.0</ele><time>2026-04-23T08:12:37.022Z</time></trkpt><trkpt lat="45.7437317" lon="11.3877517"><ele>550.0</ele><time>2026-04-23T08:12:38.022Z</time></trkpt><trkpt lat="45.7438133" lon="11.387805"><ele>550.0</ele><time>2026-04-23T08:12:39.022Z</time></trkpt><trkpt lat="45.7439067" lon="11.3878617"><ele>553.1666666666667</ele><time>2026-04-23T08:12:40.022Z</time></trkpt><trkpt lat="45.7439967" lon="11.3879233"><ele>556.3333333333334</ele><time>2026-04-23T08:12:41.022Z</time></trkpt><trkpt lat="45.7440783" lon="11.38798"><ele>559.5</ele><time>2026-04-23T08:12:42.022Z</time></trkpt><trkpt lat="45.744155" lon="11.3880417"><ele>562.6666666666666</ele><time>2026-04-23T08:12:43.022Z</time></trkpt><trkpt lat="45.744225" lon="11.3880933"><ele>565.8333333333333</ele><time>2026-04-23T08:12:44.023Z</time></trkpt><trkpt lat="45.7443" lon="11.388155"><ele>569.0</ele><time>2026-04-23T08:12:45.022Z</time></trkpt><trkpt lat="45.744435" lon="11.3882567"><ele>576.6666666666666</ele><time>2026-04-23T08:12:47.022Z</time></trkpt><trkpt lat="45.7445033" lon="11.3883017"><ele>584.3333333333333</ele><time>2026-04-23T08:12:48.022Z</time></trkpt><trkpt lat="45.7445633" lon="11.3883483"><ele>592.0</ele><time>2026-04-23T08:12:49.022Z</time></trkpt><trkpt lat="45.7446233" lon="11.38841"><ele>599.6666666666666</ele><time>2026-04-23T08:12:50.022Z</time></trkpt><trkpt lat="45.74469" lon="11.38849"><ele>607.3333333333334</ele><time>2026-04-23T08:12:51.022Z</time></trkpt><trkpt lat="45.744745" lon="11.3885717"><ele>615.0</ele><time>2026-04-23T08:12:52.022Z</time></trkpt><trkpt lat="45.7448033" lon="11.3886683"><ele>615.0</ele><time>2026-04-23T08:12:53.023Z</time></trkpt><trkpt lat="45.7448683" lon="11.388755"><ele>615.0</ele><time>2026-04-23T08:12:54.023Z</time></trkpt><trkpt lat="45.7449467" lon="11.3888333"><ele>615.0</ele><time>2026-04-23T08:12:55.022Z</time></trkpt><trkpt lat="45.745015" lon="11.3889"><ele>615.0</ele><time>2026-04-23T08:12:56.022Z</time></trkpt><trkpt lat="45.7451017" lon="11.3889783"><ele>615.0</ele><time>2026-04-23T08:12:57.023Z</time></trkpt><trkpt lat="45.7451667" lon="11.389045"><ele>615.0</ele><time>2026-04-23T08:12:58.022Z</time></trkpt><trkpt lat="45.74523" lon="11.3891133"><ele>617.8333333333334</ele><time>2026-04-23T08:12:59.022Z</time></trkpt><trkpt lat="45.74529" lon="11.38918"><ele>620.6666666666666</ele><time>2026-04-23T08:13:00.022Z</time></trkpt><trkpt lat="45.74535" lon="11.3892483"><ele>623.5</ele><time>2026-04-23T08:13:01.022Z</time></trkpt><trkpt lat="45.745405" lon="11.3893267"><ele>626.3333333333333</ele><time>2026-04-23T08:13:02.023Z</time></trkpt><trkpt lat="45.745465" lon="11.389405"><ele>629.1666666666666</ele><time>2026-04-23T08:13:03.022Z</time></trkpt><trkpt lat="45.7455283" lon="11.389485"><ele>632.0</ele><time>2026-04-23T08:13:04.022Z</time></trkpt><trkpt lat="45.7455917" lon="11.3895483"><ele>632.0</ele><time>2026-04-23T08:13:05.023Z</time></trkpt><trkpt lat="45.7456767" lon="11.389615"><ele>632.0</ele><time>2026-04-23T08:13:07.022Z</time></trkpt><trkpt lat="45.745605" lon="11.3893817"><ele>632.0</ele><time>2026-04-23T08:13:15.022Z</time></trkpt><trkpt lat="45.7455767" lon="11.3892967"><ele>632.0</ele><time>2026-04-23T08:13:16.023Z</time></trkpt><trkpt lat="45.7455517" lon="11.3891883"><ele>632.0</ele><time>2026-04-23T08:13:17.022Z</time></trkpt><trkpt lat="45.74552" lon="11.3890683"><ele>632.0</ele><time>2026-04-23T08:13:18.023Z</time></trkpt><trkpt lat="45.7454867" lon="11.3889433"><ele>632.0</ele><time>2026-04-23T08:13:19.022Z</time></trkpt><trkpt lat="45.7454533" lon="11.3888267"><ele>632.0</ele><time>2026-04-23T08:13:20.022Z</time></trkpt><trkpt lat="45.7454217" lon="11.3887067"><ele>632.0</ele><time>2026-04-23T08:13:21.022Z</time></trkpt><trkpt lat="45.7453967" lon="11.3885867"><ele>632.0</ele><time>2026-04-23T08:13:22.023Z</time></trkpt><trkpt lat="45.7453633" lon="11.3884633"><ele>633.6</ele><time>2026-04-23T08:13:23.022Z</time></trkpt><trkpt lat="45.7453333" lon="11.388345"><ele>635.2</ele><time>2026-04-23T08:13:24.022Z</time></trkpt><trkpt lat="45.7453" lon="11.3882133"><ele>636.8</ele><time>2026-04-23T08:13:25.022Z</time></trkpt><trkpt lat="45.7452617" lon="11.3880933"><ele>638.4</ele><time>2026-04-23T08:13:26.022Z</time></trkpt><trkpt lat="45.7452217" lon="11.3879833"><ele>640.0</ele><time>2026-04-23T08:13:27.022Z</time></trkpt><trkpt lat="45.7451767" lon="11.387875"><ele>640.0</ele><time>2026-04-23T08:13:28.023Z</time></trkpt><trkpt lat="45.7450883" lon="11.3876933"><ele>640.0</ele><time>2026-04-23T08:13:30.022Z</time></trkpt><trkpt lat="45.7450333" lon="11.3876033"><ele>640.0</ele><time>2026-04-23T08:13:31.022Z</time></trkpt><trkpt lat="45.74497" lon="11.3875"><ele>640.0</ele><time>2026-04-23T08:13:32.022Z</time></trkpt><trkpt lat="45.7449017" lon="11.3874"><ele>640.0</ele><time>2026-04-23T08:13:33.022Z</time></trkpt><trkpt lat="45.7448367" lon="11.3872983"><ele>640.0</ele><time>2026-04-23T08:13:34.023Z</time></trkpt><trkpt lat="45.7447817" lon="11.3872"><ele>640.0</ele><time>2026-04-23T08:13:35.022Z</time></trkpt><trkpt lat="45.7447317" lon="11.3871167"><ele>640.0</ele><time>2026-04-23T08:13:36.023Z</time></trkpt><trkpt lat="45.744685" lon="11.3870483"><ele>640.0</ele><time>2026-04-23T08:13:37.022Z</time></trkpt><trkpt lat="45.7446333" lon="11.3869767"><ele>640.0</ele><time>2026-04-23T08:13:39.022Z</time></trkpt><trkpt lat="45.744705" lon="11.38697"><ele>640.0</ele><time>2026-04-23T08:13:44.022Z</time></trkpt><trkpt lat="45.7447783" lon="11.3870467"><ele>640.0</ele><time>2026-04-23T08:13:46.022Z</time></trkpt><trkpt lat="45.744855" lon="11.38711"><ele>640.0</ele><time>2026-04-23T08:13:48.022Z</time></trkpt><trkpt lat="45.7449567" lon="11.3871717"><ele>640.0</ele><time>2026-04-23T08:13:50.022Z</time></trkpt><trkpt lat="45.745085" lon="11.3872583"><ele>640.0</ele><time>2026-04-23T08:13:52.023Z</time></trkpt><trkpt lat="45.74516" lon="11.3873083"><ele>640.0</ele><time>2026-04-23T08:13:53.022Z</time></trkpt><trkpt lat="45.7452383" lon="11.38736"><ele>648.2</ele><time>2026-04-23T08:13:54.022Z</time></trkpt><trkpt lat="45.7453183" lon="11.3874083"><ele>656.4</ele><time>2026-04-23T08:13:55.022Z</time></trkpt><trkpt lat="45.7454017" lon="11.3874567"><ele>664.5999999999999</ele><time>2026-04-23T08:13:56.022Z</time></trkpt><trkpt lat="45.745495" lon="11.387515"><ele>672.8</ele><time>2026-04-23T08:13:57.022Z</time></trkpt><trkpt lat="45.74559" lon="11.3875667"><ele>681.0</ele><time>2026-04-23T08:13:58.022Z</time></trkpt><trkpt lat="45.7456733" lon="11.38761"><ele>681.0</ele><time>2026-04-23T08:13:59.023Z</time></trkpt><trkpt lat="45.74575" lon="11.3876633"><ele>681.0</ele><time>2026-04-23T08:14:00.022Z</time></trkpt><trkpt lat="45.7458133" lon="11.3877333"><ele>681.0</ele><time>2026-04-23T08:14:01.022Z</time></trkpt><trkpt lat="45.7458767" lon="11.38782"><ele>681.0</ele><time>2026-04-23T08:14:02.022Z</time></trkpt><trkpt lat="45.7459483" lon="11.387915"><ele>681.0</ele><time>2026-04-23T08:14:03.022Z</time></trkpt><trkpt lat="45.74602" lon="11.3880217"><ele>683.5999999999999</ele><time>2026-04-23T08:14:04.022Z</time></trkpt><trkpt lat="45.7460917" lon="11.3881233"><ele>686.2</ele><time>2026-04-23T08:14:05.022Z</time></trkpt><trkpt lat="45.7461633" lon="11.3882167"><ele>688.8</ele><time>2026-04-23T08:14:06.022Z</time></trkpt><trkpt lat="45.7462383" lon="11.3883067"><ele>691.4000000000001</ele><time>2026-04-23T08:14:07.023Z</time></trkpt><trkpt lat="45.7463133" lon="11.3883933"><ele>694.0</ele><time>2026-04-23T08:14:08.022Z</time></trkpt><trkpt lat="45.7463783" lon="11.3884683"><ele>694.0</ele><time>2026-04-23T08:14:09.022Z</time></trkpt><trkpt lat="45.7464283" lon="11.388525"><ele>694.0</ele><time>2026-04-23T08:14:10.022Z</time></trkpt><trkpt lat="45.7464867" lon="11.3885667"><ele>694.0</ele><time>2026-04-23T08:14:11.023Z</time></trkpt><trkpt lat="45.7465533" lon="11.3885183"><ele>694.0</ele><time>2026-04-23T08:14:20.022Z</time></trkpt><trkpt lat="45.746485" lon="11.38845"><ele>694.0</ele><time>2026-04-23T08:14:22.023Z</time></trkpt><trkpt lat="45.7464383" lon="11.3883033"><ele>694.0</ele><time>2026-04-23T08:14:24.022Z</time></trkpt><trkpt lat="45.7463967" lon="11.3881367"><ele>694.0</ele><time>2026-04-23T08:14:26.023Z</time></trkpt><trkpt lat="45.7463783" lon="11.38804"><ele>694.0</ele><time>2026-04-23T08:14:27.023Z</time></trkpt><trkpt lat="45.7463533" lon="11.3879483"><ele>694.0</ele><time>2026-04-23T08:14:28.022Z</time></trkpt><trkpt lat="45.74633" lon="11.3877633"><ele>694.0</ele><time>2026-04-23T08:14:30.022Z</time></trkpt><trkpt lat="45.7463167" lon="11.3876433"><ele>694.0</ele><time>2026-04-23T08:14:31.023Z</time></trkpt><trkpt lat="45.7462967" lon="11.3875167"><ele>694.0</ele><time>2026-04-23T08:14:32.022Z</time></trkpt><trkpt lat="45.746215" lon="11.3872567"><ele>695.6</ele><time>2026-04-23T08:14:34.023Z</time></trkpt><trkpt lat="45.7461617" lon="11.3871283"><ele>697.2</ele><time>2026-04-23T08:14:35.022Z</time></trkpt><trkpt lat="45.746105" lon="11.3869967"><ele>698.8000000000001</ele><time>2026-04-23T08:14:36.022Z</time></trkpt><trkpt lat="45.7460517" lon="11.38688"><ele>700.4000000000001</ele><time>2026-04-23T08:14:37.022Z</time></trkpt><trkpt lat="45.746015" lon="11.3867633"><ele>702.0</ele><time>2026-04-23T08:14:38.022Z</time></trkpt><trkpt lat="45.74597" lon="11.38666"><ele>702.0</ele><time>2026-04-23T08:14:39.022Z</time></trkpt><trkpt lat="45.7459283" lon="11.3865817"><ele>702.0</ele><time>2026-04-23T08:14:40.022Z</time></trkpt><trkpt lat="45.7458817" lon="11.386505"><ele>702.0</ele><time>2026-04-23T08:14:42.022Z</time></trkpt><trkpt lat="45.74592" lon="11.386405"><ele>702.0</ele><time>2026-04-23T08:14:45.022Z</time></trkpt><trkpt lat="45.746" lon="11.38649"><ele>702.0</ele><time>2026-04-23T08:14:48.023Z</time></trkpt><trkpt lat="45.74607" lon="11.386605"><ele>702.0</ele><time>2026-04-23T08:14:50.022Z</time></trkpt><trkpt lat="45.7461683" lon="11.38674"><ele>711.75</ele><time>2026-04-23T08:14:52.022Z</time></trkpt><trkpt lat="45.7462383" lon="11.3868133"><ele>721.5</ele><time>2026-04-23T08:14:53.022Z</time></trkpt><trkpt lat="45.7464067" lon="11.3869667"><ele>731.25</ele><time>2026-04-23T08:14:55.022Z</time></trkpt><trkpt lat="45.7464933" lon="11.387055"><ele>741.0</ele><time>2026-04-23T08:14:56.022Z</time></trkpt><trkpt lat="45.74657" lon="11.387145"><ele>742.8333333333334</ele><time>2026-04-23T08:14:57.022Z</time></trkpt><trkpt lat="45.7466517" lon="11.3872383"><ele>744.6666666666666</ele><time>2026-04-23T08:14:58.022Z</time></trkpt><trkpt lat="45.7467283" lon="11.38731"><ele>746.5</ele><time>2026-04-23T08:14:59.022Z</time></trkpt><trkpt lat="45.7468033" lon="11.3873633"><ele>748.3333333333333</ele><time>2026-04-23T08:15:00.022Z</time></trkpt><trkpt lat="45.74688" lon="11.3874017"><ele>750.1666666666666</ele><time>2026-04-23T08:15:01.023Z</time></trkpt><trkpt lat="45.7469617" lon="11.3874383"><ele>752.0</ele><time>2026-04-23T08:15:02.022Z</time></trkpt><trkpt lat="45.7470467" lon="11.3874733"><ele>752.0</ele><time>2026-04-23T08:15:03.022Z</time></trkpt><trkpt lat="45.7471133" lon="11.3874933"><ele>752.0</ele><time>2026-04-23T08:15:04.022Z</time></trkpt><trkpt lat="45.7471867" lon="11.387515"><ele>752.0</ele><time>2026-04-23T08:15:06.022Z</time></trkpt><trkpt lat="45.7471917" lon="11.38742"><ele>752.0</ele><time>2026-04-23T08:15:09.022Z</time></trkpt><trkpt lat="45.7471133" lon="11.387355"><ele>752.0</ele><time>2026-04-23T08:15:11.022Z</time></trkpt><trkpt lat="45.7470617" lon="11.3873033"><ele>752.0</ele><time>2026-04-23T08:15:12.023Z</time></trkpt><trkpt lat="45.7470167" lon="11.38723"><ele>752.0</ele><time>2026-04-23T08:15:13.022Z</time></trkpt><trkpt lat="45.746965" lon="11.3871333"><ele>749.8</ele><time>2026-04-23T08:15:14.022Z</time></trkpt><trkpt lat="45.7468583" lon="11.3869083"><ele>747.6</ele><time>2026-04-23T08:15:16.022Z</time></trkpt><trkpt lat="45.7468133" lon="11.3868033"><ele>745.4</ele><time>2026-04-23T08:15:17.023Z</time></trkpt><trkpt lat="45.7467783" lon="11.3867183"><ele>743.1999999999999</ele><time>2026-04-23T08:15:18.023Z</time></trkpt><trkpt lat="45.74674" lon="11.3866117"><ele>741.0</ele><time>2026-04-23T08:15:20.022Z</time></trkpt><trkpt lat="45.746795" lon="11.3865633"><ele>741.0</ele><time>2026-04-23T08:15:24.022Z</time></trkpt><trkpt lat="45.7468367" lon="11.386645"><ele>741.0</ele><time>2026-04-23T08:15:26.022Z</time></trkpt><trkpt lat="45.7469067" lon="11.3867217"><ele>741.0</ele><time>2026-04-23T08:15:28.023Z</time></trkpt><trkpt lat="45.7469917" lon="11.3867633"><ele>741.0</ele><time>2026-04-23T08:15:31.022Z</time></trkpt><trkpt lat="45.7470617" lon="11.3867933"><ele>741.0</ele><time>2026-04-23T08:15:33.022Z</time></trkpt><trkpt lat="45.7471517" lon="11.3868317"><ele>741.0</ele><time>2026-04-23T08:15:35.022Z</time></trkpt><trkpt lat="45.747335" lon="11.3868933"><ele>746.5</ele><time>2026-04-23T08:15:38.022Z</time></trkpt><trkpt lat="45.7474233" lon="11.3869383"><ele>752.0</ele><time>2026-04-23T08:15:39.022Z</time></trkpt><trkpt lat="45.7475167" lon="11.3869883"><ele>757.5</ele><time>2026-04-23T08:15:40.022Z</time></trkpt><trkpt lat="45.7475933" lon="11.3870233"><ele>763.0</ele><time>2026-04-23T08:15:41.022Z</time></trkpt><trkpt lat="45.7476567" lon="11.387045"><ele>768.5</ele><time>2026-04-23T08:15:42.022Z</time></trkpt><trkpt lat="45.7477367" lon="11.3870817"><ele>774.0</ele><time>2026-04-23T08:15:44.022Z</time></trkpt><trkpt lat="45.74772" lon="11.3869667"><ele>774.0</ele><time>2026-04-23T08:15:50.021Z</time></trkpt><trkpt lat="45.74764" lon="11.3868767"><ele>774.0</ele><time>2026-04-23T08:15:52.021Z</time></trkpt><trkpt lat="45.7475767" lon="11.38676"><ele>774.0</ele><time>2026-04-23T08:15:54.021Z</time></trkpt><trkpt lat="45.7475183" lon="11.386635"><ele>774.0</ele><time>2026-04-23T08:15:56.021Z</time></trkpt><trkpt lat="45.7474633" lon="11.38641"><ele>770.0</ele><time>2026-04-23T08:16:00.021Z</time></trkpt><trkpt lat="45.7476017" lon="11.3863033"><ele>766.0</ele><time>2026-04-23T08:19:07.021Z</time></trkpt><trkpt lat="45.747885" lon="11.38631"><ele>762.0</ele><time>2026-04-23T08:19:25.021Z</time></trkpt><trkpt lat="45.7480083" lon="11.38634"><ele>772.3333333333333</ele><time>2026-04-23T08:19:27.021Z</time></trkpt><trkpt lat="45.74824" lon="11.386415"><ele>782.6666666666666</ele><time>2026-04-23T08:19:31.021Z</time></trkpt><trkpt lat="45.7483917" lon="11.3864667"><ele>793.0</ele><time>2026-04-23T08:19:34.021Z</time></trkpt><trkpt lat="45.7486267" lon="11.3865567"><ele>797.8</ele><time>2026-04-23T08:19:39.022Z</time></trkpt><trkpt lat="45.7487017" lon="11.3866367"><ele>802.5999999999999</ele><time>2026-04-23T08:19:41.021Z</time></trkpt><trkpt lat="45.7488133" lon="11.3867333"><ele>807.4000000000001</ele><time>2026-04-23T08:19:44.021Z</time></trkpt><trkpt lat="45.7488867" lon="11.3867833"><ele>812.2</ele><time>2026-04-23T08:19:46.021Z</time></trkpt><trkpt lat="45.7490067" lon="11.3868483"><ele>817.0</ele><time>2026-04-23T08:19:49.021Z</time></trkpt><trkpt lat="45.7491333" lon="11.386865"><ele>817.0</ele><time>2026-04-23T08:19:52.021Z</time></trkpt><trkpt lat="45.7492767" lon="11.3867967"><ele>817.0</ele><time>2026-04-23T08:19:56.022Z</time></trkpt><trkpt lat="45.74935" lon="11.3868067"><ele>817.0</ele><time>2026-04-23T08:19:59.021Z</time></trkpt><trkpt lat="45.749355" lon="11.3871267"><ele>817.0</ele><time>2026-04-23T08:20:05.021Z</time></trkpt><trkpt lat="45.7493483" lon="11.3873367"><ele>821.3333333333333</ele><time>2026-04-23T08:20:08.021Z</time></trkpt><trkpt lat="45.7493067" lon="11.3876033"><ele>825.6666666666667</ele><time>2026-04-23T08:20:12.02Z</time></trkpt><trkpt lat="45.7492417" lon="11.387825"><ele>830.0</ele><time>2026-04-23T08:20:15.02Z</time></trkpt><trkpt lat="45.7492083" lon="11.3879667"><ele>830.0</ele><time>2026-04-23T08:20:17.02Z</time></trkpt><trkpt lat="45.7491783" lon="11.3881267"><ele>830.0</ele><time>2026-04-23T08:20:20.02Z</time></trkpt><trkpt lat="45.7492783" lon="11.3880467"><ele>830.0</ele><time>2026-04-23T08:20:26.02Z</time></trkpt><trkpt lat="45.7493517" lon="11.38793"><ele>830.0</ele><time>2026-04-23T08:20:29.02Z</time></trkpt><trkpt lat="45.749445" lon="11.3878083"><ele>844.3333333333334</ele><time>2026-04-23T08:20:32.02Z</time></trkpt><trkpt lat="45.7495983" lon="11.3876067"><ele>858.6666666666667</ele><time>2026-04-23T08:20:36.02Z</time></trkpt><trkpt lat="45.749695" lon="11.3875233"><ele>873.0</ele><time>2026-04-23T08:20:38.02Z</time></trkpt><trkpt lat="45.749825" lon="11.3874083"><ele>873.0</ele><time>2026-04-23T08:20:41.021Z</time></trkpt><trkpt lat="45.7499717" lon="11.38722"><ele>873.0</ele><time>2026-04-23T08:20:45.02Z</time></trkpt><trkpt lat="45.7500733" lon="11.3870317"><ele>873.0</ele><time>2026-04-23T08:20:48.02Z</time></trkpt><trkpt lat="45.7502083" lon="11.3869133"><ele>873.0</ele><time>2026-04-23T08:20:51.02Z</time></trkpt><trkpt lat="45.75029" lon="11.3868467"><ele>873.0</ele><time>2026-04-23T08:20:53.02Z</time></trkpt><trkpt lat="45.7503683" lon="11.38682"><ele>873.0</ele><time>2026-04-23T08:20:56.02Z</time></trkpt><trkpt lat="45.750355" lon="11.3869217"><ele>873.0</ele><time>2026-04-23T08:20:59.021Z</time></trkpt><trkpt lat="45.7501433" lon="11.3873117"><ele>873.0</ele><time>2026-04-23T08:21:06.021Z</time></trkpt><trkpt lat="45.7501183" lon="11.3874767"><ele>873.0</ele><time>2026-04-23T08:21:09.021Z</time></trkpt><trkpt lat="45.7500533" lon="11.3876483"><ele>873.0</ele><time>2026-04-23T08:21:12.02Z</time></trkpt><trkpt lat="45.749995" lon="11.3878383"><ele>873.0</ele><time>2026-04-23T08:21:15.02Z</time></trkpt><trkpt lat="45.74995" lon="11.3880767"><ele>873.75</ele><time>2026-04-23T08:21:18.02Z</time></trkpt><trkpt lat="45.7499183" lon="11.3882767"><ele>874.5</ele><time>2026-04-23T08:21:21.02Z</time></trkpt><trkpt lat="45.7499417" lon="11.3884783"><ele>875.25</ele><time>2026-04-23T08:21:24.02Z</time></trkpt><trkpt lat="45.7500317" lon="11.388645"><ele>876.0</ele><time>2026-04-23T08:21:27.02Z</time></trkpt><trkpt lat="45.750205" lon="11.3889483"><ele>893.6666666666667</ele><time>2026-04-23T08:21:32.02Z</time></trkpt><trkpt lat="45.7503167" lon="11.3891267"><ele>911.3333333333334</ele><time>2026-04-23T08:21:35.02Z</time></trkpt><trkpt lat="45.750425" lon="11.38928"><ele>929.0</ele><time>2026-04-23T08:21:38.02Z</time></trkpt><trkpt lat="45.750545" lon="11.3894167"><ele>929.0</ele><time>2026-04-23T08:21:41.02Z</time></trkpt><trkpt lat="45.7506817" lon="11.3895417"><ele>929.0</ele><time>2026-04-23T08:21:44.02Z</time></trkpt><trkpt lat="45.7508517" lon="11.3896433"><ele>929.0</ele><time>2026-04-23T08:21:48.02Z</time></trkpt><trkpt lat="45.75099" lon="11.389685"><ele>934.0</ele><time>2026-04-23T08:21:51.02Z</time></trkpt><trkpt lat="45.75129" lon="11.3898217"><ele>939.0</ele><time>2026-04-23T08:21:58.02Z</time></trkpt><trkpt lat="45.7514567" lon="11.3899417"><ele>939.0</ele><time>2026-04-23T08:22:02.021Z</time></trkpt><trkpt lat="45.751595" lon="11.3900567"><ele>939.0</ele><time>2026-04-23T08:22:05.02Z</time></trkpt><trkpt lat="45.7517417" lon="11.390135"><ele>939.0</ele><time>2026-04-23T08:22:08.02Z</time></trkpt><trkpt lat="45.7518567" lon="11.3901617"><ele>939.0</ele><time>2026-04-23T08:22:11.02Z</time></trkpt><trkpt lat="45.751825" lon="11.3900817"><ele>939.0</ele><time>2026-04-23T08:22:15.02Z</time></trkpt><trkpt lat="45.7517467" lon="11.3900083"><ele>939.0</ele><time>2026-04-23T08:22:18.021Z</time></trkpt><trkpt lat="45.7516933" lon="11.3899333"><ele>939.0</ele><time>2026-04-23T08:22:20.021Z</time></trkpt><trkpt lat="45.7515967" lon="11.3896117"><ele>939.0</ele><time>2026-04-23T08:22:26.02Z</time></trkpt><trkpt lat="45.7515217" lon="11.3894233"><ele>945.0</ele><time>2026-04-23T08:22:29.02Z</time></trkpt><trkpt lat="45.7514433" lon="11.3892583"><ele>951.0</ele><time>2026-04-23T08:22:32.021Z</time></trkpt><trkpt lat="45.7513467" lon="11.3890717"><ele>957.0</ele><time>2026-04-23T08:22:35.02Z</time></trkpt><trkpt lat="45.751275" lon="11.388955"><ele>963.0</ele><time>2026-04-23T08:22:37.02Z</time></trkpt><trkpt lat="45.75122" lon="11.3888467"><ele>963.0</ele><time>2026-04-23T08:22:40.02Z</time></trkpt><trkpt lat="45.7513333" lon="11.388955"><ele>963.0</ele><time>2026-04-23T08:22:46.02Z</time></trkpt><trkpt lat="45.7514417" lon="11.3890233"><ele>963.0</ele><time>2026-04-23T08:22:49.02Z</time></trkpt><trkpt lat="45.7516133" lon="11.3891383"><ele>963.0</ele><time>2026-04-23T08:22:53.02Z</time></trkpt><trkpt lat="45.7519" lon="11.38938"><ele>970.0</ele><time>2026-04-23T08:23:00.02Z</time></trkpt><trkpt lat="45.752035" lon="11.3894167"><ele>977.0</ele><time>2026-04-23T08:23:03.02Z</time></trkpt><trkpt lat="45.7521767" lon="11.3894267"><ele>984.0</ele><time>2026-04-23T08:23:06.021Z</time></trkpt><trkpt lat="45.7523233" lon="11.3894467"><ele>991.0</ele><time>2026-04-23T08:23:09.02Z</time></trkpt><trkpt lat="45.7525233" lon="11.389455"><ele>991.0</ele><time>2026-04-23T08:23:13.02Z</time></trkpt><trkpt lat="45.7526617" lon="11.3895"><ele>991.0</ele><time>2026-04-23T08:23:16.02Z</time></trkpt><trkpt lat="45.7527767" lon="11.3895867"><ele>991.0</ele><time>2026-04-23T08:23:19.02Z</time></trkpt><trkpt lat="45.7529567" lon="11.3897517"><ele>996.0</ele><time>2026-04-23T08:23:24.021Z</time></trkpt><trkpt lat="45.7530333" lon="11.3898367"><ele>1001.0</ele><time>2026-04-23T08:23:26.02Z</time></trkpt><trkpt lat="45.75317" lon="11.3900317"><ele>1006.0</ele><time>2026-04-23T08:23:30.021Z</time></trkpt><trkpt lat="45.75326" lon="11.3902133"><ele>1011.0</ele><time>2026-04-23T08:23:33.02Z</time></trkpt><trkpt lat="45.7534" lon="11.3904617"><ele>1007.0</ele><time>2026-04-23T08:23:37.02Z</time></trkpt><trkpt lat="45.7534583" lon="11.3905817"><ele>1003.0</ele><time>2026-04-23T08:23:39.021Z</time></trkpt><trkpt lat="45.7536067" lon="11.3906333"><ele>999.0</ele><time>2026-04-23T08:23:43.02Z</time></trkpt><trkpt lat="45.7537433" lon="11.3906433"><ele>995.0</ele><time>2026-04-23T08:23:46.02Z</time></trkpt><trkpt lat="45.7538517" lon="11.3907217"><ele>1003.3333333333334</ele><time>2026-04-23T08:23:49.02Z</time></trkpt><trkpt lat="45.75392" lon="11.39099"><ele>1011.6666666666667</ele><time>2026-04-23T08:23:55.019Z</time></trkpt><trkpt lat="45.7539333" lon="11.3912583"><ele>1020.0</ele><time>2026-04-23T08:23:59.019Z</time></trkpt><trkpt lat="45.7539767" lon="11.3913767"><ele>1022.5</ele><time>2026-04-23T08:24:03.02Z</time></trkpt><trkpt lat="45.754035" lon="11.39112"><ele>1025.0</ele><time>2026-04-23T08:24:08.019Z</time></trkpt><trkpt lat="45.7541067" lon="11.391005"><ele>1027.5</ele><time>2026-04-23T08:24:11.019Z</time></trkpt><trkpt lat="45.7541617" lon="11.390915"><ele>1030.0</ele><time>2026-04-23T08:24:13.019Z</time></trkpt><trkpt lat="45.7543233" lon="11.39066"><ele>1048.0</ele><time>2026-04-23T08:24:17.019Z</time></trkpt><trkpt lat="45.7543867" lon="11.3905767"><ele>1066.0</ele><time>2026-04-23T08:24:19.019Z</time></trkpt><trkpt lat="45.7544567" lon="11.3899783"><ele>1066.0</ele><time>2026-04-23T08:24:27.019Z</time></trkpt><trkpt lat="45.7544317" lon="11.3898367"><ele>1066.0</ele><time>2026-04-23T08:24:29.02Z</time></trkpt><trkpt lat="45.754315" lon="11.389695"><ele>1066.0</ele><time>2026-04-23T08:24:32.019Z</time></trkpt><trkpt lat="45.75426" lon="11.3896"><ele>1066.0</ele><time>2026-04-23T08:24:35.019Z</time></trkpt><trkpt lat="45.7543417" lon="11.3896083"><ele>1066.0</ele><time>2026-04-23T08:25:19.02Z</time></trkpt><trkpt lat="45.754485" lon="11.389645"><ele>1066.0</ele><time>2026-04-23T08:25:22.02Z</time></trkpt><trkpt lat="45.7547333" lon="11.3897367"><ele>1066.0</ele><time>2026-04-23T08:25:27.019Z</time></trkpt><trkpt lat="45.7547817" lon="11.3898433"><ele>1066.0</ele><time>2026-04-23T08:25:29.02Z</time></trkpt><trkpt lat="45.7547983" lon="11.3899917"><ele>1066.0</ele><time>2026-04-23T08:25:31.019Z</time></trkpt><trkpt lat="45.7548033" lon="11.3901583"><ele>1066.0</ele><time>2026-04-23T08:25:33.019Z</time></trkpt><trkpt lat="45.7548183" lon="11.3902467"><ele>1066.0</ele><time>2026-04-23T08:25:34.019Z</time></trkpt><trkpt lat="45.7548733" lon="11.3904933"><ele>1066.0</ele><time>2026-04-23T08:25:36.019Z</time></trkpt><trkpt lat="45.7549317" lon="11.3907033"><ele>1066.2</ele><time>2026-04-23T08:25:38.019Z</time></trkpt><trkpt lat="45.75495" lon="11.39085"><ele>1066.3999999999999</ele><time>2026-04-23T08:25:40.019Z</time></trkpt><trkpt lat="45.75492" lon="11.3909867"><ele>1066.6</ele><time>2026-04-23T08:25:42.019Z</time></trkpt><trkpt lat="45.7548733" lon="11.39114"><ele>1066.8</ele><time>2026-04-23T08:25:44.019Z</time></trkpt><trkpt lat="45.754855" lon="11.3912583"><ele>1067.0</ele><time>2026-04-23T08:25:46.019Z</time></trkpt><trkpt lat="45.75495" lon="11.3916133"><ele>1067.0</ele><time>2026-04-23T08:26:44.02Z</time></trkpt><trkpt lat="45.755115" lon="11.391865"><ele>1067.0</ele><time>2026-04-23T08:26:48.02Z</time></trkpt><trkpt lat="45.7551833" lon="11.391905"><ele>1067.0</ele><time>2026-04-23T08:26:50.019Z</time></trkpt><trkpt lat="45.7553317" lon="11.3918733"><ele>1073.4</ele><time>2026-04-23T08:26:53.019Z</time></trkpt><trkpt lat="45.7554483" lon="11.3918367"><ele>1079.8000000000002</ele><time>2026-04-23T08:26:55.019Z</time></trkpt><trkpt lat="45.7555667" lon="11.3917883"><ele>1086.2</ele><time>2026-04-23T08:26:57.019Z</time></trkpt><trkpt lat="45.755655" lon="11.3917467"><ele>1092.6000000000001</ele><time>2026-04-23T08:26:59.019Z</time></trkpt><trkpt lat="45.75575" lon="11.3917133"><ele>1099.0</ele><time>2026-04-23T08:27:01.019Z</time></trkpt><trkpt lat="45.755895" lon="11.3917117"><ele>1099.0</ele><time>2026-04-23T08:27:04.019Z</time></trkpt><trkpt lat="45.75597" lon="11.3917617"><ele>1099.0</ele><time>2026-04-23T08:27:06.019Z</time></trkpt><trkpt lat="45.75602" lon="11.3918567"><ele>1099.0</ele><time>2026-04-23T08:27:08.019Z</time></trkpt><trkpt lat="45.75612" lon="11.3920583"><ele>1099.0</ele><time>2026-04-23T08:27:11.019Z</time></trkpt><trkpt lat="45.7561967" lon="11.3921833"><ele>1102.5</ele><time>2026-04-23T08:27:13.02Z</time></trkpt><trkpt lat="45.756285" lon="11.3923067"><ele>1106.0</ele><time>2026-04-23T08:27:15.019Z</time></trkpt><trkpt lat="45.7563733" lon="11.3924233"><ele>1109.5</ele><time>2026-04-23T08:27:17.02Z</time></trkpt><trkpt lat="45.7564583" lon="11.392515"><ele>1113.0</ele><time>2026-04-23T08:27:19.019Z</time></trkpt><trkpt lat="45.7565617" lon="11.3925633"><ele>1113.0</ele><time>2026-04-23T08:27:22.019Z</time></trkpt><trkpt lat="45.7566367" lon="11.3925267"><ele>1113.0</ele><time>2026-04-23T08:27:24.019Z</time></trkpt><trkpt lat="45.7568" lon="11.3924183"><ele>1113.0</ele><time>2026-04-23T08:27:27.019Z</time></trkpt><trkpt lat="45.7568733" lon="11.3923917"><ele>1113.0</ele><time>2026-04-23T08:27:29.02Z</time></trkpt><trkpt lat="45.7569517" lon="11.39246"><ele>1113.0</ele><time>2026-04-23T08:27:32.019Z</time></trkpt><trkpt lat="45.75708" lon="11.392585"><ele>1120.2</ele><time>2026-04-23T08:27:36.019Z</time></trkpt><trkpt lat="45.7571267" lon="11.3926567"><ele>1127.4</ele><time>2026-04-23T08:27:38.019Z</time></trkpt><trkpt lat="45.7571817" lon="11.3928367"><ele>1134.6000000000001</ele><time>2026-04-23T08:27:41.018Z</time></trkpt><trkpt lat="45.7572117" lon="11.392965"><ele>1141.8</ele><time>2026-04-23T08:27:43.018Z</time></trkpt><trkpt lat="45.75728" lon="11.3931083"><ele>1149.0</ele><time>2026-04-23T08:27:45.018Z</time></trkpt><trkpt lat="45.75732" lon="11.3932817"><ele>1149.0</ele><time>2026-04-23T08:27:47.019Z</time></trkpt><trkpt lat="45.7573367" lon="11.3934717"><ele>1149.0</ele><time>2026-04-23T08:27:49.018Z</time></trkpt><trkpt lat="45.75734" lon="11.393655"><ele>1149.0</ele><time>2026-04-23T08:27:51.018Z</time></trkpt><trkpt lat="45.7573567" lon="11.3938017"><ele>1149.0</ele><time>2026-04-23T08:27:53.018Z</time></trkpt><trkpt lat="45.7573683" lon="11.3939017"><ele>1149.0</ele><time>2026-04-23T08:27:55.018Z</time></trkpt><trkpt lat="45.7574917" lon="11.3940817"><ele>1145.8</ele><time>2026-04-23T08:27:59.019Z</time></trkpt><trkpt lat="45.75758" lon="11.394155"><ele>1142.6000000000001</ele><time>2026-04-23T08:28:01.018Z</time></trkpt><trkpt lat="45.7576433" lon="11.3942233"><ele>1139.4</ele><time>2026-04-23T08:28:03.018Z</time></trkpt><trkpt lat="45.7576917" lon="11.3943067"><ele>1136.2</ele><time>2026-04-23T08:28:05.018Z</time></trkpt><trkpt lat="45.75774" lon="11.39442"><ele>1133.0</ele><time>2026-04-23T08:28:07.018Z</time></trkpt><trkpt lat="45.757795" lon="11.3945483"><ele>1136.5</ele><time>2026-04-23T08:28:09.019Z</time></trkpt><trkpt lat="45.757845" lon="11.3946567"><ele>1140.0</ele><time>2026-04-23T08:28:11.018Z</time></trkpt><trkpt lat="45.7578667" lon="11.3947533"><ele>1143.5</ele><time>2026-04-23T08:28:13.018Z</time></trkpt><trkpt lat="45.75791" lon="11.39486"><ele>1147.0</ele><time>2026-04-23T08:28:15.018Z</time></trkpt><trkpt lat="45.757985" lon="11.394935"><ele>1150.5</ele><time>2026-04-23T08:28:17.018Z</time></trkpt><trkpt lat="45.75806" lon="11.3949683"><ele>1154.0</ele><time>2026-04-23T08:28:19.018Z</time></trkpt><trkpt lat="45.7581333" lon="11.3949933"><ele>1154.0</ele><time>2026-04-23T08:28:21.018Z</time></trkpt><trkpt lat="45.758335" lon="11.39499"><ele>1154.0</ele><time>2026-04-23T08:28:26.018Z</time></trkpt><trkpt lat="45.7584633" lon="11.3949417"><ele>1154.0</ele><time>2026-04-23T08:28:29.018Z</time></trkpt><trkpt lat="45.7585333" lon="11.3949483"><ele>1154.0</ele><time>2026-04-23T08:28:31.019Z</time></trkpt><trkpt lat="45.75864" lon="11.3948967"><ele>1158.2</ele><time>2026-04-23T08:28:34.018Z</time></trkpt><trkpt lat="45.7587217" lon="11.3947517"><ele>1162.4</ele><time>2026-04-23T08:28:37.018Z</time></trkpt><trkpt lat="45.75879" lon="11.3945867"><ele>1166.6</ele><time>2026-04-23T08:28:40.018Z</time></trkpt><trkpt lat="45.7588283" lon="11.3945067"><ele>1170.8</ele><time>2026-04-23T08:28:42.018Z</time></trkpt><trkpt lat="45.7588933" lon="11.3944417"><ele>1175.0</ele><time>2026-04-23T08:28:45.018Z</time></trkpt><trkpt lat="45.75896" lon="11.3944117"><ele>1176.75</ele><time>2026-04-23T08:28:47.018Z</time></trkpt><trkpt lat="45.75916" lon="11.39437"><ele>1178.5</ele><time>2026-04-23T08:28:52.018Z</time></trkpt><trkpt lat="45.759235" lon="11.3944083"><ele>1180.25</ele><time>2026-04-23T08:28:54.018Z</time></trkpt><trkpt lat="45.7593383" lon="11.3944633"><ele>1182.0</ele><time>2026-04-23T08:28:57.018Z</time></trkpt><trkpt lat="45.7594067" lon="11.3945217"><ele>1185.0</ele><time>2026-04-23T08:28:59.018Z</time></trkpt><trkpt lat="45.7594783" lon="11.3946217"><ele>1188.0</ele><time>2026-04-23T08:29:01.019Z</time></trkpt><trkpt lat="45.75953" lon="11.39474"><ele>1191.0</ele><time>2026-04-23T08:29:03.018Z</time></trkpt><trkpt lat="45.75954" lon="11.3948533"><ele>1194.0</ele><time>2026-04-23T08:29:05.018Z</time></trkpt><trkpt lat="45.7595217" lon="11.39498"><ele>1197.0</ele><time>2026-04-23T08:29:07.018Z</time></trkpt><trkpt lat="45.7594567" lon="11.3951017"><ele>1198.0</ele><time>2026-04-23T08:29:09.018Z</time></trkpt><trkpt lat="45.7594217" lon="11.395195"><ele>1199.0</ele><time>2026-04-23T08:29:11.018Z</time></trkpt><trkpt lat="45.7596233" lon="11.39513"><ele>1200.0</ele><time>2026-04-23T08:29:21.018Z</time></trkpt><trkpt lat="45.75971" lon="11.3950517"><ele>1201.0</ele><time>2026-04-23T08:29:23.018Z</time></trkpt><trkpt lat="45.7597983" lon="11.3949317"><ele>1200.0</ele><time>2026-04-23T08:29:25.018Z</time></trkpt><trkpt lat="45.759885" lon="11.39464"><ele>1199.0</ele><time>2026-04-23T08:29:28.018Z</time></trkpt><trkpt lat="45.7599367" lon="11.3944833"><ele>1198.0</ele><time>2026-04-23T08:29:30.018Z</time></trkpt><trkpt lat="45.7599867" lon="11.3943667"><ele>1197.0</ele><time>2026-04-23T08:29:32.018Z</time></trkpt><trkpt lat="45.7600467" lon="11.3942783"><ele>1197.0</ele><time>2026-04-23T08:29:34.018Z</time></trkpt><trkpt lat="45.7601033" lon="11.3942367"><ele>1197.0</ele><time>2026-04-23T08:29:36.018Z</time></trkpt><trkpt lat="45.7603367" lon="11.39398"><ele>1197.0</ele><time>2026-04-23T08:49:33.012Z</time></trkpt><trkpt lat="45.7603517" lon="11.39385"><ele>1198.0</ele><time>2026-04-23T08:49:35.013Z</time></trkpt><trkpt lat="45.7603083" lon="11.3936667"><ele>1199.0</ele><time>2026-04-23T08:49:37.012Z</time></trkpt><trkpt lat="45.7602733" lon="11.3935817"><ele>1200.0</ele><time>2026-04-23T08:49:38.012Z</time></trkpt><trkpt lat="45.76023" lon="11.393505"><ele>1201.0</ele><time>2026-04-23T08:49:39.013Z</time></trkpt><trkpt lat="45.7601883" lon="11.3934233"><ele>1202.0</ele><time>2026-04-23T08:49:40.012Z</time></trkpt><trkpt lat="45.760135" lon="11.39335"><ele>1203.0</ele><time>2026-04-23T08:49:41.012Z</time></trkpt><trkpt lat="45.7600783" lon="11.3933"><ele>1203.0</ele><time>2026-04-23T08:49:42.012Z</time></trkpt><trkpt lat="45.7599567" lon="11.3932433"><ele>1203.0</ele><time>2026-04-23T08:49:44.012Z</time></trkpt><trkpt lat="45.7598733" lon="11.3932267"><ele>1203.0</ele><time>2026-04-23T08:49:45.012Z</time></trkpt><trkpt lat="45.7597883" lon="11.3932117"><ele>1203.0</ele><time>2026-04-23T08:49:46.013Z</time></trkpt><trkpt lat="45.7596983" lon="11.3931933"><ele>1203.0</ele><time>2026-04-23T08:49:47.012Z</time></trkpt><trkpt lat="45.7596033" lon="11.3931783"><ele>1203.0</ele><time>2026-04-23T08:49:48.012Z</time></trkpt><trkpt lat="45.7595033" lon="11.3931567"><ele>1203.0</ele><time>2026-04-23T08:49:49.012Z</time></trkpt><trkpt lat="45.759395" lon="11.39314"><ele>1203.0</ele><time>2026-04-23T08:49:50.012Z</time></trkpt><trkpt lat="45.7591267" lon="11.3930933"><ele>1204.0</ele><time>2026-04-23T08:49:52.013Z</time></trkpt><trkpt lat="45.75899" lon="11.3930733"><ele>1205.0</ele><time>2026-04-23T08:49:53.012Z</time></trkpt><trkpt lat="45.7588467" lon="11.3930683"><ele>1206.0</ele><time>2026-04-23T08:49:54.012Z</time></trkpt><trkpt lat="45.7587083" lon="11.39304"><ele>1207.0</ele><time>2026-04-23T08:49:55.012Z</time></trkpt><trkpt lat="45.7585717" lon="11.3929983"><ele>1209.8</ele><time>2026-04-23T08:49:56.013Z</time></trkpt><trkpt lat="45.75844" lon="11.3929517"><ele>1212.6</ele><time>2026-04-23T08:49:57.012Z</time></trkpt><trkpt lat="45.75833" lon="11.3929033"><ele>1215.3999999999999</ele><time>2026-04-23T08:49:58.012Z</time></trkpt><trkpt lat="45.7582483" lon="11.3928667"><ele>1218.2</ele><time>2026-04-23T08:49:59.012Z</time></trkpt><trkpt lat="45.7581783" lon="11.3928267"><ele>1221.0</ele><time>2026-04-23T08:50:00.012Z</time></trkpt><trkpt lat="45.7580967" lon="11.392755"><ele>1221.0</ele><time>2026-04-23T08:50:02.012Z</time></trkpt><trkpt lat="45.75807" lon="11.3926667"><ele>1221.0</ele><time>2026-04-23T08:50:04.012Z</time></trkpt><trkpt lat="45.7580733" lon="11.3925617"><ele>1221.0</ele><time>2026-04-23T08:50:06.012Z</time></trkpt><trkpt lat="45.758085" lon="11.392445"><ele>1221.0</ele><time>2026-04-23T08:50:08.013Z</time></trkpt><trkpt lat="45.7581033" lon="11.3922583"><ele>1221.0</ele><time>2026-04-23T08:50:10.012Z</time></trkpt><trkpt lat="45.7581083" lon="11.3921367"><ele>1221.0</ele><time>2026-04-23T08:50:11.012Z</time></trkpt><trkpt lat="45.75811" lon="11.3918767"><ele>1223.25</ele><time>2026-04-23T08:50:13.012Z</time></trkpt><trkpt lat="45.7580833" lon="11.3917233"><ele>1225.5</ele><time>2026-04-23T08:50:14.013Z</time></trkpt><trkpt lat="45.758045" lon="11.3915617"><ele>1227.75</ele><time>2026-04-23T08:50:15.013Z</time></trkpt><trkpt lat="45.7579883" lon="11.3913967"><ele>1230.0</ele><time>2026-04-23T08:50:16.012Z</time></trkpt><trkpt lat="45.7579283" lon="11.39125"><ele>1231.0</ele><time>2026-04-23T08:50:17.012Z</time></trkpt><trkpt lat="45.7578733" lon="11.3911133"><ele>1232.0</ele><time>2026-04-23T08:50:18.012Z</time></trkpt><trkpt lat="45.7578083" lon="11.3909983"><ele>1233.0</ele><time>2026-04-23T08:50:19.012Z</time></trkpt><trkpt lat="45.757735" lon="11.39092"><ele>1234.0</ele><time>2026-04-23T08:50:20.012Z</time></trkpt><trkpt lat="45.75767" lon="11.39088"><ele>1235.0</ele><time>2026-04-23T08:50:21.012Z</time></trkpt><trkpt lat="45.7575967" lon="11.3908883"><ele>1236.0</ele><time>2026-04-23T08:50:22.012Z</time></trkpt><trkpt lat="45.757525" lon="11.3909167"><ele>1228.3999999999999</ele><time>2026-04-23T08:50:23.012Z</time></trkpt><trkpt lat="45.7574117" lon="11.3909017"><ele>1220.8</ele><time>2026-04-23T08:50:25.013Z</time></trkpt><trkpt lat="45.757355" lon="11.3907683"><ele>1213.1999999999998</ele><time>2026-04-23T08:50:27.012Z</time></trkpt><trkpt lat="45.757365" lon="11.390655"><ele>1205.6</ele><time>2026-04-23T08:50:28.012Z</time></trkpt><trkpt lat="45.7573967" lon="11.3905167"><ele>1198.0</ele><time>2026-04-23T08:50:29.012Z</time></trkpt><trkpt lat="45.7574367" lon="11.39036"><ele>1193.6666666666665</ele><time>2026-04-23T08:50:30.012Z</time></trkpt><trkpt lat="45.7574883" lon="11.3901917"><ele>1189.3333333333333</ele><time>2026-04-23T08:50:31.012Z</time></trkpt><trkpt lat="45.757535" lon="11.390035"><ele>1185.0</ele><time>2026-04-23T08:50:32.012Z</time></trkpt><trkpt lat="45.7576417" lon="11.3897383"><ele>1189.5</ele><time>2026-04-23T08:50:34.012Z</time></trkpt><trkpt lat="45.7577033" lon="11.3895883"><ele>1194.0</ele><time>2026-04-23T08:50:35.012Z</time></trkpt><trkpt lat="45.7577683" lon="11.3894217"><ele>1198.5</ele><time>2026-04-23T08:50:36.013Z</time></trkpt><trkpt lat="45.75784" lon="11.3892683"><ele>1203.0</ele><time>2026-04-23T08:50:37.012Z</time></trkpt><trkpt lat="45.7579117" lon="11.3891083"><ele>1203.0</ele><time>2026-04-23T08:50:38.013Z</time></trkpt><trkpt lat="45.757995" lon="11.3889617"><ele>1203.0</ele><time>2026-04-23T08:50:39.012Z</time></trkpt><trkpt lat="45.758075" lon="11.3888167"><ele>1203.0</ele><time>2026-04-23T08:50:40.012Z</time></trkpt><trkpt lat="45.75817" lon="11.38866"><ele>1203.0</ele><time>2026-04-23T08:50:41.012Z</time></trkpt><trkpt lat="45.758255" lon="11.3885317"><ele>1203.0</ele><time>2026-04-23T08:50:42.012Z</time></trkpt><trkpt lat="45.7583483" lon="11.388405"><ele>1203.0</ele><time>2026-04-23T08:50:43.012Z</time></trkpt><trkpt lat="45.7584333" lon="11.388295"><ele>1203.0</ele><time>2026-04-23T08:50:44.012Z</time></trkpt><trkpt lat="45.7585167" lon="11.3882167"><ele>1203.0</ele><time>2026-04-23T08:50:45.012Z</time></trkpt><trkpt lat="45.75859" lon="11.38815"><ele>1203.0</ele><time>2026-04-23T08:50:46.013Z</time></trkpt><trkpt lat="45.7586583" lon="11.3881167"><ele>1203.0</ele><time>2026-04-23T08:50:47.012Z</time></trkpt><trkpt lat="45.7587517" lon="11.38806"><ele>1203.0</ele><time>2026-04-23T08:50:49.012Z</time></trkpt><trkpt lat="45.7587183" lon="11.3879667"><ele>1203.0</ele><time>2026-04-23T08:50:52.012Z</time></trkpt><trkpt lat="45.7585583" lon="11.3879867"><ele>1203.0</ele><time>2026-04-23T08:50:54.012Z</time></trkpt><trkpt lat="45.7582633" lon="11.38807"><ele>1196.0</ele><time>2026-04-23T08:50:56.012Z</time></trkpt><trkpt lat="45.7581217" lon="11.38813"><ele>1189.0</ele><time>2026-04-23T08:50:57.012Z</time></trkpt><trkpt lat="45.7580033" lon="11.388195"><ele>1182.0</ele><time>2026-04-23T08:50:58.012Z</time></trkpt><trkpt lat="45.757895" lon="11.3882783"><ele>1175.0</ele><time>2026-04-23T08:50:59.013Z</time></trkpt><trkpt lat="45.7577967" lon="11.3883683"><ele>1175.0</ele><time>2026-04-23T08:51:00.012Z</time></trkpt><trkpt lat="45.75771" lon="11.3884667"><ele>1175.0</ele><time>2026-04-23T08:51:01.012Z</time></trkpt><trkpt lat="45.7576317" lon="11.3885733"><ele>1175.0</ele><time>2026-04-23T08:51:02.012Z</time></trkpt><trkpt lat="45.7575633" lon="11.3887033"><ele>1175.0</ele><time>2026-04-23T08:51:03.012Z</time></trkpt><trkpt lat="45.75749" lon="11.3888633"><ele>1172.5</ele><time>2026-04-23T08:51:04.012Z</time></trkpt><trkpt lat="45.7574133" lon="11.3890217"><ele>1170.0</ele><time>2026-04-23T08:51:05.012Z</time></trkpt><trkpt lat="45.75733" lon="11.38916"><ele>1167.5</ele><time>2026-04-23T08:51:06.012Z</time></trkpt><trkpt lat="45.7572467" lon="11.38929"><ele>1165.0</ele><time>2026-04-23T08:51:07.012Z</time></trkpt><trkpt lat="45.7571567" lon="11.3894117"><ele>1165.0</ele><time>2026-04-23T08:51:08.012Z</time></trkpt><trkpt lat="45.7570733" lon="11.3895233"><ele>1165.0</ele><time>2026-04-23T08:51:09.012Z</time></trkpt><trkpt lat="45.757" lon="11.38964"><ele>1165.0</ele><time>2026-04-23T08:51:10.012Z</time></trkpt><trkpt lat="45.7569317" lon="11.389755"><ele>1165.0</ele><time>2026-04-23T08:51:11.012Z</time></trkpt><trkpt lat="45.75687" lon="11.3898633"><ele>1165.0</ele><time>2026-04-23T08:51:12.012Z</time></trkpt><trkpt lat="45.7568233" lon="11.38996"><ele>1161.0</ele><time>2026-04-23T08:51:13.012Z</time></trkpt><trkpt lat="45.75679" lon="11.3900483"><ele>1157.0</ele><time>2026-04-23T08:51:14.011Z</time></trkpt><trkpt lat="45.7567317" lon="11.390155"><ele>1153.0</ele><time>2026-04-23T08:51:16.011Z</time></trkpt><trkpt lat="45.7567567" lon="11.3899233"><ele>1149.0</ele><time>2026-04-23T08:51:20.011Z</time></trkpt><trkpt lat="45.7568017" lon="11.3898167"><ele>1145.0</ele><time>2026-04-23T08:51:21.011Z</time></trkpt><trkpt lat="45.7568417" lon="11.389715"><ele>1148.3333333333335</ele><time>2026-04-23T08:51:22.011Z</time></trkpt><trkpt lat="45.7568767" lon="11.38962"><ele>1151.6666666666667</ele><time>2026-04-23T08:51:23.012Z</time></trkpt><trkpt lat="45.7569033" lon="11.3895133"><ele>1155.0</ele><time>2026-04-23T08:51:24.012Z</time></trkpt><trkpt lat="45.75693" lon="11.3894033"><ele>1158.3333333333333</ele><time>2026-04-23T08:51:25.011Z</time></trkpt><trkpt lat="45.7569567" lon="11.389295"><ele>1161.6666666666665</ele><time>2026-04-23T08:51:26.011Z</time></trkpt><trkpt lat="45.7569867" lon="11.3891817"><ele>1165.0</ele><time>2026-04-23T08:51:27.011Z</time></trkpt><trkpt lat="45.7570233" lon="11.3890567"><ele>1165.0</ele><time>2026-04-23T08:51:28.011Z</time></trkpt><trkpt lat="45.7570667" lon="11.3889067"><ele>1165.0</ele><time>2026-04-23T08:51:29.011Z</time></trkpt><trkpt lat="45.7571033" lon="11.3887567"><ele>1165.0</ele><time>2026-04-23T08:51:30.011Z</time></trkpt><trkpt lat="45.7571333" lon="11.388605"><ele>1165.0</ele><time>2026-04-23T08:51:31.011Z</time></trkpt><trkpt lat="45.757155" lon="11.3884717"><ele>1165.0</ele><time>2026-04-23T08:51:32.011Z</time></trkpt><trkpt lat="45.757175" lon="11.38835"><ele>1160.6</ele><time>2026-04-23T08:51:33.011Z</time></trkpt><trkpt lat="45.7572033" lon="11.3882233"><ele>1156.2</ele><time>2026-04-23T08:51:34.011Z</time></trkpt><trkpt lat="45.75724" lon="11.3881067"><ele>1151.8</ele><time>2026-04-23T08:51:35.011Z</time></trkpt><trkpt lat="45.7572883" lon="11.3879933"><ele>1147.4</ele><time>2026-04-23T08:51:36.011Z</time></trkpt><trkpt lat="45.7573483" lon="11.3878867"><ele>1143.0</ele><time>2026-04-23T08:51:37.011Z</time></trkpt><trkpt lat="45.7574833" lon="11.38768"><ele>1142.3333333333333</ele><time>2026-04-23T08:51:39.011Z</time></trkpt><trkpt lat="45.7575617" lon="11.3875817"><ele>1141.6666666666667</ele><time>2026-04-23T08:51:40.011Z</time></trkpt><trkpt lat="45.7576283" lon="11.3875017"><ele>1141.0</ele><time>2026-04-23T08:51:41.011Z</time></trkpt><trkpt lat="45.757695" lon="11.38742"><ele>1140.3333333333335</ele><time>2026-04-23T08:51:42.011Z</time></trkpt><trkpt lat="45.7577583" lon="11.3873517"><ele>1139.6666666666667</ele><time>2026-04-23T08:51:43.011Z</time></trkpt><trkpt lat="45.7578183" lon="11.387295"><ele>1139.0</ele><time>2026-04-23T08:51:44.012Z</time></trkpt><trkpt lat="45.7578833" lon="11.3872567"><ele>1139.0</ele><time>2026-04-23T08:51:45.011Z</time></trkpt><trkpt lat="45.7579533" lon="11.38722"><ele>1139.0</ele><time>2026-04-23T08:51:46.011Z</time></trkpt><trkpt lat="45.7580367" lon="11.3871883"><ele>1139.0</ele><time>2026-04-23T08:51:47.012Z</time></trkpt><trkpt lat="45.7581217" lon="11.38714"><ele>1139.0</ele><time>2026-04-23T08:51:48.011Z</time></trkpt><trkpt lat="45.7582" lon="11.3870767"><ele>1139.0</ele><time>2026-04-23T08:51:49.011Z</time></trkpt><trkpt lat="45.75828" lon="11.3870217"><ele>1139.0</ele><time>2026-04-23T08:51:50.012Z</time></trkpt><trkpt lat="45.7583467" lon="11.38698"><ele>1137.3333333333335</ele><time>2026-04-23T08:51:51.012Z</time></trkpt><trkpt lat="45.7584183" lon="11.386965"><ele>1135.6666666666667</ele><time>2026-04-23T08:51:52.011Z</time></trkpt><trkpt lat="45.7585" lon="11.386995"><ele>1134.0</ele><time>2026-04-23T08:51:53.011Z</time></trkpt><trkpt lat="45.75858" lon="11.3870383"><ele>1132.3333333333333</ele><time>2026-04-23T08:51:54.011Z</time></trkpt><trkpt lat="45.758665" lon="11.3870583"><ele>1130.6666666666665</ele><time>2026-04-23T08:51:55.011Z</time></trkpt><trkpt lat="45.7587667" lon="11.3870367"><ele>1129.0</ele><time>2026-04-23T08:51:56.011Z</time></trkpt><trkpt lat="45.75886" lon="11.3869733"><ele>1129.0</ele><time>2026-04-23T08:51:57.011Z</time></trkpt><trkpt lat="45.7589383" lon="11.38687"><ele>1129.0</ele><time>2026-04-23T08:51:58.011Z</time></trkpt><trkpt lat="45.759045" lon="11.3866"><ele>1129.0</ele><time>2026-04-23T08:52:00.011Z</time></trkpt><trkpt lat="45.75907" lon="11.3864567"><ele>1129.0</ele><time>2026-04-23T08:52:01.011Z</time></trkpt><trkpt lat="45.7590933" lon="11.3863467"><ele>1122.0</ele><time>2026-04-23T08:52:02.012Z</time></trkpt><trkpt lat="45.7591183" lon="11.3862367"><ele>1115.0</ele><time>2026-04-23T08:52:03.011Z</time></trkpt><trkpt lat="45.7591717" lon="11.386135"><ele>1108.0</ele><time>2026-04-23T08:52:04.011Z</time></trkpt><trkpt lat="45.759245" lon="11.3860467"><ele>1101.0</ele><time>2026-04-23T08:52:05.011Z</time></trkpt><trkpt lat="45.7593167" lon="11.385955"><ele>1094.0</ele><time>2026-04-23T08:52:06.011Z</time></trkpt><trkpt lat="45.759365" lon="11.3858383"><ele>1092.8333333333335</ele><time>2026-04-23T08:52:07.011Z</time></trkpt><trkpt lat="45.7593867" lon="11.385715"><ele>1091.6666666666667</ele><time>2026-04-23T08:52:08.011Z</time></trkpt><trkpt lat="45.7593967" lon="11.3855833"><ele>1090.5</ele><time>2026-04-23T08:52:09.011Z</time></trkpt><trkpt lat="45.75941" lon="11.3854817"><ele>1089.3333333333333</ele><time>2026-04-23T08:52:10.011Z</time></trkpt><trkpt lat="45.7594367" lon="11.38539"><ele>1088.1666666666665</ele><time>2026-04-23T08:52:11.012Z</time></trkpt><trkpt lat="45.7595" lon="11.3853633"><ele>1087.0</ele><time>2026-04-23T08:52:12.011Z</time></trkpt><trkpt lat="45.7595683" lon="11.3853067"><ele>1087.0</ele><time>2026-04-23T08:52:13.011Z</time></trkpt><trkpt lat="45.7596567" lon="11.385255"><ele>1087.0</ele><time>2026-04-23T08:52:14.011Z</time></trkpt><trkpt lat="45.7597383" lon="11.3852133"><ele>1087.0</ele><time>2026-04-23T08:52:15.011Z</time></trkpt><trkpt lat="45.759815" lon="11.3851867"><ele>1087.0</ele><time>2026-04-23T08:52:16.011Z</time></trkpt><trkpt lat="45.7598883" lon="11.385185"><ele>1087.0</ele><time>2026-04-23T08:52:17.012Z</time></trkpt><trkpt lat="45.75997" lon="11.3851933"><ele>1087.0</ele><time>2026-04-23T08:52:18.011Z</time></trkpt><trkpt lat="45.7600467" lon="11.385185"><ele>1093.25</ele><time>2026-04-23T08:52:19.011Z</time></trkpt><trkpt lat="45.7602067" lon="11.38507"><ele>1099.5</ele><time>2026-04-23T08:52:21.011Z</time></trkpt><trkpt lat="45.7602867" lon="11.38497"><ele>1105.75</ele><time>2026-04-23T08:52:22.011Z</time></trkpt><trkpt lat="45.760375" lon="11.3848567"><ele>1112.0</ele><time>2026-04-23T08:52:23.011Z</time></trkpt><trkpt lat="45.7604617" lon="11.3847583"><ele>1106.8</ele><time>2026-04-23T08:52:24.012Z</time></trkpt><trkpt lat="45.7605467" lon="11.38465"><ele>1101.6</ele><time>2026-04-23T08:52:25.011Z</time></trkpt><trkpt lat="45.7606167" lon="11.38456"><ele>1096.3999999999999</ele><time>2026-04-23T08:52:26.011Z</time></trkpt><trkpt lat="45.76067" lon="11.38446"><ele>1091.2</ele><time>2026-04-23T08:52:27.011Z</time></trkpt><trkpt lat="45.7607017" lon="11.3843433"><ele>1086.0</ele><time>2026-04-23T08:52:28.011Z</time></trkpt><trkpt lat="45.7607183" lon="11.384235"><ele>1086.0</ele><time>2026-04-23T08:52:29.011Z</time></trkpt><trkpt lat="45.7607433" lon="11.3841167"><ele>1086.0</ele><time>2026-04-23T08:52:30.011Z</time></trkpt><trkpt lat="45.7607683" lon="11.3839617"><ele>1086.0</ele><time>2026-04-23T08:52:31.011Z</time></trkpt><trkpt lat="45.7608017" lon="11.3838"><ele>1086.0</ele><time>2026-04-23T08:52:32.011Z</time></trkpt><trkpt lat="45.7608167" lon="11.383605"><ele>1082.25</ele><time>2026-04-23T08:52:33.011Z</time></trkpt><trkpt lat="45.7608033" lon="11.38341"><ele>1078.5</ele><time>2026-04-23T08:52:34.011Z</time></trkpt><trkpt lat="45.760765" lon="11.383245"><ele>1074.75</ele><time>2026-04-23T08:52:35.011Z</time></trkpt><trkpt lat="45.760715" lon="11.3830883"><ele>1071.0</ele><time>2026-04-23T08:52:36.011Z</time></trkpt><trkpt lat="45.760635" lon="11.3829733"><ele>1066.8</ele><time>2026-04-23T08:52:37.011Z</time></trkpt><trkpt lat="45.7605667" lon="11.3828767"><ele>1062.6</ele><time>2026-04-23T08:52:38.011Z</time></trkpt><trkpt lat="45.76053" lon="11.382795"><ele>1058.4</ele><time>2026-04-23T08:52:39.011Z</time></trkpt><trkpt lat="45.7605767" lon="11.3826633"><ele>1054.2</ele><time>2026-04-23T08:52:41.011Z</time></trkpt><trkpt lat="45.7607233" lon="11.3825717"><ele>1050.0</ele><time>2026-04-23T08:52:43.011Z</time></trkpt><trkpt lat="45.7608133" lon="11.3825033"><ele>1050.0</ele><time>2026-04-23T08:52:44.011Z</time></trkpt><trkpt lat="45.7609067" lon="11.38241"><ele>1050.0</ele><time>2026-04-23T08:52:45.012Z</time></trkpt><trkpt lat="45.7609783" lon="11.3822767"><ele>1050.0</ele><time>2026-04-23T08:52:46.012Z</time></trkpt><trkpt lat="45.76101" lon="11.3821017"><ele>1050.0</ele><time>2026-04-23T08:52:47.011Z</time></trkpt><trkpt lat="45.7610133" lon="11.3819383"><ele>1047.4</ele><time>2026-04-23T08:52:48.011Z</time></trkpt><trkpt lat="45.7610233" lon="11.38181"><ele>1044.8</ele><time>2026-04-23T08:52:49.011Z</time></trkpt><trkpt lat="45.7610383" lon="11.3817183"><ele>1042.2</ele><time>2026-04-23T08:52:50.012Z</time></trkpt><trkpt lat="45.7611217" lon="11.3816583"><ele>1039.6</ele><time>2026-04-23T08:52:52.012Z</time></trkpt><trkpt lat="45.7612283" lon="11.3817717"><ele>1037.0</ele><time>2026-04-23T08:52:54.011Z</time></trkpt><trkpt lat="45.7613" lon="11.3818283"><ele>1037.0</ele><time>2026-04-23T08:52:55.011Z</time></trkpt><trkpt lat="45.7613917" lon="11.3818517"><ele>1037.0</ele><time>2026-04-23T08:52:56.011Z</time></trkpt><trkpt lat="45.7614833" lon="11.381855"><ele>1037.0</ele><time>2026-04-23T08:52:57.011Z</time></trkpt><trkpt lat="45.761595" lon="11.381835"><ele>1037.0</ele><time>2026-04-23T08:52:58.011Z</time></trkpt><trkpt lat="45.761725" lon="11.3817617"><ele>1037.0</ele><time>2026-04-23T08:52:59.011Z</time></trkpt><trkpt lat="45.7618383" lon="11.3816117"><ele>1035.0</ele><time>2026-04-23T08:53:00.011Z</time></trkpt><trkpt lat="45.76195" lon="11.381445"><ele>1033.0</ele><time>2026-04-23T08:53:01.011Z</time></trkpt><trkpt lat="45.762055" lon="11.3813"><ele>1031.0</ele><time>2026-04-23T08:53:02.011Z</time></trkpt><trkpt lat="45.76224" lon="11.381005"><ele>1031.0</ele><time>2026-04-23T08:53:04.011Z</time></trkpt><trkpt lat="45.7623317" lon="11.3808717"><ele>1031.0</ele><time>2026-04-23T08:53:05.011Z</time></trkpt><trkpt lat="45.762405" lon="11.3807483"><ele>1031.0</ele><time>2026-04-23T08:53:06.011Z</time></trkpt><trkpt lat="45.7624517" lon="11.3805733"><ele>1031.0</ele><time>2026-04-23T08:53:07.011Z</time></trkpt><trkpt lat="45.7624583" lon="11.3803683"><ele>1025.3333333333335</ele><time>2026-04-23T08:53:08.011Z</time></trkpt><trkpt lat="45.7624317" lon="11.38013"><ele>1019.6666666666667</ele><time>2026-04-23T08:53:09.012Z</time></trkpt><trkpt lat="45.7623783" lon="11.3798833"><ele>1014.0</ele><time>2026-04-23T08:53:10.011Z</time></trkpt><trkpt lat="45.7623233" lon="11.3796833"><ele>1010.2</ele><time>2026-04-23T08:53:11.011Z</time></trkpt><trkpt lat="45.7622567" lon="11.37951"><ele>1006.4000000000001</ele><time>2026-04-23T08:53:12.011Z</time></trkpt><trkpt lat="45.7622" lon="11.3793783"><ele>1002.6</ele><time>2026-04-23T08:53:13.011Z</time></trkpt><trkpt lat="45.76216" lon="11.3792767"><ele>998.8</ele><time>2026-04-23T08:53:14.011Z</time></trkpt><trkpt lat="45.7621333" lon="11.3791867"><ele>995.0</ele><time>2026-04-23T08:53:15.011Z</time></trkpt><trkpt lat="45.762145" lon="11.3790583"><ele>995.0000000000001</ele><time>2026-04-23T08:53:17.012Z</time></trkpt><trkpt lat="45.7622033" lon="11.379015"><ele>995.0</ele><time>2026-04-23T08:53:19.012Z</time></trkpt><trkpt lat="45.7622717" lon="11.3790367"><ele>995.0</ele><time>2026-04-23T08:53:20.012Z</time></trkpt><trkpt lat="45.7623567" lon="11.37905"><ele>995.0</ele><time>2026-04-23T08:53:21.011Z</time></trkpt><trkpt lat="45.7624617" lon="11.3790383"><ele>995.0000000000001</ele><time>2026-04-23T08:53:22.011Z</time></trkpt><trkpt lat="45.76255" lon="11.3790083"><ele>995.0</ele><time>2026-04-23T08:53:23.011Z</time></trkpt><trkpt lat="45.76271" lon="11.3787983"><ele>1001.0</ele><time>2026-04-23T08:53:25.011Z</time></trkpt><trkpt lat="45.76276" lon="11.3786167"><ele>1007.0</ele><time>2026-04-23T08:53:26.011Z</time></trkpt><trkpt lat="45.7627783" lon="11.3784417"><ele>1013.0</ele><time>2026-04-23T08:53:27.011Z</time></trkpt><trkpt lat="45.762785" lon="11.3782467"><ele>1019.0</ele><time>2026-04-23T08:53:28.011Z</time></trkpt><trkpt lat="45.7627867" lon="11.37806"><ele>1017.5</ele><time>2026-04-23T08:53:29.012Z</time></trkpt><trkpt lat="45.7627967" lon="11.37789"><ele>1016.0</ele><time>2026-04-23T08:53:30.011Z</time></trkpt><trkpt lat="45.7627967" lon="11.3777683"><ele>1014.5</ele><time>2026-04-23T08:53:31.011Z</time></trkpt><trkpt lat="45.7627517" lon="11.377585"><ele>1013.0</ele><time>2026-04-23T08:53:32.011Z</time></trkpt><trkpt lat="45.762695" lon="11.3773933"><ele>1000.5</ele><time>2026-04-23T08:53:33.011Z</time></trkpt><trkpt lat="45.7626417" lon="11.3772183"><ele>988.0</ele><time>2026-04-23T08:53:34.011Z</time></trkpt><trkpt lat="45.762595" lon="11.37706"><ele>975.5</ele><time>2026-04-23T08:53:35.011Z</time></trkpt><trkpt lat="45.7625533" lon="11.3769167"><ele>963.0</ele><time>2026-04-23T08:53:36.011Z</time></trkpt><trkpt lat="45.7625417" lon="11.3767517"><ele>960.4</ele><time>2026-04-23T08:53:37.012Z</time></trkpt><trkpt lat="45.76254" lon="11.37661"><ele>957.8</ele><time>2026-04-23T08:53:38.011Z</time></trkpt><trkpt lat="45.7625733" lon="11.37645"><ele>955.2</ele><time>2026-04-23T08:53:39.012Z</time></trkpt><trkpt lat="45.7626183" lon="11.3762967"><ele>952.6</ele><time>2026-04-23T08:53:40.011Z</time></trkpt><trkpt lat="45.7626717" lon="11.3761833"><ele>950.0</ele><time>2026-04-23T08:53:41.011Z</time></trkpt><trkpt lat="45.7627367" lon="11.3761183"><ele>948.6</ele><time>2026-04-23T08:53:42.012Z</time></trkpt><trkpt lat="45.7628067" lon="11.37609"><ele>947.2</ele><time>2026-04-23T08:53:43.011Z</time></trkpt><trkpt lat="45.7628883" lon="11.3761"><ele>945.8</ele><time>2026-04-23T08:53:44.011Z</time></trkpt><trkpt lat="45.7630817" lon="11.3761083"><ele>944.4</ele><time>2026-04-23T08:53:46.011Z</time></trkpt><trkpt lat="45.7631717" lon="11.3761133"><ele>943.0</ele><time>2026-04-23T08:53:47.011Z</time></trkpt><trkpt lat="45.7632583" lon="11.376125"><ele>942.9999999999999</ele><time>2026-04-23T08:53:48.011Z</time></trkpt><trkpt lat="45.76334" lon="11.376135"><ele>943.0</ele><time>2026-04-23T08:53:49.011Z</time></trkpt><trkpt lat="45.763425" lon="11.376155"><ele>943.0</ele><time>2026-04-23T08:53:50.012Z</time></trkpt><trkpt lat="45.7635033" lon="11.3761667"><ele>943.0</ele><time>2026-04-23T08:53:51.012Z</time></trkpt><trkpt lat="45.7635933" lon="11.3761483"><ele>942.9999999999999</ele><time>2026-04-23T08:53:52.01Z</time></trkpt><trkpt lat="45.7636683" lon="11.3761033"><ele>943.0</ele><time>2026-04-23T08:53:53.01Z</time></trkpt><trkpt lat="45.7637117" lon="11.3760167"><ele>948.5999999999999</ele><time>2026-04-23T08:53:54.011Z</time></trkpt><trkpt lat="45.7637767" lon="11.3759783"><ele>954.1999999999999</ele><time>2026-04-23T08:53:55.01Z</time></trkpt><trkpt lat="45.7638633" lon="11.3758317"><ele>959.8</ele><time>2026-04-23T08:53:57.01Z</time></trkpt><trkpt lat="45.763875" lon="11.3757067"><ele>965.4</ele><time>2026-04-23T08:53:58.01Z</time></trkpt><trkpt lat="45.76389" lon="11.3755867"><ele>971.0</ele><time>2026-04-23T08:53:59.01Z</time></trkpt><trkpt lat="45.763915" lon="11.3754633"><ele>971.0</ele><time>2026-04-23T08:54:00.011Z</time></trkpt><trkpt lat="45.7639367" lon="11.3753083"><ele>970.9999999999999</ele><time>2026-04-23T08:54:01.01Z</time></trkpt><trkpt lat="45.763955" lon="11.375175"><ele>970.9999999999999</ele><time>2026-04-23T08:54:02.01Z</time></trkpt><trkpt lat="45.7639633" lon="11.3750517"><ele>971.0</ele><time>2026-04-23T08:54:03.01Z</time></trkpt><trkpt lat="45.763955" lon="11.3748867"><ele>971.0</ele><time>2026-04-23T08:54:04.01Z</time></trkpt><trkpt lat="45.7639" lon="11.3746817"><ele>966.0</ele><time>2026-04-23T08:54:05.01Z</time></trkpt><trkpt lat="45.7638283" lon="11.3742817"><ele>961.0</ele><time>2026-04-23T08:54:07.011Z</time></trkpt><trkpt lat="45.7638083" lon="11.3741567"><ele>956.0</ele><time>2026-04-23T08:54:08.01Z</time></trkpt><trkpt lat="45.7637983" lon="11.374035"><ele>956.0</ele><time>2026-04-23T08:54:09.01Z</time></trkpt><trkpt lat="45.763825" lon="11.3738633"><ele>955.9999999999999</ele><time>2026-04-23T08:54:11.01Z</time></trkpt><trkpt lat="45.763895" lon="11.3737333"><ele>955.9999999999999</ele><time>2026-04-23T08:54:13.01Z</time></trkpt><trkpt lat="45.7639583" lon="11.3736817"><ele>956.0</ele><time>2026-04-23T08:54:14.01Z</time></trkpt><trkpt lat="45.7640417" lon="11.37363"><ele>956.0</ele><time>2026-04-23T08:54:15.011Z</time></trkpt><trkpt lat="45.76411" lon="11.373555"><ele>958.75</ele><time>2026-04-23T08:54:16.01Z</time></trkpt><trkpt lat="45.7641867" lon="11.3734817"><ele>961.5</ele><time>2026-04-23T08:54:17.01Z</time></trkpt><trkpt lat="45.7642617" lon="11.3733633"><ele>964.25</ele><time>2026-04-23T08:54:18.01Z</time></trkpt><trkpt lat="45.7643283" lon="11.3732167"><ele>967.0</ele><time>2026-04-23T08:54:19.01Z</time></trkpt><trkpt lat="45.7643917" lon="11.37305"><ele>962.4000000000001</ele><time>2026-04-23T08:54:20.01Z</time></trkpt><trkpt lat="45.7644483" lon="11.3728967"><ele>957.8000000000001</ele><time>2026-04-23T08:54:21.01Z</time></trkpt><trkpt lat="45.7644867" lon="11.372745"><ele>953.2</ele><time>2026-04-23T08:54:22.011Z</time></trkpt><trkpt lat="45.764515" lon="11.3726017"><ele>948.6</ele><time>2026-04-23T08:54:23.01Z</time></trkpt><trkpt lat="45.7645383" lon="11.3724883"><ele>944.0</ele><time>2026-04-23T08:54:24.01Z</time></trkpt><trkpt lat="45.7645617" lon="11.3723967"><ele>944.0</ele><time>2026-04-23T08:54:25.01Z</time></trkpt><trkpt lat="45.7646117" lon="11.3723183"><ele>944.0</ele><time>2026-04-23T08:54:26.01Z</time></trkpt><trkpt lat="45.7647867" lon="11.3721033"><ele>944.0</ele><time>2026-04-23T08:54:28.01Z</time></trkpt><trkpt lat="45.7648883" lon="11.3719733"><ele>944.0</ele><time>2026-04-23T08:54:29.01Z</time></trkpt><trkpt lat="45.7650133" lon="11.3718383"><ele>939.3333333333334</ele><time>2026-04-23T08:54:30.01Z</time></trkpt><trkpt lat="45.7651" lon="11.3716333"><ele>934.6666666666667</ele><time>2026-04-23T08:54:31.01Z</time></trkpt><trkpt lat="45.7652017" lon="11.3714383"><ele>930.0</ele><time>2026-04-23T08:54:32.01Z</time></trkpt><trkpt lat="45.76531" lon="11.3712483"><ele>930.0</ele><time>2026-04-23T08:54:33.01Z</time></trkpt><trkpt lat="45.7654083" lon="11.371095"><ele>930.0</ele><time>2026-04-23T08:54:34.01Z</time></trkpt><trkpt lat="45.765505" lon="11.3709383"><ele>930.0</ele><time>2026-04-23T08:54:35.01Z</time></trkpt><trkpt lat="45.7655867" lon="11.3707867"><ele>930.0</ele><time>2026-04-23T08:54:36.01Z</time></trkpt><trkpt lat="45.7656583" lon="11.3706283"><ele>923.5</ele><time>2026-04-23T08:54:37.01Z</time></trkpt><trkpt lat="45.7657267" lon="11.370465"><ele>917.0</ele><time>2026-04-23T08:54:38.01Z</time></trkpt><trkpt lat="45.765785" lon="11.3703033"><ele>910.5</ele><time>2026-04-23T08:54:39.01Z</time></trkpt><trkpt lat="45.7658383" lon="11.37015"><ele>904.0</ele><time>2026-04-23T08:54:40.01Z</time></trkpt><trkpt lat="45.7659033" lon="11.37001"><ele>904.0</ele><time>2026-04-23T08:54:41.011Z</time></trkpt><trkpt lat="45.7659567" lon="11.3699033"><ele>904.0000000000001</ele><time>2026-04-23T08:54:42.01Z</time></trkpt><trkpt lat="45.7659983" lon="11.3698"><ele>904.0000000000001</ele><time>2026-04-23T08:54:43.011Z</time></trkpt><trkpt lat="45.7660433" lon="11.3696867"><ele>904.0</ele><time>2026-04-23T08:54:44.01Z</time></trkpt><trkpt lat="45.7660867" lon="11.36956"><ele>904.0</ele><time>2026-04-23T08:54:45.01Z</time></trkpt><trkpt lat="45.766145" lon="11.3694583"><ele>903.4000000000001</ele><time>2026-04-23T08:54:46.01Z</time></trkpt><trkpt lat="45.7662117" lon="11.369375"><ele>902.8000000000001</ele><time>2026-04-23T08:54:47.01Z</time></trkpt><trkpt lat="45.7662767" lon="11.36921"><ele>902.1999999999999</ele><time>2026-04-23T08:54:49.01Z</time></trkpt><trkpt lat="45.7662783" lon="11.3691117"><ele>901.5999999999999</ele><time>2026-04-23T08:54:50.01Z</time></trkpt><trkpt lat="45.7662867" lon="11.3689333"><ele>901.0</ele><time>2026-04-23T08:54:52.01Z</time></trkpt><trkpt lat="45.76632" lon="11.36884"><ele>901.0</ele><time>2026-04-23T08:54:53.011Z</time></trkpt><trkpt lat="45.766365" lon="11.3687383"><ele>901.0</ele><time>2026-04-23T08:54:54.011Z</time></trkpt><trkpt lat="45.7664167" lon="11.3686067"><ele>901.0</ele><time>2026-04-23T08:54:55.01Z</time></trkpt><trkpt lat="45.766475" lon="11.3684367"><ele>901.0</ele><time>2026-04-23T08:54:56.01Z</time></trkpt><trkpt lat="45.7665533" lon="11.368245"><ele>901.0</ele><time>2026-04-23T08:54:57.01Z</time></trkpt><trkpt lat="45.7666233" lon="11.368045"><ele>901.0</ele><time>2026-04-23T08:54:58.01Z</time></trkpt><trkpt lat="45.7666783" lon="11.3678483"><ele>901.0</ele><time>2026-04-23T08:54:59.011Z</time></trkpt><trkpt lat="45.7667267" lon="11.3676667"><ele>901.0</ele><time>2026-04-23T08:55:00.01Z</time></trkpt><trkpt lat="45.7667733" lon="11.3674983"><ele>898.0</ele><time>2026-04-23T08:55:01.01Z</time></trkpt><trkpt lat="45.766805" lon="11.3673367"><ele>894.9999999999999</ele><time>2026-04-23T08:55:02.01Z</time></trkpt><trkpt lat="45.7668367" lon="11.3672167"><ele>891.9999999999999</ele><time>2026-04-23T08:55:03.01Z</time></trkpt><trkpt lat="45.7668717" lon="11.3671083"><ele>889.0</ele><time>2026-04-23T08:55:04.01Z</time></trkpt><trkpt lat="45.7669083" lon="11.366995"><ele>886.0</ele><time>2026-04-23T08:55:05.01Z</time></trkpt><trkpt lat="45.7669367" lon="11.3668883"><ele>886.0</ele><time>2026-04-23T08:55:06.01Z</time></trkpt><trkpt lat="45.766945" lon="11.36676"><ele>886.0</ele><time>2026-04-23T08:55:08.01Z</time></trkpt><trkpt lat="45.7668033" lon="11.3669367"><ele>886.0</ele><time>2026-04-23T08:55:12.01Z</time></trkpt><trkpt lat="45.7667617" lon="11.3670883"><ele>886.0</ele><time>2026-04-23T08:55:13.01Z</time></trkpt><trkpt lat="45.7667217" lon="11.3672467"><ele>886.0</ele><time>2026-04-23T08:55:14.01Z</time></trkpt><trkpt lat="45.766665" lon="11.367425"><ele>886.0</ele><time>2026-04-23T08:55:15.01Z</time></trkpt><trkpt lat="45.7666" lon="11.3675917"><ele>886.0</ele><time>2026-04-23T08:55:16.01Z</time></trkpt><trkpt lat="45.7665433" lon="11.3677433"><ele>886.0</ele><time>2026-04-23T08:55:17.01Z</time></trkpt><trkpt lat="45.766495" lon="11.3678683"><ele>885.9999999999999</ele><time>2026-04-23T08:55:18.01Z</time></trkpt><trkpt lat="45.766455" lon="11.3679767"><ele>886.0</ele><time>2026-04-23T08:55:19.01Z</time></trkpt><trkpt lat="45.7664217" lon="11.3680683"><ele>886.0</ele><time>2026-04-23T08:55:20.01Z</time></trkpt><trkpt lat="45.7663883" lon="11.3681467"><ele>886.0</ele><time>2026-04-23T08:55:21.01Z</time></trkpt><trkpt lat="45.7663833" lon="11.3679717"><ele>885.9999999999999</ele><time>2026-04-23T08:55:25.01Z</time></trkpt><trkpt lat="45.76642" lon="11.3678533"><ele>886.0</ele><time>2026-04-23T08:55:26.01Z</time></trkpt><trkpt lat="45.76646" lon="11.3676717"><ele>886.0</ele><time>2026-04-23T08:55:27.01Z</time></trkpt><trkpt lat="45.7664783" lon="11.3674567"><ele>886.0</ele><time>2026-04-23T08:55:28.01Z</time></trkpt><trkpt lat="45.766465" lon="11.3672317"><ele>886.0</ele><time>2026-04-23T08:55:29.01Z</time></trkpt><trkpt lat="45.7664217" lon="11.36685"><ele>885.8333333333333</ele><time>2026-04-23T08:55:31.01Z</time></trkpt><trkpt lat="45.7664033" lon="11.366715"><ele>885.6666666666666</ele><time>2026-04-23T08:55:32.01Z</time></trkpt><trkpt lat="45.7663817" lon="11.3665917"><ele>885.5</ele><time>2026-04-23T08:55:33.01Z</time></trkpt><trkpt lat="45.7663583" lon="11.3664783"><ele>885.3333333333333</ele><time>2026-04-23T08:55:34.01Z</time></trkpt><trkpt lat="45.76634" lon="11.3663867"><ele>885.1666666666666</ele><time>2026-04-23T08:55:35.01Z</time></trkpt><trkpt lat="45.7663133" lon="11.3662983"><ele>885.0</ele><time>2026-04-23T08:55:36.01Z</time></trkpt><trkpt lat="45.7662733" lon="11.3662067"><ele>885.0</ele><time>2026-04-23T08:55:37.01Z</time></trkpt><trkpt lat="45.766215" lon="11.3661383"><ele>885.0</ele><time>2026-04-23T08:55:38.01Z</time></trkpt><trkpt lat="45.766165" lon="11.36606"><ele>885.0</ele><time>2026-04-23T08:55:39.01Z</time></trkpt><trkpt lat="45.7661083" lon="11.3659783"><ele>885.0</ele><time>2026-04-23T08:55:40.01Z</time></trkpt><trkpt lat="45.7660567" lon="11.36588"><ele>885.0</ele><time>2026-04-23T08:55:41.01Z</time></trkpt><trkpt lat="45.7660267" lon="11.3657833"><ele>885.0</ele><time>2026-04-23T08:55:42.01Z</time></trkpt><trkpt lat="45.7659983" lon="11.365675"><ele>881.6</ele><time>2026-04-23T08:55:43.01Z</time></trkpt><trkpt lat="45.765975" lon="11.365555"><ele>878.2</ele><time>2026-04-23T08:55:44.01Z</time></trkpt><trkpt lat="45.76595" lon="11.365395"><ele>874.8</ele><time>2026-04-23T08:55:45.011Z</time></trkpt><trkpt lat="45.7659233" lon="11.3652283"><ele>871.4</ele><time>2026-04-23T08:55:46.01Z</time></trkpt><trkpt lat="45.7659" lon="11.36508"><ele>868.0</ele><time>2026-04-23T08:55:47.01Z</time></trkpt><trkpt lat="45.7658817" lon="11.3649433"><ele>868.0</ele><time>2026-04-23T08:55:48.01Z</time></trkpt><trkpt lat="45.7658617" lon="11.36483"><ele>868.0</ele><time>2026-04-23T08:55:49.011Z</time></trkpt><trkpt lat="45.7658417" lon="11.36473"><ele>868.0</ele><time>2026-04-23T08:55:50.011Z</time></trkpt><trkpt lat="45.7658517" lon="11.3645433"><ele>868.0</ele><time>2026-04-23T08:55:52.011Z</time></trkpt><trkpt lat="45.7658867" lon="11.3643933"><ele>868.0</ele><time>2026-04-23T08:55:54.01Z</time></trkpt><trkpt lat="45.7659183" lon="11.3643117"><ele>867.9999999999999</ele><time>2026-04-23T08:55:55.01Z</time></trkpt><trkpt lat="45.7660167" lon="11.3641867"><ele>868.0</ele><time>2026-04-23T08:55:57.01Z</time></trkpt><trkpt lat="45.7660833" lon="11.3641183"><ele>868.0</ele><time>2026-04-23T08:55:58.01Z</time></trkpt><trkpt lat="45.7661417" lon="11.364045"><ele>868.0</ele><time>2026-04-23T08:55:59.01Z</time></trkpt><trkpt lat="45.766195" lon="11.3639667"><ele>867.9999999999999</ele><time>2026-04-23T08:56:00.011Z</time></trkpt><trkpt lat="45.766235" lon="11.3638933"><ele>868.0</ele><time>2026-04-23T08:56:01.01Z</time></trkpt><trkpt lat="45.7663033" lon="11.36375"><ele>869.8</ele><time>2026-04-23T08:56:03.01Z</time></trkpt><trkpt lat="45.7663383" lon="11.3635933"><ele>871.5999999999999</ele><time>2026-04-23T08:56:05.01Z</time></trkpt><trkpt lat="45.766385" lon="11.3635017"><ele>873.4000000000001</ele><time>2026-04-23T08:56:07.01Z</time></trkpt><trkpt lat="45.7664633" lon="11.36339"><ele>875.2</ele><time>2026-04-23T08:56:09.01Z</time></trkpt><trkpt lat="45.7665267" lon="11.363305"><ele>877.0</ele><time>2026-04-23T08:56:10.01Z</time></trkpt><trkpt lat="45.766595" lon="11.3632067"><ele>876.3333333333333</ele><time>2026-04-23T08:56:11.01Z</time></trkpt><trkpt lat="45.7667617" lon="11.3629817"><ele>875.6666666666667</ele><time>2026-04-23T08:56:13.01Z</time></trkpt><trkpt lat="45.7668517" lon="11.3628667"><ele>875.0</ele><time>2026-04-23T08:56:14.011Z</time></trkpt><trkpt lat="45.76693" lon="11.3627717"><ele>875.0000000000001</ele><time>2026-04-23T08:56:15.01Z</time></trkpt><trkpt lat="45.7670067" lon="11.3626733"><ele>875.0</ele><time>2026-04-23T08:56:16.01Z</time></trkpt><trkpt lat="45.767065" lon="11.3626"><ele>875.0</ele><time>2026-04-23T08:56:17.01Z</time></trkpt><trkpt lat="45.7671233" lon="11.3625467"><ele>875.0</ele><time>2026-04-23T08:56:18.01Z</time></trkpt><trkpt lat="45.7671767" lon="11.3624933"><ele>875.0000000000001</ele><time>2026-04-23T08:56:19.01Z</time></trkpt><trkpt lat="45.7672933" lon="11.3624733"><ele>875.0</ele><time>2026-04-23T08:56:21.01Z</time></trkpt><trkpt lat="45.7673583" lon="11.3624667"><ele>875.0000000000001</ele><time>2026-04-23T08:56:22.01Z</time></trkpt><trkpt lat="45.76748" lon="11.362435"><ele>875.0</ele><time>2026-04-23T08:56:24.01Z</time></trkpt><trkpt lat="45.7675533" lon="11.36241"><ele>875.0</ele><time>2026-04-23T08:56:25.01Z</time></trkpt><trkpt lat="45.7676167" lon="11.362355"><ele>875.0</ele><time>2026-04-23T08:56:26.01Z</time></trkpt><trkpt lat="45.7676817" lon="11.36228"><ele>875.0000000000001</ele><time>2026-04-23T08:56:27.01Z</time></trkpt><trkpt lat="45.7677283" lon="11.3622133"><ele>875.0</ele><time>2026-04-23T08:56:28.01Z</time></trkpt><trkpt lat="45.76779" lon="11.362115"><ele>878.0</ele><time>2026-04-23T08:56:29.01Z</time></trkpt><trkpt lat="45.7678517" lon="11.3620217"><ele>881.0</ele><time>2026-04-23T08:56:30.01Z</time></trkpt><trkpt lat="45.7679117" lon="11.3618817"><ele>884.0</ele><time>2026-04-23T08:56:31.01Z</time></trkpt><trkpt lat="45.767965" lon="11.3617483"><ele>887.0</ele><time>2026-04-23T08:56:32.011Z</time></trkpt><trkpt lat="45.76809" lon="11.361485"><ele>886.2</ele><time>2026-04-23T08:56:34.011Z</time></trkpt><trkpt lat="45.768155" lon="11.3613617"><ele>885.4000000000001</ele><time>2026-04-23T08:56:35.01Z</time></trkpt><trkpt lat="45.7682283" lon="11.3612517"><ele>884.5999999999999</ele><time>2026-04-23T08:56:36.011Z</time></trkpt><trkpt lat="45.7683" lon="11.3611333"><ele>883.8</ele><time>2026-04-23T08:56:37.011Z</time></trkpt><trkpt lat="45.7683717" lon="11.3610083"><ele>883.0</ele><time>2026-04-23T08:56:38.01Z</time></trkpt><trkpt lat="45.768445" lon="11.3608467"><ele>883.0</ele><time>2026-04-23T08:56:39.01Z</time></trkpt><trkpt lat="45.76851" lon="11.3606933"><ele>883.0</ele><time>2026-04-23T08:56:40.01Z</time></trkpt><trkpt lat="45.7685667" lon="11.3605633"><ele>883.0</ele><time>2026-04-23T08:56:41.011Z</time></trkpt><trkpt lat="45.7686133" lon="11.360435"><ele>883.0</ele><time>2026-04-23T08:56:42.01Z</time></trkpt><trkpt lat="45.7686467" lon="11.360285"><ele>883.0</ele><time>2026-04-23T08:56:43.01Z</time></trkpt><trkpt lat="45.76867" lon="11.36013"><ele>888.5999999999999</ele><time>2026-04-23T08:56:44.01Z</time></trkpt><trkpt lat="45.7686833" lon="11.35998"><ele>894.1999999999999</ele><time>2026-04-23T08:56:45.01Z</time></trkpt><trkpt lat="45.768705" lon="11.3598233"><ele>899.8</ele><time>2026-04-23T08:56:46.01Z</time></trkpt><trkpt lat="45.7687167" lon="11.359685"><ele>905.4</ele><time>2026-04-23T08:56:47.01Z</time></trkpt><trkpt lat="45.7687167" lon="11.3595467"><ele>911.0</ele><time>2026-04-23T08:56:48.01Z</time></trkpt><trkpt lat="45.7687183" lon="11.3594217"><ele>911.5999999999999</ele><time>2026-04-23T08:56:49.01Z</time></trkpt><trkpt lat="45.7687233" lon="11.3593"><ele>912.1999999999999</ele><time>2026-04-23T08:56:50.01Z</time></trkpt><trkpt lat="45.768745" lon="11.3591767"><ele>912.8000000000001</ele><time>2026-04-23T08:56:51.01Z</time></trkpt><trkpt lat="45.7687633" lon="11.359045"><ele>913.4000000000001</ele><time>2026-04-23T08:56:52.011Z</time></trkpt><trkpt lat="45.76879" lon="11.35893"><ele>914.0</ele><time>2026-04-23T08:56:53.01Z</time></trkpt><trkpt lat="45.7688983" lon="11.35866"><ele>911.0</ele><time>2026-04-23T08:56:55.009Z</time></trkpt><trkpt lat="45.7689733" lon="11.35848"><ele>908.0</ele><time>2026-04-23T08:56:56.009Z</time></trkpt><trkpt lat="45.7690383" lon="11.3582433"><ele>905.0</ele><time>2026-04-23T08:56:57.009Z</time></trkpt><trkpt lat="45.7691" lon="11.3580517"><ele>901.5</ele><time>2026-04-23T08:56:58.01Z</time></trkpt><trkpt lat="45.7691483" lon="11.3578983"><ele>898.0</ele><time>2026-04-23T08:56:59.01Z</time></trkpt><trkpt lat="45.76917" lon="11.3576967"><ele>894.5</ele><time>2026-04-23T08:57:00.009Z</time></trkpt><trkpt lat="45.7691867" lon="11.357525"><ele>891.0</ele><time>2026-04-23T08:57:01.009Z</time></trkpt><trkpt lat="45.7691917" lon="11.357335"><ele>889.8</ele><time>2026-04-23T08:57:02.009Z</time></trkpt><trkpt lat="45.7692067" lon="11.3571567"><ele>888.5999999999999</ele><time>2026-04-23T08:57:03.009Z</time></trkpt><trkpt lat="45.76921" lon="11.3570083"><ele>887.4</ele><time>2026-04-23T08:57:04.009Z</time></trkpt><trkpt lat="45.7692183" lon="11.356885"><ele>886.2</ele><time>2026-04-23T08:57:05.009Z</time></trkpt><trkpt lat="45.76922" lon="11.3567683"><ele>885.0</ele><time>2026-04-23T08:57:06.009Z</time></trkpt><trkpt lat="45.76922" lon="11.356585"><ele>885.0</ele><time>2026-04-23T08:57:08.009Z</time></trkpt><trkpt lat="45.769235" lon="11.3564233"><ele>885.0</ele><time>2026-04-23T08:57:10.01Z</time></trkpt><trkpt lat="45.7692667" lon="11.3562617"><ele>885.0</ele><time>2026-04-23T08:57:12.01Z</time></trkpt><trkpt lat="45.7692967" lon="11.3561667"><ele>885.0</ele><time>2026-04-23T08:57:13.01Z</time></trkpt><trkpt lat="45.7693283" lon="11.356055"><ele>885.0</ele><time>2026-04-23T08:57:14.009Z</time></trkpt><trkpt lat="45.769405" lon="11.3557467"><ele>895.3333333333333</ele><time>2026-04-23T08:57:16.01Z</time></trkpt><trkpt lat="45.7694367" lon="11.355525"><ele>905.6666666666666</ele><time>2026-04-23T08:57:17.009Z</time></trkpt><trkpt lat="45.7694717" lon="11.35531"><ele>916.0</ele><time>2026-04-23T08:57:18.009Z</time></trkpt><trkpt lat="45.7694983" lon="11.3550933"><ele>916.0</ele><time>2026-04-23T08:57:19.009Z</time></trkpt><trkpt lat="45.769525" lon="11.3548967"><ele>916.0</ele><time>2026-04-23T08:57:20.009Z</time></trkpt><trkpt lat="45.7695767" lon="11.3547167"><ele>916.0</ele><time>2026-04-23T08:57:21.009Z</time></trkpt><trkpt lat="45.7696367" lon="11.3545483"><ele>916.0</ele><time>2026-04-23T08:57:22.009Z</time></trkpt><trkpt lat="45.7697117" lon="11.3543567"><ele>911.5</ele><time>2026-04-23T08:57:23.01Z</time></trkpt><trkpt lat="45.769785" lon="11.3541767"><ele>907.0</ele><time>2026-04-23T08:57:24.009Z</time></trkpt><trkpt lat="45.769845" lon="11.3540317"><ele>902.5</ele><time>2026-04-23T08:57:25.009Z</time></trkpt><trkpt lat="45.7698983" lon="11.3538617"><ele>898.0</ele><time>2026-04-23T08:57:26.009Z</time></trkpt><trkpt lat="45.7699483" lon="11.353675"><ele>897.25</ele><time>2026-04-23T08:57:27.01Z</time></trkpt><trkpt lat="45.7700183" lon="11.35352"><ele>896.5</ele><time>2026-04-23T08:57:28.009Z</time></trkpt><trkpt lat="45.7701017" lon="11.3533733"><ele>895.75</ele><time>2026-04-23T08:57:29.009Z</time></trkpt><trkpt lat="45.7702033" lon="11.353215"><ele>895.0</ele><time>2026-04-23T08:57:30.009Z</time></trkpt><trkpt lat="45.7703167" lon="11.3530383"><ele>895.0</ele><time>2026-04-23T08:57:31.01Z</time></trkpt><trkpt lat="45.7704317" lon="11.3528583"><ele>895.0</ele><time>2026-04-23T08:57:32.01Z</time></trkpt><trkpt lat="45.770545" lon="11.35269"><ele>895.0</ele><time>2026-04-23T08:57:33.01Z</time></trkpt><trkpt lat="45.7706517" lon="11.3525133"><ele>895.0</ele><time>2026-04-23T08:57:34.01Z</time></trkpt><trkpt lat="45.7707483" lon="11.3523533"><ele>895.0</ele><time>2026-04-23T08:57:35.009Z</time></trkpt><trkpt lat="45.7708783" lon="11.3520933"><ele>895.0</ele><time>2026-04-23T08:57:37.009Z</time></trkpt><trkpt lat="45.7709067" lon="11.3519517"><ele>893.2</ele><time>2026-04-23T08:57:38.009Z</time></trkpt><trkpt lat="45.7709283" lon="11.3518233"><ele>891.4</ele><time>2026-04-23T08:57:39.009Z</time></trkpt><trkpt lat="45.7709283" lon="11.35168"><ele>889.5999999999999</ele><time>2026-04-23T08:57:40.009Z</time></trkpt><trkpt lat="45.7709083" lon="11.3515417"><ele>887.8</ele><time>2026-04-23T08:57:41.009Z</time></trkpt><trkpt lat="45.770855" lon="11.3514167"><ele>886.0</ele><time>2026-04-23T08:57:42.009Z</time></trkpt><trkpt lat="45.7707717" lon="11.351285"><ele>891.0</ele><time>2026-04-23T08:57:43.009Z</time></trkpt><trkpt lat="45.7706717" lon="11.3511633"><ele>896.0</ele><time>2026-04-23T08:57:44.009Z</time></trkpt><trkpt lat="45.7705617" lon="11.3510583"><ele>901.0</ele><time>2026-04-23T08:57:45.009Z</time></trkpt><trkpt lat="45.770435" lon="11.3509833"><ele>906.0</ele><time>2026-04-23T08:57:46.009Z</time></trkpt><trkpt lat="45.770275" lon="11.3508967"><ele>899.25</ele><time>2026-04-23T08:57:47.009Z</time></trkpt><trkpt lat="45.7701367" lon="11.35083"><ele>892.5</ele><time>2026-04-23T08:57:48.009Z</time></trkpt><trkpt lat="45.7700033" lon="11.350805"><ele>885.75</ele><time>2026-04-23T08:57:49.01Z</time></trkpt><trkpt lat="45.7698617" lon="11.3507667"><ele>879.0</ele><time>2026-04-23T08:57:50.01Z</time></trkpt><trkpt lat="45.76976" lon="11.35075"><ele>879.0</ele><time>2026-04-23T08:57:51.009Z</time></trkpt><trkpt lat="45.7696733" lon="11.3507283"><ele>879.0</ele><time>2026-04-23T08:57:52.009Z</time></trkpt><trkpt lat="45.7695983" lon="11.3507017"><ele>879.0</ele><time>2026-04-23T08:57:53.009Z</time></trkpt><trkpt lat="45.7695267" lon="11.3506617"><ele>879.0</ele><time>2026-04-23T08:57:54.009Z</time></trkpt><trkpt lat="45.76948" lon="11.3505783"><ele>879.0</ele><time>2026-04-23T08:57:55.009Z</time></trkpt><trkpt lat="45.7694233" lon="11.3504933"><ele>879.0</ele><time>2026-04-23T08:57:56.009Z</time></trkpt><trkpt lat="45.769295" lon="11.35033"><ele>877.8000000000001</ele><time>2026-04-23T08:57:58.009Z</time></trkpt><trkpt lat="45.7692117" lon="11.3502567"><ele>876.6000000000001</ele><time>2026-04-23T08:57:59.009Z</time></trkpt><trkpt lat="45.7691317" lon="11.3502033"><ele>875.4</ele><time>2026-04-23T08:58:00.009Z</time></trkpt><trkpt lat="45.769055" lon="11.350155"><ele>874.2</ele><time>2026-04-23T08:58:01.01Z</time></trkpt><trkpt lat="45.7689967" lon="11.3501117"><ele>873.0</ele><time>2026-04-23T08:58:02.009Z</time></trkpt><trkpt lat="45.7689017" lon="11.3500033"><ele>873.0</ele><time>2026-04-23T08:58:04.01Z</time></trkpt><trkpt lat="45.7688717" lon="11.3499167"><ele>873.0</ele><time>2026-04-23T08:58:05.01Z</time></trkpt><trkpt lat="45.768835" lon="11.3498117"><ele>873.0</ele><time>2026-04-23T08:58:06.01Z</time></trkpt><trkpt lat="45.7688" lon="11.3496833"><ele>873.0</ele><time>2026-04-23T08:58:07.009Z</time></trkpt><trkpt lat="45.768755" lon="11.3495683"><ele>873.0</ele><time>2026-04-23T08:58:08.009Z</time></trkpt><trkpt lat="45.768715" lon="11.3494883"><ele>873.0</ele><time>2026-04-23T08:58:09.009Z</time></trkpt><trkpt lat="45.7686417" lon="11.3493667"><ele>876.5</ele><time>2026-04-23T08:58:10.01Z</time></trkpt><trkpt lat="45.7686083" lon="11.3492767"><ele>880.0</ele><time>2026-04-23T08:58:11.009Z</time></trkpt><trkpt lat="45.7685417" lon="11.3491183"><ele>883.5</ele><time>2026-04-23T08:58:12.009Z</time></trkpt><trkpt lat="45.7684633" lon="11.3489217"><ele>887.0</ele><time>2026-04-23T08:58:13.009Z</time></trkpt><trkpt lat="45.7683817" lon="11.3487517"><ele>879.25</ele><time>2026-04-23T08:58:14.009Z</time></trkpt><trkpt lat="45.7683" lon="11.3486183"><ele>871.5</ele><time>2026-04-23T08:58:15.009Z</time></trkpt><trkpt lat="45.76822" lon="11.3484967"><ele>863.75</ele><time>2026-04-23T08:58:16.009Z</time></trkpt><trkpt lat="45.768135" lon="11.3483833"><ele>856.0</ele><time>2026-04-23T08:58:17.009Z</time></trkpt><trkpt lat="45.7680117" lon="11.3481867"><ele>856.0</ele><time>2026-04-23T08:58:19.009Z</time></trkpt><trkpt lat="45.767965" lon="11.3480417"><ele>855.9999999999999</ele><time>2026-04-23T08:58:20.009Z</time></trkpt><trkpt lat="45.7679367" lon="11.347905"><ele>855.9999999999999</ele><time>2026-04-23T08:58:21.009Z</time></trkpt><trkpt lat="45.7679283" lon="11.3477617"><ele>856.0</ele><time>2026-04-23T08:58:22.009Z</time></trkpt><trkpt lat="45.7679317" lon="11.3476117"><ele>856.0</ele><time>2026-04-23T08:58:23.009Z</time></trkpt><trkpt lat="45.7679417" lon="11.3474633"><ele>856.0</ele><time>2026-04-23T08:58:24.009Z</time></trkpt><trkpt lat="45.767965" lon="11.3473167"><ele>855.9999999999999</ele><time>2026-04-23T08:58:25.01Z</time></trkpt><trkpt lat="45.767965" lon="11.3471817"><ele>855.9999999999999</ele><time>2026-04-23T08:58:26.009Z</time></trkpt><trkpt lat="45.7679533" lon="11.3470467"><ele>856.0</ele><time>2026-04-23T08:58:27.009Z</time></trkpt><trkpt lat="45.7679283" lon="11.3469083"><ele>856.0</ele><time>2026-04-23T08:58:28.009Z</time></trkpt><trkpt lat="45.76788" lon="11.3467617"><ele>854.4</ele><time>2026-04-23T08:58:29.01Z</time></trkpt><trkpt lat="45.767825" lon="11.3466417"><ele>852.8</ele><time>2026-04-23T08:58:30.009Z</time></trkpt><trkpt lat="45.767785" lon="11.3465267"><ele>851.1999999999999</ele><time>2026-04-23T08:58:31.009Z</time></trkpt><trkpt lat="45.7677567" lon="11.3464067"><ele>849.5999999999999</ele><time>2026-04-23T08:58:32.009Z</time></trkpt><trkpt lat="45.7677467" lon="11.34629"><ele>848.0</ele><time>2026-04-23T08:58:33.009Z</time></trkpt><trkpt lat="45.76775" lon="11.3461617"><ele>847.0</ele><time>2026-04-23T08:58:34.009Z</time></trkpt><trkpt lat="45.76776" lon="11.3460317"><ele>846.0</ele><time>2026-04-23T08:58:35.009Z</time></trkpt><trkpt lat="45.767785" lon="11.3459017"><ele>845.0</ele><time>2026-04-23T08:58:36.009Z</time></trkpt><trkpt lat="45.7678467" lon="11.3457317"><ele>844.0</ele><time>2026-04-23T08:58:37.009Z</time></trkpt><trkpt lat="45.767935" lon="11.3455267"><ele>839.0</ele><time>2026-04-23T08:58:38.01Z</time></trkpt><trkpt lat="45.7680967" lon="11.3451183"><ele>834.0</ele><time>2026-04-23T08:58:40.009Z</time></trkpt><trkpt lat="45.7681567" lon="11.3449433"><ele>834.0</ele><time>2026-04-23T08:58:41.009Z</time></trkpt><trkpt lat="45.7682067" lon="11.344785"><ele>834.0</ele><time>2026-04-23T08:58:42.009Z</time></trkpt><trkpt lat="45.7682267" lon="11.34465"><ele>834.0</ele><time>2026-04-23T08:58:43.009Z</time></trkpt><trkpt lat="45.7682533" lon="11.34452"><ele>834.0</ele><time>2026-04-23T08:58:44.009Z</time></trkpt><trkpt lat="45.768245" lon="11.3443917"><ele>834.0</ele><time>2026-04-23T08:58:45.009Z</time></trkpt><trkpt lat="45.7682317" lon="11.3442467"><ele>833.2</ele><time>2026-04-23T08:58:46.01Z</time></trkpt><trkpt lat="45.7681983" lon="11.34413"><ele>832.4000000000001</ele><time>2026-04-23T08:58:47.01Z</time></trkpt><trkpt lat="45.7681583" lon="11.3440167"><ele>831.6</ele><time>2026-04-23T08:58:48.009Z</time></trkpt><trkpt lat="45.7680833" lon="11.3439217"><ele>830.8</ele><time>2026-04-23T08:58:49.009Z</time></trkpt><trkpt lat="45.7679933" lon="11.34384"><ele>830.0</ele><time>2026-04-23T08:58:50.009Z</time></trkpt><trkpt lat="45.7679" lon="11.3437933"><ele>833.0</ele><time>2026-04-23T08:58:51.009Z</time></trkpt><trkpt lat="45.7678033" lon="11.343725"><ele>836.0</ele><time>2026-04-23T08:58:52.009Z</time></trkpt><trkpt lat="45.7677133" lon="11.3436567"><ele>839.0</ele><time>2026-04-23T08:58:53.009Z</time></trkpt><trkpt lat="45.7676467" lon="11.343565"><ele>842.0</ele><time>2026-04-23T08:58:54.009Z</time></trkpt><trkpt lat="45.7675717" lon="11.34347"><ele>845.0</ele><time>2026-04-23T08:58:55.009Z</time></trkpt><trkpt lat="45.767525" lon="11.3434"><ele>842.0000000000001</ele><time>2026-04-23T08:58:56.009Z</time></trkpt><trkpt lat="45.7674783" lon="11.3433283"><ele>839.0</ele><time>2026-04-23T08:58:58.009Z</time></trkpt><trkpt lat="45.767435" lon="11.343245"><ele>836.0</ele><time>2026-04-23T08:59:00.009Z</time></trkpt><trkpt lat="45.76738" lon="11.3430517"><ele>833.0</ele><time>2026-04-23T08:59:04.01Z</time></trkpt><trkpt lat="45.767385" lon="11.3429417"><ele>830.0000000000001</ele><time>2026-04-23T08:59:06.009Z</time></trkpt><trkpt lat="45.7674083" lon="11.3428333"><ele>827.0</ele><time>2026-04-23T08:59:09.009Z</time></trkpt><trkpt lat="45.76743" lon="11.3427083"><ele>827.0000000000001</ele><time>2026-04-23T08:59:12.009Z</time></trkpt><trkpt lat="45.7674467" lon="11.3426117"><ele>827.0</ele><time>2026-04-23T08:59:14.009Z</time></trkpt><trkpt lat="45.76745" lon="11.3425167"><ele>827.0</ele><time>2026-04-23T08:59:16.009Z</time></trkpt><trkpt lat="45.767465" lon="11.3424167"><ele>827.0</ele><time>2026-04-23T08:59:18.009Z</time></trkpt><trkpt lat="45.7674867" lon="11.3423067"><ele>827.0000000000001</ele><time>2026-04-23T08:59:20.009Z</time></trkpt><trkpt lat="45.7675117" lon="11.3422083"><ele>827.0</ele><time>2026-04-23T08:59:22.009Z</time></trkpt><trkpt lat="45.7675617" lon="11.341955"><ele>827.6666666666667</ele><time>2026-04-23T08:59:26.009Z</time></trkpt><trkpt lat="45.7675917" lon="11.3418583"><ele>828.3333333333334</ele><time>2026-04-23T08:59:28.01Z</time></trkpt><trkpt lat="45.7676217" lon="11.341755"><ele>829.0</ele><time>2026-04-23T08:59:30.009Z</time></trkpt><trkpt lat="45.767645" lon="11.341655"><ele>829.6666666666667</ele><time>2026-04-23T08:59:32.009Z</time></trkpt><trkpt lat="45.7676717" lon="11.341555"><ele>830.3333333333334</ele><time>2026-04-23T08:59:34.009Z</time></trkpt><trkpt lat="45.7676883" lon="11.3413667"><ele>831.0</ele><time>2026-04-23T08:59:36.01Z</time></trkpt><trkpt lat="45.7677067" lon="11.3412067"><ele>843.5</ele><time>2026-04-23T08:59:38.009Z</time></trkpt><trkpt lat="45.7677167" lon="11.3410783"><ele>856.0</ele><time>2026-04-23T08:59:40.009Z</time></trkpt><trkpt lat="45.7677267" lon="11.3409383"><ele>868.5</ele><time>2026-04-23T08:59:42.009Z</time></trkpt><trkpt lat="45.7677267" lon="11.3408033"><ele>881.0</ele><time>2026-04-23T08:59:44.01Z</time></trkpt><trkpt lat="45.767725" lon="11.34052"><ele>883.1999999999999</ele><time>2026-04-23T08:59:48.009Z</time></trkpt><trkpt lat="45.7677233" lon="11.340365"><ele>885.3999999999999</ele><time>2026-04-23T08:59:50.009Z</time></trkpt><trkpt lat="45.7677117" lon="11.3402"><ele>887.6</ele><time>2026-04-23T08:59:52.009Z</time></trkpt><trkpt lat="45.7677" lon="11.3400333"><ele>889.8</ele><time>2026-04-23T08:59:54.009Z</time></trkpt><trkpt lat="45.767695" lon="11.33994"><ele>892.0</ele><time>2026-04-23T08:59:55.01Z</time></trkpt><trkpt lat="45.7677" lon="11.3397683"><ele>893.0</ele><time>2026-04-23T08:59:57.009Z</time></trkpt><trkpt lat="45.7677133" lon="11.3395967"><ele>894.0</ele><time>2026-04-23T08:59:59.009Z</time></trkpt><trkpt lat="45.7677217" lon="11.3394333"><ele>895.0</ele><time>2026-04-23T09:00:01.009Z</time></trkpt><trkpt lat="45.767725" lon="11.3392833"><ele>896.0</ele><time>2026-04-23T09:00:03.009Z</time></trkpt><trkpt lat="45.767715" lon="11.3391467"><ele>897.0</ele><time>2026-04-23T09:00:05.01Z</time></trkpt><trkpt lat="45.767695" lon="11.33891"><ele>886.5</ele><time>2026-04-23T09:00:09.009Z</time></trkpt><trkpt lat="45.76768" lon="11.3387917"><ele>876.0</ele><time>2026-04-23T09:00:39.008Z</time></trkpt><trkpt lat="45.7676933" lon="11.33854"><ele>865.5</ele><time>2026-04-23T09:00:44.009Z</time></trkpt><trkpt lat="45.7676667" lon="11.3383683"><ele>855.0</ele><time>2026-04-23T09:00:46.008Z</time></trkpt><trkpt lat="45.767645" lon="11.3382"><ele>855.4</ele><time>2026-04-23T09:00:48.008Z</time></trkpt><trkpt lat="45.7676433" lon="11.3380467"><ele>855.8</ele><time>2026-04-23T09:00:50.008Z</time></trkpt><trkpt lat="45.7676733" lon="11.33793"><ele>856.2</ele><time>2026-04-23T09:00:52.008Z</time></trkpt><trkpt lat="45.7677017" lon="11.3378117"><ele>856.6</ele><time>2026-04-23T09:00:54.009Z</time></trkpt><trkpt lat="45.76773" lon="11.3377067"><ele>857.0</ele><time>2026-04-23T09:00:56.009Z</time></trkpt><trkpt lat="45.7677733" lon="11.3375733"><ele>865.25</ele><time>2026-04-23T09:00:58.008Z</time></trkpt><trkpt lat="45.7678283" lon="11.3374533"><ele>873.5</ele><time>2026-04-23T09:01:00.008Z</time></trkpt><trkpt lat="45.7679717" lon="11.3372217"><ele>881.75</ele><time>2026-04-23T09:01:04.008Z</time></trkpt><trkpt lat="45.7680283" lon="11.3370917"><ele>890.0</ele><time>2026-04-23T09:01:10.008Z</time></trkpt><trkpt lat="45.7680683" lon="11.337015"><ele>890.0000000000001</ele><time>2026-04-23T09:01:12.008Z</time></trkpt><trkpt lat="45.7680717" lon="11.336895"><ele>890.0</ele><time>2026-04-23T09:01:14.008Z</time></trkpt><trkpt lat="45.768035" lon="11.3367217"><ele>890.0</ele><time>2026-04-23T09:01:16.008Z</time></trkpt><trkpt lat="45.7680117" lon="11.3366183"><ele>890.0</ele><time>2026-04-23T09:01:17.008Z</time></trkpt><trkpt lat="45.7679917" lon="11.3365233"><ele>890.0000000000001</ele><time>2026-04-23T09:01:18.008Z</time></trkpt><trkpt lat="45.767965" lon="11.3364233"><ele>890.0</ele><time>2026-04-23T09:01:19.008Z</time></trkpt><trkpt lat="45.7679333" lon="11.3363417"><ele>890.25</ele><time>2026-04-23T09:01:20.009Z</time></trkpt><trkpt lat="45.7678833" lon="11.3361933"><ele>890.5</ele><time>2026-04-23T09:01:22.008Z</time></trkpt><trkpt lat="45.7678717" lon="11.3359283"><ele>890.75</ele><time>2026-04-23T09:01:26.009Z</time></trkpt><trkpt lat="45.76782" lon="11.33584"><ele>891.0</ele><time>2026-04-23T09:01:28.008Z</time></trkpt><trkpt lat="45.7677083" lon="11.3357933"><ele>890.1999999999999</ele><time>2026-04-23T09:01:30.008Z</time></trkpt><trkpt lat="45.767595" lon="11.33575"><ele>889.3999999999999</ele><time>2026-04-23T09:01:32.009Z</time></trkpt><trkpt lat="45.7674917" lon="11.33567"><ele>888.6</ele><time>2026-04-23T09:01:34.008Z</time></trkpt><trkpt lat="45.7674117" lon="11.3355767"><ele>887.8</ele><time>2026-04-23T09:01:36.008Z</time></trkpt><trkpt lat="45.7673333" lon="11.335465"><ele>887.0</ele><time>2026-04-23T09:01:38.008Z</time></trkpt><trkpt lat="45.76724" lon="11.335355"><ele>887.0</ele><time>2026-04-23T09:01:40.008Z</time></trkpt><trkpt lat="45.7671983" lon="11.335285"><ele>887.0</ele><time>2026-04-23T09:01:41.008Z</time></trkpt><trkpt lat="45.7671217" lon="11.3351583"><ele>887.0</ele><time>2026-04-23T09:01:43.008Z</time></trkpt><trkpt lat="45.7669633" lon="11.334975"><ele>887.0</ele><time>2026-04-23T09:01:47.008Z</time></trkpt><trkpt lat="45.766875" lon="11.3349333"><ele>886.0000000000001</ele><time>2026-04-23T09:01:49.008Z</time></trkpt><trkpt lat="45.76682" lon="11.3348333"><ele>885.0</ele><time>2026-04-23T09:01:51.008Z</time></trkpt><trkpt lat="45.76674" lon="11.3347333"><ele>884.0</ele><time>2026-04-23T09:01:53.008Z</time></trkpt><trkpt lat="45.76668" lon="11.3346817"><ele>883.0</ele><time>2026-04-23T09:01:54.008Z</time></trkpt><trkpt lat="45.76662" lon="11.3345917"><ele>882.0000000000001</ele><time>2026-04-23T09:01:55.008Z</time></trkpt><trkpt lat="45.7665433" lon="11.334515"><ele>881.0</ele><time>2026-04-23T09:01:56.008Z</time></trkpt><trkpt lat="45.7664883" lon="11.3344333"><ele>881.0000000000001</ele><time>2026-04-23T09:01:57.008Z</time></trkpt><trkpt lat="45.7664317" lon="11.334345"><ele>881.0</ele><time>2026-04-23T09:01:58.008Z</time></trkpt><trkpt lat="45.7663767" lon="11.3342483"><ele>881.0</ele><time>2026-04-23T09:01:59.008Z</time></trkpt><trkpt lat="45.7663267" lon="11.334145"><ele>881.0</ele><time>2026-04-23T09:02:00.009Z</time></trkpt><trkpt lat="45.766295" lon="11.3340467"><ele>881.0000000000001</ele><time>2026-04-23T09:02:01.009Z</time></trkpt><trkpt lat="45.7662733" lon="11.3339517"><ele>881.0</ele><time>2026-04-23T09:02:02.008Z</time></trkpt><trkpt lat="45.7662517" lon="11.3338567"><ele>883.4</ele><time>2026-04-23T09:02:03.008Z</time></trkpt><trkpt lat="45.7662483" lon="11.3337083"><ele>885.8</ele><time>2026-04-23T09:02:05.008Z</time></trkpt><trkpt lat="45.7662817" lon="11.3334583"><ele>888.1999999999999</ele><time>2026-04-23T09:02:08.008Z</time></trkpt><trkpt lat="45.7662817" lon="11.333355"><ele>890.5999999999999</ele><time>2026-04-23T09:02:09.008Z</time></trkpt><trkpt lat="45.7662567" lon="11.3332483"><ele>893.0</ele><time>2026-04-23T09:02:10.008Z</time></trkpt><trkpt lat="45.7662383" lon="11.33316"><ele>893.0</ele><time>2026-04-23T09:02:11.008Z</time></trkpt><trkpt lat="45.7662067" lon="11.3330817"><ele>893.0</ele><time>2026-04-23T09:02:12.008Z</time></trkpt><trkpt lat="45.76616" lon="11.3330183"><ele>893.0</ele><time>2026-04-23T09:02:13.008Z</time></trkpt><trkpt lat="45.7660483" lon="11.3329283"><ele>893.0</ele><time>2026-04-23T09:02:15.008Z</time></trkpt><trkpt lat="45.7659567" lon="11.33283"><ele>893.0</ele><time>2026-04-23T09:02:17.008Z</time></trkpt><trkpt lat="45.7658667" lon="11.3326883"><ele>893.5000000000001</ele><time>2026-04-23T09:02:19.008Z</time></trkpt><trkpt lat="45.7658167" lon="11.3326083"><ele>894.0</ele><time>2026-04-23T09:02:20.009Z</time></trkpt><trkpt lat="45.7657417" lon="11.3325183"><ele>894.5</ele><time>2026-04-23T09:02:21.008Z</time></trkpt><trkpt lat="45.7656917" lon="11.3324467"><ele>895.0</ele><time>2026-04-23T09:02:22.008Z</time></trkpt><trkpt lat="45.76564" lon="11.3323683"><ele>895.5000000000001</ele><time>2026-04-23T09:02:23.009Z</time></trkpt><trkpt lat="45.76559" lon="11.3322933"><ele>896.0</ele><time>2026-04-23T09:02:24.008Z</time></trkpt><trkpt lat="45.7655283" lon="11.332215"><ele>899.8</ele><time>2026-04-23T09:02:25.008Z</time></trkpt><trkpt lat="45.76546" lon="11.3321517"><ele>903.5999999999999</ele><time>2026-04-23T09:02:26.008Z</time></trkpt><trkpt lat="45.7653017" lon="11.332025"><ele>907.4</ele><time>2026-04-23T09:02:28.008Z</time></trkpt><trkpt lat="45.7652217" lon="11.3319567"><ele>911.2</ele><time>2026-04-23T09:02:29.008Z</time></trkpt><trkpt lat="45.76515" lon="11.3318833"><ele>915.0</ele><time>2026-04-23T09:02:30.008Z</time></trkpt><trkpt lat="45.7650767" lon="11.3317933"><ele>915.0</ele><time>2026-04-23T09:02:31.008Z</time></trkpt><trkpt lat="45.765" lon="11.3316933"><ele>915.0</ele><time>2026-04-23T09:02:32.008Z</time></trkpt><trkpt lat="45.7649267" lon="11.3315967"><ele>915.0</ele><time>2026-04-23T09:02:33.009Z</time></trkpt><trkpt lat="45.764845" lon="11.3315067"><ele>915.0</ele><time>2026-04-23T09:02:34.008Z</time></trkpt><trkpt lat="45.7647667" lon="11.3314217"><ele>915.0</ele><time>2026-04-23T09:02:35.008Z</time></trkpt><trkpt lat="45.7646967" lon="11.3313433"><ele>919.3333333333334</ele><time>2026-04-23T09:02:36.008Z</time></trkpt><trkpt lat="45.7646417" lon="11.3312783"><ele>923.6666666666667</ele><time>2026-04-23T09:02:37.008Z</time></trkpt><trkpt lat="45.7645917" lon="11.3312217"><ele>928.0</ele><time>2026-04-23T09:02:38.008Z</time></trkpt><trkpt lat="45.7645417" lon="11.3311483"><ele>932.3333333333334</ele><time>2026-04-23T09:02:39.008Z</time></trkpt><trkpt lat="45.7644917" lon="11.3310933"><ele>936.6666666666667</ele><time>2026-04-23T09:02:40.008Z</time></trkpt><trkpt lat="45.7644483" lon="11.3310217"><ele>941.0</ele><time>2026-04-23T09:02:41.008Z</time></trkpt><trkpt lat="45.7643967" lon="11.3308617"><ele>941.0000000000001</ele><time>2026-04-23T09:02:43.008Z</time></trkpt><trkpt lat="45.7643733" lon="11.33077"><ele>941.0</ele><time>2026-04-23T09:02:44.009Z</time></trkpt><trkpt lat="45.7643667" lon="11.3306733"><ele>941.0</ele><time>2026-04-23T09:02:45.008Z</time></trkpt><trkpt lat="45.764345" lon="11.33058"><ele>941.0</ele><time>2026-04-23T09:02:46.008Z</time></trkpt><trkpt lat="45.7643183" lon="11.3304883"><ele>941.0000000000001</ele><time>2026-04-23T09:02:47.008Z</time></trkpt><trkpt lat="45.7642383" lon="11.3303433"><ele>941.0</ele><time>2026-04-23T09:02:49.008Z</time></trkpt><trkpt lat="45.76413" lon="11.3302117"><ele>942.0000000000001</ele><time>2026-04-23T09:02:51.008Z</time></trkpt><trkpt lat="45.7640517" lon="11.33012"><ele>943.0</ele><time>2026-04-23T09:02:52.008Z</time></trkpt><trkpt lat="45.76398" lon="11.3300567"><ele>944.0</ele><time>2026-04-23T09:02:53.008Z</time></trkpt><trkpt lat="45.7638983" lon="11.3300017"><ele>945.0</ele><time>2026-04-23T09:02:54.008Z</time></trkpt><trkpt lat="45.7638083" lon="11.3299733"><ele>946.0000000000001</ele><time>2026-04-23T09:02:55.008Z</time></trkpt><trkpt lat="45.76373" lon="11.3299767"><ele>947.0</ele><time>2026-04-23T09:02:56.008Z</time></trkpt><trkpt lat="45.763655" lon="11.329975"><ele>947.0000000000001</ele><time>2026-04-23T09:02:57.009Z</time></trkpt><trkpt lat="45.76358" lon="11.3299767"><ele>947.0</ele><time>2026-04-23T09:02:58.008Z</time></trkpt><trkpt lat="45.7635067" lon="11.3299833"><ele>947.0</ele><time>2026-04-23T09:02:59.008Z</time></trkpt><trkpt lat="45.7634367" lon="11.3299917"><ele>947.0</ele><time>2026-04-23T09:03:00.008Z</time></trkpt><trkpt lat="45.7633333" lon="11.3299783"><ele>947.0000000000001</ele><time>2026-04-23T09:03:02.008Z</time></trkpt><trkpt lat="45.7632483" lon="11.3298683"><ele>947.0</ele><time>2026-04-23T09:03:04.009Z</time></trkpt><trkpt lat="45.7631817" lon="11.3297067"><ele>950.1666666666667</ele><time>2026-04-23T09:03:06.008Z</time></trkpt><trkpt lat="45.76316" lon="11.329615"><ele>953.3333333333334</ele><time>2026-04-23T09:03:07.008Z</time></trkpt><trkpt lat="45.7631483" lon="11.3295167"><ele>956.5</ele><time>2026-04-23T09:03:08.009Z</time></trkpt><trkpt lat="45.7631517" lon="11.32931"><ele>959.6666666666667</ele><time>2026-04-23T09:03:10.008Z</time></trkpt><trkpt lat="45.7631567" lon="11.3292183"><ele>962.8333333333334</ele><time>2026-04-23T09:03:11.009Z</time></trkpt><trkpt lat="45.7631483" lon="11.3291033"><ele>966.0</ele><time>2026-04-23T09:03:12.008Z</time></trkpt><trkpt lat="45.7631367" lon="11.3289917"><ele>971.0</ele><time>2026-04-23T09:03:13.008Z</time></trkpt><trkpt lat="45.7631" lon="11.32887"><ele>975.9999999999999</ele><time>2026-04-23T09:03:14.008Z</time></trkpt><trkpt lat="45.76306" lon="11.3287717"><ele>980.9999999999999</ele><time>2026-04-23T09:03:15.009Z</time></trkpt><trkpt lat="45.7630167" lon="11.3286933"><ele>986.0</ele><time>2026-04-23T09:03:16.008Z</time></trkpt><trkpt lat="45.7629183" lon="11.3286517"><ele>991.0</ele><time>2026-04-23T09:03:18.008Z</time></trkpt><trkpt lat="45.7627983" lon="11.3286833"><ele>990.9999999999999</ele><time>2026-04-23T09:03:20.009Z</time></trkpt><trkpt lat="45.7627367" lon="11.3287267"><ele>991.0</ele><time>2026-04-23T09:03:21.008Z</time></trkpt><trkpt lat="45.7626717" lon="11.3287733"><ele>991.0</ele><time>2026-04-23T09:03:22.008Z</time></trkpt><trkpt lat="45.7625667" lon="11.3288383"><ele>991.0</ele><time>2026-04-23T09:03:24.008Z</time></trkpt><trkpt lat="45.7624717" lon="11.3288367"><ele>990.9999999999999</ele><time>2026-04-23T09:03:26.008Z</time></trkpt><trkpt lat="45.7624033" lon="11.3287933"><ele>991.0</ele><time>2026-04-23T09:03:28.008Z</time></trkpt><trkpt lat="45.7623483" lon="11.3287067"><ele>989.8</ele><time>2026-04-23T09:03:30.008Z</time></trkpt><trkpt lat="45.7622567" lon="11.3284633"><ele>988.5999999999999</ele><time>2026-04-23T09:03:34.008Z</time></trkpt><trkpt lat="45.7622133" lon="11.3283767"><ele>987.4</ele><time>2026-04-23T09:03:36.008Z</time></trkpt><trkpt lat="45.7621317" lon="11.32832"><ele>986.2</ele><time>2026-04-23T09:03:38.008Z</time></trkpt><trkpt lat="45.7620683" lon="11.3282817"><ele>985.0</ele><time>2026-04-23T09:03:40.008Z</time></trkpt><trkpt lat="45.761995" lon="11.32823"><ele>985.0</ele><time>2026-04-23T09:03:43.008Z</time></trkpt><trkpt lat="45.7619417" lon="11.328165"><ele>985.0</ele><time>2026-04-23T09:03:45.008Z</time></trkpt><trkpt lat="45.761885" lon="11.3281067"><ele>985.0</ele><time>2026-04-23T09:03:47.008Z</time></trkpt><trkpt lat="45.761835" lon="11.328025"><ele>985.0</ele><time>2026-04-23T09:03:49.008Z</time></trkpt><trkpt lat="45.761785" lon="11.327915"><ele>985.0</ele><time>2026-04-23T09:03:52.008Z</time></trkpt><trkpt lat="45.7616767" lon="11.32772"><ele>986.9999999999999</ele><time>2026-04-23T09:03:56.008Z</time></trkpt><trkpt lat="45.761615" lon="11.327635"><ele>989.0</ele><time>2026-04-23T09:03:59.009Z</time></trkpt><trkpt lat="45.7615767" lon="11.327525"><ele>991.0</ele><time>2026-04-23T09:04:02.008Z</time></trkpt><trkpt lat="45.76153" lon="11.327405"><ele>993.0</ele><time>2026-04-23T09:04:09.008Z</time></trkpt><trkpt lat="45.76147" lon="11.327335"><ele>994.9999999999999</ele><time>2026-04-23T09:04:12.008Z</time></trkpt><trkpt lat="45.7614083" lon="11.3272933"><ele>997.0</ele><time>2026-04-23T09:04:15.008Z</time></trkpt><trkpt lat="45.76122" lon="11.3273433"><ele>997.0</ele><time>2026-04-23T09:04:28.008Z</time></trkpt><trkpt lat="45.7611633" lon="11.32747"><ele>997.0</ele><time>2026-04-23T09:04:31.008Z</time></trkpt><trkpt lat="45.76113" lon="11.3275983"><ele>997.0</ele><time>2026-04-23T09:04:33.008Z</time></trkpt><trkpt lat="45.7610933" lon="11.32772"><ele>997.0</ele><time>2026-04-23T09:04:35.008Z</time></trkpt><trkpt lat="45.7610333" lon="11.3278033"><ele>997.0</ele><time>2026-04-23T09:04:37.008Z</time></trkpt><trkpt lat="45.760835" lon="11.32788"><ele>998.4000000000001</ele><time>2026-04-23T09:04:41.009Z</time></trkpt><trkpt lat="45.7607533" lon="11.3279683"><ele>999.8000000000001</ele><time>2026-04-23T09:04:43.008Z</time></trkpt><trkpt lat="45.760705" lon="11.3280933"><ele>1001.2</ele><time>2026-04-23T09:04:45.007Z</time></trkpt><trkpt lat="45.7606367" lon="11.328205"><ele>1002.6</ele><time>2026-04-23T09:04:47.007Z</time></trkpt><trkpt lat="45.7605383" lon="11.3282683"><ele>1004.0</ele><time>2026-04-23T09:04:49.007Z</time></trkpt><trkpt lat="45.760445" lon="11.3282833"><ele>1007.25</ele><time>2026-04-23T09:04:51.007Z</time></trkpt><trkpt lat="45.7603333" lon="11.32822"><ele>1010.5</ele><time>2026-04-23T09:04:53.007Z</time></trkpt><trkpt lat="45.7602267" lon="11.3281333"><ele>1013.75</ele><time>2026-04-23T09:04:55.007Z</time></trkpt><trkpt lat="45.7601317" lon="11.32806"><ele>1017.0</ele><time>2026-04-23T09:04:57.008Z</time></trkpt><trkpt lat="45.760025" lon="11.3280533"><ele>1010.6666666666666</ele><time>2026-04-23T09:04:59.007Z</time></trkpt><trkpt lat="45.7598933" lon="11.3280833"><ele>1004.3333333333333</ele><time>2026-04-23T09:05:01.007Z</time></trkpt><trkpt lat="45.75983" lon="11.3280917"><ele>998.0</ele><time>2026-04-23T09:05:02.007Z</time></trkpt><trkpt lat="45.7597567" lon="11.3281"><ele>991.6666666666666</ele><time>2026-04-23T09:05:03.007Z</time></trkpt><trkpt lat="45.7596933" lon="11.3281033"><ele>985.3333333333333</ele><time>2026-04-23T09:05:04.007Z</time></trkpt><trkpt lat="45.75963" lon="11.3281167"><ele>979.0</ele><time>2026-04-23T09:05:05.008Z</time></trkpt><trkpt lat="45.759515" lon="11.3281583"><ele>979.0</ele><time>2026-04-23T09:05:07.007Z</time></trkpt><trkpt lat="45.7594517" lon="11.3282"><ele>979.0000000000001</ele><time>2026-04-23T09:05:08.007Z</time></trkpt><trkpt lat="45.7593967" lon="11.3282483"><ele>979.0000000000001</ele><time>2026-04-23T09:05:09.007Z</time></trkpt><trkpt lat="45.7592883" lon="11.32832"><ele>979.0</ele><time>2026-04-23T09:05:11.007Z</time></trkpt><trkpt lat="45.7591833" lon="11.3283483"><ele>979.0</ele><time>2026-04-23T09:05:13.007Z</time></trkpt><trkpt lat="45.759075" lon="11.328365"><ele>981.2</ele><time>2026-04-23T09:05:15.007Z</time></trkpt><trkpt lat="45.7589717" lon="11.3283583"><ele>983.4000000000001</ele><time>2026-04-23T09:05:17.007Z</time></trkpt><trkpt lat="45.75886" lon="11.3282967"><ele>985.6</ele><time>2026-04-23T09:05:19.007Z</time></trkpt><trkpt lat="45.7588" lon="11.32824"><ele>987.8</ele><time>2026-04-23T09:05:20.007Z</time></trkpt><trkpt lat="45.75868" lon="11.3281217"><ele>990.0</ele><time>2026-04-23T09:05:22.007Z</time></trkpt><trkpt lat="45.7585733" lon="11.3280033"><ele>991.2</ele><time>2026-04-23T09:05:24.007Z</time></trkpt><trkpt lat="45.7584767" lon="11.3278917"><ele>992.4</ele><time>2026-04-23T09:05:26.007Z</time></trkpt><trkpt lat="45.7584117" lon="11.3277833"><ele>993.5999999999999</ele><time>2026-04-23T09:05:28.007Z</time></trkpt><trkpt lat="45.7583533" lon="11.3276517"><ele>994.8</ele><time>2026-04-23T09:05:30.008Z</time></trkpt><trkpt lat="45.7583167" lon="11.3274983"><ele>996.0</ele><time>2026-04-23T09:05:32.007Z</time></trkpt><trkpt lat="45.7583067" lon="11.3274033"><ele>996.0</ele><time>2026-04-23T09:05:33.007Z</time></trkpt><trkpt lat="45.75829" lon="11.3273017"><ele>995.9999999999999</ele><time>2026-04-23T09:05:34.008Z</time></trkpt><trkpt lat="45.75828" lon="11.327195"><ele>996.0</ele><time>2026-04-23T09:05:35.007Z</time></trkpt><trkpt lat="45.7582917" lon="11.3271"><ele>996.0</ele><time>2026-04-23T09:05:36.007Z</time></trkpt><trkpt lat="45.7583017" lon="11.326995"><ele>995.9999999999999</ele><time>2026-04-23T09:05:37.008Z</time></trkpt><trkpt lat="45.75831" lon="11.3268883"><ele>996.0</ele><time>2026-04-23T09:05:38.007Z</time></trkpt><trkpt lat="45.758325" lon="11.3267767"><ele>996.0</ele><time>2026-04-23T09:05:39.007Z</time></trkpt><trkpt lat="45.7583417" lon="11.3266883"><ele>998.75</ele><time>2026-04-23T09:05:40.007Z</time></trkpt><trkpt lat="45.7583317" lon="11.3265267"><ele>1001.5</ele><time>2026-04-23T09:05:42.008Z</time></trkpt><trkpt lat="45.7581883" lon="11.3263783"><ele>1004.25</ele><time>2026-04-23T09:05:45.008Z</time></trkpt><trkpt lat="45.7580867" lon="11.326295"><ele>1007.0</ele><time>2026-04-23T09:05:47.007Z</time></trkpt><trkpt lat="45.758025" lon="11.3261733"><ele>1010.4000000000001</ele><time>2026-04-23T09:05:49.008Z</time></trkpt><trkpt lat="45.7579917" lon="11.3260267"><ele>1013.8000000000001</ele><time>2026-04-23T09:05:51.007Z</time></trkpt><trkpt lat="45.75799" lon="11.3258683"><ele>1017.2</ele><time>2026-04-23T09:05:53.007Z</time></trkpt><trkpt lat="45.757985" lon="11.3257333"><ele>1020.6</ele><time>2026-04-23T09:05:55.007Z</time></trkpt><trkpt lat="45.75792" lon="11.3256167"><ele>1024.0</ele><time>2026-04-23T09:05:57.007Z</time></trkpt><trkpt lat="45.7578717" lon="11.3255583"><ele>1028.0</ele><time>2026-04-23T09:05:58.007Z</time></trkpt><trkpt lat="45.7577467" lon="11.3254883"><ele>1032.0</ele><time>2026-04-23T09:06:00.007Z</time></trkpt><trkpt lat="45.7576383" lon="11.3254167"><ele>1036.0</ele><time>2026-04-23T09:06:02.007Z</time></trkpt><trkpt lat="45.7575617" lon="11.3253167"><ele>1040.0</ele><time>2026-04-23T09:06:04.007Z</time></trkpt><trkpt lat="45.7574583" lon="11.325045"><ele>1035.6</ele><time>2026-04-23T09:06:08.007Z</time></trkpt><trkpt lat="45.757345" lon="11.3249967"><ele>1031.2</ele><time>2026-04-23T09:06:10.007Z</time></trkpt><trkpt lat="45.7572517" lon="11.3249667"><ele>1026.8</ele><time>2026-04-23T09:06:12.007Z</time></trkpt><trkpt lat="45.7571717" lon="11.324885"><ele>1022.4</ele><time>2026-04-23T09:06:14.007Z</time></trkpt><trkpt lat="45.7570817" lon="11.3247617"><ele>1018.0</ele><time>2026-04-23T09:06:16.007Z</time></trkpt><trkpt lat="45.75699" lon="11.3247017"><ele>1014.8333333333333</ele><time>2026-04-23T09:06:18.007Z</time></trkpt><trkpt lat="45.7568833" lon="11.3247533"><ele>1011.6666666666666</ele><time>2026-04-23T09:06:20.007Z</time></trkpt><trkpt lat="45.7567567" lon="11.32478"><ele>1008.5</ele><time>2026-04-23T09:06:22.008Z</time></trkpt><trkpt lat="45.7566933" lon="11.3248083"><ele>1005.3333333333333</ele><time>2026-04-23T09:06:23.007Z</time></trkpt><trkpt lat="45.7566267" lon="11.324835"><ele>1002.1666666666666</ele><time>2026-04-23T09:06:24.007Z</time></trkpt><trkpt lat="45.756565" lon="11.3248583"><ele>999.0</ele><time>2026-04-23T09:06:25.007Z</time></trkpt><trkpt lat="45.756385" lon="11.324925"><ele>994.3333333333334</ele><time>2026-04-23T09:06:28.007Z</time></trkpt><trkpt lat="45.7563033" lon="11.3249517"><ele>989.6666666666667</ele><time>2026-04-23T09:06:30.008Z</time></trkpt><trkpt lat="45.75623" lon="11.3249833"><ele>985.0</ele><time>2026-04-23T09:06:32.008Z</time></trkpt><trkpt lat="45.75616" lon="11.324965"><ele>980.3333333333334</ele><time>2026-04-23T09:06:34.007Z</time></trkpt><trkpt lat="45.7561117" lon="11.325035"><ele>975.6666666666667</ele><time>2026-04-23T09:06:38.007Z</time></trkpt><trkpt lat="45.756165" lon="11.3251383"><ele>971.0</ele><time>2026-04-23T09:06:40.008Z</time></trkpt><trkpt lat="45.7562667" lon="11.32525"><ele>971.0</ele><time>2026-04-23T09:06:42.007Z</time></trkpt><trkpt lat="45.7563783" lon="11.3253233"><ele>971.0</ele><time>2026-04-23T09:06:44.007Z</time></trkpt><trkpt lat="45.7564867" lon="11.32537"><ele>971.0</ele><time>2026-04-23T09:06:46.007Z</time></trkpt><trkpt lat="45.7565383" lon="11.325525"><ele>971.0</ele><time>2026-04-23T09:06:51.007Z</time></trkpt><trkpt lat="45.7564383" lon="11.3255067"><ele>971.0000000000001</ele><time>2026-04-23T09:06:53.007Z</time></trkpt><trkpt lat="45.7563733" lon="11.3254883"><ele>971.0</ele><time>2026-04-23T09:06:54.008Z</time></trkpt><trkpt lat="45.75626" lon="11.32546"><ele>971.0</ele><time>2026-04-23T09:06:56.007Z</time></trkpt><trkpt lat="45.756195" lon="11.3254383"><ele>971.0</ele><time>2026-04-23T09:06:57.007Z</time></trkpt><trkpt lat="45.7561183" lon="11.3254183"><ele>971.0000000000001</ele><time>2026-04-23T09:06:58.007Z</time></trkpt><trkpt lat="45.7560467" lon="11.325405"><ele>971.0</ele><time>2026-04-23T09:06:59.007Z</time></trkpt><trkpt lat="45.7559817" lon="11.3253817"><ele>967.0000000000001</ele><time>2026-04-23T09:07:00.008Z</time></trkpt><trkpt lat="45.7559033" lon="11.3253533"><ele>963.0</ele><time>2026-04-23T09:07:01.007Z</time></trkpt><trkpt lat="45.7558333" lon="11.325305"><ele>959.0</ele><time>2026-04-23T09:07:02.008Z</time></trkpt><trkpt lat="45.7557633" lon="11.3252567"><ele>955.0</ele><time>2026-04-23T09:07:03.008Z</time></trkpt><trkpt lat="45.7557017" lon="11.3252033"><ele>951.0000000000001</ele><time>2026-04-23T09:07:04.007Z</time></trkpt><trkpt lat="45.7556467" lon="11.3251317"><ele>947.0</ele><time>2026-04-23T09:07:05.007Z</time></trkpt><trkpt lat="45.75558" lon="11.3249967"><ele>947.0</ele><time>2026-04-23T09:07:07.007Z</time></trkpt><trkpt lat="45.755575" lon="11.324735"><ele>947.0</ele><time>2026-04-23T09:07:10.007Z</time></trkpt><trkpt lat="45.7555867" lon="11.3246233"><ele>947.0</ele><time>2026-04-23T09:07:11.007Z</time></trkpt><trkpt lat="45.7555817" lon="11.3244967"><ele>947.0</ele><time>2026-04-23T09:07:12.007Z</time></trkpt><trkpt lat="45.7555633" lon="11.3243817"><ele>947.0</ele><time>2026-04-23T09:07:13.007Z</time></trkpt><trkpt lat="45.75554" lon="11.32428"><ele>948.1666666666667</ele><time>2026-04-23T09:07:14.007Z</time></trkpt><trkpt lat="45.7555017" lon="11.3241817"><ele>949.3333333333334</ele><time>2026-04-23T09:07:15.007Z</time></trkpt><trkpt lat="45.75545" lon="11.3240967"><ele>950.5</ele><time>2026-04-23T09:07:16.008Z</time></trkpt><trkpt lat="45.7553883" lon="11.3240383"><ele>951.6666666666667</ele><time>2026-04-23T09:07:17.008Z</time></trkpt><trkpt lat="45.7552917" lon="11.3240033"><ele>952.8333333333334</ele><time>2026-04-23T09:07:19.007Z</time></trkpt><trkpt lat="45.7552183" lon="11.3240333"><ele>954.0</ele><time>2026-04-23T09:08:18.008Z</time></trkpt><trkpt lat="45.7550517" lon="11.32437"><ele>951.1666666666666</ele><time>2026-04-23T09:18:08.005Z</time></trkpt><trkpt lat="45.7549767" lon="11.3244333"><ele>948.3333333333333</ele><time>2026-04-23T09:18:09.005Z</time></trkpt><trkpt lat="45.7549217" lon="11.3245067"><ele>945.5</ele><time>2026-04-23T09:18:10.004Z</time></trkpt><trkpt lat="45.7548633" lon="11.32458"><ele>942.6666666666666</ele><time>2026-04-23T09:18:11.004Z</time></trkpt><trkpt lat="45.7548033" lon="11.3246517"><ele>939.8333333333333</ele><time>2026-04-23T09:18:12.004Z</time></trkpt><trkpt lat="45.7547467" lon="11.324725"><ele>937.0</ele><time>2026-04-23T09:18:13.004Z</time></trkpt><trkpt lat="45.754685" lon="11.32478"><ele>934.4999999999999</ele><time>2026-04-23T09:18:14.004Z</time></trkpt><trkpt lat="45.75461" lon="11.3247983"><ele>932.0</ele><time>2026-04-23T09:18:15.004Z</time></trkpt><trkpt lat="45.754525" lon="11.32481"><ele>929.5</ele><time>2026-04-23T09:18:16.004Z</time></trkpt><trkpt lat="45.7544417" lon="11.3248217"><ele>927.0</ele><time>2026-04-23T09:18:17.004Z</time></trkpt><trkpt lat="45.754345" lon="11.3248417"><ele>924.4999999999999</ele><time>2026-04-23T09:18:18.004Z</time></trkpt><trkpt lat="45.754245" lon="11.3248517"><ele>922.0</ele><time>2026-04-23T09:18:19.004Z</time></trkpt><trkpt lat="45.754155" lon="11.3248617"><ele>920.1666666666666</ele><time>2026-04-23T09:18:20.004Z</time></trkpt><trkpt lat="45.7540667" lon="11.3248733"><ele>918.3333333333333</ele><time>2026-04-23T09:18:21.004Z</time></trkpt><trkpt lat="45.7539767" lon="11.32488"><ele>916.5</ele><time>2026-04-23T09:18:22.004Z</time></trkpt><trkpt lat="45.7538917" lon="11.32489"><ele>914.6666666666667</ele><time>2026-04-23T09:18:23.004Z</time></trkpt><trkpt lat="45.7538067" lon="11.324885"><ele>912.8333333333334</ele><time>2026-04-23T09:18:24.004Z</time></trkpt><trkpt lat="45.7537067" lon="11.32488"><ele>911.0</ele><time>2026-04-23T09:18:25.004Z</time></trkpt><trkpt lat="45.7535983" lon="11.3248717"><ele>911.25</ele><time>2026-04-23T09:18:26.004Z</time></trkpt><trkpt lat="45.7533967" lon="11.3247933"><ele>911.5</ele><time>2026-04-23T09:18:28.005Z</time></trkpt><trkpt lat="45.7533283" lon="11.3247467"><ele>911.75</ele><time>2026-04-23T09:18:29.004Z</time></trkpt><trkpt lat="45.7532667" lon="11.3246667"><ele>912.0</ele><time>2026-04-23T09:18:30.004Z</time></trkpt><trkpt lat="45.7532" lon="11.3245867"><ele>912.0</ele><time>2026-04-23T09:18:31.005Z</time></trkpt><trkpt lat="45.7531367" lon="11.32448"><ele>912.0</ele><time>2026-04-23T09:18:32.004Z</time></trkpt><trkpt lat="45.7530833" lon="11.3243483"><ele>912.0</ele><time>2026-04-23T09:18:33.005Z</time></trkpt><trkpt lat="45.75305" lon="11.3241783"><ele>912.0</ele><time>2026-04-23T09:18:34.004Z</time></trkpt><trkpt lat="45.7530183" lon="11.3239883"><ele>913.0</ele><time>2026-04-23T09:18:35.004Z</time></trkpt><trkpt lat="45.7529617" lon="11.32379"><ele>914.0</ele><time>2026-04-23T09:18:36.004Z</time></trkpt><trkpt lat="45.752905" lon="11.3235883"><ele>915.0</ele><time>2026-04-23T09:18:37.004Z</time></trkpt><trkpt lat="45.7528467" lon="11.3234033"><ele>916.0</ele><time>2026-04-23T09:18:38.004Z</time></trkpt><trkpt lat="45.75279" lon="11.3231833"><ele>912.6666666666666</ele><time>2026-04-23T09:18:39.004Z</time></trkpt><trkpt lat="45.7527333" lon="11.3229467"><ele>909.3333333333333</ele><time>2026-04-23T09:18:40.004Z</time></trkpt><trkpt lat="45.7526767" lon="11.3227067"><ele>906.0</ele><time>2026-04-23T09:18:41.004Z</time></trkpt><trkpt lat="45.752615" lon="11.3224517"><ele>908.6666666666667</ele><time>2026-04-23T09:18:42.004Z</time></trkpt><trkpt lat="45.7525433" lon="11.3222133"><ele>911.3333333333334</ele><time>2026-04-23T09:18:43.005Z</time></trkpt><trkpt lat="45.7524683" lon="11.3219683"><ele>914.0</ele><time>2026-04-23T09:18:44.004Z</time></trkpt><trkpt lat="45.75238" lon="11.3217333"><ele>914.0</ele><time>2026-04-23T09:18:45.004Z</time></trkpt><trkpt lat="45.7523083" lon="11.3215333"><ele>914.0</ele><time>2026-04-23T09:18:46.004Z</time></trkpt><trkpt lat="45.7522433" lon="11.32136"><ele>914.0</ele><time>2026-04-23T09:18:47.004Z</time></trkpt><trkpt lat="45.7521017" lon="11.3210833"><ele>914.5</ele><time>2026-04-23T09:18:49.004Z</time></trkpt><trkpt lat="45.7520117" lon="11.3209833"><ele>915.0</ele><time>2026-04-23T09:18:50.004Z</time></trkpt><trkpt lat="45.7518733" lon="11.32091"><ele>915.5</ele><time>2026-04-23T09:18:51.004Z</time></trkpt><trkpt lat="45.7517583" lon="11.32089"><ele>916.0</ele><time>2026-04-23T09:18:52.004Z</time></trkpt><trkpt lat="45.7516283" lon="11.3208417"><ele>916.0</ele><time>2026-04-23T09:18:53.004Z</time></trkpt><trkpt lat="45.751455" lon="11.3207717"><ele>916.0</ele><time>2026-04-23T09:18:54.004Z</time></trkpt><trkpt lat="45.7513117" lon="11.3207283"><ele>916.0</ele><time>2026-04-23T09:18:55.004Z</time></trkpt><trkpt lat="45.7511917" lon="11.3207033"><ele>916.0</ele><time>2026-04-23T09:18:56.004Z</time></trkpt><trkpt lat="45.75109" lon="11.320675"><ele>915.25</ele><time>2026-04-23T09:18:57.004Z</time></trkpt><trkpt lat="45.75099" lon="11.3206417"><ele>914.5</ele><time>2026-04-23T09:18:58.004Z</time></trkpt><trkpt lat="45.7508683" lon="11.32061"><ele>913.75</ele><time>2026-04-23T09:18:59.004Z</time></trkpt><trkpt lat="45.7507467" lon="11.32055"><ele>913.0</ele><time>2026-04-23T09:19:00.004Z</time></trkpt><trkpt lat="45.7506617" lon="11.32044"><ele>913.0</ele><time>2026-04-23T09:19:01.004Z</time></trkpt><trkpt lat="45.7505683" lon="11.32028"><ele>913.0</ele><time>2026-04-23T09:19:02.004Z</time></trkpt><trkpt lat="45.7504933" lon="11.3201117"><ele>913.0</ele><time>2026-04-23T09:19:03.004Z</time></trkpt><trkpt lat="45.7504267" lon="11.319925"><ele>913.0</ele><time>2026-04-23T09:19:04.004Z</time></trkpt><trkpt lat="45.7503833" lon="11.3197433"><ele>914.75</ele><time>2026-04-23T09:19:05.004Z</time></trkpt><trkpt lat="45.7503533" lon="11.3195567"><ele>916.5</ele><time>2026-04-23T09:19:06.004Z</time></trkpt><trkpt lat="45.75032" lon="11.3193733"><ele>918.25</ele><time>2026-04-23T09:19:07.004Z</time></trkpt><trkpt lat="45.75028" lon="11.3191933"><ele>920.0</ele><time>2026-04-23T09:19:08.004Z</time></trkpt><trkpt lat="45.7501783" lon="11.3189067"><ele>918.5</ele><time>2026-04-23T09:19:10.004Z</time></trkpt><trkpt lat="45.7500717" lon="11.3188067"><ele>917.0</ele><time>2026-04-23T09:19:11.004Z</time></trkpt><trkpt lat="45.7499517" lon="11.3187233"><ele>915.5</ele><time>2026-04-23T09:19:12.004Z</time></trkpt><trkpt lat="45.749845" lon="11.31864"><ele>914.0</ele><time>2026-04-23T09:19:13.004Z</time></trkpt><trkpt lat="45.7497517" lon="11.3185483"><ele>914.0000000000001</ele><time>2026-04-23T09:19:14.004Z</time></trkpt><trkpt lat="45.7496767" lon="11.318435"><ele>914.0</ele><time>2026-04-23T09:19:15.004Z</time></trkpt><trkpt lat="45.7496283" lon="11.3183283"><ele>914.0</ele><time>2026-04-23T09:19:16.004Z</time></trkpt><trkpt lat="45.74958" lon="11.3182367"><ele>914.0</ele><time>2026-04-23T09:19:17.004Z</time></trkpt><trkpt lat="45.74956" lon="11.3181333"><ele>914.0000000000001</ele><time>2026-04-23T09:19:18.004Z</time></trkpt><trkpt lat="45.7495433" lon="11.3180367"><ele>914.0</ele><time>2026-04-23T09:19:19.004Z</time></trkpt><trkpt lat="45.7495567" lon="11.31793"><ele>914.0</ele><time>2026-04-23T09:19:20.004Z</time></trkpt><trkpt lat="45.7495883" lon="11.317815"><ele>914.0000000000001</ele><time>2026-04-23T09:19:21.005Z</time></trkpt><trkpt lat="45.7496383" lon="11.3176833"><ele>914.0000000000001</ele><time>2026-04-23T09:19:22.004Z</time></trkpt><trkpt lat="45.7497283" lon="11.317525"><ele>914.0</ele><time>2026-04-23T09:19:23.004Z</time></trkpt><trkpt lat="45.7497717" lon="11.3173883"><ele>914.0</ele><time>2026-04-23T09:19:24.004Z</time></trkpt><trkpt lat="45.7497967" lon="11.3172467"><ele>914.4000000000001</ele><time>2026-04-23T09:19:25.004Z</time></trkpt><trkpt lat="45.7498283" lon="11.317105"><ele>914.8000000000001</ele><time>2026-04-23T09:19:26.004Z</time></trkpt><trkpt lat="45.7498617" lon="11.3169667"><ele>915.1999999999999</ele><time>2026-04-23T09:19:27.004Z</time></trkpt><trkpt lat="45.74988" lon="11.3168367"><ele>915.5999999999999</ele><time>2026-04-23T09:19:28.005Z</time></trkpt><trkpt lat="45.749895" lon="11.3166933"><ele>916.0</ele><time>2026-04-23T09:19:29.004Z</time></trkpt><trkpt lat="45.7499117" lon="11.3163717"><ele>916.4</ele><time>2026-04-23T09:19:31.004Z</time></trkpt><trkpt lat="45.7499283" lon="11.31622"><ele>916.8</ele><time>2026-04-23T09:19:32.005Z</time></trkpt><trkpt lat="45.7499483" lon="11.3160633"><ele>917.1999999999999</ele><time>2026-04-23T09:19:33.004Z</time></trkpt><trkpt lat="45.74997" lon="11.3159133"><ele>917.5999999999999</ele><time>2026-04-23T09:19:34.004Z</time></trkpt><trkpt lat="45.75001" lon="11.3157533"><ele>918.0</ele><time>2026-04-23T09:19:35.004Z</time></trkpt><trkpt lat="45.7500683" lon="11.3155983"><ele>919.0</ele><time>2026-04-23T09:19:36.005Z</time></trkpt><trkpt lat="45.75014" lon="11.31545"><ele>920.0</ele><time>2026-04-23T09:19:37.005Z</time></trkpt><trkpt lat="45.7502183" lon="11.3152833"><ele>921.0</ele><time>2026-04-23T09:19:38.004Z</time></trkpt><trkpt lat="45.750295" lon="11.3151033"><ele>922.0</ele><time>2026-04-23T09:19:39.004Z</time></trkpt><trkpt lat="45.7503567" lon="11.3149083"><ele>933.5</ele><time>2026-04-23T09:19:40.004Z</time></trkpt><trkpt lat="45.7504083" lon="11.3146917"><ele>945.0</ele><time>2026-04-23T09:19:41.004Z</time></trkpt><trkpt lat="45.750455" lon="11.3144867"><ele>956.5</ele><time>2026-04-23T09:19:42.004Z</time></trkpt><trkpt lat="45.7504983" lon="11.3143033"><ele>968.0</ele><time>2026-04-23T09:19:43.004Z</time></trkpt><trkpt lat="45.7505417" lon="11.3141283"><ele>968.0</ele><time>2026-04-23T09:19:44.004Z</time></trkpt><trkpt lat="45.7505367" lon="11.313915"><ele>968.0</ele><time>2026-04-23T09:19:45.004Z</time></trkpt><trkpt lat="45.7505067" lon="11.3136833"><ele>968.0</ele><time>2026-04-23T09:19:46.004Z</time></trkpt><trkpt lat="45.7504617" lon="11.3134917"><ele>967.0</ele><time>2026-04-23T09:19:47.005Z</time></trkpt><trkpt lat="45.7504333" lon="11.3133267"><ele>966.0</ele><time>2026-04-23T09:19:48.005Z</time></trkpt><trkpt lat="45.7503983" lon="11.313195"><ele>965.0</ele><time>2026-04-23T09:19:49.004Z</time></trkpt><trkpt lat="45.7503817" lon="11.31307"><ele>964.0</ele><time>2026-04-23T09:19:50.004Z</time></trkpt><trkpt lat="45.7504483" lon="11.3128483"><ele>962.2</ele><time>2026-04-23T09:19:52.004Z</time></trkpt><trkpt lat="45.7505133" lon="11.31273"><ele>960.4000000000001</ele><time>2026-04-23T09:19:53.004Z</time></trkpt><trkpt lat="45.7505733" lon="11.3126067"><ele>958.6</ele><time>2026-04-23T09:19:54.005Z</time></trkpt><trkpt lat="45.7506417" lon="11.3124883"><ele>956.8</ele><time>2026-04-23T09:19:55.004Z</time></trkpt><trkpt lat="45.7507317" lon="11.3124267"><ele>955.0</ele><time>2026-04-23T09:19:56.005Z</time></trkpt><trkpt lat="45.7508117" lon="11.312355"><ele>954.9999999999999</ele><time>2026-04-23T09:19:57.004Z</time></trkpt><trkpt lat="45.750885" lon="11.3122917"><ele>955.0</ele><time>2026-04-23T09:19:58.004Z</time></trkpt><trkpt lat="45.750945" lon="11.3122067"><ele>955.0</ele><time>2026-04-23T09:19:59.004Z</time></trkpt><trkpt lat="45.7509783" lon="11.3121183"><ele>955.0</ele><time>2026-04-23T09:20:00.004Z</time></trkpt><trkpt lat="45.7510017" lon="11.31199"><ele>954.9999999999999</ele><time>2026-04-23T09:20:01.004Z</time></trkpt><trkpt lat="45.75101" lon="11.3118317"><ele>955.0</ele><time>2026-04-23T09:20:02.004Z</time></trkpt><trkpt lat="45.751055" lon="11.311655"><ele>960.25</ele><time>2026-04-23T09:20:03.005Z</time></trkpt><trkpt lat="45.7510983" lon="11.31149"><ele>965.5</ele><time>2026-04-23T09:20:04.005Z</time></trkpt><trkpt lat="45.7511667" lon="11.311365"><ele>970.75</ele><time>2026-04-23T09:20:05.004Z</time></trkpt><trkpt lat="45.7512367" lon="11.3112583"><ele>976.0</ele><time>2026-04-23T09:20:06.005Z</time></trkpt><trkpt lat="45.7513417" lon="11.3111733"><ele>976.0</ele><time>2026-04-23T09:20:08.005Z</time></trkpt><trkpt lat="45.7514083" lon="11.31108"><ele>975.9999999999999</ele><time>2026-04-23T09:20:10.004Z</time></trkpt><trkpt lat="45.751395" lon="11.3109817"><ele>975.9999999999999</ele><time>2026-04-23T09:20:17.004Z</time></trkpt><trkpt lat="45.7513367" lon="11.3107967"><ele>976.0</ele><time>2026-04-23T09:20:24.004Z</time></trkpt><trkpt lat="45.7513467" lon="11.3106683"><ele>976.0</ele><time>2026-04-23T09:20:26.005Z</time></trkpt><trkpt lat="45.751365" lon="11.310545"><ele>974.4</ele><time>2026-04-23T09:20:28.004Z</time></trkpt><trkpt lat="45.751405" lon="11.3103833"><ele>972.8</ele><time>2026-04-23T09:20:30.004Z</time></trkpt><trkpt lat="45.75142" lon="11.310295"><ele>971.1999999999999</ele><time>2026-04-23T09:20:31.004Z</time></trkpt><trkpt lat="45.7514833" lon="11.3101883"><ele>969.5999999999999</ele><time>2026-04-23T09:20:33.005Z</time></trkpt><trkpt lat="45.751565" lon="11.3101133"><ele>968.0</ele><time>2026-04-23T09:20:35.004Z</time></trkpt><trkpt lat="45.7515817" lon="11.3100067"><ele>968.0</ele><time>2026-04-23T09:20:37.005Z</time></trkpt><trkpt lat="45.75154" lon="11.309875"><ele>968.0</ele><time>2026-04-23T09:20:39.005Z</time></trkpt><trkpt lat="45.7515933" lon="11.30955"><ele>968.0</ele><time>2026-04-23T09:20:42.004Z</time></trkpt><trkpt lat="45.7516233" lon="11.3093683"><ele>967.5</ele><time>2026-04-23T09:20:43.004Z</time></trkpt><trkpt lat="45.7516433" lon="11.3091783"><ele>967.0</ele><time>2026-04-23T09:20:44.004Z</time></trkpt><trkpt lat="45.7516567" lon="11.3089983"><ele>966.5</ele><time>2026-04-23T09:20:45.004Z</time></trkpt><trkpt lat="45.7516733" lon="11.3088567"><ele>966.0</ele><time>2026-04-23T09:20:46.004Z</time></trkpt><trkpt lat="45.751685" lon="11.3087133"><ele>965.2857142857142</ele><time>2026-04-23T09:20:47.005Z</time></trkpt><trkpt lat="45.751705" lon="11.3086033"><ele>964.5714285714286</ele><time>2026-04-23T09:20:48.005Z</time></trkpt><trkpt lat="45.7517333" lon="11.308515"><ele>963.8571428571429</ele><time>2026-04-23T09:20:49.004Z</time></trkpt><trkpt lat="45.75177" lon="11.3084333"><ele>963.1428571428571</ele><time>2026-04-23T09:20:50.005Z</time></trkpt><trkpt lat="45.751815" lon="11.3083367"><ele>962.4285714285713</ele><time>2026-04-23T09:20:51.005Z</time></trkpt><trkpt lat="45.7518633" lon="11.3082467"><ele>961.7142857142857</ele><time>2026-04-23T09:20:52.005Z</time></trkpt><trkpt lat="45.7519133" lon="11.30817"><ele>961.0</ele><time>2026-04-23T09:20:53.004Z</time></trkpt><trkpt lat="45.7519533" lon="11.3080967"><ele>965.8</ele><time>2026-04-23T09:20:54.004Z</time></trkpt><trkpt lat="45.7520133" lon="11.308"><ele>970.5999999999999</ele><time>2026-04-23T09:20:56.004Z</time></trkpt><trkpt lat="45.752125" lon="11.3079483"><ele>975.4</ele><time>2026-04-23T09:20:58.004Z</time></trkpt><trkpt lat="45.7521967" lon="11.3079033"><ele>980.2</ele><time>2026-04-23T09:20:59.005Z</time></trkpt><trkpt lat="45.7522667" lon="11.3078383"><ele>985.0</ele><time>2026-04-23T09:21:00.004Z</time></trkpt><trkpt lat="45.75238" lon="11.3076117"><ele>984.9999999999999</ele><time>2026-04-23T09:21:03.005Z</time></trkpt><trkpt lat="45.7523917" lon="11.307505"><ele>985.0</ele><time>2026-04-23T09:21:04.004Z</time></trkpt><trkpt lat="45.752375" lon="11.3074033"><ele>985.0</ele><time>2026-04-23T09:21:05.004Z</time></trkpt><trkpt lat="45.7523233" lon="11.3073117"><ele>985.0</ele><time>2026-04-23T09:21:06.004Z</time></trkpt><trkpt lat="45.752295" lon="11.3072233"><ele>984.9999999999999</ele><time>2026-04-23T09:21:07.004Z</time></trkpt><trkpt lat="45.752275" lon="11.3071017"><ele>985.0</ele><time>2026-04-23T09:21:09.004Z</time></trkpt><trkpt lat="45.7523417" lon="11.306925"><ele>985.2</ele><time>2026-04-23T09:21:11.004Z</time></trkpt><trkpt lat="45.7523983" lon="11.3068083"><ele>985.4</ele><time>2026-04-23T09:21:12.004Z</time></trkpt><trkpt lat="45.7524467" lon="11.306705"><ele>985.5999999999999</ele><time>2026-04-23T09:21:13.004Z</time></trkpt><trkpt lat="45.7524833" lon="11.30659"><ele>985.8</ele><time>2026-04-23T09:21:14.004Z</time></trkpt><trkpt lat="45.7525017" lon="11.3064833"><ele>986.0</ele><time>2026-04-23T09:21:15.004Z</time></trkpt><trkpt lat="45.7524733" lon="11.306315"><ele>986.5</ele><time>2026-04-23T09:21:17.004Z</time></trkpt><trkpt lat="45.75244" lon="11.3061567"><ele>987.0</ele><time>2026-04-23T09:21:19.004Z</time></trkpt><trkpt lat="45.7524367" lon="11.3060533"><ele>987.5</ele><time>2026-04-23T09:21:20.005Z</time></trkpt><trkpt lat="45.7524483" lon="11.3059133"><ele>988.0</ele><time>2026-04-23T09:21:21.005Z</time></trkpt><trkpt lat="45.7524483" lon="11.3055917"><ele>989.4</ele><time>2026-04-23T09:21:23.004Z</time></trkpt><trkpt lat="45.7524483" lon="11.30543"><ele>990.8</ele><time>2026-04-23T09:21:24.004Z</time></trkpt><trkpt lat="45.752435" lon="11.305275"><ele>992.2</ele><time>2026-04-23T09:21:25.004Z</time></trkpt><trkpt lat="45.7524317" lon="11.30512"><ele>993.6</ele><time>2026-04-23T09:21:26.004Z</time></trkpt><trkpt lat="45.7524367" lon="11.3049667"><ele>995.0</ele><time>2026-04-23T09:21:27.004Z</time></trkpt><trkpt lat="45.7524367" lon="11.3048133"><ele>995.6</ele><time>2026-04-23T09:21:28.004Z</time></trkpt><trkpt lat="45.7524417" lon="11.3046867"><ele>996.2</ele><time>2026-04-23T09:21:29.004Z</time></trkpt><trkpt lat="45.7524617" lon="11.3045467"><ele>996.8</ele><time>2026-04-23T09:21:30.004Z</time></trkpt><trkpt lat="45.7524833" lon="11.304385"><ele>997.4</ele><time>2026-04-23T09:21:31.005Z</time></trkpt><trkpt lat="45.7525133" lon="11.3042417"><ele>998.0</ele><time>2026-04-23T09:21:32.004Z</time></trkpt><trkpt lat="45.7525517" lon="11.3040983"><ele>998.0</ele><time>2026-04-23T09:21:33.005Z</time></trkpt><trkpt lat="45.7525967" lon="11.3039767"><ele>998.0</ele><time>2026-04-23T09:21:34.005Z</time></trkpt><trkpt lat="45.7526317" lon="11.3038867"><ele>998.0</ele><time>2026-04-23T09:21:35.004Z</time></trkpt><trkpt lat="45.75269" lon="11.3037933"><ele>998.0</ele><time>2026-04-23T09:21:37.005Z</time></trkpt><trkpt lat="45.7527667" lon="11.3037517"><ele>998.0</ele><time>2026-04-23T09:21:39.004Z</time></trkpt><trkpt lat="45.7528883" lon="11.3037"><ele>997.5</ele><time>2026-04-23T09:21:41.004Z</time></trkpt><trkpt lat="45.7529733" lon="11.303645"><ele>997.0</ele><time>2026-04-23T09:21:42.005Z</time></trkpt><trkpt lat="45.75314" lon="11.3035233"><ele>996.5</ele><time>2026-04-23T09:21:44.004Z</time></trkpt><trkpt lat="45.7532317" lon="11.303455"><ele>996.0</ele><time>2026-04-23T09:21:45.004Z</time></trkpt><trkpt lat="45.7533067" lon="11.3034083"><ele>996.0</ele><time>2026-04-23T09:21:46.004Z</time></trkpt><trkpt lat="45.7533933" lon="11.3033467"><ele>995.9999999999999</ele><time>2026-04-23T09:21:47.004Z</time></trkpt><trkpt lat="45.7534533" lon="11.3032983"><ele>995.9999999999999</ele><time>2026-04-23T09:21:48.004Z</time></trkpt><trkpt lat="45.7535317" lon="11.3032133"><ele>996.0</ele><time>2026-04-23T09:21:50.004Z</time></trkpt><trkpt lat="45.7535983" lon="11.3031283"><ele>996.0</ele><time>2026-04-23T09:21:52.004Z</time></trkpt><trkpt lat="45.753715" lon="11.3031"><ele>997.3333333333334</ele><time>2026-04-23T09:21:55.005Z</time></trkpt><trkpt lat="45.75384" lon="11.303125"><ele>998.6666666666667</ele><time>2026-04-23T09:21:57.004Z</time></trkpt><trkpt lat="45.7539283" lon="11.30313"><ele>1000.0</ele><time>2026-04-23T09:21:58.004Z</time></trkpt><trkpt lat="45.754005" lon="11.3031633"><ele>1001.3333333333334</ele><time>2026-04-23T09:21:59.004Z</time></trkpt><trkpt lat="45.7540683" lon="11.3032033"><ele>1002.6666666666667</ele><time>2026-04-23T09:22:00.004Z</time></trkpt><trkpt lat="45.7541367" lon="11.30325"><ele>1004.0</ele><time>2026-04-23T09:22:01.004Z</time></trkpt><trkpt lat="45.7542033" lon="11.3032933"><ele>1004.0</ele><time>2026-04-23T09:22:02.004Z</time></trkpt><trkpt lat="45.754275" lon="11.30333"><ele>1004.0000000000001</ele><time>2026-04-23T09:22:03.005Z</time></trkpt><trkpt lat="45.7544167" lon="11.3033817"><ele>1004.0000000000001</ele><time>2026-04-23T09:22:05.003Z</time></trkpt><trkpt lat="45.75451" lon="11.30338"><ele>1004.0</ele><time>2026-04-23T09:22:06.003Z</time></trkpt><trkpt lat="45.754595" lon="11.3033617"><ele>1004.0</ele><time>2026-04-23T09:22:07.003Z</time></trkpt><trkpt lat="45.7546767" lon="11.3033317"><ele>1004.6</ele><time>2026-04-23T09:22:08.003Z</time></trkpt><trkpt lat="45.7547683" lon="11.303255"><ele>1005.2</ele><time>2026-04-23T09:22:09.003Z</time></trkpt><trkpt lat="45.7548567" lon="11.303175"><ele>1005.8000000000001</ele><time>2026-04-23T09:22:10.003Z</time></trkpt><trkpt lat="45.7549383" lon="11.303105"><ele>1006.4000000000001</ele><time>2026-04-23T09:22:11.003Z</time></trkpt><trkpt lat="45.7550067" lon="11.3030533"><ele>1007.0</ele><time>2026-04-23T09:22:12.004Z</time></trkpt><trkpt lat="45.755075" lon="11.302915"><ele>1004.8333333333334</ele><time>2026-04-23T09:22:14.003Z</time></trkpt><trkpt lat="45.7551" lon="11.3028083"><ele>1002.6666666666667</ele><time>2026-04-23T09:22:15.004Z</time></trkpt><trkpt lat="45.7551" lon="11.302695"><ele>1000.5</ele><time>2026-04-23T09:22:16.004Z</time></trkpt><trkpt lat="45.75511" lon="11.302605"><ele>998.3333333333333</ele><time>2026-04-23T09:22:17.003Z</time></trkpt><trkpt lat="45.755175" lon="11.3024683"><ele>996.1666666666666</ele><time>2026-04-23T09:22:19.003Z</time></trkpt><trkpt lat="45.7552233" lon="11.3023833"><ele>994.0</ele><time>2026-04-23T09:22:20.003Z</time></trkpt><trkpt lat="45.75527" lon="11.3023"><ele>990.2</ele><time>2026-04-23T09:22:21.003Z</time></trkpt><trkpt lat="45.7553167" lon="11.3022183"><ele>986.4000000000001</ele><time>2026-04-23T09:22:22.003Z</time></trkpt><trkpt lat="45.7554133" lon="11.3021467"><ele>982.6</ele><time>2026-04-23T09:22:24.003Z</time></trkpt><trkpt lat="45.7555583" lon="11.3021"><ele>978.8</ele><time>2026-04-23T09:22:26.003Z</time></trkpt><trkpt lat="45.7556333" lon="11.3020483"><ele>975.0</ele><time>2026-04-23T09:22:27.004Z</time></trkpt><trkpt lat="45.7557017" lon="11.3019933"><ele>975.0</ele><time>2026-04-23T09:22:28.004Z</time></trkpt><trkpt lat="45.7557767" lon="11.3018483"><ele>975.0</ele><time>2026-04-23T09:22:30.003Z</time></trkpt><trkpt lat="45.7558067" lon="11.3017483"><ele>975.0</ele><time>2026-04-23T09:22:31.003Z</time></trkpt><trkpt lat="45.7558233" lon="11.3016533"><ele>975.0</ele><time>2026-04-23T09:22:32.004Z</time></trkpt><trkpt lat="45.75585" lon="11.3014867"><ele>975.0</ele><time>2026-04-23T09:22:34.003Z</time></trkpt><trkpt lat="45.7558883" lon="11.3013983"><ele>975.1666666666666</ele><time>2026-04-23T09:22:35.003Z</time></trkpt><trkpt lat="45.75594" lon="11.301305"><ele>975.3333333333333</ele><time>2026-04-23T09:22:36.003Z</time></trkpt><trkpt lat="45.7559967" lon="11.30121"><ele>975.5</ele><time>2026-04-23T09:22:37.003Z</time></trkpt><trkpt lat="45.7560433" lon="11.3011417"><ele>975.6666666666666</ele><time>2026-04-23T09:22:38.003Z</time></trkpt><trkpt lat="45.7561217" lon="11.301015"><ele>975.8333333333333</ele><time>2026-04-23T09:22:40.003Z</time></trkpt><trkpt lat="45.75615" lon="11.3009333"><ele>976.0</ele><time>2026-04-23T09:22:41.003Z</time></trkpt><trkpt lat="45.756195" lon="11.3007883"><ele>976.0</ele><time>2026-04-23T09:22:43.004Z</time></trkpt><trkpt lat="45.7562617" lon="11.300695"><ele>976.0</ele><time>2026-04-23T09:22:45.003Z</time></trkpt><trkpt lat="45.7564217" lon="11.3005783"><ele>976.0</ele><time>2026-04-23T09:22:48.003Z</time></trkpt><trkpt lat="45.7564817" lon="11.3004533"><ele>976.0</ele><time>2026-04-23T09:22:50.004Z</time></trkpt><trkpt lat="45.7565033" lon="11.3002917"><ele>973.8</ele><time>2026-04-23T09:22:52.003Z</time></trkpt><trkpt lat="45.7565067" lon="11.30018"><ele>971.5999999999999</ele><time>2026-04-23T09:22:53.003Z</time></trkpt><trkpt lat="45.7565067" lon="11.3000883"><ele>969.4</ele><time>2026-04-23T09:22:54.003Z</time></trkpt><trkpt lat="45.75653" lon="11.2999417"><ele>967.2</ele><time>2026-04-23T09:22:56.003Z</time></trkpt><trkpt lat="45.7565617" lon="11.2997767"><ele>965.0</ele><time>2026-04-23T09:22:58.003Z</time></trkpt><trkpt lat="45.756565" lon="11.2996183"><ele>962.5</ele><time>2026-04-23T09:23:00.004Z</time></trkpt><trkpt lat="45.756535" lon="11.299455"><ele>960.0</ele><time>2026-04-23T09:23:02.003Z</time></trkpt><trkpt lat="45.7565183" lon="11.299335"><ele>957.5</ele><time>2026-04-23T09:23:04.003Z</time></trkpt><trkpt lat="45.7565417" lon="11.299185"><ele>955.0</ele><time>2026-04-23T09:23:06.003Z</time></trkpt><trkpt lat="45.7565717" lon="11.2989567"><ele>953.4999999999999</ele><time>2026-04-23T09:23:08.003Z</time></trkpt><trkpt lat="45.7565683" lon="11.2988433"><ele>952.0</ele><time>2026-04-23T09:23:09.003Z</time></trkpt><trkpt lat="45.7565817" lon="11.2986567"><ele>950.5</ele><time>2026-04-23T09:23:11.003Z</time></trkpt><trkpt lat="45.756595" lon="11.298555"><ele>949.0</ele><time>2026-04-23T09:23:12.003Z</time></trkpt><trkpt lat="45.75661" lon="11.2984467"><ele>947.4999999999999</ele><time>2026-04-23T09:23:13.003Z</time></trkpt><trkpt lat="45.7566367" lon="11.2983417"><ele>946.0</ele><time>2026-04-23T09:23:14.004Z</time></trkpt><trkpt lat="45.7566617" lon="11.2982567"><ele>945.9999999999999</ele><time>2026-04-23T09:23:15.003Z</time></trkpt><trkpt lat="45.756695" lon="11.29813"><ele>946.0</ele><time>2026-04-23T09:23:17.003Z</time></trkpt><trkpt lat="45.7567533" lon="11.29803"><ele>946.0</ele><time>2026-04-23T09:23:19.003Z</time></trkpt><trkpt lat="45.756795" lon="11.297945"><ele>946.0</ele><time>2026-04-23T09:23:20.003Z</time></trkpt><trkpt lat="45.7568417" lon="11.2978367"><ele>945.9999999999999</ele><time>2026-04-23T09:23:21.003Z</time></trkpt><trkpt lat="45.75688" lon="11.29774"><ele>946.0</ele><time>2026-04-23T09:23:22.003Z</time></trkpt><trkpt lat="45.75692" lon="11.2976467"><ele>944.5999999999999</ele><time>2026-04-23T09:23:23.003Z</time></trkpt><trkpt lat="45.7569467" lon="11.2975433"><ele>943.1999999999999</ele><time>2026-04-23T09:23:24.003Z</time></trkpt><trkpt lat="45.7569717" lon="11.2974567"><ele>941.8000000000001</ele><time>2026-04-23T09:23:25.003Z</time></trkpt><trkpt lat="45.7570283" lon="11.2973033"><ele>940.4000000000001</ele><time>2026-04-23T09:23:27.003Z</time></trkpt><trkpt lat="45.757115" lon="11.29715"><ele>939.0</ele><time>2026-04-23T09:23:29.003Z</time></trkpt><trkpt lat="45.7571567" lon="11.29707"><ele>939.0</ele><time>2026-04-23T09:23:30.003Z</time></trkpt><trkpt lat="45.7571933" lon="11.2969817"><ele>939.0000000000001</ele><time>2026-04-23T09:23:31.003Z</time></trkpt><trkpt lat="45.7572233" lon="11.2969017"><ele>939.0000000000001</ele><time>2026-04-23T09:23:32.003Z</time></trkpt><trkpt lat="45.7572367" lon="11.29681"><ele>939.0</ele><time>2026-04-23T09:23:34.003Z</time></trkpt><trkpt lat="45.7572667" lon="11.2966383"><ele>939.0</ele><time>2026-04-23T09:25:13.003Z</time></trkpt><trkpt lat="45.75726" lon="11.2964533"><ele>933.3333333333333</ele><time>2026-04-23T09:25:16.003Z</time></trkpt><trkpt lat="45.75712" lon="11.29625"><ele>927.6666666666666</ele><time>2026-04-23T09:25:23.003Z</time></trkpt><trkpt lat="45.7570183" lon="11.2963033"><ele>922.0</ele><time>2026-04-23T09:25:26.003Z</time></trkpt><trkpt lat="45.756845" lon="11.2963467"><ele>917.0</ele><time>2026-04-23T09:25:30.003Z</time></trkpt><trkpt lat="45.7567117" lon="11.2963783"><ele>912.0</ele><time>2026-04-23T09:25:33.003Z</time></trkpt><trkpt lat="45.7565517" lon="11.2963417"><ele>907.0</ele><time>2026-04-23T09:25:36.003Z</time></trkpt><trkpt lat="45.7564017" lon="11.29628"><ele>907.0</ele><time>2026-04-23T09:25:39.003Z</time></trkpt><trkpt lat="45.756225" lon="11.29622"><ele>907.0</ele><time>2026-04-23T09:25:42.004Z</time></trkpt><trkpt lat="45.7559117" lon="11.29623"><ele>905.25</ele><time>2026-04-23T09:25:49.003Z</time></trkpt><trkpt lat="45.7557967" lon="11.2962083"><ele>903.5</ele><time>2026-04-23T09:25:51.003Z</time></trkpt><trkpt lat="45.7556217" lon="11.2961683"><ele>901.75</ele><time>2026-04-23T09:25:54.003Z</time></trkpt><trkpt lat="45.7555267" lon="11.2961317"><ele>900.0</ele><time>2026-04-23T09:25:56.003Z</time></trkpt><trkpt lat="45.7554067" lon="11.2961017"><ele>900.0</ele><time>2026-04-23T09:25:59.003Z</time></trkpt><trkpt lat="45.7552833" lon="11.29615"><ele>900.0</ele><time>2026-04-23T09:26:03.003Z</time></trkpt><trkpt lat="45.7553667" lon="11.296155"><ele>900.0</ele><time>2026-04-23T09:26:09.003Z</time></trkpt><trkpt lat="45.7554383" lon="11.2959683"><ele>900.0</ele><time>2026-04-23T09:26:12.003Z</time></trkpt><trkpt lat="45.7554867" lon="11.2955333"><ele>895.6666666666667</ele><time>2026-04-23T09:26:18.004Z</time></trkpt><trkpt lat="45.75554" lon="11.2953417"><ele>891.3333333333334</ele><time>2026-04-23T09:26:22.003Z</time></trkpt><trkpt lat="45.7555867" lon="11.2951067"><ele>887.0</ele><time>2026-04-23T09:28:03.002Z</time></trkpt><trkpt lat="45.75568" lon="11.2946583"><ele>883.0</ele><time>2026-04-23T09:31:45.001Z</time></trkpt><trkpt lat="45.7557083" lon="11.2943067"><ele>879.0</ele><time>2026-04-23T09:31:49.001Z</time></trkpt><trkpt lat="45.755725" lon="11.29412"><ele>875.0</ele><time>2026-04-23T09:31:51.001Z</time></trkpt><trkpt lat="45.7557067" lon="11.2938267"><ele>869.6666666666667</ele><time>2026-04-23T09:31:54.001Z</time></trkpt><trkpt lat="45.755665" lon="11.2935417"><ele>864.3333333333333</ele><time>2026-04-23T09:31:57.001Z</time></trkpt><trkpt lat="45.75566" lon="11.2932333"><ele>859.0</ele><time>2026-04-23T09:32:00.001Z</time></trkpt><trkpt lat="45.7556783" lon="11.2931333"><ele>856.0</ele><time>2026-04-23T09:32:01.001Z</time></trkpt><trkpt lat="45.7557333" lon="11.2928933"><ele>853.0</ele><time>2026-04-23T09:32:03.002Z</time></trkpt><trkpt lat="45.7557683" lon="11.292785"><ele>850.0</ele><time>2026-04-23T09:32:04.001Z</time></trkpt><trkpt lat="45.7558533" lon="11.2925517"><ele>847.0</ele><time>2026-04-23T09:32:06.001Z</time></trkpt><trkpt lat="45.7558917" lon="11.2924483"><ele>847.0</ele><time>2026-04-23T09:32:07.001Z</time></trkpt><trkpt lat="45.755965" lon="11.2922683"><ele>847.0</ele><time>2026-04-23T09:32:09.001Z</time></trkpt><trkpt lat="45.7560983" lon="11.29205"><ele>847.0</ele><time>2026-04-23T09:32:12.001Z</time></trkpt><trkpt lat="45.7561467" lon="11.2919733"><ele>847.0</ele><time>2026-04-23T09:32:13.001Z</time></trkpt><trkpt lat="45.7562167" lon="11.2917233"><ele>843.3333333333333</ele><time>2026-04-23T09:32:16.001Z</time></trkpt><trkpt lat="45.7562833" lon="11.29136"><ele>839.6666666666667</ele><time>2026-04-23T09:32:20.001Z</time></trkpt><trkpt lat="45.7563017" lon="11.2911833"><ele>836.0</ele><time>2026-04-23T09:32:22.001Z</time></trkpt><trkpt lat="45.75639" lon="11.2909717"><ele>836.0</ele><time>2026-04-23T09:32:25.001Z</time></trkpt><trkpt lat="45.7565417" lon="11.2908117"><ele>836.0</ele><time>2026-04-23T09:32:29.001Z</time></trkpt><trkpt lat="45.75681" lon="11.290765"><ele>838.8</ele><time>2026-04-23T09:32:33.002Z</time></trkpt><trkpt lat="45.7569383" lon="11.2906417"><ele>841.5999999999999</ele><time>2026-04-23T09:32:35.001Z</time></trkpt><trkpt lat="45.7569817" lon="11.29057"><ele>844.4</ele><time>2026-04-23T09:32:36.002Z</time></trkpt><trkpt lat="45.7570383" lon="11.290395"><ele>847.2</ele><time>2026-04-23T09:32:38.001Z</time></trkpt><trkpt lat="45.7570683" lon="11.2903067"><ele>850.0</ele><time>2026-04-23T09:32:39.001Z</time></trkpt><trkpt lat="45.7571783" lon="11.2899617"><ele>853.0</ele><time>2026-04-23T09:32:42.001Z</time></trkpt><trkpt lat="45.757155" lon="11.2895867"><ele>856.0</ele><time>2026-04-23T09:32:45.002Z</time></trkpt><trkpt lat="45.7570433" lon="11.2891833"><ele>866.0</ele><time>2026-04-23T09:32:48.001Z</time></trkpt><trkpt lat="45.756915" lon="11.288395"><ele>834.0</ele><time>2026-04-23T09:32:52.002Z</time></trkpt><trkpt lat="45.7568317" lon="11.287715"><ele>858.0</ele><time>2026-04-23T09:32:55.001Z</time></trkpt><trkpt lat="45.7568917" lon="11.2871633"><ele>882.0</ele><time>2026-04-23T09:32:58.002Z</time></trkpt><trkpt lat="45.75688" lon="11.2869433"><ele>895.0</ele><time>2026-04-23T09:32:59.001Z</time></trkpt><trkpt lat="45.756885" lon="11.2861967"><ele>895.0</ele><time>2026-04-23T09:33:02.001Z</time></trkpt><trkpt lat="45.75687" lon="11.2859783"><ele>895.0</ele><time>2026-04-23T09:33:03.001Z</time></trkpt><trkpt lat="45.7568467" lon="11.2857633"><ele>895.0</ele><time>2026-04-23T09:33:04.001Z</time></trkpt><trkpt lat="45.7566917" lon="11.2851317"><ele>890.0</ele><time>2026-04-23T09:33:07.001Z</time></trkpt><trkpt lat="45.7566383" lon="11.2848817"><ele>885.0</ele><time>2026-04-23T09:33:08.001Z</time></trkpt><trkpt lat="45.7565283" lon="11.284135"><ele>892.0</ele><time>2026-04-23T09:33:11.001Z</time></trkpt><trkpt lat="45.7564333" lon="11.2832833"><ele>893.0</ele><time>2026-04-23T09:33:15.001Z</time></trkpt><trkpt lat="45.7563783" lon="11.2826867"><ele>894.0</ele><time>2026-04-23T09:33:19.001Z</time></trkpt><trkpt lat="45.7564367" lon="11.2823667"><ele>893.0</ele><time>2026-04-23T09:33:21.002Z</time></trkpt><trkpt lat="45.756455" lon="11.2822167"><ele>892.0</ele><time>2026-04-23T09:33:22.001Z</time></trkpt><trkpt lat="45.756485" lon="11.2818267"><ele>891.0</ele><time>2026-04-23T09:33:25.002Z</time></trkpt><trkpt lat="45.756505" lon="11.2817083"><ele>884.0</ele><time>2026-04-23T09:33:26.001Z</time></trkpt><trkpt lat="45.7566883" lon="11.2813567"><ele>877.0</ele><time>2026-04-23T09:33:29.001Z</time></trkpt><trkpt lat="45.757015" lon="11.28074"><ele>881.6666666666666</ele><time>2026-04-23T09:33:33.001Z</time></trkpt><trkpt lat="45.7572583" lon="11.2804233"><ele>886.3333333333333</ele><time>2026-04-23T09:33:36.001Z</time></trkpt><trkpt lat="45.7573183" lon="11.2803317"><ele>891.0</ele><time>2026-04-23T09:33:37.002Z</time></trkpt><trkpt lat="45.7574717" lon="11.28008"><ele>891.0</ele><time>2026-04-23T09:33:40.001Z</time></trkpt><trkpt lat="45.757675" lon="11.2798133"><ele>891.0</ele><time>2026-04-23T09:33:43.001Z</time></trkpt><trkpt lat="45.757745" lon="11.2797067"><ele>891.0</ele><time>2026-04-23T09:33:44.002Z</time></trkpt><trkpt lat="45.757895" lon="11.2794017"><ele>892.0</ele><time>2026-04-23T09:33:47.001Z</time></trkpt><trkpt lat="45.75795" lon="11.27932"><ele>893.0</ele><time>2026-04-23T09:33:48.001Z</time></trkpt><trkpt lat="45.7581833" lon="11.2786067"><ele>884.3333333333334</ele><time>2026-04-23T09:33:54Z</time></trkpt><trkpt lat="45.7582233" lon="11.278515"><ele>875.6666666666667</ele><time>2026-04-23T09:33:55.001Z</time></trkpt><trkpt lat="45.758325" lon="11.27819"><ele>867.0</ele><time>2026-04-23T09:33:58Z</time></trkpt><trkpt lat="45.7583933" lon="11.277895"><ele>865.0</ele><time>2026-04-23T09:34:01Z</time></trkpt><trkpt lat="45.7584117" lon="11.27779"><ele>863.0</ele><time>2026-04-23T09:34:02.001Z</time></trkpt><trkpt lat="45.758485" lon="11.2775333"><ele>861.0</ele><time>2026-04-23T09:34:05Z</time></trkpt><trkpt lat="45.75859" lon="11.2772133"><ele>861.0</ele><time>2026-04-23T09:34:09Z</time></trkpt><trkpt lat="45.7585433" lon="11.276905"><ele>861.0</ele><time>2026-04-23T09:34:12Z</time></trkpt><trkpt lat="45.75841" lon="11.276535"><ele>854.6666666666667</ele><time>2026-04-23T09:34:16Z</time></trkpt><trkpt lat="45.7582033" lon="11.276145"><ele>848.3333333333334</ele><time>2026-04-23T09:34:21Z</time></trkpt><trkpt lat="45.758175" lon="11.2760633"><ele>842.0</ele><time>2026-04-23T09:34:22Z</time></trkpt><trkpt lat="45.758095" lon="11.27586"><ele>842.0</ele><time>2026-04-23T09:34:25Z</time></trkpt><trkpt lat="45.7579633" lon="11.2756467"><ele>842.0</ele><time>2026-04-23T09:34:29.001Z</time></trkpt><trkpt lat="45.7578467" lon="11.2753817"><ele>842.0</ele><time>2026-04-23T09:34:33Z</time></trkpt><trkpt lat="45.757685" lon="11.2751383"><ele>839.75</ele><time>2026-04-23T09:34:37Z</time></trkpt><trkpt lat="45.7576233" lon="11.2750967"><ele>837.5</ele><time>2026-04-23T09:34:38Z</time></trkpt><trkpt lat="45.7575167" lon="11.27493"><ele>835.25</ele><time>2026-04-23T09:34:41Z</time></trkpt><trkpt lat="45.7575133" lon="11.27468"><ele>833.0</ele><time>2026-04-23T09:34:45Z</time></trkpt><trkpt lat="45.75754" lon="11.27436"><ele>832.0</ele><time>2026-04-23T09:34:51.001Z</time></trkpt><trkpt lat="45.7575617" lon="11.2741667"><ele>831.0</ele><time>2026-04-23T09:34:55Z</time></trkpt><trkpt lat="45.7575833" lon="11.274055"><ele>830.0</ele><time>2026-04-23T09:35:13.001Z</time></trkpt><trkpt lat="45.7576817" lon="11.274175"><ele>829.0</ele><time>2026-04-23T09:35:16Z</time></trkpt><trkpt lat="45.7578817" lon="11.27427"><ele>815.0</ele><time>2026-04-23T09:35:20Z</time></trkpt><trkpt lat="45.758215" lon="11.274285"><ele>801.0</ele><time>2026-04-23T09:35:26Z</time></trkpt><trkpt lat="45.7583983" lon="11.274305"><ele>798.0</ele><time>2026-04-23T09:35:30Z</time></trkpt><trkpt lat="45.75856" lon="11.2743683"><ele>795.0</ele><time>2026-04-23T09:35:33Z</time></trkpt><trkpt lat="45.758625" lon="11.274385"><ele>792.0</ele><time>2026-04-23T09:35:34.001Z</time></trkpt><trkpt lat="45.75877" lon="11.2744233"><ele>789.0</ele><time>2026-04-23T09:35:37Z</time></trkpt><trkpt lat="45.75886" lon="11.2744017"><ele>789.0</ele><time>2026-04-23T09:35:40Z</time></trkpt><trkpt lat="45.7588017" lon="11.2742667"><ele>789.0</ele><time>2026-04-23T09:35:44Z</time></trkpt><trkpt lat="45.758715" lon="11.27416"><ele>789.0</ele><time>2026-04-23T09:35:46Z</time></trkpt><trkpt lat="45.7585583" lon="11.2739983"><ele>789.0</ele><time>2026-04-23T09:35:50Z</time></trkpt><trkpt lat="45.7583" lon="11.2738217"><ele>784.0</ele><time>2026-04-23T09:35:56Z</time></trkpt><trkpt lat="45.75828" lon="11.2735933"><ele>779.0</ele><time>2026-04-23T09:35:59Z</time></trkpt><trkpt lat="45.7582583" lon="11.2733633"><ele>774.0</ele><time>2026-04-23T09:36:02Z</time></trkpt><trkpt lat="45.7581883" lon="11.2730583"><ele>766.3333333333334</ele><time>2026-04-23T09:36:06Z</time></trkpt><trkpt lat="45.7580833" lon="11.2727817"><ele>758.6666666666667</ele><time>2026-04-23T09:36:10Z</time></trkpt><trkpt lat="45.7580083" lon="11.2725183"><ele>751.0</ele><time>2026-04-23T09:36:13Z</time></trkpt><trkpt lat="45.7579917" lon="11.2724067"><ele>743.6666666666667</ele><time>2026-04-23T09:36:14.001Z</time></trkpt><trkpt lat="45.7579683" lon="11.2722233"><ele>736.3333333333334</ele><time>2026-04-23T09:36:16Z</time></trkpt><trkpt lat="45.7578967" lon="11.2719067"><ele>729.0</ele><time>2026-04-23T09:36:20Z</time></trkpt><trkpt lat="45.7577667" lon="11.2714833"><ele>729.75</ele><time>2026-04-23T09:36:26Z</time></trkpt><trkpt lat="45.7576917" lon="11.27126"><ele>730.5</ele><time>2026-04-23T09:36:30Z</time></trkpt><trkpt lat="45.75764" lon="11.2711267"><ele>731.25</ele><time>2026-04-23T09:36:33Z</time></trkpt><trkpt lat="45.7576717" lon="11.2709917"><ele>732.0</ele><time>2026-04-23T09:36:37Z</time></trkpt><trkpt lat="45.757685" lon="11.2708867"><ele>732.0</ele><time>2026-04-23T09:36:40Z</time></trkpt><trkpt lat="45.75761" lon="11.2707717"><ele>732.0</ele><time>2026-04-23T09:36:43.001Z</time></trkpt><trkpt lat="45.7575317" lon="11.2707483"><ele>732.0</ele><time>2026-04-23T09:36:45Z</time></trkpt><trkpt lat="45.7574233" lon="11.2707267"><ele>732.0</ele><time>2026-04-23T09:36:48Z</time></trkpt><trkpt lat="45.7573283" lon="11.2706833"><ele>732.0</ele><time>2026-04-23T09:36:51Z</time></trkpt><trkpt lat="45.7570633" lon="11.2703383"><ele>721.5</ele><time>2026-04-23T09:37:21Z</time></trkpt><trkpt lat="45.7568783" lon="11.27012"><ele>711.0</ele><time>2026-04-23T09:37:25Z</time></trkpt><trkpt lat="45.7566667" lon="11.26987"><ele>711.0</ele><time>2026-04-23T09:37:31Z</time></trkpt><trkpt lat="45.756745" lon="11.269825"><ele>711.0</ele><time>2026-04-23T09:37:34.999Z</time></trkpt><trkpt lat="45.75694" lon="11.2698783"><ele>711.0</ele><time>2026-04-23T09:37:38.999Z</time></trkpt><trkpt lat="45.7571517" lon="11.2698833"><ele>706.5</ele><time>2026-04-23T09:37:43Z</time></trkpt><trkpt lat="45.7573233" lon="11.2697883"><ele>702.0</ele><time>2026-04-23T09:37:45.999Z</time></trkpt><trkpt lat="45.7573833" lon="11.2697567"><ele>697.5</ele><time>2026-04-23T09:37:46.999Z</time></trkpt><trkpt lat="45.7574883" lon="11.26971"><ele>693.0</ele><time>2026-04-23T09:37:48.999Z</time></trkpt><trkpt lat="45.757615" lon="11.2696717"><ele>682.25</ele><time>2026-04-23T09:37:51.999Z</time></trkpt><trkpt lat="45.7577083" lon="11.269665"><ele>671.5</ele><time>2026-04-23T09:37:53.999Z</time></trkpt><trkpt lat="45.7578267" lon="11.26967"><ele>660.75</ele><time>2026-04-23T09:37:56.999Z</time></trkpt><trkpt lat="45.7578717" lon="11.2693833"><ele>650.0</ele><time>2026-04-23T09:38:04Z</time></trkpt><trkpt lat="45.7578783" lon="11.2691833"><ele>650.0</ele><time>2026-04-23T09:38:06.999Z</time></trkpt><trkpt lat="45.7579717" lon="11.2692217"><ele>650.0</ele><time>2026-04-23T09:38:10.999Z</time></trkpt><trkpt lat="45.758075" lon="11.2692683"><ele>650.0</ele><time>2026-04-23T09:38:46.999Z</time></trkpt><trkpt lat="45.7582333" lon="11.2693683"><ele>650.0</ele><time>2026-04-23T09:38:51Z</time></trkpt><trkpt lat="45.7583383" lon="11.2694517"><ele>650.0</ele><time>2026-04-23T09:38:52.999Z</time></trkpt><trkpt lat="45.7584533" lon="11.2694967"><ele>650.0</ele><time>2026-04-23T09:38:55Z</time></trkpt><trkpt lat="45.7585683" lon="11.269495"><ele>650.0</ele><time>2026-04-23T09:38:56.999Z</time></trkpt><trkpt lat="45.758635" lon="11.2694167"><ele>650.0</ele><time>2026-04-23T09:38:58.999Z</time></trkpt><trkpt lat="45.7586433" lon="11.269305"><ele>650.0</ele><time>2026-04-23T09:39:00.999Z</time></trkpt><trkpt lat="45.7586067" lon="11.26916"><ele>649.8</ele><time>2026-04-23T09:39:02.999Z</time></trkpt><trkpt lat="45.7586083" lon="11.26898"><ele>649.6</ele><time>2026-04-23T09:39:04.999Z</time></trkpt><trkpt lat="45.7586267" lon="11.2688883"><ele>649.4000000000001</ele><time>2026-04-23T09:39:05.999Z</time></trkpt><trkpt lat="45.7586417" lon="11.2687867"><ele>649.2</ele><time>2026-04-23T09:39:07Z</time></trkpt><trkpt lat="45.75865" lon="11.26869"><ele>649.0</ele><time>2026-04-23T09:39:08Z</time></trkpt><trkpt lat="45.75863" lon="11.2684283"><ele>649.0</ele><time>2026-04-23T09:39:10.999Z</time></trkpt><trkpt lat="45.7586283" lon="11.268275"><ele>649.0</ele><time>2026-04-23T09:39:12.999Z</time></trkpt><trkpt lat="45.7586517" lon="11.2681283"><ele>649.0</ele><time>2026-04-23T09:39:14.999Z</time></trkpt><trkpt lat="45.7586783" lon="11.26799"><ele>649.0</ele><time>2026-04-23T09:39:16.999Z</time></trkpt><trkpt lat="45.758715" lon="11.267845"><ele>649.0</ele><time>2026-04-23T09:39:18.999Z</time></trkpt><trkpt lat="45.758765" lon="11.2677"><ele>646.0</ele><time>2026-04-23T09:39:21Z</time></trkpt><trkpt lat="45.7587867" lon="11.26757"><ele>643.0</ele><time>2026-04-23T09:39:22.999Z</time></trkpt><trkpt lat="45.758775" lon="11.2674333"><ele>640.0</ele><time>2026-04-23T09:39:25Z</time></trkpt><trkpt lat="45.7587283" lon="11.2673517"><ele>637.0</ele><time>2026-04-23T09:39:26.999Z</time></trkpt><trkpt lat="45.7586417" lon="11.26729"><ele>634.0</ele><time>2026-04-23T09:39:29Z</time></trkpt><trkpt lat="45.7585667" lon="11.2671467"><ele>632.6666666666667</ele><time>2026-04-23T09:39:34Z</time></trkpt><trkpt lat="45.7586033" lon="11.2670533"><ele>631.3333333333334</ele><time>2026-04-23T09:39:35.999Z</time></trkpt><trkpt lat="45.7586867" lon="11.2669433"><ele>630.0</ele><time>2026-04-23T09:39:37.999Z</time></trkpt><trkpt lat="45.75876" lon="11.2669183"><ele>628.6666666666666</ele><time>2026-04-23T09:39:38.999Z</time></trkpt><trkpt lat="45.758845" lon="11.2669067"><ele>627.3333333333333</ele><time>2026-04-23T09:39:39.999Z</time></trkpt><trkpt lat="45.7589267" lon="11.2669283"><ele>626.0</ele><time>2026-04-23T09:39:40.999Z</time></trkpt><trkpt lat="45.7590017" lon="11.266975"><ele>626.0</ele><time>2026-04-23T09:39:41.999Z</time></trkpt><trkpt lat="45.7590833" lon="11.267035"><ele>626.0</ele><time>2026-04-23T09:39:42.999Z</time></trkpt><trkpt lat="45.7591733" lon="11.2671"><ele>626.0</ele><time>2026-04-23T09:39:43.999Z</time></trkpt><trkpt lat="45.7592667" lon="11.2671433"><ele>626.0</ele><time>2026-04-23T09:39:44.999Z</time></trkpt><trkpt lat="45.75935" lon="11.26717"><ele>626.0</ele><time>2026-04-23T09:39:45.999Z</time></trkpt><trkpt lat="45.75942" lon="11.2671683"><ele>626.0</ele><time>2026-04-23T09:39:46.999Z</time></trkpt><trkpt lat="45.759475" lon="11.26712"><ele>626.0</ele><time>2026-04-23T09:39:47.999Z</time></trkpt><trkpt lat="45.7595133" lon="11.26704"><ele>626.0</ele><time>2026-04-23T09:39:49Z</time></trkpt><trkpt lat="45.75952" lon="11.266935"><ele>626.0</ele><time>2026-04-23T09:39:49.999Z</time></trkpt><trkpt lat="45.7594233" lon="11.2667117"><ele>626.0</ele><time>2026-04-23T09:39:51.999Z</time></trkpt><trkpt lat="45.7593667" lon="11.2665933"><ele>626.0</ele><time>2026-04-23T09:39:52.999Z</time></trkpt><trkpt lat="45.75932" lon="11.266485"><ele>626.4</ele><time>2026-04-23T09:39:53.999Z</time></trkpt><trkpt lat="45.7592817" lon="11.2663883"><ele>626.8</ele><time>2026-04-23T09:39:54.999Z</time></trkpt><trkpt lat="45.7592433" lon="11.2662783"><ele>627.1999999999999</ele><time>2026-04-23T09:39:55.999Z</time></trkpt><trkpt lat="45.7592217" lon="11.2661733"><ele>627.6</ele><time>2026-04-23T09:39:56.999Z</time></trkpt><trkpt lat="45.7592083" lon="11.26606"><ele>628.0</ele><time>2026-04-23T09:39:57.999Z</time></trkpt><trkpt lat="45.7592333" lon="11.2656383"><ele>628.3333333333334</ele><time>2026-04-23T09:40:01.999Z</time></trkpt><trkpt lat="45.759295" lon="11.2655583"><ele>628.6666666666667</ele><time>2026-04-23T09:40:03Z</time></trkpt><trkpt lat="45.75936" lon="11.2654567"><ele>629.0</ele><time>2026-04-23T09:40:04Z</time></trkpt><trkpt lat="45.7594183" lon="11.2653733"><ele>629.3333333333334</ele><time>2026-04-23T09:40:04.999Z</time></trkpt><trkpt lat="45.7595" lon="11.265335"><ele>629.6666666666666</ele><time>2026-04-23T09:40:06.999Z</time></trkpt><trkpt lat="45.759495" lon="11.265445"><ele>630.0</ele><time>2026-04-23T09:40:08.999Z</time></trkpt><trkpt lat="45.7594033" lon="11.2656067"><ele>634.4</ele><time>2026-04-23T09:40:10.999Z</time></trkpt><trkpt lat="45.7593867" lon="11.2658533"><ele>638.8</ele><time>2026-04-23T09:40:13.999Z</time></trkpt><trkpt lat="45.75945" lon="11.2659133"><ele>643.2</ele><time>2026-04-23T09:40:14.999Z</time></trkpt><trkpt lat="45.7595317" lon="11.2659783"><ele>647.6</ele><time>2026-04-23T09:40:16Z</time></trkpt><trkpt lat="45.759625" lon="11.2660467"><ele>652.0</ele><time>2026-04-23T09:40:16.999Z</time></trkpt><trkpt lat="45.759705" lon="11.2661167"><ele>652.0</ele><time>2026-04-23T09:40:17.999Z</time></trkpt><trkpt lat="45.7597717" lon="11.2661833"><ele>652.0</ele><time>2026-04-23T09:40:18.999Z</time></trkpt><trkpt lat="45.7598217" lon="11.26625"><ele>652.0</ele><time>2026-04-23T09:40:19.999Z</time></trkpt><trkpt lat="45.7599017" lon="11.26634"><ele>652.0</ele><time>2026-04-23T09:40:21.999Z</time></trkpt><trkpt lat="45.7599633" lon="11.2662867"><ele>652.0</ele><time>2026-04-23T09:40:23.999Z</time></trkpt><trkpt lat="45.7599067" lon="11.2661383"><ele>652.0</ele><time>2026-04-23T09:40:25.999Z</time></trkpt><trkpt lat="45.759845" lon="11.2660417"><ele>652.0</ele><time>2026-04-23T09:40:26.999Z</time></trkpt><trkpt lat="45.759805" lon="11.2659433"><ele>652.0</ele><time>2026-04-23T09:40:27.999Z</time></trkpt><trkpt lat="45.7597867" lon="11.2658567"><ele>652.0</ele><time>2026-04-23T09:40:28.999Z</time></trkpt><trkpt lat="45.75983" lon="11.2657067"><ele>652.0</ele><time>2026-04-23T09:40:30.999Z</time></trkpt><trkpt lat="45.7598917" lon="11.265655"><ele>652.0</ele><time>2026-04-23T09:40:31.999Z</time></trkpt><trkpt lat="45.7600467" lon="11.265515"><ele>651.2</ele><time>2026-04-23T09:40:33.999Z</time></trkpt><trkpt lat="45.76011" lon="11.26541"><ele>650.4000000000001</ele><time>2026-04-23T09:40:34.999Z</time></trkpt><trkpt lat="45.7601567" lon="11.2652783"><ele>649.5999999999999</ele><time>2026-04-23T09:40:36Z</time></trkpt><trkpt lat="45.760195" lon="11.265125"><ele>648.8</ele><time>2026-04-23T09:40:36.999Z</time></trkpt><trkpt lat="45.7602267" lon="11.264955"><ele>648.0</ele><time>2026-04-23T09:40:38Z</time></trkpt><trkpt lat="45.7602483" lon="11.2647983"><ele>651.8333333333334</ele><time>2026-04-23T09:40:38.999Z</time></trkpt><trkpt lat="45.7602783" lon="11.26467"><ele>655.6666666666666</ele><time>2026-04-23T09:40:39.999Z</time></trkpt><trkpt lat="45.7603283" lon="11.2645567"><ele>659.5</ele><time>2026-04-23T09:40:40.999Z</time></trkpt><trkpt lat="45.7603867" lon="11.2644667"><ele>663.3333333333333</ele><time>2026-04-23T09:40:42Z</time></trkpt><trkpt lat="45.7604583" lon="11.264405"><ele>667.1666666666666</ele><time>2026-04-23T09:40:42.999Z</time></trkpt><trkpt lat="45.7605433" lon="11.26438"><ele>671.0</ele><time>2026-04-23T09:40:43.999Z</time></trkpt><trkpt lat="45.7606367" lon="11.2643667"><ele>671.0</ele><time>2026-04-23T09:40:44.999Z</time></trkpt><trkpt lat="45.7607383" lon="11.2643633"><ele>671.0</ele><time>2026-04-23T09:40:45.999Z</time></trkpt><trkpt lat="45.7608367" lon="11.2643467"><ele>671.0</ele><time>2026-04-23T09:40:46.999Z</time></trkpt><trkpt lat="45.7609033" lon="11.26431"><ele>671.0</ele><time>2026-04-23T09:40:47.999Z</time></trkpt><trkpt lat="45.7609633" lon="11.2642117"><ele>671.0</ele><time>2026-04-23T09:40:49.999Z</time></trkpt><trkpt lat="45.7608767" lon="11.2640683"><ele>671.0</ele><time>2026-04-23T09:40:51.999Z</time></trkpt><trkpt lat="45.7608217" lon="11.263955"><ele>671.0</ele><time>2026-04-23T09:40:52.999Z</time></trkpt><trkpt lat="45.7607917" lon="11.2637233"><ele>671.0</ele><time>2026-04-23T09:40:55Z</time></trkpt><trkpt lat="45.7608233" lon="11.2636233"><ele>671.0</ele><time>2026-04-23T09:40:55.999Z</time></trkpt><trkpt lat="45.76088" lon="11.2635467"><ele>671.0</ele><time>2026-04-23T09:40:56.999Z</time></trkpt><trkpt lat="45.7609517" lon="11.2634917"><ele>670.0</ele><time>2026-04-23T09:40:57.999Z</time></trkpt><trkpt lat="45.7610167" lon="11.2634217"><ele>669.0</ele><time>2026-04-23T09:40:58.999Z</time></trkpt><trkpt lat="45.7610667" lon="11.2633533"><ele>668.0</ele><time>2026-04-23T09:40:59.999Z</time></trkpt><trkpt lat="45.7611183" lon="11.263295"><ele>667.0</ele><time>2026-04-23T09:41:00.999Z</time></trkpt><trkpt lat="45.761185" lon="11.2632467"><ele>666.0</ele><time>2026-04-23T09:41:01.999Z</time></trkpt><trkpt lat="45.761275" lon="11.263195"><ele>665.0</ele><time>2026-04-23T09:41:02.999Z</time></trkpt><trkpt lat="45.761375" lon="11.2631267"><ele>668.4</ele><time>2026-04-23T09:41:03.999Z</time></trkpt><trkpt lat="45.761475" lon="11.2630567"><ele>671.8</ele><time>2026-04-23T09:41:04.999Z</time></trkpt><trkpt lat="45.7615683" lon="11.2629767"><ele>675.2</ele><time>2026-04-23T09:41:05.999Z</time></trkpt><trkpt lat="45.7616667" lon="11.2629033"><ele>678.6</ele><time>2026-04-23T09:41:06.999Z</time></trkpt><trkpt lat="45.7617567" lon="11.2628133"><ele>682.0</ele><time>2026-04-23T09:41:07.999Z</time></trkpt><trkpt lat="45.7618433" lon="11.262725"><ele>687.2</ele><time>2026-04-23T09:41:08.999Z</time></trkpt><trkpt lat="45.7619133" lon="11.2626467"><ele>692.4000000000001</ele><time>2026-04-23T09:41:10Z</time></trkpt><trkpt lat="45.761985" lon="11.2625867"><ele>697.5999999999999</ele><time>2026-04-23T09:41:10.999Z</time></trkpt><trkpt lat="45.76204" lon="11.26253"><ele>702.8</ele><time>2026-04-23T09:41:11.999Z</time></trkpt><trkpt lat="45.7620683" lon="11.2623717"><ele>708.0</ele><time>2026-04-23T09:41:13.999Z</time></trkpt><trkpt lat="45.7619317" lon="11.2621983"><ele>704.0</ele><time>2026-04-23T09:41:16.999Z</time></trkpt><trkpt lat="45.76184" lon="11.2621367"><ele>700.0</ele><time>2026-04-23T09:41:17.999Z</time></trkpt><trkpt lat="45.7617667" lon="11.2620817"><ele>696.0</ele><time>2026-04-23T09:41:18.999Z</time></trkpt><trkpt lat="45.7617083" lon="11.262035"><ele>692.0</ele><time>2026-04-23T09:41:20Z</time></trkpt><trkpt lat="45.761645" lon="11.2619717"><ele>688.0</ele><time>2026-04-23T09:41:22Z</time></trkpt><trkpt lat="45.7616483" lon="11.2618533"><ele>684.0</ele><time>2026-04-23T09:41:24.999Z</time></trkpt><trkpt lat="45.7617117" lon="11.261795"><ele>684.0</ele><time>2026-04-23T09:41:26.999Z</time></trkpt><trkpt lat="45.76176" lon="11.26169"><ele>684.0</ele><time>2026-04-23T09:41:28.999Z</time></trkpt><trkpt lat="45.7617517" lon="11.2614883"><ele>684.0</ele><time>2026-04-23T09:41:30.999Z</time></trkpt><trkpt lat="45.7617433" lon="11.2613717"><ele>684.0</ele><time>2026-04-23T09:41:31.999Z</time></trkpt><trkpt lat="45.761735" lon="11.2612517"><ele>684.0</ele><time>2026-04-23T09:41:32.999Z</time></trkpt><trkpt lat="45.7617167" lon="11.2611217"><ele>685.75</ele><time>2026-04-23T09:41:33.999Z</time></trkpt><trkpt lat="45.7616817" lon="11.2609967"><ele>687.5</ele><time>2026-04-23T09:41:34.999Z</time></trkpt><trkpt lat="45.761545" lon="11.2607917"><ele>689.25</ele><time>2026-04-23T09:41:36.999Z</time></trkpt><trkpt lat="45.7614683" lon="11.26069"><ele>691.0</ele><time>2026-04-23T09:41:37.999Z</time></trkpt><trkpt lat="45.7613867" lon="11.260615"><ele>696.8</ele><time>2026-04-23T09:41:38.999Z</time></trkpt><trkpt lat="45.7613" lon="11.260545"><ele>702.5999999999999</ele><time>2026-04-23T09:41:39.999Z</time></trkpt><trkpt lat="45.7612" lon="11.2605083"><ele>708.4</ele><time>2026-04-23T09:41:41Z</time></trkpt><trkpt lat="45.7610817" lon="11.2604817"><ele>714.2</ele><time>2026-04-23T09:41:41.999Z</time></trkpt><trkpt lat="45.7609583" lon="11.260475"><ele>720.0</ele><time>2026-04-23T09:41:42.999Z</time></trkpt><trkpt lat="45.7608583" lon="11.2604783"><ele>720.0</ele><time>2026-04-23T09:41:43.999Z</time></trkpt><trkpt lat="45.760775" lon="11.26048"><ele>720.0</ele><time>2026-04-23T09:41:45Z</time></trkpt><trkpt lat="45.76068" lon="11.2604933"><ele>720.0</ele><time>2026-04-23T09:41:46.999Z</time></trkpt><trkpt lat="45.7605567" lon="11.2604933"><ele>720.0</ele><time>2026-04-23T09:42:09.998Z</time></trkpt><trkpt lat="45.7603867" lon="11.26044"><ele>720.0</ele><time>2026-04-23T09:42:11.998Z</time></trkpt><trkpt lat="45.7603167" lon="11.260395"><ele>720.0</ele><time>2026-04-23T09:42:12.998Z</time></trkpt><trkpt lat="45.7602367" lon="11.260265"><ele>720.0</ele><time>2026-04-23T09:42:14.999Z</time></trkpt><trkpt lat="45.7602083" lon="11.2601817"><ele>720.0</ele><time>2026-04-23T09:42:15.998Z</time></trkpt><trkpt lat="45.760205" lon="11.26007"><ele>720.0</ele><time>2026-04-23T09:42:16.998Z</time></trkpt><trkpt lat="45.7602217" lon="11.2599383"><ele>720.0</ele><time>2026-04-23T09:42:17.998Z</time></trkpt><trkpt lat="45.7602583" lon="11.259765"><ele>723.4</ele><time>2026-04-23T09:42:18.998Z</time></trkpt><trkpt lat="45.7602933" lon="11.2596017"><ele>726.8</ele><time>2026-04-23T09:42:19.998Z</time></trkpt><trkpt lat="45.76034" lon="11.2594417"><ele>730.2</ele><time>2026-04-23T09:42:20.998Z</time></trkpt><trkpt lat="45.760375" lon="11.259285"><ele>733.6</ele><time>2026-04-23T09:42:21.998Z</time></trkpt><trkpt lat="45.7604017" lon="11.2591567"><ele>737.0</ele><time>2026-04-23T09:42:22.999Z</time></trkpt><trkpt lat="45.76042" lon="11.2590517"><ele>737.0</ele><time>2026-04-23T09:42:23.999Z</time></trkpt><trkpt lat="45.760425" lon="11.258955"><ele>737.0</ele><time>2026-04-23T09:42:24.998Z</time></trkpt><trkpt lat="45.76036" lon="11.2588383"><ele>737.0</ele><time>2026-04-23T09:42:26.998Z</time></trkpt><trkpt lat="45.7602867" lon="11.2588017"><ele>737.0</ele><time>2026-04-23T09:42:27.998Z</time></trkpt><trkpt lat="45.7601883" lon="11.2587883"><ele>737.0</ele><time>2026-04-23T09:42:28.998Z</time></trkpt><trkpt lat="45.7600817" lon="11.2587883"><ele>733.2</ele><time>2026-04-23T09:42:29.998Z</time></trkpt><trkpt lat="45.759985" lon="11.258805"><ele>729.4000000000001</ele><time>2026-04-23T09:42:30.998Z</time></trkpt><trkpt lat="45.759835" lon="11.25891"><ele>725.5999999999999</ele><time>2026-04-23T09:42:32.998Z</time></trkpt><trkpt lat="45.7597733" lon="11.25899"><ele>721.8</ele><time>2026-04-23T09:42:33.999Z</time></trkpt><trkpt lat="45.75972" lon="11.2590717"><ele>718.0</ele><time>2026-04-23T09:42:34.998Z</time></trkpt><trkpt lat="45.7596583" lon="11.25913"><ele>714.25</ele><time>2026-04-23T09:42:35.998Z</time></trkpt><trkpt lat="45.7595883" lon="11.2591617"><ele>710.5</ele><time>2026-04-23T09:42:36.998Z</time></trkpt><trkpt lat="45.7594583" lon="11.2590917"><ele>706.75</ele><time>2026-04-23T09:42:38.998Z</time></trkpt><trkpt lat="45.7593717" lon="11.2589983"><ele>703.0</ele><time>2026-04-23T09:42:39.998Z</time></trkpt><trkpt lat="45.759265" lon="11.25887"><ele>702.2</ele><time>2026-04-23T09:42:40.998Z</time></trkpt><trkpt lat="45.7591567" lon="11.2587517"><ele>701.4</ele><time>2026-04-23T09:42:41.999Z</time></trkpt><trkpt lat="45.7590683" lon="11.25864"><ele>700.6</ele><time>2026-04-23T09:42:42.998Z</time></trkpt><trkpt lat="45.7589983" lon="11.258535"><ele>699.8000000000001</ele><time>2026-04-23T09:42:43.998Z</time></trkpt><trkpt lat="45.7589483" lon="11.2584217"><ele>699.0</ele><time>2026-04-23T09:42:44.998Z</time></trkpt><trkpt lat="45.7588983" lon="11.2583083"><ele>699.0</ele><time>2026-04-23T09:42:45.998Z</time></trkpt><trkpt lat="45.758845" lon="11.2581917"><ele>699.0</ele><time>2026-04-23T09:42:46.998Z</time></trkpt><trkpt lat="45.7587817" lon="11.25809"><ele>699.0</ele><time>2026-04-23T09:42:47.998Z</time></trkpt><trkpt lat="45.758695" lon="11.25801"><ele>699.0</ele><time>2026-04-23T09:42:48.998Z</time></trkpt><trkpt lat="45.7585867" lon="11.2579433"><ele>699.0</ele><time>2026-04-23T09:42:49.998Z</time></trkpt><trkpt lat="45.75848" lon="11.257885"><ele>702.25</ele><time>2026-04-23T09:42:50.998Z</time></trkpt><trkpt lat="45.75838" lon="11.2578517"><ele>705.5</ele><time>2026-04-23T09:42:51.999Z</time></trkpt><trkpt lat="45.7581883" lon="11.257875"><ele>708.75</ele><time>2026-04-23T09:42:53.998Z</time></trkpt><trkpt lat="45.758105" lon="11.2579133"><ele>712.0</ele><time>2026-04-23T09:42:54.998Z</time></trkpt><trkpt lat="45.75803" lon="11.2579217"><ele>712.0</ele><time>2026-04-23T09:42:55.998Z</time></trkpt><trkpt lat="45.7579583" lon="11.2578933"><ele>712.0</ele><time>2026-04-23T09:42:56.998Z</time></trkpt><trkpt lat="45.7579" lon="11.2578367"><ele>712.0</ele><time>2026-04-23T09:42:57.998Z</time></trkpt><trkpt lat="45.7578233" lon="11.257815"><ele>712.0</ele><time>2026-04-23T09:42:58.998Z</time></trkpt><trkpt lat="45.7577517" lon="11.257815"><ele>712.0</ele><time>2026-04-23T09:42:59.998Z</time></trkpt><trkpt lat="45.7576783" lon="11.2578567"><ele>712.0</ele><time>2026-04-23T09:43:00.998Z</time></trkpt><trkpt lat="45.7576117" lon="11.2579417"><ele>712.8333333333334</ele><time>2026-04-23T09:43:01.998Z</time></trkpt><trkpt lat="45.7575567" lon="11.2580533"><ele>713.6666666666667</ele><time>2026-04-23T09:43:02.998Z</time></trkpt><trkpt lat="45.7575033" lon="11.25814"><ele>714.5</ele><time>2026-04-23T09:43:03.998Z</time></trkpt><trkpt lat="45.75745" lon="11.2582067"><ele>715.3333333333334</ele><time>2026-04-23T09:43:04.998Z</time></trkpt><trkpt lat="45.7573483" lon="11.258245"><ele>716.1666666666666</ele><time>2026-04-23T09:43:06.999Z</time></trkpt><trkpt lat="45.75728" lon="11.258225"><ele>717.0</ele><time>2026-04-23T09:43:07.998Z</time></trkpt><trkpt lat="45.7572033" lon="11.2582083"><ele>712.75</ele><time>2026-04-23T09:43:08.998Z</time></trkpt><trkpt lat="45.7571317" lon="11.2581983"><ele>708.5</ele><time>2026-04-23T09:43:09.998Z</time></trkpt><trkpt lat="45.75702" lon="11.2582467"><ele>704.25</ele><time>2026-04-23T09:43:11.998Z</time></trkpt><trkpt lat="45.7569" lon="11.2583067"><ele>700.0</ele><time>2026-04-23T09:43:13.998Z</time></trkpt><trkpt lat="45.7566417" lon="11.2583167"><ele>700.0</ele><time>2026-04-23T09:43:16.998Z</time></trkpt><trkpt lat="45.75654" lon="11.258365"><ele>700.0</ele><time>2026-04-23T09:43:17.998Z</time></trkpt><trkpt lat="45.7564583" lon="11.25842"><ele>700.0</ele><time>2026-04-23T09:43:18.998Z</time></trkpt><trkpt lat="45.75639" lon="11.2584917"><ele>700.0</ele><time>2026-04-23T09:43:19.998Z</time></trkpt><trkpt lat="45.7563383" lon="11.2585817"><ele>700.0</ele><time>2026-04-23T09:43:20.998Z</time></trkpt><trkpt lat="45.7563233" lon="11.2587317"><ele>700.0</ele><time>2026-04-23T09:43:21.998Z</time></trkpt><trkpt lat="45.7563233" lon="11.25891"><ele>700.0</ele><time>2026-04-23T09:43:22.998Z</time></trkpt><trkpt lat="45.75632" lon="11.2590467"><ele>700.0</ele><time>2026-04-23T09:43:23.999Z</time></trkpt><trkpt lat="45.7563117" lon="11.2591667"><ele>700.0</ele><time>2026-04-23T09:43:24.999Z</time></trkpt><trkpt lat="45.7562983" lon="11.2592717"><ele>700.0</ele><time>2026-04-23T09:43:25.998Z</time></trkpt><trkpt lat="45.7562383" lon="11.2593433"><ele>696.75</ele><time>2026-04-23T09:43:27.998Z</time></trkpt><trkpt lat="45.7561483" lon="11.2593583"><ele>693.5</ele><time>2026-04-23T09:43:28.998Z</time></trkpt><trkpt lat="45.7560233" lon="11.2593767"><ele>690.25</ele><time>2026-04-23T09:43:29.999Z</time></trkpt><trkpt lat="45.755885" lon="11.2593733"><ele>687.0</ele><time>2026-04-23T09:43:30.998Z</time></trkpt><trkpt lat="45.7557467" lon="11.2593683"><ele>687.0</ele><time>2026-04-23T09:43:31.998Z</time></trkpt><trkpt lat="45.7556017" lon="11.2593517"><ele>687.0</ele><time>2026-04-23T09:43:32.999Z</time></trkpt><trkpt lat="45.75546" lon="11.2593333"><ele>687.0</ele><time>2026-04-23T09:43:33.998Z</time></trkpt><trkpt lat="45.7553267" lon="11.2593083"><ele>687.0</ele><time>2026-04-23T09:43:34.998Z</time></trkpt><trkpt lat="45.75511" lon="11.2592583"><ele>686.6</ele><time>2026-04-23T09:43:36.998Z</time></trkpt><trkpt lat="45.7550117" lon="11.25925"><ele>686.2</ele><time>2026-04-23T09:43:37.998Z</time></trkpt><trkpt lat="45.7549067" lon="11.25927"><ele>685.8</ele><time>2026-04-23T09:43:38.999Z</time></trkpt><trkpt lat="45.75481" lon="11.259315"><ele>685.4</ele><time>2026-04-23T09:43:39.998Z</time></trkpt><trkpt lat="45.754725" lon="11.259385"><ele>685.0</ele><time>2026-04-23T09:43:40.999Z</time></trkpt><trkpt lat="45.7546567" lon="11.259445"><ele>685.0</ele><time>2026-04-23T09:43:41.998Z</time></trkpt><trkpt lat="45.7545783" lon="11.2595033"><ele>685.0</ele><time>2026-04-23T09:43:42.998Z</time></trkpt><trkpt lat="45.7545133" lon="11.2595267"><ele>685.0</ele><time>2026-04-23T09:43:43.999Z</time></trkpt><trkpt lat="45.754445" lon="11.259535"><ele>685.0</ele><time>2026-04-23T09:43:44.998Z</time></trkpt><trkpt lat="45.7543717" lon="11.2594967"><ele>685.0</ele><time>2026-04-23T09:43:45.999Z</time></trkpt><trkpt lat="45.7542917" lon="11.2594117"><ele>685.0</ele><time>2026-04-23T09:43:46.998Z</time></trkpt><trkpt lat="45.7541917" lon="11.2593417"><ele>682.5</ele><time>2026-04-23T09:43:47.998Z</time></trkpt><trkpt lat="45.7540817" lon="11.259275"><ele>680.0</ele><time>2026-04-23T09:43:48.999Z</time></trkpt><trkpt lat="45.75397" lon="11.2592283"><ele>677.5</ele><time>2026-04-23T09:43:49.998Z</time></trkpt><trkpt lat="45.7538667" lon="11.25918"><ele>675.0</ele><time>2026-04-23T09:43:50.998Z</time></trkpt><trkpt lat="45.7537617" lon="11.2591067"><ele>675.0</ele><time>2026-04-23T09:43:51.998Z</time></trkpt><trkpt lat="45.7536883" lon="11.259005"><ele>675.0</ele><time>2026-04-23T09:43:52.998Z</time></trkpt><trkpt lat="45.753625" lon="11.2589167"><ele>675.0</ele><time>2026-04-23T09:43:53.998Z</time></trkpt><trkpt lat="45.7535667" lon="11.2588517"><ele>675.0</ele><time>2026-04-23T09:43:54.998Z</time></trkpt><trkpt lat="45.75347" lon="11.2588133"><ele>675.0</ele><time>2026-04-23T09:43:56.998Z</time></trkpt><trkpt lat="45.75323" lon="11.2588383"><ele>673.0</ele><time>2026-04-23T09:44:19.998Z</time></trkpt><trkpt lat="45.7531483" lon="11.2588117"><ele>671.0</ele><time>2026-04-23T09:44:20.998Z</time></trkpt><trkpt lat="45.753015" lon="11.2587083"><ele>669.0</ele><time>2026-04-23T09:44:22.999Z</time></trkpt><trkpt lat="45.752935" lon="11.2583267"><ele>668.5</ele><time>2026-04-23T09:44:26.998Z</time></trkpt><trkpt lat="45.753005" lon="11.258005"><ele>668.0</ele><time>2026-04-23T09:44:28.998Z</time></trkpt><trkpt lat="45.7531617" lon="11.25764"><ele>668.0</ele><time>2026-04-23T09:44:31.998Z</time></trkpt><trkpt lat="45.7532017" lon="11.25754"><ele>668.0</ele><time>2026-04-23T09:44:32.998Z</time></trkpt><trkpt lat="45.753225" lon="11.257435"><ele>668.0</ele><time>2026-04-23T09:44:33.998Z</time></trkpt><trkpt lat="45.753165" lon="11.2572"><ele>668.0</ele><time>2026-04-23T09:44:35.998Z</time></trkpt><trkpt lat="45.7530683" lon="11.2571017"><ele>669.3333333333333</ele><time>2026-04-23T09:44:36.998Z</time></trkpt><trkpt lat="45.752965" lon="11.2570483"><ele>670.6666666666666</ele><time>2026-04-23T09:44:37.998Z</time></trkpt><trkpt lat="45.7528617" lon="11.2570183"><ele>672.0</ele><time>2026-04-23T09:44:38.998Z</time></trkpt><trkpt lat="45.7526067" lon="11.257"><ele>672.0</ele><time>2026-04-23T09:44:40.998Z</time></trkpt><trkpt lat="45.7524517" lon="11.2570133"><ele>672.0</ele><time>2026-04-23T09:44:41.998Z</time></trkpt><trkpt lat="45.752295" lon="11.25704"><ele>672.0</ele><time>2026-04-23T09:44:42.998Z</time></trkpt><trkpt lat="45.7521467" lon="11.2570783"><ele>672.0</ele><time>2026-04-23T09:44:43.998Z</time></trkpt><trkpt lat="45.752035" lon="11.2571217"><ele>672.0</ele><time>2026-04-23T09:44:44.998Z</time></trkpt><trkpt lat="45.7519433" lon="11.2571633"><ele>672.0</ele><time>2026-04-23T09:44:45.998Z</time></trkpt><trkpt lat="45.7518667" lon="11.2572033"><ele>672.0</ele><time>2026-04-23T09:44:46.998Z</time></trkpt><trkpt lat="45.75175" lon="11.25724"><ele>672.0</ele><time>2026-04-23T09:44:48.998Z</time></trkpt><trkpt lat="45.75164" lon="11.25721"><ele>671.2</ele><time>2026-04-23T09:44:50.999Z</time></trkpt><trkpt lat="45.751605" lon="11.2570683"><ele>670.4000000000001</ele><time>2026-04-23T09:44:52.998Z</time></trkpt><trkpt lat="45.7516283" lon="11.25693"><ele>669.5999999999999</ele><time>2026-04-23T09:44:53.998Z</time></trkpt><trkpt lat="45.7516717" lon="11.2567633"><ele>668.8</ele><time>2026-04-23T09:44:54.998Z</time></trkpt><trkpt lat="45.7517033" lon="11.25662"><ele>668.0</ele><time>2026-04-23T09:44:55.998Z</time></trkpt><trkpt lat="45.7517233" lon="11.2565083"><ele>669.0</ele><time>2026-04-23T09:44:56.999Z</time></trkpt><trkpt lat="45.751745" lon="11.2564167"><ele>670.0</ele><time>2026-04-23T09:44:57.998Z</time></trkpt><trkpt lat="45.7518433" lon="11.2563283"><ele>671.0</ele><time>2026-04-23T09:44:59.998Z</time></trkpt><trkpt lat="45.7520333" lon="11.25627"><ele>672.0</ele><time>2026-04-23T09:45:01.998Z</time></trkpt><trkpt lat="45.7521483" lon="11.2562383"><ele>672.0</ele><time>2026-04-23T09:45:02.998Z</time></trkpt><trkpt lat="45.75225" lon="11.256185"><ele>672.0</ele><time>2026-04-23T09:45:03.998Z</time></trkpt><trkpt lat="45.7523367" lon="11.256125"><ele>672.0</ele><time>2026-04-23T09:45:04.998Z</time></trkpt><trkpt lat="45.752425" lon="11.2560833"><ele>672.0</ele><time>2026-04-23T09:45:05.998Z</time></trkpt><trkpt lat="45.7525067" lon="11.256055"><ele>672.0</ele><time>2026-04-23T09:45:06.998Z</time></trkpt><trkpt lat="45.752585" lon="11.2560233"><ele>672.0</ele><time>2026-04-23T09:45:07.998Z</time></trkpt><trkpt lat="45.7526683" lon="11.256"><ele>672.0</ele><time>2026-04-23T09:45:08.998Z</time></trkpt><trkpt lat="45.7527433" lon="11.255975"><ele>672.0</ele><time>2026-04-23T09:45:09.998Z</time></trkpt><trkpt lat="45.7528117" lon="11.25595"><ele>672.0</ele><time>2026-04-23T09:45:10.998Z</time></trkpt><trkpt lat="45.7529133" lon="11.2559217"><ele>672.0</ele><time>2026-04-23T09:45:12.998Z</time></trkpt><trkpt lat="45.752975" lon="11.255885"><ele>672.0</ele><time>2026-04-23T09:46:11.997Z</time></trkpt><trkpt lat="45.7531567" lon="11.2558533"><ele>672.5714285714286</ele><time>2026-04-23T09:46:14.997Z</time></trkpt><trkpt lat="45.7532217" lon="11.2558517"><ele>673.1428571428571</ele><time>2026-04-23T09:46:15.997Z</time></trkpt><trkpt lat="45.7532867" lon="11.2558567"><ele>673.7142857142858</ele><time>2026-04-23T09:46:16.998Z</time></trkpt><trkpt lat="45.7533533" lon="11.2558733"><ele>674.2857142857142</ele><time>2026-04-23T09:46:17.997Z</time></trkpt><trkpt lat="45.7534233" lon="11.2558867"><ele>674.8571428571429</ele><time>2026-04-23T09:46:18.997Z</time></trkpt><trkpt lat="45.753495" lon="11.255895"><ele>675.4285714285714</ele><time>2026-04-23T09:46:19.998Z</time></trkpt><trkpt lat="45.7535583" lon="11.25591"><ele>676.0</ele><time>2026-04-23T09:46:20.997Z</time></trkpt><trkpt lat="45.7536233" lon="11.2559217"><ele>678.3333333333334</ele><time>2026-04-23T09:46:21.997Z</time></trkpt><trkpt lat="45.75369" lon="11.255945"><ele>680.6666666666667</ele><time>2026-04-23T09:46:22.997Z</time></trkpt><trkpt lat="45.7537983" lon="11.2560317"><ele>683.0</ele><time>2026-04-23T09:46:24.997Z</time></trkpt><trkpt lat="45.753875" lon="11.2560983"><ele>685.3333333333334</ele><time>2026-04-23T09:46:26.997Z</time></trkpt><trkpt lat="45.7539367" lon="11.2561333"><ele>687.6666666666666</ele><time>2026-04-23T09:46:28.997Z</time></trkpt><trkpt lat="45.7539933" lon="11.2561733"><ele>690.0</ele><time>2026-04-23T09:46:30.998Z</time></trkpt><trkpt lat="45.7540617" lon="11.256205"><ele>690.0</ele><time>2026-04-23T09:46:32.997Z</time></trkpt><trkpt lat="45.7542183" lon="11.2563183"><ele>690.0</ele><time>2026-04-23T09:46:36.997Z</time></trkpt><trkpt lat="45.7543033" lon="11.2563617"><ele>690.0</ele><time>2026-04-23T09:46:38.997Z</time></trkpt><trkpt lat="45.75437" lon="11.2564167"><ele>690.0</ele><time>2026-04-23T09:46:40.998Z</time></trkpt><trkpt lat="45.754455" lon="11.2564583"><ele>690.0</ele><time>2026-04-23T09:46:42.997Z</time></trkpt><trkpt lat="45.754555" lon="11.2565017"><ele>694.8333333333334</ele><time>2026-04-23T09:46:44.997Z</time></trkpt><trkpt lat="45.7546417" lon="11.2565467"><ele>699.6666666666666</ele><time>2026-04-23T09:46:46.997Z</time></trkpt><trkpt lat="45.7547367" lon="11.2565667"><ele>704.5</ele><time>2026-04-23T09:46:48.997Z</time></trkpt><trkpt lat="45.7548467" lon="11.2565833"><ele>709.3333333333333</ele><time>2026-04-23T09:46:50.997Z</time></trkpt><trkpt lat="45.7549117" lon="11.2566183"><ele>714.1666666666666</ele><time>2026-04-23T09:46:52.997Z</time></trkpt><trkpt lat="45.7549817" lon="11.2566333"><ele>719.0</ele><time>2026-04-23T09:46:54.997Z</time></trkpt><trkpt lat="45.7551533" lon="11.25665"><ele>721.6</ele><time>2026-04-23T09:46:58.997Z</time></trkpt><trkpt lat="45.75525" lon="11.2566517"><ele>724.2</ele><time>2026-04-23T09:47:00.997Z</time></trkpt><trkpt lat="45.7553267" lon="11.256655"><ele>726.8000000000001</ele><time>2026-04-23T09:48:04.997Z</time></trkpt><trkpt lat="45.7554817" lon="11.2566583"><ele>729.4000000000001</ele><time>2026-04-23T09:48:08.998Z</time></trkpt><trkpt lat="45.7555433" lon="11.2566933"><ele>732.0</ele><time>2026-04-23T09:48:11.997Z</time></trkpt><trkpt lat="45.7556367" lon="11.2567433"><ele>732.0</ele><time>2026-04-23T09:48:14.997Z</time></trkpt><trkpt lat="45.7557333" lon="11.2567717"><ele>732.0</ele><time>2026-04-23T09:48:16.997Z</time></trkpt><trkpt lat="45.7557983" lon="11.2567767"><ele>732.0</ele><time>2026-04-23T09:48:17.997Z</time></trkpt><trkpt lat="45.7559067" lon="11.256795"><ele>732.0</ele><time>2026-04-23T09:48:19.997Z</time></trkpt><trkpt lat="45.7560083" lon="11.2567933"><ele>732.0</ele><time>2026-04-23T09:48:21.997Z</time></trkpt><trkpt lat="45.7561767" lon="11.2567767"><ele>734.5</ele><time>2026-04-23T09:49:49.997Z</time></trkpt><trkpt lat="45.7563267" lon="11.2567683"><ele>737.0</ele><time>2026-04-23T09:49:51.996Z</time></trkpt><trkpt lat="45.756415" lon="11.2567633"><ele>739.5</ele><time>2026-04-23T09:49:52.997Z</time></trkpt><trkpt lat="45.7565183" lon="11.2567667"><ele>742.0</ele><time>2026-04-23T09:49:53.997Z</time></trkpt><trkpt lat="45.7566433" lon="11.2567833"><ele>742.0</ele><time>2026-04-23T09:49:54.996Z</time></trkpt><trkpt lat="45.7567467" lon="11.2568167"><ele>742.0</ele><time>2026-04-23T09:49:55.996Z</time></trkpt><trkpt lat="45.75685" lon="11.2568517"><ele>742.0</ele><time>2026-04-23T09:49:56.996Z</time></trkpt><trkpt lat="45.7569367" lon="11.25687"><ele>742.0</ele><time>2026-04-23T09:49:57.996Z</time></trkpt><trkpt lat="45.7570183" lon="11.2568683"><ele>742.0</ele><time>2026-04-23T09:49:58.996Z</time></trkpt><trkpt lat="45.7570967" lon="11.2568483"><ele>742.5</ele><time>2026-04-23T09:49:59.996Z</time></trkpt><trkpt lat="45.7571667" lon="11.25682"><ele>743.0</ele><time>2026-04-23T09:50:00.997Z</time></trkpt><trkpt lat="45.7572283" lon="11.2567767"><ele>743.5</ele><time>2026-04-23T09:50:01.996Z</time></trkpt><trkpt lat="45.7573033" lon="11.2566483"><ele>744.0</ele><time>2026-04-23T09:50:03.996Z</time></trkpt><trkpt lat="45.7573083" lon="11.256545"><ele>744.5</ele><time>2026-04-23T09:50:05.996Z</time></trkpt><trkpt lat="45.757275" lon="11.2564183"><ele>745.0</ele><time>2026-04-23T09:50:07.996Z</time></trkpt><trkpt lat="45.7572217" lon="11.256315"><ele>746.2</ele><time>2026-04-23T09:50:09.997Z</time></trkpt><trkpt lat="45.75714" lon="11.2562933"><ele>747.4</ele><time>2026-04-23T09:50:11.997Z</time></trkpt><trkpt lat="45.75704" lon="11.25617"><ele>748.5999999999999</ele><time>2026-04-23T09:50:16.997Z</time></trkpt><trkpt lat="45.75706" lon="11.2560217"><ele>749.8</ele><time>2026-04-23T09:50:19.996Z</time></trkpt><trkpt lat="45.7571" lon="11.2558833"><ele>751.0</ele><time>2026-04-23T09:50:21.996Z</time></trkpt><trkpt lat="45.7571633" lon="11.255745"><ele>751.0</ele><time>2026-04-23T09:50:23.996Z</time></trkpt><trkpt lat="45.7571967" lon="11.2556683"><ele>751.0</ele><time>2026-04-23T09:50:24.996Z</time></trkpt><trkpt lat="45.7572633" lon="11.2555317"><ele>751.0</ele><time>2026-04-23T09:50:26.996Z</time></trkpt><trkpt lat="45.757335" lon="11.2554267"><ele>751.0</ele><time>2026-04-23T09:50:28.996Z</time></trkpt><trkpt lat="45.7574" lon="11.2552917"><ele>751.0</ele><time>2026-04-23T09:50:30.996Z</time></trkpt><trkpt lat="45.7574533" lon="11.2551333"><ele>749.1999999999999</ele><time>2026-04-23T09:50:32.996Z</time></trkpt><trkpt lat="45.7574883" lon="11.2548033"><ele>747.4</ele><time>2026-04-23T09:50:36.996Z</time></trkpt><trkpt lat="45.7575167" lon="11.2547167"><ele>745.6</ele><time>2026-04-23T09:50:37.996Z</time></trkpt><trkpt lat="45.7575633" lon="11.254635"><ele>743.8</ele><time>2026-04-23T09:50:38.996Z</time></trkpt><trkpt lat="45.7576167" lon="11.2545733"><ele>742.0</ele><time>2026-04-23T09:50:39.996Z</time></trkpt><trkpt lat="45.7577317" lon="11.2544983"><ele>742.0</ele><time>2026-04-23T09:50:41.996Z</time></trkpt><trkpt lat="45.757835" lon="11.2544133"><ele>742.0</ele><time>2026-04-23T09:50:43.996Z</time></trkpt><trkpt lat="45.7579083" lon="11.2542717"><ele>742.0</ele><time>2026-04-23T09:50:45.996Z</time></trkpt><trkpt lat="45.7579533" lon="11.2541883"><ele>742.0</ele><time>2026-04-23T09:50:46.996Z</time></trkpt><trkpt lat="45.758015" lon="11.2541"><ele>742.0</ele><time>2026-04-23T09:50:47.997Z</time></trkpt><trkpt lat="45.75809" lon="11.2540217"><ele>738.4000000000001</ele><time>2026-04-23T09:50:48.996Z</time></trkpt><trkpt lat="45.7581617" lon="11.2539367"><ele>734.8000000000001</ele><time>2026-04-23T09:50:49.996Z</time></trkpt><trkpt lat="45.7582467" lon="11.2538617"><ele>731.2</ele><time>2026-04-23T09:50:50.996Z</time></trkpt><trkpt lat="45.7583283" lon="11.2537783"><ele>727.6</ele><time>2026-04-23T09:50:51.996Z</time></trkpt><trkpt lat="45.758415" lon="11.2537"><ele>724.0</ele><time>2026-04-23T09:50:52.996Z</time></trkpt><trkpt lat="45.7584817" lon="11.253625"><ele>730.4000000000001</ele><time>2026-04-23T09:50:53.996Z</time></trkpt><trkpt lat="45.7585783" lon="11.2534217"><ele>736.8</ele><time>2026-04-23T09:50:55.996Z</time></trkpt><trkpt lat="45.7586117" lon="11.253315"><ele>743.2</ele><time>2026-04-23T09:50:56.997Z</time></trkpt><trkpt lat="45.7586483" lon="11.2532017"><ele>749.5999999999999</ele><time>2026-04-23T09:50:57.996Z</time></trkpt><trkpt lat="45.7586833" lon="11.25309"><ele>756.0</ele><time>2026-04-23T09:50:58.996Z</time></trkpt><trkpt lat="45.7587233" lon="11.2529867"><ele>756.0</ele><time>2026-04-23T09:50:59.996Z</time></trkpt><trkpt lat="45.7587783" lon="11.25288"><ele>756.0</ele><time>2026-04-23T09:51:00.996Z</time></trkpt><trkpt lat="45.7588367" lon="11.2527683"><ele>756.0</ele><time>2026-04-23T09:51:01.996Z</time></trkpt><trkpt lat="45.758895" lon="11.2526467"><ele>756.0</ele><time>2026-04-23T09:51:02.996Z</time></trkpt><trkpt lat="45.75895" lon="11.2525217"><ele>756.0</ele><time>2026-04-23T09:51:03.996Z</time></trkpt><trkpt lat="45.7589933" lon="11.2523783"><ele>754.0</ele><time>2026-04-23T09:51:04.997Z</time></trkpt><trkpt lat="45.7590283" lon="11.25223"><ele>752.0</ele><time>2026-04-23T09:51:05.996Z</time></trkpt><trkpt lat="45.7590583" lon="11.2521017"><ele>750.0</ele><time>2026-04-23T09:51:06.996Z</time></trkpt><trkpt lat="45.7590817" lon="11.25198"><ele>748.0</ele><time>2026-04-23T09:51:07.996Z</time></trkpt><trkpt lat="45.759095" lon="11.2518667"><ele>746.0</ele><time>2026-04-23T09:51:08.996Z</time></trkpt><trkpt lat="45.7591" lon="11.2517067"><ele>746.0</ele><time>2026-04-23T09:51:10.996Z</time></trkpt><trkpt lat="45.75915" lon="11.2516117"><ele>746.0</ele><time>2026-04-23T09:51:12.996Z</time></trkpt><trkpt lat="45.75924" lon="11.2514983"><ele>746.0</ele><time>2026-04-23T09:51:14.996Z</time></trkpt><trkpt lat="45.75929" lon="11.2513267"><ele>746.0</ele><time>2026-04-23T09:51:16.996Z</time></trkpt><trkpt lat="45.7592717" lon="11.251235"><ele>746.0</ele><time>2026-04-23T09:51:17.996Z</time></trkpt><trkpt lat="45.7592467" lon="11.2511517"><ele>748.5999999999999</ele><time>2026-04-23T09:51:18.996Z</time></trkpt><trkpt lat="45.7592617" lon="11.2510367"><ele>751.2</ele><time>2026-04-23T09:51:20.996Z</time></trkpt><trkpt lat="45.7593717" lon="11.25098"><ele>753.8</ele><time>2026-04-23T09:51:22.996Z</time></trkpt><trkpt lat="45.7594633" lon="11.25093"><ele>756.4000000000001</ele><time>2026-04-23T09:51:23.996Z</time></trkpt><trkpt lat="45.7595533" lon="11.25086"><ele>759.0</ele><time>2026-04-23T09:51:24.997Z</time></trkpt><trkpt lat="45.7596417" lon="11.2507683"><ele>759.0</ele><time>2026-04-23T09:51:25.996Z</time></trkpt><trkpt lat="45.75971" lon="11.2506817"><ele>759.0</ele><time>2026-04-23T09:51:26.996Z</time></trkpt><trkpt lat="45.7597733" lon="11.250595"><ele>759.0</ele><time>2026-04-23T09:51:27.996Z</time></trkpt><trkpt lat="45.7598333" lon="11.250535"><ele>759.0</ele><time>2026-04-23T09:51:28.996Z</time></trkpt><trkpt lat="45.7599417" lon="11.2505183"><ele>759.0</ele><time>2026-04-23T09:51:30.996Z</time></trkpt><trkpt lat="45.760015" lon="11.2505883"><ele>759.0</ele><time>2026-04-23T09:51:32.996Z</time></trkpt><trkpt lat="45.7601217" lon="11.2505433"><ele>758.2</ele><time>2026-04-23T09:51:35.996Z</time></trkpt><trkpt lat="45.7603367" lon="11.250435"><ele>757.4000000000001</ele><time>2026-04-23T09:51:39.996Z</time></trkpt><trkpt lat="45.7604" lon="11.2504383"><ele>756.6</ele><time>2026-04-23T09:51:40.996Z</time></trkpt><trkpt lat="45.7604733" lon="11.250415"><ele>755.8</ele><time>2026-04-23T09:51:41.997Z</time></trkpt><trkpt lat="45.76055" lon="11.250385"><ele>755.0</ele><time>2026-04-23T09:51:42.996Z</time></trkpt><trkpt lat="45.76061" lon="11.2503267"><ele>755.0</ele><time>2026-04-23T09:51:43.997Z</time></trkpt><trkpt lat="45.7606633" lon="11.25024"><ele>755.0</ele><time>2026-04-23T09:51:44.996Z</time></trkpt><trkpt lat="45.7607183" lon="11.2501567"><ele>755.0</ele><time>2026-04-23T09:51:45.996Z</time></trkpt><trkpt lat="45.760775" lon="11.2500767"><ele>755.0</ele><time>2026-04-23T09:51:46.996Z</time></trkpt><trkpt lat="45.760835" lon="11.2500133"><ele>755.0</ele><time>2026-04-23T09:51:47.997Z</time></trkpt><trkpt lat="45.760905" lon="11.2499483"><ele>755.0</ele><time>2026-04-23T09:51:48.996Z</time></trkpt><trkpt lat="45.7609633" lon="11.2498683"><ele>753.2</ele><time>2026-04-23T09:51:49.997Z</time></trkpt><trkpt lat="45.7610183" lon="11.2497883"><ele>751.4</ele><time>2026-04-23T09:51:50.996Z</time></trkpt><trkpt lat="45.76107" lon="11.24972"><ele>749.5999999999999</ele><time>2026-04-23T09:51:51.996Z</time></trkpt><trkpt lat="45.7611233" lon="11.2496667"><ele>747.8</ele><time>2026-04-23T09:51:52.996Z</time></trkpt><trkpt lat="45.7611933" lon="11.2495333"><ele>746.0</ele><time>2026-04-23T09:51:54.996Z</time></trkpt><trkpt lat="45.7612" lon="11.2493517"><ele>756.4</ele><time>2026-04-23T09:51:56.996Z</time></trkpt><trkpt lat="45.76113" lon="11.2491167"><ele>766.8</ele><time>2026-04-23T09:51:58.996Z</time></trkpt><trkpt lat="45.7610983" lon="11.24901"><ele>777.1999999999999</ele><time>2026-04-23T09:51:59.996Z</time></trkpt><trkpt lat="45.7610833" lon="11.2488983"><ele>787.5999999999999</ele><time>2026-04-23T09:52:00.996Z</time></trkpt><trkpt lat="45.76108" lon="11.2487883"><ele>798.0</ele><time>2026-04-23T09:52:01.996Z</time></trkpt><trkpt lat="45.7610833" lon="11.2486933"><ele>799.0</ele><time>2026-04-23T09:52:02.997Z</time></trkpt><trkpt lat="45.761045" lon="11.2485483"><ele>800.0</ele><time>2026-04-23T09:52:04.997Z</time></trkpt><trkpt lat="45.7609467" lon="11.2485283"><ele>801.0</ele><time>2026-04-23T09:52:06.996Z</time></trkpt><trkpt lat="45.7608483" lon="11.2486067"><ele>802.0</ele><time>2026-04-23T09:52:08.996Z</time></trkpt><trkpt lat="45.7607383" lon="11.2486567"><ele>803.0</ele><time>2026-04-23T09:52:10.996Z</time></trkpt><trkpt lat="45.760675" lon="11.2486567"><ele>794.5999999999999</ele><time>2026-04-23T09:52:11.996Z</time></trkpt><trkpt lat="45.7605633" lon="11.2486183"><ele>786.1999999999999</ele><time>2026-04-23T09:52:13.996Z</time></trkpt><trkpt lat="45.760465" lon="11.24853"><ele>777.8</ele><time>2026-04-23T09:52:15.996Z</time></trkpt><trkpt lat="45.7604183" lon="11.2484583"><ele>769.4</ele><time>2026-04-23T09:52:16.996Z</time></trkpt><trkpt lat="45.7603633" lon="11.2484117"><ele>761.0</ele><time>2026-04-23T09:52:17.996Z</time></trkpt><trkpt lat="45.7602383" lon="11.2483467"><ele>753.8</ele><time>2026-04-23T09:52:19.996Z</time></trkpt><trkpt lat="45.7601533" lon="11.2483317"><ele>746.5999999999999</ele><time>2026-04-23T09:52:21.996Z</time></trkpt><trkpt lat="45.7601417" lon="11.2482283"><ele>739.4</ele><time>2026-04-23T09:52:24.996Z</time></trkpt><trkpt lat="45.7601683" lon="11.24804"><ele>732.2</ele><time>2026-04-23T09:52:26.996Z</time></trkpt><trkpt lat="45.76017" lon="11.2479233"><ele>725.0</ele><time>2026-04-23T09:52:27.996Z</time></trkpt><trkpt lat="45.7601683" lon="11.247795"><ele>725.0</ele><time>2026-04-23T09:52:28.996Z</time></trkpt><trkpt lat="45.760165" lon="11.247655"><ele>725.0</ele><time>2026-04-23T09:52:29.996Z</time></trkpt><trkpt lat="45.7601717" lon="11.247525"><ele>725.0</ele><time>2026-04-23T09:52:30.995Z</time></trkpt><trkpt lat="45.7601767" lon="11.2474183"><ele>725.0</ele><time>2026-04-23T09:52:31.995Z</time></trkpt><trkpt lat="45.760155" lon="11.24725"><ele>725.0</ele><time>2026-04-23T09:52:33.995Z</time></trkpt><trkpt lat="45.760175" lon="11.247105"><ele>729.25</ele><time>2026-04-23T09:52:35.995Z</time></trkpt><trkpt lat="45.7602417" lon="11.2469617"><ele>733.5</ele><time>2026-04-23T09:52:37.995Z</time></trkpt><trkpt lat="45.76023" lon="11.2467833"><ele>737.75</ele><time>2026-04-23T09:52:39.995Z</time></trkpt><trkpt lat="45.7601283" lon="11.24664"><ele>742.0</ele><time>2026-04-23T09:52:41.995Z</time></trkpt><trkpt lat="45.7600533" lon="11.2465817"><ele>742.0</ele><time>2026-04-23T09:52:42.995Z</time></trkpt><trkpt lat="45.759975" lon="11.24655"><ele>742.0</ele><time>2026-04-23T09:52:43.995Z</time></trkpt><trkpt lat="45.75989" lon="11.246545"><ele>742.0</ele><time>2026-04-23T09:52:44.995Z</time></trkpt><trkpt lat="45.7598083" lon="11.24655"><ele>742.0</ele><time>2026-04-23T09:52:45.995Z</time></trkpt><trkpt lat="45.7597267" lon="11.2465733"><ele>742.0</ele><time>2026-04-23T09:52:46.995Z</time></trkpt><trkpt lat="45.759635" lon="11.2466167"><ele>742.0</ele><time>2026-04-23T09:52:47.996Z</time></trkpt><trkpt lat="45.7595433" lon="11.24665"><ele>742.0</ele><time>2026-04-23T09:52:48.995Z</time></trkpt><trkpt lat="45.7594617" lon="11.246695"><ele>742.0</ele><time>2026-04-23T09:52:49.996Z</time></trkpt><trkpt lat="45.75938" lon="11.2467433"><ele>742.0</ele><time>2026-04-23T09:52:50.996Z</time></trkpt><trkpt lat="45.7593083" lon="11.2467883"><ele>742.0</ele><time>2026-04-23T09:52:51.995Z</time></trkpt><trkpt lat="45.7591717" lon="11.246795"><ele>742.0</ele><time>2026-04-23T09:52:53.995Z</time></trkpt><trkpt lat="45.7590967" lon="11.246775"><ele>739.8333333333334</ele><time>2026-04-23T09:52:54.995Z</time></trkpt><trkpt lat="45.759025" lon="11.24673"><ele>737.6666666666667</ele><time>2026-04-23T09:52:55.995Z</time></trkpt><trkpt lat="45.7589517" lon="11.246675"><ele>735.5</ele><time>2026-04-23T09:52:56.995Z</time></trkpt><trkpt lat="45.7588633" lon="11.246645"><ele>733.3333333333334</ele><time>2026-04-23T09:52:57.995Z</time></trkpt><trkpt lat="45.7587783" lon="11.2466267"><ele>731.1666666666666</ele><time>2026-04-23T09:52:58.995Z</time></trkpt><trkpt lat="45.7586967" lon="11.2466083"><ele>729.0</ele><time>2026-04-23T09:52:59.995Z</time></trkpt><trkpt lat="45.7586333" lon="11.2465917"><ele>728.0</ele><time>2026-04-23T09:53:00.996Z</time></trkpt><trkpt lat="45.7585117" lon="11.2464817"><ele>727.0</ele><time>2026-04-23T09:53:02.996Z</time></trkpt><trkpt lat="45.758455" lon="11.246395"><ele>726.0</ele><time>2026-04-23T09:53:03.995Z</time></trkpt><trkpt lat="45.7583883" lon="11.2463017"><ele>725.0</ele><time>2026-04-23T09:53:04.995Z</time></trkpt><trkpt lat="45.7583267" lon="11.246195"><ele>724.0</ele><time>2026-04-23T09:53:05.995Z</time></trkpt><trkpt lat="45.758275" lon="11.24609"><ele>724.0</ele><time>2026-04-23T09:53:06.995Z</time></trkpt><trkpt lat="45.7582367" lon="11.246005"><ele>724.0</ele><time>2026-04-23T09:53:07.995Z</time></trkpt><trkpt lat="45.7582517" lon="11.2458333"><ele>724.0</ele><time>2026-04-23T09:53:09.995Z</time></trkpt><trkpt lat="45.7582983" lon="11.245675"><ele>724.0</ele><time>2026-04-23T09:53:11.995Z</time></trkpt><trkpt lat="45.75834" lon="11.2455683"><ele>724.0</ele><time>2026-04-23T09:53:12.995Z</time></trkpt><trkpt lat="45.7583883" lon="11.2454617"><ele>725.0</ele><time>2026-04-23T09:53:13.996Z</time></trkpt><trkpt lat="45.7584467" lon="11.24536"><ele>726.0</ele><time>2026-04-23T09:53:14.996Z</time></trkpt><trkpt lat="45.75851" lon="11.24524"><ele>727.0</ele><time>2026-04-23T09:53:15.995Z</time></trkpt><trkpt lat="45.7585683" lon="11.2451167"><ele>728.0</ele><time>2026-04-23T09:53:16.995Z</time></trkpt><trkpt lat="45.7586267" lon="11.245015"><ele>729.0</ele><time>2026-04-23T09:53:17.995Z</time></trkpt><trkpt lat="45.7586733" lon="11.2449183"><ele>729.0</ele><time>2026-04-23T09:53:18.995Z</time></trkpt><trkpt lat="45.75872" lon="11.24484"><ele>729.0</ele><time>2026-04-23T09:53:19.995Z</time></trkpt><trkpt lat="45.758825" lon="11.2447583"><ele>729.0</ele><time>2026-04-23T09:53:21.995Z</time></trkpt><trkpt lat="45.758985" lon="11.2447433"><ele>729.0</ele><time>2026-04-23T09:53:23.995Z</time></trkpt><trkpt lat="45.759065" lon="11.244755"><ele>729.0</ele><time>2026-04-23T09:53:24.995Z</time></trkpt><trkpt lat="45.759145" lon="11.2447717"><ele>728.3333333333334</ele><time>2026-04-23T09:53:25.995Z</time></trkpt><trkpt lat="45.7592183" lon="11.2447783"><ele>727.6666666666666</ele><time>2026-04-23T09:53:26.995Z</time></trkpt><trkpt lat="45.7592883" lon="11.24477"><ele>727.0</ele><time>2026-04-23T09:53:27.995Z</time></trkpt><trkpt lat="45.7594033" lon="11.24476"><ele>726.3333333333333</ele><time>2026-04-23T09:53:29.995Z</time></trkpt><trkpt lat="45.7594633" lon="11.244725"><ele>725.6666666666666</ele><time>2026-04-23T09:53:30.995Z</time></trkpt><trkpt lat="45.75952" lon="11.2446733"><ele>725.0</ele><time>2026-04-23T09:53:31.995Z</time></trkpt><trkpt lat="45.75958" lon="11.24463"><ele>725.0</ele><time>2026-04-23T09:53:32.995Z</time></trkpt><trkpt lat="45.75964" lon="11.2445983"><ele>725.0</ele><time>2026-04-23T09:53:33.995Z</time></trkpt><trkpt lat="45.75975" lon="11.2445817"><ele>725.0</ele><time>2026-04-23T09:53:35.995Z</time></trkpt><trkpt lat="45.7598133" lon="11.2445767"><ele>725.0</ele><time>2026-04-23T09:53:36.995Z</time></trkpt><trkpt lat="45.759885" lon="11.244565"><ele>725.0</ele><time>2026-04-23T09:53:37.995Z</time></trkpt><trkpt lat="45.7599533" lon="11.244545"><ele>725.0</ele><time>2026-04-23T09:53:38.996Z</time></trkpt><trkpt lat="45.7600083" lon="11.2444967"><ele>725.0</ele><time>2026-04-23T09:53:39.995Z</time></trkpt><trkpt lat="45.7600733" lon="11.2443867"><ele>725.0</ele><time>2026-04-23T09:53:41.995Z</time></trkpt><trkpt lat="45.76011" lon="11.2442583"><ele>725.0</ele><time>2026-04-23T09:53:43.995Z</time></trkpt><trkpt lat="45.760245" lon="11.2441483"><ele>725.0</ele><time>2026-04-23T09:53:46.996Z</time></trkpt><trkpt lat="45.76031" lon="11.2441433"><ele>725.0</ele><time>2026-04-23T09:53:47.995Z</time></trkpt><trkpt lat="45.7603767" lon="11.2441383"><ele>725.0</ele><time>2026-04-23T09:53:48.996Z</time></trkpt><trkpt lat="45.76044" lon="11.24414"><ele>725.0</ele><time>2026-04-23T09:53:49.995Z</time></trkpt><trkpt lat="45.7605117" lon="11.244135"><ele>726.5</ele><time>2026-04-23T09:53:50.996Z</time></trkpt><trkpt lat="45.760585" lon="11.244145"><ele>728.0</ele><time>2026-04-23T09:53:51.995Z</time></trkpt><trkpt lat="45.7606533" lon="11.2441633"><ele>729.5</ele><time>2026-04-23T09:53:52.995Z</time></trkpt><trkpt lat="45.7607683" lon="11.2442133"><ele>731.0</ele><time>2026-04-23T09:53:54.995Z</time></trkpt><trkpt lat="45.76084" lon="11.24424"><ele>732.5</ele><time>2026-04-23T09:53:55.995Z</time></trkpt><trkpt lat="45.7609167" lon="11.2442417"><ele>734.0</ele><time>2026-04-23T09:53:56.995Z</time></trkpt><trkpt lat="45.76103" lon="11.2442383"><ele>734.8333333333333</ele><time>2026-04-23T09:53:58.995Z</time></trkpt><trkpt lat="45.7611383" lon="11.24422"><ele>735.6666666666666</ele><time>2026-04-23T09:54:00.996Z</time></trkpt><trkpt lat="45.7611983" lon="11.2441917"><ele>736.5</ele><time>2026-04-23T09:54:01.995Z</time></trkpt><trkpt lat="45.7612733" lon="11.2441567"><ele>737.3333333333334</ele><time>2026-04-23T09:54:02.995Z</time></trkpt><trkpt lat="45.761355" lon="11.2441233"><ele>738.1666666666667</ele><time>2026-04-23T09:54:03.996Z</time></trkpt><trkpt lat="45.7614417" lon="11.24408"><ele>739.0</ele><time>2026-04-23T09:54:04.995Z</time></trkpt><trkpt lat="45.7615783" lon="11.2439683"><ele>739.0</ele><time>2026-04-23T09:54:06.995Z</time></trkpt><trkpt lat="45.7616783" lon="11.2439417"><ele>739.0</ele><time>2026-04-23T09:54:08.996Z</time></trkpt><trkpt lat="45.76177" lon="11.24404"><ele>739.0</ele><time>2026-04-23T09:54:10.995Z</time></trkpt><trkpt lat="45.7618033" lon="11.2441283"><ele>739.0</ele><time>2026-04-23T09:54:11.995Z</time></trkpt><trkpt lat="45.7618333" lon="11.2442567"><ele>739.0</ele><time>2026-04-23T09:54:12.996Z</time></trkpt><trkpt lat="45.76187" lon="11.2443967"><ele>736.3333333333334</ele><time>2026-04-23T09:54:13.995Z</time></trkpt><trkpt lat="45.761905" lon="11.2445217"><ele>733.6666666666667</ele><time>2026-04-23T09:54:14.995Z</time></trkpt><trkpt lat="45.7619383" lon="11.24461"><ele>731.0</ele><time>2026-04-23T09:54:15.995Z</time></trkpt><trkpt lat="45.7619983" lon="11.24465"><ele>728.3333333333334</ele><time>2026-04-23T09:54:16.995Z</time></trkpt><trkpt lat="45.7620783" lon="11.2446583"><ele>725.6666666666666</ele><time>2026-04-23T09:54:17.995Z</time></trkpt><trkpt lat="45.7621617" lon="11.2446417"><ele>723.0</ele><time>2026-04-23T09:54:18.995Z</time></trkpt><trkpt lat="45.7622383" lon="11.2446367"><ele>723.0</ele><time>2026-04-23T09:54:19.995Z</time></trkpt><trkpt lat="45.762335" lon="11.24467"><ele>723.0</ele><time>2026-04-23T09:54:21.996Z</time></trkpt><trkpt lat="45.7623883" lon="11.2447917"><ele>723.0</ele><time>2026-04-23T09:54:23.995Z</time></trkpt><trkpt lat="45.7624167" lon="11.24489"><ele>723.0</ele><time>2026-04-23T09:54:24.995Z</time></trkpt><trkpt lat="45.7624633" lon="11.2450233"><ele>723.0</ele><time>2026-04-23T09:54:25.995Z</time></trkpt><trkpt lat="45.762565" lon="11.2452317"><ele>727.2</ele><time>2026-04-23T09:54:27.995Z</time></trkpt><trkpt lat="45.7626483" lon="11.24531"><ele>731.4</ele><time>2026-04-23T09:54:29.995Z</time></trkpt><trkpt lat="45.7627533" lon="11.245285"><ele>735.6</ele><time>2026-04-23T09:54:31.995Z</time></trkpt><trkpt lat="45.7628533" lon="11.245265"><ele>739.8000000000001</ele><time>2026-04-23T09:54:33.996Z</time></trkpt><trkpt lat="45.762965" lon="11.24525"><ele>744.0</ele><time>2026-04-23T09:54:35.995Z</time></trkpt><trkpt lat="45.76307" lon="11.2451617"><ele>744.0</ele><time>2026-04-23T09:54:37.996Z</time></trkpt><trkpt lat="45.763175" lon="11.2450633"><ele>744.0</ele><time>2026-04-23T09:54:39.995Z</time></trkpt><trkpt lat="45.7633017" lon="11.2450433"><ele>744.0</ele><time>2026-04-23T09:54:41.995Z</time></trkpt><trkpt lat="45.7633667" lon="11.2450733"><ele>744.0</ele><time>2026-04-23T09:54:42.995Z</time></trkpt><trkpt lat="45.7634317" lon="11.24512"><ele>744.0</ele><time>2026-04-23T09:54:43.995Z</time></trkpt><trkpt lat="45.7634983" lon="11.245165"><ele>745.8000000000001</ele><time>2026-04-23T09:54:44.995Z</time></trkpt><trkpt lat="45.7636" lon="11.2451467"><ele>747.6</ele><time>2026-04-23T09:54:46.995Z</time></trkpt><trkpt lat="45.7636933" lon="11.244955"><ele>749.4</ele><time>2026-04-23T09:54:49.996Z</time></trkpt><trkpt lat="45.76373" lon="11.2448717"><ele>751.2</ele><time>2026-04-23T09:54:50.995Z</time></trkpt><trkpt lat="45.76377" lon="11.2448017"><ele>753.0</ele><time>2026-04-23T09:54:51.996Z</time></trkpt><trkpt lat="45.7638767" lon="11.2446917"><ele>753.0</ele><time>2026-04-23T09:54:53.995Z</time></trkpt><trkpt lat="45.763945" lon="11.2446167"><ele>753.0</ele><time>2026-04-23T09:54:54.995Z</time></trkpt><trkpt lat="45.7640067" lon="11.2445467"><ele>753.0</ele><time>2026-04-23T09:54:55.995Z</time></trkpt><trkpt lat="45.7640583" lon="11.24447"><ele>753.0</ele><time>2026-04-23T09:54:56.995Z</time></trkpt><trkpt lat="45.7640867" lon="11.2443817"><ele>753.0</ele><time>2026-04-23T09:54:57.995Z</time></trkpt><trkpt lat="45.7641017" lon="11.2442867"><ele>753.0</ele><time>2026-04-23T09:54:58.995Z</time></trkpt><trkpt lat="45.7641333" lon="11.2441817"><ele>753.0</ele><time>2026-04-23T09:55:00.995Z</time></trkpt><trkpt lat="45.7641917" lon="11.2441083"><ele>753.0</ele><time>2026-04-23T09:55:02.995Z</time></trkpt><trkpt lat="45.76428" lon="11.244"><ele>753.0</ele><time>2026-04-23T09:55:04.996Z</time></trkpt><trkpt lat="45.764305" lon="11.243915"><ele>753.0</ele><time>2026-04-23T09:55:05.995Z</time></trkpt><trkpt lat="45.7643117" lon="11.2438067"><ele>753.0</ele><time>2026-04-23T09:55:06.996Z</time></trkpt><trkpt lat="45.764285" lon="11.24368"><ele>753.0</ele><time>2026-04-23T09:55:07.995Z</time></trkpt><trkpt lat="45.7642133" lon="11.2434517"><ele>752.3333333333334</ele><time>2026-04-23T09:55:09.995Z</time></trkpt><trkpt lat="45.76419" lon="11.2433617"><ele>751.6666666666666</ele><time>2026-04-23T09:55:10.995Z</time></trkpt><trkpt lat="45.7641817" lon="11.2432667"><ele>751.0</ele><time>2026-04-23T09:55:11.996Z</time></trkpt><trkpt lat="45.764195" lon="11.2431583"><ele>750.3333333333333</ele><time>2026-04-23T09:55:12.995Z</time></trkpt><trkpt lat="45.76422" lon="11.2430383"><ele>749.6666666666666</ele><time>2026-04-23T09:55:13.995Z</time></trkpt><trkpt lat="45.7642567" lon="11.24291"><ele>749.0</ele><time>2026-04-23T09:55:14.996Z</time></trkpt><trkpt lat="45.7642933" lon="11.24277"><ele>746.8000000000001</ele><time>2026-04-23T09:55:15.995Z</time></trkpt><trkpt lat="45.7643417" lon="11.2426317"><ele>744.6</ele><time>2026-04-23T09:55:16.995Z</time></trkpt><trkpt lat="45.7644033" lon="11.2425133"><ele>742.4</ele><time>2026-04-23T09:55:17.995Z</time></trkpt><trkpt lat="45.7644617" lon="11.2424"><ele>740.2</ele><time>2026-04-23T09:55:18.995Z</time></trkpt><trkpt lat="45.7645067" lon="11.2422917"><ele>738.0</ele><time>2026-04-23T09:55:19.995Z</time></trkpt><trkpt lat="45.7645517" lon="11.2421833"><ele>744.5</ele><time>2026-04-23T09:55:20.995Z</time></trkpt><trkpt lat="45.7645767" lon="11.24207"><ele>751.0</ele><time>2026-04-23T09:55:21.995Z</time></trkpt><trkpt lat="45.7645733" lon="11.2419717"><ele>757.5</ele><time>2026-04-23T09:55:22.995Z</time></trkpt><trkpt lat="45.76451" lon="11.2418233"><ele>764.0</ele><time>2026-04-23T09:55:24.995Z</time></trkpt><trkpt lat="45.7644267" lon="11.2417367"><ele>770.5</ele><time>2026-04-23T09:55:26.996Z</time></trkpt><trkpt lat="45.7644183" lon="11.2416367"><ele>777.0</ele><time>2026-04-23T09:55:28.995Z</time></trkpt><trkpt lat="45.764525" lon="11.2413383"><ele>777.5</ele><time>2026-04-23T09:55:31.995Z</time></trkpt><trkpt lat="45.7645583" lon="11.241235"><ele>778.0</ele><time>2026-04-23T09:55:32.996Z</time></trkpt><trkpt lat="45.764565" lon="11.2411217"><ele>778.5</ele><time>2026-04-23T09:55:33.995Z</time></trkpt><trkpt lat="45.7645517" lon="11.2410183"><ele>779.0</ele><time>2026-04-23T09:55:34.995Z</time></trkpt><trkpt lat="45.7645383" lon="11.2409217"><ele>779.5</ele><time>2026-04-23T09:55:35.996Z</time></trkpt><trkpt lat="45.7645133" lon="11.24078"><ele>780.0</ele><time>2026-04-23T09:55:37.995Z</time></trkpt><trkpt lat="45.764535" lon="11.2406833"><ele>780.0</ele><time>2026-04-23T09:55:40.995Z</time></trkpt><trkpt lat="45.764585" lon="11.2408167"><ele>780.0</ele><time>2026-04-23T09:55:43.995Z</time></trkpt><trkpt lat="45.7646133" lon="11.2409283"><ele>780.0</ele><time>2026-04-23T09:55:44.995Z</time></trkpt><trkpt lat="45.76464" lon="11.2410417"><ele>780.0</ele><time>2026-04-23T09:55:45.995Z</time></trkpt><trkpt lat="45.7646683" lon="11.2411483"><ele>780.0</ele><time>2026-04-23T09:55:46.995Z</time></trkpt><trkpt lat="45.764715" lon="11.2412617"><ele>780.0</ele><time>2026-04-23T09:55:48.995Z</time></trkpt><trkpt lat="45.7647983" lon="11.2412517"><ele>780.0</ele><time>2026-04-23T09:55:50.994Z</time></trkpt><trkpt lat="45.7649783" lon="11.2408033"><ele>780.0</ele><time>2026-04-23T09:55:56.994Z</time></trkpt><trkpt lat="45.76499" lon="11.2407"><ele>780.0</ele><time>2026-04-23T09:55:57.995Z</time></trkpt><trkpt lat="45.76494" lon="11.24052"><ele>780.2</ele><time>2026-04-23T09:55:59.994Z</time></trkpt><trkpt lat="45.7648833" lon="11.24046"><ele>780.4</ele><time>2026-04-23T09:56:00.994Z</time></trkpt><trkpt lat="45.764775" lon="11.2403667"><ele>780.5999999999999</ele><time>2026-04-23T09:56:02.994Z</time></trkpt><trkpt lat="45.764705" lon="11.2402233"><ele>780.8</ele><time>2026-04-23T09:56:04.994Z</time></trkpt><trkpt lat="45.7646917" lon="11.2400567"><ele>781.0</ele><time>2026-04-23T09:56:06.994Z</time></trkpt><trkpt lat="45.764695" lon="11.23991"><ele>776.75</ele><time>2026-04-23T09:56:08.994Z</time></trkpt><trkpt lat="45.7646983" lon="11.2397733"><ele>772.5</ele><time>2026-04-23T09:56:10.994Z</time></trkpt><trkpt lat="45.7647333" lon="11.2396467"><ele>768.25</ele><time>2026-04-23T09:56:12.994Z</time></trkpt><trkpt lat="45.7648417" lon="11.2394117"><ele>764.0</ele><time>2026-04-23T09:56:16.994Z</time></trkpt><trkpt lat="45.7649217" lon="11.23931"><ele>764.0</ele><time>2026-04-23T09:56:18.994Z</time></trkpt><trkpt lat="45.765035" lon="11.23923"><ele>764.0</ele><time>2026-04-23T09:56:20.995Z</time></trkpt><trkpt lat="45.7650933" lon="11.239175"><ele>764.0</ele><time>2026-04-23T09:56:21.994Z</time></trkpt><trkpt lat="45.7651833" lon="11.2390383"><ele>764.0</ele><time>2026-04-23T09:56:23.994Z</time></trkpt><trkpt lat="45.7652317" lon="11.238955"><ele>764.0</ele><time>2026-04-23T09:56:24.994Z</time></trkpt><trkpt lat="45.765325" lon="11.238835"><ele>764.5</ele><time>2026-04-23T09:56:26.994Z</time></trkpt><trkpt lat="45.7653733" lon="11.2387717"><ele>765.0</ele><time>2026-04-23T09:56:27.995Z</time></trkpt><trkpt lat="45.7654367" lon="11.23869"><ele>765.5</ele><time>2026-04-23T09:56:28.994Z</time></trkpt><trkpt lat="45.7655067" lon="11.2386133"><ele>766.0</ele><time>2026-04-23T09:56:29.995Z</time></trkpt><trkpt lat="45.7655783" lon="11.23852"><ele>766.5</ele><time>2026-04-23T09:56:30.994Z</time></trkpt><trkpt lat="45.76565" lon="11.2384317"><ele>767.0</ele><time>2026-04-23T09:56:31.994Z</time></trkpt><trkpt lat="45.765735" lon="11.2383583"><ele>767.0</ele><time>2026-04-23T09:56:32.994Z</time></trkpt><trkpt lat="45.765825" lon="11.2382867"><ele>767.0</ele><time>2026-04-23T09:56:33.994Z</time></trkpt><trkpt lat="45.765975" lon="11.2381083"><ele>767.0</ele><time>2026-04-23T09:56:35.995Z</time></trkpt><trkpt lat="45.7660183" lon="11.237995"><ele>767.0</ele><time>2026-04-23T09:56:36.994Z</time></trkpt><trkpt lat="45.7660283" lon="11.2378883"><ele>768.2</ele><time>2026-04-23T09:56:37.995Z</time></trkpt><trkpt lat="45.766015" lon="11.23777"><ele>769.4000000000001</ele><time>2026-04-23T09:56:38.994Z</time></trkpt><trkpt lat="45.765965" lon="11.23765"><ele>770.5999999999999</ele><time>2026-04-23T09:56:39.994Z</time></trkpt><trkpt lat="45.765885" lon="11.23752"><ele>771.8</ele><time>2026-04-23T09:56:40.994Z</time></trkpt><trkpt lat="45.7657783" lon="11.2373817"><ele>773.0</ele><time>2026-04-23T09:56:41.995Z</time></trkpt><trkpt lat="45.76564" lon="11.23728"><ele>773.8</ele><time>2026-04-23T09:56:42.994Z</time></trkpt><trkpt lat="45.7655333" lon="11.2371667"><ele>774.5999999999999</ele><time>2026-04-23T09:56:43.994Z</time></trkpt><trkpt lat="45.765455" lon="11.2370533"><ele>775.4000000000001</ele><time>2026-04-23T09:56:44.995Z</time></trkpt><trkpt lat="45.7653833" lon="11.2369467"><ele>776.2</ele><time>2026-04-23T09:56:45.994Z</time></trkpt><trkpt lat="45.7653183" lon="11.2368367"><ele>777.0</ele><time>2026-04-23T09:56:46.994Z</time></trkpt><trkpt lat="45.7652683" lon="11.236725"><ele>777.0</ele><time>2026-04-23T09:56:47.994Z</time></trkpt><trkpt lat="45.7652317" lon="11.2366133"><ele>777.0</ele><time>2026-04-23T09:56:48.994Z</time></trkpt><trkpt lat="45.7652133" lon="11.236495"><ele>777.0</ele><time>2026-04-23T09:56:49.994Z</time></trkpt><trkpt lat="45.7652167" lon="11.2363767"><ele>777.0</ele><time>2026-04-23T09:56:50.994Z</time></trkpt><trkpt lat="45.7652633" lon="11.2362717"><ele>777.0</ele><time>2026-04-23T09:56:51.994Z</time></trkpt><trkpt lat="45.7653117" lon="11.2361517"><ele>777.0</ele><time>2026-04-23T09:56:52.994Z</time></trkpt><trkpt lat="45.7653333" lon="11.2360217"><ele>775.0</ele><time>2026-04-23T09:56:53.994Z</time></trkpt><trkpt lat="45.7653217" lon="11.2358917"><ele>773.0</ele><time>2026-04-23T09:56:54.995Z</time></trkpt><trkpt lat="45.7652483" lon="11.235645"><ele>771.0</ele><time>2026-04-23T09:56:56.994Z</time></trkpt><trkpt lat="45.7652317" lon="11.2355183"><ele>769.0</ele><time>2026-04-23T09:56:57.994Z</time></trkpt><trkpt lat="45.7652283" lon="11.2354067"><ele>767.0</ele><time>2026-04-23T09:56:58.994Z</time></trkpt><trkpt lat="45.7652467" lon="11.2352967"><ele>764.4000000000001</ele><time>2026-04-23T09:56:59.994Z</time></trkpt><trkpt lat="45.7652717" lon="11.2351817"><ele>761.8000000000001</ele><time>2026-04-23T09:57:00.994Z</time></trkpt><trkpt lat="45.765305" lon="11.23507"><ele>759.2</ele><time>2026-04-23T09:57:01.994Z</time></trkpt><trkpt lat="45.7653317" lon="11.2349517"><ele>756.6</ele><time>2026-04-23T09:57:02.995Z</time></trkpt><trkpt lat="45.7653717" lon="11.2348167"><ele>754.0</ele><time>2026-04-23T09:57:03.994Z</time></trkpt><trkpt lat="45.765415" lon="11.234675"><ele>748.8000000000001</ele><time>2026-04-23T09:57:04.995Z</time></trkpt><trkpt lat="45.7654667" lon="11.234535"><ele>743.6</ele><time>2026-04-23T09:57:05.994Z</time></trkpt><trkpt lat="45.76553" lon="11.2344133"><ele>738.4</ele><time>2026-04-23T09:57:06.994Z</time></trkpt><trkpt lat="45.7656033" lon="11.2343133"><ele>733.2</ele><time>2026-04-23T09:57:07.994Z</time></trkpt><trkpt lat="45.765685" lon="11.2342283"><ele>728.0</ele><time>2026-04-23T09:57:08.994Z</time></trkpt><trkpt lat="45.765765" lon="11.2341433"><ele>728.0</ele><time>2026-04-23T09:57:09.994Z</time></trkpt><trkpt lat="45.7658567" lon="11.2340817"><ele>728.0</ele><time>2026-04-23T09:57:10.995Z</time></trkpt><trkpt lat="45.7659717" lon="11.2340317"><ele>728.0</ele><time>2026-04-23T09:57:11.994Z</time></trkpt><trkpt lat="45.7660883" lon="11.2339717"><ele>728.0</ele><time>2026-04-23T09:57:12.994Z</time></trkpt><trkpt lat="45.7662017" lon="11.2339233"><ele>726.5</ele><time>2026-04-23T09:57:13.994Z</time></trkpt><trkpt lat="45.7663067" lon="11.233875"><ele>725.0</ele><time>2026-04-23T09:57:14.994Z</time></trkpt><trkpt lat="45.7664133" lon="11.2338333"><ele>723.5</ele><time>2026-04-23T09:57:15.994Z</time></trkpt><trkpt lat="45.7665983" lon="11.2338067"><ele>722.0</ele><time>2026-04-23T09:57:17.994Z</time></trkpt><trkpt lat="45.7666767" lon="11.2338017"><ele>722.0</ele><time>2026-04-23T09:57:18.994Z</time></trkpt><trkpt lat="45.76674" lon="11.2338067"><ele>722.0</ele><time>2026-04-23T09:57:19.994Z</time></trkpt><trkpt lat="45.76685" lon="11.2337633"><ele>722.0</ele><time>2026-04-23T09:57:21.994Z</time></trkpt><trkpt lat="45.7668417" lon="11.233635"><ele>722.0</ele><time>2026-04-23T09:57:23.994Z</time></trkpt><trkpt lat="45.7667933" lon="11.2335683"><ele>722.0</ele><time>2026-04-23T09:57:25.994Z</time></trkpt><trkpt lat="45.7667683" lon="11.23343"><ele>722.0</ele><time>2026-04-23T09:57:39.995Z</time></trkpt><trkpt lat="45.7666967" lon="11.2331017"><ele>724.1666666666666</ele><time>2026-04-23T09:57:43.994Z</time></trkpt><trkpt lat="45.766635" lon="11.2330283"><ele>726.3333333333333</ele><time>2026-04-23T09:57:44.994Z</time></trkpt><trkpt lat="45.76657" lon="11.2329583"><ele>728.5</ele><time>2026-04-23T09:57:45.994Z</time></trkpt><trkpt lat="45.7665017" lon="11.2328933"><ele>730.6666666666666</ele><time>2026-04-23T09:57:46.994Z</time></trkpt><trkpt lat="45.76644" lon="11.2328183"><ele>732.8333333333334</ele><time>2026-04-23T09:57:47.994Z</time></trkpt><trkpt lat="45.7663933" lon="11.2327367"><ele>735.0</ele><time>2026-04-23T09:57:48.994Z</time></trkpt><trkpt lat="45.766355" lon="11.232655"><ele>735.0</ele><time>2026-04-23T09:57:49.994Z</time></trkpt><trkpt lat="45.7663167" lon="11.2325683"><ele>735.0</ele><time>2026-04-23T09:57:50.994Z</time></trkpt><trkpt lat="45.7662767" lon="11.232485"><ele>735.0</ele><time>2026-04-23T09:57:51.994Z</time></trkpt><trkpt lat="45.7662283" lon="11.23241"><ele>735.0</ele><time>2026-04-23T09:57:52.994Z</time></trkpt><trkpt lat="45.7661383" lon="11.2322933"><ele>735.0</ele><time>2026-04-23T09:57:54.994Z</time></trkpt><trkpt lat="45.7660767" lon="11.2321783"><ele>735.0</ele><time>2026-04-23T09:57:56.994Z</time></trkpt><trkpt lat="45.76603" lon="11.232075"><ele>736.25</ele><time>2026-04-23T09:57:58.994Z</time></trkpt><trkpt lat="45.7660167" lon="11.23196"><ele>737.5</ele><time>2026-04-23T09:58:00.994Z</time></trkpt><trkpt lat="45.7661267" lon="11.2317183"><ele>738.75</ele><time>2026-04-23T09:58:04.994Z</time></trkpt><trkpt lat="45.7662133" lon="11.2315967"><ele>740.0</ele><time>2026-04-23T09:58:06.994Z</time></trkpt><trkpt lat="45.766265" lon="11.2315283"><ele>737.6666666666666</ele><time>2026-04-23T09:58:07.994Z</time></trkpt><trkpt lat="45.7663267" lon="11.2314617"><ele>735.3333333333333</ele><time>2026-04-23T09:58:08.994Z</time></trkpt><trkpt lat="45.7663933" lon="11.23138"><ele>733.0</ele><time>2026-04-23T09:58:09.995Z</time></trkpt><trkpt lat="45.7664533" lon="11.2312867"><ele>730.6666666666666</ele><time>2026-04-23T09:58:10.994Z</time></trkpt><trkpt lat="45.7665083" lon="11.2311983"><ele>728.3333333333334</ele><time>2026-04-23T09:58:11.994Z</time></trkpt><trkpt lat="45.7665517" lon="11.2310967"><ele>726.0</ele><time>2026-04-23T09:58:12.994Z</time></trkpt><trkpt lat="45.7665817" lon="11.230985"><ele>726.0</ele><time>2026-04-23T09:58:13.995Z</time></trkpt><trkpt lat="45.7666133" lon="11.23087"><ele>726.0</ele><time>2026-04-23T09:58:14.994Z</time></trkpt><trkpt lat="45.76664" lon="11.2307567"><ele>726.0</ele><time>2026-04-23T09:58:15.994Z</time></trkpt><trkpt lat="45.766665" lon="11.2306583"><ele>726.0</ele><time>2026-04-23T09:58:16.994Z</time></trkpt><trkpt lat="45.7667267" lon="11.2305333"><ele>726.0</ele><time>2026-04-23T09:58:18.994Z</time></trkpt><trkpt lat="45.7667867" lon="11.230505"><ele>726.0</ele><time>2026-04-23T09:58:19.994Z</time></trkpt><trkpt lat="45.766865" lon="11.2304817"><ele>726.4</ele><time>2026-04-23T09:58:20.994Z</time></trkpt><trkpt lat="45.76695" lon="11.23047"><ele>726.8</ele><time>2026-04-23T09:58:21.994Z</time></trkpt><trkpt lat="45.76713" lon="11.2304917"><ele>727.1999999999999</ele><time>2026-04-23T09:58:23.994Z</time></trkpt><trkpt lat="45.7672133" lon="11.2305117"><ele>727.5999999999999</ele><time>2026-04-23T09:58:24.995Z</time></trkpt><trkpt lat="45.767295" lon="11.2305333"><ele>728.0</ele><time>2026-04-23T09:58:25.994Z</time></trkpt><trkpt lat="45.7673733" lon="11.230545"><ele>728.0</ele><time>2026-04-23T09:58:26.994Z</time></trkpt><trkpt lat="45.7674567" lon="11.2305483"><ele>728.0</ele><time>2026-04-23T09:58:27.994Z</time></trkpt><trkpt lat="45.7675367" lon="11.23053"><ele>728.0</ele><time>2026-04-23T09:58:28.995Z</time></trkpt><trkpt lat="45.7676117" lon="11.2304983"><ele>728.0</ele><time>2026-04-23T09:58:29.994Z</time></trkpt><trkpt lat="45.767695" lon="11.2304717"><ele>728.0</ele><time>2026-04-23T09:58:30.994Z</time></trkpt><trkpt lat="45.7677883" lon="11.230425"><ele>728.0</ele><time>2026-04-23T09:58:31.994Z</time></trkpt><trkpt lat="45.76789" lon="11.2303883"><ele>733.8</ele><time>2026-04-23T09:58:32.994Z</time></trkpt><trkpt lat="45.7679917" lon="11.23037"><ele>739.5999999999999</ele><time>2026-04-23T09:58:33.994Z</time></trkpt><trkpt lat="45.7680867" lon="11.2303433"><ele>745.4000000000001</ele><time>2026-04-23T09:58:34.994Z</time></trkpt><trkpt lat="45.768175" lon="11.2302883"><ele>751.2</ele><time>2026-04-23T09:58:35.994Z</time></trkpt><trkpt lat="45.768265" lon="11.2302167"><ele>757.0</ele><time>2026-04-23T09:58:36.995Z</time></trkpt><trkpt lat="45.7683433" lon="11.2301333"><ele>757.0</ele><time>2026-04-23T09:58:37.994Z</time></trkpt><trkpt lat="45.7684233" lon="11.2300483"><ele>757.0</ele><time>2026-04-23T09:58:38.994Z</time></trkpt><trkpt lat="45.7684917" lon="11.2299483"><ele>757.0</ele><time>2026-04-23T09:58:39.995Z</time></trkpt><trkpt lat="45.768545" lon="11.2298567"><ele>757.0</ele><time>2026-04-23T09:58:40.994Z</time></trkpt><trkpt lat="45.768585" lon="11.2297633"><ele>757.0</ele><time>2026-04-23T09:58:41.994Z</time></trkpt><trkpt lat="45.76863" lon="11.2296767"><ele>757.0</ele><time>2026-04-23T09:58:42.994Z</time></trkpt><trkpt lat="45.768725" lon="11.22952"><ele>760.6</ele><time>2026-04-23T09:58:44.994Z</time></trkpt><trkpt lat="45.768835" lon="11.2294367"><ele>764.2</ele><time>2026-04-23T09:58:46.994Z</time></trkpt><trkpt lat="45.7689083" lon="11.2293917"><ele>767.8</ele><time>2026-04-23T09:58:47.994Z</time></trkpt><trkpt lat="45.7689817" lon="11.2293367"><ele>771.4</ele><time>2026-04-23T09:58:48.994Z</time></trkpt><trkpt lat="45.7690483" lon="11.22926"><ele>775.0</ele><time>2026-04-23T09:58:49.995Z</time></trkpt><trkpt lat="45.769105" lon="11.2291767"><ele>775.0</ele><time>2026-04-23T09:58:50.994Z</time></trkpt><trkpt lat="45.76918" lon="11.2290683"><ele>775.0</ele><time>2026-04-23T09:58:52.994Z</time></trkpt><trkpt lat="45.7692667" lon="11.22901"><ele>775.0</ele><time>2026-04-23T09:58:54.995Z</time></trkpt><trkpt lat="45.7693117" lon="11.2289083"><ele>775.0</ele><time>2026-04-23T09:58:56.994Z</time></trkpt><trkpt lat="45.7692933" lon="11.22877"><ele>775.0</ele><time>2026-04-23T09:58:58.994Z</time></trkpt><trkpt lat="45.7692233" lon="11.22869"><ele>779.0</ele><time>2026-04-23T09:59:00.994Z</time></trkpt><trkpt lat="45.7691133" lon="11.2285683"><ele>783.0</ele><time>2026-04-23T09:59:02.994Z</time></trkpt><trkpt lat="45.7690333" lon="11.22848"><ele>787.0</ele><time>2026-04-23T09:59:03.994Z</time></trkpt><trkpt lat="45.76888" lon="11.228345"><ele>791.0</ele><time>2026-04-23T09:59:05.994Z</time></trkpt><trkpt lat="45.7688183" lon="11.2282867"><ele>791.0</ele><time>2026-04-23T09:59:06.994Z</time></trkpt><trkpt lat="45.7687433" lon="11.2281483"><ele>791.0</ele><time>2026-04-23T09:59:08.995Z</time></trkpt><trkpt lat="45.7687117" lon="11.2279717"><ele>791.0</ele><time>2026-04-23T09:59:10.994Z</time></trkpt><trkpt lat="45.7687183" lon="11.2278533"><ele>791.0</ele><time>2026-04-23T09:59:11.995Z</time></trkpt><trkpt lat="45.7687433" lon="11.227715"><ele>791.0</ele><time>2026-04-23T09:59:12.995Z</time></trkpt><trkpt lat="45.7687767" lon="11.2275733"><ele>794.1666666666667</ele><time>2026-04-23T09:59:13.994Z</time></trkpt><trkpt lat="45.7688" lon="11.2274433"><ele>797.3333333333334</ele><time>2026-04-23T09:59:14.994Z</time></trkpt><trkpt lat="45.7688183" lon="11.2273233"><ele>800.5</ele><time>2026-04-23T09:59:15.994Z</time></trkpt><trkpt lat="45.7688267" lon="11.2271983"><ele>803.6666666666667</ele><time>2026-04-23T09:59:16.994Z</time></trkpt><trkpt lat="45.7688383" lon="11.2270683"><ele>806.8333333333334</ele><time>2026-04-23T09:59:17.994Z</time></trkpt><trkpt lat="45.76886" lon="11.22695"><ele>810.0</ele><time>2026-04-23T09:59:18.994Z</time></trkpt><trkpt lat="45.7688883" lon="11.226845"><ele>810.3333333333334</ele><time>2026-04-23T09:59:19.994Z</time></trkpt><trkpt lat="45.7689233" lon="11.2267483"><ele>810.6666666666667</ele><time>2026-04-23T09:59:20.995Z</time></trkpt><trkpt lat="45.76896" lon="11.2266467"><ele>811.0</ele><time>2026-04-23T09:59:21.994Z</time></trkpt><trkpt lat="45.7689933" lon="11.2265533"><ele>811.3333333333334</ele><time>2026-04-23T09:59:22.994Z</time></trkpt><trkpt lat="45.76903" lon="11.2264633"><ele>811.6666666666667</ele><time>2026-04-23T09:59:23.994Z</time></trkpt><trkpt lat="45.76907" lon="11.2263833"><ele>812.0</ele><time>2026-04-23T09:59:24.994Z</time></trkpt><trkpt lat="45.76923" lon="11.226095"><ele>812.0</ele><time>2026-04-23T09:59:28.994Z</time></trkpt><trkpt lat="45.7692683" lon="11.2260133"><ele>812.0</ele><time>2026-04-23T09:59:29.994Z</time></trkpt><trkpt lat="45.7692933" lon="11.2259167"><ele>812.0</ele><time>2026-04-23T09:59:30.994Z</time></trkpt><trkpt lat="45.7692917" lon="11.2257583"><ele>812.0</ele><time>2026-04-23T09:59:32.994Z</time></trkpt><trkpt lat="45.7692667" lon="11.2255817"><ele>812.0</ele><time>2026-04-23T09:59:34.993Z</time></trkpt><trkpt lat="45.7692633" lon="11.2254683"><ele>814.0</ele><time>2026-04-23T09:59:35.993Z</time></trkpt><trkpt lat="45.7692567" lon="11.2253633"><ele>816.0</ele><time>2026-04-23T09:59:36.994Z</time></trkpt><trkpt lat="45.7692617" lon="11.2252667"><ele>818.0</ele><time>2026-04-23T09:59:37.994Z</time></trkpt><trkpt lat="45.7692633" lon="11.22512"><ele>820.0</ele><time>2026-04-23T09:59:39.993Z</time></trkpt><trkpt lat="45.7692683" lon="11.2249833"><ele>822.0</ele><time>2026-04-23T09:59:41.993Z</time></trkpt><trkpt lat="45.7692817" lon="11.2248033"><ele>822.0</ele><time>2026-04-23T09:59:43.993Z</time></trkpt><trkpt lat="45.7693283" lon="11.2246317"><ele>822.0</ele><time>2026-04-23T09:59:45.993Z</time></trkpt><trkpt lat="45.7692806" lon="11.2244587"><ele>822.0</ele><time>2026-04-23T10:00:17.993Z</time></trkpt><trkpt lat="45.7692335" lon="11.2247084"><ele>822.0</ele><time>2026-04-23T10:00:21.993Z</time></trkpt><trkpt lat="45.7692103" lon="11.2248418"><ele>822.0</ele><time>2026-04-23T10:00:23.993Z</time></trkpt><trkpt lat="45.769195" lon="11.224967"><ele>822.0</ele><time>2026-04-23T10:00:25.993Z</time></trkpt><trkpt lat="45.7691834" lon="11.2250967"><ele>822.0</ele><time>2026-04-23T10:00:27.993Z</time></trkpt><trkpt lat="45.7691749" lon="11.2252548"><ele>822.0</ele><time>2026-04-23T10:00:29.994Z</time></trkpt><trkpt lat="45.7691751" lon="11.2253982"><ele>822.0</ele><time>2026-04-23T10:00:31.993Z</time></trkpt><trkpt lat="45.769175" lon="11.225515"><ele>822.0</ele><time>2026-04-23T10:00:33.993Z</time></trkpt><trkpt lat="45.7691733" lon="11.2256233"><ele>822.0</ele><time>2026-04-23T10:00:35.993Z</time></trkpt><trkpt lat="45.7691917" lon="11.2257117"><ele>822.0</ele><time>2026-04-23T10:00:38.993Z</time></trkpt><trkpt lat="45.7691" lon="11.2255067"><ele>822.0</ele><time>2026-04-23T10:00:57.993Z</time></trkpt><trkpt lat="45.7689633" lon="11.2254683"><ele>822.0</ele><time>2026-04-23T10:01:20.993Z</time></trkpt><trkpt lat="45.76884" lon="11.225645"><ele>820.3333333333334</ele><time>2026-04-23T10:01:25.993Z</time></trkpt><trkpt lat="45.7687817" lon="11.2257017"><ele>818.6666666666667</ele><time>2026-04-23T10:01:27.993Z</time></trkpt><trkpt lat="45.7687083" lon="11.2257583"><ele>817.0</ele><time>2026-04-23T10:01:29.993Z</time></trkpt><trkpt lat="45.7686217" lon="11.2258017"><ele>815.3333333333334</ele><time>2026-04-23T10:01:31.993Z</time></trkpt><trkpt lat="45.76855" lon="11.225835"><ele>813.6666666666667</ele><time>2026-04-23T10:01:33.993Z</time></trkpt><trkpt lat="45.768475" lon="11.225845"><ele>812.0</ele><time>2026-04-23T10:01:35.993Z</time></trkpt><trkpt lat="45.7684117" lon="11.2258733"><ele>809.8</ele><time>2026-04-23T10:01:37.993Z</time></trkpt><trkpt lat="45.7683433" lon="11.2259367"><ele>807.6</ele><time>2026-04-23T10:01:39.993Z</time></trkpt><trkpt lat="45.76828" lon="11.226"><ele>805.4</ele><time>2026-04-23T10:01:41.994Z</time></trkpt><trkpt lat="45.7681883" lon="11.22614"><ele>803.1999999999999</ele><time>2026-04-23T10:01:45.993Z</time></trkpt><trkpt lat="45.7681583" lon="11.2262333"><ele>801.0</ele><time>2026-04-23T10:01:47.993Z</time></trkpt><trkpt lat="45.7680833" lon="11.2263"><ele>801.0</ele><time>2026-04-23T10:01:50.993Z</time></trkpt><trkpt lat="45.7680083" lon="11.2263683"><ele>801.0</ele><time>2026-04-23T10:01:53.993Z</time></trkpt><trkpt lat="45.76797" lon="11.2264633"><ele>801.0</ele><time>2026-04-23T10:01:55.993Z</time></trkpt><trkpt lat="45.7679167" lon="11.2265917"><ele>801.0</ele><time>2026-04-23T10:01:57.994Z</time></trkpt><trkpt lat="45.7678533" lon="11.2266883"><ele>801.0</ele><time>2026-04-23T10:01:59.993Z</time></trkpt><trkpt lat="45.7677883" lon="11.2267417"><ele>801.0</ele><time>2026-04-23T10:02:01.994Z</time></trkpt><trkpt lat="45.7677333" lon="11.2268"><ele>802.0</ele><time>2026-04-23T10:02:03.993Z</time></trkpt><trkpt lat="45.7676133" lon="11.226985"><ele>803.0</ele><time>2026-04-23T10:02:07.993Z</time></trkpt><trkpt lat="45.76755" lon="11.22708"><ele>804.0</ele><time>2026-04-23T10:02:09.993Z</time></trkpt><trkpt lat="45.767465" lon="11.227145"><ele>805.0</ele><time>2026-04-23T10:02:11.993Z</time></trkpt><trkpt lat="45.7673867" lon="11.227135"><ele>806.0</ele><time>2026-04-23T10:02:13.993Z</time></trkpt><trkpt lat="45.76726" lon="11.2270633"><ele>806.0000000000001</ele><time>2026-04-23T10:02:15.993Z</time></trkpt><trkpt lat="45.7671667" lon="11.2270333"><ele>806.0</ele><time>2026-04-23T10:02:16.993Z</time></trkpt><trkpt lat="45.7670783" lon="11.22701"><ele>806.0</ele><time>2026-04-23T10:02:17.993Z</time></trkpt><trkpt lat="45.7669983" lon="11.22699"><ele>806.0</ele><time>2026-04-23T10:02:18.993Z</time></trkpt><trkpt lat="45.7669233" lon="11.2269717"><ele>806.0000000000001</ele><time>2026-04-23T10:02:19.993Z</time></trkpt><trkpt lat="45.766855" lon="11.2269433"><ele>806.0</ele><time>2026-04-23T10:02:20.993Z</time></trkpt><trkpt lat="45.76678" lon="11.2269067"><ele>803.75</ele><time>2026-04-23T10:02:21.993Z</time></trkpt><trkpt lat="45.7666933" lon="11.22686"><ele>801.5</ele><time>2026-04-23T10:02:22.993Z</time></trkpt><trkpt lat="45.7666083" lon="11.226815"><ele>799.25</ele><time>2026-04-23T10:02:23.993Z</time></trkpt><trkpt lat="45.7665233" lon="11.2267883"><ele>797.0</ele><time>2026-04-23T10:02:24.993Z</time></trkpt><trkpt lat="45.7663283" lon="11.2267417"><ele>797.0</ele><time>2026-04-23T10:02:27.993Z</time></trkpt><trkpt lat="45.7662167" lon="11.2267433"><ele>797.0</ele><time>2026-04-23T10:02:29.994Z</time></trkpt><trkpt lat="45.7661167" lon="11.2267267"><ele>797.0</ele><time>2026-04-23T10:02:31.993Z</time></trkpt><trkpt lat="45.7660017" lon="11.2266883"><ele>797.0</ele><time>2026-04-23T10:02:33.993Z</time></trkpt><trkpt lat="45.7659383" lon="11.2266717"><ele>797.0</ele><time>2026-04-23T10:02:34.993Z</time></trkpt><trkpt lat="45.7658783" lon="11.2266383"><ele>794.0000000000001</ele><time>2026-04-23T10:02:35.993Z</time></trkpt><trkpt lat="45.76582" lon="11.226585"><ele>791.0</ele><time>2026-04-23T10:02:36.993Z</time></trkpt><trkpt lat="45.76576" lon="11.2265367"><ele>788.0</ele><time>2026-04-23T10:02:37.993Z</time></trkpt><trkpt lat="45.7656517" lon="11.2265133"><ele>785.0</ele><time>2026-04-23T10:02:39.994Z</time></trkpt><trkpt lat="45.7655583" lon="11.2265417"><ele>782.0000000000001</ele><time>2026-04-23T10:02:41.993Z</time></trkpt><trkpt lat="45.76547" lon="11.2265333"><ele>779.0</ele><time>2026-04-23T10:02:43.993Z</time></trkpt><trkpt lat="45.7654067" lon="11.22647"><ele>781.8000000000001</ele><time>2026-04-23T10:02:45.993Z</time></trkpt><trkpt lat="45.7653033" lon="11.2262533"><ele>784.6</ele><time>2026-04-23T10:02:49.994Z</time></trkpt><trkpt lat="45.7652183" lon="11.2262133"><ele>787.4</ele><time>2026-04-23T10:02:51.993Z</time></trkpt><trkpt lat="45.7651367" lon="11.2262"><ele>790.2</ele><time>2026-04-23T10:02:53.994Z</time></trkpt><trkpt lat="45.765045" lon="11.2262233"><ele>793.0</ele><time>2026-04-23T10:02:55.993Z</time></trkpt><trkpt lat="45.7649367" lon="11.2262983"><ele>792.9999999999999</ele><time>2026-04-23T10:02:57.993Z</time></trkpt><trkpt lat="45.7648733" lon="11.22633"><ele>793.0</ele><time>2026-04-23T10:02:58.993Z</time></trkpt><trkpt lat="45.7648033" lon="11.226355"><ele>793.0</ele><time>2026-04-23T10:02:59.993Z</time></trkpt><trkpt lat="45.7647233" lon="11.22636"><ele>793.0</ele><time>2026-04-23T10:03:00.993Z</time></trkpt><trkpt lat="45.76464" lon="11.2263633"><ele>792.9999999999999</ele><time>2026-04-23T10:03:01.993Z</time></trkpt><trkpt lat="45.7645417" lon="11.22636"><ele>793.0</ele><time>2026-04-23T10:03:02.994Z</time></trkpt><trkpt lat="45.764435" lon="11.2263617"><ele>783.5</ele><time>2026-04-23T10:03:03.994Z</time></trkpt><trkpt lat="45.7643433" lon="11.226375"><ele>774.0</ele><time>2026-04-23T10:03:04.993Z</time></trkpt><trkpt lat="45.7642617" lon="11.2264"><ele>764.5</ele><time>2026-04-23T10:03:05.993Z</time></trkpt><trkpt lat="45.7641883" lon="11.2264267"><ele>755.0</ele><time>2026-04-23T10:03:06.993Z</time></trkpt><trkpt lat="45.7639733" lon="11.22638"><ele>755.0</ele><time>2026-04-23T10:03:10.994Z</time></trkpt><trkpt lat="45.7638767" lon="11.2263833"><ele>755.0</ele><time>2026-04-23T10:03:12.993Z</time></trkpt><trkpt lat="45.763805" lon="11.2264417"><ele>755.0</ele><time>2026-04-23T10:03:14.993Z</time></trkpt><trkpt lat="45.7637217" lon="11.2264967"><ele>755.0</ele><time>2026-04-23T10:03:16.994Z</time></trkpt><trkpt lat="45.763625" lon="11.2265217"><ele>755.0</ele><time>2026-04-23T10:03:18.993Z</time></trkpt><trkpt lat="45.7635433" lon="11.226545"><ele>750.0</ele><time>2026-04-23T10:03:20.993Z</time></trkpt><trkpt lat="45.7634367" lon="11.226585"><ele>745.0</ele><time>2026-04-23T10:03:22.993Z</time></trkpt><trkpt lat="45.76333" lon="11.2266133"><ele>740.0</ele><time>2026-04-23T10:03:24.993Z</time></trkpt><trkpt lat="45.76323" lon="11.22666"><ele>735.0</ele><time>2026-04-23T10:03:26.993Z</time></trkpt><trkpt lat="45.763125" lon="11.2267083"><ele>730.0</ele><time>2026-04-23T10:03:28.994Z</time></trkpt><trkpt lat="45.7629617" lon="11.2269133"><ele>730.0</ele><time>2026-04-23T10:03:32.993Z</time></trkpt><trkpt lat="45.7628967" lon="11.227035"><ele>730.0</ele><time>2026-04-23T10:03:34.992Z</time></trkpt><trkpt lat="45.76287" lon="11.2271183"><ele>730.0</ele><time>2026-04-23T10:03:35.992Z</time></trkpt><trkpt lat="45.762835" lon="11.2272717"><ele>730.0</ele><time>2026-04-23T10:03:37.992Z</time></trkpt><trkpt lat="45.762805" lon="11.227375"><ele>730.0</ele><time>2026-04-23T10:03:39.992Z</time></trkpt><trkpt lat="45.7627467" lon="11.2274433"><ele>730.0</ele><time>2026-04-23T10:03:41.992Z</time></trkpt><trkpt lat="45.7626817" lon="11.2275167"><ele>727.6</ele><time>2026-04-23T10:03:43.992Z</time></trkpt><trkpt lat="45.7626133" lon="11.2276167"><ele>725.2</ele><time>2026-04-23T10:03:45.992Z</time></trkpt><trkpt lat="45.76256" lon="11.227675"><ele>722.8</ele><time>2026-04-23T10:03:47.992Z</time></trkpt><trkpt lat="45.7624983" lon="11.2277467"><ele>720.4</ele><time>2026-04-23T10:03:50.993Z</time></trkpt><trkpt lat="45.762355" lon="11.2278733"><ele>718.0</ele><time>2026-04-23T10:03:54.992Z</time></trkpt><trkpt lat="45.7622833" lon="11.2279617"><ele>718.0</ele><time>2026-04-23T10:03:56.993Z</time></trkpt><trkpt lat="45.762235" lon="11.2280433"><ele>718.0</ele><time>2026-04-23T10:03:59.992Z</time></trkpt><trkpt lat="45.762195" lon="11.2281517"><ele>718.0</ele><time>2026-04-23T10:04:02.993Z</time></trkpt><trkpt lat="45.76216" lon="11.2282367"><ele>718.0</ele><time>2026-04-23T10:04:04.992Z</time></trkpt><trkpt lat="45.7621033" lon="11.228335"><ele>718.0</ele><time>2026-04-23T10:04:07.992Z</time></trkpt><trkpt lat="45.7620567" lon="11.2284083"><ele>718.0</ele><time>2026-04-23T10:04:09.992Z</time></trkpt><trkpt lat="45.762005" lon="11.22847"><ele>713.8</ele><time>2026-04-23T10:04:12.992Z</time></trkpt><trkpt lat="45.7618683" lon="11.2285867"><ele>709.5999999999999</ele><time>2026-04-23T10:04:18.992Z</time></trkpt><trkpt lat="45.76183" lon="11.2286683"><ele>705.4000000000001</ele><time>2026-04-23T10:04:20.992Z</time></trkpt><trkpt lat="45.7618067" lon="11.228785"><ele>701.2</ele><time>2026-04-23T10:04:22.992Z</time></trkpt><trkpt lat="45.7617917" lon="11.2289"><ele>697.0</ele><time>2026-04-23T10:04:24.992Z</time></trkpt><trkpt lat="45.761795" lon="11.2290383"><ele>691.4000000000001</ele><time>2026-04-23T10:04:27.992Z</time></trkpt><trkpt lat="45.7617167" lon="11.22924"><ele>685.8000000000001</ele><time>2026-04-23T10:06:09.992Z</time></trkpt><trkpt lat="45.7616533" lon="11.22942"><ele>680.2</ele><time>2026-04-23T10:06:13.992Z</time></trkpt><trkpt lat="45.7616083" lon="11.2295017"><ele>674.6</ele><time>2026-04-23T10:06:15.992Z</time></trkpt><trkpt lat="45.7615567" lon="11.22956"><ele>669.0</ele><time>2026-04-23T10:06:17.992Z</time></trkpt><trkpt lat="45.761515" lon="11.2296367"><ele>669.0</ele><time>2026-04-23T10:06:19.993Z</time></trkpt><trkpt lat="45.761475" lon="11.22975"><ele>669.0</ele><time>2026-04-23T10:06:21.992Z</time></trkpt><trkpt lat="45.76144" lon="11.22987"><ele>669.0</ele><time>2026-04-23T10:06:23.992Z</time></trkpt><trkpt lat="45.761385" lon="11.2300017"><ele>669.0</ele><time>2026-04-23T10:06:25.992Z</time></trkpt><trkpt lat="45.7613317" lon="11.2301167"><ele>669.0</ele><time>2026-04-23T10:06:27.992Z</time></trkpt><trkpt lat="45.7612717" lon="11.2302167"><ele>666.5</ele><time>2026-04-23T10:06:30.992Z</time></trkpt><trkpt lat="45.7611917" lon="11.2304033"><ele>664.0</ele><time>2026-04-23T10:06:34.992Z</time></trkpt><trkpt lat="45.761185" lon="11.2304933"><ele>661.5</ele><time>2026-04-23T10:06:35.992Z</time></trkpt><trkpt lat="45.7611817" lon="11.2305883"><ele>659.0</ele><time>2026-04-23T10:06:36.992Z</time></trkpt><trkpt lat="45.76118" lon="11.2306867"><ele>656.5</ele><time>2026-04-23T10:06:37.992Z</time></trkpt><trkpt lat="45.761175" lon="11.2307883"><ele>654.0</ele><time>2026-04-23T10:06:38.992Z</time></trkpt><trkpt lat="45.7611683" lon="11.23088"><ele>650.8333333333334</ele><time>2026-04-23T10:06:39.992Z</time></trkpt><trkpt lat="45.7611383" lon="11.2310517"><ele>647.6666666666666</ele><time>2026-04-23T10:06:41.992Z</time></trkpt><trkpt lat="45.7611117" lon="11.2311367"><ele>644.5</ele><time>2026-04-23T10:06:42.992Z</time></trkpt><trkpt lat="45.7610717" lon="11.2312783"><ele>641.3333333333333</ele><time>2026-04-23T10:06:44.993Z</time></trkpt><trkpt lat="45.7610367" lon="11.231385"><ele>638.1666666666666</ele><time>2026-04-23T10:06:46.993Z</time></trkpt><trkpt lat="45.76097" lon="11.23137"><ele>635.0</ele><time>2026-04-23T10:06:50.992Z</time></trkpt><trkpt lat="45.760975" lon="11.2312583"><ele>632.0</ele><time>2026-04-23T10:06:52.992Z</time></trkpt><trkpt lat="45.7609183" lon="11.2309533"><ele>629.0</ele><time>2026-04-23T10:06:56.992Z</time></trkpt><trkpt lat="45.76088" lon="11.2308283"><ele>626.0</ele><time>2026-04-23T10:06:58.992Z</time></trkpt><trkpt lat="45.76084" lon="11.23074"><ele>623.0</ele><time>2026-04-23T10:07:00.992Z</time></trkpt><trkpt lat="45.760775" lon="11.2306867"><ele>624.0</ele><time>2026-04-23T10:07:02.992Z</time></trkpt><trkpt lat="45.76073" lon="11.2306133"><ele>625.0</ele><time>2026-04-23T10:07:05.992Z</time></trkpt><trkpt lat="45.7607767" lon="11.2304633"><ele>626.0</ele><time>2026-04-23T10:07:10.992Z</time></trkpt><trkpt lat="45.760845" lon="11.230295"><ele>627.0</ele><time>2026-04-23T10:07:12.992Z</time></trkpt><trkpt lat="45.76088" lon="11.2301683"><ele>628.0</ele><time>2026-04-23T10:07:13.992Z</time></trkpt><trkpt lat="45.7609333" lon="11.2298833"><ele>629.0</ele><time>2026-04-23T10:07:15.992Z</time></trkpt><trkpt lat="45.760955" lon="11.2297233"><ele>630.0</ele><time>2026-04-23T10:07:16.993Z</time></trkpt><trkpt lat="45.76098" lon="11.2295483"><ele>631.0</ele><time>2026-04-23T10:07:17.992Z</time></trkpt><trkpt lat="45.76102" lon="11.2293817"><ele>632.0</ele><time>2026-04-23T10:07:18.992Z</time></trkpt><trkpt lat="45.7610667" lon="11.229215"><ele>634.2</ele><time>2026-04-23T10:07:19.993Z</time></trkpt><trkpt lat="45.7610983" lon="11.2290683"><ele>636.4000000000001</ele><time>2026-04-23T10:07:20.992Z</time></trkpt><trkpt lat="45.7610983" lon="11.2289333"><ele>638.5999999999999</ele><time>2026-04-23T10:07:21.992Z</time></trkpt><trkpt lat="45.7610733" lon="11.2287983"><ele>640.8</ele><time>2026-04-23T10:07:22.992Z</time></trkpt><trkpt lat="45.7610233" lon="11.22865"><ele>643.0</ele><time>2026-04-23T10:07:23.992Z</time></trkpt><trkpt lat="45.7609583" lon="11.2285033"><ele>643.0</ele><time>2026-04-23T10:07:24.993Z</time></trkpt><trkpt lat="45.7609" lon="11.2283483"><ele>643.0</ele><time>2026-04-23T10:07:25.992Z</time></trkpt><trkpt lat="45.7608633" lon="11.22821"><ele>643.0</ele><time>2026-04-23T10:07:26.992Z</time></trkpt><trkpt lat="45.7608333" lon="11.2280967"><ele>643.0</ele><time>2026-04-23T10:07:27.992Z</time></trkpt><trkpt lat="45.7608317" lon="11.227975"><ele>643.0</ele><time>2026-04-23T10:07:28.992Z</time></trkpt><trkpt lat="45.7608483" lon="11.2278417"><ele>643.25</ele><time>2026-04-23T10:07:29.992Z</time></trkpt><trkpt lat="45.7608917" lon="11.227695"><ele>643.5</ele><time>2026-04-23T10:07:30.992Z</time></trkpt><trkpt lat="45.7609683" lon="11.2275433"><ele>643.75</ele><time>2026-04-23T10:07:31.992Z</time></trkpt><trkpt lat="45.7610667" lon="11.2274"><ele>644.0</ele><time>2026-04-23T10:07:32.992Z</time></trkpt><trkpt lat="45.761185" lon="11.227265"><ele>660.5</ele><time>2026-04-23T10:07:33.992Z</time></trkpt><trkpt lat="45.7612983" lon="11.22712"><ele>677.0</ele><time>2026-04-23T10:07:34.992Z</time></trkpt><trkpt lat="45.7614883" lon="11.22677"><ele>677.0</ele><time>2026-04-23T10:07:36.992Z</time></trkpt><trkpt lat="45.7615733" lon="11.2266033"><ele>677.0</ele><time>2026-04-23T10:07:37.992Z</time></trkpt><trkpt lat="45.7616717" lon="11.2264333"><ele>677.0</ele><time>2026-04-23T10:07:38.992Z</time></trkpt><trkpt lat="45.7617733" lon="11.2262367"><ele>681.75</ele><time>2026-04-23T10:07:39.992Z</time></trkpt><trkpt lat="45.7618683" lon="11.2260617"><ele>686.5</ele><time>2026-04-23T10:07:40.992Z</time></trkpt><trkpt lat="45.761945" lon="11.2259033"><ele>691.25</ele><time>2026-04-23T10:07:41.993Z</time></trkpt><trkpt lat="45.7620033" lon="11.225775"><ele>696.0</ele><time>2026-04-23T10:07:42.992Z</time></trkpt><trkpt lat="45.76205" lon="11.2256783"><ele>696.0</ele><time>2026-04-23T10:07:43.992Z</time></trkpt><trkpt lat="45.7621017" lon="11.2256083"><ele>696.0</ele><time>2026-04-23T10:07:44.992Z</time></trkpt><trkpt lat="45.762165" lon="11.2255533"><ele>696.0</ele><time>2026-04-23T10:07:45.992Z</time></trkpt><trkpt lat="45.76224" lon="11.2255283"><ele>696.0</ele><time>2026-04-23T10:07:46.991Z</time></trkpt><trkpt lat="45.7623333" lon="11.22554"><ele>696.0</ele><time>2026-04-23T10:07:47.991Z</time></trkpt><trkpt lat="45.762435" lon="11.2255833"><ele>696.0</ele><time>2026-04-23T10:07:48.992Z</time></trkpt><trkpt lat="45.7625633" lon="11.2256583"><ele>696.0</ele><time>2026-04-23T10:07:49.991Z</time></trkpt><trkpt lat="45.7626867" lon="11.225735"><ele>696.0</ele><time>2026-04-23T10:07:50.991Z</time></trkpt><trkpt lat="45.7627917" lon="11.2257767"><ele>696.0</ele><time>2026-04-23T10:07:51.991Z</time></trkpt><trkpt lat="45.762885" lon="11.2258017"><ele>696.0</ele><time>2026-04-23T10:07:52.992Z</time></trkpt><trkpt lat="45.762965" lon="11.22578"><ele>696.0</ele><time>2026-04-23T10:07:53.991Z</time></trkpt><trkpt lat="45.7630383" lon="11.2257283"><ele>699.4</ele><time>2026-04-23T10:07:54.992Z</time></trkpt><trkpt lat="45.763095" lon="11.2256417"><ele>702.8</ele><time>2026-04-23T10:07:55.991Z</time></trkpt><trkpt lat="45.7631267" lon="11.2253967"><ele>706.1999999999999</ele><time>2026-04-23T10:07:57.991Z</time></trkpt><trkpt lat="45.7631133" lon="11.2252783"><ele>709.5999999999999</ele><time>2026-04-23T10:07:58.991Z</time></trkpt><trkpt lat="45.7631083" lon="11.2251567"><ele>713.0</ele><time>2026-04-23T10:07:59.991Z</time></trkpt><trkpt lat="45.7631167" lon="11.2250517"><ele>713.0</ele><time>2026-04-23T10:08:00.991Z</time></trkpt><trkpt lat="45.7631433" lon="11.2249467"><ele>713.0</ele><time>2026-04-23T10:08:01.991Z</time></trkpt><trkpt lat="45.7631667" lon="11.2248533"><ele>713.0</ele><time>2026-04-23T10:08:02.991Z</time></trkpt><trkpt lat="45.7632033" lon="11.22471"><ele>713.0</ele><time>2026-04-23T10:08:04.992Z</time></trkpt><trkpt lat="45.7632367" lon="11.2245867"><ele>713.0</ele><time>2026-04-23T10:08:06.992Z</time></trkpt><trkpt lat="45.7632667" lon="11.224445"><ele>713.0</ele><time>2026-04-23T10:08:08.991Z</time></trkpt><trkpt lat="45.763315" lon="11.224325"><ele>711.5</ele><time>2026-04-23T10:08:10.991Z</time></trkpt><trkpt lat="45.763365" lon="11.2242017"><ele>710.0</ele><time>2026-04-23T10:08:12.992Z</time></trkpt><trkpt lat="45.7634117" lon="11.2240983"><ele>708.5</ele><time>2026-04-23T10:08:14.991Z</time></trkpt><trkpt lat="45.7635033" lon="11.2241033"><ele>707.0</ele><time>2026-04-23T10:08:16.992Z</time></trkpt><trkpt lat="45.7636833" lon="11.2240133"><ele>710.7142857142857</ele><time>2026-04-23T10:08:19.992Z</time></trkpt><trkpt lat="45.763725" lon="11.2239433"><ele>714.4285714285714</ele><time>2026-04-23T10:08:20.991Z</time></trkpt><trkpt lat="45.76373" lon="11.2237817"><ele>718.1428571428571</ele><time>2026-04-23T10:08:22.991Z</time></trkpt><trkpt lat="45.7636883" lon="11.223705"><ele>721.8571428571429</ele><time>2026-04-23T10:08:23.991Z</time></trkpt><trkpt lat="45.7636533" lon="11.2236283"><ele>725.5714285714286</ele><time>2026-04-23T10:08:24.991Z</time></trkpt><trkpt lat="45.763635" lon="11.2235417"><ele>729.2857142857142</ele><time>2026-04-23T10:08:25.991Z</time></trkpt><trkpt lat="45.7636417" lon="11.2234367"><ele>733.0</ele><time>2026-04-23T10:08:26.992Z</time></trkpt><trkpt lat="45.7636633" lon="11.2233233"><ele>733.0</ele><time>2026-04-23T10:08:27.991Z</time></trkpt><trkpt lat="45.7636767" lon="11.2232267"><ele>733.0</ele><time>2026-04-23T10:08:28.992Z</time></trkpt><trkpt lat="45.7636633" lon="11.2230883"><ele>733.0</ele><time>2026-04-23T10:08:30.991Z</time></trkpt><trkpt lat="45.7636167" lon="11.2230067"><ele>733.0</ele><time>2026-04-23T10:08:32.991Z</time></trkpt><trkpt lat="45.7635317" lon="11.2229267"><ele>733.0</ele><time>2026-04-23T10:08:34.991Z</time></trkpt><trkpt lat="45.7634183" lon="11.2228633"><ele>731.5</ele><time>2026-04-23T10:08:36.991Z</time></trkpt><trkpt lat="45.7633567" lon="11.2228333"><ele>730.0</ele><time>2026-04-23T10:08:37.991Z</time></trkpt><trkpt lat="45.7631883" lon="11.2227833"><ele>728.5</ele><time>2026-04-23T10:08:41.991Z</time></trkpt><trkpt lat="45.76312" lon="11.22274"><ele>727.0</ele><time>2026-04-23T10:08:43.991Z</time></trkpt><trkpt lat="45.7630617" lon="11.2226883"><ele>725.5</ele><time>2026-04-23T10:08:45.991Z</time></trkpt><trkpt lat="45.7630233" lon="11.2226117"><ele>724.0</ele><time>2026-04-23T10:08:47.991Z</time></trkpt><trkpt lat="45.763005" lon="11.22246"><ele>725.4000000000001</ele><time>2026-04-23T10:08:49.991Z</time></trkpt><trkpt lat="45.7629517" lon="11.2223133"><ele>726.8</ele><time>2026-04-23T10:08:51.991Z</time></trkpt><trkpt lat="45.7628717" lon="11.2221867"><ele>728.2</ele><time>2026-04-23T10:08:53.991Z</time></trkpt><trkpt lat="45.7628017" lon="11.222065"><ele>729.5999999999999</ele><time>2026-04-23T10:08:55.991Z</time></trkpt><trkpt lat="45.7627367" lon="11.22197"><ele>731.0</ele><time>2026-04-23T10:08:57.991Z</time></trkpt><trkpt lat="45.76266" lon="11.2219133"><ele>731.0</ele><time>2026-04-23T10:08:59.992Z</time></trkpt><trkpt lat="45.7624967" lon="11.221835"><ele>731.0</ele><time>2026-04-23T10:09:01.991Z</time></trkpt><trkpt lat="45.7623983" lon="11.2218017"><ele>731.0</ele><time>2026-04-23T10:09:02.991Z</time></trkpt><trkpt lat="45.76228" lon="11.2217667"><ele>731.0</ele><time>2026-04-23T10:09:03.991Z</time></trkpt><trkpt lat="45.762165" lon="11.2217333"><ele>731.0</ele><time>2026-04-23T10:09:04.991Z</time></trkpt><trkpt lat="45.7620483" lon="11.2216983"><ele>731.0</ele><time>2026-04-23T10:09:05.991Z</time></trkpt><trkpt lat="45.7619483" lon="11.2216717"><ele>731.0</ele><time>2026-04-23T10:09:06.991Z</time></trkpt><trkpt lat="45.7618533" lon="11.2216733"><ele>731.0</ele><time>2026-04-23T10:09:07.992Z</time></trkpt><trkpt lat="45.7617667" lon="11.2216833"><ele>731.0</ele><time>2026-04-23T10:09:08.991Z</time></trkpt><trkpt lat="45.7616817" lon="11.2217117"><ele>730.8333333333333</ele><time>2026-04-23T10:09:09.991Z</time></trkpt><trkpt lat="45.7616033" lon="11.2217267"><ele>730.6666666666666</ele><time>2026-04-23T10:09:10.992Z</time></trkpt><trkpt lat="45.7615217" lon="11.2217267"><ele>730.5</ele><time>2026-04-23T10:09:11.991Z</time></trkpt><trkpt lat="45.7614317" lon="11.2217133"><ele>730.3333333333334</ele><time>2026-04-23T10:09:12.991Z</time></trkpt><trkpt lat="45.7613367" lon="11.22168"><ele>730.1666666666667</ele><time>2026-04-23T10:09:13.991Z</time></trkpt><trkpt lat="45.7612483" lon="11.2216317"><ele>730.0</ele><time>2026-04-23T10:09:14.992Z</time></trkpt><trkpt lat="45.7611633" lon="11.221585"><ele>730.0</ele><time>2026-04-23T10:09:15.992Z</time></trkpt><trkpt lat="45.7610983" lon="11.221555"><ele>730.0</ele><time>2026-04-23T10:09:16.991Z</time></trkpt><trkpt lat="45.7610067" lon="11.2215317"><ele>730.0</ele><time>2026-04-23T10:09:18.991Z</time></trkpt><trkpt lat="45.7609417" lon="11.2215717"><ele>730.0</ele><time>2026-04-23T10:09:20.991Z</time></trkpt><trkpt lat="45.7608667" lon="11.221795"><ele>730.0</ele><time>2026-04-23T10:09:23.991Z</time></trkpt><trkpt lat="45.760845" lon="11.2219183"><ele>727.4</ele><time>2026-04-23T10:09:24.991Z</time></trkpt><trkpt lat="45.7608233" lon="11.2220683"><ele>724.8</ele><time>2026-04-23T10:09:25.991Z</time></trkpt><trkpt lat="45.760795" lon="11.2222317"><ele>722.2</ele><time>2026-04-23T10:09:26.991Z</time></trkpt><trkpt lat="45.7607733" lon="11.2223717"><ele>719.6</ele><time>2026-04-23T10:09:27.991Z</time></trkpt><trkpt lat="45.76075" lon="11.2225133"><ele>717.0</ele><time>2026-04-23T10:09:28.991Z</time></trkpt><trkpt lat="45.760735" lon="11.2226567"><ele>717.0</ele><time>2026-04-23T10:09:29.991Z</time></trkpt><trkpt lat="45.760735" lon="11.2227783"><ele>717.0</ele><time>2026-04-23T10:09:30.992Z</time></trkpt><trkpt lat="45.7607383" lon="11.2229"><ele>717.0</ele><time>2026-04-23T10:09:31.991Z</time></trkpt><trkpt lat="45.7607433" lon="11.22301"><ele>717.0</ele><time>2026-04-23T10:09:32.992Z</time></trkpt><trkpt lat="45.76075" lon="11.2231133"><ele>717.0</ele><time>2026-04-23T10:09:33.991Z</time></trkpt><trkpt lat="45.760755" lon="11.2232217"><ele>717.0</ele><time>2026-04-23T10:09:34.991Z</time></trkpt><trkpt lat="45.7607583" lon="11.22333"><ele>716.4000000000001</ele><time>2026-04-23T10:09:35.991Z</time></trkpt><trkpt lat="45.7607667" lon="11.2234433"><ele>715.8000000000001</ele><time>2026-04-23T10:09:36.991Z</time></trkpt><trkpt lat="45.7607667" lon="11.223625"><ele>715.2</ele><time>2026-04-23T10:09:38.992Z</time></trkpt><trkpt lat="45.7607567" lon="11.2237217"><ele>714.6</ele><time>2026-04-23T10:09:39.991Z</time></trkpt><trkpt lat="45.7607433" lon="11.2238917"><ele>714.0</ele><time>2026-04-23T10:09:41.991Z</time></trkpt><trkpt lat="45.76067" lon="11.22419"><ele>712.4000000000001</ele><time>2026-04-23T10:09:45.991Z</time></trkpt><trkpt lat="45.7606167" lon="11.2242667"><ele>710.8</ele><time>2026-04-23T10:09:47.991Z</time></trkpt><trkpt lat="45.7605183" lon="11.2242667"><ele>709.2</ele><time>2026-04-23T10:09:49.991Z</time></trkpt><trkpt lat="45.76041" lon="11.2243167"><ele>707.5999999999999</ele><time>2026-04-23T10:09:51.991Z</time></trkpt><trkpt lat="45.7603333" lon="11.2244683"><ele>706.0</ele><time>2026-04-23T10:09:53.991Z</time></trkpt><trkpt lat="45.7603" lon="11.2245867"><ele>706.0</ele><time>2026-04-23T10:09:55.992Z</time></trkpt><trkpt lat="45.7602267" lon="11.2246517"><ele>706.0</ele><time>2026-04-23T10:09:57.992Z</time></trkpt><trkpt lat="45.7601117" lon="11.224645"><ele>706.0</ele><time>2026-04-23T10:09:59.991Z</time></trkpt><trkpt lat="45.7600317" lon="11.22463"><ele>706.0</ele><time>2026-04-23T10:10:00.992Z</time></trkpt><trkpt lat="45.7599467" lon="11.224605"><ele>706.0</ele><time>2026-04-23T10:10:01.991Z</time></trkpt><trkpt lat="45.7598467" lon="11.2245533"><ele>706.0</ele><time>2026-04-23T10:10:03.991Z</time></trkpt><trkpt lat="45.7598617" lon="11.2243233"><ele>706.0</ele><time>2026-04-23T10:10:10.991Z</time></trkpt><trkpt lat="45.7598817" lon="11.2242017"><ele>706.0</ele><time>2026-04-23T10:10:11.992Z</time></trkpt><trkpt lat="45.7599" lon="11.22406"><ele>706.0</ele><time>2026-04-23T10:10:12.991Z</time></trkpt><trkpt lat="45.75991" lon="11.2238917"><ele>706.0</ele><time>2026-04-23T10:10:13.991Z</time></trkpt><trkpt lat="45.759915" lon="11.2237317"><ele>706.0</ele><time>2026-04-23T10:10:14.991Z</time></trkpt><trkpt lat="45.7599" lon="11.2236067"><ele>706.0</ele><time>2026-04-23T10:10:15.991Z</time></trkpt><trkpt lat="45.75988" lon="11.223505"><ele>706.0</ele><time>2026-04-23T10:10:16.991Z</time></trkpt><trkpt lat="45.7598533" lon="11.2234067"><ele>706.0</ele><time>2026-04-23T10:10:17.991Z</time></trkpt><trkpt lat="45.7598283" lon="11.223315"><ele>706.0</ele><time>2026-04-23T10:10:18.991Z</time></trkpt><trkpt lat="45.759815" lon="11.223225"><ele>704.8333333333334</ele><time>2026-04-23T10:10:19.991Z</time></trkpt><trkpt lat="45.7598017" lon="11.22313"><ele>703.6666666666667</ele><time>2026-04-23T10:10:20.991Z</time></trkpt><trkpt lat="45.7597867" lon="11.2230383"><ele>702.5</ele><time>2026-04-23T10:10:21.991Z</time></trkpt><trkpt lat="45.75978" lon="11.2229383"><ele>701.3333333333334</ele><time>2026-04-23T10:10:22.991Z</time></trkpt><trkpt lat="45.75978" lon="11.2228333"><ele>700.1666666666666</ele><time>2026-04-23T10:10:23.991Z</time></trkpt><trkpt lat="45.75979" lon="11.2227"><ele>699.0</ele><time>2026-04-23T10:10:24.991Z</time></trkpt><trkpt lat="45.7598183" lon="11.222445"><ele>699.0</ele><time>2026-04-23T10:10:26.991Z</time></trkpt><trkpt lat="45.7598267" lon="11.222325"><ele>699.0</ele><time>2026-04-23T10:10:27.991Z</time></trkpt><trkpt lat="45.7598283" lon="11.2222133"><ele>699.0</ele><time>2026-04-23T10:10:28.991Z</time></trkpt><trkpt lat="45.7598333" lon="11.2220933"><ele>699.0</ele><time>2026-04-23T10:10:29.991Z</time></trkpt><trkpt lat="45.759835" lon="11.221975"><ele>699.0</ele><time>2026-04-23T10:10:30.991Z</time></trkpt><trkpt lat="45.759835" lon="11.221855"><ele>699.0</ele><time>2026-04-23T10:10:31.991Z</time></trkpt><trkpt lat="45.7598333" lon="11.2217483"><ele>697.0</ele><time>2026-04-23T10:10:32.991Z</time></trkpt><trkpt lat="45.7598233" lon="11.2216517"><ele>695.0</ele><time>2026-04-23T10:10:33.991Z</time></trkpt><trkpt lat="45.759805" lon="11.2215617"><ele>693.0</ele><time>2026-04-23T10:10:34.991Z</time></trkpt><trkpt lat="45.759765" lon="11.2213883"><ele>691.0</ele><time>2026-04-23T10:10:36.991Z</time></trkpt><trkpt lat="45.7597567" lon="11.2212167"><ele>689.0</ele><time>2026-04-23T10:10:38.992Z</time></trkpt><trkpt lat="45.759805" lon="11.2210533"><ele>686.0</ele><time>2026-04-23T10:10:40.992Z</time></trkpt><trkpt lat="45.7598517" lon="11.2209183"><ele>683.0</ele><time>2026-04-23T10:10:42.991Z</time></trkpt><trkpt lat="45.7598583" lon="11.220805"><ele>680.0</ele><time>2026-04-23T10:10:44.991Z</time></trkpt><trkpt lat="45.7597867" lon="11.2207717"><ele>677.0</ele><time>2026-04-23T10:10:46.991Z</time></trkpt><trkpt lat="45.75957" lon="11.2208583"><ele>677.0</ele><time>2026-04-23T10:10:50.991Z</time></trkpt><trkpt lat="45.7594933" lon="11.22097"><ele>677.0</ele><time>2026-04-23T10:10:52.992Z</time></trkpt><trkpt lat="45.759455" lon="11.2211367"><ele>677.0</ele><time>2026-04-23T10:10:54.991Z</time></trkpt><trkpt lat="45.759445" lon="11.2212417"><ele>677.0</ele><time>2026-04-23T10:10:55.991Z</time></trkpt><trkpt lat="45.75945" lon="11.22136"><ele>677.0</ele><time>2026-04-23T10:10:56.991Z</time></trkpt><trkpt lat="45.7594433" lon="11.2214783"><ele>680.0</ele><time>2026-04-23T10:10:57.991Z</time></trkpt><trkpt lat="45.7594267" lon="11.2216233"><ele>683.0</ele><time>2026-04-23T10:10:58.992Z</time></trkpt><trkpt lat="45.7594117" lon="11.2217917"><ele>686.0</ele><time>2026-04-23T10:10:59.991Z</time></trkpt><trkpt lat="45.7594017" lon="11.2219617"><ele>689.0</ele><time>2026-04-23T10:11:00.991Z</time></trkpt><trkpt lat="45.7593833" lon="11.22214"><ele>681.4000000000001</ele><time>2026-04-23T10:11:01.991Z</time></trkpt><trkpt lat="45.75936" lon="11.222295"><ele>673.8</ele><time>2026-04-23T10:11:02.991Z</time></trkpt><trkpt lat="45.7593317" lon="11.2224517"><ele>666.2</ele><time>2026-04-23T10:11:03.991Z</time></trkpt><trkpt lat="45.75929" lon="11.2225933"><ele>658.5999999999999</ele><time>2026-04-23T10:11:04.991Z</time></trkpt><trkpt lat="45.759245" lon="11.2227217"><ele>651.0</ele><time>2026-04-23T10:11:05.991Z</time></trkpt><trkpt lat="45.759195" lon="11.2228367"><ele>651.0</ele><time>2026-04-23T10:11:06.991Z</time></trkpt><trkpt lat="45.759145" lon="11.2229233"><ele>651.0</ele><time>2026-04-23T10:11:07.991Z</time></trkpt><trkpt lat="45.7590833" lon="11.2231167"><ele>651.0</ele><time>2026-04-23T10:11:09.991Z</time></trkpt><trkpt lat="45.7590733" lon="11.223235"><ele>651.0</ele><time>2026-04-23T10:11:10.991Z</time></trkpt><trkpt lat="45.759075" lon="11.2233767"><ele>651.0</ele><time>2026-04-23T10:11:11.992Z</time></trkpt><trkpt lat="45.7590683" lon="11.2235117"><ele>653.4</ele><time>2026-04-23T10:11:12.991Z</time></trkpt><trkpt lat="45.7590567" lon="11.22362"><ele>655.8</ele><time>2026-04-23T10:11:13.991Z</time></trkpt><trkpt lat="45.7589833" lon="11.2237617"><ele>658.1999999999999</ele><time>2026-04-23T10:11:15.991Z</time></trkpt><trkpt lat="45.75891" lon="11.2238483"><ele>660.5999999999999</ele><time>2026-04-23T10:11:16.99Z</time></trkpt><trkpt lat="45.758825" lon="11.2239367"><ele>663.0</ele><time>2026-04-23T10:11:17.99Z</time></trkpt><trkpt lat="45.7587383" lon="11.2240317"><ele>664.6666666666666</ele><time>2026-04-23T10:11:18.991Z</time></trkpt><trkpt lat="45.758675" lon="11.2241217"><ele>666.3333333333334</ele><time>2026-04-23T10:11:19.99Z</time></trkpt><trkpt lat="45.7586183" lon="11.2242217"><ele>668.0</ele><time>2026-04-23T10:11:20.99Z</time></trkpt><trkpt lat="45.7585783" lon="11.2243367"><ele>669.6666666666667</ele><time>2026-04-23T10:11:21.99Z</time></trkpt><trkpt lat="45.75855" lon="11.224465"><ele>671.3333333333334</ele><time>2026-04-23T10:11:22.991Z</time></trkpt><trkpt lat="45.758535" lon="11.2245783"><ele>673.0</ele><time>2026-04-23T10:11:23.99Z</time></trkpt><trkpt lat="45.7585117" lon="11.224675"><ele>670.2</ele><time>2026-04-23T10:11:24.99Z</time></trkpt><trkpt lat="45.7584867" lon="11.22477"><ele>667.4</ele><time>2026-04-23T10:11:25.99Z</time></trkpt><trkpt lat="45.7584433" lon="11.2248667"><ele>664.6</ele><time>2026-04-23T10:11:26.991Z</time></trkpt><trkpt lat="45.75839" lon="11.2249517"><ele>661.8000000000001</ele><time>2026-04-23T10:11:27.99Z</time></trkpt><trkpt lat="45.7583317" lon="11.225025"><ele>659.0</ele><time>2026-04-23T10:11:28.99Z</time></trkpt><trkpt lat="45.7581683" lon="11.225145"><ele>659.0</ele><time>2026-04-23T10:11:30.99Z</time></trkpt><trkpt lat="45.75808" lon="11.2252"><ele>659.0</ele><time>2026-04-23T10:11:31.99Z</time></trkpt><trkpt lat="45.7579883" lon="11.2252667"><ele>659.0</ele><time>2026-04-23T10:11:32.99Z</time></trkpt><trkpt lat="45.75791" lon="11.2253433"><ele>659.0</ele><time>2026-04-23T10:11:33.99Z</time></trkpt><trkpt lat="45.7578383" lon="11.225425"><ele>659.0</ele><time>2026-04-23T10:11:34.99Z</time></trkpt><trkpt lat="45.75777" lon="11.225505"><ele>659.0</ele><time>2026-04-23T10:11:35.991Z</time></trkpt><trkpt lat="45.7577067" lon="11.2255833"><ele>659.0</ele><time>2026-04-23T10:11:36.99Z</time></trkpt><trkpt lat="45.7576417" lon="11.225655"><ele>659.0</ele><time>2026-04-23T10:11:37.99Z</time></trkpt><trkpt lat="45.7575767" lon="11.2257117"><ele>659.0</ele><time>2026-04-23T10:11:38.99Z</time></trkpt><trkpt lat="45.757515" lon="11.2257483"><ele>659.0</ele><time>2026-04-23T10:11:39.99Z</time></trkpt><trkpt lat="45.757455" lon="11.2257867"><ele>659.0</ele><time>2026-04-23T10:11:40.99Z</time></trkpt><trkpt lat="45.7573617" lon="11.2258217"><ele>657.5</ele><time>2026-04-23T10:11:42.99Z</time></trkpt><trkpt lat="45.7573817" lon="11.225725"><ele>656.0</ele><time>2026-04-23T10:11:45.99Z</time></trkpt><trkpt lat="45.7574367" lon="11.22567"><ele>654.5</ele><time>2026-04-23T10:11:46.99Z</time></trkpt><trkpt lat="45.75749" lon="11.225595"><ele>653.0</ele><time>2026-04-23T10:11:47.99Z</time></trkpt><trkpt lat="45.7575333" lon="11.2255183"><ele>651.5</ele><time>2026-04-23T10:11:48.99Z</time></trkpt><trkpt lat="45.7575767" lon="11.2254167"><ele>650.0</ele><time>2026-04-23T10:11:49.99Z</time></trkpt><trkpt lat="45.7576683" lon="11.2251933"><ele>651.8</ele><time>2026-04-23T10:11:51.99Z</time></trkpt><trkpt lat="45.7577233" lon="11.225075"><ele>653.6</ele><time>2026-04-23T10:11:52.991Z</time></trkpt><trkpt lat="45.7577683" lon="11.224965"><ele>655.4000000000001</ele><time>2026-04-23T10:11:53.99Z</time></trkpt><trkpt lat="45.75781" lon="11.2248617"><ele>657.2</ele><time>2026-04-23T10:11:54.99Z</time></trkpt><trkpt lat="45.7578617" lon="11.2247517"><ele>659.0</ele><time>2026-04-23T10:11:55.991Z</time></trkpt><trkpt lat="45.757905" lon="11.2246417"><ele>655.4000000000001</ele><time>2026-04-23T10:11:56.99Z</time></trkpt><trkpt lat="45.7579533" lon="11.224555"><ele>651.8</ele><time>2026-04-23T10:11:57.99Z</time></trkpt><trkpt lat="45.7580117" lon="11.2244717"><ele>648.2</ele><time>2026-04-23T10:11:58.99Z</time></trkpt><trkpt lat="45.758065" lon="11.2244033"><ele>644.5999999999999</ele><time>2026-04-23T10:11:59.99Z</time></trkpt><trkpt lat="45.7581333" lon="11.22427"><ele>641.0</ele><time>2026-04-23T10:12:01.99Z</time></trkpt><trkpt lat="45.7581817" lon="11.2241167"><ele>641.0</ele><time>2026-04-23T10:12:03.99Z</time></trkpt><trkpt lat="45.7582033" lon="11.22403"><ele>641.0</ele><time>2026-04-23T10:12:04.99Z</time></trkpt><trkpt lat="45.7582267" lon="11.223855"><ele>641.0</ele><time>2026-04-23T10:12:06.99Z</time></trkpt><trkpt lat="45.7582183" lon="11.2237333"><ele>641.0</ele><time>2026-04-23T10:12:07.99Z</time></trkpt><trkpt lat="45.7582" lon="11.22359"><ele>641.0</ele><time>2026-04-23T10:12:08.99Z</time></trkpt><trkpt lat="45.7581683" lon="11.22346"><ele>638.4</ele><time>2026-04-23T10:12:09.99Z</time></trkpt><trkpt lat="45.7581383" lon="11.2233283"><ele>635.8</ele><time>2026-04-23T10:12:10.991Z</time></trkpt><trkpt lat="45.7580867" lon="11.2231017"><ele>633.1999999999999</ele><time>2026-04-23T10:12:12.99Z</time></trkpt><trkpt lat="45.7580733" lon="11.2230133"><ele>630.5999999999999</ele><time>2026-04-23T10:12:13.99Z</time></trkpt><trkpt lat="45.7580683" lon="11.22287"><ele>628.0</ele><time>2026-04-23T10:12:15.99Z</time></trkpt><trkpt lat="45.7580317" lon="11.22278"><ele>628.0</ele><time>2026-04-23T10:12:18.99Z</time></trkpt><trkpt lat="45.757955" lon="11.2228633"><ele>628.0</ele><time>2026-04-23T10:12:21.991Z</time></trkpt><trkpt lat="45.7579383" lon="11.2230383"><ele>628.0</ele><time>2026-04-23T10:12:23.99Z</time></trkpt><trkpt lat="45.757935" lon="11.2231567"><ele>628.0</ele><time>2026-04-23T10:12:24.99Z</time></trkpt><trkpt lat="45.757925" lon="11.22328"><ele>628.0</ele><time>2026-04-23T10:12:25.991Z</time></trkpt><trkpt lat="45.7579033" lon="11.2233833"><ele>628.0</ele><time>2026-04-23T10:12:26.99Z</time></trkpt><trkpt lat="45.7578717" lon="11.2234633"><ele>628.0</ele><time>2026-04-23T10:12:27.991Z</time></trkpt><trkpt lat="45.7578233" lon="11.223535"><ele>628.0</ele><time>2026-04-23T10:12:28.991Z</time></trkpt><trkpt lat="45.757705" lon="11.2235817"><ele>628.0</ele><time>2026-04-23T10:12:30.991Z</time></trkpt><trkpt lat="45.7576417" lon="11.2235967"><ele>628.0</ele><time>2026-04-23T10:12:31.99Z</time></trkpt><trkpt lat="45.757525" lon="11.2236883"><ele>624.8</ele><time>2026-04-23T10:12:33.99Z</time></trkpt><trkpt lat="45.7574717" lon="11.22377"><ele>621.5999999999999</ele><time>2026-04-23T10:12:34.99Z</time></trkpt><trkpt lat="45.7574167" lon="11.2238883"><ele>618.4000000000001</ele><time>2026-04-23T10:12:35.99Z</time></trkpt><trkpt lat="45.7573617" lon="11.2240333"><ele>615.2</ele><time>2026-04-23T10:12:36.991Z</time></trkpt><trkpt lat="45.757305" lon="11.2241867"><ele>612.0</ele><time>2026-04-23T10:12:37.99Z</time></trkpt><trkpt lat="45.75726" lon="11.2243217"><ele>612.0</ele><time>2026-04-23T10:12:38.99Z</time></trkpt><trkpt lat="45.7572017" lon="11.2244383"><ele>612.0</ele><time>2026-04-23T10:12:39.99Z</time></trkpt><trkpt lat="45.7571433" lon="11.2245417"><ele>612.0</ele><time>2026-04-23T10:12:40.99Z</time></trkpt><trkpt lat="45.7570817" lon="11.22463"><ele>612.0</ele><time>2026-04-23T10:12:41.99Z</time></trkpt><trkpt lat="45.7570067" lon="11.2246983"><ele>612.0</ele><time>2026-04-23T10:12:42.99Z</time></trkpt><trkpt lat="45.7569383" lon="11.224765"><ele>609.4</ele><time>2026-04-23T10:12:43.99Z</time></trkpt><trkpt lat="45.7568633" lon="11.22484"><ele>606.8000000000001</ele><time>2026-04-23T10:12:44.99Z</time></trkpt><trkpt lat="45.7567917" lon="11.2249233"><ele>604.2</ele><time>2026-04-23T10:12:45.99Z</time></trkpt><trkpt lat="45.7566933" lon="11.224985"><ele>601.6</ele><time>2026-04-23T10:12:46.99Z</time></trkpt><trkpt lat="45.7565783" lon="11.2250617"><ele>599.0</ele><time>2026-04-23T10:12:47.991Z</time></trkpt><trkpt lat="45.75647" lon="11.2251217"><ele>599.0</ele><time>2026-04-23T10:12:48.99Z</time></trkpt><trkpt lat="45.75637" lon="11.225175"><ele>599.0</ele><time>2026-04-23T10:12:49.991Z</time></trkpt><trkpt lat="45.7562833" lon="11.225225"><ele>599.0</ele><time>2026-04-23T10:12:50.991Z</time></trkpt><trkpt lat="45.7562" lon="11.2252617"><ele>599.0</ele><time>2026-04-23T10:12:51.99Z</time></trkpt><trkpt lat="45.75612" lon="11.2253033"><ele>599.0</ele><time>2026-04-23T10:12:52.99Z</time></trkpt><trkpt lat="45.7559917" lon="11.2253617"><ele>594.2</ele><time>2026-04-23T10:12:54.99Z</time></trkpt><trkpt lat="45.7559233" lon="11.2254"><ele>589.4</ele><time>2026-04-23T10:12:55.99Z</time></trkpt><trkpt lat="45.7558117" lon="11.2254883"><ele>584.6</ele><time>2026-04-23T10:12:57.99Z</time></trkpt><trkpt lat="45.755705" lon="11.2255767"><ele>579.8</ele><time>2026-04-23T10:12:59.99Z</time></trkpt><trkpt lat="45.7556317" lon="11.2255967"><ele>575.0</ele><time>2026-04-23T10:13:01.99Z</time></trkpt><trkpt lat="45.755615" lon="11.2254767"><ele>575.0</ele><time>2026-04-23T10:13:04.99Z</time></trkpt><trkpt lat="45.7556917" lon="11.225335"><ele>575.0</ele><time>2026-04-23T10:13:06.99Z</time></trkpt><trkpt lat="45.7557383" lon="11.225255"><ele>575.0</ele><time>2026-04-23T10:13:07.99Z</time></trkpt><trkpt lat="45.755785" lon="11.225165"><ele>575.0</ele><time>2026-04-23T10:13:08.99Z</time></trkpt><trkpt lat="45.755835" lon="11.2250883"><ele>575.0</ele><time>2026-04-23T10:13:09.99Z</time></trkpt><trkpt lat="45.7558817" lon="11.22502"><ele>575.0</ele><time>2026-04-23T10:13:10.991Z</time></trkpt><trkpt lat="45.75594" lon="11.22497"><ele>575.0</ele><time>2026-04-23T10:13:11.991Z</time></trkpt><trkpt lat="45.7560183" lon="11.2248367"><ele>575.0</ele><time>2026-04-23T10:13:13.99Z</time></trkpt><trkpt lat="45.7561267" lon="11.2247117"><ele>575.0</ele><time>2026-04-23T10:13:15.99Z</time></trkpt><trkpt lat="45.7561667" lon="11.2246333"><ele>575.0</ele><time>2026-04-23T10:13:16.991Z</time></trkpt><trkpt lat="45.756205" lon="11.2245433"><ele>575.0</ele><time>2026-04-23T10:13:17.991Z</time></trkpt><trkpt lat="45.7562383" lon="11.22443"><ele>575.0</ele><time>2026-04-23T10:13:18.99Z</time></trkpt><trkpt lat="45.7562783" lon="11.2243167"><ele>575.0</ele><time>2026-04-23T10:13:19.99Z</time></trkpt><trkpt lat="45.756315" lon="11.2242083"><ele>575.0</ele><time>2026-04-23T10:13:20.99Z</time></trkpt><trkpt lat="45.75635" lon="11.2240917"><ele>575.0</ele><time>2026-04-23T10:13:21.99Z</time></trkpt><trkpt lat="45.7563817" lon="11.2239917"><ele>575.0</ele><time>2026-04-23T10:13:22.99Z</time></trkpt><trkpt lat="45.756415" lon="11.223895"><ele>575.0</ele><time>2026-04-23T10:13:23.991Z</time></trkpt><trkpt lat="45.756445" lon="11.223785"><ele>572.8333333333333</ele><time>2026-04-23T10:13:24.99Z</time></trkpt><trkpt lat="45.7564717" lon="11.2236667"><ele>570.6666666666666</ele><time>2026-04-23T10:13:25.99Z</time></trkpt><trkpt lat="45.7564883" lon="11.22355"><ele>568.5</ele><time>2026-04-23T10:13:26.99Z</time></trkpt><trkpt lat="45.7564917" lon="11.2234283"><ele>566.3333333333334</ele><time>2026-04-23T10:13:27.99Z</time></trkpt><trkpt lat="45.7564933" lon="11.2233067"><ele>564.1666666666667</ele><time>2026-04-23T10:13:28.99Z</time></trkpt><trkpt lat="45.7564983" lon="11.2231917"><ele>562.0</ele><time>2026-04-23T10:13:29.99Z</time></trkpt><trkpt lat="45.7565" lon="11.223085"><ele>559.6</ele><time>2026-04-23T10:13:30.99Z</time></trkpt><trkpt lat="45.7565" lon="11.2229883"><ele>557.2</ele><time>2026-04-23T10:13:31.99Z</time></trkpt><trkpt lat="45.7565" lon="11.2228917"><ele>554.8</ele><time>2026-04-23T10:13:32.99Z</time></trkpt><trkpt lat="45.756495" lon="11.2227233"><ele>552.4</ele><time>2026-04-23T10:13:34.99Z</time></trkpt><trkpt lat="45.7564333" lon="11.2224767"><ele>550.0</ele><time>2026-04-23T10:13:37.99Z</time></trkpt><trkpt lat="45.756345" lon="11.22236"><ele>550.0</ele><time>2026-04-23T10:13:39.991Z</time></trkpt><trkpt lat="45.7562433" lon="11.2223067"><ele>550.0</ele><time>2026-04-23T10:13:41.99Z</time></trkpt><trkpt lat="45.7561517" lon="11.222345"><ele>550.0</ele><time>2026-04-23T10:13:43.99Z</time></trkpt><trkpt lat="45.7560717" lon="11.22243"><ele>550.0</ele><time>2026-04-23T10:13:45.99Z</time></trkpt><trkpt lat="45.756" lon="11.2224067"><ele>550.0</ele><time>2026-04-23T10:13:47.99Z</time></trkpt><trkpt lat="45.755935" lon="11.2223683"><ele>550.0</ele><time>2026-04-23T10:13:49.99Z</time></trkpt><trkpt lat="45.7558717" lon="11.2222733"><ele>544.75</ele><time>2026-04-23T10:13:52.99Z</time></trkpt><trkpt lat="45.755855" lon="11.222125"><ele>539.5</ele><time>2026-04-23T10:13:54.99Z</time></trkpt><trkpt lat="45.7558533" lon="11.2219683"><ele>534.25</ele><time>2026-04-23T10:13:56.99Z</time></trkpt><trkpt lat="45.7559017" lon="11.22167"><ele>529.0</ele><time>2026-04-23T10:13:59.991Z</time></trkpt><trkpt lat="45.75595" lon="11.2215667"><ele>528.4</ele><time>2026-04-23T10:14:00.991Z</time></trkpt><trkpt lat="45.7560067" lon="11.221455"><ele>527.8</ele><time>2026-04-23T10:14:01.99Z</time></trkpt><trkpt lat="45.7560667" lon="11.2213383"><ele>527.2</ele><time>2026-04-23T10:14:02.99Z</time></trkpt><trkpt lat="45.7561317" lon="11.221195"><ele>526.6</ele><time>2026-04-23T10:14:03.99Z</time></trkpt><trkpt lat="45.7561883" lon="11.2210483"><ele>526.0</ele><time>2026-04-23T10:14:04.99Z</time></trkpt><trkpt lat="45.75623" lon="11.220905"><ele>528.0</ele><time>2026-04-23T10:14:05.99Z</time></trkpt><trkpt lat="45.7562483" lon="11.2207667"><ele>530.0</ele><time>2026-04-23T10:14:06.99Z</time></trkpt><trkpt lat="45.7562533" lon="11.2206567"><ele>532.0</ele><time>2026-04-23T10:14:07.991Z</time></trkpt><trkpt lat="45.7562417" lon="11.2205533"><ele>534.0</ele><time>2026-04-23T10:14:08.99Z</time></trkpt><trkpt lat="45.7562183" lon="11.220465"><ele>536.0</ele><time>2026-04-23T10:14:09.99Z</time></trkpt><trkpt lat="45.7561683" lon="11.2203333"><ele>538.0</ele><time>2026-04-23T10:14:11.99Z</time></trkpt><trkpt lat="45.7560783" lon="11.2202767"><ele>538.8</ele><time>2026-04-23T10:14:14.99Z</time></trkpt><trkpt lat="45.7559733" lon="11.2202533"><ele>539.5999999999999</ele><time>2026-04-23T10:14:16.99Z</time></trkpt><trkpt lat="45.7559033" lon="11.2202333"><ele>540.4000000000001</ele><time>2026-04-23T10:14:17.99Z</time></trkpt><trkpt lat="45.755745" lon="11.220255"><ele>541.2</ele><time>2026-04-23T10:14:19.99Z</time></trkpt><trkpt lat="45.7556717" lon="11.22031"><ele>542.0</ele><time>2026-04-23T10:14:20.99Z</time></trkpt><trkpt lat="45.7555933" lon="11.2203933"><ele>542.0</ele><time>2026-04-23T10:14:21.99Z</time></trkpt><trkpt lat="45.7554883" lon="11.2205167"><ele>542.0</ele><time>2026-04-23T10:14:22.99Z</time></trkpt><trkpt lat="45.755365" lon="11.2206867"><ele>542.0</ele><time>2026-04-23T10:14:23.99Z</time></trkpt><trkpt lat="45.755245" lon="11.220845"><ele>540.8000000000001</ele><time>2026-04-23T10:14:24.99Z</time></trkpt><trkpt lat="45.7551367" lon="11.22097"><ele>539.6</ele><time>2026-04-23T10:14:25.99Z</time></trkpt><trkpt lat="45.7550417" lon="11.2210533"><ele>538.4000000000001</ele><time>2026-04-23T10:14:26.99Z</time></trkpt><trkpt lat="45.7549667" lon="11.2210983"><ele>537.2</ele><time>2026-04-23T10:14:27.99Z</time></trkpt><trkpt lat="45.7548967" lon="11.2211017"><ele>536.0</ele><time>2026-04-23T10:14:28.99Z</time></trkpt><trkpt lat="45.7548" lon="11.221175"><ele>536.0</ele><time>2026-04-23T10:14:30.99Z</time></trkpt><trkpt lat="45.7547267" lon="11.2212283"><ele>536.0</ele><time>2026-04-23T10:14:38.99Z</time></trkpt><trkpt lat="45.7545817" lon="11.22138"><ele>536.0</ele><time>2026-04-23T10:14:41.991Z</time></trkpt><trkpt lat="45.75455" lon="11.2212767"><ele>536.0</ele><time>2026-04-23T10:14:46.989Z</time></trkpt><trkpt lat="45.7546567" lon="11.2211567"><ele>536.0</ele><time>2026-04-23T10:14:48.99Z</time></trkpt><trkpt lat="45.7547383" lon="11.22109"><ele>536.0</ele><time>2026-04-23T10:14:49.989Z</time></trkpt><trkpt lat="45.754835" lon="11.2209933"><ele>536.0</ele><time>2026-04-23T10:14:50.99Z</time></trkpt><trkpt lat="45.7549167" lon="11.2208867"><ele>536.0</ele><time>2026-04-23T10:14:51.989Z</time></trkpt><trkpt lat="45.754985" lon="11.2207733"><ele>536.0</ele><time>2026-04-23T10:14:52.989Z</time></trkpt><trkpt lat="45.7550617" lon="11.2206283"><ele>538.25</ele><time>2026-04-23T10:14:53.989Z</time></trkpt><trkpt lat="45.7551233" lon="11.22045"><ele>540.5</ele><time>2026-04-23T10:14:54.989Z</time></trkpt><trkpt lat="45.755135" lon="11.22026"><ele>542.75</ele><time>2026-04-23T10:14:55.99Z</time></trkpt><trkpt lat="45.755115" lon="11.2200767"><ele>545.0</ele><time>2026-04-23T10:14:56.989Z</time></trkpt><trkpt lat="45.75509" lon="11.2198967"><ele>548.25</ele><time>2026-04-23T10:14:57.989Z</time></trkpt><trkpt lat="45.75504" lon="11.2197217"><ele>551.5</ele><time>2026-04-23T10:14:58.99Z</time></trkpt><trkpt lat="45.7549717" lon="11.219595"><ele>554.75</ele><time>2026-04-23T10:14:59.99Z</time></trkpt><trkpt lat="45.7548233" lon="11.2194167"><ele>558.0</ele><time>2026-04-23T10:15:01.989Z</time></trkpt><trkpt lat="45.7547717" lon="11.21932"><ele>558.0</ele><time>2026-04-23T10:15:02.99Z</time></trkpt><trkpt lat="45.754745" lon="11.219215"><ele>558.0</ele><time>2026-04-23T10:15:03.99Z</time></trkpt><trkpt lat="45.7547567" lon="11.2191"><ele>558.0</ele><time>2026-04-23T10:15:04.989Z</time></trkpt><trkpt lat="45.7548017" lon="11.2189833"><ele>558.0</ele><time>2026-04-23T10:15:05.989Z</time></trkpt><trkpt lat="45.7548733" lon="11.2188517"><ele>558.0</ele><time>2026-04-23T10:15:06.989Z</time></trkpt><trkpt lat="45.7549367" lon="11.2187217"><ele>559.5</ele><time>2026-04-23T10:15:07.989Z</time></trkpt><trkpt lat="45.754985" lon="11.21862"><ele>561.0</ele><time>2026-04-23T10:15:08.989Z</time></trkpt><trkpt lat="45.7550217" lon="11.218535"><ele>562.5</ele><time>2026-04-23T10:15:09.989Z</time></trkpt><trkpt lat="45.7550733" lon="11.218395"><ele>564.0</ele><time>2026-04-23T10:15:11.989Z</time></trkpt><trkpt lat="45.7551083" lon="11.2183167"><ele>565.5</ele><time>2026-04-23T10:15:13.989Z</time></trkpt><trkpt lat="45.7551283" lon="11.2182217"><ele>567.0</ele><time>2026-04-23T10:15:15.989Z</time></trkpt><trkpt lat="45.7551467" lon="11.218095"><ele>570.0</ele><time>2026-04-23T10:15:17.989Z</time></trkpt><trkpt lat="45.7551567" lon="11.217955"><ele>570.0</ele><time>2026-04-23T10:15:19.989Z</time></trkpt><trkpt lat="45.7551733" lon="11.2178383"><ele>570.0</ele><time>2026-04-23T10:15:21.989Z</time></trkpt></trkseg><trkseg><trkpt lat="45.7519033" lon="11.2162"><ele>626.0</ele><time>2026-04-23T12:01:25.329Z</time></trkpt><trkpt lat="45.7518317" lon="11.216195"><ele>626.0</ele><time>2026-04-23T12:01:30.329Z</time></trkpt><trkpt lat="45.7518083" lon="11.216085"><ele>626.0</ele><time>2026-04-23T12:01:32.33Z</time></trkpt><trkpt lat="45.75187" lon="11.2159"><ele>626.0</ele><time>2026-04-23T12:01:34.329Z</time></trkpt><trkpt lat="45.7519067" lon="11.215795"><ele>626.0</ele><time>2026-04-23T12:01:35.33Z</time></trkpt><trkpt lat="45.75195" lon="11.21571"><ele>630.1666666666666</ele><time>2026-04-23T12:01:36.33Z</time></trkpt><trkpt lat="45.7520017" lon="11.215615"><ele>634.3333333333333</ele><time>2026-04-23T12:01:37.329Z</time></trkpt><trkpt lat="45.7520467" lon="11.2155433"><ele>638.5</ele><time>2026-04-23T12:01:38.329Z</time></trkpt><trkpt lat="45.75214" lon="11.21544"><ele>642.6666666666666</ele><time>2026-04-23T12:01:40.33Z</time></trkpt><trkpt lat="45.7521967" lon="11.2153933"><ele>646.8333333333334</ele><time>2026-04-23T12:01:41.329Z</time></trkpt><trkpt lat="45.7522633" lon="11.21535"><ele>651.0</ele><time>2026-04-23T12:01:42.329Z</time></trkpt><trkpt lat="45.7523417" lon="11.21529"><ele>651.0</ele><time>2026-04-23T12:01:43.33Z</time></trkpt><trkpt lat="45.7524117" lon="11.2152333"><ele>651.0</ele><time>2026-04-23T12:01:44.329Z</time></trkpt><trkpt lat="45.7524717" lon="11.2152033"><ele>651.0</ele><time>2026-04-23T12:01:45.329Z</time></trkpt><trkpt lat="45.7525817" lon="11.21511"><ele>651.0</ele><time>2026-04-23T12:01:47.33Z</time></trkpt><trkpt lat="45.7526167" lon="11.215025"><ele>651.0</ele><time>2026-04-23T12:01:48.33Z</time></trkpt><trkpt lat="45.7526533" lon="11.214935"><ele>651.0</ele><time>2026-04-23T12:01:49.33Z</time></trkpt><trkpt lat="45.7526733" lon="11.2148367"><ele>647.8</ele><time>2026-04-23T12:01:50.329Z</time></trkpt><trkpt lat="45.752725" lon="11.214735"><ele>644.5999999999999</ele><time>2026-04-23T12:01:51.329Z</time></trkpt><trkpt lat="45.7527967" lon="11.2146433"><ele>641.4</ele><time>2026-04-23T12:01:52.329Z</time></trkpt><trkpt lat="45.7528583" lon="11.2145483"><ele>638.2</ele><time>2026-04-23T12:01:53.33Z</time></trkpt><trkpt lat="45.7529667" lon="11.2144167"><ele>635.0</ele><time>2026-04-23T12:01:56.329Z</time></trkpt><trkpt lat="45.7530517" lon="11.2142633"><ele>635.0</ele><time>2026-04-23T12:01:58.329Z</time></trkpt><trkpt lat="45.753105" lon="11.2141017"><ele>635.0</ele><time>2026-04-23T12:02:00.329Z</time></trkpt><trkpt lat="45.753115" lon="11.2140067"><ele>635.0</ele><time>2026-04-23T12:02:02.329Z</time></trkpt><trkpt lat="45.7530867" lon="11.2138517"><ele>635.0</ele><time>2026-04-23T12:02:05.329Z</time></trkpt><trkpt lat="45.753035" lon="11.2136767"><ele>635.0</ele><time>2026-04-23T12:02:07.329Z</time></trkpt><trkpt lat="45.7529867" lon="11.2135967"><ele>638.25</ele><time>2026-04-23T12:02:08.329Z</time></trkpt><trkpt lat="45.752965" lon="11.2134633"><ele>641.5</ele><time>2026-04-23T12:02:09.33Z</time></trkpt><trkpt lat="45.7529667" lon="11.2132817"><ele>644.75</ele><time>2026-04-23T12:02:11.329Z</time></trkpt><trkpt lat="45.7529817" lon="11.2130683"><ele>648.0</ele><time>2026-04-23T12:02:13.329Z</time></trkpt><trkpt lat="45.7530133" lon="11.2129283"><ele>655.75</ele><time>2026-04-23T12:02:14.33Z</time></trkpt><trkpt lat="45.7531383" lon="11.2128617"><ele>663.5</ele><time>2026-04-23T12:02:16.329Z</time></trkpt><trkpt lat="45.753255" lon="11.2128617"><ele>671.25</ele><time>2026-04-23T12:02:18.329Z</time></trkpt><trkpt lat="45.7533733" lon="11.2129417"><ele>679.0</ele><time>2026-04-23T12:02:19.329Z</time></trkpt><trkpt lat="45.75351" lon="11.2130483"><ele>677.8333333333334</ele><time>2026-04-23T12:02:20.33Z</time></trkpt><trkpt lat="45.75359" lon="11.2131133"><ele>676.6666666666667</ele><time>2026-04-23T12:02:21.33Z</time></trkpt><trkpt lat="45.7536667" lon="11.2132183"><ele>675.5</ele><time>2026-04-23T12:02:22.329Z</time></trkpt><trkpt lat="45.7537367" lon="11.2132883"><ele>674.3333333333334</ele><time>2026-04-23T12:02:23.329Z</time></trkpt><trkpt lat="45.7537933" lon="11.2133633"><ele>673.1666666666666</ele><time>2026-04-23T12:02:24.329Z</time></trkpt><trkpt lat="45.753845" lon="11.2134633"><ele>672.0</ele><time>2026-04-23T12:02:25.329Z</time></trkpt><trkpt lat="45.753865" lon="11.2135567"><ele>667.5</ele><time>2026-04-23T12:02:26.329Z</time></trkpt><trkpt lat="45.7538867" lon="11.2136467"><ele>663.0</ele><time>2026-04-23T12:02:28.328Z</time></trkpt><trkpt lat="45.7539517" lon="11.2136383"><ele>658.5</ele><time>2026-04-23T12:02:32.328Z</time></trkpt><trkpt lat="45.75401" lon="11.2135917"><ele>654.0</ele><time>2026-04-23T12:02:34.328Z</time></trkpt><trkpt lat="45.7540717" lon="11.2135083"><ele>649.5</ele><time>2026-04-23T12:02:35.328Z</time></trkpt><trkpt lat="45.7541117" lon="11.2134117"><ele>645.0</ele><time>2026-04-23T12:02:36.328Z</time></trkpt><trkpt lat="45.7541583" lon="11.2132367"><ele>645.0</ele><time>2026-04-23T12:02:38.328Z</time></trkpt><trkpt lat="45.7541683" lon="11.2131367"><ele>645.0</ele><time>2026-04-23T12:02:40.329Z</time></trkpt><trkpt lat="45.7541017" lon="11.2130783"><ele>645.0</ele><time>2026-04-23T12:02:43.328Z</time></trkpt><trkpt lat="45.75409" lon="11.21319"><ele>645.0</ele><time>2026-04-23T12:02:47.328Z</time></trkpt><trkpt lat="45.75403" lon="11.2132217"><ele>645.0</ele><time>2026-04-23T12:02:49.328Z</time></trkpt><trkpt lat="45.7540033" lon="11.213135"><ele>645.0</ele><time>2026-04-23T12:02:52.328Z</time></trkpt><trkpt lat="45.7540567" lon="11.2130217"><ele>648.5</ele><time>2026-04-23T12:02:54.328Z</time></trkpt><trkpt lat="45.7541217" lon="11.2128967"><ele>652.0</ele><time>2026-04-23T12:02:56.329Z</time></trkpt><trkpt lat="45.7542217" lon="11.212795"><ele>655.5</ele><time>2026-04-23T12:02:58.328Z</time></trkpt><trkpt lat="45.75433" lon="11.2127267"><ele>659.0</ele><time>2026-04-23T12:03:00.329Z</time></trkpt><trkpt lat="45.7544033" lon="11.2126267"><ele>659.0</ele><time>2026-04-23T12:03:01.328Z</time></trkpt><trkpt lat="45.754465" lon="11.2125333"><ele>659.0</ele><time>2026-04-23T12:03:02.328Z</time></trkpt><trkpt lat="45.7545583" lon="11.2124317"><ele>659.0</ele><time>2026-04-23T12:03:03.328Z</time></trkpt><trkpt lat="45.7546233" lon="11.2123433"><ele>659.0</ele><time>2026-04-23T12:03:04.328Z</time></trkpt><trkpt lat="45.7546967" lon="11.2122467"><ele>659.0</ele><time>2026-04-23T12:03:05.328Z</time></trkpt><trkpt lat="45.7547667" lon="11.212095"><ele>662.8000000000001</ele><time>2026-04-23T12:03:06.328Z</time></trkpt><trkpt lat="45.7548217" lon="11.211915"><ele>666.6</ele><time>2026-04-23T12:03:07.328Z</time></trkpt><trkpt lat="45.7548583" lon="11.2118033"><ele>670.4</ele><time>2026-04-23T12:03:08.329Z</time></trkpt><trkpt lat="45.75489" lon="11.2116767"><ele>674.2</ele><time>2026-04-23T12:03:09.329Z</time></trkpt><trkpt lat="45.7549133" lon="11.2115267"><ele>678.0</ele><time>2026-04-23T12:03:10.328Z</time></trkpt><trkpt lat="45.7549133" lon="11.2113967"><ele>683.5999999999999</ele><time>2026-04-23T12:03:11.328Z</time></trkpt><trkpt lat="45.7549133" lon="11.2112467"><ele>689.1999999999999</ele><time>2026-04-23T12:03:12.328Z</time></trkpt><trkpt lat="45.7548933" lon="11.211105"><ele>694.8</ele><time>2026-04-23T12:03:13.328Z</time></trkpt><trkpt lat="45.7549033" lon="11.2109817"><ele>700.4</ele><time>2026-04-23T12:03:14.328Z</time></trkpt><trkpt lat="45.7549183" lon="11.2108533"><ele>706.0</ele><time>2026-04-23T12:03:15.328Z</time></trkpt><trkpt lat="45.754945" lon="11.210725"><ele>706.0</ele><time>2026-04-23T12:03:16.328Z</time></trkpt><trkpt lat="45.75499" lon="11.2106467"><ele>706.0</ele><time>2026-04-23T12:03:19.328Z</time></trkpt><trkpt lat="45.7550433" lon="11.2107783"><ele>706.0</ele><time>2026-04-23T12:03:21.328Z</time></trkpt><trkpt lat="45.7551" lon="11.21096"><ele>706.0</ele><time>2026-04-23T12:03:22.328Z</time></trkpt><trkpt lat="45.7551567" lon="11.2110683"><ele>706.0</ele><time>2026-04-23T12:03:23.328Z</time></trkpt><trkpt lat="45.7552133" lon="11.2111567"><ele>708.5999999999999</ele><time>2026-04-23T12:03:24.328Z</time></trkpt><trkpt lat="45.75527" lon="11.2112567"><ele>711.2</ele><time>2026-04-23T12:03:25.328Z</time></trkpt><trkpt lat="45.75538" lon="11.211265"><ele>713.8</ele><time>2026-04-23T12:03:26.328Z</time></trkpt><trkpt lat="45.7554917" lon="11.211295"><ele>716.4000000000001</ele><time>2026-04-23T12:03:27.329Z</time></trkpt><trkpt lat="45.7555917" lon="11.21133"><ele>719.0</ele><time>2026-04-23T12:03:28.328Z</time></trkpt><trkpt lat="45.7556967" lon="11.2113433"><ele>719.0</ele><time>2026-04-23T12:03:29.328Z</time></trkpt><trkpt lat="45.7557817" lon="11.2113117"><ele>719.0</ele><time>2026-04-23T12:03:30.328Z</time></trkpt><trkpt lat="45.7558467" lon="11.2112783"><ele>719.0</ele><time>2026-04-23T12:03:31.329Z</time></trkpt><trkpt lat="45.755945" lon="11.2113"><ele>719.0</ele><time>2026-04-23T12:03:33.329Z</time></trkpt><trkpt lat="45.755995" lon="11.2113933"><ele>719.0</ele><time>2026-04-23T12:03:35.328Z</time></trkpt><trkpt lat="45.756045" lon="11.2114633"><ele>719.0</ele><time>2026-04-23T12:03:37.328Z</time></trkpt><trkpt lat="45.756165" lon="11.21143"><ele>718.25</ele><time>2026-04-23T12:03:39.329Z</time></trkpt><trkpt lat="45.756285" lon="11.211285"><ele>717.5</ele><time>2026-04-23T12:03:41.328Z</time></trkpt><trkpt lat="45.756355" lon="11.211135"><ele>716.75</ele><time>2026-04-23T12:03:42.329Z</time></trkpt><trkpt lat="45.756435" lon="11.2109983"><ele>716.0</ele><time>2026-04-23T12:03:43.329Z</time></trkpt><trkpt lat="45.7565083" lon="11.2108667"><ele>716.0</ele><time>2026-04-23T12:03:44.328Z</time></trkpt><trkpt lat="45.7565617" lon="11.210805"><ele>716.0</ele><time>2026-04-23T12:03:45.329Z</time></trkpt><trkpt lat="45.75669" lon="11.2107567"><ele>716.0</ele><time>2026-04-23T12:03:47.329Z</time></trkpt><trkpt lat="45.7567633" lon="11.21072"><ele>716.0</ele><time>2026-04-23T12:03:48.328Z</time></trkpt><trkpt lat="45.75685" lon="11.2106533"><ele>716.0</ele><time>2026-04-23T12:03:49.328Z</time></trkpt><trkpt lat="45.7569533" lon="11.2106083"><ele>722.0</ele><time>2026-04-23T12:03:50.328Z</time></trkpt><trkpt lat="45.7570483" lon="11.2105067"><ele>728.0</ele><time>2026-04-23T12:03:51.328Z</time></trkpt><trkpt lat="45.7571233" lon="11.21046"><ele>734.0</ele><time>2026-04-23T12:03:52.329Z</time></trkpt><trkpt lat="45.7571833" lon="11.2104167"><ele>740.0</ele><time>2026-04-23T12:03:53.328Z</time></trkpt><trkpt lat="45.7572767" lon="11.2103233"><ele>746.0</ele><time>2026-04-23T12:03:54.328Z</time></trkpt><trkpt lat="45.75737" lon="11.2103383"><ele>746.0</ele><time>2026-04-23T12:03:55.328Z</time></trkpt><trkpt lat="45.7574367" lon="11.2103683"><ele>746.0</ele><time>2026-04-23T12:03:56.328Z</time></trkpt><trkpt lat="45.7575267" lon="11.2103333"><ele>746.0</ele><time>2026-04-23T12:03:58.329Z</time></trkpt><trkpt lat="45.757585" lon="11.2102267"><ele>746.0</ele><time>2026-04-23T12:03:59.328Z</time></trkpt><trkpt lat="45.7576367" lon="11.2100833"><ele>746.0</ele><time>2026-04-23T12:04:00.328Z</time></trkpt><trkpt lat="45.757675" lon="11.209965"><ele>750.1999999999999</ele><time>2026-04-23T12:04:01.328Z</time></trkpt><trkpt lat="45.7577217" lon="11.20986"><ele>754.4</ele><time>2026-04-23T12:04:03.328Z</time></trkpt><trkpt lat="45.7577767" lon="11.2098"><ele>758.6</ele><time>2026-04-23T12:04:06.328Z</time></trkpt><trkpt lat="45.7576733" lon="11.2097517"><ele>762.8</ele><time>2026-04-23T12:04:12.329Z</time></trkpt><trkpt lat="45.7575717" lon="11.2097133"><ele>767.0</ele><time>2026-04-23T12:04:14.329Z</time></trkpt><trkpt lat="45.75749" lon="11.2097517"><ele>762.8</ele><time>2026-04-23T12:04:15.328Z</time></trkpt><trkpt lat="45.757405" lon="11.2098283"><ele>758.6</ele><time>2026-04-23T12:04:16.329Z</time></trkpt><trkpt lat="45.7573467" lon="11.2098833"><ele>754.4</ele><time>2026-04-23T12:04:17.328Z</time></trkpt><trkpt lat="45.7572733" lon="11.2099583"><ele>750.1999999999999</ele><time>2026-04-23T12:04:18.329Z</time></trkpt><trkpt lat="45.7571583" lon="11.2100017"><ele>746.0</ele><time>2026-04-23T12:04:20.329Z</time></trkpt><trkpt lat="45.7570217" lon="11.2099767"><ele>746.0</ele><time>2026-04-23T12:04:22.328Z</time></trkpt><trkpt lat="45.7569483" lon="11.2099933"><ele>746.0</ele><time>2026-04-23T12:04:23.329Z</time></trkpt><trkpt lat="45.7568867" lon="11.21005"><ele>746.0</ele><time>2026-04-23T12:04:24.329Z</time></trkpt><trkpt lat="45.7568083" lon="11.2101317"><ele>746.0</ele><time>2026-04-23T12:04:27.328Z</time></trkpt><trkpt lat="45.7567183" lon="11.2101583"><ele>746.0</ele><time>2026-04-23T12:04:28.328Z</time></trkpt><trkpt lat="45.7566383" lon="11.2101083"><ele>746.0</ele><time>2026-04-23T12:04:29.329Z</time></trkpt><trkpt lat="45.75655" lon="11.2101233"><ele>749.75</ele><time>2026-04-23T12:04:30.328Z</time></trkpt><trkpt lat="45.7564583" lon="11.2101267"><ele>753.5</ele><time>2026-04-23T12:04:32.328Z</time></trkpt><trkpt lat="45.7563317" lon="11.2100733"><ele>757.25</ele><time>2026-04-23T12:04:34.328Z</time></trkpt><trkpt lat="45.75623" lon="11.2099283"><ele>761.0</ele><time>2026-04-23T12:04:36.329Z</time></trkpt><trkpt lat="45.7561533" lon="11.20987"><ele>761.0</ele><time>2026-04-23T12:04:37.328Z</time></trkpt><trkpt lat="45.7560633" lon="11.2098267"><ele>761.0</ele><time>2026-04-23T12:04:38.328Z</time></trkpt><trkpt lat="45.7559483" lon="11.20982"><ele>761.0</ele><time>2026-04-23T12:04:39.328Z</time></trkpt><trkpt lat="45.7558767" lon="11.20976"><ele>761.0</ele><time>2026-04-23T12:04:40.329Z</time></trkpt><trkpt lat="45.7557767" lon="11.2097283"><ele>761.0</ele><time>2026-04-23T12:04:41.328Z</time></trkpt><trkpt lat="45.7556717" lon="11.2096867"><ele>764.6666666666666</ele><time>2026-04-23T12:04:43.328Z</time></trkpt><trkpt lat="45.7556217" lon="11.2096233"><ele>768.3333333333333</ele><time>2026-04-23T12:04:45.328Z</time></trkpt><trkpt lat="45.75571" lon="11.2095783"><ele>772.0</ele><time>2026-04-23T12:04:50.328Z</time></trkpt><trkpt lat="45.7558117" lon="11.2096117"><ele>775.6666666666666</ele><time>2026-04-23T12:04:52.329Z</time></trkpt><trkpt lat="45.7558833" lon="11.2096083"><ele>779.3333333333334</ele><time>2026-04-23T12:04:53.328Z</time></trkpt><trkpt lat="45.7559733" lon="11.2095883"><ele>783.0</ele><time>2026-04-23T12:04:54.327Z</time></trkpt><trkpt lat="45.7560483" lon="11.2096233"><ele>783.3333333333334</ele><time>2026-04-23T12:04:56.327Z</time></trkpt><trkpt lat="45.7561217" lon="11.209675"><ele>783.6666666666667</ele><time>2026-04-23T12:04:57.327Z</time></trkpt><trkpt lat="45.75615" lon="11.2097583"><ele>784.0</ele><time>2026-04-23T12:04:58.328Z</time></trkpt><trkpt lat="45.7561867" lon="11.2098533"><ele>784.3333333333334</ele><time>2026-04-23T12:04:59.328Z</time></trkpt><trkpt lat="45.7562633" lon="11.2099033"><ele>784.6666666666667</ele><time>2026-04-23T12:05:00.328Z</time></trkpt><trkpt lat="45.75638" lon="11.2098917"><ele>785.0</ele><time>2026-04-23T12:05:01.327Z</time></trkpt><trkpt lat="45.7564917" lon="11.20986"><ele>785.0000000000001</ele><time>2026-04-23T12:05:03.327Z</time></trkpt><trkpt lat="45.7564817" lon="11.20977"><ele>785.0</ele><time>2026-04-23T12:05:06.328Z</time></trkpt><trkpt lat="45.7563733" lon="11.2097733"><ele>785.0</ele><time>2026-04-23T12:05:09.327Z</time></trkpt><trkpt lat="45.75634" lon="11.2096517"><ele>785.0</ele><time>2026-04-23T12:05:11.327Z</time></trkpt><trkpt lat="45.75629" lon="11.2095533"><ele>785.0000000000001</ele><time>2026-04-23T12:05:12.327Z</time></trkpt><trkpt lat="45.7562167" lon="11.209475"><ele>785.0</ele><time>2026-04-23T12:05:13.328Z</time></trkpt><trkpt lat="45.756125" lon="11.20944"><ele>785.0</ele><time>2026-04-23T12:05:14.327Z</time></trkpt><trkpt lat="45.75606" lon="11.2093067"><ele>785.0</ele><time>2026-04-23T12:05:15.327Z</time></trkpt><trkpt lat="45.7559717" lon="11.2092233"><ele>785.0</ele><time>2026-04-23T12:05:17.327Z</time></trkpt><trkpt lat="45.7558317" lon="11.2091833"><ele>785.0</ele><time>2026-04-23T12:05:19.328Z</time></trkpt><trkpt lat="45.755755" lon="11.2090967"><ele>785.0000000000001</ele><time>2026-04-23T12:05:21.328Z</time></trkpt><trkpt lat="45.7556917" lon="11.2091"><ele>785.0</ele><time>2026-04-23T12:05:22.327Z</time></trkpt><trkpt lat="45.7557967" lon="11.2090567"><ele>785.0</ele><time>2026-04-23T12:05:27.328Z</time></trkpt><trkpt lat="45.7558867" lon="11.2090383"><ele>785.0</ele><time>2026-04-23T12:05:28.327Z</time></trkpt><trkpt lat="45.755965" lon="11.2090667"><ele>785.0000000000001</ele><time>2026-04-23T12:05:29.327Z</time></trkpt><trkpt lat="45.7560683" lon="11.20906"><ele>785.0</ele><time>2026-04-23T12:05:30.328Z</time></trkpt><trkpt lat="45.75616" lon="11.20907"><ele>785.0000000000001</ele><time>2026-04-23T12:05:31.328Z</time></trkpt><trkpt lat="45.7562317" lon="11.2090467"><ele>785.0</ele><time>2026-04-23T12:05:32.327Z</time></trkpt><trkpt lat="45.75631" lon="11.209085"><ele>785.0</ele><time>2026-04-23T12:05:34.327Z</time></trkpt><trkpt lat="45.7563567" lon="11.2091833"><ele>785.0</ele><time>2026-04-23T12:05:36.327Z</time></trkpt><trkpt lat="45.7564083" lon="11.20924"><ele>785.0000000000001</ele><time>2026-04-23T12:05:37.327Z</time></trkpt><trkpt lat="45.75647" lon="11.2093467"><ele>785.0</ele><time>2026-04-23T12:05:39.327Z</time></trkpt><trkpt lat="45.756535" lon="11.209375"><ele>785.0000000000001</ele><time>2026-04-23T12:05:40.327Z</time></trkpt><trkpt lat="45.7566183" lon="11.2093467"><ele>785.0</ele><time>2026-04-23T12:05:41.327Z</time></trkpt><trkpt lat="45.7567017" lon="11.2093083"><ele>785.0</ele><time>2026-04-23T12:05:42.328Z</time></trkpt><trkpt lat="45.7568033" lon="11.2092867"><ele>785.0</ele><time>2026-04-23T12:05:44.327Z</time></trkpt><trkpt lat="45.7567283" lon="11.20924"><ele>785.0000000000001</ele><time>2026-04-23T12:05:48.327Z</time></trkpt><trkpt lat="45.7566717" lon="11.2091933"><ele>785.0</ele><time>2026-04-23T12:05:49.327Z</time></trkpt><trkpt lat="45.7566" lon="11.2091333"><ele>785.0000000000001</ele><time>2026-04-23T12:05:51.327Z</time></trkpt><trkpt lat="45.756535" lon="11.2090217"><ele>785.0</ele><time>2026-04-23T12:05:53.328Z</time></trkpt><trkpt lat="45.756415" lon="11.20895"><ele>785.0</ele><time>2026-04-23T12:05:55.327Z</time></trkpt><trkpt lat="45.7563483" lon="11.2089217"><ele>785.0</ele><time>2026-04-23T12:05:56.327Z</time></trkpt><trkpt lat="45.7562833" lon="11.20891"><ele>785.0000000000001</ele><time>2026-04-23T12:05:57.327Z</time></trkpt><trkpt lat="45.7562117" lon="11.2089117"><ele>785.0</ele><time>2026-04-23T12:05:58.327Z</time></trkpt><trkpt lat="45.7561367" lon="11.2088917"><ele>785.5000000000001</ele><time>2026-04-23T12:05:59.327Z</time></trkpt><trkpt lat="45.7560617" lon="11.2088567"><ele>786.0</ele><time>2026-04-23T12:06:00.327Z</time></trkpt><trkpt lat="45.75598" lon="11.2088083"><ele>786.5</ele><time>2026-04-23T12:06:01.327Z</time></trkpt><trkpt lat="45.7558833" lon="11.208725"><ele>787.0</ele><time>2026-04-23T12:06:03.327Z</time></trkpt><trkpt lat="45.755905" lon="11.2086233"><ele>787.5000000000001</ele><time>2026-04-23T12:06:08.327Z</time></trkpt><trkpt lat="45.7559733" lon="11.2086083"><ele>788.0</ele><time>2026-04-23T12:06:10.327Z</time></trkpt><trkpt lat="45.75607" lon="11.2086583"><ele>788.0000000000001</ele><time>2026-04-23T12:06:12.327Z</time></trkpt><trkpt lat="45.7561417" lon="11.20868"><ele>788.0</ele><time>2026-04-23T12:06:14.328Z</time></trkpt><trkpt lat="45.7560917" lon="11.208555"><ele>788.0</ele><time>2026-04-23T12:06:17.328Z</time></trkpt><trkpt lat="45.75603" lon="11.2084983"><ele>788.0</ele><time>2026-04-23T12:06:18.327Z</time></trkpt><trkpt lat="45.7559433" lon="11.2084467"><ele>788.0000000000001</ele><time>2026-04-23T12:06:20.328Z</time></trkpt><trkpt lat="45.7560367" lon="11.2084267"><ele>788.0</ele><time>2026-04-23T12:06:26.327Z</time></trkpt><trkpt lat="45.7561683" lon="11.2084083"><ele>788.0</ele><time>2026-04-23T12:06:28.327Z</time></trkpt><trkpt lat="45.7562133" lon="11.2083267"><ele>788.0</ele><time>2026-04-23T12:06:33.327Z</time></trkpt><trkpt lat="45.75614" lon="11.2082617"><ele>788.0</ele><time>2026-04-23T12:06:34.327Z</time></trkpt><trkpt lat="45.756025" lon="11.2081717"><ele>788.0</ele><time>2026-04-23T12:06:36.327Z</time></trkpt><trkpt lat="45.7559583" lon="11.208105"><ele>788.0</ele><time>2026-04-23T12:06:37.327Z</time></trkpt><trkpt lat="45.7558833" lon="11.20803"><ele>793.4</ele><time>2026-04-23T12:06:38.328Z</time></trkpt><trkpt lat="45.7558033" lon="11.207965"><ele>798.8</ele><time>2026-04-23T12:06:39.327Z</time></trkpt><trkpt lat="45.7557617" lon="11.2078667"><ele>804.2</ele><time>2026-04-23T12:06:40.328Z</time></trkpt><trkpt lat="45.755715" lon="11.2077967"><ele>809.6</ele><time>2026-04-23T12:06:41.327Z</time></trkpt><trkpt lat="45.755615" lon="11.2075833"><ele>815.0</ele><time>2026-04-23T12:06:43.327Z</time></trkpt><trkpt lat="45.7556" lon="11.2074833"><ele>815.0000000000001</ele><time>2026-04-23T12:06:44.328Z</time></trkpt><trkpt lat="45.7555817" lon="11.207345"><ele>815.0</ele><time>2026-04-23T12:06:45.328Z</time></trkpt><trkpt lat="45.7555517" lon="11.207235"><ele>815.0</ele><time>2026-04-23T12:06:46.327Z</time></trkpt><trkpt lat="45.7555017" lon="11.207145"><ele>815.0</ele><time>2026-04-23T12:06:47.328Z</time></trkpt><trkpt lat="45.755455" lon="11.2070483"><ele>815.0000000000001</ele><time>2026-04-23T12:06:48.328Z</time></trkpt><trkpt lat="45.75541" lon="11.2069133"><ele>815.0</ele><time>2026-04-23T12:06:49.327Z</time></trkpt><trkpt lat="45.7553767" lon="11.2068367"><ele>816.0000000000001</ele><time>2026-04-23T12:06:50.328Z</time></trkpt><trkpt lat="45.7553483" lon="11.2067417"><ele>817.0</ele><time>2026-04-23T12:06:51.327Z</time></trkpt><trkpt lat="45.755335" lon="11.20665"><ele>818.0</ele><time>2026-04-23T12:06:52.327Z</time></trkpt><trkpt lat="45.7553033" lon="11.20656"><ele>819.0</ele><time>2026-04-23T12:06:53.327Z</time></trkpt><trkpt lat="45.7552017" lon="11.20642"><ele>820.0000000000001</ele><time>2026-04-23T12:06:55.327Z</time></trkpt><trkpt lat="45.755155" lon="11.2063567"><ele>821.0</ele><time>2026-04-23T12:06:56.327Z</time></trkpt><trkpt lat="45.755115" lon="11.2062667"><ele>828.4</ele><time>2026-04-23T12:06:57.327Z</time></trkpt><trkpt lat="45.7550683" lon="11.2062017"><ele>835.8</ele><time>2026-04-23T12:06:58.328Z</time></trkpt><trkpt lat="45.75499" lon="11.2060383"><ele>843.1999999999999</ele><time>2026-04-23T12:06:59.327Z</time></trkpt><trkpt lat="45.7549283" lon="11.205945"><ele>850.5999999999999</ele><time>2026-04-23T12:07:00.328Z</time></trkpt><trkpt lat="45.7548567" lon="11.2057883"><ele>858.0</ele><time>2026-04-23T12:07:01.327Z</time></trkpt><trkpt lat="45.7547783" lon="11.2056583"><ele>865.75</ele><time>2026-04-23T12:07:03.327Z</time></trkpt><trkpt lat="45.7547617" lon="11.2054167"><ele>873.5</ele><time>2026-04-23T12:07:05.327Z</time></trkpt><trkpt lat="45.75473" lon="11.205335"><ele>881.25</ele><time>2026-04-23T12:07:06.327Z</time></trkpt><trkpt lat="45.7547517" lon="11.2051333"><ele>889.0</ele><time>2026-04-23T12:07:07.327Z</time></trkpt><trkpt lat="45.7547" lon="11.20502"><ele>889.0</ele><time>2026-04-23T12:07:09.327Z</time></trkpt><trkpt lat="45.75466" lon="11.20492"><ele>889.0000000000001</ele><time>2026-04-23T12:07:11.327Z</time></trkpt><trkpt lat="45.7546267" lon="11.20478"><ele>889.0000000000001</ele><time>2026-04-23T12:07:13.327Z</time></trkpt><trkpt lat="45.7545383" lon="11.204775"><ele>889.0</ele><time>2026-04-23T12:07:16.328Z</time></trkpt><trkpt lat="45.7544567" lon="11.2048017"><ele>889.0</ele><time>2026-04-23T12:07:18.327Z</time></trkpt><trkpt lat="45.754355" lon="11.2050483"><ele>887.2</ele><time>2026-04-23T12:07:19.328Z</time></trkpt><trkpt lat="45.7543033" lon="11.2051433"><ele>885.4000000000001</ele><time>2026-04-23T12:07:20.328Z</time></trkpt><trkpt lat="45.75426" lon="11.20525"><ele>883.6</ele><time>2026-04-23T12:07:21.328Z</time></trkpt><trkpt lat="45.7541917" lon="11.2053817"><ele>881.8</ele><time>2026-04-23T12:07:22.328Z</time></trkpt><trkpt lat="45.7541" lon="11.2055233"><ele>880.0</ele><time>2026-04-23T12:07:24.327Z</time></trkpt><trkpt lat="45.754035" lon="11.205605"><ele>874.3333333333333</ele><time>2026-04-23T12:07:25.327Z</time></trkpt><trkpt lat="45.7539817" lon="11.2056983"><ele>868.6666666666666</ele><time>2026-04-23T12:07:26.327Z</time></trkpt><trkpt lat="45.7539267" lon="11.20576"><ele>863.0</ele><time>2026-04-23T12:07:27.327Z</time></trkpt><trkpt lat="45.7538467" lon="11.20581"><ele>857.3333333333333</ele><time>2026-04-23T12:07:28.327Z</time></trkpt><trkpt lat="45.7537833" lon="11.20587"><ele>851.6666666666666</ele><time>2026-04-23T12:07:29.326Z</time></trkpt><trkpt lat="45.7537133" lon="11.20596"><ele>846.0</ele><time>2026-04-23T12:07:30.326Z</time></trkpt><trkpt lat="45.7536517" lon="11.206025"><ele>846.0</ele><time>2026-04-23T12:07:31.326Z</time></trkpt><trkpt lat="45.7535983" lon="11.2060933"><ele>846.0</ele><time>2026-04-23T12:07:32.326Z</time></trkpt><trkpt lat="45.7535233" lon="11.2061883"><ele>846.0</ele><time>2026-04-23T12:07:33.326Z</time></trkpt><trkpt lat="45.7534583" lon="11.2062533"><ele>846.0</ele><time>2026-04-23T12:07:34.326Z</time></trkpt><trkpt lat="45.7533917" lon="11.20631"><ele>846.0</ele><time>2026-04-23T12:07:35.327Z</time></trkpt><trkpt lat="45.7533233" lon="11.2063717"><ele>846.0</ele><time>2026-04-23T12:07:36.327Z</time></trkpt><trkpt lat="45.7532483" lon="11.206425"><ele>848.5999999999999</ele><time>2026-04-23T12:07:37.327Z</time></trkpt><trkpt lat="45.75316" lon="11.2064433"><ele>851.2</ele><time>2026-04-23T12:07:38.327Z</time></trkpt><trkpt lat="45.7530817" lon="11.2064733"><ele>853.8000000000001</ele><time>2026-04-23T12:07:39.327Z</time></trkpt><trkpt lat="45.7530167" lon="11.2065033"><ele>856.4000000000001</ele><time>2026-04-23T12:07:40.326Z</time></trkpt><trkpt lat="45.7528833" lon="11.2066033"><ele>859.0</ele><time>2026-04-23T12:07:43.326Z</time></trkpt><trkpt lat="45.75278" lon="11.206685"><ele>859.0</ele><time>2026-04-23T12:07:45.326Z</time></trkpt><trkpt lat="45.7528683" lon="11.2067133"><ele>859.0000000000001</ele><time>2026-04-23T12:07:51.326Z</time></trkpt><trkpt lat="45.7529567" lon="11.2066583"><ele>859.0000000000001</ele><time>2026-04-23T12:07:53.326Z</time></trkpt><trkpt lat="45.7530117" lon="11.2065567"><ele>859.0</ele><time>2026-04-23T12:07:54.326Z</time></trkpt><trkpt lat="45.7531317" lon="11.206425"><ele>859.0</ele><time>2026-04-23T12:07:56.326Z</time></trkpt><trkpt lat="45.7532133" lon="11.206195"><ele>865.3333333333333</ele><time>2026-04-23T12:07:57.326Z</time></trkpt><trkpt lat="45.7532867" lon="11.205925"><ele>871.6666666666667</ele><time>2026-04-23T12:07:58.326Z</time></trkpt><trkpt lat="45.75335" lon="11.20577"><ele>878.0</ele><time>2026-04-23T12:08:00.326Z</time></trkpt><trkpt lat="45.7533683" lon="11.2055867"><ele>882.5000000000001</ele><time>2026-04-23T12:08:02.326Z</time></trkpt><trkpt lat="45.7533683" lon="11.20547"><ele>887.0</ele><time>2026-04-23T12:08:03.326Z</time></trkpt><trkpt lat="45.7533767" lon="11.205365"><ele>891.5</ele><time>2026-04-23T12:08:04.326Z</time></trkpt><trkpt lat="45.7533783" lon="11.205265"><ele>896.0</ele><time>2026-04-23T12:08:05.326Z</time></trkpt><trkpt lat="45.7533983" lon="11.20514"><ele>900.5000000000001</ele><time>2026-04-23T12:08:06.327Z</time></trkpt><trkpt lat="45.7534183" lon="11.2049983"><ele>905.0</ele><time>2026-04-23T12:08:07.327Z</time></trkpt><trkpt lat="45.7534283" lon="11.204875"><ele>906.8</ele><time>2026-04-23T12:08:08.326Z</time></trkpt><trkpt lat="45.7534467" lon="11.2047483"><ele>908.6</ele><time>2026-04-23T12:08:09.326Z</time></trkpt><trkpt lat="45.7534867" lon="11.2045833"><ele>910.4000000000001</ele><time>2026-04-23T12:08:10.326Z</time></trkpt><trkpt lat="45.7535183" lon="11.2044783"><ele>912.2</ele><time>2026-04-23T12:08:11.326Z</time></trkpt><trkpt lat="45.7535767" lon="11.20431"><ele>914.0</ele><time>2026-04-23T12:08:12.326Z</time></trkpt><trkpt lat="45.7536317" lon="11.204225"><ele>914.0</ele><time>2026-04-23T12:08:13.326Z</time></trkpt><trkpt lat="45.7536583" lon="11.2040867"><ele>914.0000000000001</ele><time>2026-04-23T12:08:14.326Z</time></trkpt><trkpt lat="45.75371" lon="11.2039483"><ele>914.0000000000001</ele><time>2026-04-23T12:08:16.327Z</time></trkpt><trkpt lat="45.753725" lon="11.2037967"><ele>914.0</ele><time>2026-04-23T12:08:18.326Z</time></trkpt><trkpt lat="45.7537517" lon="11.2036567"><ele>914.0</ele><time>2026-04-23T12:08:21.326Z</time></trkpt><trkpt lat="45.7538067" lon="11.2035433"><ele>920.8000000000001</ele><time>2026-04-23T12:08:23.326Z</time></trkpt><trkpt lat="45.7538733" lon="11.2034417"><ele>927.6000000000001</ele><time>2026-04-23T12:08:25.327Z</time></trkpt><trkpt lat="45.7540033" lon="11.2033267"><ele>934.4</ele><time>2026-04-23T12:08:27.326Z</time></trkpt><trkpt lat="45.75409" lon="11.2032683"><ele>941.2</ele><time>2026-04-23T12:08:28.326Z</time></trkpt><trkpt lat="45.7541567" lon="11.2032633"><ele>948.0</ele><time>2026-04-23T12:08:29.326Z</time></trkpt><trkpt lat="45.7542533" lon="11.20326"><ele>948.0</ele><time>2026-04-23T12:08:30.326Z</time></trkpt><trkpt lat="45.7543367" lon="11.2032317"><ele>948.0</ele><time>2026-04-23T12:08:31.327Z</time></trkpt><trkpt lat="45.7544217" lon="11.2032217"><ele>948.0</ele><time>2026-04-23T12:08:32.326Z</time></trkpt><trkpt lat="45.7545083" lon="11.2032533"><ele>948.0</ele><time>2026-04-23T12:08:33.326Z</time></trkpt><trkpt lat="45.7545667" lon="11.2032917"><ele>948.0</ele><time>2026-04-23T12:08:34.326Z</time></trkpt><trkpt lat="45.7546333" lon="11.2033367"><ele>948.0</ele><time>2026-04-23T12:08:35.326Z</time></trkpt><trkpt lat="45.7547417" lon="11.2033683"><ele>946.5</ele><time>2026-04-23T12:08:36.326Z</time></trkpt><trkpt lat="45.7547433" lon="11.2032717"><ele>945.0</ele><time>2026-04-23T12:08:40.326Z</time></trkpt><trkpt lat="45.7546767" lon="11.2031883"><ele>943.5</ele><time>2026-04-23T12:08:42.326Z</time></trkpt><trkpt lat="45.7546367" lon="11.2031133"><ele>942.0</ele><time>2026-04-23T12:08:43.326Z</time></trkpt><trkpt lat="45.7545617" lon="11.2030817"><ele>940.5</ele><time>2026-04-23T12:08:44.326Z</time></trkpt><trkpt lat="45.7545067" lon="11.203015"><ele>939.0</ele><time>2026-04-23T12:08:45.327Z</time></trkpt><trkpt lat="45.7544533" lon="11.2028933"><ele>942.5</ele><time>2026-04-23T12:08:47.326Z</time></trkpt><trkpt lat="45.7545" lon="11.20277"><ele>946.0</ele><time>2026-04-23T12:08:48.326Z</time></trkpt><trkpt lat="45.7545917" lon="11.2027417"><ele>949.5</ele><time>2026-04-23T12:08:52.327Z</time></trkpt><trkpt lat="45.7546533" lon="11.2028317"><ele>953.0</ele><time>2026-04-23T12:08:54.326Z</time></trkpt><trkpt lat="45.754695" lon="11.2029317"><ele>956.5</ele><time>2026-04-23T12:08:56.327Z</time></trkpt><trkpt lat="45.7546383" lon="11.2028433"><ele>960.0</ele><time>2026-04-23T12:09:01.326Z</time></trkpt><trkpt lat="45.7545417" lon="11.2027267"><ele>960.0</ele><time>2026-04-23T12:09:03.326Z</time></trkpt><trkpt lat="45.7544683" lon="11.2027117"><ele>960.0</ele><time>2026-04-23T12:09:04.326Z</time></trkpt><trkpt lat="45.7543783" lon="11.20265"><ele>960.0</ele><time>2026-04-23T12:09:06.326Z</time></trkpt><trkpt lat="45.7543317" lon="11.2025767"><ele>960.0</ele><time>2026-04-23T12:09:08.327Z</time></trkpt><trkpt lat="45.7544917" lon="11.2025817"><ele>960.0</ele><time>2026-04-23T12:09:10.327Z</time></trkpt><trkpt lat="45.754635" lon="11.202515"><ele>960.0</ele><time>2026-04-23T12:09:12.326Z</time></trkpt><trkpt lat="45.7547133" lon="11.202485"><ele>960.0</ele><time>2026-04-23T12:09:14.326Z</time></trkpt><trkpt lat="45.7546483" lon="11.202525"><ele>960.0</ele><time>2026-04-23T12:09:15.327Z</time></trkpt><trkpt lat="45.7545783" lon="11.202445"><ele>960.0</ele><time>2026-04-23T12:09:17.327Z</time></trkpt><trkpt lat="45.7545217" lon="11.2024017"><ele>960.0</ele><time>2026-04-23T12:09:18.327Z</time></trkpt><trkpt lat="45.7544367" lon="11.2023133"><ele>960.0</ele><time>2026-04-23T12:09:20.326Z</time></trkpt><trkpt lat="45.7545667" lon="11.2021917"><ele>964.0</ele><time>2026-04-23T12:09:25.326Z</time></trkpt><trkpt lat="45.75467" lon="11.2021117"><ele>968.0</ele><time>2026-04-23T12:09:27.326Z</time></trkpt><trkpt lat="45.7547633" lon="11.20205"><ele>972.0</ele><time>2026-04-23T12:09:29.327Z</time></trkpt><trkpt lat="45.7548717" lon="11.2019483"><ele>976.0</ele><time>2026-04-23T12:09:31.326Z</time></trkpt><trkpt lat="45.75492" lon="11.2018883"><ele>980.0</ele><time>2026-04-23T12:09:32.326Z</time></trkpt><trkpt lat="45.7549833" lon="11.201685"><ele>986.5</ele><time>2026-04-23T12:09:33.326Z</time></trkpt><trkpt lat="45.755035" lon="11.2014583"><ele>993.0</ele><time>2026-04-23T12:09:34.326Z</time></trkpt><trkpt lat="45.75507" lon="11.20134"><ele>999.5</ele><time>2026-04-23T12:09:35.326Z</time></trkpt><trkpt lat="45.7551183" lon="11.2012"><ele>1006.0</ele><time>2026-04-23T12:09:36.327Z</time></trkpt><trkpt lat="45.7551817" lon="11.2010017"><ele>1005.9999999999999</ele><time>2026-04-23T12:09:37.326Z</time></trkpt><trkpt lat="45.7552" lon="11.2008767"><ele>1006.0</ele><time>2026-04-23T12:09:38.327Z</time></trkpt><trkpt lat="45.7552283" lon="11.20078"><ele>1006.0</ele><time>2026-04-23T12:09:39.326Z</time></trkpt><trkpt lat="45.7552517" lon="11.2006817"><ele>1006.0</ele><time>2026-04-23T12:09:40.326Z</time></trkpt><trkpt lat="45.7552583" lon="11.2005217"><ele>1005.9999999999999</ele><time>2026-04-23T12:09:42.326Z</time></trkpt><trkpt lat="45.7552833" lon="11.20041"><ele>1006.0</ele><time>2026-04-23T12:09:43.327Z</time></trkpt><trkpt lat="45.7553183" lon="11.2002667"><ele>1010.5999999999999</ele><time>2026-04-23T12:09:44.327Z</time></trkpt><trkpt lat="45.75534" lon="11.200145"><ele>1015.1999999999999</ele><time>2026-04-23T12:09:45.326Z</time></trkpt><trkpt lat="45.75536" lon="11.1999633"><ele>1019.8000000000001</ele><time>2026-04-23T12:09:47.327Z</time></trkpt><trkpt lat="45.7553917" lon="11.1998183"><ele>1024.4</ele><time>2026-04-23T12:09:49.326Z</time></trkpt><trkpt lat="45.7554283" lon="11.1997017"><ele>1029.0</ele><time>2026-04-23T12:09:51.327Z</time></trkpt><trkpt lat="45.755485" lon="11.199625"><ele>1029.0</ele><time>2026-04-23T12:09:52.326Z</time></trkpt><trkpt lat="45.7555667" lon="11.1997383"><ele>1029.0</ele><time>2026-04-23T12:09:53.327Z</time></trkpt><trkpt lat="45.755675" lon="11.19976"><ele>1029.0</ele><time>2026-04-23T12:09:54.326Z</time></trkpt><trkpt lat="45.7557083" lon="11.1998667"><ele>1029.0</ele><time>2026-04-23T12:09:55.326Z</time></trkpt><trkpt lat="45.7558833" lon="11.1998733"><ele>1029.0</ele><time>2026-04-23T12:09:56.326Z</time></trkpt><trkpt lat="45.7559883" lon="11.199925"><ele>1029.0</ele><time>2026-04-23T12:09:58.327Z</time></trkpt><trkpt lat="45.7560533" lon="11.1999383"><ele>1029.0</ele><time>2026-04-23T12:09:59.326Z</time></trkpt><trkpt lat="45.7562" lon="11.1998783"><ele>1029.0</ele><time>2026-04-23T12:10:01.326Z</time></trkpt><trkpt lat="45.7562683" lon="11.1997983"><ele>1029.0</ele><time>2026-04-23T12:10:02.326Z</time></trkpt><trkpt lat="45.7563633" lon="11.1997017"><ele>1039.5</ele><time>2026-04-23T12:10:03.327Z</time></trkpt><trkpt lat="45.7564467" lon="11.1995933"><ele>1050.0</ele><time>2026-04-23T12:10:04.326Z</time></trkpt><trkpt lat="45.7565067" lon="11.1994317"><ele>1060.5</ele><time>2026-04-23T12:10:05.326Z</time></trkpt><trkpt lat="45.7565883" lon="11.1992933"><ele>1071.0</ele><time>2026-04-23T12:10:06.327Z</time></trkpt><trkpt lat="45.7566783" lon="11.1992483"><ele>1071.0</ele><time>2026-04-23T12:10:09.326Z</time></trkpt><trkpt lat="45.7566933" lon="11.199345"><ele>1071.0</ele><time>2026-04-23T12:10:10.326Z</time></trkpt><trkpt lat="45.7568083" lon="11.199385"><ele>1071.0</ele><time>2026-04-23T12:10:12.326Z</time></trkpt><trkpt lat="45.7568367" lon="11.199595"><ele>1071.0</ele><time>2026-04-23T12:10:13.327Z</time></trkpt><trkpt lat="45.7568883" lon="11.199685"><ele>1071.0</ele><time>2026-04-23T12:10:14.326Z</time></trkpt><trkpt lat="45.75698" lon="11.1995367"><ele>1068.2</ele><time>2026-04-23T12:10:15.326Z</time></trkpt><trkpt lat="45.75702" lon="11.199725"><ele>1065.3999999999999</ele><time>2026-04-23T12:10:17.327Z</time></trkpt><trkpt lat="45.7571333" lon="11.1997817"><ele>1062.6</ele><time>2026-04-23T12:10:18.326Z</time></trkpt><trkpt lat="45.7572133" lon="11.1998233"><ele>1059.8</ele><time>2026-04-23T12:10:19.326Z</time></trkpt><trkpt lat="45.7572717" lon="11.19988"><ele>1057.0</ele><time>2026-04-23T12:10:20.326Z</time></trkpt><trkpt lat="45.7573433" lon="11.1998667"><ele>1057.0</ele><time>2026-04-23T12:10:21.326Z</time></trkpt><trkpt lat="45.7574567" lon="11.1998167"><ele>1057.0</ele><time>2026-04-23T12:10:23.325Z</time></trkpt><trkpt lat="45.7573917" lon="11.1997583"><ele>1057.0</ele><time>2026-04-23T12:10:28.325Z</time></trkpt><trkpt lat="45.7573683" lon="11.19967"><ele>1057.0</ele><time>2026-04-23T12:10:30.325Z</time></trkpt><trkpt lat="45.7573267" lon="11.199585"><ele>1057.0</ele><time>2026-04-23T12:10:32.326Z</time></trkpt><trkpt lat="45.7572733" lon="11.199535"><ele>1057.0</ele><time>2026-04-23T12:10:34.326Z</time></trkpt><trkpt lat="45.7572017" lon="11.199415"><ele>1057.0</ele><time>2026-04-23T12:10:35.325Z</time></trkpt><trkpt lat="45.757195" lon="11.1992333"><ele>1057.0</ele><time>2026-04-23T12:10:36.325Z</time></trkpt><trkpt lat="45.7571083" lon="11.199205"><ele>1057.0</ele><time>2026-04-23T12:10:37.325Z</time></trkpt><trkpt lat="45.7570633" lon="11.1990883"><ele>1057.0</ele><time>2026-04-23T12:10:38.325Z</time></trkpt><trkpt lat="45.7569767" lon="11.1990633"><ele>1057.0</ele><time>2026-04-23T12:10:39.326Z</time></trkpt><trkpt lat="45.7569167" lon="11.1989433"><ele>1060.5</ele><time>2026-04-23T12:10:40.325Z</time></trkpt><trkpt lat="45.7569433" lon="11.1985067"><ele>1064.0</ele><time>2026-04-23T12:10:41.325Z</time></trkpt><trkpt lat="45.7569367" lon="11.198195"><ele>1068.2</ele><time>2026-04-23T12:10:42.326Z</time></trkpt><trkpt lat="45.7568667" lon="11.1981033"><ele>1072.4</ele><time>2026-04-23T12:10:43.325Z</time></trkpt><trkpt lat="45.7568067" lon="11.1980533"><ele>1076.6</ele><time>2026-04-23T12:10:44.326Z</time></trkpt><trkpt lat="45.7567267" lon="11.1979567"><ele>1080.8</ele><time>2026-04-23T12:10:45.325Z</time></trkpt><trkpt lat="45.7566983" lon="11.1978517"><ele>1085.0</ele><time>2026-04-23T12:10:46.325Z</time></trkpt><trkpt lat="45.7566267" lon="11.1977317"><ele>1085.0</ele><time>2026-04-23T12:10:48.326Z</time></trkpt><trkpt lat="45.7566117" lon="11.1976283"><ele>1085.0</ele><time>2026-04-23T12:10:49.326Z</time></trkpt><trkpt lat="45.7565783" lon="11.1975133"><ele>1085.0</ele><time>2026-04-23T12:10:50.325Z</time></trkpt><trkpt lat="45.756605" lon="11.1972217"><ele>1085.0</ele><time>2026-04-23T12:10:51.325Z</time></trkpt><trkpt lat="45.7565117" lon="11.19715"><ele>1083.8</ele><time>2026-04-23T12:10:53.325Z</time></trkpt><trkpt lat="45.7564183" lon="11.1970633"><ele>1082.6</ele><time>2026-04-23T12:10:55.325Z</time></trkpt><trkpt lat="45.7563367" lon="11.197035"><ele>1081.4</ele><time>2026-04-23T12:10:56.325Z</time></trkpt><trkpt lat="45.7562583" lon="11.1969917"><ele>1080.2</ele><time>2026-04-23T12:10:57.325Z</time></trkpt><trkpt lat="45.7561967" lon="11.1969017"><ele>1079.0</ele><time>2026-04-23T12:10:58.325Z</time></trkpt><trkpt lat="45.7561017" lon="11.19685"><ele>1079.0</ele><time>2026-04-23T12:10:59.325Z</time></trkpt><trkpt lat="45.7560383" lon="11.1966833"><ele>1079.0</ele><time>2026-04-23T12:11:00.325Z</time></trkpt><trkpt lat="45.7559683" lon="11.1966433"><ele>1079.0</ele><time>2026-04-23T12:11:01.326Z</time></trkpt><trkpt lat="45.7558833" lon="11.1966533"><ele>1079.0</ele><time>2026-04-23T12:11:02.325Z</time></trkpt><trkpt lat="45.75578" lon="11.1967083"><ele>1079.0</ele><time>2026-04-23T12:11:03.325Z</time></trkpt><trkpt lat="45.7557033" lon="11.19676"><ele>1079.8333333333335</ele><time>2026-04-23T12:11:04.326Z</time></trkpt><trkpt lat="45.75563" lon="11.19682"><ele>1080.6666666666667</ele><time>2026-04-23T12:11:05.325Z</time></trkpt><trkpt lat="45.755555" lon="11.19686"><ele>1081.5</ele><time>2026-04-23T12:11:06.325Z</time></trkpt><trkpt lat="45.755485" lon="11.1969083"><ele>1082.3333333333333</ele><time>2026-04-23T12:11:07.325Z</time></trkpt><trkpt lat="45.7554133" lon="11.1969317"><ele>1083.1666666666665</ele><time>2026-04-23T12:11:10.325Z</time></trkpt><trkpt lat="45.7553383" lon="11.1969917"><ele>1084.0</ele><time>2026-04-23T12:13:53.324Z</time></trkpt><trkpt lat="45.7550867" lon="11.1976917"><ele>1084.0</ele><time>2026-04-23T12:14:01.324Z</time></trkpt><trkpt lat="45.7550017" lon="11.1978967"><ele>1084.0</ele><time>2026-04-23T12:14:03.324Z</time></trkpt><trkpt lat="45.75493" lon="11.1980017"><ele>1084.0</ele><time>2026-04-23T12:14:21.324Z</time></trkpt><trkpt lat="45.75486" lon="11.1980933"><ele>1084.0</ele><time>2026-04-23T12:15:26.324Z</time></trkpt><trkpt lat="45.754795" lon="11.1981167"><ele>1084.0</ele><time>2026-04-23T12:15:28.325Z</time></trkpt><trkpt lat="45.7546833" lon="11.19815"><ele>1081.0</ele><time>2026-04-23T12:15:30.325Z</time></trkpt><trkpt lat="45.75456" lon="11.1981933"><ele>1078.0</ele><time>2026-04-23T12:15:32.324Z</time></trkpt><trkpt lat="45.754495" lon="11.1982233"><ele>1075.0</ele><time>2026-04-23T12:15:33.324Z</time></trkpt><trkpt lat="45.7544317" lon="11.19825"><ele>1072.0</ele><time>2026-04-23T12:15:34.324Z</time></trkpt><trkpt lat="45.75437" lon="11.1982833"><ele>1069.0</ele><time>2026-04-23T12:15:35.324Z</time></trkpt><trkpt lat="45.754245" lon="11.1983233"><ele>1066.8333333333333</ele><time>2026-04-23T12:15:37.324Z</time></trkpt><trkpt lat="45.7541783" lon="11.1983467"><ele>1064.6666666666665</ele><time>2026-04-23T12:15:38.324Z</time></trkpt><trkpt lat="45.754115" lon="11.198375"><ele>1062.5</ele><time>2026-04-23T12:15:39.324Z</time></trkpt><trkpt lat="45.754025" lon="11.1984183"><ele>1060.3333333333333</ele><time>2026-04-23T12:15:41.324Z</time></trkpt><trkpt lat="45.7541517" lon="11.1984133"><ele>1058.1666666666667</ele><time>2026-04-23T12:15:45.325Z</time></trkpt><trkpt lat="45.754215" lon="11.1984117"><ele>1056.0</ele><time>2026-04-23T12:15:46.325Z</time></trkpt><trkpt lat="45.7543367" lon="11.19838"><ele>1058.6</ele><time>2026-04-23T12:15:48.324Z</time></trkpt><trkpt lat="45.754445" lon="11.1983033"><ele>1061.1999999999998</ele><time>2026-04-23T12:15:50.324Z</time></trkpt><trkpt lat="45.7544933" lon="11.1982317"><ele>1063.8000000000002</ele><time>2026-04-23T12:15:51.325Z</time></trkpt><trkpt lat="45.75452" lon="11.1981283"><ele>1066.4</ele><time>2026-04-23T12:15:52.324Z</time></trkpt><trkpt lat="45.7545233" lon="11.1980017"><ele>1069.0</ele><time>2026-04-23T12:15:53.324Z</time></trkpt><trkpt lat="45.7545183" lon="11.1978633"><ele>1070.6666666666665</ele><time>2026-04-23T12:15:54.324Z</time></trkpt><trkpt lat="45.7545167" lon="11.1977417"><ele>1072.3333333333333</ele><time>2026-04-23T12:15:55.324Z</time></trkpt><trkpt lat="45.7545083" lon="11.1976033"><ele>1074.0</ele><time>2026-04-23T12:15:56.324Z</time></trkpt><trkpt lat="45.7544767" lon="11.1974917"><ele>1075.6666666666667</ele><time>2026-04-23T12:15:57.324Z</time></trkpt><trkpt lat="45.75442" lon="11.1973933"><ele>1077.3333333333335</ele><time>2026-04-23T12:15:58.324Z</time></trkpt><trkpt lat="45.754365" lon="11.1973133"><ele>1079.0</ele><time>2026-04-23T12:15:59.324Z</time></trkpt><trkpt lat="45.7543" lon="11.1972367"><ele>1079.0</ele><time>2026-04-23T12:16:00.324Z</time></trkpt><trkpt lat="45.7541833" lon="11.19718"><ele>1079.0</ele><time>2026-04-23T12:16:01.324Z</time></trkpt><trkpt lat="45.7540567" lon="11.1971417"><ele>1079.0</ele><time>2026-04-23T12:16:02.324Z</time></trkpt><trkpt lat="45.7539383" lon="11.1971933"><ele>1079.0</ele><time>2026-04-23T12:16:03.324Z</time></trkpt><trkpt lat="45.7538433" lon="11.1972233"><ele>1079.0</ele><time>2026-04-23T12:16:04.324Z</time></trkpt><trkpt lat="45.7537633" lon="11.197225"><ele>1079.0</ele><time>2026-04-23T12:16:05.324Z</time></trkpt><trkpt lat="45.7536817" lon="11.1972117"><ele>1079.0</ele><time>2026-04-23T12:16:06.325Z</time></trkpt><trkpt lat="45.7535967" lon="11.1971717"><ele>1079.0</ele><time>2026-04-23T12:16:07.324Z</time></trkpt><trkpt lat="45.75352" lon="11.1971133"><ele>1079.0</ele><time>2026-04-23T12:16:08.325Z</time></trkpt><trkpt lat="45.75343" lon="11.1970817"><ele>1079.0</ele><time>2026-04-23T12:16:09.324Z</time></trkpt><trkpt lat="45.7533583" lon="11.1970617"><ele>1074.8333333333335</ele><time>2026-04-23T12:16:10.324Z</time></trkpt><trkpt lat="45.7532983" lon="11.1970267"><ele>1070.6666666666667</ele><time>2026-04-23T12:16:11.324Z</time></trkpt><trkpt lat="45.75324" lon="11.196985"><ele>1066.5</ele><time>2026-04-23T12:16:12.324Z</time></trkpt><trkpt lat="45.7531717" lon="11.1969267"><ele>1062.3333333333333</ele><time>2026-04-23T12:16:13.325Z</time></trkpt><trkpt lat="45.7530967" lon="11.196845"><ele>1058.1666666666665</ele><time>2026-04-23T12:16:14.325Z</time></trkpt><trkpt lat="45.75302" lon="11.1967617"><ele>1054.0</ele><time>2026-04-23T12:16:15.324Z</time></trkpt><trkpt lat="45.7529367" lon="11.1966983"><ele>1054.0</ele><time>2026-04-23T12:16:16.324Z</time></trkpt><trkpt lat="45.75285" lon="11.1966483"><ele>1054.0</ele><time>2026-04-23T12:16:17.325Z</time></trkpt><trkpt lat="45.752765" lon="11.1965967"><ele>1054.0</ele><time>2026-04-23T12:16:18.324Z</time></trkpt><trkpt lat="45.7526833" lon="11.1965567"><ele>1054.0</ele><time>2026-04-23T12:16:19.324Z</time></trkpt><trkpt lat="45.7526067" lon="11.1965183"><ele>1054.0</ele><time>2026-04-23T12:16:20.324Z</time></trkpt><trkpt lat="45.7525267" lon="11.19648"><ele>1054.0</ele><time>2026-04-23T12:16:21.325Z</time></trkpt><trkpt lat="45.75243" lon="11.196445"><ele>1056.8333333333333</ele><time>2026-04-23T12:16:22.324Z</time></trkpt><trkpt lat="45.752345" lon="11.19643"><ele>1059.6666666666665</ele><time>2026-04-23T12:16:23.324Z</time></trkpt><trkpt lat="45.75225" lon="11.1964417"><ele>1062.5</ele><time>2026-04-23T12:16:24.325Z</time></trkpt><trkpt lat="45.7521617" lon="11.1964783"><ele>1065.3333333333333</ele><time>2026-04-23T12:16:25.325Z</time></trkpt><trkpt lat="45.7520817" lon="11.19653"><ele>1068.1666666666667</ele><time>2026-04-23T12:16:26.324Z</time></trkpt><trkpt lat="45.7520083" lon="11.1965683"><ele>1071.0</ele><time>2026-04-23T12:16:27.324Z</time></trkpt><trkpt lat="45.7518883" lon="11.19657"><ele>1066.8</ele><time>2026-04-23T12:16:29.324Z</time></trkpt><trkpt lat="45.75178" lon="11.1964583"><ele>1062.6</ele><time>2026-04-23T12:16:31.325Z</time></trkpt><trkpt lat="45.7517" lon="11.196385"><ele>1058.4</ele><time>2026-04-23T12:16:32.324Z</time></trkpt><trkpt lat="45.75161" lon="11.1963333"><ele>1054.2</ele><time>2026-04-23T12:16:33.324Z</time></trkpt><trkpt lat="45.751505" lon="11.19629"><ele>1050.0</ele><time>2026-04-23T12:16:34.324Z</time></trkpt><trkpt lat="45.7514033" lon="11.1963"><ele>1050.0</ele><time>2026-04-23T12:16:35.325Z</time></trkpt><trkpt lat="45.7513183" lon="11.1962717"><ele>1050.0</ele><time>2026-04-23T12:16:36.324Z</time></trkpt><trkpt lat="45.7512467" lon="11.1962567"><ele>1050.0</ele><time>2026-04-23T12:16:37.324Z</time></trkpt><trkpt lat="45.7511817" lon="11.1962317"><ele>1050.0</ele><time>2026-04-23T12:16:39.325Z</time></trkpt><trkpt lat="45.7511167" lon="11.1962417"><ele>1050.0</ele><time>2026-04-23T12:16:41.324Z</time></trkpt><trkpt lat="45.7510183" lon="11.19626"><ele>1050.0</ele><time>2026-04-23T12:17:25.323Z</time></trkpt><trkpt lat="45.7509133" lon="11.1961567"><ele>1051.4</ele><time>2026-04-23T12:17:27.323Z</time></trkpt><trkpt lat="45.7508467" lon="11.1960617"><ele>1052.8</ele><time>2026-04-23T12:17:28.323Z</time></trkpt><trkpt lat="45.75078" lon="11.195965"><ele>1054.2</ele><time>2026-04-23T12:17:29.323Z</time></trkpt><trkpt lat="45.750715" lon="11.195845"><ele>1055.6</ele><time>2026-04-23T12:17:30.323Z</time></trkpt><trkpt lat="45.750665" lon="11.195705"><ele>1057.0</ele><time>2026-04-23T12:17:31.324Z</time></trkpt><trkpt lat="45.7506067" lon="11.1955817"><ele>1057.0</ele><time>2026-04-23T12:17:32.324Z</time></trkpt><trkpt lat="45.75054" lon="11.1954917"><ele>1057.0</ele><time>2026-04-23T12:17:33.323Z</time></trkpt><trkpt lat="45.750475" lon="11.195395"><ele>1057.0</ele><time>2026-04-23T12:17:34.323Z</time></trkpt><trkpt lat="45.7504083" lon="11.1953017"><ele>1057.0</ele><time>2026-04-23T12:17:35.323Z</time></trkpt><trkpt lat="45.7503483" lon="11.1951967"><ele>1057.0</ele><time>2026-04-23T12:17:36.324Z</time></trkpt><trkpt lat="45.7502817" lon="11.1950817"><ele>1057.0</ele><time>2026-04-23T12:17:37.324Z</time></trkpt><trkpt lat="45.7502233" lon="11.1949683"><ele>1057.0</ele><time>2026-04-23T12:17:38.324Z</time></trkpt><trkpt lat="45.75016" lon="11.1948867"><ele>1057.0</ele><time>2026-04-23T12:17:39.323Z</time></trkpt><trkpt lat="45.7501117" lon="11.1948133"><ele>1057.0</ele><time>2026-04-23T12:17:40.323Z</time></trkpt><trkpt lat="45.750035" lon="11.1946883"><ele>1057.0</ele><time>2026-04-23T12:17:42.323Z</time></trkpt><trkpt lat="45.749955" lon="11.194675"><ele>1058.0</ele><time>2026-04-23T12:17:55.324Z</time></trkpt><trkpt lat="45.7498867" lon="11.1946767"><ele>1059.0</ele><time>2026-04-23T12:17:56.323Z</time></trkpt><trkpt lat="45.7498017" lon="11.19468"><ele>1060.0</ele><time>2026-04-23T12:17:57.323Z</time></trkpt><trkpt lat="45.749685" lon="11.1947083"><ele>1061.0</ele><time>2026-04-23T12:17:58.323Z</time></trkpt><trkpt lat="45.749565" lon="11.1947667"><ele>1062.0</ele><time>2026-04-23T12:17:59.323Z</time></trkpt><trkpt lat="45.7494517" lon="11.19485"><ele>1054.6</ele><time>2026-04-23T12:18:00.323Z</time></trkpt><trkpt lat="45.7493567" lon="11.194955"><ele>1047.2</ele><time>2026-04-23T12:18:01.323Z</time></trkpt><trkpt lat="45.7492833" lon="11.195045"><ele>1039.8</ele><time>2026-04-23T12:18:02.323Z</time></trkpt><trkpt lat="45.7491967" lon="11.19511"><ele>1032.4</ele><time>2026-04-23T12:18:03.324Z</time></trkpt><trkpt lat="45.7491317" lon="11.1951483"><ele>1025.0</ele><time>2026-04-23T12:18:04.323Z</time></trkpt><trkpt lat="45.7490583" lon="11.195165"><ele>1025.0</ele><time>2026-04-23T12:18:05.323Z</time></trkpt><trkpt lat="45.7489733" lon="11.1951583"><ele>1025.0</ele><time>2026-04-23T12:18:06.323Z</time></trkpt><trkpt lat="45.7488683" lon="11.1951383"><ele>1025.0</ele><time>2026-04-23T12:18:07.324Z</time></trkpt><trkpt lat="45.748745" lon="11.1950917"><ele>1025.0</ele><time>2026-04-23T12:18:08.324Z</time></trkpt><trkpt lat="45.7486267" lon="11.19506"><ele>1025.0</ele><time>2026-04-23T12:18:09.323Z</time></trkpt><trkpt lat="45.7485033" lon="11.1950417"><ele>1025.0</ele><time>2026-04-23T12:18:10.324Z</time></trkpt><trkpt lat="45.7483933" lon="11.195045"><ele>1025.0</ele><time>2026-04-23T12:18:11.324Z</time></trkpt><trkpt lat="45.7482883" lon="11.19508"><ele>1025.0</ele><time>2026-04-23T12:18:12.324Z</time></trkpt><trkpt lat="45.7481967" lon="11.19511"><ele>1025.0</ele><time>2026-04-23T12:18:13.323Z</time></trkpt><trkpt lat="45.7481017" lon="11.1951433"><ele>1025.0</ele><time>2026-04-23T12:18:14.323Z</time></trkpt><trkpt lat="45.7480067" lon="11.1951583"><ele>1025.0</ele><time>2026-04-23T12:18:15.323Z</time></trkpt><trkpt lat="45.7479067" lon="11.19516"><ele>1025.0</ele><time>2026-04-23T12:18:16.324Z</time></trkpt><trkpt lat="45.7478267" lon="11.1951817"><ele>1025.0</ele><time>2026-04-23T12:18:17.324Z</time></trkpt><trkpt lat="45.747755" lon="11.19521"><ele>1025.0</ele><time>2026-04-23T12:18:18.323Z</time></trkpt><trkpt lat="45.7476917" lon="11.1952517"><ele>1025.0</ele><time>2026-04-23T12:18:19.323Z</time></trkpt><trkpt lat="45.7476417" lon="11.19532"><ele>1025.0</ele><time>2026-04-23T12:18:20.323Z</time></trkpt><trkpt lat="45.7476133" lon="11.1954967"><ele>1022.6666666666667</ele><time>2026-04-23T12:18:22.323Z</time></trkpt><trkpt lat="45.747585" lon="11.1956133"><ele>1020.3333333333334</ele><time>2026-04-23T12:18:23.324Z</time></trkpt><trkpt lat="45.74756" lon="11.1957067"><ele>1018.0</ele><time>2026-04-23T12:18:24.323Z</time></trkpt><trkpt lat="45.7474617" lon="11.1958233"><ele>1015.6666666666667</ele><time>2026-04-23T12:18:26.323Z</time></trkpt><trkpt lat="45.74739" lon="11.1958667"><ele>1013.3333333333334</ele><time>2026-04-23T12:18:27.323Z</time></trkpt><trkpt lat="45.7473067" lon="11.1958867"><ele>1011.0</ele><time>2026-04-23T12:18:28.324Z</time></trkpt><trkpt lat="45.7472233" lon="11.19587"><ele>1011.0</ele><time>2026-04-23T12:18:29.323Z</time></trkpt><trkpt lat="45.7471317" lon="11.1958217"><ele>1011.0</ele><time>2026-04-23T12:18:30.323Z</time></trkpt><trkpt lat="45.7470483" lon="11.195785"><ele>1011.0</ele><time>2026-04-23T12:18:31.324Z</time></trkpt><trkpt lat="45.74698" lon="11.1957583"><ele>1011.0</ele><time>2026-04-23T12:18:32.323Z</time></trkpt><trkpt lat="45.7468967" lon="11.1957917"><ele>1011.0</ele><time>2026-04-23T12:18:33.323Z</time></trkpt><trkpt lat="45.7468383" lon="11.1958617"><ele>1011.0</ele><time>2026-04-23T12:18:34.323Z</time></trkpt><trkpt lat="45.7467683" lon="11.1959383"><ele>1017.25</ele><time>2026-04-23T12:18:35.324Z</time></trkpt><trkpt lat="45.7466783" lon="11.1960567"><ele>1023.5</ele><time>2026-04-23T12:18:36.324Z</time></trkpt><trkpt lat="45.746555" lon="11.19619"><ele>1029.75</ele><time>2026-04-23T12:18:37.323Z</time></trkpt><trkpt lat="45.7464217" lon="11.1963217"><ele>1036.0</ele><time>2026-04-23T12:18:38.323Z</time></trkpt><trkpt lat="45.7462767" lon="11.1964533"><ele>1030.6</ele><time>2026-04-23T12:18:39.323Z</time></trkpt><trkpt lat="45.7461567" lon="11.1965583"><ele>1025.1999999999998</ele><time>2026-04-23T12:18:40.324Z</time></trkpt><trkpt lat="45.746065" lon="11.1966433"><ele>1019.8000000000001</ele><time>2026-04-23T12:18:41.323Z</time></trkpt><trkpt lat="45.7459883" lon="11.196705"><ele>1014.4000000000001</ele><time>2026-04-23T12:18:42.324Z</time></trkpt><trkpt lat="45.7459167" lon="11.196745"><ele>1009.0</ele><time>2026-04-23T12:18:43.324Z</time></trkpt><trkpt lat="45.7458" lon="11.1967117"><ele>1009.0</ele><time>2026-04-23T12:18:45.324Z</time></trkpt><trkpt lat="45.7457367" lon="11.1966333"><ele>1009.0000000000001</ele><time>2026-04-23T12:18:46.323Z</time></trkpt><trkpt lat="45.7456667" lon="11.1965133"><ele>1009.0000000000001</ele><time>2026-04-23T12:18:47.323Z</time></trkpt><trkpt lat="45.7455817" lon="11.1963883"><ele>1009.0</ele><time>2026-04-23T12:18:48.323Z</time></trkpt><trkpt lat="45.745495" lon="11.19628"><ele>1009.0</ele><time>2026-04-23T12:18:49.323Z</time></trkpt><trkpt lat="45.7454133" lon="11.1962083"><ele>1012.4999999999999</ele><time>2026-04-23T12:18:50.323Z</time></trkpt><trkpt lat="45.745355" lon="11.1961517"><ele>1016.0</ele><time>2026-04-23T12:18:51.324Z</time></trkpt><trkpt lat="45.7453133" lon="11.1960117"><ele>1019.5</ele><time>2026-04-23T12:18:53.324Z</time></trkpt><trkpt lat="45.7453067" lon="11.1959217"><ele>1023.0</ele><time>2026-04-23T12:18:54.323Z</time></trkpt><trkpt lat="45.74531" lon="11.1958017"><ele>1026.5</ele><time>2026-04-23T12:18:55.323Z</time></trkpt><trkpt lat="45.7453233" lon="11.1956367"><ele>1030.0</ele><time>2026-04-23T12:18:56.323Z</time></trkpt><trkpt lat="45.7453333" lon="11.19546"><ele>1027.0</ele><time>2026-04-23T12:18:57.323Z</time></trkpt><trkpt lat="45.7453217" lon="11.195265"><ele>1024.0</ele><time>2026-04-23T12:18:58.323Z</time></trkpt><trkpt lat="45.74528" lon="11.195085"><ele>1021.0</ele><time>2026-04-23T12:18:59.323Z</time></trkpt><trkpt lat="45.7452217" lon="11.194895"><ele>1018.0</ele><time>2026-04-23T12:19:00.324Z</time></trkpt><trkpt lat="45.7451667" lon="11.194715"><ele>1018.0</ele><time>2026-04-23T12:19:01.323Z</time></trkpt><trkpt lat="45.7451033" lon="11.1945467"><ele>1018.0</ele><time>2026-04-23T12:19:02.323Z</time></trkpt><trkpt lat="45.74505" lon="11.194395"><ele>1018.0</ele><time>2026-04-23T12:19:03.324Z</time></trkpt><trkpt lat="45.7450083" lon="11.1942633"><ele>1018.0</ele><time>2026-04-23T12:19:04.324Z</time></trkpt><trkpt lat="45.7449733" lon="11.1941283"><ele>1021.4999999999999</ele><time>2026-04-23T12:19:05.324Z</time></trkpt><trkpt lat="45.7449383" lon="11.1939983"><ele>1025.0</ele><time>2026-04-23T12:19:06.323Z</time></trkpt><trkpt lat="45.74491" lon="11.1938883"><ele>1028.5</ele><time>2026-04-23T12:19:07.324Z</time></trkpt><trkpt lat="45.74488" lon="11.1937967"><ele>1032.0</ele><time>2026-04-23T12:19:08.323Z</time></trkpt><trkpt lat="45.7448317" lon="11.193705"><ele>1035.5</ele><time>2026-04-23T12:19:09.324Z</time></trkpt><trkpt lat="45.7447783" lon="11.19362"><ele>1039.0</ele><time>2026-04-23T12:19:10.323Z</time></trkpt><trkpt lat="45.744705" lon="11.19355"><ele>1039.0</ele><time>2026-04-23T12:19:11.323Z</time></trkpt><trkpt lat="45.7446167" lon="11.193505"><ele>1039.0</ele><time>2026-04-23T12:19:12.323Z</time></trkpt><trkpt lat="45.7445133" lon="11.19346"><ele>1039.0</ele><time>2026-04-23T12:19:13.323Z</time></trkpt><trkpt lat="45.7444067" lon="11.193405"><ele>1039.0</ele><time>2026-04-23T12:19:14.324Z</time></trkpt><trkpt lat="45.7443117" lon="11.1933233"><ele>1039.0</ele><time>2026-04-23T12:19:15.324Z</time></trkpt><trkpt lat="45.7442183" lon="11.1932383"><ele>1037.0</ele><time>2026-04-23T12:19:16.323Z</time></trkpt><trkpt lat="45.7441267" lon="11.1931583"><ele>1035.0</ele><time>2026-04-23T12:19:17.323Z</time></trkpt><trkpt lat="45.7440483" lon="11.1931"><ele>1033.0</ele><time>2026-04-23T12:19:18.323Z</time></trkpt><trkpt lat="45.7439883" lon="11.1930533"><ele>1031.0</ele><time>2026-04-23T12:19:19.324Z</time></trkpt><trkpt lat="45.743895" lon="11.1930283"><ele>1029.0</ele><time>2026-04-23T12:19:21.323Z</time></trkpt><trkpt lat="45.7438883" lon="11.1931533"><ele>1027.0</ele><time>2026-04-23T12:19:24.323Z</time></trkpt><trkpt lat="45.74397" lon="11.1932167"><ele>1022.9999999999999</ele><time>2026-04-23T12:19:26.323Z</time></trkpt><trkpt lat="45.7440683" lon="11.193265"><ele>1019.0</ele><time>2026-04-23T12:19:28.323Z</time></trkpt><trkpt lat="45.74399" lon="11.1933233"><ele>1015.0</ele><time>2026-04-23T12:19:32.324Z</time></trkpt><trkpt lat="45.7439267" lon="11.19329"><ele>1011.0</ele><time>2026-04-23T12:19:33.323Z</time></trkpt><trkpt lat="45.7438483" lon="11.1932517"><ele>1006.9999999999999</ele><time>2026-04-23T12:19:34.323Z</time></trkpt><trkpt lat="45.7437567" lon="11.193235"><ele>1003.0</ele><time>2026-04-23T12:19:35.324Z</time></trkpt><trkpt lat="45.7436483" lon="11.193225"><ele>1003.0</ele><time>2026-04-23T12:19:36.323Z</time></trkpt><trkpt lat="45.7435383" lon="11.1932133"><ele>1003.0</ele><time>2026-04-23T12:19:37.324Z</time></trkpt><trkpt lat="45.74344" lon="11.1931967"><ele>1003.0</ele><time>2026-04-23T12:19:38.324Z</time></trkpt><trkpt lat="45.74334" lon="11.1931683"><ele>1003.0</ele><time>2026-04-23T12:19:39.323Z</time></trkpt><trkpt lat="45.74324" lon="11.1931417"><ele>1003.0</ele><time>2026-04-23T12:19:40.323Z</time></trkpt><trkpt lat="45.7431467" lon="11.193115"><ele>1002.9999999999999</ele><time>2026-04-23T12:19:41.323Z</time></trkpt><trkpt lat="45.7430517" lon="11.1930867"><ele>1003.0</ele><time>2026-04-23T12:19:42.323Z</time></trkpt><trkpt lat="45.7429567" lon="11.1930733"><ele>1003.0</ele><time>2026-04-23T12:19:43.323Z</time></trkpt><trkpt lat="45.7428683" lon="11.1930567"><ele>1003.0</ele><time>2026-04-23T12:19:44.323Z</time></trkpt><trkpt lat="45.7427867" lon="11.1930367"><ele>1002.9999999999999</ele><time>2026-04-23T12:19:45.323Z</time></trkpt><trkpt lat="45.7427133" lon="11.193015"><ele>1003.0</ele><time>2026-04-23T12:19:46.323Z</time></trkpt><trkpt lat="45.7426433" lon="11.193005"><ele>999.8</ele><time>2026-04-23T12:19:47.323Z</time></trkpt><trkpt lat="45.7425283" lon="11.19304"><ele>996.5999999999999</ele><time>2026-04-23T12:19:49.323Z</time></trkpt><trkpt lat="45.7424883" lon="11.1931783"><ele>993.4000000000001</ele><time>2026-04-23T12:19:51.323Z</time></trkpt><trkpt lat="45.7425383" lon="11.193325"><ele>990.2</ele><time>2026-04-23T12:19:53.323Z</time></trkpt><trkpt lat="45.7425967" lon="11.1933967"><ele>987.0</ele><time>2026-04-23T12:19:54.323Z</time></trkpt><trkpt lat="45.7426733" lon="11.19347"><ele>986.5</ele><time>2026-04-23T12:19:55.323Z</time></trkpt><trkpt lat="45.7427783" lon="11.1935633"><ele>986.0</ele><time>2026-04-23T12:19:56.323Z</time></trkpt><trkpt lat="45.7428817" lon="11.1936667"><ele>985.5</ele><time>2026-04-23T12:19:57.323Z</time></trkpt><trkpt lat="45.7429967" lon="11.1937517"><ele>985.0</ele><time>2026-04-23T12:19:58.324Z</time></trkpt><trkpt lat="45.743095" lon="11.19383"><ele>984.9999999999999</ele><time>2026-04-23T12:19:59.323Z</time></trkpt><trkpt lat="45.7431833" lon="11.1939017"><ele>985.0</ele><time>2026-04-23T12:20:00.323Z</time></trkpt><trkpt lat="45.7432567" lon="11.1939767"><ele>985.0</ele><time>2026-04-23T12:20:01.324Z</time></trkpt><trkpt lat="45.7433317" lon="11.1940433"><ele>985.0</ele><time>2026-04-23T12:20:02.323Z</time></trkpt><trkpt lat="45.7433883" lon="11.1941033"><ele>984.9999999999999</ele><time>2026-04-23T12:20:03.323Z</time></trkpt><trkpt lat="45.7434467" lon="11.1941583"><ele>985.0</ele><time>2026-04-23T12:20:04.324Z</time></trkpt><trkpt lat="45.7435433" lon="11.19426"><ele>983.6666666666666</ele><time>2026-04-23T12:20:06.323Z</time></trkpt><trkpt lat="45.7435633" lon="11.194365"><ele>982.3333333333333</ele><time>2026-04-23T12:20:08.323Z</time></trkpt><trkpt lat="45.74345" lon="11.1944167"><ele>981.0</ele><time>2026-04-23T12:20:10.323Z</time></trkpt><trkpt lat="45.7433783" lon="11.1944267"><ele>979.6666666666667</ele><time>2026-04-23T12:20:11.323Z</time></trkpt><trkpt lat="45.7433017" lon="11.1944233"><ele>978.3333333333334</ele><time>2026-04-23T12:20:12.323Z</time></trkpt><trkpt lat="45.7432217" lon="11.194415"><ele>977.0</ele><time>2026-04-23T12:20:13.323Z</time></trkpt><trkpt lat="45.7431533" lon="11.1944283"><ele>973.5000000000001</ele><time>2026-04-23T12:20:14.323Z</time></trkpt><trkpt lat="45.7430833" lon="11.1944567"><ele>970.0</ele><time>2026-04-23T12:20:15.323Z</time></trkpt><trkpt lat="45.7430233" lon="11.1944917"><ele>966.5</ele><time>2026-04-23T12:20:16.323Z</time></trkpt><trkpt lat="45.74291" lon="11.1945883"><ele>963.0</ele><time>2026-04-23T12:20:18.324Z</time></trkpt><trkpt lat="45.7428433" lon="11.1946383"><ele>959.5000000000001</ele><time>2026-04-23T12:20:19.323Z</time></trkpt><trkpt lat="45.7427867" lon="11.19468"><ele>956.0</ele><time>2026-04-23T12:20:20.323Z</time></trkpt><trkpt lat="45.7427267" lon="11.1947117"><ele>954.6666666666667</ele><time>2026-04-23T12:20:21.324Z</time></trkpt><trkpt lat="45.742655" lon="11.1947383"><ele>953.3333333333334</ele><time>2026-04-23T12:20:22.323Z</time></trkpt><trkpt lat="45.7425783" lon="11.1947567"><ele>952.0</ele><time>2026-04-23T12:20:23.323Z</time></trkpt><trkpt lat="45.7424983" lon="11.1947867"><ele>950.6666666666667</ele><time>2026-04-23T12:20:24.323Z</time></trkpt><trkpt lat="45.7424133" lon="11.1948183"><ele>949.3333333333334</ele><time>2026-04-23T12:20:25.324Z</time></trkpt><trkpt lat="45.7423317" lon="11.194845"><ele>948.0</ele><time>2026-04-23T12:20:26.323Z</time></trkpt><trkpt lat="45.7422533" lon="11.1948767"><ele>944.6666666666666</ele><time>2026-04-23T12:20:27.323Z</time></trkpt><trkpt lat="45.7421683" lon="11.1949017"><ele>941.3333333333333</ele><time>2026-04-23T12:20:28.322Z</time></trkpt><trkpt lat="45.74208" lon="11.1949217"><ele>938.0</ele><time>2026-04-23T12:20:29.323Z</time></trkpt><trkpt lat="45.7419933" lon="11.1949417"><ele>934.6666666666666</ele><time>2026-04-23T12:20:30.322Z</time></trkpt><trkpt lat="45.7419133" lon="11.1949667"><ele>931.3333333333333</ele><time>2026-04-23T12:20:31.323Z</time></trkpt><trkpt lat="45.741845" lon="11.19498"><ele>928.0</ele><time>2026-04-23T12:20:32.322Z</time></trkpt><trkpt lat="45.7417733" lon="11.1949933"><ele>925.2</ele><time>2026-04-23T12:20:33.322Z</time></trkpt><trkpt lat="45.7416533" lon="11.1950233"><ele>922.4</ele><time>2026-04-23T12:20:35.323Z</time></trkpt><trkpt lat="45.7415733" lon="11.1951033"><ele>919.6000000000001</ele><time>2026-04-23T12:20:37.323Z</time></trkpt><trkpt lat="45.7415683" lon="11.1952267"><ele>916.8000000000001</ele><time>2026-04-23T12:20:39.322Z</time></trkpt><trkpt lat="45.7416233" lon="11.1953783"><ele>914.0</ele><time>2026-04-23T12:20:41.323Z</time></trkpt><trkpt lat="45.7416683" lon="11.1954683"><ele>914.0</ele><time>2026-04-23T12:20:42.322Z</time></trkpt><trkpt lat="45.741715" lon="11.1955683"><ele>914.0000000000001</ele><time>2026-04-23T12:20:43.322Z</time></trkpt><trkpt lat="45.74177" lon="11.19566"><ele>914.0000000000001</ele><time>2026-04-23T12:20:44.323Z</time></trkpt><trkpt lat="45.7418317" lon="11.1957267"><ele>914.0</ele><time>2026-04-23T12:20:45.322Z</time></trkpt><trkpt lat="45.74192" lon="11.195845"><ele>914.0</ele><time>2026-04-23T12:20:47.322Z</time></trkpt><trkpt lat="45.7419717" lon="11.195955"><ele>910.4000000000001</ele><time>2026-04-23T12:20:49.322Z</time></trkpt><trkpt lat="45.7418733" lon="11.1960317"><ele>906.8000000000001</ele><time>2026-04-23T12:25:31.321Z</time></trkpt><trkpt lat="45.7417867" lon="11.196055"><ele>903.1999999999999</ele><time>2026-04-23T12:25:32.321Z</time></trkpt><trkpt lat="45.7416817" lon="11.196085"><ele>899.5999999999999</ele><time>2026-04-23T12:25:33.321Z</time></trkpt><trkpt lat="45.7415817" lon="11.1961233"><ele>896.0</ele><time>2026-04-23T12:25:34.321Z</time></trkpt><trkpt lat="45.741495" lon="11.1961467"><ele>896.0000000000001</ele><time>2026-04-23T12:25:35.321Z</time></trkpt><trkpt lat="45.7414083" lon="11.1961633"><ele>896.0</ele><time>2026-04-23T12:25:36.321Z</time></trkpt><trkpt lat="45.741335" lon="11.1961583"><ele>896.0</ele><time>2026-04-23T12:25:37.321Z</time></trkpt><trkpt lat="45.7412717" lon="11.196145"><ele>896.0</ele><time>2026-04-23T12:25:38.321Z</time></trkpt><trkpt lat="45.7411867" lon="11.19606"><ele>896.0000000000001</ele><time>2026-04-23T12:25:40.321Z</time></trkpt><trkpt lat="45.7411517" lon="11.1958983"><ele>896.0</ele><time>2026-04-23T12:25:42.321Z</time></trkpt><trkpt lat="45.7411533" lon="11.1957967"><ele>896.0</ele><time>2026-04-23T12:25:43.322Z</time></trkpt><trkpt lat="45.7411633" lon="11.1956917"><ele>895.9999999999999</ele><time>2026-04-23T12:25:44.321Z</time></trkpt><trkpt lat="45.7411567" lon="11.19559"><ele>895.9999999999999</ele><time>2026-04-23T12:25:45.322Z</time></trkpt><trkpt lat="45.7411333" lon="11.1954383"><ele>896.0</ele><time>2026-04-23T12:25:47.321Z</time></trkpt><trkpt lat="45.7410517" lon="11.1953267"><ele>896.0</ele><time>2026-04-23T12:25:49.321Z</time></trkpt><trkpt lat="45.74096" lon="11.1953533"><ele>895.75</ele><time>2026-04-23T12:25:51.321Z</time></trkpt><trkpt lat="45.7408617" lon="11.195425"><ele>895.5</ele><time>2026-04-23T12:25:53.322Z</time></trkpt><trkpt lat="45.74075" lon="11.1954333"><ele>895.25</ele><time>2026-04-23T12:25:55.322Z</time></trkpt><trkpt lat="45.7406517" lon="11.1953317"><ele>895.0</ele><time>2026-04-23T12:25:57.321Z</time></trkpt><trkpt lat="45.7405383" lon="11.19529"><ele>894.9999999999999</ele><time>2026-04-23T12:25:59.322Z</time></trkpt><trkpt lat="45.7404367" lon="11.1953833"><ele>895.0</ele><time>2026-04-23T12:26:01.321Z</time></trkpt><trkpt lat="45.7403867" lon="11.19544"><ele>895.0</ele><time>2026-04-23T12:26:02.321Z</time></trkpt><trkpt lat="45.74033" lon="11.1954833"><ele>895.0</ele><time>2026-04-23T12:26:03.321Z</time></trkpt><trkpt lat="45.7402633" lon="11.1954767"><ele>894.9999999999999</ele><time>2026-04-23T12:26:04.321Z</time></trkpt><trkpt lat="45.7401917" lon="11.1954333"><ele>895.0</ele><time>2026-04-23T12:26:05.321Z</time></trkpt><trkpt lat="45.740115" lon="11.195365"><ele>894.4</ele><time>2026-04-23T12:26:06.321Z</time></trkpt><trkpt lat="45.7400433" lon="11.1952733"><ele>893.8</ele><time>2026-04-23T12:26:07.321Z</time></trkpt><trkpt lat="45.739975" lon="11.19518"><ele>893.2</ele><time>2026-04-23T12:26:08.321Z</time></trkpt><trkpt lat="45.7398917" lon="11.1950883"><ele>892.6</ele><time>2026-04-23T12:26:10.321Z</time></trkpt><trkpt lat="45.7398" lon="11.195085"><ele>892.0</ele><time>2026-04-23T12:26:12.321Z</time></trkpt><trkpt lat="45.7396733" lon="11.1951433"><ele>892.0</ele><time>2026-04-23T12:26:14.322Z</time></trkpt><trkpt lat="45.739605" lon="11.1951967"><ele>892.0</ele><time>2026-04-23T12:26:15.321Z</time></trkpt><trkpt lat="45.7395483" lon="11.1952783"><ele>892.0</ele><time>2026-04-23T12:26:16.321Z</time></trkpt><trkpt lat="45.73949" lon="11.19535"><ele>892.0</ele><time>2026-04-23T12:26:17.321Z</time></trkpt><trkpt lat="45.7394067" lon="11.19538"><ele>892.0</ele><time>2026-04-23T12:26:19.321Z</time></trkpt><trkpt lat="45.7392867" lon="11.19528"><ele>893.2</ele><time>2026-04-23T12:26:21.321Z</time></trkpt><trkpt lat="45.73921" lon="11.1952217"><ele>894.4000000000001</ele><time>2026-04-23T12:26:22.321Z</time></trkpt><trkpt lat="45.7391117" lon="11.1951783"><ele>895.5999999999999</ele><time>2026-04-23T12:26:23.322Z</time></trkpt><trkpt lat="45.7390033" lon="11.1951367"><ele>896.8</ele><time>2026-04-23T12:26:24.321Z</time></trkpt><trkpt lat="45.7389017" lon="11.1951417"><ele>898.0</ele><time>2026-04-23T12:26:25.322Z</time></trkpt><trkpt lat="45.7388117" lon="11.1951783"><ele>897.9999999999999</ele><time>2026-04-23T12:26:26.321Z</time></trkpt><trkpt lat="45.7387283" lon="11.1952367"><ele>898.0</ele><time>2026-04-23T12:26:27.321Z</time></trkpt><trkpt lat="45.73865" lon="11.195295"><ele>898.0</ele><time>2026-04-23T12:26:28.322Z</time></trkpt><trkpt lat="45.7385767" lon="11.19536"><ele>898.0</ele><time>2026-04-23T12:26:29.322Z</time></trkpt><trkpt lat="45.7385217" lon="11.195415"><ele>897.9999999999999</ele><time>2026-04-23T12:26:30.322Z</time></trkpt><trkpt lat="45.7384867" lon="11.1955083"><ele>898.0</ele><time>2026-04-23T12:26:31.321Z</time></trkpt><trkpt lat="45.7384633" lon="11.1955967"><ele>896.6666666666666</ele><time>2026-04-23T12:26:32.321Z</time></trkpt><trkpt lat="45.7384017" lon="11.195685"><ele>895.3333333333333</ele><time>2026-04-23T12:26:34.321Z</time></trkpt><trkpt lat="45.7383367" lon="11.1957317"><ele>894.0</ele><time>2026-04-23T12:26:35.322Z</time></trkpt><trkpt lat="45.73826" lon="11.1957833"><ele>892.6666666666667</ele><time>2026-04-23T12:26:36.322Z</time></trkpt><trkpt lat="45.73818" lon="11.1958167"><ele>891.3333333333334</ele><time>2026-04-23T12:26:37.321Z</time></trkpt><trkpt lat="45.7380883" lon="11.1958333"><ele>890.0</ele><time>2026-04-23T12:26:38.322Z</time></trkpt><trkpt lat="45.7380117" lon="11.1958733"><ele>890.0000000000001</ele><time>2026-04-23T12:26:39.321Z</time></trkpt><trkpt lat="45.7379417" lon="11.1959267"><ele>890.0</ele><time>2026-04-23T12:26:40.321Z</time></trkpt><trkpt lat="45.73787" lon="11.1959933"><ele>890.0</ele><time>2026-04-23T12:26:41.322Z</time></trkpt><trkpt lat="45.7378133" lon="11.1960783"><ele>890.0</ele><time>2026-04-23T12:26:42.321Z</time></trkpt><trkpt lat="45.7377917" lon="11.1961733"><ele>890.0000000000001</ele><time>2026-04-23T12:26:43.322Z</time></trkpt><trkpt lat="45.7377583" lon="11.1962617"><ele>890.0</ele><time>2026-04-23T12:26:44.322Z</time></trkpt><trkpt lat="45.737655" lon="11.1964233"><ele>890.0</ele><time>2026-04-23T12:26:46.322Z</time></trkpt><trkpt lat="45.7375833" lon="11.1964833"><ele>890.0</ele><time>2026-04-23T12:26:47.322Z</time></trkpt><trkpt lat="45.7374833" lon="11.1965367"><ele>890.0</ele><time>2026-04-23T12:26:48.322Z</time></trkpt><trkpt lat="45.7373783" lon="11.19658"><ele>890.0</ele><time>2026-04-23T12:26:49.321Z</time></trkpt><trkpt lat="45.7372767" lon="11.1966367"><ele>890.0</ele><time>2026-04-23T12:26:50.322Z</time></trkpt><trkpt lat="45.7371783" lon="11.1967183"><ele>890.0</ele><time>2026-04-23T12:26:51.322Z</time></trkpt><trkpt lat="45.7370883" lon="11.19681"><ele>890.0</ele><time>2026-04-23T12:26:52.321Z</time></trkpt><trkpt lat="45.7370117" lon="11.1969217"><ele>890.0</ele><time>2026-04-23T12:26:53.321Z</time></trkpt><trkpt lat="45.7369467" lon="11.19702"><ele>890.0</ele><time>2026-04-23T12:26:54.321Z</time></trkpt><trkpt lat="45.7368733" lon="11.197115"><ele>890.0</ele><time>2026-04-23T12:26:55.322Z</time></trkpt><trkpt lat="45.736795" lon="11.1971733"><ele>892.6</ele><time>2026-04-23T12:26:56.322Z</time></trkpt><trkpt lat="45.7367067" lon="11.1972017"><ele>895.2</ele><time>2026-04-23T12:26:57.322Z</time></trkpt><trkpt lat="45.7366067" lon="11.1972083"><ele>897.8</ele><time>2026-04-23T12:26:58.321Z</time></trkpt><trkpt lat="45.73649" lon="11.1972083"><ele>900.4</ele><time>2026-04-23T12:26:59.321Z</time></trkpt><trkpt lat="45.7363933" lon="11.1972"><ele>903.0</ele><time>2026-04-23T12:27:00.322Z</time></trkpt><trkpt lat="45.7363033" lon="11.197185"><ele>903.0</ele><time>2026-04-23T12:27:01.322Z</time></trkpt><trkpt lat="45.7362167" lon="11.19716"><ele>903.0</ele><time>2026-04-23T12:27:02.322Z</time></trkpt><trkpt lat="45.7361367" lon="11.1971483"><ele>903.0</ele><time>2026-04-23T12:27:03.322Z</time></trkpt><trkpt lat="45.7360667" lon="11.197175"><ele>903.0</ele><time>2026-04-23T12:27:04.321Z</time></trkpt><trkpt lat="45.7360017" lon="11.1972333"><ele>903.0</ele><time>2026-04-23T12:27:05.321Z</time></trkpt><trkpt lat="45.73595" lon="11.197315"><ele>903.0</ele><time>2026-04-23T12:27:06.322Z</time></trkpt><trkpt lat="45.735895" lon="11.19743"><ele>901.8</ele><time>2026-04-23T12:27:07.321Z</time></trkpt><trkpt lat="45.73583" lon="11.19753"><ele>900.5999999999999</ele><time>2026-04-23T12:27:08.321Z</time></trkpt><trkpt lat="45.735735" lon="11.1976233"><ele>899.4000000000001</ele><time>2026-04-23T12:27:09.321Z</time></trkpt><trkpt lat="45.7356283" lon="11.1977"><ele>898.2</ele><time>2026-04-23T12:27:10.321Z</time></trkpt><trkpt lat="45.7355233" lon="11.1977667"><ele>897.0</ele><time>2026-04-23T12:27:11.321Z</time></trkpt><trkpt lat="45.7354167" lon="11.1978317"><ele>897.0</ele><time>2026-04-23T12:27:12.321Z</time></trkpt><trkpt lat="45.7353317" lon="11.1979"><ele>897.0</ele><time>2026-04-23T12:27:13.322Z</time></trkpt><trkpt lat="45.73526" lon="11.1979567"><ele>897.0</ele><time>2026-04-23T12:27:14.321Z</time></trkpt><trkpt lat="45.7351967" lon="11.197995"><ele>897.0</ele><time>2026-04-23T12:27:15.321Z</time></trkpt><trkpt lat="45.7350983" lon="11.19794"><ele>897.0</ele><time>2026-04-23T12:27:17.321Z</time></trkpt><trkpt lat="45.7350383" lon="11.1978833"><ele>897.0</ele><time>2026-04-23T12:27:18.322Z</time></trkpt><trkpt lat="45.7349617" lon="11.1978267"><ele>900.4000000000001</ele><time>2026-04-23T12:27:19.322Z</time></trkpt><trkpt lat="45.7348833" lon="11.1977917"><ele>903.8000000000001</ele><time>2026-04-23T12:27:20.321Z</time></trkpt><trkpt lat="45.7348" lon="11.1977833"><ele>907.2</ele><time>2026-04-23T12:27:21.321Z</time></trkpt><trkpt lat="45.734695" lon="11.1978233"><ele>910.6</ele><time>2026-04-23T12:27:22.322Z</time></trkpt><trkpt lat="45.73459" lon="11.1978833"><ele>914.0</ele><time>2026-04-23T12:27:23.322Z</time></trkpt><trkpt lat="45.73452" lon="11.1979617"><ele>914.0</ele><time>2026-04-23T12:27:24.321Z</time></trkpt><trkpt lat="45.7344567" lon="11.19802"><ele>914.0000000000001</ele><time>2026-04-23T12:27:25.321Z</time></trkpt><trkpt lat="45.7343317" lon="11.198045"><ele>914.0000000000001</ele><time>2026-04-23T12:27:27.322Z</time></trkpt><trkpt lat="45.7342417" lon="11.1980383"><ele>914.0</ele><time>2026-04-23T12:27:28.321Z</time></trkpt><trkpt lat="45.7341467" lon="11.1980233"><ele>914.0</ele><time>2026-04-23T12:27:29.322Z</time></trkpt><trkpt lat="45.7340483" lon="11.197985"><ele>914.857142857143</ele><time>2026-04-23T12:27:30.321Z</time></trkpt><trkpt lat="45.733965" lon="11.197945"><ele>915.7142857142858</ele><time>2026-04-23T12:27:31.322Z</time></trkpt><trkpt lat="45.7338983" lon="11.1978933"><ele>916.5714285714286</ele><time>2026-04-23T12:27:32.321Z</time></trkpt><trkpt lat="45.7338417" lon="11.1978317"><ele>917.4285714285714</ele><time>2026-04-23T12:27:33.321Z</time></trkpt><trkpt lat="45.733795" lon="11.1977583"><ele>918.2857142857142</ele><time>2026-04-23T12:27:34.322Z</time></trkpt><trkpt lat="45.73374" lon="11.1976833"><ele>919.142857142857</ele><time>2026-04-23T12:27:35.321Z</time></trkpt><trkpt lat="45.7336917" lon="11.197625"><ele>919.9999999999999</ele><time>2026-04-23T12:27:36.321Z</time></trkpt><trkpt lat="45.7336317" lon="11.19759"><ele>919.3333333333334</ele><time>2026-04-23T12:27:37.321Z</time></trkpt><trkpt lat="45.7335383" lon="11.1975717"><ele>918.6666666666667</ele><time>2026-04-23T12:27:38.322Z</time></trkpt><trkpt lat="45.7334367" lon="11.1975867"><ele>918.0</ele><time>2026-04-23T12:27:39.322Z</time></trkpt><trkpt lat="45.7333533" lon="11.1976217"><ele>917.3333333333333</ele><time>2026-04-23T12:27:40.321Z</time></trkpt><trkpt lat="45.73328" lon="11.1976367"><ele>916.6666666666666</ele><time>2026-04-23T12:27:41.321Z</time></trkpt><trkpt lat="45.7332117" lon="11.1976233"><ele>916.0</ele><time>2026-04-23T12:27:42.321Z</time></trkpt><trkpt lat="45.73315" lon="11.19759"><ele>915.9999999999999</ele><time>2026-04-23T12:27:43.321Z</time></trkpt><trkpt lat="45.7330983" lon="11.1975367"><ele>916.0</ele><time>2026-04-23T12:27:44.322Z</time></trkpt><trkpt lat="45.7330417" lon="11.1974833"><ele>916.0</ele><time>2026-04-23T12:27:45.321Z</time></trkpt><trkpt lat="45.7329317" lon="11.19743"><ele>916.0</ele><time>2026-04-23T12:27:47.322Z</time></trkpt><trkpt lat="45.7328433" lon="11.1973967"><ele>915.9999999999999</ele><time>2026-04-23T12:27:49.321Z</time></trkpt><trkpt lat="45.7327533" lon="11.1973183"><ele>916.0</ele><time>2026-04-23T12:27:51.322Z</time></trkpt><trkpt lat="45.7326933" lon="11.1972683"><ele>918.3333333333333</ele><time>2026-04-23T12:27:52.321Z</time></trkpt><trkpt lat="45.7325433" lon="11.1971967"><ele>920.6666666666666</ele><time>2026-04-23T12:27:54.321Z</time></trkpt><trkpt lat="45.7324717" lon="11.197175"><ele>923.0</ele><time>2026-04-23T12:27:55.321Z</time></trkpt><trkpt lat="45.732405" lon="11.19715"><ele>925.3333333333333</ele><time>2026-04-23T12:27:56.321Z</time></trkpt><trkpt lat="45.7323417" lon="11.1971133"><ele>927.6666666666666</ele><time>2026-04-23T12:27:57.321Z</time></trkpt><trkpt lat="45.73228" lon="11.197065"><ele>930.0</ele><time>2026-04-23T12:27:58.321Z</time></trkpt><trkpt lat="45.7322267" lon="11.1970083"><ele>930.0</ele><time>2026-04-23T12:27:59.322Z</time></trkpt><trkpt lat="45.7321733" lon="11.1969367"><ele>930.0</ele><time>2026-04-23T12:28:00.321Z</time></trkpt><trkpt lat="45.7321133" lon="11.196845"><ele>930.0</ele><time>2026-04-23T12:28:01.32Z</time></trkpt><trkpt lat="45.732045" lon="11.1967267"><ele>930.0</ele><time>2026-04-23T12:28:02.32Z</time></trkpt><trkpt lat="45.7319833" lon="11.196635"><ele>930.0</ele><time>2026-04-23T12:28:03.32Z</time></trkpt><trkpt lat="45.7319183" lon="11.1965533"><ele>930.0</ele><time>2026-04-23T12:28:04.321Z</time></trkpt><trkpt lat="45.7318483" lon="11.19648"><ele>929.2</ele><time>2026-04-23T12:28:05.32Z</time></trkpt><trkpt lat="45.7317917" lon="11.1964283"><ele>928.4</ele><time>2026-04-23T12:28:06.321Z</time></trkpt><trkpt lat="45.7317133" lon="11.19642"><ele>927.5999999999999</ele><time>2026-04-23T12:28:08.32Z</time></trkpt><trkpt lat="45.7316483" lon="11.1965217"><ele>926.8</ele><time>2026-04-23T12:28:10.32Z</time></trkpt><trkpt lat="45.7316117" lon="11.1966833"><ele>926.0</ele><time>2026-04-23T12:28:12.32Z</time></trkpt><trkpt lat="45.731605" lon="11.1968467"><ele>923.1999999999999</ele><time>2026-04-23T12:28:13.32Z</time></trkpt><trkpt lat="45.73158" lon="11.1970083"><ele>920.3999999999999</ele><time>2026-04-23T12:28:14.32Z</time></trkpt><trkpt lat="45.7315633" lon="11.1971733"><ele>917.6</ele><time>2026-04-23T12:28:15.321Z</time></trkpt><trkpt lat="45.7315467" lon="11.19729"><ele>914.8</ele><time>2026-04-23T12:28:16.321Z</time></trkpt><trkpt lat="45.7315317" lon="11.1974"><ele>912.0</ele><time>2026-04-23T12:28:17.321Z</time></trkpt><trkpt lat="45.731505" lon="11.1975017"><ele>909.3333333333334</ele><time>2026-04-23T12:28:18.321Z</time></trkpt><trkpt lat="45.7314883" lon="11.19762"><ele>906.6666666666667</ele><time>2026-04-23T12:28:19.32Z</time></trkpt><trkpt lat="45.731475" lon="11.197745"><ele>904.0</ele><time>2026-04-23T12:28:20.32Z</time></trkpt><trkpt lat="45.73147" lon="11.197875"><ele>901.3333333333334</ele><time>2026-04-23T12:28:21.321Z</time></trkpt><trkpt lat="45.7314817" lon="11.1979983"><ele>898.6666666666667</ele><time>2026-04-23T12:28:22.32Z</time></trkpt><trkpt lat="45.731495" lon="11.1981383"><ele>896.0</ele><time>2026-04-23T12:28:23.32Z</time></trkpt><trkpt lat="45.731515" lon="11.1982933"><ele>895.25</ele><time>2026-04-23T12:28:24.32Z</time></trkpt><trkpt lat="45.7315483" lon="11.19845"><ele>894.5</ele><time>2026-04-23T12:28:25.32Z</time></trkpt><trkpt lat="45.731585" lon="11.1986033"><ele>893.75</ele><time>2026-04-23T12:28:26.32Z</time></trkpt><trkpt lat="45.731625" lon="11.1987683"><ele>893.0</ele><time>2026-04-23T12:28:27.32Z</time></trkpt><trkpt lat="45.7316617" lon="11.1989417"><ele>895.0</ele><time>2026-04-23T12:28:28.32Z</time></trkpt><trkpt lat="45.7316867" lon="11.1990883"><ele>897.0</ele><time>2026-04-23T12:28:29.32Z</time></trkpt><trkpt lat="45.731715" lon="11.1992217"><ele>899.0</ele><time>2026-04-23T12:28:30.32Z</time></trkpt><trkpt lat="45.7317433" lon="11.1993483"><ele>901.0</ele><time>2026-04-23T12:28:31.32Z</time></trkpt><trkpt lat="45.73177" lon="11.1994783"><ele>903.0</ele><time>2026-04-23T12:28:32.32Z</time></trkpt><trkpt lat="45.7318117" lon="11.1995983"><ele>903.0</ele><time>2026-04-23T12:28:33.32Z</time></trkpt><trkpt lat="45.7318367" lon="11.19973"><ele>903.0</ele><time>2026-04-23T12:28:34.32Z</time></trkpt><trkpt lat="45.7318517" lon="11.1998633"><ele>903.0</ele><time>2026-04-23T12:28:35.32Z</time></trkpt><trkpt lat="45.7318767" lon="11.2000033"><ele>903.0</ele><time>2026-04-23T12:28:36.32Z</time></trkpt><trkpt lat="45.7319033" lon="11.2001433"><ele>903.0</ele><time>2026-04-23T12:28:37.321Z</time></trkpt><trkpt lat="45.7319317" lon="11.2002833"><ele>901.2</ele><time>2026-04-23T12:28:38.32Z</time></trkpt><trkpt lat="45.7319617" lon="11.2004217"><ele>899.4</ele><time>2026-04-23T12:28:39.321Z</time></trkpt><trkpt lat="45.7319933" lon="11.2005633"><ele>897.6000000000001</ele><time>2026-04-23T12:28:40.32Z</time></trkpt><trkpt lat="45.7320317" lon="11.20067"><ele>895.8000000000001</ele><time>2026-04-23T12:28:41.32Z</time></trkpt><trkpt lat="45.7320733" lon="11.2007733"><ele>894.0</ele><time>2026-04-23T12:28:42.32Z</time></trkpt><trkpt lat="45.7321283" lon="11.2008517"><ele>894.0</ele><time>2026-04-23T12:28:43.32Z</time></trkpt><trkpt lat="45.7321667" lon="11.200925"><ele>894.0000000000001</ele><time>2026-04-23T12:28:44.321Z</time></trkpt><trkpt lat="45.7322417" lon="11.2010417"><ele>894.0000000000001</ele><time>2026-04-23T12:28:46.32Z</time></trkpt><trkpt lat="45.73227" lon="11.20122"><ele>894.0</ele><time>2026-04-23T12:28:48.32Z</time></trkpt><trkpt lat="45.7322633" lon="11.201385"><ele>894.0</ele><time>2026-04-23T12:28:50.32Z</time></trkpt><trkpt lat="45.732245" lon="11.2014917"><ele>897.1666666666666</ele><time>2026-04-23T12:29:30.32Z</time></trkpt><trkpt lat="45.732255" lon="11.2015933"><ele>900.3333333333333</ele><time>2026-04-23T12:29:32.32Z</time></trkpt><trkpt lat="45.732265" lon="11.2017167"><ele>903.5</ele><time>2026-04-23T12:29:34.32Z</time></trkpt><trkpt lat="45.7322817" lon="11.2018317"><ele>906.6666666666666</ele><time>2026-04-23T12:29:36.321Z</time></trkpt><trkpt lat="45.7322733" lon="11.2019367"><ele>909.8333333333333</ele><time>2026-04-23T12:29:38.32Z</time></trkpt><trkpt lat="45.7322417" lon="11.2020733"><ele>913.0</ele><time>2026-04-23T12:29:40.32Z</time></trkpt><trkpt lat="45.732185" lon="11.2021933"><ele>913.0</ele><time>2026-04-23T12:29:42.32Z</time></trkpt><trkpt lat="45.732125" lon="11.2023083"><ele>913.0</ele><time>2026-04-23T12:29:44.32Z</time></trkpt><trkpt lat="45.732055" lon="11.2024133"><ele>913.0</ele><time>2026-04-23T12:29:46.32Z</time></trkpt><trkpt lat="45.732" lon="11.2025217"><ele>913.0</ele><time>2026-04-23T12:29:48.321Z</time></trkpt><trkpt lat="45.7319567" lon="11.2026333"><ele>913.0</ele><time>2026-04-23T12:29:50.32Z</time></trkpt><trkpt lat="45.7319233" lon="11.2027317"><ele>913.6666666666666</ele><time>2026-04-23T12:29:52.32Z</time></trkpt><trkpt lat="45.73191" lon="11.20282"><ele>914.3333333333333</ele><time>2026-04-23T12:29:54.321Z</time></trkpt><trkpt lat="45.7319133" lon="11.20294"><ele>915.0</ele><time>2026-04-23T12:29:57.32Z</time></trkpt><trkpt lat="45.731955" lon="11.20306"><ele>915.6666666666667</ele><time>2026-04-23T12:30:00.32Z</time></trkpt><trkpt lat="45.7320067" lon="11.2031333"><ele>916.3333333333334</ele><time>2026-04-23T12:30:02.32Z</time></trkpt><trkpt lat="45.7320917" lon="11.2031867"><ele>917.0</ele><time>2026-04-23T12:30:05.32Z</time></trkpt><trkpt lat="45.73219" lon="11.2032467"><ele>917.0000000000001</ele><time>2026-04-23T12:30:07.32Z</time></trkpt><trkpt lat="45.7322767" lon="11.2033383"><ele>917.0</ele><time>2026-04-23T12:30:09.321Z</time></trkpt><trkpt lat="45.7323217" lon="11.2034317"><ele>917.0</ele><time>2026-04-23T12:30:11.32Z</time></trkpt><trkpt lat="45.7323117" lon="11.2035217"><ele>917.0</ele><time>2026-04-23T12:30:14.32Z</time></trkpt><trkpt lat="45.7322583" lon="11.20364"><ele>917.0000000000001</ele><time>2026-04-23T12:30:16.32Z</time></trkpt><trkpt lat="45.7322233" lon="11.203725"><ele>917.0</ele><time>2026-04-23T12:30:17.321Z</time></trkpt><trkpt lat="45.7321817" lon="11.203865"><ele>917.0</ele><time>2026-04-23T12:30:19.32Z</time></trkpt><trkpt lat="45.7321567" lon="11.2039883"><ele>917.0</ele><time>2026-04-23T12:30:21.32Z</time></trkpt><trkpt lat="45.73215" lon="11.2040983"><ele>917.0</ele><time>2026-04-23T12:30:23.321Z</time></trkpt><trkpt lat="45.7321417" lon="11.2042067"><ele>917.0</ele><time>2026-04-23T12:30:26.32Z</time></trkpt><trkpt lat="45.7321583" lon="11.2043067"><ele>917.0</ele><time>2026-04-23T12:30:29.32Z</time></trkpt><trkpt lat="45.732185" lon="11.2043933"><ele>917.0</ele><time>2026-04-23T12:30:31.32Z</time></trkpt><trkpt lat="45.73223" lon="11.2044583"><ele>917.0</ele><time>2026-04-23T12:30:33.32Z</time></trkpt><trkpt lat="45.7323317" lon="11.2045233"><ele>914.3333333333334</ele><time>2026-04-23T12:30:36.32Z</time></trkpt><trkpt lat="45.7324283" lon="11.2045567"><ele>911.6666666666667</ele><time>2026-04-23T12:30:38.32Z</time></trkpt><trkpt lat="45.732515" lon="11.2045667"><ele>909.0</ele><time>2026-04-23T12:30:40.321Z</time></trkpt><trkpt lat="45.7325783" lon="11.2045583"><ele>906.3333333333333</ele><time>2026-04-23T12:30:42.32Z</time></trkpt><trkpt lat="45.7326433" lon="11.20451"><ele>903.6666666666666</ele><time>2026-04-23T12:30:44.32Z</time></trkpt><trkpt lat="45.732705" lon="11.2044583"><ele>901.0</ele><time>2026-04-23T12:30:46.32Z</time></trkpt><trkpt lat="45.73277" lon="11.2043883"><ele>900.1999999999999</ele><time>2026-04-23T12:30:49.32Z</time></trkpt><trkpt lat="45.7328367" lon="11.204305"><ele>899.3999999999999</ele><time>2026-04-23T12:30:51.321Z</time></trkpt><trkpt lat="45.7329217" lon="11.204235"><ele>898.6</ele><time>2026-04-23T12:30:53.321Z</time></trkpt><trkpt lat="45.7330167" lon="11.2041867"><ele>897.8</ele><time>2026-04-23T12:30:55.32Z</time></trkpt><trkpt lat="45.73312" lon="11.2041517"><ele>897.0</ele><time>2026-04-23T12:30:57.321Z</time></trkpt><trkpt lat="45.7332217" lon="11.2041133"><ele>897.0</ele><time>2026-04-23T12:31:00.32Z</time></trkpt><trkpt lat="45.73329" lon="11.20412"><ele>897.0</ele><time>2026-04-23T12:31:01.321Z</time></trkpt><trkpt lat="45.7333617" lon="11.2041367"><ele>897.0</ele><time>2026-04-23T12:31:02.321Z</time></trkpt><trkpt lat="45.7334383" lon="11.2041533"><ele>897.0</ele><time>2026-04-23T12:31:05.32Z</time></trkpt><trkpt lat="45.7335667" lon="11.2041017"><ele>897.0</ele><time>2026-04-23T12:31:55.32Z</time></trkpt><trkpt lat="45.7336683" lon="11.2040917"><ele>896.2857142857143</ele><time>2026-04-23T12:32:45.32Z</time></trkpt><trkpt lat="45.7337267" lon="11.2041267"><ele>895.5714285714286</ele><time>2026-04-23T12:34:23.319Z</time></trkpt><trkpt lat="45.7338033" lon="11.2041367"><ele>894.8571428571429</ele><time>2026-04-23T12:34:44.318Z</time></trkpt><trkpt lat="45.733855" lon="11.20419"><ele>894.1428571428571</ele><time>2026-04-23T12:34:48.318Z</time></trkpt><trkpt lat="45.733915" lon="11.20426"><ele>893.4285714285713</ele><time>2026-04-23T12:36:03.319Z</time></trkpt><trkpt lat="45.7339333" lon="11.2043617"><ele>892.7142857142857</ele><time>2026-04-23T12:36:06.318Z</time></trkpt><trkpt lat="45.733905" lon="11.20447"><ele>892.0</ele><time>2026-04-23T12:36:08.318Z</time></trkpt><trkpt lat="45.7338583" lon="11.204575"><ele>891.9999999999999</ele><time>2026-04-23T12:36:10.319Z</time></trkpt><trkpt lat="45.733835" lon="11.20466"><ele>892.0</ele><time>2026-04-23T12:36:12.318Z</time></trkpt><trkpt lat="45.733805" lon="11.204745"><ele>892.0</ele><time>2026-04-23T12:36:14.318Z</time></trkpt><trkpt lat="45.7337817" lon="11.2048417"><ele>892.0</ele><time>2026-04-23T12:36:16.319Z</time></trkpt><trkpt lat="45.7337267" lon="11.2049467"><ele>891.9999999999999</ele><time>2026-04-23T12:36:18.318Z</time></trkpt><trkpt lat="45.7337283" lon="11.2050867"><ele>892.0</ele><time>2026-04-23T12:36:21.318Z</time></trkpt><trkpt lat="45.7337433" lon="11.2051967"><ele>892.1666666666666</ele><time>2026-04-23T12:36:24.318Z</time></trkpt><trkpt lat="45.7338033" lon="11.20539"><ele>892.3333333333333</ele><time>2026-04-23T12:38:21.317Z</time></trkpt><trkpt lat="45.73377" lon="11.2055067"><ele>892.5</ele><time>2026-04-23T12:39:19.317Z</time></trkpt><trkpt lat="45.733725" lon="11.2055883"><ele>892.6666666666667</ele><time>2026-04-23T12:39:21.317Z</time></trkpt><trkpt lat="45.7336733" lon="11.2056467"><ele>892.8333333333334</ele><time>2026-04-23T12:39:23.317Z</time></trkpt><trkpt lat="45.7336417" lon="11.2057283"><ele>893.0</ele><time>2026-04-23T12:39:25.317Z</time></trkpt><trkpt lat="45.73362" lon="11.20583"><ele>892.5000000000001</ele><time>2026-04-23T12:39:27.317Z</time></trkpt><trkpt lat="45.7336083" lon="11.2059283"><ele>892.0</ele><time>2026-04-23T12:39:29.317Z</time></trkpt><trkpt lat="45.7336183" lon="11.20602"><ele>891.5</ele><time>2026-04-23T12:39:31.317Z</time></trkpt><trkpt lat="45.7336283" lon="11.2061133"><ele>891.0</ele><time>2026-04-23T12:39:33.317Z</time></trkpt><trkpt lat="45.7336517" lon="11.2062183"><ele>890.5000000000001</ele><time>2026-04-23T12:39:37.317Z</time></trkpt><trkpt lat="45.7336783" lon="11.2063467"><ele>890.0</ele><time>2026-04-23T12:39:40.317Z</time></trkpt><trkpt lat="45.73368" lon="11.20646"><ele>887.4</ele><time>2026-04-23T12:39:42.318Z</time></trkpt><trkpt lat="45.7336433" lon="11.20655"><ele>884.8</ele><time>2026-04-23T12:39:44.318Z</time></trkpt><trkpt lat="45.7335917" lon="11.20665"><ele>882.2</ele><time>2026-04-23T12:39:46.317Z</time></trkpt><trkpt lat="45.733535" lon="11.2067583"><ele>879.6</ele><time>2026-04-23T12:39:48.317Z</time></trkpt><trkpt lat="45.7334617" lon="11.2068767"><ele>877.0</ele><time>2026-04-23T12:39:50.317Z</time></trkpt><trkpt lat="45.733405" lon="11.20699"><ele>874.3333333333333</ele><time>2026-04-23T12:39:52.317Z</time></trkpt><trkpt lat="45.7333517" lon="11.2071033"><ele>871.6666666666666</ele><time>2026-04-23T12:39:54.317Z</time></trkpt><trkpt lat="45.733305" lon="11.2072333"><ele>869.0</ele><time>2026-04-23T12:39:56.317Z</time></trkpt><trkpt lat="45.73327" lon="11.207315"><ele>866.3333333333333</ele><time>2026-04-23T12:39:58.317Z</time></trkpt><trkpt lat="45.7332533" lon="11.207455"><ele>863.6666666666666</ele><time>2026-04-23T12:40:01.318Z</time></trkpt><trkpt lat="45.7332517" lon="11.2075667"><ele>861.0</ele><time>2026-04-23T12:40:03.317Z</time></trkpt><trkpt lat="45.7332817" lon="11.2076483"><ele>860.6666666666666</ele><time>2026-04-23T12:40:05.318Z</time></trkpt><trkpt lat="45.73335" lon="11.20771"><ele>860.3333333333333</ele><time>2026-04-23T12:40:07.317Z</time></trkpt><trkpt lat="45.7334367" lon="11.20779"><ele>860.0</ele><time>2026-04-23T12:40:09.317Z</time></trkpt><trkpt lat="45.73352" lon="11.2078817"><ele>859.6666666666666</ele><time>2026-04-23T12:40:11.317Z</time></trkpt><trkpt lat="45.73358" lon="11.2079867"><ele>859.3333333333333</ele><time>2026-04-23T12:40:13.318Z</time></trkpt><trkpt lat="45.733615" lon="11.2080633"><ele>859.0</ele><time>2026-04-23T12:40:14.318Z</time></trkpt><trkpt lat="45.73368" lon="11.2081983"><ele>855.1666666666666</ele><time>2026-04-23T12:40:16.317Z</time></trkpt><trkpt lat="45.7337317" lon="11.20832"><ele>851.3333333333333</ele><time>2026-04-23T12:40:18.317Z</time></trkpt><trkpt lat="45.7337817" lon="11.2084217"><ele>847.5</ele><time>2026-04-23T12:40:20.317Z</time></trkpt><trkpt lat="45.7338233" lon="11.2085383"><ele>843.6666666666667</ele><time>2026-04-23T12:40:22.317Z</time></trkpt><trkpt lat="45.73386" lon="11.208615"><ele>839.8333333333334</ele><time>2026-04-23T12:40:24.317Z</time></trkpt><trkpt lat="45.7338683" lon="11.208705"><ele>836.0</ele><time>2026-04-23T12:40:34.317Z</time></trkpt><trkpt lat="45.7338317" lon="11.2087883"><ele>836.0000000000001</ele><time>2026-04-23T12:40:36.317Z</time></trkpt><trkpt lat="45.733775" lon="11.208915"><ele>836.0</ele><time>2026-04-23T12:40:38.317Z</time></trkpt><trkpt lat="45.7337333" lon="11.20899"><ele>836.0</ele><time>2026-04-23T12:40:39.318Z</time></trkpt><trkpt lat="45.7336867" lon="11.2091117"><ele>836.0</ele><time>2026-04-23T12:40:41.317Z</time></trkpt><trkpt lat="45.7336633" lon="11.2091967"><ele>836.0000000000001</ele><time>2026-04-23T12:40:43.317Z</time></trkpt><trkpt lat="45.7336283" lon="11.2092817"><ele>836.0</ele><time>2026-04-23T12:40:46.317Z</time></trkpt><trkpt lat="45.733595" lon="11.20939"><ele>833.3333333333334</ele><time>2026-04-23T12:40:49.317Z</time></trkpt><trkpt lat="45.7335417" lon="11.209505"><ele>830.6666666666667</ele><time>2026-04-23T12:40:52.317Z</time></trkpt><trkpt lat="45.7335017" lon="11.2095817"><ele>828.0</ele><time>2026-04-23T12:40:54.317Z</time></trkpt><trkpt lat="45.7334567" lon="11.2096633"><ele>825.3333333333333</ele><time>2026-04-23T12:40:56.317Z</time></trkpt><trkpt lat="45.7334033" lon="11.20977"><ele>822.6666666666666</ele><time>2026-04-23T12:40:59.317Z</time></trkpt><trkpt lat="45.7333517" lon="11.2098283"><ele>820.0</ele><time>2026-04-23T12:41:01.317Z</time></trkpt><trkpt lat="45.7332883" lon="11.2098683"><ele>819.9999999999999</ele><time>2026-04-23T12:41:03.318Z</time></trkpt><trkpt lat="45.733215" lon="11.2098833"><ele>820.0</ele><time>2026-04-23T12:41:05.318Z</time></trkpt><trkpt lat="45.7331483" lon="11.2098317"><ele>820.0</ele><time>2026-04-23T12:41:08.317Z</time></trkpt><trkpt lat="45.7331083" lon="11.2097367"><ele>820.0</ele><time>2026-04-23T12:41:10.317Z</time></trkpt><trkpt lat="45.7330967" lon="11.2096117"><ele>819.9999999999999</ele><time>2026-04-23T12:41:12.316Z</time></trkpt><trkpt lat="45.7330983" lon="11.209475"><ele>820.0</ele><time>2026-04-23T12:41:14.316Z</time></trkpt><trkpt lat="45.7331117" lon="11.2093433"><ele>820.0</ele><time>2026-04-23T12:41:16.316Z</time></trkpt><trkpt lat="45.7331433" lon="11.2092067"><ele>820.0</ele><time>2026-04-23T12:41:18.316Z</time></trkpt><trkpt lat="45.7331533" lon="11.20905"><ele>820.0</ele><time>2026-04-23T12:41:20.316Z</time></trkpt><trkpt lat="45.733135" lon="11.2089317"><ele>820.0</ele><time>2026-04-23T12:41:22.316Z</time></trkpt><trkpt lat="45.7330633" lon="11.20885"><ele>820.0</ele><time>2026-04-23T12:41:24.317Z</time></trkpt><trkpt lat="45.7329717" lon="11.2088383"><ele>817.9999999999999</ele><time>2026-04-23T12:41:26.316Z</time></trkpt><trkpt lat="45.7328883" lon="11.2088117"><ele>816.0</ele><time>2026-04-23T12:41:28.316Z</time></trkpt><trkpt lat="45.7328333" lon="11.208765"><ele>814.0</ele><time>2026-04-23T12:41:29.316Z</time></trkpt><trkpt lat="45.7327767" lon="11.2087217"><ele>812.0</ele><time>2026-04-23T12:41:30.316Z</time></trkpt><trkpt lat="45.7326883" lon="11.20863"><ele>809.9999999999999</ele><time>2026-04-23T12:41:32.316Z</time></trkpt><trkpt lat="45.7326117" lon="11.2085267"><ele>808.0</ele><time>2026-04-23T12:41:34.316Z</time></trkpt><trkpt lat="45.73254" lon="11.2083967"><ele>807.9999999999999</ele><time>2026-04-23T12:41:36.316Z</time></trkpt><trkpt lat="45.732495" lon="11.2082717"><ele>808.0</ele><time>2026-04-23T12:41:38.316Z</time></trkpt><trkpt lat="45.7324433" lon="11.20817"><ele>808.0</ele><time>2026-04-23T12:41:40.316Z</time></trkpt><trkpt lat="45.7323867" lon="11.2080817"><ele>808.0</ele><time>2026-04-23T12:41:42.316Z</time></trkpt><trkpt lat="45.7323067" lon="11.2080267"><ele>807.9999999999999</ele><time>2026-04-23T12:41:45.316Z</time></trkpt><trkpt lat="45.7322417" lon="11.2080117"><ele>808.0</ele><time>2026-04-23T12:41:47.316Z</time></trkpt><trkpt lat="45.7321783" lon="11.2081283"><ele>808.0</ele><time>2026-04-23T12:41:49.316Z</time></trkpt><trkpt lat="45.7321167" lon="11.2082767"><ele>808.0</ele><time>2026-04-23T12:41:51.316Z</time></trkpt><trkpt lat="45.732065" lon="11.2084417"><ele>808.0</ele><time>2026-04-23T12:41:53.316Z</time></trkpt><trkpt lat="45.7319967" lon="11.2085883"><ele>808.0</ele><time>2026-04-23T12:41:55.316Z</time></trkpt><trkpt lat="45.7319183" lon="11.2087"><ele>806.6666666666666</ele><time>2026-04-23T12:41:57.316Z</time></trkpt><trkpt lat="45.731855" lon="11.2087867"><ele>805.3333333333333</ele><time>2026-04-23T12:41:59.316Z</time></trkpt><trkpt lat="45.731775" lon="11.2089317"><ele>804.0</ele><time>2026-04-23T12:42:01.316Z</time></trkpt><trkpt lat="45.7317333" lon="11.2090317"><ele>802.6666666666667</ele><time>2026-04-23T12:42:02.316Z</time></trkpt><trkpt lat="45.731695" lon="11.2091183"><ele>801.3333333333334</ele><time>2026-04-23T12:42:03.316Z</time></trkpt><trkpt lat="45.7316617" lon="11.2091967"><ele>800.0</ele><time>2026-04-23T12:42:04.317Z</time></trkpt><trkpt lat="45.7315733" lon="11.2093217"><ele>798.6666666666667</ele><time>2026-04-23T12:42:06.316Z</time></trkpt><trkpt lat="45.731515" lon="11.209375"><ele>797.3333333333334</ele><time>2026-04-23T12:42:07.316Z</time></trkpt><trkpt lat="45.7314517" lon="11.2094317"><ele>796.0</ele><time>2026-04-23T12:42:08.316Z</time></trkpt><trkpt lat="45.7313767" lon="11.2094733"><ele>794.6666666666667</ele><time>2026-04-23T12:42:09.317Z</time></trkpt><trkpt lat="45.7313" lon="11.2095267"><ele>793.3333333333334</ele><time>2026-04-23T12:42:10.317Z</time></trkpt><trkpt lat="45.7312183" lon="11.209585"><ele>792.0</ele><time>2026-04-23T12:42:11.317Z</time></trkpt><trkpt lat="45.7311317" lon="11.209625"><ele>791.4000000000001</ele><time>2026-04-23T12:42:12.316Z</time></trkpt><trkpt lat="45.73103" lon="11.2096633"><ele>790.8000000000001</ele><time>2026-04-23T12:42:13.317Z</time></trkpt><trkpt lat="45.7309417" lon="11.2097067"><ele>790.2</ele><time>2026-04-23T12:42:14.316Z</time></trkpt><trkpt lat="45.730865" lon="11.209755"><ele>789.6</ele><time>2026-04-23T12:42:15.316Z</time></trkpt><trkpt lat="45.7307833" lon="11.2098217"><ele>789.0</ele><time>2026-04-23T12:42:16.316Z</time></trkpt><trkpt lat="45.7307067" lon="11.209905"><ele>787.6666666666666</ele><time>2026-04-23T12:42:17.316Z</time></trkpt><trkpt lat="45.730645" lon="11.209985"><ele>786.3333333333333</ele><time>2026-04-23T12:42:18.316Z</time></trkpt><trkpt lat="45.73059" lon="11.2100467"><ele>785.0</ele><time>2026-04-23T12:42:19.316Z</time></trkpt><trkpt lat="45.7305317" lon="11.2100967"><ele>783.6666666666666</ele><time>2026-04-23T12:42:20.317Z</time></trkpt><trkpt lat="45.730465" lon="11.21013"><ele>782.3333333333333</ele><time>2026-04-23T12:42:21.317Z</time></trkpt><trkpt lat="45.7303917" lon="11.21014"><ele>781.0</ele><time>2026-04-23T12:42:22.316Z</time></trkpt><trkpt lat="45.7303017" lon="11.2101483"><ele>781.8333333333333</ele><time>2026-04-23T12:42:23.316Z</time></trkpt><trkpt lat="45.730205" lon="11.2101683"><ele>782.6666666666666</ele><time>2026-04-23T12:42:24.316Z</time></trkpt><trkpt lat="45.730115" lon="11.2101933"><ele>783.5</ele><time>2026-04-23T12:42:25.316Z</time></trkpt><trkpt lat="45.73003" lon="11.21021"><ele>784.3333333333333</ele><time>2026-04-23T12:42:26.316Z</time></trkpt><trkpt lat="45.7299633" lon="11.2102233"><ele>785.1666666666666</ele><time>2026-04-23T12:42:27.316Z</time></trkpt><trkpt lat="45.7299" lon="11.21024"><ele>786.0</ele><time>2026-04-23T12:42:28.316Z</time></trkpt><trkpt lat="45.729805" lon="11.2103333"><ele>786.0000000000001</ele><time>2026-04-23T12:42:30.316Z</time></trkpt><trkpt lat="45.7297533" lon="11.2104033"><ele>786.0</ele><time>2026-04-23T12:42:31.317Z</time></trkpt><trkpt lat="45.72969" lon="11.21046"><ele>786.0</ele><time>2026-04-23T12:42:32.317Z</time></trkpt><trkpt lat="45.729625" lon="11.2105017"><ele>786.0</ele><time>2026-04-23T12:42:33.317Z</time></trkpt><trkpt lat="45.72955" lon="11.210525"><ele>786.0</ele><time>2026-04-23T12:42:34.316Z</time></trkpt><trkpt lat="45.7294683" lon="11.2105367"><ele>786.0000000000001</ele><time>2026-04-23T12:42:35.316Z</time></trkpt><trkpt lat="45.7294017" lon="11.2105533"><ele>786.0</ele><time>2026-04-23T12:42:36.316Z</time></trkpt><trkpt lat="45.7293433" lon="11.2105933"><ele>784.1666666666666</ele><time>2026-04-23T12:42:37.317Z</time></trkpt><trkpt lat="45.729315" lon="11.21068"><ele>782.3333333333333</ele><time>2026-04-23T12:42:39.316Z</time></trkpt><trkpt lat="45.7292467" lon="11.2107433"><ele>780.5</ele><time>2026-04-23T12:42:49.316Z</time></trkpt><trkpt lat="45.7291817" lon="11.2107683"><ele>778.6666666666666</ele><time>2026-04-23T12:42:51.316Z</time></trkpt><trkpt lat="45.7291183" lon="11.210825"><ele>776.8333333333333</ele><time>2026-04-23T12:42:53.316Z</time></trkpt><trkpt lat="45.72907" lon="11.2109033"><ele>775.0</ele><time>2026-04-23T12:42:55.316Z</time></trkpt><trkpt lat="45.72904" lon="11.2110217"><ele>774.9999999999999</ele><time>2026-04-23T12:42:58.317Z</time></trkpt><trkpt lat="45.72908" lon="11.2111083"><ele>775.0</ele><time>2026-04-23T12:43:03.316Z</time></trkpt><trkpt lat="45.729155" lon="11.2111583"><ele>775.0</ele><time>2026-04-23T12:43:06.316Z</time></trkpt><trkpt lat="45.7292583" lon="11.2111883"><ele>775.0</ele><time>2026-04-23T12:43:09.316Z</time></trkpt><trkpt lat="45.72935" lon="11.2111733"><ele>774.9999999999999</ele><time>2026-04-23T12:43:11.316Z</time></trkpt><trkpt lat="45.7294167" lon="11.2112217"><ele>775.0</ele><time>2026-04-23T12:43:13.316Z</time></trkpt><trkpt lat="45.7295083" lon="11.2112667"><ele>774.4999999999999</ele><time>2026-04-23T12:43:15.316Z</time></trkpt><trkpt lat="45.7295783" lon="11.21128"><ele>774.0</ele><time>2026-04-23T12:43:16.316Z</time></trkpt><trkpt lat="45.7296683" lon="11.2112667"><ele>773.5</ele><time>2026-04-23T12:43:17.316Z</time></trkpt><trkpt lat="45.7297533" lon="11.2112467"><ele>773.0</ele><time>2026-04-23T12:43:18.316Z</time></trkpt><trkpt lat="45.7298383" lon="11.211245"><ele>772.4999999999999</ele><time>2026-04-23T12:43:19.316Z</time></trkpt><trkpt lat="45.729925" lon="11.2112767"><ele>772.0</ele><time>2026-04-23T12:43:20.316Z</time></trkpt><trkpt lat="45.7300217" lon="11.21133"><ele>772.0</ele><time>2026-04-23T12:43:21.316Z</time></trkpt><trkpt lat="45.7301367" lon="11.2114133"><ele>772.0</ele><time>2026-04-23T12:43:22.317Z</time></trkpt><trkpt lat="45.73025" lon="11.2114917"><ele>772.0</ele><time>2026-04-23T12:43:23.316Z</time></trkpt><trkpt lat="45.7303567" lon="11.211535"><ele>772.0</ele><time>2026-04-23T12:43:24.316Z</time></trkpt><trkpt lat="45.7304417" lon="11.211565"><ele>769.4000000000001</ele><time>2026-04-23T12:43:25.316Z</time></trkpt><trkpt lat="45.7305033" lon="11.2116167"><ele>766.8000000000001</ele><time>2026-04-23T12:43:26.316Z</time></trkpt><trkpt lat="45.730525" lon="11.2117383"><ele>764.2</ele><time>2026-04-23T12:43:28.316Z</time></trkpt><trkpt lat="45.7304167" lon="11.2118917"><ele>761.6</ele><time>2026-04-23T12:43:30.316Z</time></trkpt><trkpt lat="45.7303217" lon="11.2119883"><ele>759.0</ele><time>2026-04-23T12:43:31.316Z</time></trkpt><trkpt lat="45.7302433" lon="11.2120683"><ele>759.0</ele><time>2026-04-23T12:43:32.317Z</time></trkpt><trkpt lat="45.730175" lon="11.2121483"><ele>759.0</ele><time>2026-04-23T12:43:33.317Z</time></trkpt><trkpt lat="45.7301083" lon="11.212225"><ele>759.0</ele><time>2026-04-23T12:43:34.317Z</time></trkpt><trkpt lat="45.7300233" lon="11.212325"><ele>759.0</ele><time>2026-04-23T12:43:35.317Z</time></trkpt><trkpt lat="45.7299283" lon="11.2124317"><ele>759.0</ele><time>2026-04-23T12:43:36.316Z</time></trkpt><trkpt lat="45.7298317" lon="11.2125433"><ele>756.25</ele><time>2026-04-23T12:43:37.316Z</time></trkpt><trkpt lat="45.7297367" lon="11.2126633"><ele>753.5</ele><time>2026-04-23T12:43:38.317Z</time></trkpt><trkpt lat="45.7296483" lon="11.2127883"><ele>750.75</ele><time>2026-04-23T12:43:39.316Z</time></trkpt><trkpt lat="45.7295783" lon="11.2129117"><ele>748.0</ele><time>2026-04-23T12:43:40.316Z</time></trkpt><trkpt lat="45.7295167" lon="11.21304"><ele>747.4</ele><time>2026-04-23T12:43:41.316Z</time></trkpt><trkpt lat="45.72946" lon="11.2131683"><ele>746.8</ele><time>2026-04-23T12:43:42.317Z</time></trkpt><trkpt lat="45.7294017" lon="11.2132983"><ele>746.2</ele><time>2026-04-23T12:43:43.316Z</time></trkpt><trkpt lat="45.7293367" lon="11.2134083"><ele>745.6</ele><time>2026-04-23T12:43:44.316Z</time></trkpt><trkpt lat="45.72927" lon="11.2135067"><ele>745.0</ele><time>2026-04-23T12:43:45.316Z</time></trkpt><trkpt lat="45.7292033" lon="11.2136133"><ele>745.0</ele><time>2026-04-23T12:43:46.316Z</time></trkpt><trkpt lat="45.72914" lon="11.2137183"><ele>745.0</ele><time>2026-04-23T12:43:47.317Z</time></trkpt><trkpt lat="45.7290933" lon="11.2138333"><ele>745.0</ele><time>2026-04-23T12:43:48.316Z</time></trkpt><trkpt lat="45.7290533" lon="11.21395"><ele>745.0</ele><time>2026-04-23T12:43:49.316Z</time></trkpt><trkpt lat="45.729025" lon="11.2140683"><ele>745.0</ele><time>2026-04-23T12:43:50.317Z</time></trkpt><trkpt lat="45.7289833" lon="11.2141833"><ele>742.2</ele><time>2026-04-23T12:43:51.316Z</time></trkpt><trkpt lat="45.7289267" lon="11.2142883"><ele>739.4</ele><time>2026-04-23T12:43:52.316Z</time></trkpt><trkpt lat="45.728855" lon="11.2143783"><ele>736.5999999999999</ele><time>2026-04-23T12:43:53.316Z</time></trkpt><trkpt lat="45.7287483" lon="11.2144517"><ele>733.8</ele><time>2026-04-23T12:43:54.317Z</time></trkpt><trkpt lat="45.7286117" lon="11.2145133"><ele>731.0</ele><time>2026-04-23T12:43:55.316Z</time></trkpt><trkpt lat="45.7284883" lon="11.2145667"><ele>730.8</ele><time>2026-04-23T12:43:56.316Z</time></trkpt><trkpt lat="45.72839" lon="11.21461"><ele>730.5999999999999</ele><time>2026-04-23T12:43:57.316Z</time></trkpt><trkpt lat="45.7283183" lon="11.214655"><ele>730.4</ele><time>2026-04-23T12:43:58.316Z</time></trkpt><trkpt lat="45.7282283" lon="11.2147633"><ele>730.2</ele><time>2026-04-23T12:44:00.316Z</time></trkpt><trkpt lat="45.7282033" lon="11.214895"><ele>730.0</ele><time>2026-04-23T12:44:02.317Z</time></trkpt><trkpt lat="45.7281917" lon="11.21501"><ele>727.75</ele><time>2026-04-23T12:44:04.316Z</time></trkpt><trkpt lat="45.7282833" lon="11.2150867"><ele>725.5</ele><time>2026-04-23T12:44:14.317Z</time></trkpt><trkpt lat="45.72839" lon="11.215145"><ele>723.25</ele><time>2026-04-23T12:44:16.317Z</time></trkpt><trkpt lat="45.7284317" lon="11.2152717"><ele>721.0</ele><time>2026-04-23T12:44:18.316Z</time></trkpt><trkpt lat="45.7283633" lon="11.21546"><ele>721.0</ele><time>2026-04-23T12:44:20.316Z</time></trkpt><trkpt lat="45.72827" lon="11.2155883"><ele>721.0</ele><time>2026-04-23T12:44:21.316Z</time></trkpt><trkpt lat="45.7281667" lon="11.215685"><ele>721.0</ele><time>2026-04-23T12:44:22.317Z</time></trkpt><trkpt lat="45.7280667" lon="11.2157617"><ele>721.0</ele><time>2026-04-23T12:44:23.316Z</time></trkpt><trkpt lat="45.7279983" lon="11.21581"><ele>721.0</ele><time>2026-04-23T12:44:24.316Z</time></trkpt><trkpt lat="45.7279367" lon="11.2158467"><ele>719.0</ele><time>2026-04-23T12:44:26.317Z</time></trkpt><trkpt lat="45.7279933" lon="11.215965"><ele>717.0</ele><time>2026-04-23T12:44:38.315Z</time></trkpt><trkpt lat="45.7281067" lon="11.2160133"><ele>715.0</ele><time>2026-04-23T12:44:40.315Z</time></trkpt><trkpt lat="45.72819" lon="11.2160117"><ele>713.0</ele><time>2026-04-23T12:44:41.315Z</time></trkpt><trkpt lat="45.7282783" lon="11.2159667"><ele>711.0</ele><time>2026-04-23T12:44:42.316Z</time></trkpt><trkpt lat="45.728355" lon="11.215905"><ele>711.0</ele><time>2026-04-23T12:44:43.315Z</time></trkpt><trkpt lat="45.728425" lon="11.2158633"><ele>711.0</ele><time>2026-04-23T12:44:44.315Z</time></trkpt><trkpt lat="45.728505" lon="11.2159"><ele>711.0</ele><time>2026-04-23T12:44:46.315Z</time></trkpt><trkpt lat="45.728505" lon="11.21602"><ele>711.0</ele><time>2026-04-23T12:44:48.315Z</time></trkpt><trkpt lat="45.7284467" lon="11.2161267"><ele>711.0</ele><time>2026-04-23T12:44:49.316Z</time></trkpt><trkpt lat="45.7283717" lon="11.2162417"><ele>711.0</ele><time>2026-04-23T12:44:50.315Z</time></trkpt><trkpt lat="45.7283333" lon="11.216365"><ele>711.0</ele><time>2026-04-23T12:44:51.315Z</time></trkpt><trkpt lat="45.728335" lon="11.2164783"><ele>711.0</ele><time>2026-04-23T12:44:52.316Z</time></trkpt><trkpt lat="45.7283767" lon="11.2165717"><ele>711.0</ele><time>2026-04-23T12:44:53.316Z</time></trkpt><trkpt lat="45.72846" lon="11.216655"><ele>711.0</ele><time>2026-04-23T12:44:54.315Z</time></trkpt><trkpt lat="45.7285867" lon="11.2167367"><ele>711.0</ele><time>2026-04-23T12:44:55.315Z</time></trkpt><trkpt lat="45.7286933" lon="11.2168367"><ele>708.5999999999999</ele><time>2026-04-23T12:44:56.316Z</time></trkpt><trkpt lat="45.7287717" lon="11.2169567"><ele>706.2</ele><time>2026-04-23T12:44:57.315Z</time></trkpt><trkpt lat="45.7288217" lon="11.2170867"><ele>703.8</ele><time>2026-04-23T12:44:58.315Z</time></trkpt><trkpt lat="45.7288433" lon="11.21722"><ele>701.4000000000001</ele><time>2026-04-23T12:44:59.315Z</time></trkpt><trkpt lat="45.7288483" lon="11.2173733"><ele>699.0</ele><time>2026-04-23T12:45:00.316Z</time></trkpt><trkpt lat="45.728845" lon="11.2175233"><ele>697.0</ele><time>2026-04-23T12:45:01.316Z</time></trkpt><trkpt lat="45.728845" lon="11.2176733"><ele>695.0</ele><time>2026-04-23T12:45:02.315Z</time></trkpt><trkpt lat="45.7288533" lon="11.217825"><ele>693.0</ele><time>2026-04-23T12:45:03.315Z</time></trkpt><trkpt lat="45.728875" lon="11.21798"><ele>691.0</ele><time>2026-04-23T12:45:04.315Z</time></trkpt><trkpt lat="45.7288717" lon="11.21812"><ele>689.0</ele><time>2026-04-23T12:45:05.315Z</time></trkpt><trkpt lat="45.7288533" lon="11.2182667"><ele>687.25</ele><time>2026-04-23T12:45:06.315Z</time></trkpt><trkpt lat="45.7287967" lon="11.2184283"><ele>685.5</ele><time>2026-04-23T12:45:07.316Z</time></trkpt><trkpt lat="45.7287217" lon="11.2185883"><ele>683.75</ele><time>2026-04-23T12:45:08.315Z</time></trkpt><trkpt lat="45.7286517" lon="11.21877"><ele>682.0</ele><time>2026-04-23T12:45:09.315Z</time></trkpt><trkpt lat="45.7285783" lon="11.2189483"><ele>679.25</ele><time>2026-04-23T12:45:10.316Z</time></trkpt><trkpt lat="45.728505" lon="11.2191217"><ele>676.5</ele><time>2026-04-23T12:45:11.316Z</time></trkpt><trkpt lat="45.7284183" lon="11.2193"><ele>673.75</ele><time>2026-04-23T12:45:12.315Z</time></trkpt><trkpt lat="45.7283167" lon="11.219445"><ele>671.0</ele><time>2026-04-23T12:45:13.315Z</time></trkpt><trkpt lat="45.728225" lon="11.2195617"><ele>671.0</ele><time>2026-04-23T12:45:14.315Z</time></trkpt><trkpt lat="45.728135" lon="11.2196983"><ele>671.0</ele><time>2026-04-23T12:45:15.315Z</time></trkpt><trkpt lat="45.7280733" lon="11.2198467"><ele>671.0</ele><time>2026-04-23T12:45:16.315Z</time></trkpt><trkpt lat="45.7280483" lon="11.2199767"><ele>671.0</ele><time>2026-04-23T12:45:17.315Z</time></trkpt><trkpt lat="45.7280517" lon="11.2201367"><ele>669.1999999999999</ele><time>2026-04-23T12:45:18.315Z</time></trkpt><trkpt lat="45.728035" lon="11.2202833"><ele>667.4</ele><time>2026-04-23T12:45:19.315Z</time></trkpt><trkpt lat="45.72799" lon="11.2203867"><ele>665.6</ele><time>2026-04-23T12:45:20.315Z</time></trkpt><trkpt lat="45.7279217" lon="11.2204633"><ele>663.8</ele><time>2026-04-23T12:45:21.315Z</time></trkpt><trkpt lat="45.72783" lon="11.22052"><ele>662.0</ele><time>2026-04-23T12:45:22.316Z</time></trkpt><trkpt lat="45.72774" lon="11.2205767"><ele>660.5</ele><time>2026-04-23T12:45:23.315Z</time></trkpt><trkpt lat="45.7276583" lon="11.22066"><ele>659.0</ele><time>2026-04-23T12:45:24.315Z</time></trkpt><trkpt lat="45.7276133" lon="11.2207333"><ele>657.5</ele><time>2026-04-23T12:45:25.315Z</time></trkpt><trkpt lat="45.72756" lon="11.2208167"><ele>656.0</ele><time>2026-04-23T12:45:27.316Z</time></trkpt><trkpt lat="45.727505" lon="11.220715"><ele>654.5</ele><time>2026-04-23T12:45:30.315Z</time></trkpt><trkpt lat="45.7275017" lon="11.220595"><ele>653.0</ele><time>2026-04-23T12:45:31.315Z</time></trkpt><trkpt lat="45.7275" lon="11.2204317"><ele>653.0</ele><time>2026-04-23T12:45:32.315Z</time></trkpt><trkpt lat="45.7275033" lon="11.220225"><ele>653.0</ele><time>2026-04-23T12:45:33.315Z</time></trkpt><trkpt lat="45.72749" lon="11.2199733"><ele>653.0</ele><time>2026-04-23T12:45:34.315Z</time></trkpt><trkpt lat="45.7274733" lon="11.2197667"><ele>654.5999999999999</ele><time>2026-04-23T12:45:35.316Z</time></trkpt><trkpt lat="45.7274617" lon="11.2196067"><ele>656.1999999999999</ele><time>2026-04-23T12:45:36.315Z</time></trkpt><trkpt lat="45.7274483" lon="11.2194717"><ele>657.8</ele><time>2026-04-23T12:45:37.315Z</time></trkpt><trkpt lat="45.727425" lon="11.219335"><ele>659.4</ele><time>2026-04-23T12:45:38.315Z</time></trkpt><trkpt lat="45.7274033" lon="11.2192083"><ele>661.0</ele><time>2026-04-23T12:45:39.315Z</time></trkpt><trkpt lat="45.727365" lon="11.2191017"><ele>661.0</ele><time>2026-04-23T12:45:40.315Z</time></trkpt><trkpt lat="45.7273283" lon="11.2189967"><ele>661.0</ele><time>2026-04-23T12:45:41.315Z</time></trkpt><trkpt lat="45.727275" lon="11.2189183"><ele>661.0</ele><time>2026-04-23T12:45:42.316Z</time></trkpt><trkpt lat="45.7271683" lon="11.2188183"><ele>661.0</ele><time>2026-04-23T12:45:44.315Z</time></trkpt><trkpt lat="45.7270333" lon="11.218865"><ele>661.0</ele><time>2026-04-23T12:45:46.315Z</time></trkpt><trkpt lat="45.72699" lon="11.2189517"><ele>661.0</ele><time>2026-04-23T12:45:47.315Z</time></trkpt><trkpt lat="45.7269617" lon="11.21907"><ele>661.0</ele><time>2026-04-23T12:45:48.315Z</time></trkpt><trkpt lat="45.726945" lon="11.2192183"><ele>661.0</ele><time>2026-04-23T12:45:49.315Z</time></trkpt><trkpt lat="45.7269517" lon="11.2194183"><ele>661.0</ele><time>2026-04-23T12:45:50.315Z</time></trkpt><trkpt lat="45.7269617" lon="11.2196183"><ele>661.0</ele><time>2026-04-23T12:45:51.316Z</time></trkpt><trkpt lat="45.726955" lon="11.2198133"><ele>661.0</ele><time>2026-04-23T12:45:52.316Z</time></trkpt><trkpt lat="45.7269333" lon="11.2200083"><ele>661.0</ele><time>2026-04-23T12:45:53.315Z</time></trkpt><trkpt lat="45.7268983" lon="11.220195"><ele>661.0</ele><time>2026-04-23T12:45:54.316Z</time></trkpt><trkpt lat="45.7268583" lon="11.2203767"><ele>662.25</ele><time>2026-04-23T12:45:55.315Z</time></trkpt><trkpt lat="45.7268" lon="11.220555"><ele>663.5</ele><time>2026-04-23T12:45:56.316Z</time></trkpt><trkpt lat="45.7267283" lon="11.2207267"><ele>664.75</ele><time>2026-04-23T12:45:57.315Z</time></trkpt><trkpt lat="45.72668" lon="11.2209117"><ele>666.0</ele><time>2026-04-23T12:45:58.315Z</time></trkpt><trkpt lat="45.7266333" lon="11.221115"><ele>663.25</ele><time>2026-04-23T12:45:59.316Z</time></trkpt><trkpt lat="45.7265983" lon="11.2213133"><ele>660.5</ele><time>2026-04-23T12:46:00.315Z</time></trkpt><trkpt lat="45.7265767" lon="11.2214833"><ele>657.75</ele><time>2026-04-23T12:46:01.315Z</time></trkpt><trkpt lat="45.7265767" lon="11.2216283"><ele>655.0</ele><time>2026-04-23T12:46:02.316Z</time></trkpt><trkpt lat="45.7265717" lon="11.2217667"><ele>653.5714285714286</ele><time>2026-04-23T12:46:03.315Z</time></trkpt><trkpt lat="45.72656" lon="11.221885"><ele>652.1428571428571</ele><time>2026-04-23T12:46:04.316Z</time></trkpt><trkpt lat="45.7265367" lon="11.2219767"><ele>650.7142857142858</ele><time>2026-04-23T12:46:05.315Z</time></trkpt><trkpt lat="45.7265" lon="11.222065"><ele>649.2857142857142</ele><time>2026-04-23T12:46:06.315Z</time></trkpt><trkpt lat="45.7264467" lon="11.2221183"><ele>647.8571428571428</ele><time>2026-04-23T12:46:07.315Z</time></trkpt><trkpt lat="45.726385" lon="11.222165"><ele>646.4285714285714</ele><time>2026-04-23T12:46:08.316Z</time></trkpt><trkpt lat="45.726315" lon="11.222225"><ele>645.0</ele><time>2026-04-23T12:46:09.315Z</time></trkpt><trkpt lat="45.7262567" lon="11.2223067"><ele>643.6</ele><time>2026-04-23T12:46:10.315Z</time></trkpt><trkpt lat="45.7262333" lon="11.2224267"><ele>642.2</ele><time>2026-04-23T12:46:11.315Z</time></trkpt><trkpt lat="45.72624" lon="11.2225633"><ele>640.8</ele><time>2026-04-23T12:46:12.316Z</time></trkpt><trkpt lat="45.7262533" lon="11.222715"><ele>639.4</ele><time>2026-04-23T12:46:13.315Z</time></trkpt><trkpt lat="45.726265" lon="11.2228517"><ele>638.0</ele><time>2026-04-23T12:46:14.315Z</time></trkpt><trkpt lat="45.72624" lon="11.2229717"><ele>638.0</ele><time>2026-04-23T12:46:15.316Z</time></trkpt><trkpt lat="45.72619" lon="11.22309"><ele>638.0</ele><time>2026-04-23T12:46:16.316Z</time></trkpt><trkpt lat="45.7261417" lon="11.22321"><ele>638.0</ele><time>2026-04-23T12:46:17.315Z</time></trkpt><trkpt lat="45.72609" lon="11.223305"><ele>638.0</ele><time>2026-04-23T12:46:18.316Z</time></trkpt><trkpt lat="45.72604" lon="11.22339"><ele>638.0</ele><time>2026-04-23T12:46:20.315Z</time></trkpt><trkpt lat="45.72608" lon="11.2234783"><ele>638.0</ele><time>2026-04-23T12:46:23.315Z</time></trkpt><trkpt lat="45.7260317" lon="11.22354"><ele>637.4</ele><time>2026-04-23T12:46:30.315Z</time></trkpt><trkpt lat="45.7259533" lon="11.2235967"><ele>636.8</ele><time>2026-04-23T12:46:32.315Z</time></trkpt><trkpt lat="45.7259067" lon="11.22371"><ele>636.2</ele><time>2026-04-23T12:46:34.315Z</time></trkpt><trkpt lat="45.7259117" lon="11.2238917"><ele>635.6</ele><time>2026-04-23T12:46:36.315Z</time></trkpt><trkpt lat="45.725945" lon="11.22402"><ele>635.0</ele><time>2026-04-23T12:46:38.316Z</time></trkpt><trkpt lat="45.7259983" lon="11.2240983"><ele>633.4</ele><time>2026-04-23T12:46:40.316Z</time></trkpt><trkpt lat="45.726025" lon="11.2242733"><ele>631.8</ele><time>2026-04-23T12:46:42.315Z</time></trkpt><trkpt lat="45.7260367" lon="11.2244233"><ele>630.2</ele><time>2026-04-23T12:46:43.315Z</time></trkpt><trkpt lat="45.7260483" lon="11.2245483"><ele>628.6</ele><time>2026-04-23T12:46:44.315Z</time></trkpt><trkpt lat="45.7260533" lon="11.22464"><ele>627.0</ele><time>2026-04-23T12:46:45.316Z</time></trkpt><trkpt lat="45.7260817" lon="11.2248017"><ele>625.2</ele><time>2026-04-23T12:46:47.315Z</time></trkpt><trkpt lat="45.7261" lon="11.2248883"><ele>623.4000000000001</ele><time>2026-04-23T12:46:48.316Z</time></trkpt><trkpt lat="45.7260717" lon="11.22505"><ele>621.5999999999999</ele><time>2026-04-23T12:46:50.315Z</time></trkpt><trkpt lat="45.7260317" lon="11.2251467"><ele>619.8</ele><time>2026-04-23T12:46:51.316Z</time></trkpt><trkpt lat="45.7259917" lon="11.22527"><ele>618.0</ele><time>2026-04-23T12:46:52.315Z</time></trkpt><trkpt lat="45.7259717" lon="11.2254383"><ele>615.0</ele><time>2026-04-23T12:46:53.316Z</time></trkpt><trkpt lat="45.7259433" lon="11.22567"><ele>612.0</ele><time>2026-04-23T12:46:54.315Z</time></trkpt><trkpt lat="45.7259083" lon="11.2258583"><ele>609.0</ele><time>2026-04-23T12:46:55.315Z</time></trkpt><trkpt lat="45.7258767" lon="11.2260417"><ele>606.0</ele><time>2026-04-23T12:46:56.315Z</time></trkpt><trkpt lat="45.7258467" lon="11.2262283"><ele>606.0</ele><time>2026-04-23T12:46:57.315Z</time></trkpt><trkpt lat="45.7258267" lon="11.2264033"><ele>606.0</ele><time>2026-04-23T12:46:58.315Z</time></trkpt><trkpt lat="45.7258283" lon="11.22657"><ele>606.0</ele><time>2026-04-23T12:46:59.315Z</time></trkpt><trkpt lat="45.725845" lon="11.2267317"><ele>606.0</ele><time>2026-04-23T12:47:00.316Z</time></trkpt><trkpt lat="45.72587" lon="11.2268833"><ele>604.8333333333334</ele><time>2026-04-23T12:47:01.315Z</time></trkpt><trkpt lat="45.7258883" lon="11.227035"><ele>603.6666666666666</ele><time>2026-04-23T12:47:02.315Z</time></trkpt><trkpt lat="45.7259133" lon="11.2271767"><ele>602.5</ele><time>2026-04-23T12:47:03.315Z</time></trkpt><trkpt lat="45.7259317" lon="11.2272983"><ele>601.3333333333333</ele><time>2026-04-23T12:47:04.315Z</time></trkpt><trkpt lat="45.72595" lon="11.2273917"><ele>600.1666666666666</ele><time>2026-04-23T12:47:05.315Z</time></trkpt><trkpt lat="45.725965" lon="11.2274833"><ele>599.0</ele><time>2026-04-23T12:47:07.315Z</time></trkpt><trkpt lat="45.72599" lon="11.227585"><ele>597.4</ele><time>2026-04-23T12:47:09.315Z</time></trkpt><trkpt lat="45.7260333" lon="11.227665"><ele>595.8</ele><time>2026-04-23T12:47:10.315Z</time></trkpt><trkpt lat="45.7260983" lon="11.2277567"><ele>594.2</ele><time>2026-04-23T12:47:11.315Z</time></trkpt><trkpt lat="45.7261883" lon="11.2278433"><ele>592.6</ele><time>2026-04-23T12:47:12.316Z</time></trkpt><trkpt lat="45.7262833" lon="11.2279283"><ele>591.0</ele><time>2026-04-23T12:47:13.316Z</time></trkpt><trkpt lat="45.7263617" lon="11.2280233"><ele>590.8333333333334</ele><time>2026-04-23T12:47:14.315Z</time></trkpt><trkpt lat="45.7264133" lon="11.2281183"><ele>590.6666666666666</ele><time>2026-04-23T12:47:15.315Z</time></trkpt><trkpt lat="45.726425" lon="11.2282267"><ele>590.5</ele><time>2026-04-23T12:47:16.315Z</time></trkpt><trkpt lat="45.7264267" lon="11.2283333"><ele>590.3333333333333</ele><time>2026-04-23T12:47:17.315Z</time></trkpt><trkpt lat="45.726375" lon="11.2284467"><ele>590.1666666666666</ele><time>2026-04-23T12:47:18.316Z</time></trkpt><trkpt lat="45.7263" lon="11.22857"><ele>590.0</ele><time>2026-04-23T12:47:19.316Z</time></trkpt><trkpt lat="45.726195" lon="11.2287"><ele>588.75</ele><time>2026-04-23T12:47:20.316Z</time></trkpt><trkpt lat="45.726075" lon="11.2288533"><ele>587.5</ele><time>2026-04-23T12:47:21.315Z</time></trkpt><trkpt lat="45.7259883" lon="11.2289783"><ele>586.25</ele><time>2026-04-23T12:47:22.316Z</time></trkpt><trkpt lat="45.72593" lon="11.2290883"><ele>585.0</ele><time>2026-04-23T12:47:23.316Z</time></trkpt><trkpt lat="45.7259217" lon="11.2291967"><ele>583.8</ele><time>2026-04-23T12:47:24.315Z</time></trkpt><trkpt lat="45.725935" lon="11.2292967"><ele>582.6</ele><time>2026-04-23T12:47:25.315Z</time></trkpt><trkpt lat="45.7260133" lon="11.2293817"><ele>581.4</ele><time>2026-04-23T12:47:27.315Z</time></trkpt><trkpt lat="45.7260733" lon="11.2294267"><ele>580.2</ele><time>2026-04-23T12:47:30.315Z</time></trkpt><trkpt lat="45.7259967" lon="11.22937"><ele>579.0</ele><time>2026-04-23T12:47:33.315Z</time></trkpt><trkpt lat="45.7258883" lon="11.2292533"><ele>579.6</ele><time>2026-04-23T12:47:35.315Z</time></trkpt><trkpt lat="45.72584" lon="11.2291717"><ele>580.2</ele><time>2026-04-23T12:47:36.315Z</time></trkpt><trkpt lat="45.7257967" lon="11.2290267"><ele>580.8000000000001</ele><time>2026-04-23T12:47:37.316Z</time></trkpt><trkpt lat="45.7257533" lon="11.2288567"><ele>581.4</ele><time>2026-04-23T12:47:38.316Z</time></trkpt><trkpt lat="45.7256983" lon="11.2286817"><ele>582.0</ele><time>2026-04-23T12:47:39.315Z</time></trkpt><trkpt lat="45.72563" lon="11.2285167"><ele>582.0</ele><time>2026-04-23T12:47:40.315Z</time></trkpt><trkpt lat="45.7255517" lon="11.22835"><ele>582.0</ele><time>2026-04-23T12:47:41.315Z</time></trkpt><trkpt lat="45.7254683" lon="11.2281933"><ele>582.0</ele><time>2026-04-23T12:47:42.315Z</time></trkpt><trkpt lat="45.7254" lon="11.2280567"><ele>582.0</ele><time>2026-04-23T12:47:43.315Z</time></trkpt><trkpt lat="45.7253183" lon="11.2279383"><ele>582.25</ele><time>2026-04-23T12:47:44.316Z</time></trkpt><trkpt lat="45.725225" lon="11.22782"><ele>582.5</ele><time>2026-04-23T12:47:45.315Z</time></trkpt><trkpt lat="45.7251067" lon="11.2277067"><ele>582.75</ele><time>2026-04-23T12:47:46.316Z</time></trkpt><trkpt lat="45.724985" lon="11.22759"><ele>583.0</ele><time>2026-04-23T12:47:47.315Z</time></trkpt><trkpt lat="45.7248483" lon="11.22748"><ele>583.0</ele><time>2026-04-23T12:47:48.315Z</time></trkpt><trkpt lat="45.7247267" lon="11.227375"><ele>583.0</ele><time>2026-04-23T12:47:49.315Z</time></trkpt><trkpt lat="45.724615" lon="11.22729"><ele>583.0</ele><time>2026-04-23T12:47:50.316Z</time></trkpt><trkpt lat="45.724505" lon="11.2272183"><ele>583.0</ele><time>2026-04-23T12:47:51.315Z</time></trkpt><trkpt lat="45.7243833" lon="11.2271617"><ele>583.25</ele><time>2026-04-23T12:47:52.316Z</time></trkpt><trkpt lat="45.7242583" lon="11.2271133"><ele>583.5</ele><time>2026-04-23T12:47:53.315Z</time></trkpt><trkpt lat="45.724145" lon="11.2270767"><ele>583.75</ele><time>2026-04-23T12:47:54.315Z</time></trkpt><trkpt lat="45.7240283" lon="11.2270617"><ele>584.0</ele><time>2026-04-23T12:47:55.315Z</time></trkpt><trkpt lat="45.7239083" lon="11.2270533"><ele>584.0</ele><time>2026-04-23T12:47:56.315Z</time></trkpt><trkpt lat="45.7237883" lon="11.2270583"><ele>584.0</ele><time>2026-04-23T12:47:57.315Z</time></trkpt><trkpt lat="45.7236633" lon="11.2270333"><ele>584.0</ele><time>2026-04-23T12:47:58.315Z</time></trkpt><trkpt lat="45.7235433" lon="11.227"><ele>584.0</ele><time>2026-04-23T12:47:59.314Z</time></trkpt><trkpt lat="45.7234283" lon="11.2269483"><ele>581.8</ele><time>2026-04-23T12:48:00.314Z</time></trkpt><trkpt lat="45.7233183" lon="11.2269117"><ele>579.5999999999999</ele><time>2026-04-23T12:48:01.314Z</time></trkpt><trkpt lat="45.7232133" lon="11.2268733"><ele>577.4</ele><time>2026-04-23T12:48:02.315Z</time></trkpt><trkpt lat="45.72312" lon="11.2268283"><ele>575.1999999999999</ele><time>2026-04-23T12:48:03.315Z</time></trkpt><trkpt lat="45.723035" lon="11.226795"><ele>573.0</ele><time>2026-04-23T12:48:04.314Z</time></trkpt><trkpt lat="45.722955" lon="11.226775"><ele>573.0</ele><time>2026-04-23T12:48:05.315Z</time></trkpt><trkpt lat="45.7228817" lon="11.226765"><ele>573.0</ele><time>2026-04-23T12:48:06.315Z</time></trkpt><trkpt lat="45.7228033" lon="11.22678"><ele>573.0</ele><time>2026-04-23T12:48:07.314Z</time></trkpt><trkpt lat="45.722725" lon="11.2268267"><ele>573.0</ele><time>2026-04-23T12:48:08.314Z</time></trkpt><trkpt lat="45.7226617" lon="11.226875"><ele>573.0</ele><time>2026-04-23T12:48:09.314Z</time></trkpt><trkpt lat="45.7225833" lon="11.226985"><ele>573.0</ele><time>2026-04-23T12:48:11.314Z</time></trkpt><trkpt lat="45.7225833" lon="11.22708"><ele>572.6</ele><time>2026-04-23T12:48:13.315Z</time></trkpt><trkpt lat="45.7226333" lon="11.2271783"><ele>572.1999999999999</ele><time>2026-04-23T12:48:15.314Z</time></trkpt><trkpt lat="45.7226167" lon="11.2272833"><ele>571.8</ele><time>2026-04-23T12:48:17.315Z</time></trkpt><trkpt lat="45.72255" lon="11.2273967"><ele>571.4</ele><time>2026-04-23T12:48:19.315Z</time></trkpt><trkpt lat="45.7224783" lon="11.2274717"><ele>571.0</ele><time>2026-04-23T12:48:20.315Z</time></trkpt><trkpt lat="45.7223767" lon="11.22758"><ele>573.75</ele><time>2026-04-23T12:48:21.314Z</time></trkpt><trkpt lat="45.7222517" lon="11.22772"><ele>576.5</ele><time>2026-04-23T12:48:22.314Z</time></trkpt><trkpt lat="45.7221617" lon="11.2278533"><ele>579.25</ele><time>2026-04-23T12:48:23.314Z</time></trkpt><trkpt lat="45.7220967" lon="11.2279767"><ele>582.0</ele><time>2026-04-23T12:48:24.315Z</time></trkpt><trkpt lat="45.72204" lon="11.2280583"><ele>582.0</ele><time>2026-04-23T12:48:25.314Z</time></trkpt><trkpt lat="45.722" lon="11.2281317"><ele>582.0</ele><time>2026-04-23T12:48:26.315Z</time></trkpt><trkpt lat="45.72202" lon="11.22823"><ele>582.0</ele><time>2026-04-23T12:48:29.314Z</time></trkpt><trkpt lat="45.722095" lon="11.2282067"><ele>582.0</ele><time>2026-04-23T12:48:30.314Z</time></trkpt><trkpt lat="45.7221933" lon="11.2281583"><ele>582.0</ele><time>2026-04-23T12:48:31.315Z</time></trkpt><trkpt lat="45.7222917" lon="11.2281133"><ele>582.0</ele><time>2026-04-23T12:48:32.314Z</time></trkpt><trkpt lat="45.7223767" lon="11.2280933"><ele>582.0</ele><time>2026-04-23T12:48:33.314Z</time></trkpt><trkpt lat="45.7224783" lon="11.2281283"><ele>582.0</ele><time>2026-04-23T12:48:35.314Z</time></trkpt><trkpt lat="45.722475" lon="11.2282233"><ele>582.0</ele><time>2026-04-23T12:48:37.314Z</time></trkpt><trkpt lat="45.72241" lon="11.2283733"><ele>582.0</ele><time>2026-04-23T12:48:39.314Z</time></trkpt><trkpt lat="45.7223433" lon="11.2284967"><ele>582.0</ele><time>2026-04-23T12:48:40.314Z</time></trkpt><trkpt lat="45.722265" lon="11.2286217"><ele>588.0</ele><time>2026-04-23T12:48:41.314Z</time></trkpt><trkpt lat="45.722185" lon="11.2287733"><ele>594.0</ele><time>2026-04-23T12:48:42.314Z</time></trkpt><trkpt lat="45.7221067" lon="11.2289217"><ele>600.0</ele><time>2026-04-23T12:48:43.314Z</time></trkpt><trkpt lat="45.7220433" lon="11.2290567"><ele>606.0</ele><time>2026-04-23T12:48:44.315Z</time></trkpt><trkpt lat="45.72199" lon="11.2291617"><ele>610.2</ele><time>2026-04-23T12:48:45.314Z</time></trkpt><trkpt lat="45.721945" lon="11.229245"><ele>614.4000000000001</ele><time>2026-04-23T12:48:46.314Z</time></trkpt><trkpt lat="45.7219183" lon="11.229375"><ele>618.6</ele><time>2026-04-23T12:48:48.314Z</time></trkpt><trkpt lat="45.7220417" lon="11.22931"><ele>622.8000000000001</ele><time>2026-04-23T12:48:51.314Z</time></trkpt><trkpt lat="45.722115" lon="11.22923"><ele>627.0</ele><time>2026-04-23T12:48:52.314Z</time></trkpt><trkpt lat="45.7222233" lon="11.229115"><ele>627.0</ele><time>2026-04-23T12:48:53.314Z</time></trkpt><trkpt lat="45.7223583" lon="11.2289933"><ele>627.0</ele><time>2026-04-23T12:48:54.314Z</time></trkpt><trkpt lat="45.7224833" lon="11.2288833"><ele>627.0</ele><time>2026-04-23T12:48:55.314Z</time></trkpt><trkpt lat="45.7226017" lon="11.2287983"><ele>627.0</ele><time>2026-04-23T12:48:56.314Z</time></trkpt><trkpt lat="45.7227033" lon="11.22873"><ele>627.0</ele><time>2026-04-23T12:48:57.315Z</time></trkpt><trkpt lat="45.72277" lon="11.2286883"><ele>627.0</ele><time>2026-04-23T12:48:58.314Z</time></trkpt><trkpt lat="45.7228767" lon="11.2286767"><ele>627.0</ele><time>2026-04-23T12:49:00.315Z</time></trkpt><trkpt lat="45.722925" lon="11.2287667"><ele>627.0</ele><time>2026-04-23T12:49:02.314Z</time></trkpt><trkpt lat="45.72288" lon="11.22889"><ele>627.0</ele><time>2026-04-23T12:49:04.315Z</time></trkpt><trkpt lat="45.7228267" lon="11.2289617"><ele>627.0</ele><time>2026-04-23T12:49:05.314Z</time></trkpt><trkpt lat="45.7227617" lon="11.2290617"><ele>627.0</ele><time>2026-04-23T12:49:06.313Z</time></trkpt><trkpt lat="45.7226767" lon="11.2291783"><ele>627.0</ele><time>2026-04-23T12:49:07.314Z</time></trkpt><trkpt lat="45.7225883" lon="11.2292917"><ele>627.0</ele><time>2026-04-23T12:49:08.314Z</time></trkpt><trkpt lat="45.7225083" lon="11.22939"><ele>627.0</ele><time>2026-04-23T12:49:09.314Z</time></trkpt><trkpt lat="45.7224567" lon="11.229495"><ele>627.0</ele><time>2026-04-23T12:49:10.315Z</time></trkpt><trkpt lat="45.7224367" lon="11.229605"><ele>627.0</ele><time>2026-04-23T12:49:11.314Z</time></trkpt><trkpt lat="45.7224267" lon="11.2297317"><ele>627.0</ele><time>2026-04-23T12:49:12.314Z</time></trkpt><trkpt lat="45.7224483" lon="11.2298683"><ele>627.0</ele><time>2026-04-23T12:49:13.314Z</time></trkpt><trkpt lat="45.722465" lon="11.2300033"><ele>627.0</ele><time>2026-04-23T12:49:14.314Z</time></trkpt><trkpt lat="45.7224683" lon="11.230125"><ele>627.0</ele><time>2026-04-23T12:49:15.314Z</time></trkpt><trkpt lat="45.7224733" lon="11.2302417"><ele>627.0</ele><time>2026-04-23T12:49:16.314Z</time></trkpt><trkpt lat="45.7224717" lon="11.2303417"><ele>628.0</ele><time>2026-04-23T12:49:17.314Z</time></trkpt><trkpt lat="45.72246" lon="11.2304317"><ele>629.0</ele><time>2026-04-23T12:49:18.314Z</time></trkpt><trkpt lat="45.7223783" lon="11.2305067"><ele>630.0</ele><time>2026-04-23T12:49:20.314Z</time></trkpt><trkpt lat="45.7223167" lon="11.2305317"><ele>631.0</ele><time>2026-04-23T12:49:21.314Z</time></trkpt><trkpt lat="45.7222317" lon="11.23055"><ele>632.0</ele><time>2026-04-23T12:49:22.314Z</time></trkpt><trkpt lat="45.7221083" lon="11.2305883"><ele>633.0</ele><time>2026-04-23T12:49:23.314Z</time></trkpt><trkpt lat="45.7220017" lon="11.2306517"><ele>637.8</ele><time>2026-04-23T12:49:24.314Z</time></trkpt><trkpt lat="45.72189" lon="11.2307"><ele>642.5999999999999</ele><time>2026-04-23T12:49:25.315Z</time></trkpt><trkpt lat="45.7217817" lon="11.23072"><ele>647.4000000000001</ele><time>2026-04-23T12:49:26.314Z</time></trkpt><trkpt lat="45.72169" lon="11.230755"><ele>652.2</ele><time>2026-04-23T12:49:27.314Z</time></trkpt><trkpt lat="45.72161" lon="11.230805"><ele>657.0</ele><time>2026-04-23T12:49:28.315Z</time></trkpt><trkpt lat="45.7215333" lon="11.23088"><ele>657.0</ele><time>2026-04-23T12:49:29.315Z</time></trkpt><trkpt lat="45.7214567" lon="11.2309667"><ele>657.0</ele><time>2026-04-23T12:49:30.315Z</time></trkpt><trkpt lat="45.7213633" lon="11.2310567"><ele>657.0</ele><time>2026-04-23T12:49:31.314Z</time></trkpt><trkpt lat="45.7212917" lon="11.2311367"><ele>657.0</ele><time>2026-04-23T12:49:32.314Z</time></trkpt><trkpt lat="45.7212283" lon="11.231205"><ele>657.0</ele><time>2026-04-23T12:49:33.314Z</time></trkpt><trkpt lat="45.7211667" lon="11.23129"><ele>657.0</ele><time>2026-04-23T12:49:34.314Z</time></trkpt><trkpt lat="45.7211017" lon="11.2313933"><ele>657.0</ele><time>2026-04-23T12:49:35.314Z</time></trkpt><trkpt lat="45.7210183" lon="11.231505"><ele>657.0</ele><time>2026-04-23T12:49:36.315Z</time></trkpt><trkpt lat="45.72094" lon="11.2316067"><ele>657.0</ele><time>2026-04-23T12:49:37.314Z</time></trkpt><trkpt lat="45.7208733" lon="11.2317117"><ele>657.0</ele><time>2026-04-23T12:49:38.315Z</time></trkpt><trkpt lat="45.72081" lon="11.2318167"><ele>658.8</ele><time>2026-04-23T12:49:39.315Z</time></trkpt><trkpt lat="45.7207533" lon="11.2319317"><ele>660.6</ele><time>2026-04-23T12:49:40.314Z</time></trkpt><trkpt lat="45.7207083" lon="11.2320583"><ele>662.4</ele><time>2026-04-23T12:49:41.314Z</time></trkpt><trkpt lat="45.7206483" lon="11.2321733"><ele>664.1999999999999</ele><time>2026-04-23T12:49:42.314Z</time></trkpt><trkpt lat="45.72059" lon="11.2322883"><ele>666.0</ele><time>2026-04-23T12:49:43.314Z</time></trkpt><trkpt lat="45.7205283" lon="11.2324083"><ele>669.8333333333334</ele><time>2026-04-23T12:49:44.314Z</time></trkpt><trkpt lat="45.7204633" lon="11.232485"><ele>673.6666666666666</ele><time>2026-04-23T12:49:45.314Z</time></trkpt><trkpt lat="45.720405" lon="11.2325483"><ele>677.5</ele><time>2026-04-23T12:49:46.315Z</time></trkpt><trkpt lat="45.720365" lon="11.2326217"><ele>681.3333333333333</ele><time>2026-04-23T12:49:47.314Z</time></trkpt><trkpt lat="45.7203383" lon="11.2327217"><ele>685.1666666666666</ele><time>2026-04-23T12:49:48.314Z</time></trkpt><trkpt lat="45.7203333" lon="11.2328317"><ele>689.0</ele><time>2026-04-23T12:49:49.314Z</time></trkpt><trkpt lat="45.7203467" lon="11.2329417"><ele>689.0</ele><time>2026-04-23T12:49:50.314Z</time></trkpt><trkpt lat="45.720365" lon="11.233055"><ele>689.0</ele><time>2026-04-23T12:49:51.314Z</time></trkpt><trkpt lat="45.7203733" lon="11.2331617"><ele>689.0</ele><time>2026-04-23T12:49:52.314Z</time></trkpt><trkpt lat="45.720365" lon="11.2332517"><ele>689.0</ele><time>2026-04-23T12:49:53.315Z</time></trkpt><trkpt lat="45.7203017" lon="11.2334317"><ele>689.0</ele><time>2026-04-23T12:49:55.314Z</time></trkpt><trkpt lat="45.720215" lon="11.2335283"><ele>688.4000000000001</ele><time>2026-04-23T12:49:56.314Z</time></trkpt><trkpt lat="45.7201467" lon="11.2336133"><ele>687.8</ele><time>2026-04-23T12:49:57.314Z</time></trkpt><trkpt lat="45.720065" lon="11.2336833"><ele>687.2</ele><time>2026-04-23T12:49:58.314Z</time></trkpt><trkpt lat="45.7199717" lon="11.233755"><ele>686.5999999999999</ele><time>2026-04-23T12:49:59.315Z</time></trkpt><trkpt lat="45.7198583" lon="11.2338033"><ele>686.0</ele><time>2026-04-23T12:50:00.314Z</time></trkpt><trkpt lat="45.71973" lon="11.23385"><ele>686.0</ele><time>2026-04-23T12:50:01.314Z</time></trkpt><trkpt lat="45.7195917" lon="11.233895"><ele>686.0</ele><time>2026-04-23T12:50:02.315Z</time></trkpt><trkpt lat="45.7194617" lon="11.2339217"><ele>686.0</ele><time>2026-04-23T12:50:03.314Z</time></trkpt><trkpt lat="45.719355" lon="11.23395"><ele>686.0</ele><time>2026-04-23T12:50:04.315Z</time></trkpt><trkpt lat="45.719255" lon="11.2339767"><ele>687.8</ele><time>2026-04-23T12:50:05.315Z</time></trkpt><trkpt lat="45.7191633" lon="11.234015"><ele>689.5999999999999</ele><time>2026-04-23T12:50:06.315Z</time></trkpt><trkpt lat="45.7190717" lon="11.234065"><ele>691.4</ele><time>2026-04-23T12:50:07.314Z</time></trkpt><trkpt lat="45.7190017" lon="11.2341133"><ele>693.2</ele><time>2026-04-23T12:50:08.314Z</time></trkpt><trkpt lat="45.7189367" lon="11.2341717"><ele>695.0</ele><time>2026-04-23T12:50:09.314Z</time></trkpt><trkpt lat="45.71883" lon="11.2342567"><ele>695.0</ele><time>2026-04-23T12:50:11.314Z</time></trkpt><trkpt lat="45.7187367" lon="11.2343417"><ele>695.0</ele><time>2026-04-23T12:50:13.315Z</time></trkpt><trkpt lat="45.718695" lon="11.2344717"><ele>695.0</ele><time>2026-04-23T12:50:15.315Z</time></trkpt><trkpt lat="45.7186767" lon="11.234605"><ele>695.0</ele><time>2026-04-23T12:50:17.314Z</time></trkpt><trkpt lat="45.718735" lon="11.2347167"><ele>695.0</ele><time>2026-04-23T12:50:19.315Z</time></trkpt><trkpt lat="45.7187983" lon="11.23477"><ele>693.8333333333333</ele><time>2026-04-23T12:50:20.315Z</time></trkpt><trkpt lat="45.7188583" lon="11.2348483"><ele>692.6666666666666</ele><time>2026-04-23T12:50:21.314Z</time></trkpt><trkpt lat="45.718895" lon="11.23495"><ele>691.5</ele><time>2026-04-23T12:50:22.314Z</time></trkpt><trkpt lat="45.71891" lon="11.2350617"><ele>690.3333333333334</ele><time>2026-04-23T12:50:23.314Z</time></trkpt><trkpt lat="45.7189033" lon="11.2351567"><ele>689.1666666666667</ele><time>2026-04-23T12:50:24.314Z</time></trkpt><trkpt lat="45.71887" lon="11.2353183"><ele>688.0</ele><time>2026-04-23T12:50:26.314Z</time></trkpt><trkpt lat="45.7188083" lon="11.23547"><ele>688.0</ele><time>2026-04-23T12:50:28.314Z</time></trkpt><trkpt lat="45.718765" lon="11.2355633"><ele>688.0</ele><time>2026-04-23T12:50:29.315Z</time></trkpt><trkpt lat="45.7187083" lon="11.23567"><ele>688.0</ele><time>2026-04-23T12:50:30.315Z</time></trkpt><trkpt lat="45.71865" lon="11.2357917"><ele>688.0</ele><time>2026-04-23T12:50:31.314Z</time></trkpt><trkpt lat="45.718585" lon="11.235905"><ele>688.0</ele><time>2026-04-23T12:50:32.315Z</time></trkpt><trkpt lat="45.7185267" lon="11.2360083"><ele>689.0000000000001</ele><time>2026-04-23T12:50:33.314Z</time></trkpt><trkpt lat="45.7184767" lon="11.23611"><ele>690.0</ele><time>2026-04-23T12:50:34.314Z</time></trkpt><trkpt lat="45.718435" lon="11.2361933"><ele>691.0</ele><time>2026-04-23T12:50:35.314Z</time></trkpt><trkpt lat="45.7184033" lon="11.2362867"><ele>692.0</ele><time>2026-04-23T12:50:36.314Z</time></trkpt><trkpt lat="45.7183783" lon="11.2363733"><ele>693.0</ele><time>2026-04-23T12:50:37.314Z</time></trkpt><trkpt lat="45.7183833" lon="11.23647"><ele>694.0000000000001</ele><time>2026-04-23T12:50:38.314Z</time></trkpt><trkpt lat="45.7183983" lon="11.236585"><ele>695.0</ele><time>2026-04-23T12:50:39.314Z</time></trkpt><trkpt lat="45.71842" lon="11.23671"><ele>693.8333333333333</ele><time>2026-04-23T12:50:40.314Z</time></trkpt><trkpt lat="45.7184417" lon="11.23683"><ele>692.6666666666666</ele><time>2026-04-23T12:50:41.315Z</time></trkpt><trkpt lat="45.7184433" lon="11.2369417"><ele>691.5</ele><time>2026-04-23T12:50:42.314Z</time></trkpt><trkpt lat="45.71846" lon="11.2370383"><ele>690.3333333333334</ele><time>2026-04-23T12:50:43.315Z</time></trkpt><trkpt lat="45.7185133" lon="11.2371783"><ele>689.1666666666667</ele><time>2026-04-23T12:50:45.314Z</time></trkpt><trkpt lat="45.71857" lon="11.23729"><ele>688.0</ele><time>2026-04-23T12:50:47.315Z</time></trkpt><trkpt lat="45.718655" lon="11.237365"><ele>688.0</ele><time>2026-04-23T12:50:49.314Z</time></trkpt><trkpt lat="45.7187483" lon="11.2373817"><ele>688.0</ele><time>2026-04-23T12:50:51.314Z</time></trkpt><trkpt lat="45.7188317" lon="11.237355"><ele>688.0</ele><time>2026-04-23T12:50:53.314Z</time></trkpt><trkpt lat="45.7188967" lon="11.2373383"><ele>688.0</ele><time>2026-04-23T12:50:54.315Z</time></trkpt><trkpt lat="45.7189633" lon="11.23731"><ele>688.0</ele><time>2026-04-23T12:50:55.314Z</time></trkpt><trkpt lat="45.7190683" lon="11.2372767"><ele>688.0</ele><time>2026-04-23T12:50:57.314Z</time></trkpt><trkpt lat="45.71915" lon="11.2373033"><ele>688.1666666666667</ele><time>2026-04-23T12:50:59.315Z</time></trkpt><trkpt lat="45.7191983" lon="11.2373617"><ele>688.3333333333334</ele><time>2026-04-23T12:51:00.314Z</time></trkpt><trkpt lat="45.7192633" lon="11.2374233"><ele>688.5</ele><time>2026-04-23T12:51:01.314Z</time></trkpt><trkpt lat="45.71933" lon="11.2374633"><ele>688.6666666666666</ele><time>2026-04-23T12:51:02.314Z</time></trkpt><trkpt lat="45.719445" lon="11.2375233"><ele>688.8333333333333</ele><time>2026-04-23T12:51:04.314Z</time></trkpt><trkpt lat="45.7195083" lon="11.2375717"><ele>689.0</ele><time>2026-04-23T12:51:05.314Z</time></trkpt><trkpt lat="45.7195633" lon="11.2376417"><ele>689.0</ele><time>2026-04-23T12:51:06.314Z</time></trkpt><trkpt lat="45.7196133" lon="11.2377083"><ele>689.0</ele><time>2026-04-23T12:51:07.314Z</time></trkpt><trkpt lat="45.7196733" lon="11.2377733"><ele>689.0</ele><time>2026-04-23T12:51:08.314Z</time></trkpt><trkpt lat="45.7197683" lon="11.2378283"><ele>689.0</ele><time>2026-04-23T12:51:10.314Z</time></trkpt><trkpt lat="45.7198367" lon="11.2378117"><ele>689.0</ele><time>2026-04-23T12:51:11.314Z</time></trkpt><trkpt lat="45.7199567" lon="11.2377033"><ele>689.0</ele><time>2026-04-23T12:51:13.315Z</time></trkpt><trkpt lat="45.7200317" lon="11.2376433"><ele>689.0</ele><time>2026-04-23T12:51:14.314Z</time></trkpt><trkpt lat="45.720155" lon="11.2375733"><ele>689.0</ele><time>2026-04-23T12:51:16.315Z</time></trkpt><trkpt lat="45.7202233" lon="11.2375767"><ele>689.0</ele><time>2026-04-23T12:51:17.314Z</time></trkpt><trkpt lat="45.7203133" lon="11.237605"><ele>689.0</ele><time>2026-04-23T12:51:18.314Z</time></trkpt><trkpt lat="45.7204883" lon="11.2376617"><ele>687.6666666666666</ele><time>2026-04-23T12:51:19.314Z</time></trkpt><trkpt lat="45.7205883" lon="11.2376767"><ele>686.3333333333333</ele><time>2026-04-23T12:51:20.314Z</time></trkpt><trkpt lat="45.720675" lon="11.2377"><ele>685.0</ele><time>2026-04-23T12:51:21.314Z</time></trkpt><trkpt lat="45.7207517" lon="11.237715"><ele>683.6666666666666</ele><time>2026-04-23T12:51:22.314Z</time></trkpt><trkpt lat="45.72082" lon="11.2377383"><ele>682.3333333333334</ele><time>2026-04-23T12:51:23.315Z</time></trkpt><trkpt lat="45.7208867" lon="11.2377833"><ele>681.0</ele><time>2026-04-23T12:51:24.315Z</time></trkpt><trkpt lat="45.7209633" lon="11.2379267"><ele>681.0</ele><time>2026-04-23T12:51:26.313Z</time></trkpt><trkpt lat="45.7209833" lon="11.2380333"><ele>681.0</ele><time>2026-04-23T12:51:27.313Z</time></trkpt><trkpt lat="45.7209833" lon="11.2381333"><ele>681.0</ele><time>2026-04-23T12:51:28.313Z</time></trkpt><trkpt lat="45.7209283" lon="11.2383017"><ele>681.0</ele><time>2026-04-23T12:51:30.313Z</time></trkpt><trkpt lat="45.7208733" lon="11.23841"><ele>681.0</ele><time>2026-04-23T12:51:31.314Z</time></trkpt><trkpt lat="45.7208333" lon="11.2385233"><ele>682.8333333333334</ele><time>2026-04-23T12:51:32.313Z</time></trkpt><trkpt lat="45.7207967" lon="11.2386467"><ele>684.6666666666666</ele><time>2026-04-23T12:51:33.313Z</time></trkpt><trkpt lat="45.7207667" lon="11.2387583"><ele>686.5</ele><time>2026-04-23T12:51:34.313Z</time></trkpt><trkpt lat="45.7207433" lon="11.2388667"><ele>688.3333333333333</ele><time>2026-04-23T12:51:35.313Z</time></trkpt><trkpt lat="45.7207283" lon="11.23897"><ele>690.1666666666666</ele><time>2026-04-23T12:51:36.313Z</time></trkpt><trkpt lat="45.720735" lon="11.23909"><ele>692.0</ele><time>2026-04-23T12:51:37.314Z</time></trkpt><trkpt lat="45.7207467" lon="11.2391933"><ele>692.0</ele><time>2026-04-23T12:51:38.313Z</time></trkpt><trkpt lat="45.72078" lon="11.239295"><ele>692.0</ele><time>2026-04-23T12:51:39.313Z</time></trkpt><trkpt lat="45.7208183" lon="11.2393833"><ele>692.0</ele><time>2026-04-23T12:51:40.313Z</time></trkpt><trkpt lat="45.7208617" lon="11.2394667"><ele>692.0</ele><time>2026-04-23T12:51:41.313Z</time></trkpt><trkpt lat="45.7209017" lon="11.2395517"><ele>692.0</ele><time>2026-04-23T12:51:42.313Z</time></trkpt><trkpt lat="45.72097" lon="11.2396583"><ele>692.0</ele><time>2026-04-23T12:51:44.314Z</time></trkpt><trkpt lat="45.721025" lon="11.2397533"><ele>685.1666666666666</ele><time>2026-04-23T12:51:46.313Z</time></trkpt><trkpt lat="45.72107" lon="11.2398717"><ele>678.3333333333333</ele><time>2026-04-23T12:51:48.313Z</time></trkpt><trkpt lat="45.7211183" lon="11.23996"><ele>671.5</ele><time>2026-04-23T12:51:50.313Z</time></trkpt><trkpt lat="45.7212433" lon="11.2400317"><ele>664.6666666666666</ele><time>2026-04-23T12:51:52.314Z</time></trkpt><trkpt lat="45.721295" lon="11.240095"><ele>657.8333333333334</ele><time>2026-04-23T12:51:53.313Z</time></trkpt><trkpt lat="45.7213517" lon="11.2401517"><ele>651.0</ele><time>2026-04-23T12:51:54.313Z</time></trkpt><trkpt lat="45.7214233" lon="11.2402933"><ele>651.0</ele><time>2026-04-23T12:51:56.313Z</time></trkpt><trkpt lat="45.721455" lon="11.2403817"><ele>651.0</ele><time>2026-04-23T12:51:57.313Z</time></trkpt><trkpt lat="45.7214833" lon="11.2404633"><ele>651.0</ele><time>2026-04-23T12:51:58.314Z</time></trkpt><trkpt lat="45.7215317" lon="11.2406067"><ele>651.0</ele><time>2026-04-23T12:52:00.313Z</time></trkpt><trkpt lat="45.72155" lon="11.240795"><ele>651.0</ele><time>2026-04-23T12:52:02.313Z</time></trkpt><trkpt lat="45.7215517" lon="11.2409"><ele>650.6666666666666</ele><time>2026-04-23T12:52:03.313Z</time></trkpt><trkpt lat="45.721575" lon="11.2410033"><ele>650.3333333333334</ele><time>2026-04-23T12:52:04.314Z</time></trkpt><trkpt lat="45.7216" lon="11.2411"><ele>650.0</ele><time>2026-04-23T12:52:05.313Z</time></trkpt><trkpt lat="45.721615" lon="11.2412"><ele>649.6666666666667</ele><time>2026-04-23T12:52:06.313Z</time></trkpt><trkpt lat="45.7216267" lon="11.241385"><ele>649.3333333333334</ele><time>2026-04-23T12:52:08.313Z</time></trkpt><trkpt lat="45.7216217" lon="11.241485"><ele>649.0</ele><time>2026-04-23T12:52:09.313Z</time></trkpt><trkpt lat="45.7216067" lon="11.2415867"><ele>649.0</ele><time>2026-04-23T12:52:10.313Z</time></trkpt><trkpt lat="45.721555" lon="11.241735"><ele>649.0</ele><time>2026-04-23T12:52:12.313Z</time></trkpt><trkpt lat="45.721465" lon="11.2418067"><ele>649.0</ele><time>2026-04-23T12:52:14.313Z</time></trkpt><trkpt lat="45.7213783" lon="11.2418917"><ele>649.0</ele><time>2026-04-23T12:52:16.313Z</time></trkpt><trkpt lat="45.7213317" lon="11.24203"><ele>649.0</ele><time>2026-04-23T12:52:18.314Z</time></trkpt><trkpt lat="45.7213383" lon="11.2421333"><ele>649.0</ele><time>2026-04-23T12:52:19.314Z</time></trkpt><trkpt lat="45.7213317" lon="11.2422417"><ele>649.0</ele><time>2026-04-23T12:52:20.314Z</time></trkpt><trkpt lat="45.7213217" lon="11.242335"><ele>649.0</ele><time>2026-04-23T12:52:21.313Z</time></trkpt><trkpt lat="45.7212717" lon="11.24246"><ele>649.0</ele><time>2026-04-23T12:52:23.313Z</time></trkpt><trkpt lat="45.7212067" lon="11.2425867"><ele>649.0</ele><time>2026-04-23T12:52:25.313Z</time></trkpt><trkpt lat="45.72117" lon="11.2426833"><ele>649.0</ele><time>2026-04-23T12:52:26.313Z</time></trkpt><trkpt lat="45.721155" lon="11.2428"><ele>648.8333333333334</ele><time>2026-04-23T12:52:27.314Z</time></trkpt><trkpt lat="45.7211533" lon="11.242915"><ele>648.6666666666667</ele><time>2026-04-23T12:52:28.314Z</time></trkpt><trkpt lat="45.7211633" lon="11.2430383"><ele>648.5</ele><time>2026-04-23T12:52:29.313Z</time></trkpt><trkpt lat="45.7211767" lon="11.2431517"><ele>648.3333333333334</ele><time>2026-04-23T12:52:30.313Z</time></trkpt><trkpt lat="45.7211867" lon="11.2432633"><ele>648.1666666666666</ele><time>2026-04-23T12:52:31.313Z</time></trkpt><trkpt lat="45.721205" lon="11.243375"><ele>648.0</ele><time>2026-04-23T12:52:32.313Z</time></trkpt><trkpt lat="45.7212317" lon="11.2434667"><ele>648.0</ele><time>2026-04-23T12:52:33.313Z</time></trkpt><trkpt lat="45.7212683" lon="11.2435417"><ele>648.0</ele><time>2026-04-23T12:52:34.313Z</time></trkpt><trkpt lat="45.7213567" lon="11.243655"><ele>648.0</ele><time>2026-04-23T12:52:36.313Z</time></trkpt><trkpt lat="45.7213967" lon="11.2438167"><ele>648.0</ele><time>2026-04-23T12:52:38.313Z</time></trkpt><trkpt lat="45.7213967" lon="11.243915"><ele>648.0</ele><time>2026-04-23T12:52:39.313Z</time></trkpt><trkpt lat="45.7214267" lon="11.2440917"><ele>649.5</ele><time>2026-04-23T12:52:41.313Z</time></trkpt><trkpt lat="45.7214683" lon="11.2441867"><ele>651.0</ele><time>2026-04-23T12:52:42.313Z</time></trkpt><trkpt lat="45.7215133" lon="11.244275"><ele>652.5</ele><time>2026-04-23T12:52:43.314Z</time></trkpt><trkpt lat="45.72156" lon="11.24438"><ele>654.0</ele><time>2026-04-23T12:52:44.313Z</time></trkpt><trkpt lat="45.721595" lon="11.2444767"><ele>655.5</ele><time>2026-04-23T12:52:45.313Z</time></trkpt><trkpt lat="45.7216167" lon="11.2445733"><ele>657.0</ele><time>2026-04-23T12:52:46.313Z</time></trkpt><trkpt lat="45.7216133" lon="11.2446683"><ele>657.0</ele><time>2026-04-23T12:52:47.314Z</time></trkpt><trkpt lat="45.7216117" lon="11.2447733"><ele>657.0</ele><time>2026-04-23T12:52:48.313Z</time></trkpt><trkpt lat="45.7216183" lon="11.244905"><ele>657.0</ele><time>2026-04-23T12:52:49.313Z</time></trkpt><trkpt lat="45.7216317" lon="11.2450117"><ele>657.0</ele><time>2026-04-23T12:52:50.314Z</time></trkpt><trkpt lat="45.72165" lon="11.2451"><ele>657.0</ele><time>2026-04-23T12:52:51.313Z</time></trkpt><trkpt lat="45.7216867" lon="11.245195"><ele>657.0</ele><time>2026-04-23T12:52:52.313Z</time></trkpt><trkpt lat="45.7217333" lon="11.2452967"><ele>656.5</ele><time>2026-04-23T12:52:53.314Z</time></trkpt><trkpt lat="45.7217917" lon="11.2453833"><ele>656.0</ele><time>2026-04-23T12:52:54.314Z</time></trkpt><trkpt lat="45.7218417" lon="11.2454567"><ele>655.5</ele><time>2026-04-23T12:52:55.313Z</time></trkpt><trkpt lat="45.72191" lon="11.245525"><ele>655.0</ele><time>2026-04-23T12:52:57.313Z</time></trkpt><trkpt lat="45.721995" lon="11.245585"><ele>654.5</ele><time>2026-04-23T12:57:46.312Z</time></trkpt><trkpt lat="45.7220767" lon="11.2456483"><ele>654.0</ele><time>2026-04-23T12:57:48.313Z</time></trkpt><trkpt lat="45.7221917" lon="11.2456933"><ele>653.5</ele><time>2026-04-23T12:57:50.312Z</time></trkpt><trkpt lat="45.72226" lon="11.2457433"><ele>653.0</ele><time>2026-04-23T12:57:51.312Z</time></trkpt><trkpt lat="45.7223167" lon="11.2458017"><ele>652.5</ele><time>2026-04-23T12:57:52.312Z</time></trkpt><trkpt lat="45.7223583" lon="11.2458733"><ele>652.0</ele><time>2026-04-23T12:57:53.313Z</time></trkpt><trkpt lat="45.722425" lon="11.2459833"><ele>651.5</ele><time>2026-04-23T12:57:55.312Z</time></trkpt><trkpt lat="45.7225217" lon="11.2460517"><ele>651.0</ele><time>2026-04-23T12:57:57.312Z</time></trkpt><trkpt lat="45.7225867" lon="11.24606"><ele>651.0</ele><time>2026-04-23T12:57:58.313Z</time></trkpt><trkpt lat="45.72265" lon="11.2460517"><ele>651.0</ele><time>2026-04-23T12:57:59.312Z</time></trkpt><trkpt lat="45.7227433" lon="11.2461183"><ele>651.0</ele><time>2026-04-23T12:58:01.312Z</time></trkpt><trkpt lat="45.722775" lon="11.2461983"><ele>651.0</ele><time>2026-04-23T12:58:02.312Z</time></trkpt><trkpt lat="45.7228017" lon="11.2463033"><ele>651.0</ele><time>2026-04-23T12:58:03.312Z</time></trkpt><trkpt lat="45.7228217" lon="11.246415"><ele>651.0</ele><time>2026-04-23T12:58:04.312Z</time></trkpt><trkpt lat="45.7228367" lon="11.2465267"><ele>653.8</ele><time>2026-04-23T12:58:05.312Z</time></trkpt><trkpt lat="45.7228617" lon="11.2466317"><ele>656.5999999999999</ele><time>2026-04-23T12:58:06.312Z</time></trkpt><trkpt lat="45.7229033" lon="11.246765"><ele>659.4</ele><time>2026-04-23T12:58:08.312Z</time></trkpt><trkpt lat="45.7229317" lon="11.2468817"><ele>662.2</ele><time>2026-04-23T12:58:43.311Z</time></trkpt><trkpt lat="45.7229617" lon="11.2469983"><ele>665.0</ele><time>2026-04-23T12:58:45.311Z</time></trkpt><trkpt lat="45.7228417" lon="11.2470583"><ele>665.0</ele><time>2026-04-23T12:58:48.311Z</time></trkpt><trkpt lat="45.7227317" lon="11.24701"><ele>665.0</ele><time>2026-04-23T12:58:49.311Z</time></trkpt><trkpt lat="45.7226283" lon="11.2469367"><ele>665.0</ele><time>2026-04-23T12:58:50.312Z</time></trkpt><trkpt lat="45.72254" lon="11.246855"><ele>665.0</ele><time>2026-04-23T12:58:51.311Z</time></trkpt><trkpt lat="45.7224667" lon="11.2467817"><ele>665.0</ele><time>2026-04-23T12:58:52.311Z</time></trkpt><trkpt lat="45.722385" lon="11.2467333"><ele>658.4</ele><time>2026-04-23T12:58:54.311Z</time></trkpt><trkpt lat="45.7223683" lon="11.2468967"><ele>651.8</ele><time>2026-04-23T12:58:57.311Z</time></trkpt><trkpt lat="45.722395" lon="11.2470217"><ele>645.2</ele><time>2026-04-23T12:58:58.311Z</time></trkpt><trkpt lat="45.7224333" lon="11.2471717"><ele>638.6</ele><time>2026-04-23T12:58:59.311Z</time></trkpt><trkpt lat="45.7224783" lon="11.2473267"><ele>632.0</ele><time>2026-04-23T12:59:00.311Z</time></trkpt><trkpt lat="45.7225367" lon="11.2474983"><ele>629.0</ele><time>2026-04-23T12:59:01.312Z</time></trkpt><trkpt lat="45.7225817" lon="11.2476417"><ele>626.0</ele><time>2026-04-23T12:59:02.311Z</time></trkpt><trkpt lat="45.7226217" lon="11.2477683"><ele>623.0</ele><time>2026-04-23T12:59:03.312Z</time></trkpt><trkpt lat="45.7226467" lon="11.247905"><ele>620.0</ele><time>2026-04-23T12:59:04.311Z</time></trkpt><trkpt lat="45.7226517" lon="11.2480267"><ele>617.0</ele><time>2026-04-23T12:59:05.311Z</time></trkpt><trkpt lat="45.7226517" lon="11.248145"><ele>614.2</ele><time>2026-04-23T12:59:06.311Z</time></trkpt><trkpt lat="45.7226467" lon="11.248255"><ele>611.4000000000001</ele><time>2026-04-23T12:59:07.311Z</time></trkpt><trkpt lat="45.7226517" lon="11.2483483"><ele>608.5999999999999</ele><time>2026-04-23T12:59:08.311Z</time></trkpt><trkpt lat="45.7226967" lon="11.2485"><ele>605.8</ele><time>2026-04-23T12:59:10.311Z</time></trkpt><trkpt lat="45.7227733" lon="11.2486383"><ele>603.0</ele><time>2026-04-23T12:59:12.311Z</time></trkpt><trkpt lat="45.7228317" lon="11.2487167"><ele>603.1666666666666</ele><time>2026-04-23T12:59:13.311Z</time></trkpt><trkpt lat="45.7228933" lon="11.2487833"><ele>603.3333333333334</ele><time>2026-04-23T12:59:14.312Z</time></trkpt><trkpt lat="45.7229533" lon="11.2488383"><ele>603.5</ele><time>2026-04-23T12:59:15.311Z</time></trkpt><trkpt lat="45.7230133" lon="11.248925"><ele>603.6666666666667</ele><time>2026-04-23T12:59:17.311Z</time></trkpt><trkpt lat="45.7230083" lon="11.2490317"><ele>603.8333333333334</ele><time>2026-04-23T12:59:20.311Z</time></trkpt><trkpt lat="45.72294" lon="11.2490467"><ele>604.0</ele><time>2026-04-23T12:59:21.311Z</time></trkpt><trkpt lat="45.722855" lon="11.24906"><ele>604.0</ele><time>2026-04-23T12:59:22.311Z</time></trkpt><trkpt lat="45.7227717" lon="11.24906"><ele>604.0</ele><time>2026-04-23T12:59:23.311Z</time></trkpt><trkpt lat="45.7227067" lon="11.2490683"><ele>604.0</ele><time>2026-04-23T12:59:24.311Z</time></trkpt><trkpt lat="45.7226433" lon="11.24909"><ele>604.0</ele><time>2026-04-23T12:59:25.311Z</time></trkpt><trkpt lat="45.7226117" lon="11.24922"><ele>604.0</ele><time>2026-04-23T12:59:27.311Z</time></trkpt><trkpt lat="45.7226267" lon="11.2493217"><ele>604.0</ele><time>2026-04-23T12:59:28.312Z</time></trkpt><trkpt lat="45.7226867" lon="11.2494233"><ele>604.0</ele><time>2026-04-23T12:59:30.311Z</time></trkpt><trkpt lat="45.7227483" lon="11.24945"><ele>604.0</ele><time>2026-04-23T12:59:31.312Z</time></trkpt><trkpt lat="45.722805" lon="11.2495133"><ele>604.0</ele><time>2026-04-23T12:59:32.312Z</time></trkpt><trkpt lat="45.7228767" lon="11.2495733"><ele>604.0</ele><time>2026-04-23T12:59:33.311Z</time></trkpt><trkpt lat="45.7229583" lon="11.2496333"><ele>604.0</ele><time>2026-04-23T12:59:34.311Z</time></trkpt><trkpt lat="45.72303" lon="11.2497"><ele>604.0</ele><time>2026-04-23T12:59:35.311Z</time></trkpt><trkpt lat="45.7231033" lon="11.2497733"><ele>598.0</ele><time>2026-04-23T12:59:36.311Z</time></trkpt><trkpt lat="45.72318" lon="11.2498467"><ele>592.0</ele><time>2026-04-23T12:59:37.311Z</time></trkpt><trkpt lat="45.723245" lon="11.2499733"><ele>586.0</ele><time>2026-04-23T12:59:38.311Z</time></trkpt><trkpt lat="45.7233083" lon="11.2501083"><ele>580.0</ele><time>2026-04-23T12:59:39.311Z</time></trkpt><trkpt lat="45.7233783" lon="11.25025"><ele>574.0</ele><time>2026-04-23T12:59:40.312Z</time></trkpt><trkpt lat="45.723445" lon="11.250395"><ele>574.0</ele><time>2026-04-23T12:59:41.311Z</time></trkpt><trkpt lat="45.7235083" lon="11.2505317"><ele>574.0</ele><time>2026-04-23T12:59:42.312Z</time></trkpt><trkpt lat="45.723565" lon="11.2506383"><ele>574.0</ele><time>2026-04-23T12:59:43.311Z</time></trkpt><trkpt lat="45.7236233" lon="11.2506933"><ele>574.0</ele><time>2026-04-23T12:59:44.311Z</time></trkpt><trkpt lat="45.723695" lon="11.2508"><ele>574.0</ele><time>2026-04-23T12:59:46.312Z</time></trkpt><trkpt lat="45.7236233" lon="11.2508833"><ele>570.8</ele><time>2026-04-23T12:59:49.311Z</time></trkpt><trkpt lat="45.723545" lon="11.2509033"><ele>567.5999999999999</ele><time>2026-04-23T12:59:50.311Z</time></trkpt><trkpt lat="45.7234383" lon="11.2508967"><ele>564.4</ele><time>2026-04-23T12:59:51.311Z</time></trkpt><trkpt lat="45.7233267" lon="11.25087"><ele>561.1999999999999</ele><time>2026-04-23T12:59:52.311Z</time></trkpt><trkpt lat="45.7232283" lon="11.25085"><ele>558.0</ele><time>2026-04-23T12:59:53.311Z</time></trkpt><trkpt lat="45.723155" lon="11.2508117"><ele>558.0</ele><time>2026-04-23T12:59:54.311Z</time></trkpt><trkpt lat="45.7230567" lon="11.2507433"><ele>558.0</ele><time>2026-04-23T12:59:56.312Z</time></trkpt><trkpt lat="45.7229917" lon="11.2505667"><ele>558.0</ele><time>2026-04-23T12:59:58.311Z</time></trkpt><trkpt lat="45.722955" lon="11.25043"><ele>558.0</ele><time>2026-04-23T12:59:59.311Z</time></trkpt><trkpt lat="45.7229417" lon="11.250285"><ele>558.6666666666666</ele><time>2026-04-23T13:00:00.311Z</time></trkpt><trkpt lat="45.7229483" lon="11.2501483"><ele>559.3333333333334</ele><time>2026-04-23T13:00:01.311Z</time></trkpt><trkpt lat="45.7229467" lon="11.2500383"><ele>560.0</ele><time>2026-04-23T13:00:02.311Z</time></trkpt><trkpt lat="45.7229433" lon="11.2499433"><ele>560.6666666666667</ele><time>2026-04-23T13:00:03.311Z</time></trkpt><trkpt lat="45.7229133" lon="11.24982"><ele>561.3333333333334</ele><time>2026-04-23T13:00:05.311Z</time></trkpt><trkpt lat="45.722795" lon="11.2498117"><ele>562.0</ele><time>2026-04-23T13:00:07.312Z</time></trkpt><trkpt lat="45.7226933" lon="11.249875"><ele>562.0</ele><time>2026-04-23T13:00:08.311Z</time></trkpt><trkpt lat="45.7225633" lon="11.2499733"><ele>562.0</ele><time>2026-04-23T13:00:09.311Z</time></trkpt><trkpt lat="45.722465" lon="11.2500433"><ele>562.0</ele><time>2026-04-23T13:00:10.311Z</time></trkpt><trkpt lat="45.7223667" lon="11.2501017"><ele>562.0</ele><time>2026-04-23T13:00:11.311Z</time></trkpt><trkpt lat="45.722275" lon="11.2501383"><ele>562.0000000000001</ele><time>2026-04-23T13:00:12.311Z</time></trkpt><trkpt lat="45.7222017" lon="11.2501233"><ele>562.0</ele><time>2026-04-23T13:00:13.312Z</time></trkpt><trkpt lat="45.72214" lon="11.2500883"><ele>562.0</ele><time>2026-04-23T13:00:14.312Z</time></trkpt><trkpt lat="45.72208" lon="11.2500317"><ele>562.0</ele><time>2026-04-23T13:00:15.311Z</time></trkpt><trkpt lat="45.7220367" lon="11.2499467"><ele>562.0</ele><time>2026-04-23T13:00:16.312Z</time></trkpt><trkpt lat="45.7219967" lon="11.2498683"><ele>562.0000000000001</ele><time>2026-04-23T13:00:17.312Z</time></trkpt><trkpt lat="45.721955" lon="11.2497683"><ele>562.0</ele><time>2026-04-23T13:00:18.311Z</time></trkpt><trkpt lat="45.7219167" lon="11.2496583"><ele>560.3333333333334</ele><time>2026-04-23T13:00:19.311Z</time></trkpt><trkpt lat="45.721875" lon="11.2495617"><ele>558.6666666666667</ele><time>2026-04-23T13:00:20.312Z</time></trkpt><trkpt lat="45.7218533" lon="11.249475"><ele>557.0</ele><time>2026-04-23T13:00:21.311Z</time></trkpt><trkpt lat="45.7218083" lon="11.2493917"><ele>555.3333333333334</ele><time>2026-04-23T13:00:22.311Z</time></trkpt><trkpt lat="45.7217533" lon="11.24931"><ele>553.6666666666666</ele><time>2026-04-23T13:00:23.312Z</time></trkpt><trkpt lat="45.7216867" lon="11.2492483"><ele>552.0</ele><time>2026-04-23T13:00:24.311Z</time></trkpt><trkpt lat="45.72161" lon="11.2492117"><ele>552.0</ele><time>2026-04-23T13:00:25.311Z</time></trkpt><trkpt lat="45.7215083" lon="11.2492167"><ele>552.0</ele><time>2026-04-23T13:00:26.311Z</time></trkpt><trkpt lat="45.7214183" lon="11.2492267"><ele>552.0</ele><time>2026-04-23T13:00:27.311Z</time></trkpt><trkpt lat="45.721325" lon="11.2492333"><ele>552.0</ele><time>2026-04-23T13:00:28.311Z</time></trkpt><trkpt lat="45.72125" lon="11.2492217"><ele>552.0</ele><time>2026-04-23T13:00:29.311Z</time></trkpt><trkpt lat="45.721175" lon="11.2491883"><ele>552.0</ele><time>2026-04-23T13:00:30.312Z</time></trkpt><trkpt lat="45.7211217" lon="11.2491183"><ele>553.0</ele><time>2026-04-23T13:00:31.311Z</time></trkpt><trkpt lat="45.721065" lon="11.2490433"><ele>554.0</ele><time>2026-04-23T13:00:32.311Z</time></trkpt><trkpt lat="45.7210183" lon="11.248975"><ele>555.0</ele><time>2026-04-23T13:00:33.311Z</time></trkpt><trkpt lat="45.720925" lon="11.2488667"><ele>556.0</ele><time>2026-04-23T13:00:35.312Z</time></trkpt><trkpt lat="45.7208217" lon="11.2488117"><ele>557.0</ele><time>2026-04-23T13:00:37.311Z</time></trkpt><trkpt lat="45.720725" lon="11.2488133"><ele>557.0</ele><time>2026-04-23T13:00:39.311Z</time></trkpt><trkpt lat="45.7206333" lon="11.2488733"><ele>557.0</ele><time>2026-04-23T13:00:41.311Z</time></trkpt><trkpt lat="45.7206033" lon="11.2489817"><ele>557.0</ele><time>2026-04-23T13:00:43.312Z</time></trkpt><trkpt lat="45.7206283" lon="11.2491133"><ele>557.0</ele><time>2026-04-23T13:00:45.311Z</time></trkpt><trkpt lat="45.7207067" lon="11.2492667"><ele>557.0</ele><time>2026-04-23T13:00:47.312Z</time></trkpt><trkpt lat="45.7207617" lon="11.24935"><ele>554.0</ele><time>2026-04-23T13:00:48.311Z</time></trkpt><trkpt lat="45.7208283" lon="11.2494567"><ele>551.0</ele><time>2026-04-23T13:00:49.311Z</time></trkpt><trkpt lat="45.720905" lon="11.249585"><ele>548.0</ele><time>2026-04-23T13:00:50.311Z</time></trkpt><trkpt lat="45.7209633" lon="11.2496933"><ele>545.0</ele><time>2026-04-23T13:00:51.312Z</time></trkpt><trkpt lat="45.721015" lon="11.2497717"><ele>542.0</ele><time>2026-04-23T13:00:52.311Z</time></trkpt><trkpt lat="45.7210533" lon="11.2498483"><ele>542.0</ele><time>2026-04-23T13:00:53.311Z</time></trkpt><trkpt lat="45.7210783" lon="11.250035"><ele>542.0</ele><time>2026-04-23T13:00:55.311Z</time></trkpt><trkpt lat="45.72109" lon="11.25015"><ele>542.0</ele><time>2026-04-23T13:00:56.311Z</time></trkpt><trkpt lat="45.7210917" lon="11.25026"><ele>542.0</ele><time>2026-04-23T13:00:57.311Z</time></trkpt><trkpt lat="45.72108" lon="11.2504233"><ele>542.0</ele><time>2026-04-23T13:00:58.311Z</time></trkpt><trkpt lat="45.721055" lon="11.2505967"><ele>542.75</ele><time>2026-04-23T13:00:59.311Z</time></trkpt><trkpt lat="45.721035" lon="11.25078"><ele>543.5</ele><time>2026-04-23T13:01:00.311Z</time></trkpt><trkpt lat="45.7210283" lon="11.250945"><ele>544.25</ele><time>2026-04-23T13:01:01.312Z</time></trkpt><trkpt lat="45.7210217" lon="11.2510933"><ele>545.0</ele><time>2026-04-23T13:01:02.312Z</time></trkpt><trkpt lat="45.721035" lon="11.2512367"><ele>545.0</ele><time>2026-04-23T13:01:03.311Z</time></trkpt><trkpt lat="45.7210567" lon="11.25138"><ele>545.0</ele><time>2026-04-23T13:01:04.312Z</time></trkpt><trkpt lat="45.7211067" lon="11.2515333"><ele>545.0</ele><time>2026-04-23T13:01:05.311Z</time></trkpt><trkpt lat="45.7211833" lon="11.2516733"><ele>545.0</ele><time>2026-04-23T13:01:06.312Z</time></trkpt><trkpt lat="45.7212433" lon="11.2518117"><ele>537.75</ele><time>2026-04-23T13:01:07.311Z</time></trkpt><trkpt lat="45.7213017" lon="11.2519533"><ele>530.5</ele><time>2026-04-23T13:01:08.311Z</time></trkpt><trkpt lat="45.72136" lon="11.2520967"><ele>523.25</ele><time>2026-04-23T13:01:09.311Z</time></trkpt><trkpt lat="45.7214183" lon="11.2522367"><ele>516.0</ele><time>2026-04-23T13:01:10.311Z</time></trkpt><trkpt lat="45.721505" lon="11.252325"><ele>516.0</ele><time>2026-04-23T13:01:11.311Z</time></trkpt><trkpt lat="45.7215617" lon="11.25241"><ele>516.0</ele><time>2026-04-23T13:01:12.312Z</time></trkpt><trkpt lat="45.7216" lon="11.2524883"><ele>516.0</ele><time>2026-04-23T13:01:13.311Z</time></trkpt><trkpt lat="45.7216433" lon="11.2526017"><ele>516.0</ele><time>2026-04-23T13:01:14.311Z</time></trkpt><trkpt lat="45.7216717" lon="11.2527217"><ele>516.0</ele><time>2026-04-23T13:01:15.311Z</time></trkpt><trkpt lat="45.721695" lon="11.2528383"><ele>516.0</ele><time>2026-04-23T13:01:16.311Z</time></trkpt><trkpt lat="45.7217367" lon="11.2529417"><ele>516.0</ele><time>2026-04-23T13:01:17.311Z</time></trkpt><trkpt lat="45.7217483" lon="11.2530317"><ele>516.0</ele><time>2026-04-23T13:01:18.311Z</time></trkpt><trkpt lat="45.7216933" lon="11.25318"><ele>516.0</ele><time>2026-04-23T13:01:20.311Z</time></trkpt><trkpt lat="45.72165" lon="11.2532467"><ele>516.0</ele><time>2026-04-23T13:01:21.312Z</time></trkpt><trkpt lat="45.7215933" lon="11.253325"><ele>516.0</ele><time>2026-04-23T13:01:22.311Z</time></trkpt><trkpt lat="45.7215733" lon="11.2534317"><ele>516.0</ele><time>2026-04-23T13:01:23.312Z</time></trkpt><trkpt lat="45.721575" lon="11.2535517"><ele>516.8333333333334</ele><time>2026-04-23T13:01:24.311Z</time></trkpt><trkpt lat="45.72159" lon="11.2536883"><ele>517.6666666666666</ele><time>2026-04-23T13:01:25.311Z</time></trkpt><trkpt lat="45.7216133" lon="11.2538067"><ele>518.5</ele><time>2026-04-23T13:01:26.311Z</time></trkpt><trkpt lat="45.7216383" lon="11.2539267"><ele>519.3333333333333</ele><time>2026-04-23T13:01:27.311Z</time></trkpt><trkpt lat="45.721685" lon="11.2540317"><ele>520.1666666666666</ele><time>2026-04-23T13:01:28.311Z</time></trkpt><trkpt lat="45.7217333" lon="11.2541367"><ele>521.0</ele><time>2026-04-23T13:01:29.311Z</time></trkpt><trkpt lat="45.721785" lon="11.25425"><ele>522.6</ele><time>2026-04-23T13:01:30.311Z</time></trkpt><trkpt lat="45.721835" lon="11.2543683"><ele>524.2</ele><time>2026-04-23T13:01:31.311Z</time></trkpt><trkpt lat="45.7218833" lon="11.254495"><ele>525.8</ele><time>2026-04-23T13:01:32.31Z</time></trkpt><trkpt lat="45.7219283" lon="11.2546233"><ele>527.4</ele><time>2026-04-23T13:01:33.311Z</time></trkpt><trkpt lat="45.7219583" lon="11.2547533"><ele>529.0</ele><time>2026-04-23T13:01:34.31Z</time></trkpt><trkpt lat="45.7219867" lon="11.2548733"><ele>523.8333333333334</ele><time>2026-04-23T13:01:35.31Z</time></trkpt><trkpt lat="45.7220133" lon="11.2549867"><ele>518.6666666666667</ele><time>2026-04-23T13:01:36.311Z</time></trkpt><trkpt lat="45.72204" lon="11.2550917"><ele>513.5</ele><time>2026-04-23T13:01:37.31Z</time></trkpt><trkpt lat="45.7220717" lon="11.255195"><ele>508.33333333333337</ele><time>2026-04-23T13:01:38.311Z</time></trkpt><trkpt lat="45.7220933" lon="11.255305"><ele>503.1666666666667</ele><time>2026-04-23T13:01:39.31Z</time></trkpt><trkpt lat="45.7221083" lon="11.2554033"><ele>498.0</ele><time>2026-04-23T13:01:40.31Z</time></trkpt><trkpt lat="45.7221167" lon="11.2555"><ele>498.0</ele><time>2026-04-23T13:01:41.31Z</time></trkpt><trkpt lat="45.7221333" lon="11.2555933"><ele>498.0</ele><time>2026-04-23T13:01:42.31Z</time></trkpt><trkpt lat="45.72216" lon="11.255685"><ele>498.0</ele><time>2026-04-23T13:01:43.31Z</time></trkpt><trkpt lat="45.7221983" lon="11.2557683"><ele>498.0</ele><time>2026-04-23T13:01:44.31Z</time></trkpt><trkpt lat="45.7222467" lon="11.2558283"><ele>498.0</ele><time>2026-04-23T13:01:45.311Z</time></trkpt><trkpt lat="45.7223467" lon="11.2558783"><ele>498.0</ele><time>2026-04-23T13:01:47.311Z</time></trkpt><trkpt lat="45.72241" lon="11.2558"><ele>500.0</ele><time>2026-04-23T13:01:49.31Z</time></trkpt><trkpt lat="45.722475" lon="11.2558233"><ele>501.99999999999994</ele><time>2026-04-23T13:01:51.31Z</time></trkpt><trkpt lat="45.7225533" lon="11.2559067"><ele>503.99999999999994</ele><time>2026-04-23T13:01:53.311Z</time></trkpt><trkpt lat="45.7225983" lon="11.2560067"><ele>506.0</ele><time>2026-04-23T13:01:54.31Z</time></trkpt><trkpt lat="45.7226483" lon="11.25613"><ele>508.0</ele><time>2026-04-23T13:01:55.311Z</time></trkpt><trkpt lat="45.722695" lon="11.2562817"><ele>501.0</ele><time>2026-04-23T13:01:56.31Z</time></trkpt><trkpt lat="45.7227383" lon="11.25644"><ele>493.99999999999994</ele><time>2026-04-23T13:01:57.31Z</time></trkpt><trkpt lat="45.7227717" lon="11.256585"><ele>486.99999999999994</ele><time>2026-04-23T13:01:58.31Z</time></trkpt><trkpt lat="45.7228017" lon="11.2567167"><ele>480.0</ele><time>2026-04-23T13:01:59.31Z</time></trkpt><trkpt lat="45.72284" lon="11.25686"><ele>473.0</ele><time>2026-04-23T13:02:00.311Z</time></trkpt><trkpt lat="45.7228883" lon="11.25699"><ele>472.99999999999994</ele><time>2026-04-23T13:02:01.31Z</time></trkpt><trkpt lat="45.72294" lon="11.2571117"><ele>473.0</ele><time>2026-04-23T13:02:02.31Z</time></trkpt><trkpt lat="45.72299" lon="11.2572117"><ele>473.0</ele><time>2026-04-23T13:02:03.31Z</time></trkpt><trkpt lat="45.7230333" lon="11.2573083"><ele>473.0</ele><time>2026-04-23T13:02:04.31Z</time></trkpt><trkpt lat="45.7230767" lon="11.2574117"><ele>472.99999999999994</ele><time>2026-04-23T13:02:05.31Z</time></trkpt><trkpt lat="45.7231217" lon="11.2575233"><ele>473.0</ele><time>2026-04-23T13:02:06.31Z</time></trkpt><trkpt lat="45.72316" lon="11.257635"><ele>475.16666666666663</ele><time>2026-04-23T13:02:07.311Z</time></trkpt><trkpt lat="45.7232" lon="11.25775"><ele>477.3333333333333</ele><time>2026-04-23T13:02:08.31Z</time></trkpt><trkpt lat="45.7232417" lon="11.2578667"><ele>479.5</ele><time>2026-04-23T13:02:09.311Z</time></trkpt><trkpt lat="45.7232867" lon="11.257985"><ele>481.66666666666663</ele><time>2026-04-23T13:02:10.31Z</time></trkpt><trkpt lat="45.723315" lon="11.2581017"><ele>483.8333333333333</ele><time>2026-04-23T13:02:11.31Z</time></trkpt><trkpt lat="45.7233483" lon="11.2582133"><ele>486.0</ele><time>2026-04-23T13:02:12.311Z</time></trkpt><trkpt lat="45.7233817" lon="11.25835"><ele>486.4</ele><time>2026-04-23T13:02:13.31Z</time></trkpt><trkpt lat="45.7234167" lon="11.25851"><ele>486.8</ele><time>2026-04-23T13:02:14.31Z</time></trkpt><trkpt lat="45.7234483" lon="11.2586767"><ele>487.19999999999993</ele><time>2026-04-23T13:02:15.31Z</time></trkpt><trkpt lat="45.7234767" lon="11.2588183"><ele>487.59999999999997</ele><time>2026-04-23T13:02:16.31Z</time></trkpt><trkpt lat="45.7235017" lon="11.2589417"><ele>488.0</ele><time>2026-04-23T13:02:17.31Z</time></trkpt><trkpt lat="45.723525" lon="11.2590483"><ele>487.99999999999994</ele><time>2026-04-23T13:02:18.31Z</time></trkpt><trkpt lat="45.7235283" lon="11.259145"><ele>488.0</ele><time>2026-04-23T13:02:19.31Z</time></trkpt><trkpt lat="45.723515" lon="11.25924"><ele>488.0</ele><time>2026-04-23T13:02:20.31Z</time></trkpt><trkpt lat="45.72347" lon="11.2593717"><ele>488.0</ele><time>2026-04-23T13:02:22.31Z</time></trkpt><trkpt lat="45.7233967" lon="11.25941"><ele>487.99999999999994</ele><time>2026-04-23T13:02:24.31Z</time></trkpt><trkpt lat="45.7233283" lon="11.2593417"><ele>488.0</ele><time>2026-04-23T13:02:31.31Z</time></trkpt><trkpt lat="45.7232283" lon="11.2592833"><ele>487.99999999999994</ele><time>2026-04-23T13:02:33.31Z</time></trkpt><trkpt lat="45.7231" lon="11.2592367"><ele>488.0</ele><time>2026-04-23T13:02:35.31Z</time></trkpt><trkpt lat="45.7230267" lon="11.2592"><ele>488.0</ele><time>2026-04-23T13:02:36.311Z</time></trkpt><trkpt lat="45.72295" lon="11.2591717"><ele>488.0</ele><time>2026-04-23T13:02:37.31Z</time></trkpt><trkpt lat="45.72287" lon="11.2591483"><ele>487.99999999999994</ele><time>2026-04-23T13:02:38.31Z</time></trkpt><trkpt lat="45.722805" lon="11.259115"><ele>488.0</ele><time>2026-04-23T13:02:39.311Z</time></trkpt><trkpt lat="45.7227367" lon="11.2590667"><ele>488.2</ele><time>2026-04-23T13:02:40.31Z</time></trkpt><trkpt lat="45.7226717" lon="11.2589967"><ele>488.4</ele><time>2026-04-23T13:02:41.31Z</time></trkpt><trkpt lat="45.72259" lon="11.25891"><ele>488.59999999999997</ele><time>2026-04-23T13:02:42.31Z</time></trkpt><trkpt lat="45.7225083" lon="11.2588267"><ele>488.79999999999995</ele><time>2026-04-23T13:02:43.31Z</time></trkpt><trkpt lat="45.7224383" lon="11.258735"><ele>489.0</ele><time>2026-04-23T13:02:44.31Z</time></trkpt><trkpt lat="45.7223733" lon="11.25866"><ele>494.1666666666667</ele><time>2026-04-23T13:02:45.31Z</time></trkpt><trkpt lat="45.7223133" lon="11.25859"><ele>499.33333333333337</ele><time>2026-04-23T13:02:46.31Z</time></trkpt><trkpt lat="45.7222567" lon="11.25852"><ele>504.5</ele><time>2026-04-23T13:02:47.31Z</time></trkpt><trkpt lat="45.7222083" lon="11.25844"><ele>509.6666666666667</ele><time>2026-04-23T13:02:48.31Z</time></trkpt><trkpt lat="45.7221467" lon="11.2582867"><ele>514.8333333333334</ele><time>2026-04-23T13:02:50.31Z</time></trkpt><trkpt lat="45.7221483" lon="11.258185"><ele>520.0</ele><time>2026-04-23T13:02:51.311Z</time></trkpt><trkpt lat="45.722115" lon="11.2580867"><ele>521.8333333333334</ele><time>2026-04-23T13:02:52.31Z</time></trkpt><trkpt lat="45.7220683" lon="11.2579917"><ele>523.6666666666667</ele><time>2026-04-23T13:02:53.31Z</time></trkpt><trkpt lat="45.7220233" lon="11.25791"><ele>525.5</ele><time>2026-04-23T13:02:54.31Z</time></trkpt><trkpt lat="45.7219817" lon="11.25784"><ele>527.3333333333334</ele><time>2026-04-23T13:02:55.31Z</time></trkpt><trkpt lat="45.72192" lon="11.2578117"><ele>529.1666666666666</ele><time>2026-04-23T13:02:56.311Z</time></trkpt><trkpt lat="45.721805" lon="11.257905"><ele>531.0</ele><time>2026-04-23T13:02:58.31Z</time></trkpt><trkpt lat="45.721755" lon="11.2580017"><ele>531.0</ele><time>2026-04-23T13:02:59.311Z</time></trkpt><trkpt lat="45.7216967" lon="11.2580933"><ele>531.0</ele><time>2026-04-23T13:03:00.31Z</time></trkpt><trkpt lat="45.7216267" lon="11.2581767"><ele>531.0</ele><time>2026-04-23T13:03:01.31Z</time></trkpt><trkpt lat="45.7215567" lon="11.2582217"><ele>531.0</ele><time>2026-04-23T13:03:02.31Z</time></trkpt><trkpt lat="45.7214833" lon="11.2582417"><ele>531.0</ele><time>2026-04-23T13:03:03.31Z</time></trkpt><trkpt lat="45.7213883" lon="11.2582333"><ele>531.0</ele><time>2026-04-23T13:03:04.31Z</time></trkpt><trkpt lat="45.7212933" lon="11.2581867"><ele>531.0</ele><time>2026-04-23T13:03:05.31Z</time></trkpt><trkpt lat="45.721215" lon="11.2581083"><ele>531.0</ele><time>2026-04-23T13:03:06.31Z</time></trkpt><trkpt lat="45.7211467" lon="11.2580283"><ele>531.0</ele><time>2026-04-23T13:03:07.31Z</time></trkpt><trkpt lat="45.7210683" lon="11.2579383"><ele>531.0</ele><time>2026-04-23T13:03:08.31Z</time></trkpt><trkpt lat="45.72099" lon="11.2578517"><ele>531.0</ele><time>2026-04-23T13:03:09.31Z</time></trkpt><trkpt lat="45.72092" lon="11.257785"><ele>529.5</ele><time>2026-04-23T13:03:10.311Z</time></trkpt><trkpt lat="45.7208683" lon="11.2577183"><ele>528.0</ele><time>2026-04-23T13:03:11.31Z</time></trkpt><trkpt lat="45.7208283" lon="11.25764"><ele>526.5</ele><time>2026-04-23T13:03:12.31Z</time></trkpt><trkpt lat="45.7207783" lon="11.2575333"><ele>525.0</ele><time>2026-04-23T13:03:13.31Z</time></trkpt><trkpt lat="45.720735" lon="11.2574517"><ele>523.5</ele><time>2026-04-23T13:03:14.31Z</time></trkpt><trkpt lat="45.72064" lon="11.25734"><ele>522.0</ele><time>2026-04-23T13:03:16.31Z</time></trkpt><trkpt lat="45.7205717" lon="11.2573317"><ele>522.0</ele><time>2026-04-23T13:03:17.31Z</time></trkpt><trkpt lat="45.7204783" lon="11.25732"><ele>522.0</ele><time>2026-04-23T13:03:18.31Z</time></trkpt><trkpt lat="45.7203733" lon="11.2572917"><ele>522.0</ele><time>2026-04-23T13:03:19.31Z</time></trkpt><trkpt lat="45.7202783" lon="11.2572533"><ele>522.0</ele><time>2026-04-23T13:03:20.311Z</time></trkpt><trkpt lat="45.7201983" lon="11.2572217"><ele>522.0</ele><time>2026-04-23T13:03:21.31Z</time></trkpt><trkpt lat="45.720125" lon="11.2571783"><ele>525.2</ele><time>2026-04-23T13:03:22.31Z</time></trkpt><trkpt lat="45.7200483" lon="11.2571167"><ele>528.4000000000001</ele><time>2026-04-23T13:03:23.31Z</time></trkpt><trkpt lat="45.7199783" lon="11.2570333"><ele>531.5999999999999</ele><time>2026-04-23T13:03:24.31Z</time></trkpt><trkpt lat="45.7199033" lon="11.25695"><ele>534.8</ele><time>2026-04-23T13:03:25.311Z</time></trkpt><trkpt lat="45.7198267" lon="11.25689"><ele>538.0</ele><time>2026-04-23T13:03:26.31Z</time></trkpt><trkpt lat="45.7197383" lon="11.25685"><ele>538.0</ele><time>2026-04-23T13:03:27.311Z</time></trkpt><trkpt lat="45.7196383" lon="11.25684"><ele>538.0</ele><time>2026-04-23T13:03:28.311Z</time></trkpt><trkpt lat="45.719545" lon="11.256835"><ele>538.0</ele><time>2026-04-23T13:03:29.31Z</time></trkpt><trkpt lat="45.719465" lon="11.2568183"><ele>538.0</ele><time>2026-04-23T13:03:30.31Z</time></trkpt><trkpt lat="45.7194017" lon="11.2568"><ele>538.0</ele><time>2026-04-23T13:03:31.31Z</time></trkpt><trkpt lat="45.7193333" lon="11.2567917"><ele>538.0</ele><time>2026-04-23T13:03:32.31Z</time></trkpt><trkpt lat="45.7192467" lon="11.25686"><ele>536.8</ele><time>2026-04-23T13:03:34.31Z</time></trkpt><trkpt lat="45.7192517" lon="11.25704"><ele>535.5999999999999</ele><time>2026-04-23T13:03:36.31Z</time></trkpt><trkpt lat="45.7192917" lon="11.257155"><ele>534.4000000000001</ele><time>2026-04-23T13:03:37.31Z</time></trkpt><trkpt lat="45.7193433" lon="11.25726"><ele>533.2</ele><time>2026-04-23T13:03:38.31Z</time></trkpt><trkpt lat="45.7194167" lon="11.257365"><ele>532.0</ele><time>2026-04-23T13:03:39.31Z</time></trkpt><trkpt lat="45.7194867" lon="11.2574633"><ele>528.3333333333334</ele><time>2026-04-23T13:03:40.31Z</time></trkpt><trkpt lat="45.719555" lon="11.2575283"><ele>524.6666666666667</ele><time>2026-04-23T13:03:41.311Z</time></trkpt><trkpt lat="45.7196183" lon="11.2575917"><ele>521.0</ele><time>2026-04-23T13:03:42.31Z</time></trkpt><trkpt lat="45.719685" lon="11.257645"><ele>517.3333333333334</ele><time>2026-04-23T13:03:43.311Z</time></trkpt><trkpt lat="45.7197567" lon="11.2577117"><ele>513.6666666666666</ele><time>2026-04-23T13:03:44.31Z</time></trkpt><trkpt lat="45.7198233" lon="11.25779"><ele>510.0</ele><time>2026-04-23T13:03:45.311Z</time></trkpt><trkpt lat="45.7198767" lon="11.2578917"><ele>510.0</ele><time>2026-04-23T13:03:46.311Z</time></trkpt><trkpt lat="45.719925" lon="11.2580167"><ele>510.0</ele><time>2026-04-23T13:03:47.31Z</time></trkpt><trkpt lat="45.7199733" lon="11.2581533"><ele>510.0</ele><time>2026-04-23T13:03:48.311Z</time></trkpt><trkpt lat="45.7200283" lon="11.25828"><ele>510.0</ele><time>2026-04-23T13:03:49.31Z</time></trkpt><trkpt lat="45.7200767" lon="11.258395"><ele>510.0</ele><time>2026-04-23T13:03:50.31Z</time></trkpt><trkpt lat="45.7201267" lon="11.25849"><ele>510.0</ele><time>2026-04-23T13:03:51.31Z</time></trkpt><trkpt lat="45.72017" lon="11.2585717"><ele>510.0</ele><time>2026-04-23T13:03:52.31Z</time></trkpt><trkpt lat="45.7202283" lon="11.2586717"><ele>510.0</ele><time>2026-04-23T13:03:54.31Z</time></trkpt><trkpt lat="45.720285" lon="11.2587483"><ele>510.0</ele><time>2026-04-23T13:03:56.311Z</time></trkpt><trkpt lat="45.72034" lon="11.25882"><ele>510.0</ele><time>2026-04-23T13:03:58.311Z</time></trkpt><trkpt lat="45.7203783" lon="11.2589"><ele>510.0</ele><time>2026-04-23T13:04:00.311Z</time></trkpt><trkpt lat="45.7204533" lon="11.25901"><ele>506.3333333333333</ele><time>2026-04-23T13:04:02.31Z</time></trkpt><trkpt lat="45.7204917" lon="11.2590983"><ele>502.66666666666663</ele><time>2026-04-23T13:04:03.311Z</time></trkpt><trkpt lat="45.7205333" lon="11.2592017"><ele>499.0</ele><time>2026-04-23T13:04:04.31Z</time></trkpt><trkpt lat="45.72056" lon="11.2593083"><ele>495.3333333333333</ele><time>2026-04-23T13:04:05.31Z</time></trkpt><trkpt lat="45.7205833" lon="11.259415"><ele>491.66666666666663</ele><time>2026-04-23T13:04:06.311Z</time></trkpt><trkpt lat="45.7206233" lon="11.2595117"><ele>488.0</ele><time>2026-04-23T13:04:07.31Z</time></trkpt><trkpt lat="45.7206767" lon="11.2596083"><ele>488.0</ele><time>2026-04-23T13:04:08.31Z</time></trkpt><trkpt lat="45.7207433" lon="11.25969"><ele>487.99999999999994</ele><time>2026-04-23T13:04:09.31Z</time></trkpt><trkpt lat="45.7208183" lon="11.25977"><ele>487.99999999999994</ele><time>2026-04-23T13:04:10.31Z</time></trkpt><trkpt lat="45.7208917" lon="11.2598567"><ele>488.0</ele><time>2026-04-23T13:04:11.31Z</time></trkpt><trkpt lat="45.7209717" lon="11.2599483"><ele>488.0</ele><time>2026-04-23T13:04:12.31Z</time></trkpt><trkpt lat="45.721035" lon="11.2600367"><ele>484.59999999999997</ele><time>2026-04-23T13:04:13.31Z</time></trkpt><trkpt lat="45.72109" lon="11.260105"><ele>481.19999999999993</ele><time>2026-04-23T13:04:14.31Z</time></trkpt><trkpt lat="45.7211267" lon="11.2601783"><ele>477.8</ele><time>2026-04-23T13:04:15.31Z</time></trkpt><trkpt lat="45.7211767" lon="11.2602933"><ele>474.4</ele><time>2026-04-23T13:04:17.31Z</time></trkpt><trkpt lat="45.7212617" lon="11.2603717"><ele>471.0</ele><time>2026-04-23T13:04:19.31Z</time></trkpt><trkpt lat="45.721385" lon="11.26044"><ele>471.0</ele><time>2026-04-23T13:04:21.311Z</time></trkpt><trkpt lat="45.7214483" lon="11.2605"><ele>471.0</ele><time>2026-04-23T13:04:22.31Z</time></trkpt><trkpt lat="45.7215167" lon="11.2605717"><ele>471.0</ele><time>2026-04-23T13:04:23.31Z</time></trkpt><trkpt lat="45.721605" lon="11.260655"><ele>471.0</ele><time>2026-04-23T13:04:24.31Z</time></trkpt><trkpt lat="45.7216917" lon="11.2607233"><ele>471.0</ele><time>2026-04-23T13:04:25.31Z</time></trkpt><trkpt lat="45.7217867" lon="11.2608017"><ele>468.8333333333333</ele><time>2026-04-23T13:04:26.311Z</time></trkpt><trkpt lat="45.721885" lon="11.2608667"><ele>466.66666666666663</ele><time>2026-04-23T13:04:27.311Z</time></trkpt><trkpt lat="45.721975" lon="11.2609333"><ele>464.5</ele><time>2026-04-23T13:04:28.31Z</time></trkpt><trkpt lat="45.7220567" lon="11.260985"><ele>462.3333333333333</ele><time>2026-04-23T13:04:29.311Z</time></trkpt><trkpt lat="45.7221167" lon="11.2610317"><ele>460.16666666666663</ele><time>2026-04-23T13:04:30.31Z</time></trkpt><trkpt lat="45.7221683" lon="11.2610867"><ele>458.0</ele><time>2026-04-23T13:04:31.311Z</time></trkpt><trkpt lat="45.7222367" lon="11.2612133"><ele>457.99999999999994</ele><time>2026-04-23T13:04:33.31Z</time></trkpt><trkpt lat="45.7222533" lon="11.2613533"><ele>458.0</ele><time>2026-04-23T13:04:35.311Z</time></trkpt><trkpt lat="45.7222617" lon="11.2615"><ele>458.0</ele><time>2026-04-23T13:04:37.311Z</time></trkpt><trkpt lat="45.7222617" lon="11.2616117"><ele>458.0</ele><time>2026-04-23T13:04:38.31Z</time></trkpt><trkpt lat="45.72228" lon="11.261725"><ele>457.99999999999994</ele><time>2026-04-23T13:04:39.31Z</time></trkpt><trkpt lat="45.7222883" lon="11.2618433"><ele>458.0</ele><time>2026-04-23T13:04:40.31Z</time></trkpt><trkpt lat="45.7222817" lon="11.2619433"><ele>458.16666666666663</ele><time>2026-04-23T13:04:41.31Z</time></trkpt><trkpt lat="45.7222767" lon="11.262035"><ele>458.3333333333333</ele><time>2026-04-23T13:04:42.31Z</time></trkpt><trkpt lat="45.722255" lon="11.2621217"><ele>458.5</ele><time>2026-04-23T13:04:43.31Z</time></trkpt><trkpt lat="45.7222067" lon="11.262215"><ele>458.66666666666663</ele><time>2026-04-23T13:04:44.309Z</time></trkpt><trkpt lat="45.7221517" lon="11.2623167"><ele>458.8333333333333</ele><time>2026-04-23T13:04:45.309Z</time></trkpt><trkpt lat="45.7220983" lon="11.2624133"><ele>459.0</ele><time>2026-04-23T13:04:46.31Z</time></trkpt><trkpt lat="45.7220617" lon="11.2625083"><ele>459.0</ele><time>2026-04-23T13:04:47.309Z</time></trkpt><trkpt lat="45.722045" lon="11.26261"><ele>459.0</ele><time>2026-04-23T13:04:48.31Z</time></trkpt><trkpt lat="45.722045" lon="11.2627267"><ele>459.0</ele><time>2026-04-23T13:04:49.309Z</time></trkpt><trkpt lat="45.7220417" lon="11.26286"><ele>459.0</ele><time>2026-04-23T13:04:50.31Z</time></trkpt><trkpt lat="45.7220367" lon="11.2629717"><ele>459.0</ele><time>2026-04-23T13:04:51.309Z</time></trkpt><trkpt lat="45.72201" lon="11.2630667"><ele>459.0</ele><time>2026-04-23T13:04:52.31Z</time></trkpt><trkpt lat="45.7219717" lon="11.2631417"><ele>458.79999999999995</ele><time>2026-04-23T13:04:53.309Z</time></trkpt><trkpt lat="45.7219183" lon="11.2632817"><ele>458.59999999999997</ele><time>2026-04-23T13:04:55.31Z</time></trkpt><trkpt lat="45.721915" lon="11.26342"><ele>458.4</ele><time>2026-04-23T13:04:57.309Z</time></trkpt><trkpt lat="45.72199" lon="11.2635583"><ele>458.2</ele><time>2026-04-23T13:04:59.31Z</time></trkpt><trkpt lat="45.7220367" lon="11.2636217"><ele>458.0</ele><time>2026-04-23T13:05:00.309Z</time></trkpt><trkpt lat="45.7220833" lon="11.2637133"><ele>457.99999999999994</ele><time>2026-04-23T13:05:01.309Z</time></trkpt><trkpt lat="45.7221183" lon="11.26382"><ele>458.0</ele><time>2026-04-23T13:05:02.309Z</time></trkpt><trkpt lat="45.7221483" lon="11.26395"><ele>458.0</ele><time>2026-04-23T13:05:03.309Z</time></trkpt><trkpt lat="45.7221783" lon="11.2640917"><ele>458.0</ele><time>2026-04-23T13:05:04.31Z</time></trkpt><trkpt lat="45.7222067" lon="11.26421"><ele>457.99999999999994</ele><time>2026-04-23T13:05:05.309Z</time></trkpt><trkpt lat="45.7222317" lon="11.2643017"><ele>458.0</ele><time>2026-04-23T13:05:06.31Z</time></trkpt><trkpt lat="45.72226" lon="11.2643867"><ele>457.79999999999995</ele><time>2026-04-23T13:05:08.31Z</time></trkpt><trkpt lat="45.7222967" lon="11.264535"><ele>457.59999999999997</ele><time>2026-04-23T13:05:21.309Z</time></trkpt><trkpt lat="45.7223383" lon="11.264635"><ele>457.40000000000003</ele><time>2026-04-23T13:05:22.31Z</time></trkpt><trkpt lat="45.7223917" lon="11.264745"><ele>457.20000000000005</ele><time>2026-04-23T13:05:23.309Z</time></trkpt><trkpt lat="45.722455" lon="11.2648567"><ele>457.0</ele><time>2026-04-23T13:05:24.309Z</time></trkpt><trkpt lat="45.7225333" lon="11.2649617"><ele>457.00000000000006</ele><time>2026-04-23T13:05:25.31Z</time></trkpt><trkpt lat="45.7226017" lon="11.2650517"><ele>457.0</ele><time>2026-04-23T13:05:26.309Z</time></trkpt><trkpt lat="45.7226683" lon="11.2651267"><ele>457.0</ele><time>2026-04-23T13:05:27.309Z</time></trkpt><trkpt lat="45.7227233" lon="11.2652"><ele>457.0</ele><time>2026-04-23T13:05:28.309Z</time></trkpt><trkpt lat="45.7227583" lon="11.2652867"><ele>457.00000000000006</ele><time>2026-04-23T13:05:29.31Z</time></trkpt><trkpt lat="45.722785" lon="11.2653767"><ele>457.0</ele><time>2026-04-23T13:05:30.309Z</time></trkpt><trkpt lat="45.7228233" lon="11.265485"><ele>454.40000000000003</ele><time>2026-04-23T13:05:31.309Z</time></trkpt><trkpt lat="45.722865" lon="11.265595"><ele>451.80000000000007</ele><time>2026-04-23T13:05:32.309Z</time></trkpt><trkpt lat="45.722915" lon="11.2656967"><ele>449.2</ele><time>2026-04-23T13:05:33.31Z</time></trkpt><trkpt lat="45.7229667" lon="11.26581"><ele>446.6</ele><time>2026-04-23T13:05:34.309Z</time></trkpt><trkpt lat="45.7230233" lon="11.265925"><ele>444.0</ele><time>2026-04-23T13:05:35.31Z</time></trkpt><trkpt lat="45.7230867" lon="11.2660467"><ele>444.0</ele><time>2026-04-23T13:05:36.309Z</time></trkpt><trkpt lat="45.7231467" lon="11.26616"><ele>444.0</ele><time>2026-04-23T13:05:37.309Z</time></trkpt><trkpt lat="45.7231983" lon="11.2662733"><ele>444.0</ele><time>2026-04-23T13:05:38.31Z</time></trkpt><trkpt lat="45.7232433" lon="11.2663683"><ele>444.0</ele><time>2026-04-23T13:05:39.309Z</time></trkpt><trkpt lat="45.72328" lon="11.2664583"><ele>444.0</ele><time>2026-04-23T13:05:40.309Z</time></trkpt><trkpt lat="45.72332" lon="11.266555"><ele>444.0</ele><time>2026-04-23T13:05:41.309Z</time></trkpt><trkpt lat="45.723375" lon="11.2666467"><ele>444.5</ele><time>2026-04-23T13:05:42.309Z</time></trkpt><trkpt lat="45.7234417" lon="11.2667317"><ele>445.0</ele><time>2026-04-23T13:05:43.31Z</time></trkpt><trkpt lat="45.7235117" lon="11.2668033"><ele>445.5</ele><time>2026-04-23T13:05:44.309Z</time></trkpt><trkpt lat="45.723585" lon="11.2668667"><ele>446.0</ele><time>2026-04-23T13:05:45.309Z</time></trkpt><trkpt lat="45.723665" lon="11.2669233"><ele>446.5</ele><time>2026-04-23T13:05:46.309Z</time></trkpt><trkpt lat="45.7237467" lon="11.2669767"><ele>447.0</ele><time>2026-04-23T13:05:47.309Z</time></trkpt><trkpt lat="45.723835" lon="11.2670467"><ele>447.0</ele><time>2026-04-23T13:05:48.31Z</time></trkpt><trkpt lat="45.7239183" lon="11.2671317"><ele>447.00000000000006</ele><time>2026-04-23T13:05:49.309Z</time></trkpt><trkpt lat="45.723995" lon="11.2672367"><ele>447.00000000000006</ele><time>2026-04-23T13:05:50.309Z</time></trkpt><trkpt lat="45.72406" lon="11.26735"><ele>447.0</ele><time>2026-04-23T13:05:51.309Z</time></trkpt><trkpt lat="45.7241117" lon="11.2674867"><ele>447.0</ele><time>2026-04-23T13:05:52.31Z</time></trkpt><trkpt lat="45.7241633" lon="11.2676433"><ele>448.8</ele><time>2026-04-23T13:05:53.309Z</time></trkpt><trkpt lat="45.72422" lon="11.26779"><ele>450.6</ele><time>2026-04-23T13:05:54.309Z</time></trkpt><trkpt lat="45.724265" lon="11.2679233"><ele>452.40000000000003</ele><time>2026-04-23T13:05:55.31Z</time></trkpt><trkpt lat="45.724295" lon="11.2680533"><ele>454.20000000000005</ele><time>2026-04-23T13:05:56.309Z</time></trkpt><trkpt lat="45.724325" lon="11.26818"><ele>456.0</ele><time>2026-04-23T13:05:57.309Z</time></trkpt><trkpt lat="45.7243583" lon="11.2683133"><ele>456.0</ele><time>2026-04-23T13:05:58.309Z</time></trkpt><trkpt lat="45.72438" lon="11.2684467"><ele>456.0</ele><time>2026-04-23T13:05:59.309Z</time></trkpt><trkpt lat="45.7243933" lon="11.2685883"><ele>456.0</ele><time>2026-04-23T13:06:00.309Z</time></trkpt><trkpt lat="45.7244117" lon="11.268715"><ele>456.0</ele><time>2026-04-23T13:06:01.309Z</time></trkpt><trkpt lat="45.7244317" lon="11.2688433"><ele>456.0</ele><time>2026-04-23T13:06:02.31Z</time></trkpt><trkpt lat="45.7244517" lon="11.26897"><ele>456.6</ele><time>2026-04-23T13:06:03.31Z</time></trkpt><trkpt lat="45.72448" lon="11.269105"><ele>457.20000000000005</ele><time>2026-04-23T13:06:04.309Z</time></trkpt><trkpt lat="45.724515" lon="11.2692467"><ele>457.79999999999995</ele><time>2026-04-23T13:06:05.31Z</time></trkpt><trkpt lat="45.7245633" lon="11.2693933"><ele>458.4</ele><time>2026-04-23T13:06:06.309Z</time></trkpt><trkpt lat="45.7246083" lon="11.2695333"><ele>459.0</ele><time>2026-04-23T13:06:07.31Z</time></trkpt><trkpt lat="45.72465" lon="11.2696667"><ele>458.0</ele><time>2026-04-23T13:06:08.309Z</time></trkpt><trkpt lat="45.724695" lon="11.2697933"><ele>457.0</ele><time>2026-04-23T13:06:09.309Z</time></trkpt><trkpt lat="45.7247383" lon="11.26992"><ele>456.0</ele><time>2026-04-23T13:06:10.309Z</time></trkpt><trkpt lat="45.7248017" lon="11.2700267"><ele>455.0</ele><time>2026-04-23T13:06:11.309Z</time></trkpt><trkpt lat="45.7248783" lon="11.2701283"><ele>454.0</ele><time>2026-04-23T13:06:12.309Z</time></trkpt><trkpt lat="45.72495" lon="11.270225"><ele>454.00000000000006</ele><time>2026-04-23T13:06:13.309Z</time></trkpt><trkpt lat="45.7250133" lon="11.2703167"><ele>454.0</ele><time>2026-04-23T13:06:14.31Z</time></trkpt><trkpt lat="45.7250583" lon="11.2704167"><ele>454.0</ele><time>2026-04-23T13:06:15.309Z</time></trkpt><trkpt lat="45.7250967" lon="11.2705083"><ele>454.0</ele><time>2026-04-23T13:06:16.309Z</time></trkpt><trkpt lat="45.72513" lon="11.2706083"><ele>454.00000000000006</ele><time>2026-04-23T13:06:17.309Z</time></trkpt><trkpt lat="45.7251517" lon="11.2707067"><ele>454.0</ele><time>2026-04-23T13:06:18.309Z</time></trkpt><trkpt lat="45.7251883" lon="11.27084"><ele>451.83333333333337</ele><time>2026-04-23T13:06:20.31Z</time></trkpt><trkpt lat="45.725195" lon="11.2709417"><ele>449.6666666666667</ele><time>2026-04-23T13:06:22.309Z</time></trkpt><trkpt lat="45.7252417" lon="11.271045"><ele>447.5</ele><time>2026-04-23T13:06:25.31Z</time></trkpt><trkpt lat="45.7253017" lon="11.2710767"><ele>445.33333333333337</ele><time>2026-04-23T13:06:27.309Z</time></trkpt><trkpt lat="45.72538" lon="11.2711083"><ele>443.1666666666667</ele><time>2026-04-23T13:06:29.309Z</time></trkpt><trkpt lat="45.7254383" lon="11.2712083"><ele>441.0</ele><time>2026-04-23T13:06:32.309Z</time></trkpt><trkpt lat="45.7254483" lon="11.271305"><ele>439.0</ele><time>2026-04-23T13:06:35.309Z</time></trkpt><trkpt lat="45.7254233" lon="11.2713883"><ele>437.0</ele><time>2026-04-23T13:06:39.309Z</time></trkpt><trkpt lat="45.7254333" lon="11.2712667"><ele>435.0</ele><time>2026-04-23T13:06:43.309Z</time></trkpt><trkpt lat="45.72543" lon="11.2711717"><ele>433.0</ele><time>2026-04-23T13:06:45.309Z</time></trkpt><trkpt lat="45.7254283" lon="11.2710683"><ele>431.0</ele><time>2026-04-23T13:06:47.309Z</time></trkpt><trkpt lat="45.72547" lon="11.2709817"><ele>429.0</ele><time>2026-04-23T13:06:49.309Z</time></trkpt><trkpt lat="45.725525" lon="11.27088"><ele>429.0</ele><time>2026-04-23T13:06:51.309Z</time></trkpt><trkpt lat="45.7255583" lon="11.270765"><ele>429.0</ele><time>2026-04-23T13:06:53.309Z</time></trkpt><trkpt lat="45.7255817" lon="11.2706417"><ele>429.0</ele><time>2026-04-23T13:06:55.31Z</time></trkpt><trkpt lat="45.7255983" lon="11.270525"><ele>429.0</ele><time>2026-04-23T13:06:57.309Z</time></trkpt><trkpt lat="45.7256167" lon="11.2704083"><ele>429.0</ele><time>2026-04-23T13:06:59.309Z</time></trkpt><trkpt lat="45.72563" lon="11.27029"><ele>429.0</ele><time>2026-04-23T13:07:01.31Z</time></trkpt><trkpt lat="45.7256467" lon="11.2701383"><ele>429.2</ele><time>2026-04-23T13:07:03.309Z</time></trkpt><trkpt lat="45.7256867" lon="11.2699917"><ele>429.4</ele><time>2026-04-23T13:07:05.31Z</time></trkpt><trkpt lat="45.72574" lon="11.2698417"><ele>429.6</ele><time>2026-04-23T13:07:07.309Z</time></trkpt><trkpt lat="45.725795" lon="11.2697333"><ele>429.8</ele><time>2026-04-23T13:07:09.309Z</time></trkpt><trkpt lat="45.72583" lon="11.26962"><ele>430.0</ele><time>2026-04-23T13:07:12.309Z</time></trkpt><trkpt lat="45.7258467" lon="11.2697083"><ele>430.00000000000006</ele><time>2026-04-23T13:07:17.31Z</time></trkpt><trkpt lat="45.72586" lon="11.2698583"><ele>430.0</ele><time>2026-04-23T13:07:19.309Z</time></trkpt><trkpt lat="45.7258867" lon="11.269945"><ele>430.0</ele><time>2026-04-23T13:07:20.309Z</time></trkpt><trkpt lat="45.7259167" lon="11.2700483"><ele>430.0</ele><time>2026-04-23T13:07:21.309Z</time></trkpt><trkpt lat="45.7259533" lon="11.2701633"><ele>430.00000000000006</ele><time>2026-04-23T13:07:22.309Z</time></trkpt><trkpt lat="45.725995" lon="11.270285"><ele>430.0</ele><time>2026-04-23T13:07:23.309Z</time></trkpt><trkpt lat="45.7260317" lon="11.2703767"><ele>424.6666666666667</ele><time>2026-04-23T13:07:24.309Z</time></trkpt><trkpt lat="45.7260783" lon="11.2705033"><ele>419.33333333333337</ele><time>2026-04-23T13:07:26.309Z</time></trkpt><trkpt lat="45.7261083" lon="11.2706017"><ele>414.0</ele><time>2026-04-23T13:07:28.31Z</time></trkpt><trkpt lat="45.7261217" lon="11.2705033"><ele>408.66666666666663</ele><time>2026-04-23T13:07:32.309Z</time></trkpt><trkpt lat="45.72615" lon="11.27042"><ele>403.3333333333333</ele><time>2026-04-23T13:07:34.309Z</time></trkpt><trkpt lat="45.7262067" lon="11.270345"><ele>398.0</ele><time>2026-04-23T13:07:36.309Z</time></trkpt><trkpt lat="45.726255" lon="11.2702683"><ele>397.99999999999994</ele><time>2026-04-23T13:07:38.309Z</time></trkpt><trkpt lat="45.726305" lon="11.2701867"><ele>398.0</ele><time>2026-04-23T13:07:40.309Z</time></trkpt><trkpt lat="45.726335" lon="11.2700733"><ele>398.0</ele><time>2026-04-23T13:07:43.309Z</time></trkpt><trkpt lat="45.72631" lon="11.2701783"><ele>398.0</ele><time>2026-04-23T13:08:01.309Z</time></trkpt><trkpt lat="45.7263533" lon="11.2702767"><ele>397.99999999999994</ele><time>2026-04-23T13:08:10.309Z</time></trkpt><trkpt lat="45.7263867" lon="11.270405"><ele>398.0</ele><time>2026-04-23T13:08:13.309Z</time></trkpt><trkpt lat="45.7264233" lon="11.2705233"><ele>399.0</ele><time>2026-04-23T13:08:15.308Z</time></trkpt><trkpt lat="45.7264717" lon="11.2706417"><ele>400.0</ele><time>2026-04-23T13:08:17.308Z</time></trkpt><trkpt lat="45.7265233" lon="11.2707633"><ele>401.0</ele><time>2026-04-23T13:08:19.308Z</time></trkpt><trkpt lat="45.7265683" lon="11.2709"><ele>402.0</ele><time>2026-04-23T13:08:21.308Z</time></trkpt><trkpt lat="45.726595" lon="11.2710267"><ele>403.0</ele><time>2026-04-23T13:08:23.309Z</time></trkpt><trkpt lat="45.7266133" lon="11.2711483"><ele>403.00000000000006</ele><time>2026-04-23T13:08:25.308Z</time></trkpt><trkpt lat="45.72664" lon="11.2712667"><ele>403.0</ele><time>2026-04-23T13:08:27.308Z</time></trkpt><trkpt lat="45.7266817" lon="11.2713967"><ele>403.0</ele><time>2026-04-23T13:08:29.308Z</time></trkpt><trkpt lat="45.726705" lon="11.2715083"><ele>403.0</ele><time>2026-04-23T13:08:32.308Z</time></trkpt><trkpt lat="45.7266633" lon="11.271625"><ele>403.00000000000006</ele><time>2026-04-23T13:08:43.309Z</time></trkpt><trkpt lat="45.72664" lon="11.2717233"><ele>403.0</ele><time>2026-04-23T13:08:45.308Z</time></trkpt><trkpt lat="45.72663" lon="11.2718133"><ele>404.33333333333337</ele><time>2026-04-23T13:08:46.308Z</time></trkpt><trkpt lat="45.726605" lon="11.272"><ele>405.6666666666667</ele><time>2026-04-23T13:08:48.309Z</time></trkpt><trkpt lat="45.7266017" lon="11.2720933"><ele>407.0</ele><time>2026-04-23T13:08:49.309Z</time></trkpt><trkpt lat="45.7265833" lon="11.2722167"><ele>408.33333333333337</ele><time>2026-04-23T13:08:51.308Z</time></trkpt><trkpt lat="45.7265483" lon="11.2723"><ele>409.6666666666667</ele><time>2026-04-23T13:08:53.308Z</time></trkpt><trkpt lat="45.726485" lon="11.2723533"><ele>411.0</ele><time>2026-04-23T13:08:55.308Z</time></trkpt><trkpt lat="45.7264067" lon="11.2723833"><ele>412.5</ele><time>2026-04-23T13:08:58.308Z</time></trkpt><trkpt lat="45.7263367" lon="11.27244"><ele>414.0</ele><time>2026-04-23T13:09:01.308Z</time></trkpt><trkpt lat="45.7262433" lon="11.2724817"><ele>415.5</ele><time>2026-04-23T13:09:04.308Z</time></trkpt><trkpt lat="45.7261783" lon="11.2725683"><ele>417.0</ele><time>2026-04-23T13:09:07.308Z</time></trkpt><trkpt lat="45.72613" lon="11.2726833"><ele>418.5</ele><time>2026-04-23T13:09:55.309Z</time></trkpt><trkpt lat="45.72617" lon="11.2725967"><ele>420.0</ele><time>2026-04-23T13:09:58.308Z</time></trkpt><trkpt lat="45.7262217" lon="11.27253"><ele>420.0</ele><time>2026-04-23T13:10:00.309Z</time></trkpt><trkpt lat="45.72628" lon="11.2724933"><ele>420.0</ele><time>2026-04-23T13:10:03.308Z</time></trkpt><trkpt lat="45.7263617" lon="11.2724583"><ele>420.0</ele><time>2026-04-23T13:10:06.308Z</time></trkpt><trkpt lat="45.7264267" lon="11.27244"><ele>420.0</ele><time>2026-04-23T13:10:09.308Z</time></trkpt><trkpt lat="45.7264917" lon="11.27235"><ele>420.0</ele><time>2026-04-23T13:14:05.307Z</time></trkpt><trkpt lat="45.72644" lon="11.2722817"><ele>420.0</ele><time>2026-04-23T13:14:08.307Z</time></trkpt><trkpt lat="45.7263833" lon="11.2722"><ele>418.5</ele><time>2026-04-23T13:14:11.307Z</time></trkpt><trkpt lat="45.7263467" lon="11.2721183"><ele>417.0</ele><time>2026-04-23T13:14:14.308Z</time></trkpt><trkpt lat="45.726305" lon="11.272015"><ele>415.5</ele><time>2026-04-23T13:14:46.307Z</time></trkpt><trkpt lat="45.72626" lon="11.2719317"><ele>414.0</ele><time>2026-04-23T13:14:48.307Z</time></trkpt><trkpt lat="45.7261817" lon="11.271805"><ele>412.5</ele><time>2026-04-23T13:14:50.307Z</time></trkpt><trkpt lat="45.7261383" lon="11.2717367"><ele>411.0</ele><time>2026-04-23T13:14:51.308Z</time></trkpt><trkpt lat="45.7260933" lon="11.2716583"><ele>414.6</ele><time>2026-04-23T13:14:52.307Z</time></trkpt><trkpt lat="45.7260483" lon="11.2715917"><ele>418.20000000000005</ele><time>2026-04-23T13:14:53.307Z</time></trkpt><trkpt lat="45.7259583" lon="11.2714917"><ele>421.79999999999995</ele><time>2026-04-23T13:14:55.308Z</time></trkpt><trkpt lat="45.72586" lon="11.2714267"><ele>425.4</ele><time>2026-04-23T13:14:57.307Z</time></trkpt><trkpt lat="45.725765" lon="11.2713783"><ele>429.0</ele><time>2026-04-23T13:14:59.307Z</time></trkpt><trkpt lat="45.725675" lon="11.27137"><ele>429.0</ele><time>2026-04-23T13:15:01.307Z</time></trkpt><trkpt lat="45.725585" lon="11.27137"><ele>429.0</ele><time>2026-04-23T13:15:03.308Z</time></trkpt><trkpt lat="45.7255183" lon="11.2713383"><ele>429.0</ele><time>2026-04-23T13:15:05.307Z</time></trkpt><trkpt lat="45.7254667" lon="11.271225"><ele>429.0</ele><time>2026-04-23T13:15:07.307Z</time></trkpt><trkpt lat="45.7254233" lon="11.2710967"><ele>429.0</ele><time>2026-04-23T13:15:09.307Z</time></trkpt><trkpt lat="45.725355" lon="11.27103"><ele>429.0</ele><time>2026-04-23T13:15:11.307Z</time></trkpt><trkpt lat="45.7252817" lon="11.2710117"><ele>429.0</ele><time>2026-04-23T13:15:13.307Z</time></trkpt><trkpt lat="45.7252267" lon="11.2710733"><ele>429.0</ele><time>2026-04-23T13:15:16.307Z</time></trkpt><trkpt lat="45.7252233" lon="11.2712"><ele>429.0</ele><time>2026-04-23T13:15:18.307Z</time></trkpt><trkpt lat="45.7252433" lon="11.2714083"><ele>429.0</ele><time>2026-04-23T13:15:20.308Z</time></trkpt><trkpt lat="45.7252617" lon="11.2715267"><ele>429.0</ele><time>2026-04-23T13:15:21.307Z</time></trkpt><trkpt lat="45.7252733" lon="11.27163"><ele>429.5</ele><time>2026-04-23T13:15:22.307Z</time></trkpt><trkpt lat="45.7252733" lon="11.271725"><ele>430.0</ele><time>2026-04-23T13:15:23.307Z</time></trkpt><trkpt lat="45.7252383" lon="11.2718417"><ele>430.5</ele><time>2026-04-23T13:15:25.307Z</time></trkpt><trkpt lat="45.7251733" lon="11.2718367"><ele>431.0</ele><time>2026-04-23T13:15:27.308Z</time></trkpt><trkpt lat="45.7251517" lon="11.271745"><ele>431.5</ele><time>2026-04-23T13:15:28.307Z</time></trkpt><trkpt lat="45.7250983" lon="11.2715667"><ele>432.0</ele><time>2026-04-23T13:15:30.306Z</time></trkpt><trkpt lat="45.7250433" lon="11.2713533"><ele>435.0</ele><time>2026-04-23T13:15:31.306Z</time></trkpt><trkpt lat="45.72496" lon="11.2711083"><ele>438.0</ele><time>2026-04-23T13:15:32.306Z</time></trkpt><trkpt lat="45.7248867" lon="11.2709083"><ele>441.0</ele><time>2026-04-23T13:15:33.306Z</time></trkpt><trkpt lat="45.72484" lon="11.2707533"><ele>441.0</ele><time>2026-04-23T13:15:34.306Z</time></trkpt><trkpt lat="45.7247917" lon="11.2706433"><ele>441.0</ele><time>2026-04-23T13:15:35.306Z</time></trkpt><trkpt lat="45.724745" lon="11.2705517"><ele>441.0</ele><time>2026-04-23T13:15:36.306Z</time></trkpt><trkpt lat="45.724695" lon="11.2704767"><ele>441.0</ele><time>2026-04-23T13:15:37.306Z</time></trkpt><trkpt lat="45.7246267" lon="11.27051"><ele>441.0</ele><time>2026-04-23T13:15:39.306Z</time></trkpt><trkpt lat="45.72461" lon="11.2706133"><ele>441.0</ele><time>2026-04-23T13:15:40.306Z</time></trkpt><trkpt lat="45.72466" lon="11.27082"><ele>441.0</ele><time>2026-04-23T13:15:42.306Z</time></trkpt><trkpt lat="45.7247117" lon="11.270975"><ele>441.0</ele><time>2026-04-23T13:15:43.307Z</time></trkpt><trkpt lat="45.724755" lon="11.2711483"><ele>441.0</ele><time>2026-04-23T13:15:44.306Z</time></trkpt><trkpt lat="45.72476" lon="11.271325"><ele>441.0</ele><time>2026-04-23T13:15:45.306Z</time></trkpt><trkpt lat="45.7247283" lon="11.271495"><ele>439.20000000000005</ele><time>2026-04-23T13:15:46.306Z</time></trkpt><trkpt lat="45.7246817" lon="11.2716333"><ele>437.40000000000003</ele><time>2026-04-23T13:15:47.306Z</time></trkpt><trkpt lat="45.72462" lon="11.271745"><ele>435.6</ele><time>2026-04-23T13:15:48.306Z</time></trkpt><trkpt lat="45.7245517" lon="11.2718567"><ele>433.8</ele><time>2026-04-23T13:15:49.306Z</time></trkpt><trkpt lat="45.7244783" lon="11.2719483"><ele>432.0</ele><time>2026-04-23T13:15:50.306Z</time></trkpt><trkpt lat="45.72442" lon="11.272045"><ele>426.0</ele><time>2026-04-23T13:15:51.306Z</time></trkpt><trkpt lat="45.7243833" lon="11.2721367"><ele>420.00000000000006</ele><time>2026-04-23T13:15:52.307Z</time></trkpt><trkpt lat="45.72436" lon="11.2722767"><ele>414.0</ele><time>2026-04-23T13:15:53.306Z</time></trkpt><trkpt lat="45.7243683" lon="11.2724567"><ele>408.0</ele><time>2026-04-23T13:15:54.306Z</time></trkpt><trkpt lat="45.7243683" lon="11.272655"><ele>402.0</ele><time>2026-04-23T13:15:55.306Z</time></trkpt><trkpt lat="45.7243733" lon="11.2728317"><ele>402.0</ele><time>2026-04-23T13:15:56.306Z</time></trkpt><trkpt lat="45.7243933" lon="11.2729767"><ele>402.0</ele><time>2026-04-23T13:15:57.307Z</time></trkpt><trkpt lat="45.7244233" lon="11.27312"><ele>402.0</ele><time>2026-04-23T13:15:58.307Z</time></trkpt><trkpt lat="45.7244583" lon="11.27327"><ele>402.0</ele><time>2026-04-23T13:15:59.306Z</time></trkpt><trkpt lat="45.7244967" lon="11.27341"><ele>402.0</ele><time>2026-04-23T13:16:00.306Z</time></trkpt><trkpt lat="45.7245317" lon="11.2735533"><ele>408.0</ele><time>2026-04-23T13:16:01.306Z</time></trkpt><trkpt lat="45.7245617" lon="11.2736933"><ele>414.0</ele><time>2026-04-23T13:16:02.306Z</time></trkpt><trkpt lat="45.7245667" lon="11.2738233"><ele>420.00000000000006</ele><time>2026-04-23T13:16:03.306Z</time></trkpt><trkpt lat="45.724545" lon="11.2739617"><ele>426.0</ele><time>2026-04-23T13:16:04.307Z</time></trkpt><trkpt lat="45.7245133" lon="11.274095"><ele>432.0</ele><time>2026-04-23T13:16:05.306Z</time></trkpt><trkpt lat="45.7245117" lon="11.2742267"><ele>432.0</ele><time>2026-04-23T13:16:06.306Z</time></trkpt><trkpt lat="45.7245367" lon="11.27436"><ele>432.0</ele><time>2026-04-23T13:16:07.306Z</time></trkpt><trkpt lat="45.7245967" lon="11.2745183"><ele>432.0</ele><time>2026-04-23T13:16:08.306Z</time></trkpt><trkpt lat="45.7246617" lon="11.2746917"><ele>432.0</ele><time>2026-04-23T13:16:09.306Z</time></trkpt><trkpt lat="45.7247083" lon="11.2748583"><ele>428.0</ele><time>2026-04-23T13:16:10.306Z</time></trkpt><trkpt lat="45.7247283" lon="11.2750267"><ele>424.0</ele><time>2026-04-23T13:16:11.306Z</time></trkpt><trkpt lat="45.7247367" lon="11.2752017"><ele>420.0</ele><time>2026-04-23T13:16:12.306Z</time></trkpt><trkpt lat="45.7247383" lon="11.275395"><ele>416.0</ele><time>2026-04-23T13:16:13.306Z</time></trkpt><trkpt lat="45.7247483" lon="11.27559"><ele>413.5</ele><time>2026-04-23T13:16:14.307Z</time></trkpt><trkpt lat="45.72476" lon="11.2758"><ele>411.0</ele><time>2026-04-23T13:16:15.306Z</time></trkpt><trkpt lat="45.7247767" lon="11.2760283"><ele>408.5</ele><time>2026-04-23T13:16:16.306Z</time></trkpt><trkpt lat="45.7248" lon="11.2761967"><ele>406.0</ele><time>2026-04-23T13:16:17.306Z</time></trkpt><trkpt lat="45.7248283" lon="11.27634"><ele>401.0</ele><time>2026-04-23T13:16:18.307Z</time></trkpt><trkpt lat="45.7248767" lon="11.2764417"><ele>396.0</ele><time>2026-04-23T13:16:19.307Z</time></trkpt><trkpt lat="45.7249617" lon="11.276575"><ele>391.0</ele><time>2026-04-23T13:16:20.306Z</time></trkpt><trkpt lat="45.7250383" lon="11.2767"><ele>386.0</ele><time>2026-04-23T13:16:21.306Z</time></trkpt><trkpt lat="45.7251283" lon="11.2768417"><ele>386.0</ele><time>2026-04-23T13:16:22.306Z</time></trkpt><trkpt lat="45.72521" lon="11.276995"><ele>386.0</ele><time>2026-04-23T13:16:23.306Z</time></trkpt><trkpt lat="45.7252917" lon="11.2771283"><ele>386.0</ele><time>2026-04-23T13:16:24.306Z</time></trkpt><trkpt lat="45.7253733" lon="11.2772567"><ele>386.0</ele><time>2026-04-23T13:16:25.306Z</time></trkpt><trkpt lat="45.7254733" lon="11.2773383"><ele>385.25</ele><time>2026-04-23T13:16:26.306Z</time></trkpt><trkpt lat="45.7255817" lon="11.277435"><ele>384.5</ele><time>2026-04-23T13:16:27.306Z</time></trkpt><trkpt lat="45.7257" lon="11.2775417"><ele>383.75</ele><time>2026-04-23T13:16:28.306Z</time></trkpt><trkpt lat="45.7258067" lon="11.27764"><ele>383.0</ele><time>2026-04-23T13:16:29.306Z</time></trkpt><trkpt lat="45.7258933" lon="11.2777433"><ele>383.0</ele><time>2026-04-23T13:16:30.306Z</time></trkpt><trkpt lat="45.7259767" lon="11.27787"><ele>383.0</ele><time>2026-04-23T13:16:31.307Z</time></trkpt><trkpt lat="45.72605" lon="11.2780117"><ele>383.0</ele><time>2026-04-23T13:16:32.306Z</time></trkpt><trkpt lat="45.726125" lon="11.2781733"><ele>383.0</ele><time>2026-04-23T13:16:33.306Z</time></trkpt><trkpt lat="45.7261967" lon="11.2782883"><ele>377.59999999999997</ele><time>2026-04-23T13:16:34.306Z</time></trkpt><trkpt lat="45.7262617" lon="11.278385"><ele>372.2</ele><time>2026-04-23T13:16:35.306Z</time></trkpt><trkpt lat="45.7263317" lon="11.2784717"><ele>366.8</ele><time>2026-04-23T13:16:36.306Z</time></trkpt><trkpt lat="45.7264267" lon="11.2784683"><ele>361.4</ele><time>2026-04-23T13:16:37.306Z</time></trkpt><trkpt lat="45.7265217" lon="11.27847"><ele>356.0</ele><time>2026-04-23T13:16:38.307Z</time></trkpt><trkpt lat="45.726625" lon="11.27845"><ele>356.0</ele><time>2026-04-23T13:16:39.306Z</time></trkpt><trkpt lat="45.7267333" lon="11.2784167"><ele>356.0</ele><time>2026-04-23T13:16:40.306Z</time></trkpt><trkpt lat="45.726825" lon="11.2783517"><ele>356.0</ele><time>2026-04-23T13:16:41.306Z</time></trkpt><trkpt lat="45.7269233" lon="11.2782667"><ele>356.0</ele><time>2026-04-23T13:16:42.306Z</time></trkpt><trkpt lat="45.7270083" lon="11.278165"><ele>356.0</ele><time>2026-04-23T13:16:43.306Z</time></trkpt><trkpt lat="45.727085" lon="11.278065"><ele>357.6</ele><time>2026-04-23T13:16:44.306Z</time></trkpt><trkpt lat="45.7271383" lon="11.2779683"><ele>359.20000000000005</ele><time>2026-04-23T13:16:45.307Z</time></trkpt><trkpt lat="45.7272183" lon="11.277945"><ele>360.79999999999995</ele><time>2026-04-23T13:16:47.306Z</time></trkpt><trkpt lat="45.7272083" lon="11.278065"><ele>362.4</ele><time>2026-04-23T13:16:50.306Z</time></trkpt><trkpt lat="45.72713" lon="11.2781817"><ele>364.0</ele><time>2026-04-23T13:16:51.307Z</time></trkpt><trkpt lat="45.72704" lon="11.2783233"><ele>362.0</ele><time>2026-04-23T13:16:52.306Z</time></trkpt><trkpt lat="45.7269317" lon="11.278455"><ele>360.0</ele><time>2026-04-23T13:16:53.306Z</time></trkpt><trkpt lat="45.7267917" lon="11.2785567"><ele>358.0</ele><time>2026-04-23T13:16:54.306Z</time></trkpt><trkpt lat="45.7266617" lon="11.2786283"><ele>356.0</ele><time>2026-04-23T13:16:55.306Z</time></trkpt><trkpt lat="45.7265683" lon="11.2787117"><ele>356.0</ele><time>2026-04-23T13:16:56.306Z</time></trkpt><trkpt lat="45.726435" lon="11.2787367"><ele>356.0</ele><time>2026-04-23T13:16:57.306Z</time></trkpt><trkpt lat="45.7263167" lon="11.27873"><ele>356.0</ele><time>2026-04-23T13:16:58.306Z</time></trkpt><trkpt lat="45.726195" lon="11.2787083"><ele>356.0</ele><time>2026-04-23T13:16:59.306Z</time></trkpt><trkpt lat="45.7260767" lon="11.2786533"><ele>353.0</ele><time>2026-04-23T13:17:00.306Z</time></trkpt><trkpt lat="45.7259617" lon="11.2785767"><ele>350.0</ele><time>2026-04-23T13:17:01.306Z</time></trkpt><trkpt lat="45.72585" lon="11.2784883"><ele>347.0</ele><time>2026-04-23T13:17:02.306Z</time></trkpt><trkpt lat="45.7257617" lon="11.278395"><ele>344.0</ele><time>2026-04-23T13:17:03.306Z</time></trkpt><trkpt lat="45.72565" lon="11.278285"><ele>344.0</ele><time>2026-04-23T13:17:04.307Z</time></trkpt><trkpt lat="45.7255517" lon="11.2781883"><ele>344.0</ele><time>2026-04-23T13:17:05.307Z</time></trkpt><trkpt lat="45.72546" lon="11.2781217"><ele>344.0</ele><time>2026-04-23T13:17:06.306Z</time></trkpt><trkpt lat="45.7253683" lon="11.278085"><ele>344.0</ele><time>2026-04-23T13:17:07.306Z</time></trkpt><trkpt lat="45.725295" lon="11.2780567"><ele>344.0</ele><time>2026-04-23T13:17:08.306Z</time></trkpt><trkpt lat="45.72523" lon="11.2780383"><ele>344.0</ele><time>2026-04-23T13:17:09.306Z</time></trkpt><trkpt lat="45.7251417" lon="11.27809"><ele>344.0</ele><time>2026-04-23T13:17:11.306Z</time></trkpt><trkpt lat="45.7252267" lon="11.27824"><ele>344.0</ele><time>2026-04-23T13:17:13.306Z</time></trkpt><trkpt lat="45.72533" lon="11.2783633"><ele>344.0</ele><time>2026-04-23T13:17:14.306Z</time></trkpt><trkpt lat="45.7254317" lon="11.2784883"><ele>344.0</ele><time>2026-04-23T13:17:15.306Z</time></trkpt><trkpt lat="45.7255167" lon="11.2786017"><ele>344.0</ele><time>2026-04-23T13:17:16.306Z</time></trkpt><trkpt lat="45.7255817" lon="11.27869"><ele>344.0</ele><time>2026-04-23T13:17:17.306Z</time></trkpt><trkpt lat="45.7256317" lon="11.2787483"><ele>344.0</ele><time>2026-04-23T13:17:18.306Z</time></trkpt><trkpt lat="45.725705" lon="11.278855"><ele>344.0</ele><time>2026-04-23T13:17:20.306Z</time></trkpt><trkpt lat="45.72575" lon="11.2789283"><ele>344.0</ele><time>2026-04-23T13:17:21.306Z</time></trkpt><trkpt lat="45.7258133" lon="11.2790033"><ele>339.0</ele><time>2026-04-23T13:17:22.306Z</time></trkpt><trkpt lat="45.7258867" lon="11.2790867"><ele>334.0</ele><time>2026-04-23T13:17:23.306Z</time></trkpt><trkpt lat="45.7259567" lon="11.2791683"><ele>329.0</ele><time>2026-04-23T13:17:24.306Z</time></trkpt><trkpt lat="45.7260183" lon="11.27924"><ele>324.0</ele><time>2026-04-23T13:17:25.307Z</time></trkpt><trkpt lat="45.7260867" lon="11.2793017"><ele>319.0</ele><time>2026-04-23T13:17:26.306Z</time></trkpt><trkpt lat="45.7261633" lon="11.2793483"><ele>314.0</ele><time>2026-04-23T13:17:27.306Z</time></trkpt><trkpt lat="45.7262517" lon="11.2793967"><ele>313.75</ele><time>2026-04-23T13:17:28.306Z</time></trkpt><trkpt lat="45.726355" lon="11.279425"><ele>313.5</ele><time>2026-04-23T13:17:29.306Z</time></trkpt><trkpt lat="45.72647" lon="11.2794217"><ele>313.25</ele><time>2026-04-23T13:17:30.306Z</time></trkpt><trkpt lat="45.726585" lon="11.2794067"><ele>313.0</ele><time>2026-04-23T13:17:31.306Z</time></trkpt><trkpt lat="45.7267083" lon="11.2793683"><ele>313.0</ele><time>2026-04-23T13:17:32.306Z</time></trkpt><trkpt lat="45.726825" lon="11.2793967"><ele>313.0</ele><time>2026-04-23T13:17:33.306Z</time></trkpt><trkpt lat="45.7269383" lon="11.2793983"><ele>313.0</ele><time>2026-04-23T13:17:34.306Z</time></trkpt><trkpt lat="45.7270467" lon="11.2794"><ele>313.0</ele><time>2026-04-23T13:17:35.306Z</time></trkpt><trkpt lat="45.7271433" lon="11.2794"><ele>313.0</ele><time>2026-04-23T13:17:36.306Z</time></trkpt><trkpt lat="45.7272167" lon="11.2794083"><ele>311.5</ele><time>2026-04-23T13:17:37.307Z</time></trkpt><trkpt lat="45.7272867" lon="11.27945"><ele>310.0</ele><time>2026-04-23T13:17:38.306Z</time></trkpt><trkpt lat="45.7273567" lon="11.2795533"><ele>308.5</ele><time>2026-04-23T13:17:40.306Z</time></trkpt><trkpt lat="45.7273633" lon="11.279655"><ele>307.0</ele><time>2026-04-23T13:17:42.306Z</time></trkpt><trkpt lat="45.7273283" lon="11.2797333"><ele>305.5</ele><time>2026-04-23T13:18:07.306Z</time></trkpt><trkpt lat="45.727215" lon="11.2798433"><ele>304.0</ele><time>2026-04-23T13:18:09.306Z</time></trkpt><trkpt lat="45.7271133" lon="11.2798667"><ele>302.5</ele><time>2026-04-23T13:18:10.306Z</time></trkpt><trkpt lat="45.7269983" lon="11.2798767"><ele>301.0</ele><time>2026-04-23T13:18:11.306Z</time></trkpt><trkpt lat="45.7268683" lon="11.2798817"><ele>299.5</ele><time>2026-04-23T13:18:12.306Z</time></trkpt><trkpt lat="45.726735" lon="11.2798817"><ele>298.0</ele><time>2026-04-23T13:18:13.306Z</time></trkpt><trkpt lat="45.7266133" lon="11.279895"><ele>297.5</ele><time>2026-04-23T13:18:14.306Z</time></trkpt><trkpt lat="45.7264833" lon="11.2799083"><ele>297.0</ele><time>2026-04-23T13:18:15.306Z</time></trkpt><trkpt lat="45.7263467" lon="11.2799267"><ele>296.5</ele><time>2026-04-23T13:18:16.306Z</time></trkpt><trkpt lat="45.7262067" lon="11.2799483"><ele>296.0</ele><time>2026-04-23T13:18:17.306Z</time></trkpt><trkpt lat="45.7260717" lon="11.279965"><ele>295.75</ele><time>2026-04-23T13:18:18.306Z</time></trkpt><trkpt lat="45.72593" lon="11.2799967"><ele>295.5</ele><time>2026-04-23T13:18:19.306Z</time></trkpt><trkpt lat="45.725795" lon="11.2800117"><ele>295.25</ele><time>2026-04-23T13:18:20.307Z</time></trkpt><trkpt lat="45.7256483" lon="11.280055"><ele>295.0</ele><time>2026-04-23T13:18:21.306Z</time></trkpt><trkpt lat="45.725505" lon="11.2800933"><ele>295.0</ele><time>2026-04-23T13:18:22.306Z</time></trkpt><trkpt lat="45.7253583" lon="11.2801133"><ele>295.0</ele><time>2026-04-23T13:18:23.306Z</time></trkpt><trkpt lat="45.7252233" lon="11.2801783"><ele>295.0</ele><time>2026-04-23T13:18:24.306Z</time></trkpt><trkpt lat="45.7250867" lon="11.2802433"><ele>295.0</ele><time>2026-04-23T13:18:25.306Z</time></trkpt><trkpt lat="45.7249383" lon="11.280365"><ele>296.66666666666663</ele><time>2026-04-23T13:18:26.306Z</time></trkpt><trkpt lat="45.7247933" lon="11.2804883"><ele>298.3333333333333</ele><time>2026-04-23T13:18:27.306Z</time></trkpt><trkpt lat="45.72465" lon="11.2806133"><ele>300.0</ele><time>2026-04-23T13:18:28.306Z</time></trkpt><trkpt lat="45.724505" lon="11.2807183"><ele>298.3333333333333</ele><time>2026-04-23T13:18:29.306Z</time></trkpt><trkpt lat="45.724355" lon="11.2808233"><ele>296.66666666666663</ele><time>2026-04-23T13:18:30.306Z</time></trkpt><trkpt lat="45.724195" lon="11.2809383"><ele>295.0</ele><time>2026-04-23T13:18:31.307Z</time></trkpt><trkpt lat="45.7240333" lon="11.28106"><ele>295.0</ele><time>2026-04-23T13:18:32.306Z</time></trkpt><trkpt lat="45.7238833" lon="11.281155"><ele>295.0</ele><time>2026-04-23T13:18:33.307Z</time></trkpt><trkpt lat="45.7237533" lon="11.2812467"><ele>295.0</ele><time>2026-04-23T13:18:34.306Z</time></trkpt><trkpt lat="45.7236267" lon="11.281325"><ele>295.0</ele><time>2026-04-23T13:18:35.307Z</time></trkpt><trkpt lat="45.723515" lon="11.2814"><ele>293.25</ele><time>2026-04-23T13:18:36.307Z</time></trkpt><trkpt lat="45.723405" lon="11.2814733"><ele>291.5</ele><time>2026-04-23T13:18:37.306Z</time></trkpt><trkpt lat="45.723305" lon="11.2815517"><ele>289.75</ele><time>2026-04-23T13:18:38.306Z</time></trkpt><trkpt lat="45.7232117" lon="11.281655"><ele>288.0</ele><time>2026-04-23T13:18:39.306Z</time></trkpt><trkpt lat="45.723145" lon="11.2817683"><ele>288.0</ele><time>2026-04-23T13:18:40.306Z</time></trkpt><trkpt lat="45.7231133" lon="11.2819117"><ele>288.0</ele><time>2026-04-23T13:18:41.307Z</time></trkpt><trkpt lat="45.7231283" lon="11.282055"><ele>288.0</ele><time>2026-04-23T13:18:42.306Z</time></trkpt><trkpt lat="45.7231267" lon="11.2822"><ele>288.0</ele><time>2026-04-23T13:18:43.307Z</time></trkpt><trkpt lat="45.7231017" lon="11.2823183"><ele>288.0</ele><time>2026-04-23T13:18:44.306Z</time></trkpt><trkpt lat="45.7230183" lon="11.282445"><ele>287.75</ele><time>2026-04-23T13:18:45.306Z</time></trkpt><trkpt lat="45.7229183" lon="11.28256"><ele>287.5</ele><time>2026-04-23T13:18:46.306Z</time></trkpt><trkpt lat="45.722785" lon="11.2826917"><ele>287.25</ele><time>2026-04-23T13:18:47.306Z</time></trkpt><trkpt lat="45.7226633" lon="11.2828217"><ele>287.0</ele><time>2026-04-23T13:18:48.306Z</time></trkpt><trkpt lat="45.7225483" lon="11.2829783"><ele>291.6666666666667</ele><time>2026-04-23T13:18:49.306Z</time></trkpt><trkpt lat="45.7224633" lon="11.2831817"><ele>296.3333333333333</ele><time>2026-04-23T13:18:50.307Z</time></trkpt><trkpt lat="45.7223783" lon="11.283425"><ele>301.0</ele><time>2026-04-23T13:18:51.306Z</time></trkpt><trkpt lat="45.7222983" lon="11.28367"><ele>301.0</ele><time>2026-04-23T13:18:52.306Z</time></trkpt><trkpt lat="45.722225" lon="11.2839117"><ele>301.0</ele><time>2026-04-23T13:18:53.306Z</time></trkpt><trkpt lat="45.7221717" lon="11.2841667"><ele>301.0</ele><time>2026-04-23T13:18:54.306Z</time></trkpt><trkpt lat="45.7221183" lon="11.28442"><ele>305.3333333333333</ele><time>2026-04-23T13:18:55.306Z</time></trkpt><trkpt lat="45.722075" lon="11.28468"><ele>309.6666666666667</ele><time>2026-04-23T13:18:56.306Z</time></trkpt><trkpt lat="45.7220467" lon="11.2849417"><ele>314.0</ele><time>2026-04-23T13:18:57.306Z</time></trkpt><trkpt lat="45.7220067" lon="11.2852033"><ele>316.33333333333337</ele><time>2026-04-23T13:18:58.306Z</time></trkpt><trkpt lat="45.7219733" lon="11.2854867"><ele>318.6666666666667</ele><time>2026-04-23T13:18:59.306Z</time></trkpt><trkpt lat="45.7219217" lon="11.2857367"><ele>321.0</ele><time>2026-04-23T13:19:00.306Z</time></trkpt><trkpt lat="45.7218633" lon="11.2859583"><ele>309.3333333333333</ele><time>2026-04-23T13:19:01.307Z</time></trkpt><trkpt lat="45.721795" lon="11.2861617"><ele>297.66666666666663</ele><time>2026-04-23T13:19:02.307Z</time></trkpt><trkpt lat="45.7217317" lon="11.2863383"><ele>286.0</ele><time>2026-04-23T13:19:03.305Z</time></trkpt><trkpt lat="45.7216517" lon="11.2865383"><ele>286.0</ele><time>2026-04-23T13:19:04.305Z</time></trkpt><trkpt lat="45.7215567" lon="11.2867417"><ele>286.0</ele><time>2026-04-23T13:19:05.306Z</time></trkpt><trkpt lat="45.7214733" lon="11.28693"><ele>286.0</ele><time>2026-04-23T13:19:06.305Z</time></trkpt><trkpt lat="45.721385" lon="11.2871083"><ele>288.66666666666663</ele><time>2026-04-23T13:19:07.305Z</time></trkpt><trkpt lat="45.721295" lon="11.2872867"><ele>291.3333333333333</ele><time>2026-04-23T13:19:08.306Z</time></trkpt><trkpt lat="45.72121" lon="11.287475"><ele>294.0</ele><time>2026-04-23T13:19:09.305Z</time></trkpt><trkpt lat="45.7210983" lon="11.2877083"><ele>288.3333333333333</ele><time>2026-04-23T13:19:10.305Z</time></trkpt><trkpt lat="45.72101" lon="11.2879167"><ele>282.66666666666663</ele><time>2026-04-23T13:19:11.306Z</time></trkpt><trkpt lat="45.7209183" lon="11.288135"><ele>277.0</ele><time>2026-04-23T13:19:12.305Z</time></trkpt><trkpt lat="45.7208267" lon="11.28833"><ele>277.0</ele><time>2026-04-23T13:19:13.305Z</time></trkpt><trkpt lat="45.72075" lon="11.28852"><ele>277.0</ele><time>2026-04-23T13:19:14.306Z</time></trkpt><trkpt lat="45.7206717" lon="11.2886833"><ele>277.0</ele><time>2026-04-23T13:19:15.305Z</time></trkpt><trkpt lat="45.720575" lon="11.2888383"><ele>277.0</ele><time>2026-04-23T13:19:16.305Z</time></trkpt><trkpt lat="45.72047" lon="11.288985"><ele>276.0</ele><time>2026-04-23T13:19:17.305Z</time></trkpt><trkpt lat="45.7203617" lon="11.2891267"><ele>275.0</ele><time>2026-04-23T13:19:18.306Z</time></trkpt><trkpt lat="45.720245" lon="11.289255"><ele>274.0</ele><time>2026-04-23T13:19:19.306Z</time></trkpt><trkpt lat="45.7201233" lon="11.2893983"><ele>274.0</ele><time>2026-04-23T13:19:20.305Z</time></trkpt><trkpt lat="45.719985" lon="11.2895733"><ele>274.0</ele><time>2026-04-23T13:19:21.305Z</time></trkpt><trkpt lat="45.7198417" lon="11.2897633"><ele>274.0</ele><time>2026-04-23T13:19:22.305Z</time></trkpt><trkpt lat="45.7197167" lon="11.2899217"><ele>273.66666666666663</ele><time>2026-04-23T13:19:23.305Z</time></trkpt><trkpt lat="45.71959" lon="11.2900883"><ele>273.3333333333333</ele><time>2026-04-23T13:19:24.305Z</time></trkpt><trkpt lat="45.7194733" lon="11.2902467"><ele>273.0</ele><time>2026-04-23T13:19:25.305Z</time></trkpt><trkpt lat="45.719365" lon="11.2903917"><ele>273.0</ele><time>2026-04-23T13:19:26.305Z</time></trkpt><trkpt lat="45.7192617" lon="11.2905433"><ele>273.0</ele><time>2026-04-23T13:19:27.305Z</time></trkpt><trkpt lat="45.71917" lon="11.2906967"><ele>273.0</ele><time>2026-04-23T13:19:28.305Z</time></trkpt><trkpt lat="45.7190667" lon="11.2909017"><ele>272.6666666666667</ele><time>2026-04-23T13:19:29.306Z</time></trkpt><trkpt lat="45.71897" lon="11.291085"><ele>272.33333333333337</ele><time>2026-04-23T13:19:30.305Z</time></trkpt><trkpt lat="45.7188983" lon="11.2912933"><ele>272.0</ele><time>2026-04-23T13:19:31.305Z</time></trkpt><trkpt lat="45.7188517" lon="11.2915017"><ele>273.33333333333337</ele><time>2026-04-23T13:19:32.306Z</time></trkpt><trkpt lat="45.718815" lon="11.29171"><ele>274.6666666666667</ele><time>2026-04-23T13:19:33.306Z</time></trkpt><trkpt lat="45.71879" lon="11.2919217"><ele>276.0</ele><time>2026-04-23T13:19:34.305Z</time></trkpt><trkpt lat="45.7187667" lon="11.2921517"><ele>276.75</ele><time>2026-04-23T13:19:35.305Z</time></trkpt><trkpt lat="45.7187433" lon="11.29236"><ele>277.5</ele><time>2026-04-23T13:19:36.305Z</time></trkpt><trkpt lat="45.7187267" lon="11.2925733"><ele>278.25</ele><time>2026-04-23T13:19:37.305Z</time></trkpt><trkpt lat="45.7187233" lon="11.2927883"><ele>279.0</ele><time>2026-04-23T13:19:38.305Z</time></trkpt><trkpt lat="45.7187117" lon="11.2929967"><ele>280.0</ele><time>2026-04-23T13:19:39.305Z</time></trkpt><trkpt lat="45.7187133" lon="11.2932083"><ele>281.0</ele><time>2026-04-23T13:19:40.305Z</time></trkpt><trkpt lat="45.7187017" lon="11.2934017"><ele>282.0</ele><time>2026-04-23T13:19:41.305Z</time></trkpt><trkpt lat="45.7186983" lon="11.293585"><ele>283.0</ele><time>2026-04-23T13:19:42.305Z</time></trkpt><trkpt lat="45.718695" lon="11.2937683"><ele>285.0</ele><time>2026-04-23T13:19:43.306Z</time></trkpt><trkpt lat="45.7186967" lon="11.29397"><ele>287.0</ele><time>2026-04-23T13:19:44.305Z</time></trkpt><trkpt lat="45.7186867" lon="11.2941583"><ele>289.0</ele><time>2026-04-23T13:19:45.305Z</time></trkpt><trkpt lat="45.71868" lon="11.294335"><ele>291.0</ele><time>2026-04-23T13:19:46.305Z</time></trkpt><trkpt lat="45.7186717" lon="11.2945183"><ele>291.0</ele><time>2026-04-23T13:19:47.305Z</time></trkpt><trkpt lat="45.7186533" lon="11.2947483"><ele>291.0</ele><time>2026-04-23T13:19:48.306Z</time></trkpt><trkpt lat="45.71864" lon="11.2949717"><ele>291.0</ele><time>2026-04-23T13:19:49.306Z</time></trkpt><trkpt lat="45.7186367" lon="11.2951983"><ele>291.3333333333333</ele><time>2026-04-23T13:19:50.305Z</time></trkpt><trkpt lat="45.718635" lon="11.2954283"><ele>291.66666666666663</ele><time>2026-04-23T13:19:51.305Z</time></trkpt><trkpt lat="45.7186467" lon="11.2956533"><ele>292.0</ele><time>2026-04-23T13:19:52.305Z</time></trkpt><trkpt lat="45.7186883" lon="11.2959017"><ele>290.3333333333333</ele><time>2026-04-23T13:19:53.305Z</time></trkpt><trkpt lat="45.7187417" lon="11.29613"><ele>288.6666666666667</ele><time>2026-04-23T13:19:54.305Z</time></trkpt><trkpt lat="45.7187917" lon="11.29636"><ele>287.0</ele><time>2026-04-23T13:19:55.305Z</time></trkpt><trkpt lat="45.7188433" lon="11.2965933"><ele>286.6666666666667</ele><time>2026-04-23T13:19:56.306Z</time></trkpt><trkpt lat="45.7188983" lon="11.2968383"><ele>286.3333333333333</ele><time>2026-04-23T13:19:57.305Z</time></trkpt><trkpt lat="45.71893" lon="11.29707"><ele>286.0</ele><time>2026-04-23T13:19:58.306Z</time></trkpt><trkpt lat="45.718965" lon="11.2972817"><ele>286.0</ele><time>2026-04-23T13:19:59.305Z</time></trkpt><trkpt lat="45.7189733" lon="11.2975017"><ele>286.0</ele><time>2026-04-23T13:20:00.305Z</time></trkpt><trkpt lat="45.7189383" lon="11.2977233"><ele>286.0</ele><time>2026-04-23T13:20:01.305Z</time></trkpt><trkpt lat="45.7189233" lon="11.2979633"><ele>283.66666666666663</ele><time>2026-04-23T13:20:02.305Z</time></trkpt><trkpt lat="45.7189367" lon="11.2982383"><ele>281.3333333333333</ele><time>2026-04-23T13:20:03.306Z</time></trkpt><trkpt lat="45.7189683" lon="11.2985133"><ele>279.0</ele><time>2026-04-23T13:20:04.306Z</time></trkpt><trkpt lat="45.7190133" lon="11.2987983"><ele>278.6666666666667</ele><time>2026-04-23T13:20:05.306Z</time></trkpt><trkpt lat="45.719045" lon="11.29907"><ele>278.33333333333337</ele><time>2026-04-23T13:20:06.306Z</time></trkpt><trkpt lat="45.7190767" lon="11.2993533"><ele>278.0</ele><time>2026-04-23T13:20:07.305Z</time></trkpt><trkpt lat="45.719075" lon="11.29961"><ele>276.33333333333337</ele><time>2026-04-23T13:20:08.305Z</time></trkpt><trkpt lat="45.719065" lon="11.2998667"><ele>274.6666666666667</ele><time>2026-04-23T13:20:09.305Z</time></trkpt><trkpt lat="45.71907" lon="11.3001183"><ele>273.0</ele><time>2026-04-23T13:20:10.305Z</time></trkpt><trkpt lat="45.7190883" lon="11.3003583"><ele>272.3333333333333</ele><time>2026-04-23T13:20:11.306Z</time></trkpt><trkpt lat="45.7191133" lon="11.3005967"><ele>271.66666666666663</ele><time>2026-04-23T13:20:12.305Z</time></trkpt><trkpt lat="45.71915" lon="11.3008467"><ele>271.0</ele><time>2026-04-23T13:20:13.306Z</time></trkpt><trkpt lat="45.719185" lon="11.3010733"><ele>271.0</ele><time>2026-04-23T13:20:14.305Z</time></trkpt><trkpt lat="45.719205" lon="11.301295"><ele>271.0</ele><time>2026-04-23T13:20:15.305Z</time></trkpt><trkpt lat="45.71921" lon="11.3015117"><ele>271.0</ele><time>2026-04-23T13:20:16.305Z</time></trkpt><trkpt lat="45.7192133" lon="11.3016967"><ele>271.0</ele><time>2026-04-23T13:20:17.305Z</time></trkpt><trkpt lat="45.7191933" lon="11.3018733"><ele>271.0</ele><time>2026-04-23T13:20:18.306Z</time></trkpt><trkpt lat="45.71916" lon="11.302065"><ele>271.0</ele><time>2026-04-23T13:20:19.305Z</time></trkpt><trkpt lat="45.7191" lon="11.302265"><ele>271.0</ele><time>2026-04-23T13:20:20.305Z</time></trkpt><trkpt lat="45.71904" lon="11.3024883"><ele>270.66666666666663</ele><time>2026-04-23T13:20:21.305Z</time></trkpt><trkpt lat="45.7189717" lon="11.3027467"><ele>270.3333333333333</ele><time>2026-04-23T13:20:22.305Z</time></trkpt><trkpt lat="45.7189083" lon="11.3029917"><ele>270.0</ele><time>2026-04-23T13:20:23.305Z</time></trkpt><trkpt lat="45.718845" lon="11.3032417"><ele>269.3333333333333</ele><time>2026-04-23T13:20:24.305Z</time></trkpt><trkpt lat="45.7187783" lon="11.3034967"><ele>268.66666666666663</ele><time>2026-04-23T13:20:25.305Z</time></trkpt><trkpt lat="45.7187117" lon="11.3037517"><ele>268.0</ele><time>2026-04-23T13:20:26.306Z</time></trkpt><trkpt lat="45.7186383" lon="11.3040117"><ele>268.0</ele><time>2026-04-23T13:20:27.306Z</time></trkpt><trkpt lat="45.7185717" lon="11.3042567"><ele>268.0</ele><time>2026-04-23T13:20:28.305Z</time></trkpt><trkpt lat="45.71851" lon="11.3045233"><ele>268.0</ele><time>2026-04-23T13:20:29.305Z</time></trkpt><trkpt lat="45.7184533" lon="11.3047583"><ele>263.66666666666663</ele><time>2026-04-23T13:20:30.306Z</time></trkpt><trkpt lat="45.71839" lon="11.30499"><ele>259.3333333333333</ele><time>2026-04-23T13:20:31.305Z</time></trkpt><trkpt lat="45.7183317" lon="11.3052167"><ele>255.0</ele><time>2026-04-23T13:20:32.305Z</time></trkpt><trkpt lat="45.718265" lon="11.3054283"><ele>254.66666666666669</ele><time>2026-04-23T13:20:33.305Z</time></trkpt><trkpt lat="45.718185" lon="11.305635"><ele>254.33333333333334</ele><time>2026-04-23T13:20:34.306Z</time></trkpt><trkpt lat="45.71807" lon="11.305815"><ele>254.0</ele><time>2026-04-23T13:20:35.306Z</time></trkpt><trkpt lat="45.7179317" lon="11.3059683"><ele>254.0</ele><time>2026-04-23T13:20:36.305Z</time></trkpt><trkpt lat="45.7177767" lon="11.3061133"><ele>254.0</ele><time>2026-04-23T13:20:37.305Z</time></trkpt><trkpt lat="45.7176133" lon="11.306255"><ele>254.0</ele><time>2026-04-23T13:20:38.305Z</time></trkpt><trkpt lat="45.7174617" lon="11.306395"><ele>251.33333333333334</ele><time>2026-04-23T13:20:39.306Z</time></trkpt><trkpt lat="45.71733" lon="11.3065433"><ele>248.66666666666669</ele><time>2026-04-23T13:20:40.305Z</time></trkpt><trkpt lat="45.7172167" lon="11.3067533"><ele>246.0</ele><time>2026-04-23T13:20:41.305Z</time></trkpt><trkpt lat="45.7171117" lon="11.306975"><ele>246.0</ele><time>2026-04-23T13:20:42.305Z</time></trkpt><trkpt lat="45.717005" lon="11.307215"><ele>246.0</ele><time>2026-04-23T13:20:43.305Z</time></trkpt><trkpt lat="45.7168833" lon="11.3074483"><ele>246.0</ele><time>2026-04-23T13:20:44.305Z</time></trkpt><trkpt lat="45.7167633" lon="11.307665"><ele>246.0</ele><time>2026-04-23T13:20:45.305Z</time></trkpt><trkpt lat="45.7166383" lon="11.3078633"><ele>246.0</ele><time>2026-04-23T13:20:46.305Z</time></trkpt><trkpt lat="45.7165133" lon="11.3080367"><ele>246.0</ele><time>2026-04-23T13:20:47.305Z</time></trkpt><trkpt lat="45.7163833" lon="11.30821"><ele>245.66666666666669</ele><time>2026-04-23T13:20:48.305Z</time></trkpt><trkpt lat="45.7162633" lon="11.3083833"><ele>245.33333333333334</ele><time>2026-04-23T13:20:49.305Z</time></trkpt><trkpt lat="45.7161417" lon="11.3085567"><ele>245.0</ele><time>2026-04-23T13:20:50.305Z</time></trkpt><trkpt lat="45.7160267" lon="11.30872"><ele>244.33333333333334</ele><time>2026-04-23T13:20:51.306Z</time></trkpt><trkpt lat="45.7159067" lon="11.3088867"><ele>243.66666666666669</ele><time>2026-04-23T13:20:52.305Z</time></trkpt><trkpt lat="45.7157833" lon="11.3090567"><ele>243.0</ele><time>2026-04-23T13:20:53.305Z</time></trkpt><trkpt lat="45.7156567" lon="11.309205"><ele>243.0</ele><time>2026-04-23T13:20:54.305Z</time></trkpt><trkpt lat="45.715525" lon="11.3093533"><ele>243.0</ele><time>2026-04-23T13:20:55.306Z</time></trkpt><trkpt lat="45.715385" lon="11.3095117"><ele>243.0</ele><time>2026-04-23T13:20:56.305Z</time></trkpt><trkpt lat="45.7152533" lon="11.309665"><ele>242.33333333333331</ele><time>2026-04-23T13:20:57.306Z</time></trkpt><trkpt lat="45.7151267" lon="11.309825"><ele>241.66666666666666</ele><time>2026-04-23T13:20:58.306Z</time></trkpt><trkpt lat="45.7150133" lon="11.3099933"><ele>241.0</ele><time>2026-04-23T13:20:59.305Z</time></trkpt><trkpt lat="45.71491" lon="11.31019"><ele>241.0</ele><time>2026-04-23T13:21:00.306Z</time></trkpt><trkpt lat="45.714825" lon="11.3104033"><ele>241.0</ele><time>2026-04-23T13:21:01.305Z</time></trkpt><trkpt lat="45.71477" lon="11.3106317"><ele>241.0</ele><time>2026-04-23T13:21:02.305Z</time></trkpt><trkpt lat="45.7147017" lon="11.3108833"><ele>240.33333333333331</ele><time>2026-04-23T13:21:03.305Z</time></trkpt><trkpt lat="45.7146467" lon="11.3111517"><ele>239.66666666666669</ele><time>2026-04-23T13:21:04.305Z</time></trkpt><trkpt lat="45.71459" lon="11.31143"><ele>239.0</ele><time>2026-04-23T13:21:05.305Z</time></trkpt><trkpt lat="45.7145333" lon="11.3117183"><ele>238.66666666666669</ele><time>2026-04-23T13:21:06.305Z</time></trkpt><trkpt lat="45.7144783" lon="11.3119817"><ele>238.33333333333331</ele><time>2026-04-23T13:21:07.305Z</time></trkpt><trkpt lat="45.7144233" lon="11.312245"><ele>238.0</ele><time>2026-04-23T13:21:08.305Z</time></trkpt><trkpt lat="45.714365" lon="11.3124967"><ele>237.0</ele><time>2026-04-23T13:21:09.305Z</time></trkpt><trkpt lat="45.7143" lon="11.3127617"><ele>236.0</ele><time>2026-04-23T13:21:10.305Z</time></trkpt><trkpt lat="45.7142483" lon="11.31305"><ele>235.0</ele><time>2026-04-23T13:21:11.305Z</time></trkpt><trkpt lat="45.71418" lon="11.3133167"><ele>235.0</ele><time>2026-04-23T13:21:12.305Z</time></trkpt><trkpt lat="45.7141133" lon="11.3135633"><ele>235.0</ele><time>2026-04-23T13:21:13.305Z</time></trkpt><trkpt lat="45.714055" lon="11.3138117"><ele>235.0</ele><time>2026-04-23T13:21:14.306Z</time></trkpt><trkpt lat="45.7140033" lon="11.314035"><ele>234.33333333333331</ele><time>2026-04-23T13:21:15.305Z</time></trkpt><trkpt lat="45.7139433" lon="11.3142367"><ele>233.66666666666669</ele><time>2026-04-23T13:21:16.305Z</time></trkpt><trkpt lat="45.713875" lon="11.3144533"><ele>233.0</ele><time>2026-04-23T13:21:17.305Z</time></trkpt><trkpt lat="45.7137917" lon="11.3146633"><ele>233.66666666666669</ele><time>2026-04-23T13:21:18.305Z</time></trkpt><trkpt lat="45.7137183" lon="11.3148817"><ele>234.33333333333331</ele><time>2026-04-23T13:21:19.305Z</time></trkpt><trkpt lat="45.7136417" lon="11.3151267"><ele>235.0</ele><time>2026-04-23T13:21:20.305Z</time></trkpt><trkpt lat="45.7135767" lon="11.3153717"><ele>233.66666666666666</ele><time>2026-04-23T13:21:21.305Z</time></trkpt><trkpt lat="45.71353" lon="11.3156317"><ele>232.33333333333331</ele><time>2026-04-23T13:21:22.305Z</time></trkpt><trkpt lat="45.7134967" lon="11.3158983"><ele>231.0</ele><time>2026-04-23T13:21:23.306Z</time></trkpt><trkpt lat="45.7134733" lon="11.3161533"><ele>231.33333333333331</ele><time>2026-04-23T13:21:24.306Z</time></trkpt><trkpt lat="45.7134783" lon="11.31641"><ele>231.66666666666666</ele><time>2026-04-23T13:21:25.305Z</time></trkpt><trkpt lat="45.7134783" lon="11.3166733"><ele>232.0</ele><time>2026-04-23T13:21:26.305Z</time></trkpt><trkpt lat="45.7135217" lon="11.31695"><ele>232.0</ele><time>2026-04-23T13:21:27.306Z</time></trkpt><trkpt lat="45.7135667" lon="11.31722"><ele>232.0</ele><time>2026-04-23T13:21:28.305Z</time></trkpt><trkpt lat="45.71362" lon="11.3174817"><ele>232.0</ele><time>2026-04-23T13:21:29.305Z</time></trkpt><trkpt lat="45.7136733" lon="11.3177367"><ele>233.33333333333331</ele><time>2026-04-23T13:21:30.305Z</time></trkpt><trkpt lat="45.7137267" lon="11.3179933"><ele>234.66666666666669</ele><time>2026-04-23T13:21:31.306Z</time></trkpt><trkpt lat="45.7137717" lon="11.31823"><ele>236.0</ele><time>2026-04-23T13:21:32.305Z</time></trkpt><trkpt lat="45.7137783" lon="11.3185267"><ele>236.0</ele><time>2026-04-23T13:21:33.306Z</time></trkpt><trkpt lat="45.7137817" lon="11.31879"><ele>236.0</ele><time>2026-04-23T13:21:34.305Z</time></trkpt><trkpt lat="45.7137583" lon="11.3190483"><ele>236.0</ele><time>2026-04-23T13:21:35.305Z</time></trkpt><trkpt lat="45.7137017" lon="11.3192833"><ele>235.25</ele><time>2026-04-23T13:21:36.306Z</time></trkpt><trkpt lat="45.7136733" lon="11.319385"><ele>234.5</ele><time>2026-04-23T13:21:37.305Z</time></trkpt><trkpt lat="45.7136417" lon="11.319545"><ele>233.75</ele><time>2026-04-23T13:21:38.305Z</time></trkpt><trkpt lat="45.7136167" lon="11.3197617"><ele>233.0</ele><time>2026-04-23T13:21:39.305Z</time></trkpt><trkpt lat="45.7135883" lon="11.320035"><ele>231.33333333333334</ele><time>2026-04-23T13:21:40.305Z</time></trkpt><trkpt lat="45.7135733" lon="11.320285"><ele>229.66666666666669</ele><time>2026-04-23T13:21:41.306Z</time></trkpt><trkpt lat="45.713575" lon="11.3205467"><ele>228.0</ele><time>2026-04-23T13:21:42.306Z</time></trkpt><trkpt lat="45.7135717" lon="11.3208867"><ele>227.66666666666669</ele><time>2026-04-23T13:21:43.305Z</time></trkpt><trkpt lat="45.7135783" lon="11.3211567"><ele>227.33333333333334</ele><time>2026-04-23T13:21:44.305Z</time></trkpt><trkpt lat="45.7136133" lon="11.3214283"><ele>227.0</ele><time>2026-04-23T13:21:45.305Z</time></trkpt><trkpt lat="45.7136433" lon="11.3217217"><ele>227.0</ele><time>2026-04-23T13:21:46.305Z</time></trkpt><trkpt lat="45.7136717" lon="11.3219967"><ele>227.0</ele><time>2026-04-23T13:21:47.305Z</time></trkpt><trkpt lat="45.71369" lon="11.3222717"><ele>227.0</ele><time>2026-04-23T13:21:48.305Z</time></trkpt><trkpt lat="45.7137033" lon="11.3225383"><ele>226.66666666666669</ele><time>2026-04-23T13:21:49.305Z</time></trkpt><trkpt lat="45.7137183" lon="11.3228017"><ele>226.33333333333331</ele><time>2026-04-23T13:21:50.305Z</time></trkpt><trkpt lat="45.713725" lon="11.3230633"><ele>226.0</ele><time>2026-04-23T13:21:51.306Z</time></trkpt><trkpt lat="45.7137283" lon="11.32333"><ele>226.0</ele><time>2026-04-23T13:21:52.305Z</time></trkpt><trkpt lat="45.7137417" lon="11.323585"><ele>226.0</ele><time>2026-04-23T13:21:53.305Z</time></trkpt><trkpt lat="45.7137517" lon="11.3238333"><ele>226.0</ele><time>2026-04-23T13:21:54.305Z</time></trkpt><trkpt lat="45.71375" lon="11.324075"><ele>226.0</ele><time>2026-04-23T13:21:55.306Z</time></trkpt><trkpt lat="45.7137533" lon="11.3243283"><ele>226.0</ele><time>2026-04-23T13:21:56.305Z</time></trkpt><trkpt lat="45.713765" lon="11.32459"><ele>226.0</ele><time>2026-04-23T13:21:57.305Z</time></trkpt><trkpt lat="45.71376" lon="11.3248633"><ele>225.66666666666666</ele><time>2026-04-23T13:21:58.305Z</time></trkpt><trkpt lat="45.71377" lon="11.32514"><ele>225.33333333333331</ele><time>2026-04-23T13:21:59.305Z</time></trkpt><trkpt lat="45.71378" lon="11.3254267"><ele>225.0</ele><time>2026-04-23T13:22:00.306Z</time></trkpt><trkpt lat="45.71379" lon="11.3257"><ele>224.33333333333331</ele><time>2026-04-23T13:22:01.305Z</time></trkpt><trkpt lat="45.713785" lon="11.325995"><ele>223.66666666666666</ele><time>2026-04-23T13:22:02.306Z</time></trkpt><trkpt lat="45.7137667" lon="11.32629"><ele>223.0</ele><time>2026-04-23T13:22:03.306Z</time></trkpt><trkpt lat="45.7137433" lon="11.3265817"><ele>222.33333333333331</ele><time>2026-04-23T13:22:04.306Z</time></trkpt><trkpt lat="45.7137183" lon="11.3268717"><ele>221.66666666666669</ele><time>2026-04-23T13:22:05.305Z</time></trkpt><trkpt lat="45.713705" lon="11.327155"><ele>221.0</ele><time>2026-04-23T13:22:06.305Z</time></trkpt><trkpt lat="45.7136767" lon="11.3274467"><ele>221.0</ele><time>2026-04-23T13:22:07.305Z</time></trkpt><trkpt lat="45.713655" lon="11.32771"><ele>221.0</ele><time>2026-04-23T13:22:08.305Z</time></trkpt><trkpt lat="45.7136383" lon="11.32797"><ele>221.0</ele><time>2026-04-23T13:22:09.306Z</time></trkpt><trkpt lat="45.7136217" lon="11.3282433"><ele>221.0</ele><time>2026-04-23T13:22:10.305Z</time></trkpt><trkpt lat="45.71361" lon="11.3285217"><ele>221.0</ele><time>2026-04-23T13:22:11.305Z</time></trkpt><trkpt lat="45.7136" lon="11.3287933"><ele>221.0</ele><time>2026-04-23T13:22:12.305Z</time></trkpt><trkpt lat="45.7135917" lon="11.3290817"><ele>221.0</ele><time>2026-04-23T13:22:13.305Z</time></trkpt><trkpt lat="45.71359" lon="11.3293633"><ele>221.0</ele><time>2026-04-23T13:22:14.305Z</time></trkpt><trkpt lat="45.7136" lon="11.3296417"><ele>221.0</ele><time>2026-04-23T13:22:15.305Z</time></trkpt><trkpt lat="45.7136067" lon="11.3299267"><ele>221.0</ele><time>2026-04-23T13:22:16.305Z</time></trkpt><trkpt lat="45.71361" lon="11.3302017"><ele>221.0</ele><time>2026-04-23T13:22:17.305Z</time></trkpt><trkpt lat="45.71361" lon="11.3304867"><ele>221.0</ele><time>2026-04-23T13:22:18.306Z</time></trkpt><trkpt lat="45.7136" lon="11.3307667"><ele>220.33333333333334</ele><time>2026-04-23T13:22:19.305Z</time></trkpt><trkpt lat="45.7135867" lon="11.331035"><ele>219.66666666666669</ele><time>2026-04-23T13:22:20.306Z</time></trkpt><trkpt lat="45.71355" lon="11.3312967"><ele>219.0</ele><time>2026-04-23T13:22:21.305Z</time></trkpt><trkpt lat="45.71351" lon="11.3315467"><ele>218.0</ele><time>2026-04-23T13:22:22.305Z</time></trkpt><trkpt lat="45.7134733" lon="11.331775"><ele>217.0</ele><time>2026-04-23T13:22:23.306Z</time></trkpt><trkpt lat="45.7134517" lon="11.331995"><ele>216.0</ele><time>2026-04-23T13:22:24.305Z</time></trkpt><trkpt lat="45.7134267" lon="11.3321867"><ele>215.75</ele><time>2026-04-23T13:22:25.305Z</time></trkpt><trkpt lat="45.7134067" lon="11.332375"><ele>215.5</ele><time>2026-04-23T13:22:26.306Z</time></trkpt><trkpt lat="45.713405" lon="11.33255"><ele>215.25</ele><time>2026-04-23T13:22:27.305Z</time></trkpt><trkpt lat="45.713405" lon="11.3327283"><ele>215.0</ele><time>2026-04-23T13:22:28.305Z</time></trkpt><trkpt lat="45.7134117" lon="11.3328917"><ele>215.0</ele><time>2026-04-23T13:22:29.305Z</time></trkpt><trkpt lat="45.7134267" lon="11.3330483"><ele>215.0</ele><time>2026-04-23T13:22:30.305Z</time></trkpt><trkpt lat="45.713475" lon="11.3331717"><ele>215.0</ele><time>2026-04-23T13:22:31.305Z</time></trkpt><trkpt lat="45.7135433" lon="11.3332783"><ele>215.0</ele><time>2026-04-23T13:22:32.305Z</time></trkpt><trkpt lat="45.7136117" lon="11.333345"><ele>215.0</ele><time>2026-04-23T13:22:33.305Z</time></trkpt><trkpt lat="45.7136983" lon="11.3333667"><ele>215.0</ele><time>2026-04-23T13:22:34.305Z</time></trkpt><trkpt lat="45.71379" lon="11.33335"><ele>215.0</ele><time>2026-04-23T13:22:35.305Z</time></trkpt><trkpt lat="45.713895" lon="11.333295"><ele>215.0</ele><time>2026-04-23T13:22:36.305Z</time></trkpt><trkpt lat="45.7140417" lon="11.333195"><ele>215.0</ele><time>2026-04-23T13:22:37.304Z</time></trkpt><trkpt lat="45.7142033" lon="11.33315"><ele>215.0</ele><time>2026-04-23T13:22:38.304Z</time></trkpt><trkpt lat="45.7143783" lon="11.33313"><ele>215.0</ele><time>2026-04-23T13:22:39.304Z</time></trkpt><trkpt lat="45.7145333" lon="11.3331133"><ele>215.0</ele><time>2026-04-23T13:22:40.305Z</time></trkpt><trkpt lat="45.71467" lon="11.3331483"><ele>215.75</ele><time>2026-04-23T13:22:41.304Z</time></trkpt><trkpt lat="45.7147867" lon="11.3331917"><ele>216.5</ele><time>2026-04-23T13:22:42.305Z</time></trkpt><trkpt lat="45.714895" lon="11.3332633"><ele>217.25</ele><time>2026-04-23T13:22:43.304Z</time></trkpt><trkpt lat="45.7149967" lon="11.3333783"><ele>218.0</ele><time>2026-04-23T13:22:44.304Z</time></trkpt><trkpt lat="45.7150733" lon="11.333515"><ele>218.0</ele><time>2026-04-23T13:22:45.304Z</time></trkpt><trkpt lat="45.7151133" lon="11.3336817"><ele>218.0</ele><time>2026-04-23T13:22:46.305Z</time></trkpt><trkpt lat="45.715135" lon="11.3338417"><ele>218.0</ele><time>2026-04-23T13:22:47.304Z</time></trkpt><trkpt lat="45.7151433" lon="11.3339867"><ele>218.0</ele><time>2026-04-23T13:22:48.304Z</time></trkpt><trkpt lat="45.7151367" lon="11.3341167"><ele>218.0</ele><time>2026-04-23T13:22:49.305Z</time></trkpt><trkpt lat="45.715135" lon="11.334235"><ele>218.16666666666669</ele><time>2026-04-23T13:22:50.304Z</time></trkpt><trkpt lat="45.715135" lon="11.334335"><ele>218.33333333333334</ele><time>2026-04-23T13:22:51.304Z</time></trkpt><trkpt lat="45.7151383" lon="11.3344367"><ele>218.5</ele><time>2026-04-23T13:22:52.304Z</time></trkpt><trkpt lat="45.7151367" lon="11.3345417"><ele>218.66666666666669</ele><time>2026-04-23T13:22:53.304Z</time></trkpt><trkpt lat="45.71514" lon="11.3346467"><ele>218.83333333333334</ele><time>2026-04-23T13:22:54.305Z</time></trkpt><trkpt lat="45.7151367" lon="11.3347633"><ele>219.0</ele><time>2026-04-23T13:22:55.304Z</time></trkpt><trkpt lat="45.71514" lon="11.3348817"><ele>219.33333333333334</ele><time>2026-04-23T13:22:56.305Z</time></trkpt><trkpt lat="45.7151467" lon="11.3350033"><ele>219.66666666666669</ele><time>2026-04-23T13:22:57.304Z</time></trkpt><trkpt lat="45.7151533" lon="11.3351183"><ele>220.0</ele><time>2026-04-23T13:22:58.305Z</time></trkpt><trkpt lat="45.7151567" lon="11.3352183"><ele>220.33333333333334</ele><time>2026-04-23T13:22:59.305Z</time></trkpt><trkpt lat="45.7151617" lon="11.3353267"><ele>220.66666666666669</ele><time>2026-04-23T13:23:00.305Z</time></trkpt><trkpt lat="45.7151733" lon="11.3354417"><ele>221.0</ele><time>2026-04-23T13:23:01.305Z</time></trkpt><trkpt lat="45.7151783" lon="11.3355683"><ele>221.0</ele><time>2026-04-23T13:23:02.305Z</time></trkpt><trkpt lat="45.7151833" lon="11.3357017"><ele>221.00000000000003</ele><time>2026-04-23T13:23:03.304Z</time></trkpt><trkpt lat="45.7151833" lon="11.335855"><ele>221.00000000000003</ele><time>2026-04-23T13:23:04.304Z</time></trkpt><trkpt lat="45.7151817" lon="11.3360167"><ele>221.0</ele><time>2026-04-23T13:23:05.304Z</time></trkpt><trkpt lat="45.7151933" lon="11.3362"><ele>221.0</ele><time>2026-04-23T13:23:06.304Z</time></trkpt><trkpt lat="45.7152067" lon="11.3363867"><ele>220.8</ele><time>2026-04-23T13:23:07.304Z</time></trkpt><trkpt lat="45.7152233" lon="11.336565"><ele>220.60000000000002</ele><time>2026-04-23T13:23:08.304Z</time></trkpt><trkpt lat="45.71524" lon="11.3367233"><ele>220.4</ele><time>2026-04-23T13:23:09.305Z</time></trkpt><trkpt lat="45.7152517" lon="11.3368633"><ele>220.2</ele><time>2026-04-23T13:23:10.304Z</time></trkpt><trkpt lat="45.715265" lon="11.3370133"><ele>220.0</ele><time>2026-04-23T13:23:11.304Z</time></trkpt><trkpt lat="45.71527" lon="11.33712"><ele>219.99999999999997</ele><time>2026-04-23T13:23:12.305Z</time></trkpt><trkpt lat="45.7152783" lon="11.33722"><ele>220.0</ele><time>2026-04-23T13:23:13.304Z</time></trkpt><trkpt lat="45.71529" lon="11.3373183"><ele>220.0</ele><time>2026-04-23T13:23:14.304Z</time></trkpt><trkpt lat="45.7153017" lon="11.33742"><ele>220.0</ele><time>2026-04-23T13:23:15.304Z</time></trkpt><trkpt lat="45.71531" lon="11.3375217"><ele>220.0</ele><time>2026-04-23T13:23:16.304Z</time></trkpt><trkpt lat="45.7153217" lon="11.3376267"><ele>219.99999999999997</ele><time>2026-04-23T13:23:17.304Z</time></trkpt><trkpt lat="45.7153283" lon="11.3377167"><ele>220.0</ele><time>2026-04-23T13:23:18.305Z</time></trkpt><trkpt lat="45.7153333" lon="11.3378133"><ele>220.0</ele><time>2026-04-23T13:23:19.305Z</time></trkpt><trkpt lat="45.71534" lon="11.3379233"><ele>220.0</ele><time>2026-04-23T13:23:20.304Z</time></trkpt><trkpt lat="45.715345" lon="11.3380683"><ele>220.0</ele><time>2026-04-23T13:23:21.304Z</time></trkpt><trkpt lat="45.71536" lon="11.33821"><ele>220.0</ele><time>2026-04-23T13:23:22.304Z</time></trkpt><trkpt lat="45.715375" lon="11.3383583"><ele>220.0</ele><time>2026-04-23T13:23:23.304Z</time></trkpt><trkpt lat="45.7153933" lon="11.3385267"><ele>219.75</ele><time>2026-04-23T13:23:24.304Z</time></trkpt><trkpt lat="45.71541" lon="11.3386967"><ele>219.5</ele><time>2026-04-23T13:23:25.304Z</time></trkpt><trkpt lat="45.71542" lon="11.3388783"><ele>219.25</ele><time>2026-04-23T13:23:26.304Z</time></trkpt><trkpt lat="45.7154383" lon="11.3390483"><ele>219.0</ele><time>2026-04-23T13:23:27.304Z</time></trkpt><trkpt lat="45.71545" lon="11.3392317"><ele>218.39999999999998</ele><time>2026-04-23T13:23:28.304Z</time></trkpt><trkpt lat="45.715465" lon="11.3393933"><ele>217.79999999999998</ele><time>2026-04-23T13:23:29.305Z</time></trkpt><trkpt lat="45.7154717" lon="11.3395383"><ele>217.20000000000002</ele><time>2026-04-23T13:23:30.304Z</time></trkpt><trkpt lat="45.71548" lon="11.3396817"><ele>216.60000000000002</ele><time>2026-04-23T13:23:31.304Z</time></trkpt><trkpt lat="45.7154883" lon="11.3398083"><ele>216.0</ele><time>2026-04-23T13:23:32.304Z</time></trkpt><trkpt lat="45.7155" lon="11.3399333"><ele>215.60000000000002</ele><time>2026-04-23T13:23:33.304Z</time></trkpt><trkpt lat="45.7155067" lon="11.34006"><ele>215.20000000000002</ele><time>2026-04-23T13:23:34.305Z</time></trkpt><trkpt lat="45.7155083" lon="11.340195"><ele>214.79999999999998</ele><time>2026-04-23T13:23:35.304Z</time></trkpt><trkpt lat="45.7155133" lon="11.3403217"><ele>214.39999999999998</ele><time>2026-04-23T13:23:36.304Z</time></trkpt><trkpt lat="45.715515" lon="11.3404517"><ele>214.0</ele><time>2026-04-23T13:23:37.305Z</time></trkpt><trkpt lat="45.7155233" lon="11.3405783"><ele>214.0</ele><time>2026-04-23T13:23:38.305Z</time></trkpt><trkpt lat="45.7155417" lon="11.340695"><ele>213.99999999999997</ele><time>2026-04-23T13:23:39.304Z</time></trkpt><trkpt lat="45.7155483" lon="11.340825"><ele>213.99999999999997</ele><time>2026-04-23T13:23:40.304Z</time></trkpt><trkpt lat="45.715565" lon="11.3409633"><ele>214.0</ele><time>2026-04-23T13:23:41.304Z</time></trkpt><trkpt lat="45.715575" lon="11.3411083"><ele>214.0</ele><time>2026-04-23T13:23:42.304Z</time></trkpt><trkpt lat="45.7155833" lon="11.341255"><ele>213.49999999999997</ele><time>2026-04-23T13:23:43.304Z</time></trkpt><trkpt lat="45.7155917" lon="11.3414"><ele>213.0</ele><time>2026-04-23T13:23:44.304Z</time></trkpt><trkpt lat="45.7156033" lon="11.3415383"><ele>212.5</ele><time>2026-04-23T13:23:45.304Z</time></trkpt><trkpt lat="45.7156083" lon="11.3416667"><ele>212.0</ele><time>2026-04-23T13:23:46.304Z</time></trkpt><trkpt lat="45.715605" lon="11.34178"><ele>211.49999999999997</ele><time>2026-04-23T13:23:47.304Z</time></trkpt><trkpt lat="45.7156033" lon="11.34189"><ele>211.0</ele><time>2026-04-23T13:23:48.304Z</time></trkpt><trkpt lat="45.7156133" lon="11.3419933"><ele>210.99999999999997</ele><time>2026-04-23T13:23:49.304Z</time></trkpt><trkpt lat="45.7156267" lon="11.34209"><ele>211.0</ele><time>2026-04-23T13:23:50.304Z</time></trkpt><trkpt lat="45.7156367" lon="11.3422133"><ele>211.0</ele><time>2026-04-23T13:23:51.304Z</time></trkpt><trkpt lat="45.7156467" lon="11.3423267"><ele>211.0</ele><time>2026-04-23T13:23:52.304Z</time></trkpt><trkpt lat="45.7156567" lon="11.342435"><ele>210.99999999999997</ele><time>2026-04-23T13:23:53.304Z</time></trkpt><trkpt lat="45.71567" lon="11.3425617"><ele>211.0</ele><time>2026-04-23T13:23:54.304Z</time></trkpt><trkpt lat="45.7156783" lon="11.3426917"><ele>211.0</ele><time>2026-04-23T13:23:55.304Z</time></trkpt><trkpt lat="45.715685" lon="11.3428283"><ele>211.0</ele><time>2026-04-23T13:23:56.304Z</time></trkpt><trkpt lat="45.7157" lon="11.34296"><ele>211.0</ele><time>2026-04-23T13:23:57.304Z</time></trkpt><trkpt lat="45.7157067" lon="11.3431067"><ele>211.0</ele><time>2026-04-23T13:23:58.304Z</time></trkpt><trkpt lat="45.71571" lon="11.3432483"><ele>211.0</ele><time>2026-04-23T13:23:59.304Z</time></trkpt><trkpt lat="45.7157283" lon="11.3433883"><ele>211.0</ele><time>2026-04-23T13:24:00.304Z</time></trkpt><trkpt lat="45.7157433" lon="11.3435333"><ele>211.0</ele><time>2026-04-23T13:24:01.304Z</time></trkpt><trkpt lat="45.7157583" lon="11.34368"><ele>211.0</ele><time>2026-04-23T13:24:02.304Z</time></trkpt><trkpt lat="45.7157633" lon="11.34381"><ele>211.0</ele><time>2026-04-23T13:24:03.304Z</time></trkpt><trkpt lat="45.71577" lon="11.34394"><ele>211.0</ele><time>2026-04-23T13:24:04.304Z</time></trkpt><trkpt lat="45.7157733" lon="11.3440633"><ele>211.0</ele><time>2026-04-23T13:24:05.304Z</time></trkpt><trkpt lat="45.7157817" lon="11.3441817"><ele>211.0</ele><time>2026-04-23T13:24:06.304Z</time></trkpt><trkpt lat="45.7157967" lon="11.3443167"><ele>211.0</ele><time>2026-04-23T13:24:07.304Z</time></trkpt><trkpt lat="45.7158183" lon="11.3444483"><ele>211.0</ele><time>2026-04-23T13:24:08.305Z</time></trkpt><trkpt lat="45.7158317" lon="11.3445833"><ele>211.0</ele><time>2026-04-23T13:24:09.304Z</time></trkpt><trkpt lat="45.7158433" lon="11.344725"><ele>211.0</ele><time>2026-04-23T13:24:10.304Z</time></trkpt><trkpt lat="45.715845" lon="11.3448633"><ele>211.0</ele><time>2026-04-23T13:24:11.305Z</time></trkpt><trkpt lat="45.7158533" lon="11.3450267"><ele>211.0</ele><time>2026-04-23T13:24:12.304Z</time></trkpt><trkpt lat="45.7158667" lon="11.345195"><ele>211.0</ele><time>2026-04-23T13:24:13.304Z</time></trkpt><trkpt lat="45.7158717" lon="11.3453533"><ele>211.0</ele><time>2026-04-23T13:24:14.304Z</time></trkpt><trkpt lat="45.7158817" lon="11.3454967"><ele>210.83333333333331</ele><time>2026-04-23T13:24:15.305Z</time></trkpt><trkpt lat="45.7158933" lon="11.34562"><ele>210.66666666666666</ele><time>2026-04-23T13:24:16.305Z</time></trkpt><trkpt lat="45.715905" lon="11.34573"><ele>210.5</ele><time>2026-04-23T13:24:17.304Z</time></trkpt><trkpt lat="45.715915" lon="11.3458317"><ele>210.33333333333331</ele><time>2026-04-23T13:24:18.304Z</time></trkpt><trkpt lat="45.715915" lon="11.3459367"><ele>210.16666666666666</ele><time>2026-04-23T13:24:19.304Z</time></trkpt><trkpt lat="45.715905" lon="11.34604"><ele>210.0</ele><time>2026-04-23T13:24:20.305Z</time></trkpt><trkpt lat="45.7158367" lon="11.3461933"><ele>210.0</ele><time>2026-04-23T13:24:22.304Z</time></trkpt><trkpt lat="45.71581" lon="11.3463433"><ele>210.0</ele><time>2026-04-23T13:24:24.304Z</time></trkpt><trkpt lat="45.7158733" lon="11.3464983"><ele>210.0</ele><time>2026-04-23T13:24:26.304Z</time></trkpt><trkpt lat="45.7159167" lon="11.3465983"><ele>210.0</ele><time>2026-04-23T13:24:27.304Z</time></trkpt><trkpt lat="45.71597" lon="11.3467217"><ele>210.0</ele><time>2026-04-23T13:24:28.305Z</time></trkpt><trkpt lat="45.7160083" lon="11.3468517"><ele>209.8</ele><time>2026-04-23T13:24:29.305Z</time></trkpt><trkpt lat="45.71603" lon="11.3469917"><ele>209.6</ele><time>2026-04-23T13:24:30.304Z</time></trkpt><trkpt lat="45.7160467" lon="11.3471367"><ele>209.39999999999998</ele><time>2026-04-23T13:24:31.305Z</time></trkpt><trkpt lat="45.716055" lon="11.3472967"><ele>209.2</ele><time>2026-04-23T13:24:32.305Z</time></trkpt><trkpt lat="45.7160567" lon="11.3474667"><ele>209.0</ele><time>2026-04-23T13:24:33.304Z</time></trkpt><trkpt lat="45.7160633" lon="11.3476333"><ele>209.5</ele><time>2026-04-23T13:24:34.304Z</time></trkpt><trkpt lat="45.71607" lon="11.3478017"><ele>210.0</ele><time>2026-04-23T13:24:35.304Z</time></trkpt><trkpt lat="45.71607" lon="11.3479683"><ele>210.5</ele><time>2026-04-23T13:24:36.304Z</time></trkpt><trkpt lat="45.716075" lon="11.3481433"><ele>211.0</ele><time>2026-04-23T13:24:37.305Z</time></trkpt><trkpt lat="45.716085" lon="11.3483133"><ele>211.0</ele><time>2026-04-23T13:24:38.305Z</time></trkpt><trkpt lat="45.7161" lon="11.3484983"><ele>211.0</ele><time>2026-04-23T13:24:39.305Z</time></trkpt><trkpt lat="45.7161133" lon="11.3486733"><ele>211.0</ele><time>2026-04-23T13:24:40.304Z</time></trkpt><trkpt lat="45.7161283" lon="11.34884"><ele>211.0</ele><time>2026-04-23T13:24:41.304Z</time></trkpt><trkpt lat="45.7161483" lon="11.3490067"><ele>210.75</ele><time>2026-04-23T13:24:42.304Z</time></trkpt><trkpt lat="45.716175" lon="11.3491717"><ele>210.5</ele><time>2026-04-23T13:24:43.305Z</time></trkpt><trkpt lat="45.7161883" lon="11.3493333"><ele>210.25</ele><time>2026-04-23T13:24:44.304Z</time></trkpt><trkpt lat="45.7161983" lon="11.3495117"><ele>210.0</ele><time>2026-04-23T13:24:45.304Z</time></trkpt><trkpt lat="45.7162017" lon="11.3496817"><ele>210.2</ele><time>2026-04-23T13:24:46.304Z</time></trkpt><trkpt lat="45.7162033" lon="11.3498433"><ele>210.4</ele><time>2026-04-23T13:24:47.304Z</time></trkpt><trkpt lat="45.7161983" lon="11.3500033"><ele>210.60000000000002</ele><time>2026-04-23T13:24:48.304Z</time></trkpt><trkpt lat="45.7161817" lon="11.3501533"><ele>210.8</ele><time>2026-04-23T13:24:49.304Z</time></trkpt><trkpt lat="45.716175" lon="11.35028"><ele>211.0</ele><time>2026-04-23T13:24:50.304Z</time></trkpt><trkpt lat="45.7161683" lon="11.3503983"><ele>210.99999999999997</ele><time>2026-04-23T13:24:51.305Z</time></trkpt><trkpt lat="45.716175" lon="11.35051"><ele>211.0</ele><time>2026-04-23T13:24:52.304Z</time></trkpt><trkpt lat="45.7162033" lon="11.3506"><ele>211.0</ele><time>2026-04-23T13:24:53.304Z</time></trkpt><trkpt lat="45.716245" lon="11.350695"><ele>211.0</ele><time>2026-04-23T13:24:54.304Z</time></trkpt><trkpt lat="45.7163083" lon="11.3507617"><ele>210.99999999999997</ele><time>2026-04-23T13:24:55.305Z</time></trkpt><trkpt lat="45.7163967" lon="11.3508"><ele>211.0</ele><time>2026-04-23T13:24:56.304Z</time></trkpt><trkpt lat="45.716465" lon="11.3508683"><ele>211.66666666666666</ele><time>2026-04-23T13:24:57.304Z</time></trkpt><trkpt lat="45.71652" lon="11.3509433"><ele>212.33333333333331</ele><time>2026-04-23T13:24:58.304Z</time></trkpt><trkpt lat="45.71657" lon="11.3510233"><ele>213.0</ele><time>2026-04-23T13:24:59.305Z</time></trkpt><trkpt lat="45.7166167" lon="11.3511283"><ele>213.66666666666669</ele><time>2026-04-23T13:25:00.304Z</time></trkpt><trkpt lat="45.7166483" lon="11.3512217"><ele>214.33333333333334</ele><time>2026-04-23T13:25:01.304Z</time></trkpt><trkpt lat="45.7166283" lon="11.3513317"><ele>215.0</ele><time>2026-04-23T13:25:02.305Z</time></trkpt><trkpt lat="45.7165933" lon="11.3514467"><ele>216.00000000000003</ele><time>2026-04-23T13:25:03.304Z</time></trkpt><trkpt lat="45.71655" lon="11.3515667"><ele>217.0</ele><time>2026-04-23T13:25:04.304Z</time></trkpt><trkpt lat="45.7165183" lon="11.3516833"><ele>218.0</ele><time>2026-04-23T13:25:05.304Z</time></trkpt><trkpt lat="45.7164967" lon="11.3517883"><ele>219.0</ele><time>2026-04-23T13:25:06.304Z</time></trkpt><trkpt lat="45.7164683" lon="11.351905"><ele>220.00000000000003</ele><time>2026-04-23T13:25:07.304Z</time></trkpt><trkpt lat="45.7164167" lon="11.3520167"><ele>221.0</ele><time>2026-04-23T13:25:08.305Z</time></trkpt><trkpt lat="45.7163683" lon="11.352105"><ele>221.0</ele><time>2026-04-23T13:25:09.304Z</time></trkpt><trkpt lat="45.7163283" lon="11.352185"><ele>221.00000000000003</ele><time>2026-04-23T13:25:10.305Z</time></trkpt><trkpt lat="45.716285" lon="11.352305"><ele>221.00000000000003</ele><time>2026-04-23T13:25:11.304Z</time></trkpt><trkpt lat="45.7162383" lon="11.3524433"><ele>221.0</ele><time>2026-04-23T13:25:12.304Z</time></trkpt><trkpt lat="45.7162067" lon="11.3525733"><ele>221.0</ele><time>2026-04-23T13:25:13.304Z</time></trkpt><trkpt lat="45.716175" lon="11.35271"><ele>221.42857142857144</ele><time>2026-04-23T13:25:14.304Z</time></trkpt><trkpt lat="45.7161533" lon="11.352815"><ele>221.85714285714286</ele><time>2026-04-23T13:25:15.304Z</time></trkpt><trkpt lat="45.7161383" lon="11.3529183"><ele>222.28571428571428</ele><time>2026-04-23T13:25:16.304Z</time></trkpt><trkpt lat="45.716115" lon="11.3530233"><ele>222.71428571428572</ele><time>2026-04-23T13:25:17.304Z</time></trkpt><trkpt lat="45.7161017" lon="11.353115"><ele>223.14285714285714</ele><time>2026-04-23T13:25:18.305Z</time></trkpt><trkpt lat="45.7161" lon="11.3532083"><ele>223.57142857142858</ele><time>2026-04-23T13:25:19.305Z</time></trkpt><trkpt lat="45.716105" lon="11.3533117"><ele>224.0</ele><time>2026-04-23T13:25:20.304Z</time></trkpt><trkpt lat="45.71613" lon="11.3534117"><ele>224.00000000000003</ele><time>2026-04-23T13:25:21.305Z</time></trkpt><trkpt lat="45.7161883" lon="11.3534867"><ele>224.0</ele><time>2026-04-23T13:25:22.304Z</time></trkpt><trkpt lat="45.7162633" lon="11.353555"><ele>224.0</ele><time>2026-04-23T13:25:23.304Z</time></trkpt><trkpt lat="45.7163483" lon="11.353605"><ele>224.0</ele><time>2026-04-23T13:25:24.304Z</time></trkpt><trkpt lat="45.7164383" lon="11.3536167"><ele>224.00000000000003</ele><time>2026-04-23T13:25:25.304Z</time></trkpt><trkpt lat="45.71653" lon="11.3536467"><ele>224.0</ele><time>2026-04-23T13:25:26.304Z</time></trkpt><trkpt lat="45.7166233" lon="11.3536233"><ele>224.0</ele><time>2026-04-23T13:25:27.304Z</time></trkpt><trkpt lat="45.7166983" lon="11.3535717"><ele>223.99999999999997</ele><time>2026-04-23T13:25:28.304Z</time></trkpt><trkpt lat="45.7167817" lon="11.3534733"><ele>223.99999999999997</ele><time>2026-04-23T13:25:29.304Z</time></trkpt><trkpt lat="45.716845" lon="11.3533683"><ele>224.0</ele><time>2026-04-23T13:25:30.304Z</time></trkpt><trkpt lat="45.7168783" lon="11.3532633"><ele>224.0</ele><time>2026-04-23T13:25:31.304Z</time></trkpt><trkpt lat="45.7169517" lon="11.353105"><ele>225.39999999999998</ele><time>2026-04-23T13:25:33.304Z</time></trkpt><trkpt lat="45.716985" lon="11.3529933"><ele>226.79999999999998</ele><time>2026-04-23T13:25:34.305Z</time></trkpt><trkpt lat="45.7170233" lon="11.3528633"><ele>228.20000000000002</ele><time>2026-04-23T13:25:35.304Z</time></trkpt><trkpt lat="45.7170783" lon="11.3527067"><ele>229.60000000000002</ele><time>2026-04-23T13:25:36.304Z</time></trkpt><trkpt lat="45.7171" lon="11.352555"><ele>231.0</ele><time>2026-04-23T13:25:37.305Z</time></trkpt><trkpt lat="45.7170983" lon="11.3523917"><ele>231.0</ele><time>2026-04-23T13:25:38.304Z</time></trkpt><trkpt lat="45.71708" lon="11.35222"><ele>231.00000000000003</ele><time>2026-04-23T13:25:39.304Z</time></trkpt><trkpt lat="45.7170633" lon="11.3520683"><ele>231.00000000000003</ele><time>2026-04-23T13:25:40.304Z</time></trkpt><trkpt lat="45.7170583" lon="11.3519133"><ele>231.0</ele><time>2026-04-23T13:25:41.304Z</time></trkpt><trkpt lat="45.717065" lon="11.3517767"><ele>231.0</ele><time>2026-04-23T13:25:42.304Z</time></trkpt><trkpt lat="45.7170733" lon="11.351655"><ele>231.20000000000002</ele><time>2026-04-23T13:25:43.304Z</time></trkpt><trkpt lat="45.7171017" lon="11.3515333"><ele>231.40000000000003</ele><time>2026-04-23T13:25:44.304Z</time></trkpt><trkpt lat="45.7171483" lon="11.3514083"><ele>231.6</ele><time>2026-04-23T13:25:45.304Z</time></trkpt><trkpt lat="45.7172083" lon="11.35128"><ele>231.8</ele><time>2026-04-23T13:25:46.305Z</time></trkpt><trkpt lat="45.71727" lon="11.3511667"><ele>232.0</ele><time>2026-04-23T13:25:47.304Z</time></trkpt><trkpt lat="45.7173217" lon="11.35107"><ele>231.99999999999997</ele><time>2026-04-23T13:25:48.304Z</time></trkpt><trkpt lat="45.7173667" lon="11.3510067"><ele>232.0</ele><time>2026-04-23T13:25:49.305Z</time></trkpt><trkpt lat="45.717475" lon="11.350965"><ele>232.0</ele><time>2026-04-23T13:25:51.304Z</time></trkpt><trkpt lat="45.7175383" lon="11.3510017"><ele>232.0</ele><time>2026-04-23T13:25:52.304Z</time></trkpt><trkpt lat="45.7176133" lon="11.3510833"><ele>231.99999999999997</ele><time>2026-04-23T13:25:53.303Z</time></trkpt><trkpt lat="45.7176917" lon="11.3511883"><ele>232.0</ele><time>2026-04-23T13:25:54.303Z</time></trkpt><trkpt lat="45.7177583" lon="11.3513517"><ele>231.8</ele><time>2026-04-23T13:25:55.303Z</time></trkpt><trkpt lat="45.71782" lon="11.3514483"><ele>231.6</ele><time>2026-04-23T13:25:56.303Z</time></trkpt><trkpt lat="45.7178883" lon="11.351525"><ele>231.40000000000003</ele><time>2026-04-23T13:25:57.303Z</time></trkpt><trkpt lat="45.7179567" lon="11.3515667"><ele>231.20000000000002</ele><time>2026-04-23T13:25:58.303Z</time></trkpt><trkpt lat="45.718035" lon="11.3515567"><ele>231.0</ele><time>2026-04-23T13:25:59.303Z</time></trkpt><trkpt lat="45.7181433" lon="11.3514533"><ele>231.8</ele><time>2026-04-23T13:26:01.303Z</time></trkpt><trkpt lat="45.7181817" lon="11.3513567"><ele>232.60000000000002</ele><time>2026-04-23T13:26:02.303Z</time></trkpt><trkpt lat="45.7182017" lon="11.3512183"><ele>233.4</ele><time>2026-04-23T13:26:03.303Z</time></trkpt><trkpt lat="45.7182233" lon="11.3510717"><ele>234.2</ele><time>2026-04-23T13:26:04.303Z</time></trkpt><trkpt lat="45.7182133" lon="11.3508933"><ele>235.0</ele><time>2026-04-23T13:26:05.303Z</time></trkpt><trkpt lat="45.7182233" lon="11.3507617"><ele>235.0</ele><time>2026-04-23T13:26:06.303Z</time></trkpt><trkpt lat="45.71824" lon="11.3506467"><ele>235.0</ele><time>2026-04-23T13:26:07.303Z</time></trkpt><trkpt lat="45.7182483" lon="11.3505317"><ele>238.0</ele><time>2026-04-23T13:26:08.303Z</time></trkpt><trkpt lat="45.71824" lon="11.35044"><ele>238.0</ele><time>2026-04-23T13:26:09.303Z</time></trkpt><trkpt lat="45.7181967" lon="11.3503217"><ele>238.0</ele><time>2026-04-23T13:26:11.303Z</time></trkpt></trkseg></trk></gpx>